<?xml version="1.0" encoding="UTF-8" standalone="no" ?>
<gpx xmlns="http://www.topografix.com/GPX/1/1" xmlns:xsi="http://www.w3.org/2001/XMLSchema-instance" xsi:schemaLocation="http://www.topografix.com/GPX/1/1 http://www.topografix.com/GPX/1/1/gpx.xsd" version="1.1" creator="VisuGPX - https://www.visugpx.com">
  <metadata>
    <name>La Bardenas Reales</name>
  </metadata>
  <trk>
    <name><![CDATA[1 - Bardenas Reales]]></name>
    <extensions>
      <line xmlns="http://www.topografix.com/GPX/gpx_style/0/2">
        <color>FF00FF</color>
        <opacity>0.5</opacity>
        <width>12</width>
      </line>
    </extensions>
    <trkseg>
      <trkpt lat="42.30496" lon="-1.41708">
        <ele>401</ele>
        <time>2013-10-27T11:15:04Z</time>
        <extensions>
          <visugpx:TrkExtension xmlns:visugpx="https://www.visugpx.com/editgpx/">
            <visugpx:node>1</visugpx:node>
            </visugpx:TrkExtension>
        </extensions>
      </trkpt>
      <trkpt lat="42.30379" lon="-1.41876">
        <ele>403.6</ele>
        <time>2013-10-27T11:17:23Z</time>
      </trkpt>
      <trkpt lat="42.30348" lon="-1.42037">
        <ele>396.8</ele>
        <time>2013-10-27T11:17:53Z</time>
      </trkpt>
      <trkpt lat="42.30267" lon="-1.42259">
        <ele>392.4</ele>
        <time>2013-10-27T11:19:11Z</time>
      </trkpt>
      <trkpt lat="42.30157" lon="-1.42686">
        <ele>378.4</ele>
        <time>2013-10-27T11:22:09Z</time>
      </trkpt>
      <trkpt lat="42.30138" lon="-1.42853">
        <ele>376.6</ele>
        <time>2013-10-27T11:22:45Z</time>
      </trkpt>
      <trkpt lat="42.30078" lon="-1.43132">
        <ele>373.1</ele>
        <time>2013-10-27T11:23:43Z</time>
      </trkpt>
      <trkpt lat="42.29999" lon="-1.43421">
        <ele>371.4</ele>
        <time>2013-10-27T11:24:45Z</time>
      </trkpt>
      <trkpt lat="42.30014" lon="-1.43517">
        <ele>371.5</ele>
        <time>2013-10-27T11:25:09Z</time>
      </trkpt>
      <trkpt lat="42.29954" lon="-1.43705">
        <ele>371.1</ele>
        <time>2013-10-27T11:25:52Z</time>
      </trkpt>
      <trkpt lat="42.29882" lon="-1.43818">
        <ele>370.9</ele>
        <time>2013-10-27T11:26:26Z</time>
      </trkpt>
      <trkpt lat="42.29678" lon="-1.44054">
        <ele>371.3</ele>
        <time>2013-10-27T11:27:42Z</time>
      </trkpt>
      <trkpt lat="42.29533" lon="-1.44158">
        <ele>370.9</ele>
        <time>2013-10-27T11:28:30Z</time>
      </trkpt>
      <trkpt lat="42.29316" lon="-1.4435">
        <ele>370.9</ele>
        <time>2013-10-27T11:29:49Z</time>
      </trkpt>
      <trkpt lat="42.2911" lon="-1.44471">
        <ele>369.4</ele>
        <time>2013-10-27T11:30:56Z</time>
      </trkpt>
      <trkpt lat="42.28894" lon="-1.44504">
        <ele>369.7</ele>
        <time>2013-10-27T11:32:02Z</time>
      </trkpt>
      <trkpt lat="42.28772" lon="-1.44583">
        <ele>370.6</ele>
        <time>2013-10-27T11:32:39Z</time>
      </trkpt>
      <trkpt lat="42.28626" lon="-1.44632">
        <ele>370.6</ele>
        <time>2013-10-27T11:34:23Z</time>
      </trkpt>
      <trkpt lat="42.28542" lon="-1.44678">
        <ele>370.2</ele>
        <time>2013-10-27T11:34:51Z</time>
      </trkpt>
      <trkpt lat="42.28283" lon="-1.44897">
        <ele>370.7</ele>
        <time>2013-10-27T11:36:15Z</time>
      </trkpt>
      <trkpt lat="42.2815" lon="-1.44969">
        <ele>372.1</ele>
        <time>2013-10-27T11:36:57Z</time>
      </trkpt>
      <trkpt lat="42.27946" lon="-1.45034">
        <ele>365.9</ele>
        <time>2013-10-27T11:37:32Z</time>
      </trkpt>
      <trkpt lat="42.27875" lon="-1.45104">
        <ele>365</ele>
        <time>2013-10-27T11:38:00Z</time>
      </trkpt>
      <trkpt lat="42.27838" lon="-1.45172">
        <ele>363.9</ele>
        <time>2013-10-27T11:38:13Z</time>
      </trkpt>
      <trkpt lat="42.27751" lon="-1.45249">
        <ele>361.9</ele>
        <time>2013-10-27T11:38:37Z</time>
      </trkpt>
      <trkpt lat="42.27572" lon="-1.45488">
        <ele>358</ele>
        <time>2013-10-27T11:40:05Z</time>
      </trkpt>
      <trkpt lat="42.27534" lon="-1.45649">
        <ele>351.9</ele>
        <time>2013-10-27T11:40:50Z</time>
      </trkpt>
      <trkpt lat="42.27557" lon="-1.45842">
        <ele>351.6</ele>
        <time>2013-10-27T11:41:30Z</time>
      </trkpt>
      <trkpt lat="42.27514" lon="-1.46039">
        <ele>345.1</ele>
        <time>2013-10-27T11:42:19Z</time>
      </trkpt>
      <trkpt lat="42.27565" lon="-1.46124">
        <ele>343.8</ele>
        <time>2013-10-27T11:42:47Z</time>
      </trkpt>
      <trkpt lat="42.27638" lon="-1.46349">
        <ele>347.3</ele>
        <time>2013-10-27T11:43:54Z</time>
      </trkpt>
      <trkpt lat="42.27655" lon="-1.46563">
        <ele>345</ele>
        <time>2013-10-27T11:44:33Z</time>
      </trkpt>
      <trkpt lat="42.2754" lon="-1.46692">
        <ele>338.7</ele>
        <time>2013-10-27T11:45:09Z</time>
      </trkpt>
      <trkpt lat="42.27493" lon="-1.46858">
        <ele>337</ele>
        <time>2013-10-27T11:45:49Z</time>
      </trkpt>
      <trkpt lat="42.27406" lon="-1.47288">
        <ele>335.4</ele>
        <time>2013-10-27T11:47:40Z</time>
      </trkpt>
      <trkpt lat="42.27294" lon="-1.47476">
        <ele>334.2</ele>
        <time>2013-10-27T11:48:31Z</time>
      </trkpt>
      <trkpt lat="42.27176" lon="-1.47622">
        <ele>329.7</ele>
        <time>2013-10-27T11:49:10Z</time>
      </trkpt>
      <trkpt lat="42.2715" lon="-1.47686">
        <ele>325.5</ele>
        <time>2013-10-27T11:49:32Z</time>
      </trkpt>
      <trkpt lat="42.27233" lon="-1.47817">
        <ele>330.5</ele>
        <time>2013-10-27T11:50:49Z</time>
      </trkpt>
      <trkpt lat="42.27267" lon="-1.47944">
        <ele>332.6</ele>
        <time>2013-10-27T11:55:08Z</time>
      </trkpt>
      <trkpt lat="42.27268" lon="-1.48043">
        <ele>332.7</ele>
        <time>2013-10-27T11:55:27Z</time>
      </trkpt>
      <trkpt lat="42.27252" lon="-1.4809">
        <ele>330.2</ele>
        <time>2013-10-27T11:55:42Z</time>
      </trkpt>
      <trkpt lat="42.27277" lon="-1.4816">
        <ele>327.8</ele>
        <time>2013-10-27T11:58:16Z</time>
      </trkpt>
      <trkpt lat="42.27241" lon="-1.48315">
        <ele>335.4</ele>
        <time>2013-10-27T11:59:22Z</time>
      </trkpt>
      <trkpt lat="42.27265" lon="-1.48507">
        <ele>337.9</ele>
        <time>2013-10-27T12:00:57Z</time>
      </trkpt>
      <trkpt lat="42.27261" lon="-1.48603">
        <ele>334.4</ele>
        <time>2013-10-27T12:01:29Z</time>
      </trkpt>
      <trkpt lat="42.27311" lon="-1.48664">
        <ele>339.2</ele>
        <time>2013-10-27T12:02:04Z</time>
      </trkpt>
      <trkpt lat="42.27309" lon="-1.48745">
        <ele>339.6</ele>
        <time>2013-10-27T12:02:37Z</time>
      </trkpt>
      <trkpt lat="42.27388" lon="-1.4899">
        <ele>341.7</ele>
        <time>2013-10-27T12:03:43Z</time>
      </trkpt>
      <trkpt lat="42.27363" lon="-1.49122">
        <ele>342.9</ele>
        <time>2013-10-27T12:04:17Z</time>
      </trkpt>
      <trkpt lat="42.2738" lon="-1.49292">
        <ele>345.1</ele>
        <time>2013-10-27T12:04:59Z</time>
      </trkpt>
      <trkpt lat="42.27376" lon="-1.494">
        <ele>349.2</ele>
        <time>2013-10-27T12:05:33Z</time>
      </trkpt>
      <trkpt lat="42.27317" lon="-1.49499">
        <ele>357.6</ele>
        <time>2013-10-27T12:07:46Z</time>
      </trkpt>
      <trkpt lat="42.27308" lon="-1.49539">
        <ele>359.8</ele>
        <time>2013-10-27T12:08:03Z</time>
      </trkpt>
      <trkpt lat="42.27312" lon="-1.49608">
        <ele>362.9</ele>
        <time>2013-10-27T12:08:33Z</time>
      </trkpt>
      <trkpt lat="42.27364" lon="-1.49757">
        <ele>365.4</ele>
        <time>2013-10-27T12:09:37Z</time>
      </trkpt>
      <trkpt lat="42.27309" lon="-1.49855">
        <ele>372.4</ele>
        <time>2013-10-27T12:10:27Z</time>
      </trkpt>
      <trkpt lat="42.27497" lon="-1.50196">
        <ele>387.5</ele>
        <time>2013-10-27T12:13:43Z</time>
      </trkpt>
      <trkpt lat="42.27508" lon="-1.50285">
        <ele>391.5</ele>
        <time>2013-10-27T12:14:22Z</time>
      </trkpt>
      <trkpt lat="42.27497" lon="-1.50342">
        <ele>395.2</ele>
        <time>2013-10-27T12:14:49Z</time>
      </trkpt>
      <trkpt lat="42.27512" lon="-1.50381">
        <ele>396.2</ele>
        <time>2013-10-27T12:15:09Z</time>
      </trkpt>
      <trkpt lat="42.27492" lon="-1.50523">
        <ele>401.5</ele>
        <time>2013-10-27T12:16:12Z</time>
      </trkpt>
      <trkpt lat="42.27465" lon="-1.50524">
        <ele>403.6</ele>
        <time>2013-10-27T12:16:28Z</time>
      </trkpt>
      <trkpt lat="42.27437" lon="-1.50487">
        <ele>406.2</ele>
        <time>2013-10-27T12:16:52Z</time>
      </trkpt>
      <trkpt lat="42.27418" lon="-1.50556">
        <ele>410.5</ele>
        <time>2013-10-27T12:17:28Z</time>
      </trkpt>
      <trkpt lat="42.27384" lon="-1.50588">
        <ele>414.2</ele>
        <time>2013-10-27T12:17:53Z</time>
      </trkpt>
      <trkpt lat="42.27319" lon="-1.50608">
        <ele>419.1</ele>
        <time>2013-10-27T12:18:33Z</time>
      </trkpt>
      <trkpt lat="42.27212" lon="-1.5059">
        <ele>425.3</ele>
        <time>2013-10-27T12:19:38Z</time>
      </trkpt>
      <trkpt lat="42.27207" lon="-1.50609">
        <ele>425.9</ele>
        <time>2013-10-27T12:19:49Z</time>
      </trkpt>
      <trkpt lat="42.27265" lon="-1.50646">
        <ele>430.1</ele>
        <time>2013-10-27T12:20:26Z</time>
      </trkpt>
      <trkpt lat="42.27396" lon="-1.50662">
        <ele>431.2</ele>
        <time>2013-10-27T12:50:08Z</time>
      </trkpt>
      <trkpt lat="42.27454" lon="-1.5074">
        <ele>430.5</ele>
        <time>2013-10-27T12:50:51Z</time>
      </trkpt>
      <trkpt lat="42.2747" lon="-1.50789">
        <ele>430.4</ele>
        <time>2013-10-27T12:52:11Z</time>
      </trkpt>
      <trkpt lat="42.2742" lon="-1.50685">
        <ele>430.7</ele>
        <time>2013-10-27T12:54:17Z</time>
      </trkpt>
      <trkpt lat="42.27454" lon="-1.50747">
        <ele>430.3</ele>
        <time>2013-10-27T12:55:32Z</time>
      </trkpt>
      <trkpt lat="42.27534" lon="-1.50981">
        <ele>426.7</ele>
        <time>2013-10-27T12:56:29Z</time>
      </trkpt>
      <trkpt lat="42.27641" lon="-1.51346">
        <ele>426.5</ele>
        <time>2013-10-27T12:57:36Z</time>
      </trkpt>
      <trkpt lat="42.27847" lon="-1.51704">
        <ele>425.6</ele>
        <time>2013-10-27T12:59:04Z</time>
      </trkpt>
      <trkpt lat="42.28088" lon="-1.52234">
        <ele>430.1</ele>
        <time>2013-10-27T13:01:44Z</time>
      </trkpt>
      <trkpt lat="42.28156" lon="-1.52357">
        <ele>429.6</ele>
        <time>2013-10-27T13:02:21Z</time>
      </trkpt>
      <trkpt lat="42.28321" lon="-1.52435">
        <ele>426.2</ele>
        <time>2013-10-27T13:03:17Z</time>
      </trkpt>
      <trkpt lat="42.28434" lon="-1.52513">
        <ele>423.2</ele>
        <time>2013-10-27T13:03:48Z</time>
      </trkpt>
      <trkpt lat="42.2854" lon="-1.52497">
        <ele>422.3</ele>
        <time>2013-10-27T13:04:26Z</time>
      </trkpt>
      <trkpt lat="42.28563" lon="-1.52505">
        <ele>422.5</ele>
        <time>2013-10-27T13:04:34Z</time>
      </trkpt>
      <trkpt lat="42.28877" lon="-1.52859">
        <ele>421.7</ele>
        <time>2013-10-27T13:07:08Z</time>
      </trkpt>
      <trkpt lat="42.2898" lon="-1.52873">
        <ele>422.5</ele>
        <time>2013-10-27T13:07:46Z</time>
      </trkpt>
      <trkpt lat="42.29108" lon="-1.5293">
        <ele>423.8</ele>
        <time>2013-10-27T13:08:30Z</time>
      </trkpt>
      <trkpt lat="42.29174" lon="-1.52943">
        <ele>423.6</ele>
        <time>2013-10-27T13:08:50Z</time>
      </trkpt>
      <trkpt lat="42.29306" lon="-1.53071">
        <ele>422.6</ele>
        <time>2013-10-27T13:09:38Z</time>
      </trkpt>
      <trkpt lat="42.29393" lon="-1.53112">
        <ele>422.4</ele>
        <time>2013-10-27T13:10:04Z</time>
      </trkpt>
      <trkpt lat="42.29458" lon="-1.53167">
        <ele>419.9</ele>
        <time>2013-10-27T13:10:27Z</time>
      </trkpt>
      <trkpt lat="42.29521" lon="-1.53133">
        <ele>421.4</ele>
        <time>2013-10-27T13:10:51Z</time>
      </trkpt>
      <trkpt lat="42.29605" lon="-1.53061">
        <ele>420.4</ele>
        <time>2013-10-27T13:11:19Z</time>
      </trkpt>
      <trkpt lat="42.29784" lon="-1.52851">
        <ele>422.2</ele>
        <time>2013-10-27T13:12:28Z</time>
      </trkpt>
      <trkpt lat="42.30013" lon="-1.52698">
        <ele>425.5</ele>
        <time>2013-10-27T13:13:41Z</time>
      </trkpt>
      <trkpt lat="42.30151" lon="-1.52659">
        <ele>427</ele>
        <time>2013-10-27T13:14:23Z</time>
      </trkpt>
      <trkpt lat="42.303" lon="-1.5258">
        <ele>428.7</ele>
        <time>2013-10-27T13:15:21Z</time>
      </trkpt>
      <trkpt lat="42.3045" lon="-1.52466">
        <ele>429.8</ele>
        <time>2013-10-27T13:16:15Z</time>
      </trkpt>
      <trkpt lat="42.30533" lon="-1.52424">
        <ele>430</ele>
        <time>2013-10-27T13:16:53Z</time>
      </trkpt>
      <trkpt lat="42.30642" lon="-1.52326">
        <ele>429.7</ele>
        <time>2013-10-27T13:17:36Z</time>
      </trkpt>
      <trkpt lat="42.30746" lon="-1.52276">
        <ele>430.3</ele>
        <time>2013-10-27T13:18:08Z</time>
      </trkpt>
      <trkpt lat="42.30891" lon="-1.52161">
        <ele>430.9</ele>
        <time>2013-10-27T13:18:54Z</time>
      </trkpt>
      <trkpt lat="42.31118" lon="-1.51931">
        <ele>431.4</ele>
        <time>2013-10-27T13:20:22Z</time>
      </trkpt>
      <trkpt lat="42.31347" lon="-1.51753">
        <ele>432.2</ele>
        <time>2013-10-27T13:21:44Z</time>
      </trkpt>
      <trkpt lat="42.31418" lon="-1.51656">
        <ele>432.1</ele>
        <time>2013-10-27T13:22:12Z</time>
      </trkpt>
      <trkpt lat="42.31634" lon="-1.51455">
        <ele>433.5</ele>
        <time>2013-10-27T13:23:25Z</time>
      </trkpt>
      <trkpt lat="42.32046" lon="-1.51008">
        <ele>435.8</ele>
        <time>2013-10-27T13:25:51Z</time>
      </trkpt>
      <trkpt lat="42.32262" lon="-1.50811">
        <ele>435.7</ele>
        <time>2013-10-27T13:27:03Z</time>
      </trkpt>
      <trkpt lat="42.32422" lon="-1.5061">
        <ele>437.2</ele>
        <time>2013-10-27T13:28:09Z</time>
      </trkpt>
      <trkpt lat="42.32634" lon="-1.50403">
        <ele>438.4</ele>
        <time>2013-10-27T13:30:21Z</time>
      </trkpt>
      <trkpt lat="42.32953" lon="-1.50242">
        <ele>438.9</ele>
        <time>2013-10-27T13:32:09Z</time>
      </trkpt>
      <trkpt lat="42.33053" lon="-1.50157">
        <ele>440.2</ele>
        <time>2013-10-27T13:35:33Z</time>
      </trkpt>
      <trkpt lat="42.33183" lon="-1.50095">
        <ele>441.2</ele>
        <time>2013-10-27T13:36:10Z</time>
      </trkpt>
      <trkpt lat="42.33373" lon="-1.50047">
        <ele>441.6</ele>
        <time>2013-10-27T13:37:30Z</time>
      </trkpt>
      <trkpt lat="42.33565" lon="-1.49973">
        <ele>439.6</ele>
        <time>2013-10-27T13:38:50Z</time>
      </trkpt>
      <trkpt lat="42.33505" lon="-1.49791">
        <ele>442.8</ele>
        <time>2013-10-27T13:39:42Z</time>
      </trkpt>
      <trkpt lat="42.33265" lon="-1.49336">
        <ele>443.4</ele>
        <time>2013-10-27T13:41:53Z</time>
      </trkpt>
      <trkpt lat="42.33179" lon="-1.49138">
        <ele>443.8</ele>
        <time>2013-10-27T13:42:45Z</time>
      </trkpt>
      <trkpt lat="42.33006" lon="-1.48887">
        <ele>443.5</ele>
        <time>2013-10-27T13:44:34Z</time>
      </trkpt>
      <trkpt lat="42.32831" lon="-1.48696">
        <ele>443.4</ele>
        <time>2013-10-27T13:45:46Z</time>
      </trkpt>
      <trkpt lat="42.32709" lon="-1.48603">
        <ele>444.7</ele>
        <time>2013-10-27T13:46:24Z</time>
      </trkpt>
      <trkpt lat="42.32664" lon="-1.4855">
        <ele>443.8</ele>
        <time>2013-10-27T13:46:40Z</time>
      </trkpt>
      <trkpt lat="42.32536" lon="-1.48474">
        <ele>444</ele>
        <time>2013-10-27T13:47:18Z</time>
      </trkpt>
      <trkpt lat="42.32429" lon="-1.48377">
        <ele>442.5</ele>
        <time>2013-10-27T13:47:50Z</time>
      </trkpt>
      <trkpt lat="42.32158" lon="-1.48211">
        <ele>443.8</ele>
        <time>2013-10-27T13:49:51Z</time>
      </trkpt>
      <trkpt lat="42.32048" lon="-1.4809">
        <ele>446.2</ele>
        <time>2013-10-27T13:50:29Z</time>
      </trkpt>
      <trkpt lat="42.31985" lon="-1.47945">
        <ele>446.4</ele>
        <time>2013-10-27T13:51:07Z</time>
      </trkpt>
      <trkpt lat="42.31845" lon="-1.47492">
        <ele>447.8</ele>
        <time>2013-10-27T13:52:51Z</time>
      </trkpt>
      <trkpt lat="42.31689" lon="-1.47275">
        <ele>449.9</ele>
        <time>2013-10-27T13:54:08Z</time>
      </trkpt>
      <trkpt lat="42.31465" lon="-1.47088">
        <ele>452.6</ele>
        <time>2013-10-27T14:04:55Z</time>
      </trkpt>
      <trkpt lat="42.31388" lon="-1.46901">
        <ele>453.9</ele>
        <time>2013-10-27T14:05:41Z</time>
      </trkpt>
      <trkpt lat="42.31194" lon="-1.46686">
        <ele>456.4</ele>
        <time>2013-10-27T14:06:57Z</time>
      </trkpt>
      <trkpt lat="42.31059" lon="-1.46447">
        <ele>458.7</ele>
        <time>2013-10-27T14:08:01Z</time>
      </trkpt>
      <trkpt lat="42.30926" lon="-1.46302">
        <ele>460.7</ele>
        <time>2013-10-27T14:08:59Z</time>
      </trkpt>
      <trkpt lat="42.30889" lon="-1.46153">
        <ele>462.3</ele>
        <time>2013-10-27T14:10:56Z</time>
      </trkpt>
      <trkpt lat="42.30831" lon="-1.4606">
        <ele>462.6</ele>
        <time>2013-10-27T14:11:25Z</time>
      </trkpt>
      <trkpt lat="42.30795" lon="-1.45881">
        <ele>464.8</ele>
        <time>2013-10-27T14:12:22Z</time>
      </trkpt>
      <trkpt lat="42.30744" lon="-1.45814">
        <ele>466.7</ele>
        <time>2013-10-27T14:12:46Z</time>
      </trkpt>
      <trkpt lat="42.30659" lon="-1.4574">
        <ele>467.9</ele>
        <time>2013-10-27T14:13:21Z</time>
      </trkpt>
      <trkpt lat="42.30666" lon="-1.45623">
        <ele>468.9</ele>
        <time>2013-10-27T14:14:02Z</time>
      </trkpt>
      <trkpt lat="42.30641" lon="-1.45558">
        <ele>468</ele>
        <time>2013-10-27T14:14:23Z</time>
      </trkpt>
      <trkpt lat="42.30751" lon="-1.45357">
        <ele>471</ele>
        <time>2013-10-27T14:15:34Z</time>
      </trkpt>
      <trkpt lat="42.30737" lon="-1.45257">
        <ele>473.6</ele>
        <time>2013-10-27T14:16:04Z</time>
      </trkpt>
      <trkpt lat="42.30757" lon="-1.45245">
        <ele>473.3</ele>
        <time>2013-10-27T14:16:16Z</time>
      </trkpt>
      <trkpt lat="42.30815" lon="-1.45258">
        <ele>469.4</ele>
        <time>2013-10-27T14:16:36Z</time>
      </trkpt>
      <trkpt lat="42.30946" lon="-1.45307">
        <ele>455.1</ele>
        <time>2013-10-27T14:17:11Z</time>
      </trkpt>
      <trkpt lat="42.30997" lon="-1.45271">
        <ele>445.2</ele>
        <time>2013-10-27T14:17:30Z</time>
      </trkpt>
      <trkpt lat="42.31035" lon="-1.45194">
        <ele>438.5</ele>
        <time>2013-10-27T14:17:54Z</time>
      </trkpt>
      <trkpt lat="42.31085" lon="-1.44975">
        <ele>430.5</ele>
        <time>2013-10-27T14:18:59Z</time>
      </trkpt>
      <trkpt lat="42.31096" lon="-1.4474">
        <ele>428</ele>
        <time>2013-10-27T14:19:38Z</time>
      </trkpt>
      <trkpt lat="42.31142" lon="-1.44533">
        <ele>425.9</ele>
        <time>2013-10-27T14:20:41Z</time>
      </trkpt>
      <trkpt lat="42.30974" lon="-1.44451">
        <ele>426.6</ele>
        <time>2013-10-27T14:21:29Z</time>
      </trkpt>
      <trkpt lat="42.30845" lon="-1.44251">
        <ele>430.1</ele>
        <time>2013-10-27T14:22:41Z</time>
      </trkpt>
      <trkpt lat="42.308" lon="-1.44243">
        <ele>429.4</ele>
        <time>2013-10-27T14:22:53Z</time>
      </trkpt>
      <trkpt lat="42.30712" lon="-1.4418">
        <ele>428.4</ele>
        <time>2013-10-27T14:23:22Z</time>
      </trkpt>
      <trkpt lat="42.30657" lon="-1.44176">
        <ele>428.2</ele>
        <time>2013-10-27T14:23:42Z</time>
      </trkpt>
      <trkpt lat="42.30582" lon="-1.44115">
        <ele>426.6</ele>
        <time>2013-10-27T14:24:09Z</time>
      </trkpt>
      <trkpt lat="42.30555" lon="-1.43991">
        <ele>420.4</ele>
        <time>2013-10-27T14:24:42Z</time>
      </trkpt>
      <trkpt lat="42.30558" lon="-1.43932">
        <ele>416.4</ele>
        <time>2013-10-27T14:24:58Z</time>
      </trkpt>
      <trkpt lat="42.3051" lon="-1.43859">
        <ele>412.5</ele>
        <time>2013-10-27T14:25:23Z</time>
      </trkpt>
      <trkpt lat="42.30465" lon="-1.43844">
        <ele>410</ele>
        <time>2013-10-27T14:25:38Z</time>
      </trkpt>
      <trkpt lat="42.30424" lon="-1.43877">
        <ele>407.4</ele>
        <time>2013-10-27T14:26:04Z</time>
      </trkpt>
      <trkpt lat="42.30315" lon="-1.43876">
        <ele>402.8</ele>
        <time>2013-10-27T14:26:43Z</time>
      </trkpt>
      <trkpt lat="42.30262" lon="-1.43765">
        <ele>397.2</ele>
        <time>2013-10-27T14:27:09Z</time>
      </trkpt>
      <trkpt lat="42.30271" lon="-1.43644">
        <ele>393.1</ele>
        <time>2013-10-27T14:27:33Z</time>
      </trkpt>
      <trkpt lat="42.30257" lon="-1.43602">
        <ele>391.6</ele>
        <time>2013-10-27T14:27:44Z</time>
      </trkpt>
      <trkpt lat="42.30132" lon="-1.43518">
        <ele>388.9</ele>
        <time>2013-10-27T14:28:31Z</time>
      </trkpt>
      <trkpt lat="42.30087" lon="-1.43418">
        <ele>381</ele>
        <time>2013-10-27T14:29:06Z</time>
      </trkpt>
      <trkpt lat="42.30024" lon="-1.43477">
        <ele>380.5</ele>
        <time>2013-10-27T14:29:29Z</time>
      </trkpt>
      <trkpt lat="42.29999" lon="-1.43431">
        <ele>380</ele>
        <time>2013-10-27T14:29:52Z</time>
      </trkpt>
      <trkpt lat="42.30079" lon="-1.43136">
        <ele>381.5</ele>
        <time>2013-10-27T14:31:00Z</time>
      </trkpt>
      <trkpt lat="42.30139" lon="-1.42856">
        <ele>385.3</ele>
        <time>2013-10-27T14:32:06Z</time>
      </trkpt>
      <trkpt lat="42.3016" lon="-1.42679">
        <ele>387.6</ele>
        <time>2013-10-27T14:32:48Z</time>
      </trkpt>
      <trkpt lat="42.30265" lon="-1.42268">
        <ele>399.5</ele>
        <time>2013-10-27T14:36:17Z</time>
      </trkpt>
      <trkpt lat="42.30351" lon="-1.42029">
        <ele>405.6</ele>
        <time>2013-10-27T14:38:10Z</time>
      </trkpt>
      <trkpt lat="42.30378" lon="-1.41877">
        <ele>412.7</ele>
        <time>2013-10-27T14:38:56Z</time>
      </trkpt>
      <trkpt lat="42.30494" lon="-1.41711">
        <ele>412.3</ele>
        <time>2013-10-27T14:48:15Z</time>
      </trkpt>
    </trkseg>
  </trk>
  <trk>
    <name><![CDATA[2 Embalse del Ferial]]></name>
    <extensions>
      <line xmlns="http://www.topografix.com/GPX/gpx_style/0/2">
        <color>0080ff</color>
        <opacity>0.55</opacity>
        <width>12</width>
      </line>
    </extensions>
    <trkseg>
      <trkpt lat="42.28835" lon="-1.58851">
        <ele>397</ele>
      </trkpt>
      <trkpt lat="42.28777" lon="-1.58859">
        <ele>397</ele>
      </trkpt>
      <trkpt lat="42.28742" lon="-1.58821">
        <ele>395</ele>
      </trkpt>
      <trkpt lat="42.28674" lon="-1.58776">
        <ele>382</ele>
      </trkpt>
      <trkpt lat="42.2864" lon="-1.58823">
        <ele>380</ele>
      </trkpt>
      <trkpt lat="42.28611" lon="-1.58837">
        <ele>371</ele>
      </trkpt>
      <trkpt lat="42.28571" lon="-1.58732">
        <ele>368</ele>
      </trkpt>
      <trkpt lat="42.28551" lon="-1.58648">
        <ele>366</ele>
      </trkpt>
      <trkpt lat="42.28505" lon="-1.58491">
        <ele>369</ele>
      </trkpt>
      <trkpt lat="42.28489" lon="-1.58374">
        <ele>375</ele>
      </trkpt>
      <trkpt lat="42.28502" lon="-1.58287">
        <ele>386</ele>
      </trkpt>
      <trkpt lat="42.28555" lon="-1.58234">
        <ele>396</ele>
      </trkpt>
      <trkpt lat="42.28539" lon="-1.58142">
        <ele>387</ele>
      </trkpt>
      <trkpt lat="42.28534" lon="-1.58051">
        <ele>397</ele>
      </trkpt>
      <trkpt lat="42.28576" lon="-1.58004">
        <ele>401</ele>
      </trkpt>
      <trkpt lat="42.28606" lon="-1.5799">
        <ele>399</ele>
      </trkpt>
      <trkpt lat="42.28559" lon="-1.57795">
        <ele>402</ele>
      </trkpt>
      <trkpt lat="42.28571" lon="-1.57591">
        <ele>403</ele>
      </trkpt>
      <trkpt lat="42.2853" lon="-1.57428">
        <ele>403</ele>
      </trkpt>
      <trkpt lat="42.28519" lon="-1.57317">
        <ele>404</ele>
      </trkpt>
      <trkpt lat="42.28493" lon="-1.57213">
        <ele>404</ele>
      </trkpt>
      <trkpt lat="42.28468" lon="-1.57154">
        <ele>404</ele>
      </trkpt>
      <trkpt lat="42.28409" lon="-1.57115">
        <ele>404</ele>
      </trkpt>
      <trkpt lat="42.2836" lon="-1.57026">
        <ele>405</ele>
      </trkpt>
      <trkpt lat="42.28349" lon="-1.56953">
        <ele>405</ele>
      </trkpt>
      <trkpt lat="42.28347" lon="-1.56828">
        <ele>406</ele>
      </trkpt>
      <trkpt lat="42.28297" lon="-1.56679">
        <ele>406</ele>
      </trkpt>
      <trkpt lat="42.28344" lon="-1.56599">
        <ele>406</ele>
      </trkpt>
      <trkpt lat="42.28387" lon="-1.56454">
        <ele>408</ele>
      </trkpt>
      <trkpt lat="42.28399" lon="-1.5627">
        <ele>408</ele>
      </trkpt>
      <trkpt lat="42.28338" lon="-1.56062">
        <ele>408</ele>
      </trkpt>
      <trkpt lat="42.28332" lon="-1.55943">
        <ele>407</ele>
      </trkpt>
      <trkpt lat="42.28351" lon="-1.55904">
        <ele>404</ele>
      </trkpt>
      <trkpt lat="42.28325" lon="-1.55774">
        <ele>409</ele>
      </trkpt>
      <trkpt lat="42.28329" lon="-1.55695">
        <ele>410</ele>
      </trkpt>
      <trkpt lat="42.28352" lon="-1.55602">
        <ele>411</ele>
      </trkpt>
      <trkpt lat="42.28405" lon="-1.55529">
        <ele>412</ele>
      </trkpt>
      <trkpt lat="42.28433" lon="-1.55508">
        <ele>411</ele>
      </trkpt>
      <trkpt lat="42.28481" lon="-1.55416">
        <ele>410</ele>
      </trkpt>
      <trkpt lat="42.28514" lon="-1.55342">
        <ele>411</ele>
      </trkpt>
      <trkpt lat="42.28572" lon="-1.55275">
        <ele>413</ele>
      </trkpt>
      <trkpt lat="42.28619" lon="-1.55182">
        <ele>414</ele>
      </trkpt>
      <trkpt lat="42.28647" lon="-1.55077">
        <ele>416</ele>
      </trkpt>
      <trkpt lat="42.28702" lon="-1.55161">
        <ele>416</ele>
      </trkpt>
      <trkpt lat="42.28781" lon="-1.55284">
        <ele>414</ele>
      </trkpt>
      <trkpt lat="42.28811" lon="-1.55289">
        <ele>414</ele>
      </trkpt>
      <trkpt lat="42.28888" lon="-1.55314">
        <ele>414</ele>
      </trkpt>
      <trkpt lat="42.28982" lon="-1.55385">
        <ele>412</ele>
      </trkpt>
      <trkpt lat="42.29056" lon="-1.55455">
        <ele>410</ele>
      </trkpt>
      <trkpt lat="42.29115" lon="-1.55532">
        <ele>407</ele>
      </trkpt>
      <trkpt lat="42.29194" lon="-1.55563">
        <ele>398</ele>
      </trkpt>
      <trkpt lat="42.29277" lon="-1.55529">
        <ele>397</ele>
      </trkpt>
      <trkpt lat="42.29306" lon="-1.5558">
        <ele>397</ele>
      </trkpt>
      <trkpt lat="42.29375" lon="-1.55644">
        <ele>399</ele>
      </trkpt>
      <trkpt lat="42.29459" lon="-1.55688">
        <ele>405</ele>
      </trkpt>
      <trkpt lat="42.29547" lon="-1.55746">
        <ele>412</ele>
      </trkpt>
      <trkpt lat="42.29621" lon="-1.55842">
        <ele>413</ele>
      </trkpt>
      <trkpt lat="42.29646" lon="-1.55888">
        <ele>413</ele>
      </trkpt>
      <trkpt lat="42.29652" lon="-1.5592">
        <ele>413</ele>
      </trkpt>
      <trkpt lat="42.29565" lon="-1.56027">
        <ele>413</ele>
      </trkpt>
      <trkpt lat="42.29512" lon="-1.56074">
        <ele>412</ele>
      </trkpt>
      <trkpt lat="42.29478" lon="-1.56107">
        <ele>411</ele>
      </trkpt>
      <trkpt lat="42.29465" lon="-1.56148">
        <ele>411</ele>
      </trkpt>
      <trkpt lat="42.29441" lon="-1.56247">
        <ele>411</ele>
      </trkpt>
      <trkpt lat="42.29403" lon="-1.56313">
        <ele>411</ele>
      </trkpt>
      <trkpt lat="42.29398" lon="-1.56326">
        <ele>410</ele>
      </trkpt>
      <trkpt lat="42.29388" lon="-1.56333">
        <ele>410</ele>
      </trkpt>
      <trkpt lat="42.2937" lon="-1.56385">
        <ele>410</ele>
      </trkpt>
      <trkpt lat="42.29392" lon="-1.56575">
        <ele>409</ele>
      </trkpt>
      <trkpt lat="42.29414" lon="-1.56811">
        <ele>408</ele>
      </trkpt>
      <trkpt lat="42.29428" lon="-1.57125">
        <ele>408</ele>
      </trkpt>
      <trkpt lat="42.2943" lon="-1.5731">
        <ele>407</ele>
      </trkpt>
      <trkpt lat="42.29466" lon="-1.57479">
        <ele>406</ele>
      </trkpt>
      <trkpt lat="42.29502" lon="-1.57616">
        <ele>407</ele>
      </trkpt>
      <trkpt lat="42.29587" lon="-1.57778">
        <ele>407</ele>
      </trkpt>
      <trkpt lat="42.29666" lon="-1.57874">
        <ele>401</ele>
      </trkpt>
      <trkpt lat="42.29726" lon="-1.57952">
        <ele>390</ele>
      </trkpt>
      <trkpt lat="42.29741" lon="-1.58005">
        <ele>386</ele>
      </trkpt>
      <trkpt lat="42.29737" lon="-1.5809">
        <ele>382</ele>
      </trkpt>
      <trkpt lat="42.29766" lon="-1.58122">
        <ele>382</ele>
      </trkpt>
      <trkpt lat="42.29816" lon="-1.5816">
        <ele>378</ele>
      </trkpt>
      <trkpt lat="42.29764" lon="-1.58266">
        <ele>378</ele>
      </trkpt>
      <trkpt lat="42.29735" lon="-1.58352">
        <ele>376</ele>
      </trkpt>
      <trkpt lat="42.29692" lon="-1.58445">
        <ele>379</ele>
      </trkpt>
      <trkpt lat="42.29664" lon="-1.58505">
        <ele>378</ele>
      </trkpt>
      <trkpt lat="42.29665" lon="-1.58563">
        <ele>379</ele>
      </trkpt>
      <trkpt lat="42.29666" lon="-1.5865">
        <ele>380</ele>
      </trkpt>
      <trkpt lat="42.29632" lon="-1.58662">
        <ele>378</ele>
      </trkpt>
      <trkpt lat="42.29593" lon="-1.58663">
        <ele>378</ele>
      </trkpt>
      <trkpt lat="42.29573" lon="-1.58658">
        <ele>377</ele>
      </trkpt>
      <trkpt lat="42.29539" lon="-1.58632">
        <ele>377</ele>
      </trkpt>
      <trkpt lat="42.29524" lon="-1.58632">
        <ele>377</ele>
      </trkpt>
      <trkpt lat="42.29447" lon="-1.58628">
        <ele>378</ele>
      </trkpt>
      <trkpt lat="42.29437" lon="-1.58647">
        <ele>377</ele>
      </trkpt>
      <trkpt lat="42.29432" lon="-1.5868">
        <ele>378</ele>
      </trkpt>
      <trkpt lat="42.29404" lon="-1.58754">
        <ele>379</ele>
      </trkpt>
      <trkpt lat="42.29346" lon="-1.58767">
        <ele>378</ele>
      </trkpt>
      <trkpt lat="42.29293" lon="-1.58808">
        <ele>378</ele>
      </trkpt>
      <trkpt lat="42.29239" lon="-1.58796">
        <ele>377</ele>
      </trkpt>
      <trkpt lat="42.29186" lon="-1.58797">
        <ele>378</ele>
      </trkpt>
      <trkpt lat="42.29171" lon="-1.58811">
        <ele>376</ele>
      </trkpt>
      <trkpt lat="42.29147" lon="-1.58858">
        <ele>378</ele>
      </trkpt>
      <trkpt lat="42.29133" lon="-1.5891">
        <ele>378</ele>
      </trkpt>
      <trkpt lat="42.29124" lon="-1.58962">
        <ele>377</ele>
      </trkpt>
      <trkpt lat="42.29091" lon="-1.59049">
        <ele>377</ele>
      </trkpt>
      <trkpt lat="42.29052" lon="-1.59062">
        <ele>378</ele>
      </trkpt>
      <trkpt lat="42.2897" lon="-1.59104">
        <ele>375</ele>
      </trkpt>
      <trkpt lat="42.28951" lon="-1.59105">
        <ele>378</ele>
      </trkpt>
      <trkpt lat="42.28893" lon="-1.59158">
        <ele>376</ele>
      </trkpt>
      <trkpt lat="42.28829" lon="-1.5914">
        <ele>377</ele>
      </trkpt>
      <trkpt lat="42.28775" lon="-1.59108">
        <ele>377</ele>
      </trkpt>
      <trkpt lat="42.28691" lon="-1.59012">
        <ele>374</ele>
      </trkpt>
      <trkpt lat="42.28646" lon="-1.58954">
        <ele>372</ele>
      </trkpt>
      <trkpt lat="42.28622" lon="-1.58921">
        <ele>372</ele>
      </trkpt>
      <trkpt lat="42.28621" lon="-1.58862">
        <ele>373</ele>
      </trkpt>
      <trkpt lat="42.28679" lon="-1.58803">
        <ele>387</ele>
      </trkpt>
      <trkpt lat="42.28777" lon="-1.58853">
        <ele>397</ele>
      </trkpt>
      <trkpt lat="42.28841" lon="-1.58851">
        <ele>396</ele>
        <extensions>
          <visugpx:TrkExtension xmlns:visugpx="https://www.visugpx.com/editgpx/">
            <visugpx:node>1</visugpx:node>
            </visugpx:TrkExtension>
        </extensions>
      </trkpt>
    </trkseg>
  </trk>
  <trk>
    <name><![CDATA[3.1 Polygone de Tir]]></name>
    <extensions>
      <line xmlns="http://www.topografix.com/GPX/gpx_style/0/2">
        <color>0080ff</color>
        <opacity>0.5</opacity>
        <width>12</width>
      </line>
    </extensions>
    <trkseg>
      <trkpt lat="42.21791" lon="-1.46355">
        <ele>300.2</ele>
        <time>2014-11-29T14:16:41Z</time>
      </trkpt>
      <trkpt lat="42.21755" lon="-1.46292">
        <ele>302.4</ele>
        <time>2014-11-29T14:16:41Z</time>
      </trkpt>
      <trkpt lat="42.21715" lon="-1.46213">
        <ele>302.1</ele>
        <time>2014-11-29T14:16:41Z</time>
      </trkpt>
      <trkpt lat="42.21693" lon="-1.46172">
        <ele>301.7</ele>
        <time>2014-11-29T14:16:41Z</time>
      </trkpt>
      <trkpt lat="42.21664" lon="-1.46133">
        <ele>302</ele>
        <time>2014-11-29T14:16:41Z</time>
      </trkpt>
      <trkpt lat="42.21634" lon="-1.46095">
        <ele>301.9</ele>
        <time>2014-11-29T14:16:41Z</time>
      </trkpt>
      <trkpt lat="42.21591" lon="-1.46039">
        <ele>303.1</ele>
        <time>2014-11-29T14:16:41Z</time>
      </trkpt>
      <trkpt lat="42.21555" lon="-1.45989">
        <ele>303.3</ele>
        <time>2014-11-29T14:16:41Z</time>
      </trkpt>
      <trkpt lat="42.21529" lon="-1.45944">
        <ele>302.7</ele>
        <time>2014-11-29T14:16:41Z</time>
      </trkpt>
      <trkpt lat="42.21497" lon="-1.45883">
        <ele>302.4</ele>
        <time>2014-11-29T14:16:41Z</time>
      </trkpt>
      <trkpt lat="42.21468" lon="-1.45832">
        <ele>302.6</ele>
        <time>2014-11-29T14:16:41Z</time>
      </trkpt>
      <trkpt lat="42.21439" lon="-1.45782">
        <ele>302.2</ele>
        <time>2014-11-29T14:16:41Z</time>
      </trkpt>
      <trkpt lat="42.2142" lon="-1.45765">
        <ele>301.3</ele>
        <time>2014-11-29T14:16:41Z</time>
      </trkpt>
      <trkpt lat="42.21397" lon="-1.45754">
        <ele>301.5</ele>
        <time>2014-11-29T14:16:41Z</time>
      </trkpt>
      <trkpt lat="42.21374" lon="-1.45743">
        <ele>302.2</ele>
        <time>2014-11-29T14:16:41Z</time>
      </trkpt>
      <trkpt lat="42.21351" lon="-1.45721">
        <ele>303.3</ele>
        <time>2014-11-29T14:16:41Z</time>
      </trkpt>
      <trkpt lat="42.2133" lon="-1.4569">
        <ele>304.4</ele>
        <time>2014-11-29T14:16:41Z</time>
      </trkpt>
      <trkpt lat="42.21292" lon="-1.45643">
        <ele>303.2</ele>
        <time>2014-11-29T14:16:41Z</time>
      </trkpt>
      <trkpt lat="42.21271" lon="-1.45616">
        <ele>302.1</ele>
        <time>2014-11-29T14:16:41Z</time>
      </trkpt>
      <trkpt lat="42.21251" lon="-1.4559">
        <ele>301.1</ele>
        <time>2014-11-29T14:16:41Z</time>
      </trkpt>
      <trkpt lat="42.21229" lon="-1.45561">
        <ele>301.1</ele>
        <time>2014-11-29T14:16:41Z</time>
      </trkpt>
      <trkpt lat="42.21197" lon="-1.45518">
        <ele>301.6</ele>
        <time>2014-11-29T14:16:41Z</time>
      </trkpt>
      <trkpt lat="42.21167" lon="-1.45478">
        <ele>302.2</ele>
        <time>2014-11-29T14:16:41Z</time>
      </trkpt>
      <trkpt lat="42.21138" lon="-1.45438">
        <ele>303.2</ele>
        <time>2014-11-29T14:16:41Z</time>
      </trkpt>
      <trkpt lat="42.21099" lon="-1.45386">
        <ele>305.2</ele>
        <time>2014-11-29T14:16:41Z</time>
      </trkpt>
      <trkpt lat="42.21086" lon="-1.45364">
        <ele>306.2</ele>
        <time>2014-11-29T14:16:41Z</time>
      </trkpt>
      <trkpt lat="42.21032" lon="-1.45292">
        <ele>304.5</ele>
        <time>2014-11-29T14:16:41Z</time>
      </trkpt>
      <trkpt lat="42.20988" lon="-1.45232">
        <ele>303.8</ele>
        <time>2014-11-29T14:16:41Z</time>
      </trkpt>
      <trkpt lat="42.20926" lon="-1.45149">
        <ele>302.6</ele>
        <time>2014-11-29T14:16:41Z</time>
      </trkpt>
      <trkpt lat="42.20869" lon="-1.45078">
        <ele>303.5</ele>
        <time>2014-11-29T14:16:41Z</time>
      </trkpt>
      <trkpt lat="42.20803" lon="-1.44988">
        <ele>306</ele>
        <time>2014-11-29T14:16:41Z</time>
      </trkpt>
      <trkpt lat="42.20759" lon="-1.44928">
        <ele>307.6</ele>
        <time>2014-11-29T14:16:41Z</time>
      </trkpt>
      <trkpt lat="42.20712" lon="-1.44871">
        <ele>308.6</ele>
        <time>2014-11-29T14:16:41Z</time>
      </trkpt>
      <trkpt lat="42.20669" lon="-1.44814">
        <ele>310.6</ele>
        <time>2014-11-29T14:16:41Z</time>
      </trkpt>
      <trkpt lat="42.20615" lon="-1.44738">
        <ele>309.4</ele>
        <time>2014-11-29T14:16:41Z</time>
      </trkpt>
      <trkpt lat="42.20586" lon="-1.44694">
        <ele>309</ele>
        <time>2014-11-29T14:16:41Z</time>
      </trkpt>
      <trkpt lat="42.20573" lon="-1.44676">
        <ele>308.8</ele>
        <time>2014-11-29T14:16:41Z</time>
      </trkpt>
      <trkpt lat="42.20554" lon="-1.44652">
        <ele>308.5</ele>
        <time>2014-11-29T14:16:41Z</time>
      </trkpt>
      <trkpt lat="42.20517" lon="-1.44603">
        <ele>308.8</ele>
        <time>2014-11-29T14:16:41Z</time>
      </trkpt>
      <trkpt lat="42.20469" lon="-1.44541">
        <ele>310.6</ele>
        <time>2014-11-29T14:16:41Z</time>
      </trkpt>
      <trkpt lat="42.20428" lon="-1.44488">
        <ele>311.9</ele>
        <time>2014-11-29T14:16:41Z</time>
      </trkpt>
      <trkpt lat="42.20404" lon="-1.4446">
        <ele>312.9</ele>
        <time>2014-11-29T14:16:41Z</time>
      </trkpt>
      <trkpt lat="42.20386" lon="-1.44436">
        <ele>313.6</ele>
        <time>2014-11-29T14:16:41Z</time>
      </trkpt>
      <trkpt lat="42.20369" lon="-1.44411">
        <ele>314.3</ele>
        <time>2014-11-29T14:16:41Z</time>
      </trkpt>
      <trkpt lat="42.20329" lon="-1.44355">
        <ele>315.7</ele>
        <time>2014-11-29T14:16:41Z</time>
      </trkpt>
      <trkpt lat="42.20293" lon="-1.44304">
        <ele>317.6</ele>
        <time>2014-11-29T14:16:41Z</time>
      </trkpt>
      <trkpt lat="42.20256" lon="-1.44253">
        <ele>319.9</ele>
        <time>2014-11-29T14:16:41Z</time>
      </trkpt>
      <trkpt lat="42.2019" lon="-1.44159">
        <ele>316.7</ele>
        <time>2014-11-29T14:16:41Z</time>
      </trkpt>
      <trkpt lat="42.20148" lon="-1.44101">
        <ele>317.9</ele>
        <time>2014-11-29T14:16:41Z</time>
      </trkpt>
      <trkpt lat="42.20103" lon="-1.44036">
        <ele>318.7</ele>
        <time>2014-11-29T14:16:41Z</time>
      </trkpt>
      <trkpt lat="42.20064" lon="-1.43983">
        <ele>319.4</ele>
        <time>2014-11-29T14:16:41Z</time>
      </trkpt>
      <trkpt lat="42.20029" lon="-1.43935">
        <ele>320.4</ele>
        <time>2014-11-29T14:16:41Z</time>
      </trkpt>
      <trkpt lat="42.19983" lon="-1.43873">
        <ele>321.1</ele>
        <time>2014-11-29T14:16:41Z</time>
      </trkpt>
      <trkpt lat="42.19919" lon="-1.43785">
        <ele>323.9</ele>
        <time>2014-11-29T14:16:41Z</time>
      </trkpt>
      <trkpt lat="42.19875" lon="-1.4372">
        <ele>324.6</ele>
        <time>2014-11-29T14:16:41Z</time>
      </trkpt>
      <trkpt lat="42.19863" lon="-1.43702">
        <ele>324.5</ele>
        <time>2014-11-29T14:16:41Z</time>
      </trkpt>
      <trkpt lat="42.19856" lon="-1.43659">
        <ele>325.8</ele>
        <time>2014-11-29T14:16:41Z</time>
      </trkpt>
      <trkpt lat="42.19847" lon="-1.43574">
        <ele>332</ele>
        <time>2014-11-29T14:16:41Z</time>
      </trkpt>
      <trkpt lat="42.19844" lon="-1.43508">
        <ele>338.3</ele>
        <time>2014-11-29T14:16:41Z</time>
      </trkpt>
      <trkpt lat="42.19845" lon="-1.43424">
        <ele>340</ele>
        <time>2014-11-29T14:16:41Z</time>
      </trkpt>
      <trkpt lat="42.19841" lon="-1.43376">
        <ele>339.8</ele>
        <time>2014-11-29T14:16:41Z</time>
      </trkpt>
      <trkpt lat="42.19833" lon="-1.4333">
        <ele>339.2</ele>
        <time>2014-11-29T14:16:41Z</time>
      </trkpt>
      <trkpt lat="42.19814" lon="-1.43264">
        <ele>341.5</ele>
        <time>2014-11-29T14:16:41Z</time>
      </trkpt>
      <trkpt lat="42.1979" lon="-1.43186">
        <ele>340.6</ele>
        <time>2014-11-29T14:16:41Z</time>
      </trkpt>
      <trkpt lat="42.19757" lon="-1.43072">
        <ele>340.9</ele>
        <time>2014-11-29T14:16:41Z</time>
      </trkpt>
      <trkpt lat="42.19743" lon="-1.43035">
        <ele>339.4</ele>
        <time>2014-11-29T14:16:41Z</time>
      </trkpt>
      <trkpt lat="42.19728" lon="-1.43009">
        <ele>337.8</ele>
        <time>2014-11-29T14:16:41Z</time>
      </trkpt>
      <trkpt lat="42.19711" lon="-1.42977">
        <ele>337.1</ele>
        <time>2014-11-29T14:16:41Z</time>
      </trkpt>
      <trkpt lat="42.19696" lon="-1.4293">
        <ele>337.1</ele>
        <time>2014-11-29T14:16:41Z</time>
      </trkpt>
      <trkpt lat="42.19684" lon="-1.42866">
        <ele>337.6</ele>
        <time>2014-11-29T14:16:41Z</time>
      </trkpt>
      <trkpt lat="42.19675" lon="-1.42822">
        <ele>338.6</ele>
        <time>2014-11-29T14:16:41Z</time>
      </trkpt>
      <trkpt lat="42.19659" lon="-1.42655">
        <ele>344.2</ele>
        <time>2014-11-29T14:16:41Z</time>
      </trkpt>
      <trkpt lat="42.19652" lon="-1.42575">
        <ele>345.7</ele>
        <time>2014-11-29T14:16:41Z</time>
      </trkpt>
      <trkpt lat="42.19647" lon="-1.42514">
        <ele>346.2</ele>
        <time>2014-11-29T14:16:41Z</time>
      </trkpt>
      <trkpt lat="42.19637" lon="-1.42419">
        <ele>345.9</ele>
        <time>2014-11-29T14:16:41Z</time>
      </trkpt>
      <trkpt lat="42.19629" lon="-1.42334">
        <ele>346.2</ele>
        <time>2014-11-29T14:16:41Z</time>
      </trkpt>
      <trkpt lat="42.19621" lon="-1.42261">
        <ele>349.1</ele>
        <time>2014-11-29T14:16:41Z</time>
      </trkpt>
      <trkpt lat="42.19613" lon="-1.42174">
        <ele>355.2</ele>
        <time>2014-11-29T14:16:41Z</time>
      </trkpt>
      <trkpt lat="42.19604" lon="-1.42089">
        <ele>362.1</ele>
        <time>2014-11-29T14:16:41Z</time>
      </trkpt>
      <trkpt lat="42.19602" lon="-1.42056">
        <ele>362.4</ele>
        <time>2014-11-29T14:16:41Z</time>
      </trkpt>
      <trkpt lat="42.19592" lon="-1.42025">
        <ele>361</ele>
        <time>2014-11-29T14:16:41Z</time>
      </trkpt>
      <trkpt lat="42.19578" lon="-1.41975">
        <ele>358.9</ele>
        <time>2014-11-29T14:16:41Z</time>
      </trkpt>
      <trkpt lat="42.19557" lon="-1.41899">
        <ele>355.8</ele>
        <time>2014-11-29T14:16:41Z</time>
      </trkpt>
      <trkpt lat="42.19533" lon="-1.41819">
        <ele>353.5</ele>
        <time>2014-11-29T14:16:41Z</time>
      </trkpt>
      <trkpt lat="42.19512" lon="-1.41747">
        <ele>352.4</ele>
        <time>2014-11-29T14:16:41Z</time>
      </trkpt>
      <trkpt lat="42.19486" lon="-1.41659">
        <ele>350.4</ele>
        <time>2014-11-29T14:16:41Z</time>
      </trkpt>
      <trkpt lat="42.19462" lon="-1.41581">
        <ele>349.6</ele>
        <time>2014-11-29T14:16:41Z</time>
      </trkpt>
      <trkpt lat="42.19442" lon="-1.4151">
        <ele>349</ele>
        <time>2014-11-29T14:16:41Z</time>
      </trkpt>
      <trkpt lat="42.19425" lon="-1.41453">
        <ele>349.5</ele>
        <time>2014-11-29T14:16:41Z</time>
      </trkpt>
      <trkpt lat="42.19406" lon="-1.41394">
        <ele>350.2</ele>
        <time>2014-11-29T14:16:41Z</time>
      </trkpt>
      <trkpt lat="42.1939" lon="-1.41349">
        <ele>350.7</ele>
        <time>2014-11-29T14:16:41Z</time>
      </trkpt>
      <trkpt lat="42.19382" lon="-1.41336">
        <ele>350.9</ele>
        <time>2014-11-29T14:16:41Z</time>
      </trkpt>
      <trkpt lat="42.19372" lon="-1.41327">
        <ele>351</ele>
        <time>2014-11-29T14:16:41Z</time>
      </trkpt>
      <trkpt lat="42.19358" lon="-1.41317">
        <ele>351</ele>
        <time>2014-11-29T14:16:41Z</time>
      </trkpt>
      <trkpt lat="42.19336" lon="-1.41307">
        <ele>351</ele>
        <time>2014-11-29T14:16:41Z</time>
      </trkpt>
      <trkpt lat="42.19295" lon="-1.41289">
        <ele>349.9</ele>
        <time>2014-11-29T14:16:41Z</time>
      </trkpt>
      <trkpt lat="42.1923" lon="-1.41261">
        <ele>348.9</ele>
        <time>2014-11-29T14:16:41Z</time>
      </trkpt>
      <trkpt lat="42.1918" lon="-1.41239">
        <ele>348</ele>
        <time>2014-11-29T14:16:41Z</time>
      </trkpt>
      <trkpt lat="42.19158" lon="-1.41229">
        <ele>347.9</ele>
        <time>2014-11-29T14:16:41Z</time>
      </trkpt>
      <trkpt lat="42.191" lon="-1.41206">
        <ele>348.3</ele>
        <time>2014-11-29T14:16:41Z</time>
      </trkpt>
      <trkpt lat="42.19079" lon="-1.41195">
        <ele>348.3</ele>
        <time>2014-11-29T14:16:41Z</time>
      </trkpt>
      <trkpt lat="42.1906" lon="-1.41185">
        <ele>348.3</ele>
        <time>2014-11-29T14:16:41Z</time>
      </trkpt>
      <trkpt lat="42.19046" lon="-1.41181">
        <ele>348.3</ele>
        <time>2014-11-29T14:16:41Z</time>
      </trkpt>
      <trkpt lat="42.19003" lon="-1.41178">
        <ele>347.9</ele>
        <time>2014-11-29T14:16:41Z</time>
      </trkpt>
      <trkpt lat="42.18968" lon="-1.41179">
        <ele>346.7</ele>
        <time>2014-11-29T14:16:41Z</time>
      </trkpt>
      <trkpt lat="42.18918" lon="-1.41183">
        <ele>344.9</ele>
        <time>2014-11-29T14:16:41Z</time>
      </trkpt>
      <trkpt lat="42.18848" lon="-1.41186">
        <ele>342.3</ele>
        <time>2014-11-29T14:16:41Z</time>
      </trkpt>
      <trkpt lat="42.18787" lon="-1.4119">
        <ele>340.4</ele>
        <time>2014-11-29T14:16:41Z</time>
      </trkpt>
      <trkpt lat="42.18766" lon="-1.41189">
        <ele>339.7</ele>
        <time>2014-11-29T14:16:41Z</time>
      </trkpt>
      <trkpt lat="42.18731" lon="-1.41181">
        <ele>338.5</ele>
        <time>2014-11-29T14:16:41Z</time>
      </trkpt>
      <trkpt lat="42.18698" lon="-1.41165">
        <ele>337.1</ele>
        <time>2014-11-29T14:16:41Z</time>
      </trkpt>
      <trkpt lat="42.18672" lon="-1.41148">
        <ele>335.8</ele>
        <time>2014-11-29T14:16:41Z</time>
      </trkpt>
      <trkpt lat="42.18623" lon="-1.41119">
        <ele>333.1</ele>
        <time>2014-11-29T14:16:41Z</time>
      </trkpt>
      <trkpt lat="42.18577" lon="-1.41092">
        <ele>331.2</ele>
        <time>2014-11-29T14:16:41Z</time>
      </trkpt>
      <trkpt lat="42.18524" lon="-1.41061">
        <ele>331.8</ele>
        <time>2014-11-29T14:16:41Z</time>
      </trkpt>
      <trkpt lat="42.1845" lon="-1.41019">
        <ele>331.5</ele>
        <time>2014-11-29T14:16:41Z</time>
      </trkpt>
      <trkpt lat="42.18383" lon="-1.40989">
        <ele>330.6</ele>
        <time>2014-11-29T14:16:41Z</time>
      </trkpt>
      <trkpt lat="42.18349" lon="-1.40977">
        <ele>330</ele>
        <time>2014-11-29T14:16:41Z</time>
      </trkpt>
      <trkpt lat="42.18333" lon="-1.40965">
        <ele>329.6</ele>
        <time>2014-11-29T14:16:41Z</time>
      </trkpt>
      <trkpt lat="42.18322" lon="-1.40949">
        <ele>329.3</ele>
        <time>2014-11-29T14:16:41Z</time>
      </trkpt>
      <trkpt lat="42.18291" lon="-1.40903">
        <ele>329.5</ele>
        <time>2014-11-29T14:16:41Z</time>
      </trkpt>
      <trkpt lat="42.1828" lon="-1.40887">
        <ele>330</ele>
        <time>2014-11-29T14:16:41Z</time>
      </trkpt>
      <trkpt lat="42.18273" lon="-1.40872">
        <ele>330.6</ele>
        <time>2014-11-29T14:16:41Z</time>
      </trkpt>
      <trkpt lat="42.18253" lon="-1.40848">
        <ele>331.5</ele>
        <time>2014-11-29T14:16:41Z</time>
      </trkpt>
      <trkpt lat="42.1823" lon="-1.40827">
        <ele>332.3</ele>
        <time>2014-11-29T14:16:41Z</time>
      </trkpt>
      <trkpt lat="42.18193" lon="-1.40795">
        <ele>333.1</ele>
        <time>2014-11-29T14:16:41Z</time>
      </trkpt>
      <trkpt lat="42.18181" lon="-1.4078">
        <ele>333.5</ele>
        <time>2014-11-29T14:16:41Z</time>
      </trkpt>
      <trkpt lat="42.18141" lon="-1.4075">
        <ele>334.6</ele>
        <time>2014-11-29T14:16:41Z</time>
      </trkpt>
      <trkpt lat="42.18115" lon="-1.40734">
        <ele>335.3</ele>
        <time>2014-11-29T14:16:41Z</time>
      </trkpt>
      <trkpt lat="42.18098" lon="-1.40726">
        <ele>335.7</ele>
        <time>2014-11-29T14:16:41Z</time>
      </trkpt>
      <trkpt lat="42.18084" lon="-1.40725">
        <ele>336</ele>
        <time>2014-11-29T14:16:41Z</time>
      </trkpt>
      <trkpt lat="42.18042" lon="-1.40729">
        <ele>336.6</ele>
        <time>2014-11-29T14:16:41Z</time>
      </trkpt>
      <trkpt lat="42.18" lon="-1.40731">
        <ele>337.3</ele>
        <time>2014-11-29T14:16:41Z</time>
      </trkpt>
      <trkpt lat="42.17986" lon="-1.40736">
        <ele>337.6</ele>
        <time>2014-11-29T14:16:41Z</time>
      </trkpt>
      <trkpt lat="42.17962" lon="-1.40756">
        <ele>338.2</ele>
        <time>2014-11-29T14:16:41Z</time>
      </trkpt>
      <trkpt lat="42.17935" lon="-1.40787">
        <ele>338.9</ele>
        <time>2014-11-29T14:16:41Z</time>
      </trkpt>
      <trkpt lat="42.17914" lon="-1.40808">
        <ele>339.2</ele>
        <time>2014-11-29T14:16:41Z</time>
      </trkpt>
      <trkpt lat="42.17879" lon="-1.4085">
        <ele>337.9</ele>
        <time>2014-11-29T14:16:41Z</time>
      </trkpt>
      <trkpt lat="42.17857" lon="-1.40885">
        <ele>337.3</ele>
        <time>2014-11-29T14:16:41Z</time>
      </trkpt>
      <trkpt lat="42.17834" lon="-1.40923">
        <ele>337.2</ele>
        <time>2014-11-29T14:16:41Z</time>
      </trkpt>
      <trkpt lat="42.17801" lon="-1.40977">
        <ele>336.3</ele>
        <time>2014-11-29T14:16:41Z</time>
      </trkpt>
      <trkpt lat="42.17785" lon="-1.41013">
        <ele>335.7</ele>
        <time>2014-11-29T14:16:41Z</time>
      </trkpt>
      <trkpt lat="42.1776" lon="-1.41082">
        <ele>335.5</ele>
        <time>2014-11-29T14:16:41Z</time>
      </trkpt>
      <trkpt lat="42.17744" lon="-1.41135">
        <ele>335.3</ele>
        <time>2014-11-29T14:16:41Z</time>
      </trkpt>
      <trkpt lat="42.17734" lon="-1.4117">
        <ele>334.9</ele>
        <time>2014-11-29T14:16:41Z</time>
      </trkpt>
      <trkpt lat="42.17726" lon="-1.4121">
        <ele>333.5</ele>
        <time>2014-11-29T14:16:41Z</time>
      </trkpt>
      <trkpt lat="42.17714" lon="-1.41265">
        <ele>331.8</ele>
        <time>2014-11-29T14:16:41Z</time>
      </trkpt>
      <trkpt lat="42.17704" lon="-1.41288">
        <ele>331.3</ele>
        <time>2014-11-29T14:16:41Z</time>
      </trkpt>
      <trkpt lat="42.17689" lon="-1.41304">
        <ele>330.4</ele>
        <time>2014-11-29T14:16:41Z</time>
      </trkpt>
      <trkpt lat="42.17669" lon="-1.41327">
        <ele>329.2</ele>
        <time>2014-11-29T14:16:41Z</time>
      </trkpt>
      <trkpt lat="42.17651" lon="-1.41351">
        <ele>328.2</ele>
        <time>2014-11-29T14:16:41Z</time>
      </trkpt>
      <trkpt lat="42.17579" lon="-1.4144">
        <ele>325.4</ele>
        <time>2014-11-29T14:16:41Z</time>
      </trkpt>
      <trkpt lat="42.17542" lon="-1.41489">
        <ele>326.9</ele>
        <time>2014-11-29T14:16:41Z</time>
      </trkpt>
      <trkpt lat="42.17505" lon="-1.41535">
        <ele>327.1</ele>
        <time>2014-11-29T14:16:41Z</time>
      </trkpt>
      <trkpt lat="42.17459" lon="-1.41594">
        <ele>325.4</ele>
        <time>2014-11-29T14:16:41Z</time>
      </trkpt>
      <trkpt lat="42.17433" lon="-1.41625">
        <ele>325</ele>
        <time>2014-11-29T14:16:41Z</time>
      </trkpt>
      <trkpt lat="42.17397" lon="-1.41671">
        <ele>324.7</ele>
        <time>2014-11-29T14:16:41Z</time>
      </trkpt>
      <trkpt lat="42.1737" lon="-1.41702">
        <ele>324.7</ele>
        <time>2014-11-29T14:16:41Z</time>
      </trkpt>
      <trkpt lat="42.17356" lon="-1.41723">
        <ele>325.1</ele>
        <time>2014-11-29T14:16:41Z</time>
      </trkpt>
      <trkpt lat="42.17328" lon="-1.41758">
        <ele>326.1</ele>
        <time>2014-11-29T14:16:41Z</time>
      </trkpt>
      <trkpt lat="42.17296" lon="-1.41796">
        <ele>327.2</ele>
        <time>2014-11-29T14:16:41Z</time>
      </trkpt>
      <trkpt lat="42.17273" lon="-1.41822">
        <ele>328.6</ele>
        <time>2014-11-29T14:16:41Z</time>
      </trkpt>
      <trkpt lat="42.17237" lon="-1.41866">
        <ele>330.1</ele>
        <time>2014-11-29T14:16:41Z</time>
      </trkpt>
      <trkpt lat="42.17207" lon="-1.41901">
        <ele>330.5</ele>
        <time>2014-11-29T14:16:41Z</time>
      </trkpt>
      <trkpt lat="42.17181" lon="-1.41929">
        <ele>330.9</ele>
        <time>2014-11-29T14:16:41Z</time>
      </trkpt>
      <trkpt lat="42.17158" lon="-1.41958">
        <ele>330.9</ele>
        <time>2014-11-29T14:16:41Z</time>
      </trkpt>
      <trkpt lat="42.17142" lon="-1.41982">
        <ele>331.3</ele>
        <time>2014-11-29T14:16:41Z</time>
      </trkpt>
      <trkpt lat="42.17127" lon="-1.42012">
        <ele>332.1</ele>
        <time>2014-11-29T14:16:41Z</time>
      </trkpt>
      <trkpt lat="42.17117" lon="-1.42038">
        <ele>332.7</ele>
        <time>2014-11-29T14:16:41Z</time>
      </trkpt>
      <trkpt lat="42.17106" lon="-1.42065">
        <ele>333.6</ele>
        <time>2014-11-29T14:16:41Z</time>
      </trkpt>
      <trkpt lat="42.17075" lon="-1.42138">
        <ele>332.9</ele>
        <time>2014-11-29T14:16:41Z</time>
      </trkpt>
      <trkpt lat="42.17038" lon="-1.4221">
        <ele>327.3</ele>
        <time>2014-11-29T14:16:41Z</time>
      </trkpt>
      <trkpt lat="42.17001" lon="-1.42264">
        <ele>323.9</ele>
        <time>2014-11-29T14:16:41Z</time>
      </trkpt>
      <trkpt lat="42.16977" lon="-1.42296">
        <ele>322.7</ele>
        <time>2014-11-29T14:16:41Z</time>
      </trkpt>
      <trkpt lat="42.1694" lon="-1.42335">
        <ele>320.8</ele>
        <time>2014-11-29T14:16:41Z</time>
      </trkpt>
      <trkpt lat="42.16913" lon="-1.42369">
        <ele>319</ele>
        <time>2014-11-29T14:16:41Z</time>
      </trkpt>
      <trkpt lat="42.16878" lon="-1.4241">
        <ele>316.8</ele>
        <time>2014-11-29T14:16:41Z</time>
      </trkpt>
      <trkpt lat="42.16858" lon="-1.42432">
        <ele>315.6</ele>
        <time>2014-11-29T14:16:41Z</time>
      </trkpt>
      <trkpt lat="42.16846" lon="-1.42439">
        <ele>314.9</ele>
        <time>2014-11-29T14:16:41Z</time>
      </trkpt>
      <trkpt lat="42.1683" lon="-1.42451">
        <ele>314.1</ele>
        <time>2014-11-29T14:16:41Z</time>
      </trkpt>
      <trkpt lat="42.16812" lon="-1.42471">
        <ele>313.6</ele>
        <time>2014-11-29T14:16:41Z</time>
      </trkpt>
      <trkpt lat="42.16796" lon="-1.42498">
        <ele>313</ele>
        <time>2014-11-29T14:16:41Z</time>
      </trkpt>
      <trkpt lat="42.1677" lon="-1.4254">
        <ele>313.6</ele>
        <time>2014-11-29T14:16:41Z</time>
      </trkpt>
      <trkpt lat="42.16743" lon="-1.42586">
        <ele>315.3</ele>
        <time>2014-11-29T14:16:41Z</time>
      </trkpt>
      <trkpt lat="42.16712" lon="-1.42634">
        <ele>315.8</ele>
        <time>2014-11-29T14:16:41Z</time>
      </trkpt>
      <trkpt lat="42.16696" lon="-1.42654">
        <ele>316</ele>
        <time>2014-11-29T14:16:41Z</time>
      </trkpt>
      <trkpt lat="42.16678" lon="-1.42669">
        <ele>316.3</ele>
        <time>2014-11-29T14:16:41Z</time>
      </trkpt>
      <trkpt lat="42.16646" lon="-1.42701">
        <ele>314.8</ele>
        <time>2014-11-29T14:16:41Z</time>
      </trkpt>
      <trkpt lat="42.1659" lon="-1.42769">
        <ele>312.1</ele>
        <time>2014-11-29T14:16:41Z</time>
      </trkpt>
      <trkpt lat="42.16563" lon="-1.42801">
        <ele>312.6</ele>
        <time>2014-11-29T14:16:41Z</time>
      </trkpt>
      <trkpt lat="42.16535" lon="-1.42831">
        <ele>313.7</ele>
        <time>2014-11-29T14:16:41Z</time>
      </trkpt>
      <trkpt lat="42.16506" lon="-1.42861">
        <ele>314.8</ele>
        <time>2014-11-29T14:16:41Z</time>
      </trkpt>
      <trkpt lat="42.16482" lon="-1.42886">
        <ele>315.7</ele>
        <time>2014-11-29T14:16:41Z</time>
      </trkpt>
      <trkpt lat="42.1645" lon="-1.42926">
        <ele>316.5</ele>
        <time>2014-11-29T14:16:41Z</time>
      </trkpt>
      <trkpt lat="42.1641" lon="-1.42974">
        <ele>316</ele>
        <time>2014-11-29T14:16:41Z</time>
      </trkpt>
      <trkpt lat="42.16358" lon="-1.43033">
        <ele>316.4</ele>
        <time>2014-11-29T14:16:41Z</time>
      </trkpt>
      <trkpt lat="42.16336" lon="-1.4306">
        <ele>317.4</ele>
        <time>2014-11-29T14:16:41Z</time>
      </trkpt>
      <trkpt lat="42.16317" lon="-1.43103">
        <ele>318.5</ele>
        <time>2014-11-29T14:16:41Z</time>
      </trkpt>
      <trkpt lat="42.163" lon="-1.43149">
        <ele>319</ele>
        <time>2014-11-29T14:16:41Z</time>
      </trkpt>
      <trkpt lat="42.16287" lon="-1.43194">
        <ele>318.5</ele>
        <time>2014-11-29T14:16:41Z</time>
      </trkpt>
      <trkpt lat="42.16284" lon="-1.43236">
        <ele>317.8</ele>
        <time>2014-11-29T14:16:41Z</time>
      </trkpt>
      <trkpt lat="42.16285" lon="-1.4327">
        <ele>317</ele>
        <time>2014-11-29T14:16:41Z</time>
      </trkpt>
      <trkpt lat="42.16297" lon="-1.43338">
        <ele>314.6</ele>
        <time>2014-11-29T14:16:41Z</time>
      </trkpt>
      <trkpt lat="42.16297" lon="-1.43339">
        <ele>314.6</ele>
        <time>2014-11-29T14:36:57Z</time>
      </trkpt>
      <trkpt lat="42.16307" lon="-1.43366">
        <ele>316.1</ele>
        <extensions>
          <visugpx:TrkExtension xmlns:visugpx="https://www.visugpx.com/editgpx/">
            <visugpx:node>1</visugpx:node>
            </visugpx:TrkExtension>
        </extensions>
      </trkpt>
      <trkpt lat="42.16337" lon="-1.43431">
        <ele>312.3</ele>
        <time>2014-11-29T14:36:57Z</time>
      </trkpt>
      <trkpt lat="42.16369" lon="-1.43495">
        <ele>313.4</ele>
        <time>2014-11-29T14:36:57Z</time>
      </trkpt>
      <trkpt lat="42.16394" lon="-1.43544">
        <ele>314.3</ele>
        <time>2014-11-29T14:36:57Z</time>
      </trkpt>
      <trkpt lat="42.1642" lon="-1.43593">
        <ele>314.8</ele>
        <time>2014-11-29T14:36:57Z</time>
      </trkpt>
      <trkpt lat="42.16442" lon="-1.43636">
        <ele>313.8</ele>
        <time>2014-11-29T14:36:57Z</time>
      </trkpt>
      <trkpt lat="42.16466" lon="-1.43683">
        <ele>313.2</ele>
        <time>2014-11-29T14:36:57Z</time>
      </trkpt>
      <trkpt lat="42.16492" lon="-1.4374">
        <ele>314</ele>
        <time>2014-11-29T14:36:57Z</time>
      </trkpt>
      <trkpt lat="42.165" lon="-1.43759">
        <ele>314</ele>
        <time>2014-11-29T14:36:57Z</time>
      </trkpt>
      <trkpt lat="42.16514" lon="-1.43796">
        <ele>313.7</ele>
        <time>2014-11-29T14:36:57Z</time>
      </trkpt>
      <trkpt lat="42.16533" lon="-1.43847">
        <ele>312.6</ele>
        <time>2014-11-29T14:36:57Z</time>
      </trkpt>
      <trkpt lat="42.1655" lon="-1.43877">
        <ele>310.9</ele>
        <time>2014-11-29T14:36:57Z</time>
      </trkpt>
      <trkpt lat="42.16568" lon="-1.439">
        <ele>309.3</ele>
        <time>2014-11-29T14:36:57Z</time>
      </trkpt>
      <trkpt lat="42.16595" lon="-1.4393">
        <ele>308.2</ele>
        <time>2014-11-29T14:36:57Z</time>
      </trkpt>
      <trkpt lat="42.16623" lon="-1.43958">
        <ele>308.3</ele>
        <time>2014-11-29T14:36:57Z</time>
      </trkpt>
      <trkpt lat="42.16648" lon="-1.43984">
        <ele>308.2</ele>
        <time>2014-11-29T14:36:57Z</time>
      </trkpt>
      <trkpt lat="42.16673" lon="-1.44011">
        <ele>307.9</ele>
        <time>2014-11-29T14:36:57Z</time>
      </trkpt>
      <trkpt lat="42.16696" lon="-1.44031">
        <ele>307.2</ele>
        <time>2014-11-29T14:36:57Z</time>
      </trkpt>
      <trkpt lat="42.16713" lon="-1.4405">
        <ele>306.6</ele>
        <time>2014-11-29T14:36:57Z</time>
      </trkpt>
      <trkpt lat="42.16722" lon="-1.44061">
        <ele>306.3</ele>
        <time>2014-11-29T14:36:57Z</time>
      </trkpt>
      <trkpt lat="42.16731" lon="-1.44077">
        <ele>305.9</ele>
        <time>2014-11-29T14:36:57Z</time>
      </trkpt>
      <trkpt lat="42.16752" lon="-1.44112">
        <ele>305.3</ele>
        <time>2014-11-29T14:36:57Z</time>
      </trkpt>
      <trkpt lat="42.16775" lon="-1.44153">
        <ele>304.8</ele>
        <time>2014-11-29T14:36:57Z</time>
      </trkpt>
      <trkpt lat="42.16803" lon="-1.44194">
        <ele>303.4</ele>
        <time>2014-11-29T14:36:57Z</time>
      </trkpt>
      <trkpt lat="42.16815" lon="-1.44211">
        <ele>303.1</ele>
        <time>2014-11-29T14:36:57Z</time>
      </trkpt>
      <trkpt lat="42.16831" lon="-1.44226">
        <ele>302.8</ele>
        <time>2014-11-29T14:36:57Z</time>
      </trkpt>
      <trkpt lat="42.16853" lon="-1.44244">
        <ele>302.9</ele>
        <time>2014-11-29T14:36:57Z</time>
      </trkpt>
      <trkpt lat="42.16883" lon="-1.44272">
        <ele>302.9</ele>
        <time>2014-11-29T14:36:57Z</time>
      </trkpt>
      <trkpt lat="42.16902" lon="-1.4429">
        <ele>302.7</ele>
        <time>2014-11-29T14:36:57Z</time>
      </trkpt>
      <trkpt lat="42.16917" lon="-1.44307">
        <ele>302.3</ele>
        <time>2014-11-29T14:36:57Z</time>
      </trkpt>
      <trkpt lat="42.16937" lon="-1.44334">
        <ele>301.8</ele>
        <time>2014-11-29T14:36:57Z</time>
      </trkpt>
      <trkpt lat="42.16956" lon="-1.44365">
        <ele>301.4</ele>
        <time>2014-11-29T14:36:57Z</time>
      </trkpt>
      <trkpt lat="42.16967" lon="-1.44383">
        <ele>301</ele>
        <time>2014-11-29T14:36:57Z</time>
      </trkpt>
      <trkpt lat="42.16995" lon="-1.44429">
        <ele>300.4</ele>
        <time>2014-11-29T14:36:57Z</time>
      </trkpt>
      <trkpt lat="42.17023" lon="-1.44477">
        <ele>300.4</ele>
        <time>2014-11-29T14:36:57Z</time>
      </trkpt>
      <trkpt lat="42.17051" lon="-1.44522">
        <ele>300</ele>
        <time>2014-11-29T14:36:57Z</time>
      </trkpt>
      <trkpt lat="42.1707" lon="-1.44549">
        <ele>299.4</ele>
        <time>2014-11-29T14:36:57Z</time>
      </trkpt>
      <trkpt lat="42.17086" lon="-1.44568">
        <ele>298.8</ele>
        <time>2014-11-29T14:36:57Z</time>
      </trkpt>
      <trkpt lat="42.17117" lon="-1.44596">
        <ele>298.6</ele>
        <time>2014-11-29T14:36:57Z</time>
      </trkpt>
      <trkpt lat="42.17159" lon="-1.4464">
        <ele>297.5</ele>
        <time>2014-11-29T14:36:57Z</time>
      </trkpt>
      <trkpt lat="42.17184" lon="-1.44665">
        <ele>296.8</ele>
        <time>2014-11-29T14:36:57Z</time>
      </trkpt>
      <trkpt lat="42.17203" lon="-1.44682">
        <ele>296.6</ele>
        <time>2014-11-29T14:36:57Z</time>
      </trkpt>
      <trkpt lat="42.17226" lon="-1.44702">
        <ele>296.3</ele>
        <time>2014-11-29T14:36:57Z</time>
      </trkpt>
      <trkpt lat="42.1724" lon="-1.44719">
        <ele>296.1</ele>
        <time>2014-11-29T14:36:57Z</time>
      </trkpt>
      <trkpt lat="42.17249" lon="-1.44729">
        <ele>296</ele>
        <time>2014-11-29T14:36:57Z</time>
      </trkpt>
      <trkpt lat="42.17257" lon="-1.44743">
        <ele>296.2</ele>
        <time>2014-11-29T14:36:57Z</time>
      </trkpt>
      <trkpt lat="42.17268" lon="-1.44767">
        <ele>296.5</ele>
        <time>2014-11-29T14:36:57Z</time>
      </trkpt>
      <trkpt lat="42.17275" lon="-1.44791">
        <ele>296.8</ele>
        <time>2014-11-29T14:36:57Z</time>
      </trkpt>
      <trkpt lat="42.17283" lon="-1.44812">
        <ele>297.1</ele>
        <time>2014-11-29T14:36:57Z</time>
      </trkpt>
      <trkpt lat="42.17288" lon="-1.4483">
        <ele>297.4</ele>
        <time>2014-11-29T14:36:57Z</time>
      </trkpt>
      <trkpt lat="42.17297" lon="-1.44853">
        <ele>297.5</ele>
        <time>2014-11-29T14:36:57Z</time>
      </trkpt>
      <trkpt lat="42.17307" lon="-1.44868">
        <ele>297.6</ele>
        <time>2014-11-29T14:36:57Z</time>
      </trkpt>
      <trkpt lat="42.17324" lon="-1.44886">
        <ele>298</ele>
        <time>2014-11-29T14:36:57Z</time>
      </trkpt>
      <trkpt lat="42.17343" lon="-1.44903">
        <ele>297.8</ele>
        <time>2014-11-29T14:36:57Z</time>
      </trkpt>
      <trkpt lat="42.17366" lon="-1.44928">
        <ele>296.6</ele>
        <time>2014-11-29T14:36:57Z</time>
      </trkpt>
      <trkpt lat="42.17387" lon="-1.44951">
        <ele>295.5</ele>
        <time>2014-11-29T14:36:57Z</time>
      </trkpt>
      <trkpt lat="42.17401" lon="-1.44967">
        <ele>294.8</ele>
        <time>2014-11-29T14:36:57Z</time>
      </trkpt>
      <trkpt lat="42.17418" lon="-1.44993">
        <ele>294.1</ele>
        <time>2014-11-29T14:36:57Z</time>
      </trkpt>
      <trkpt lat="42.17438" lon="-1.45016">
        <ele>293.8</ele>
        <time>2014-11-29T14:36:57Z</time>
      </trkpt>
      <trkpt lat="42.17455" lon="-1.45035">
        <ele>293.6</ele>
        <time>2014-11-29T14:36:57Z</time>
      </trkpt>
      <trkpt lat="42.1747" lon="-1.45058">
        <ele>293.2</ele>
        <time>2014-11-29T14:36:57Z</time>
      </trkpt>
      <trkpt lat="42.17488" lon="-1.45085">
        <ele>292.4</ele>
        <time>2014-11-29T14:36:57Z</time>
      </trkpt>
      <trkpt lat="42.17505" lon="-1.45116">
        <ele>292.1</ele>
        <time>2014-11-29T14:36:57Z</time>
      </trkpt>
      <trkpt lat="42.17522" lon="-1.45145">
        <ele>292.3</ele>
        <time>2014-11-29T14:36:57Z</time>
      </trkpt>
      <trkpt lat="42.17541" lon="-1.45178">
        <ele>292.4</ele>
        <time>2014-11-29T14:36:57Z</time>
      </trkpt>
      <trkpt lat="42.1756" lon="-1.45207">
        <ele>292.6</ele>
        <time>2014-11-29T14:36:57Z</time>
      </trkpt>
      <trkpt lat="42.17568" lon="-1.4522">
        <ele>292.7</ele>
        <time>2014-11-29T14:36:57Z</time>
      </trkpt>
      <trkpt lat="42.17591" lon="-1.45248">
        <ele>293.2</ele>
        <time>2014-11-29T14:36:57Z</time>
      </trkpt>
      <trkpt lat="42.17609" lon="-1.45268">
        <ele>294</ele>
        <time>2014-11-29T14:36:57Z</time>
      </trkpt>
      <trkpt lat="42.17629" lon="-1.45283">
        <ele>294.7</ele>
        <time>2014-11-29T14:36:57Z</time>
      </trkpt>
      <trkpt lat="42.1765" lon="-1.45301">
        <ele>295.4</ele>
        <time>2014-11-29T14:36:57Z</time>
      </trkpt>
      <trkpt lat="42.17667" lon="-1.45316">
        <ele>295.8</ele>
        <time>2014-11-29T14:36:57Z</time>
      </trkpt>
      <trkpt lat="42.17684" lon="-1.45333">
        <ele>296.6</ele>
        <time>2014-11-29T14:36:57Z</time>
      </trkpt>
      <trkpt lat="42.17691" lon="-1.45342">
        <ele>296.7</ele>
        <time>2014-11-29T14:36:57Z</time>
      </trkpt>
      <trkpt lat="42.17709" lon="-1.45358">
        <ele>297.2</ele>
        <time>2014-11-29T14:36:57Z</time>
      </trkpt>
      <trkpt lat="42.17726" lon="-1.45376">
        <ele>297.8</ele>
        <time>2014-11-29T14:36:57Z</time>
      </trkpt>
      <trkpt lat="42.17744" lon="-1.45396">
        <ele>298.7</ele>
        <time>2014-11-29T14:36:57Z</time>
      </trkpt>
      <trkpt lat="42.17766" lon="-1.45419">
        <ele>299.3</ele>
        <time>2014-11-29T14:36:57Z</time>
      </trkpt>
      <trkpt lat="42.17782" lon="-1.45435">
        <ele>299.4</ele>
        <time>2014-11-29T14:36:57Z</time>
      </trkpt>
      <trkpt lat="42.17802" lon="-1.45457">
        <ele>299.5</ele>
        <time>2014-11-29T14:36:57Z</time>
      </trkpt>
      <trkpt lat="42.17819" lon="-1.45475">
        <ele>299.4</ele>
        <time>2014-11-29T14:36:57Z</time>
      </trkpt>
      <trkpt lat="42.17836" lon="-1.45493">
        <ele>299.2</ele>
        <time>2014-11-29T14:36:57Z</time>
      </trkpt>
      <trkpt lat="42.17851" lon="-1.4551">
        <ele>299.7</ele>
        <time>2014-11-29T14:36:57Z</time>
      </trkpt>
      <trkpt lat="42.17869" lon="-1.4553">
        <ele>300.4</ele>
        <time>2014-11-29T14:36:57Z</time>
      </trkpt>
      <trkpt lat="42.17882" lon="-1.45543">
        <ele>300.9</ele>
        <time>2014-11-29T14:36:57Z</time>
      </trkpt>
      <trkpt lat="42.17894" lon="-1.45555">
        <ele>301.3</ele>
        <time>2014-11-29T14:36:57Z</time>
      </trkpt>
      <trkpt lat="42.17908" lon="-1.4557">
        <ele>301.7</ele>
        <time>2014-11-29T14:36:57Z</time>
      </trkpt>
      <trkpt lat="42.17922" lon="-1.45584">
        <ele>302</ele>
        <time>2014-11-29T14:36:57Z</time>
      </trkpt>
      <trkpt lat="42.17936" lon="-1.45601">
        <ele>301.8</ele>
        <time>2014-11-29T14:36:57Z</time>
      </trkpt>
      <trkpt lat="42.17952" lon="-1.45619">
        <ele>301.8</ele>
        <time>2014-11-29T14:36:57Z</time>
      </trkpt>
      <trkpt lat="42.17962" lon="-1.45632">
        <ele>301.7</ele>
        <time>2014-11-29T14:36:57Z</time>
      </trkpt>
      <trkpt lat="42.17977" lon="-1.4565">
        <ele>301.8</ele>
        <time>2014-11-29T14:36:57Z</time>
      </trkpt>
      <trkpt lat="42.17989" lon="-1.45665">
        <ele>301.9</ele>
        <time>2014-11-29T14:36:57Z</time>
      </trkpt>
      <trkpt lat="42.18008" lon="-1.45687">
        <ele>301.4</ele>
        <time>2014-11-29T14:36:57Z</time>
      </trkpt>
      <trkpt lat="42.18016" lon="-1.45698">
        <ele>301.1</ele>
        <time>2014-11-29T14:36:57Z</time>
      </trkpt>
      <trkpt lat="42.18057" lon="-1.4575">
        <ele>300</ele>
        <time>2014-11-29T14:36:57Z</time>
      </trkpt>
      <trkpt lat="42.18093" lon="-1.45795">
        <ele>298.4</ele>
        <time>2014-11-29T14:36:57Z</time>
      </trkpt>
      <trkpt lat="42.18141" lon="-1.45853">
        <ele>297.5</ele>
        <time>2014-11-29T14:36:57Z</time>
      </trkpt>
      <trkpt lat="42.18154" lon="-1.45874">
        <ele>297.4</ele>
        <time>2014-11-29T14:36:57Z</time>
      </trkpt>
      <trkpt lat="42.18172" lon="-1.45908">
        <ele>297</ele>
        <time>2014-11-29T14:36:57Z</time>
      </trkpt>
      <trkpt lat="42.18184" lon="-1.45962">
        <ele>297.2</ele>
        <time>2014-11-29T14:36:57Z</time>
      </trkpt>
      <trkpt lat="42.18186" lon="-1.46002">
        <ele>297.8</ele>
        <time>2014-11-29T14:36:57Z</time>
      </trkpt>
      <trkpt lat="42.18186" lon="-1.46061">
        <ele>297.4</ele>
        <time>2014-11-29T14:36:57Z</time>
      </trkpt>
      <trkpt lat="42.18182" lon="-1.46112">
        <ele>296.7</ele>
        <time>2014-11-29T14:36:57Z</time>
      </trkpt>
      <trkpt lat="42.18171" lon="-1.46179">
        <ele>295.5</ele>
        <time>2014-11-29T14:36:57Z</time>
      </trkpt>
      <trkpt lat="42.1816" lon="-1.46236">
        <ele>294.6</ele>
        <time>2014-11-29T14:36:57Z</time>
      </trkpt>
      <trkpt lat="42.18151" lon="-1.46287">
        <ele>294.5</ele>
        <time>2014-11-29T14:36:57Z</time>
      </trkpt>
      <trkpt lat="42.18144" lon="-1.46323">
        <ele>294.6</ele>
        <time>2014-11-29T14:36:57Z</time>
      </trkpt>
      <trkpt lat="42.18137" lon="-1.46369">
        <ele>294.4</ele>
        <time>2014-11-29T14:36:57Z</time>
      </trkpt>
      <trkpt lat="42.18138" lon="-1.46402">
        <ele>294.1</ele>
        <time>2014-11-29T14:36:57Z</time>
      </trkpt>
      <trkpt lat="42.18149" lon="-1.46464">
        <ele>294.5</ele>
        <time>2014-11-29T14:36:57Z</time>
      </trkpt>
      <trkpt lat="42.18164" lon="-1.46535">
        <ele>295.4</ele>
        <time>2014-11-29T14:36:57Z</time>
      </trkpt>
      <trkpt lat="42.18175" lon="-1.46594">
        <ele>295.6</ele>
        <time>2014-11-29T14:36:57Z</time>
      </trkpt>
      <trkpt lat="42.18183" lon="-1.46641">
        <ele>294.8</ele>
        <time>2014-11-29T14:36:57Z</time>
      </trkpt>
      <trkpt lat="42.18188" lon="-1.46676">
        <ele>294.2</ele>
        <time>2014-11-29T14:36:57Z</time>
      </trkpt>
      <trkpt lat="42.18191" lon="-1.46708">
        <ele>293.2</ele>
        <time>2014-11-29T14:36:57Z</time>
      </trkpt>
      <trkpt lat="42.18198" lon="-1.46782">
        <ele>291.4</ele>
        <time>2014-11-29T14:36:57Z</time>
      </trkpt>
      <trkpt lat="42.18205" lon="-1.46849">
        <ele>290.3</ele>
        <time>2014-11-29T14:36:57Z</time>
      </trkpt>
      <trkpt lat="42.18216" lon="-1.46929">
        <ele>289.2</ele>
        <time>2014-11-29T14:36:57Z</time>
      </trkpt>
      <trkpt lat="42.18224" lon="-1.4699">
        <ele>288.2</ele>
        <time>2014-11-29T14:36:57Z</time>
      </trkpt>
      <trkpt lat="42.18228" lon="-1.47026">
        <ele>288.3</ele>
        <time>2014-11-29T14:36:57Z</time>
      </trkpt>
      <trkpt lat="42.18231" lon="-1.47075">
        <ele>288.9</ele>
        <time>2014-11-29T14:36:57Z</time>
      </trkpt>
      <trkpt lat="42.18235" lon="-1.47132">
        <ele>288.8</ele>
        <time>2014-11-29T14:36:57Z</time>
      </trkpt>
      <trkpt lat="42.1824" lon="-1.4718">
        <ele>288.8</ele>
        <time>2014-11-29T14:36:57Z</time>
      </trkpt>
      <trkpt lat="42.18243" lon="-1.47216">
        <ele>288.9</ele>
        <time>2014-11-29T14:36:57Z</time>
      </trkpt>
      <trkpt lat="42.18247" lon="-1.47253">
        <ele>288.8</ele>
        <time>2014-11-29T14:36:57Z</time>
      </trkpt>
      <trkpt lat="42.18251" lon="-1.47284">
        <ele>287.7</ele>
        <time>2014-11-29T14:36:57Z</time>
      </trkpt>
      <trkpt lat="42.18257" lon="-1.47318">
        <ele>286.4</ele>
        <time>2014-11-29T14:36:57Z</time>
      </trkpt>
      <trkpt lat="42.1826" lon="-1.47346">
        <ele>285.4</ele>
        <time>2014-11-29T14:36:57Z</time>
      </trkpt>
      <trkpt lat="42.1826" lon="-1.47346">
        <ele>285.4</ele>
        <time>2014-11-29T14:36:57Z</time>
      </trkpt>
      <trkpt lat="42.18263" lon="-1.47396">
        <ele>283.8</ele>
        <time>2014-11-29T14:36:57Z</time>
      </trkpt>
      <trkpt lat="42.18268" lon="-1.47432">
        <ele>283</ele>
        <time>2014-11-29T14:36:57Z</time>
      </trkpt>
      <trkpt lat="42.18272" lon="-1.47452">
        <ele>282.7</ele>
        <time>2014-11-29T14:36:57Z</time>
      </trkpt>
      <trkpt lat="42.1828" lon="-1.47473">
        <ele>282.4</ele>
        <time>2014-11-29T14:36:57Z</time>
      </trkpt>
      <trkpt lat="42.18287" lon="-1.47493">
        <ele>282.1</ele>
        <time>2014-11-29T14:36:57Z</time>
      </trkpt>
      <trkpt lat="42.183" lon="-1.47536">
        <ele>282.9</ele>
        <time>2014-11-29T14:36:57Z</time>
      </trkpt>
      <trkpt lat="42.18305" lon="-1.47577">
        <ele>283.9</ele>
        <time>2014-11-29T14:36:57Z</time>
      </trkpt>
      <trkpt lat="42.18306" lon="-1.47596">
        <ele>284.2</ele>
        <time>2014-11-29T14:36:57Z</time>
      </trkpt>
      <trkpt lat="42.18304" lon="-1.47619">
        <ele>284.6</ele>
        <time>2014-11-29T14:36:57Z</time>
      </trkpt>
      <trkpt lat="42.18301" lon="-1.47646">
        <ele>285.1</ele>
        <time>2014-11-29T14:36:57Z</time>
      </trkpt>
      <trkpt lat="42.18297" lon="-1.47685">
        <ele>286.6</ele>
        <time>2014-11-29T14:36:57Z</time>
      </trkpt>
      <trkpt lat="42.18295" lon="-1.47714">
        <ele>288.4</ele>
        <time>2014-11-29T14:36:57Z</time>
      </trkpt>
      <trkpt lat="42.18289" lon="-1.47771">
        <ele>291.4</ele>
        <time>2014-11-29T14:36:57Z</time>
      </trkpt>
      <trkpt lat="42.18286" lon="-1.47793">
        <ele>292.3</ele>
        <time>2014-11-29T14:36:57Z</time>
      </trkpt>
      <trkpt lat="42.18285" lon="-1.47814">
        <ele>293.2</ele>
        <time>2014-11-29T14:36:57Z</time>
      </trkpt>
      <trkpt lat="42.18289" lon="-1.47841">
        <ele>294.1</ele>
        <time>2014-11-29T14:36:57Z</time>
      </trkpt>
      <trkpt lat="42.18297" lon="-1.47866">
        <ele>294.4</ele>
        <time>2014-11-29T14:36:57Z</time>
      </trkpt>
      <trkpt lat="42.18315" lon="-1.47904">
        <ele>295.3</ele>
        <time>2014-11-29T14:36:57Z</time>
      </trkpt>
      <trkpt lat="42.18338" lon="-1.47937">
        <ele>297.2</ele>
        <time>2014-11-29T14:36:57Z</time>
      </trkpt>
      <trkpt lat="42.18366" lon="-1.47976">
        <ele>303.1</ele>
        <time>2014-11-29T14:36:57Z</time>
      </trkpt>
      <trkpt lat="42.18377" lon="-1.47996">
        <ele>306.4</ele>
        <time>2014-11-29T14:36:57Z</time>
      </trkpt>
      <trkpt lat="42.18385" lon="-1.48022">
        <ele>308.6</ele>
        <time>2014-11-29T14:36:57Z</time>
      </trkpt>
      <trkpt lat="42.18392" lon="-1.4806">
        <ele>310.2</ele>
        <time>2014-11-29T14:36:57Z</time>
      </trkpt>
      <trkpt lat="42.18396" lon="-1.48087">
        <ele>311.2</ele>
        <time>2014-11-29T14:36:57Z</time>
      </trkpt>
      <trkpt lat="42.18402" lon="-1.48117">
        <ele>311.8</ele>
        <time>2014-11-29T14:36:57Z</time>
      </trkpt>
      <trkpt lat="42.18412" lon="-1.48139">
        <ele>312.9</ele>
        <time>2014-11-29T14:36:57Z</time>
      </trkpt>
      <trkpt lat="42.18433" lon="-1.48174">
        <ele>313.2</ele>
        <time>2014-11-29T14:36:57Z</time>
      </trkpt>
      <trkpt lat="42.18457" lon="-1.4821">
        <ele>310.6</ele>
        <time>2014-11-29T14:36:57Z</time>
      </trkpt>
      <trkpt lat="42.18488" lon="-1.48255">
        <ele>307.2</ele>
        <time>2014-11-29T14:36:57Z</time>
      </trkpt>
      <trkpt lat="42.18524" lon="-1.48308">
        <ele>304.2</ele>
        <time>2014-11-29T14:36:57Z</time>
      </trkpt>
      <trkpt lat="42.18542" lon="-1.48341">
        <ele>302.5</ele>
        <time>2014-11-29T14:36:57Z</time>
      </trkpt>
      <trkpt lat="42.18557" lon="-1.48375">
        <ele>300.5</ele>
        <time>2014-11-29T14:36:57Z</time>
      </trkpt>
      <trkpt lat="42.18568" lon="-1.48402">
        <ele>298.8</ele>
        <time>2014-11-29T14:36:57Z</time>
      </trkpt>
      <trkpt lat="42.18578" lon="-1.48416">
        <ele>297.9</ele>
        <time>2014-11-29T14:36:57Z</time>
      </trkpt>
      <trkpt lat="42.18594" lon="-1.48427">
        <ele>298</ele>
        <time>2014-11-29T14:36:57Z</time>
      </trkpt>
      <trkpt lat="42.18616" lon="-1.48437">
        <ele>298.3</ele>
        <time>2014-11-29T14:36:57Z</time>
      </trkpt>
      <trkpt lat="42.18639" lon="-1.48439">
        <ele>298.8</ele>
        <time>2014-11-29T14:36:57Z</time>
      </trkpt>
      <trkpt lat="42.18664" lon="-1.4844">
        <ele>299.4</ele>
        <time>2014-11-29T14:36:57Z</time>
      </trkpt>
      <trkpt lat="42.18664" lon="-1.48441">
        <ele>299.4</ele>
        <time>2014-11-29T14:48:06Z</time>
      </trkpt>
      <trkpt lat="42.18691" lon="-1.48428">
        <ele>300</ele>
        <time>2014-11-29T14:48:06Z</time>
      </trkpt>
      <trkpt lat="42.18708" lon="-1.48424">
        <ele>300.4</ele>
        <time>2014-11-29T14:48:06Z</time>
      </trkpt>
      <trkpt lat="42.18723" lon="-1.48424">
        <ele>300.6</ele>
        <time>2014-11-29T14:48:06Z</time>
      </trkpt>
      <trkpt lat="42.18733" lon="-1.48431">
        <ele>300.6</ele>
        <time>2014-11-29T14:48:06Z</time>
      </trkpt>
      <trkpt lat="42.18753" lon="-1.48446">
        <ele>300.9</ele>
        <time>2014-11-29T14:48:06Z</time>
      </trkpt>
      <trkpt lat="42.18775" lon="-1.48464">
        <ele>302.3</ele>
        <time>2014-11-29T14:48:06Z</time>
      </trkpt>
      <trkpt lat="42.18798" lon="-1.48483">
        <ele>303.4</ele>
        <time>2014-11-29T14:48:06Z</time>
      </trkpt>
      <trkpt lat="42.18823" lon="-1.48504">
        <ele>304.2</ele>
        <time>2014-11-29T14:48:06Z</time>
      </trkpt>
      <trkpt lat="42.18852" lon="-1.48529">
        <ele>303.9</ele>
        <time>2014-11-29T14:48:06Z</time>
      </trkpt>
      <trkpt lat="42.18878" lon="-1.48552">
        <ele>303.4</ele>
        <time>2014-11-29T14:48:06Z</time>
      </trkpt>
      <trkpt lat="42.18903" lon="-1.48572">
        <ele>303.1</ele>
        <time>2014-11-29T14:48:06Z</time>
      </trkpt>
      <trkpt lat="42.1893" lon="-1.48596">
        <ele>302.7</ele>
        <time>2014-11-29T14:48:06Z</time>
      </trkpt>
      <trkpt lat="42.18956" lon="-1.48617">
        <ele>302.6</ele>
        <time>2014-11-29T14:48:06Z</time>
      </trkpt>
      <trkpt lat="42.18973" lon="-1.48631">
        <ele>302.6</ele>
        <time>2014-11-29T14:48:06Z</time>
      </trkpt>
      <trkpt lat="42.19002" lon="-1.48656">
        <ele>303.1</ele>
        <time>2014-11-29T14:48:06Z</time>
      </trkpt>
      <trkpt lat="42.19032" lon="-1.48682">
        <ele>305.7</ele>
        <time>2014-11-29T14:48:06Z</time>
      </trkpt>
      <trkpt lat="42.19062" lon="-1.48708">
        <ele>308.5</ele>
        <time>2014-11-29T14:48:06Z</time>
      </trkpt>
      <trkpt lat="42.19102" lon="-1.48743">
        <ele>313.5</ele>
        <time>2014-11-29T14:48:06Z</time>
      </trkpt>
      <trkpt lat="42.19107" lon="-1.48747">
        <ele>314.4</ele>
        <time>2014-11-29T14:48:06Z</time>
      </trkpt>
      <trkpt lat="42.19135" lon="-1.4877">
        <ele>316.3</ele>
        <time>2014-11-29T14:48:06Z</time>
      </trkpt>
      <trkpt lat="42.19154" lon="-1.48786">
        <ele>316.4</ele>
        <time>2014-11-29T14:48:06Z</time>
      </trkpt>
      <trkpt lat="42.1917" lon="-1.48799">
        <ele>315.8</ele>
        <time>2014-11-29T14:48:06Z</time>
      </trkpt>
      <trkpt lat="42.19192" lon="-1.48817">
        <ele>313.1</ele>
        <time>2014-11-29T14:48:06Z</time>
      </trkpt>
      <trkpt lat="42.19215" lon="-1.48837">
        <ele>310.7</ele>
        <time>2014-11-29T14:48:06Z</time>
      </trkpt>
      <trkpt lat="42.19239" lon="-1.48856">
        <ele>309.3</ele>
        <time>2014-11-29T14:48:06Z</time>
      </trkpt>
      <trkpt lat="42.19256" lon="-1.48871">
        <ele>308</ele>
        <time>2014-11-29T14:48:06Z</time>
      </trkpt>
      <trkpt lat="42.1927" lon="-1.48885">
        <ele>306.5</ele>
        <time>2014-11-29T14:48:06Z</time>
      </trkpt>
      <trkpt lat="42.19295" lon="-1.48908">
        <ele>304.3</ele>
        <time>2014-11-29T14:48:06Z</time>
      </trkpt>
      <trkpt lat="42.19309" lon="-1.48922">
        <ele>303.5</ele>
        <time>2014-11-29T14:48:06Z</time>
      </trkpt>
      <trkpt lat="42.19337" lon="-1.48953">
        <ele>302.6</ele>
        <time>2014-11-29T14:48:06Z</time>
      </trkpt>
      <trkpt lat="42.19358" lon="-1.48973">
        <ele>302.5</ele>
        <time>2014-11-29T14:48:06Z</time>
      </trkpt>
      <trkpt lat="42.19381" lon="-1.48997">
        <ele>302.6</ele>
        <time>2014-11-29T14:48:06Z</time>
      </trkpt>
      <trkpt lat="42.19402" lon="-1.49016">
        <ele>302.5</ele>
        <time>2014-11-29T14:48:06Z</time>
      </trkpt>
      <trkpt lat="42.19429" lon="-1.49043">
        <ele>301.8</ele>
        <time>2014-11-29T14:48:06Z</time>
      </trkpt>
      <trkpt lat="42.19449" lon="-1.4906">
        <ele>301.2</ele>
        <time>2014-11-29T14:48:06Z</time>
      </trkpt>
      <trkpt lat="42.19465" lon="-1.49078">
        <ele>301</ele>
        <time>2014-11-29T14:48:06Z</time>
      </trkpt>
      <trkpt lat="42.19486" lon="-1.49098">
        <ele>300.9</ele>
        <time>2014-11-29T14:48:06Z</time>
      </trkpt>
      <trkpt lat="42.19502" lon="-1.49115">
        <ele>300.9</ele>
        <time>2014-11-29T14:48:06Z</time>
      </trkpt>
      <trkpt lat="42.19523" lon="-1.49136">
        <ele>300.1</ele>
        <time>2014-11-29T14:48:06Z</time>
      </trkpt>
      <trkpt lat="42.19546" lon="-1.49159">
        <ele>298.9</ele>
        <time>2014-11-29T14:48:06Z</time>
      </trkpt>
      <trkpt lat="42.19565" lon="-1.49178">
        <ele>298</ele>
        <time>2014-11-29T14:48:06Z</time>
      </trkpt>
      <trkpt lat="42.19607" lon="-1.4922">
        <ele>298.5</ele>
        <time>2014-11-29T14:48:06Z</time>
      </trkpt>
      <trkpt lat="42.19632" lon="-1.49245">
        <ele>298.9</ele>
        <time>2014-11-29T14:48:06Z</time>
      </trkpt>
      <trkpt lat="42.19648" lon="-1.49261">
        <ele>298.8</ele>
        <time>2014-11-29T14:48:06Z</time>
      </trkpt>
      <trkpt lat="42.19666" lon="-1.49279">
        <ele>298.6</ele>
        <time>2014-11-29T14:48:06Z</time>
      </trkpt>
      <trkpt lat="42.1968" lon="-1.49295">
        <ele>298.2</ele>
        <time>2014-11-29T14:48:06Z</time>
      </trkpt>
      <trkpt lat="42.19705" lon="-1.49319">
        <ele>297.6</ele>
        <time>2014-11-29T14:48:06Z</time>
      </trkpt>
      <trkpt lat="42.19721" lon="-1.49335">
        <ele>297.3</ele>
        <time>2014-11-29T14:48:06Z</time>
      </trkpt>
      <trkpt lat="42.19746" lon="-1.49362">
        <ele>296.3</ele>
        <time>2014-11-29T14:48:06Z</time>
      </trkpt>
      <trkpt lat="42.19773" lon="-1.49389">
        <ele>295.8</ele>
        <time>2014-11-29T14:48:06Z</time>
      </trkpt>
      <trkpt lat="42.19787" lon="-1.49401">
        <ele>295.7</ele>
        <time>2014-11-29T14:48:06Z</time>
      </trkpt>
      <trkpt lat="42.19804" lon="-1.4942">
        <ele>295.7</ele>
        <time>2014-11-29T14:48:06Z</time>
      </trkpt>
      <trkpt lat="42.1983" lon="-1.49446">
        <ele>296</ele>
        <time>2014-11-29T14:48:06Z</time>
      </trkpt>
      <trkpt lat="42.19853" lon="-1.49468">
        <ele>296.7</ele>
        <time>2014-11-29T14:48:06Z</time>
      </trkpt>
      <trkpt lat="42.19883" lon="-1.49498">
        <ele>297.8</ele>
        <time>2014-11-29T14:48:06Z</time>
      </trkpt>
      <trkpt lat="42.19902" lon="-1.49519">
        <ele>298.4</ele>
        <time>2014-11-29T14:48:06Z</time>
      </trkpt>
      <trkpt lat="42.19912" lon="-1.49528">
        <ele>298.5</ele>
        <time>2014-11-29T14:48:06Z</time>
      </trkpt>
      <trkpt lat="42.19925" lon="-1.49542">
        <ele>298.8</ele>
        <time>2014-11-29T14:48:06Z</time>
      </trkpt>
      <trkpt lat="42.1994" lon="-1.49558">
        <ele>299.1</ele>
        <time>2014-11-29T14:48:06Z</time>
      </trkpt>
      <trkpt lat="42.19958" lon="-1.49576">
        <ele>299.6</ele>
        <time>2014-11-29T14:48:06Z</time>
      </trkpt>
      <trkpt lat="42.19979" lon="-1.49596">
        <ele>300.3</ele>
        <time>2014-11-29T14:48:06Z</time>
      </trkpt>
      <trkpt lat="42.19998" lon="-1.49617">
        <ele>300.9</ele>
        <time>2014-11-29T14:48:06Z</time>
      </trkpt>
      <trkpt lat="42.20025" lon="-1.49642">
        <ele>302.1</ele>
        <time>2014-11-29T14:48:06Z</time>
      </trkpt>
      <trkpt lat="42.20038" lon="-1.49656">
        <ele>302.8</ele>
        <time>2014-11-29T14:48:06Z</time>
      </trkpt>
      <trkpt lat="42.20047" lon="-1.49665">
        <ele>303.2</ele>
        <time>2014-11-29T14:48:06Z</time>
      </trkpt>
      <trkpt lat="42.20057" lon="-1.49676">
        <ele>303.6</ele>
        <time>2014-11-29T14:48:06Z</time>
      </trkpt>
      <trkpt lat="42.2007" lon="-1.49687">
        <ele>303.9</ele>
        <time>2014-11-29T14:48:06Z</time>
      </trkpt>
      <trkpt lat="42.20088" lon="-1.49706">
        <ele>304.1</ele>
        <time>2014-11-29T14:48:06Z</time>
      </trkpt>
      <trkpt lat="42.20104" lon="-1.49722">
        <ele>304.1</ele>
        <time>2014-11-29T14:48:06Z</time>
      </trkpt>
      <trkpt lat="42.20119" lon="-1.49737">
        <ele>304.1</ele>
        <time>2014-11-29T14:48:06Z</time>
      </trkpt>
      <trkpt lat="42.20146" lon="-1.49767">
        <ele>305.1</ele>
        <time>2014-11-29T14:48:06Z</time>
      </trkpt>
      <trkpt lat="42.20166" lon="-1.49785">
        <ele>306.3</ele>
        <time>2014-11-29T14:48:06Z</time>
      </trkpt>
      <trkpt lat="42.20184" lon="-1.49805">
        <ele>307.7</ele>
        <time>2014-11-29T14:48:06Z</time>
      </trkpt>
      <trkpt lat="42.20207" lon="-1.49827">
        <ele>309.7</ele>
        <time>2014-11-29T14:48:06Z</time>
      </trkpt>
      <trkpt lat="42.20238" lon="-1.49858">
        <ele>311.4</ele>
        <time>2014-11-29T14:48:06Z</time>
      </trkpt>
      <trkpt lat="42.20254" lon="-1.49875">
        <ele>312.1</ele>
        <time>2014-11-29T14:48:06Z</time>
      </trkpt>
      <trkpt lat="42.20287" lon="-1.49907">
        <ele>313.3</ele>
        <time>2014-11-29T14:48:06Z</time>
      </trkpt>
      <trkpt lat="42.20312" lon="-1.49933">
        <ele>314.1</ele>
        <time>2014-11-29T14:48:06Z</time>
      </trkpt>
      <trkpt lat="42.2034" lon="-1.4996">
        <ele>315.6</ele>
        <time>2014-11-29T14:48:06Z</time>
      </trkpt>
      <trkpt lat="42.20377" lon="-1.49996">
        <ele>319.7</ele>
        <time>2014-11-29T14:48:06Z</time>
      </trkpt>
      <trkpt lat="42.20403" lon="-1.50021">
        <ele>320.7</ele>
        <time>2014-11-29T14:48:06Z</time>
      </trkpt>
      <trkpt lat="42.20417" lon="-1.50036">
        <ele>320.5</ele>
        <time>2014-11-29T14:48:06Z</time>
      </trkpt>
      <trkpt lat="42.20434" lon="-1.50052">
        <ele>319.6</ele>
        <time>2014-11-29T14:48:06Z</time>
      </trkpt>
      <trkpt lat="42.20464" lon="-1.50082">
        <ele>316.2</ele>
        <time>2014-11-29T14:48:06Z</time>
      </trkpt>
      <trkpt lat="42.2048" lon="-1.50098">
        <ele>314.9</ele>
        <time>2014-11-29T14:48:06Z</time>
      </trkpt>
      <trkpt lat="42.20499" lon="-1.50117">
        <ele>313.2</ele>
        <time>2014-11-29T14:48:06Z</time>
      </trkpt>
      <trkpt lat="42.20517" lon="-1.50138">
        <ele>311.1</ele>
        <time>2014-11-29T14:48:06Z</time>
      </trkpt>
      <trkpt lat="42.20535" lon="-1.5017">
        <ele>307.9</ele>
        <time>2014-11-29T14:48:06Z</time>
      </trkpt>
      <trkpt lat="42.2055" lon="-1.502">
        <ele>305.9</ele>
        <time>2014-11-29T14:48:06Z</time>
      </trkpt>
      <trkpt lat="42.20568" lon="-1.50244">
        <ele>302.9</ele>
        <time>2014-11-29T14:48:06Z</time>
      </trkpt>
      <trkpt lat="42.20588" lon="-1.50282">
        <ele>301.2</ele>
        <time>2014-11-29T14:48:06Z</time>
      </trkpt>
      <trkpt lat="42.20619" lon="-1.5035">
        <ele>298.8</ele>
        <time>2014-11-29T14:48:06Z</time>
      </trkpt>
      <trkpt lat="42.20642" lon="-1.50396">
        <ele>297.9</ele>
        <time>2014-11-29T14:48:06Z</time>
      </trkpt>
      <trkpt lat="42.2067" lon="-1.5046">
        <ele>298.1</ele>
        <time>2014-11-29T14:48:06Z</time>
      </trkpt>
      <trkpt lat="42.20694" lon="-1.5051">
        <ele>298.7</ele>
        <time>2014-11-29T14:48:06Z</time>
      </trkpt>
      <trkpt lat="42.20709" lon="-1.50543">
        <ele>298.5</ele>
        <time>2014-11-29T14:48:06Z</time>
      </trkpt>
      <trkpt lat="42.20719" lon="-1.50565">
        <ele>298.3</ele>
        <time>2014-11-29T14:48:06Z</time>
      </trkpt>
      <trkpt lat="42.20724" lon="-1.50586">
        <ele>298.1</ele>
        <time>2014-11-29T14:48:06Z</time>
      </trkpt>
      <trkpt lat="42.2073" lon="-1.50611">
        <ele>298.5</ele>
        <time>2014-11-29T14:48:06Z</time>
      </trkpt>
      <trkpt lat="42.20732" lon="-1.50657">
        <ele>299.1</ele>
        <time>2014-11-29T14:48:06Z</time>
      </trkpt>
      <trkpt lat="42.20731" lon="-1.50713">
        <ele>301.4</ele>
        <time>2014-11-29T14:48:06Z</time>
      </trkpt>
      <trkpt lat="42.20726" lon="-1.50749">
        <ele>302.6</ele>
        <time>2014-11-29T14:48:06Z</time>
      </trkpt>
      <trkpt lat="42.20718" lon="-1.50785">
        <ele>307</ele>
        <time>2014-11-29T14:48:06Z</time>
      </trkpt>
      <trkpt lat="42.20706" lon="-1.50816">
        <ele>309.4</ele>
        <time>2014-11-29T14:48:06Z</time>
      </trkpt>
      <trkpt lat="42.20694" lon="-1.5085">
        <ele>310.3</ele>
        <time>2014-11-29T14:48:06Z</time>
      </trkpt>
      <trkpt lat="42.20691" lon="-1.50874">
        <ele>311.3</ele>
        <time>2014-11-29T14:48:06Z</time>
      </trkpt>
      <trkpt lat="42.20694" lon="-1.50906">
        <ele>314.7</ele>
        <time>2014-11-29T14:48:06Z</time>
      </trkpt>
      <trkpt lat="42.20703" lon="-1.50929">
        <ele>317</ele>
        <time>2014-11-29T14:48:06Z</time>
      </trkpt>
      <trkpt lat="42.20717" lon="-1.50957">
        <ele>317.5</ele>
        <time>2014-11-29T14:48:06Z</time>
      </trkpt>
      <trkpt lat="42.20741" lon="-1.51006">
        <ele>315.2</ele>
        <time>2014-11-29T14:48:06Z</time>
      </trkpt>
      <trkpt lat="42.20757" lon="-1.5104">
        <ele>311.3</ele>
        <time>2014-11-29T14:48:06Z</time>
      </trkpt>
      <trkpt lat="42.20772" lon="-1.51072">
        <ele>307.1</ele>
        <time>2014-11-29T14:48:06Z</time>
      </trkpt>
      <trkpt lat="42.20795" lon="-1.51124">
        <ele>305.9</ele>
        <time>2014-11-29T14:48:06Z</time>
      </trkpt>
      <trkpt lat="42.2081" lon="-1.51165">
        <ele>306.7</ele>
        <time>2014-11-29T14:48:06Z</time>
      </trkpt>
      <trkpt lat="42.20842" lon="-1.51244">
        <ele>306.9</ele>
        <time>2014-11-29T14:48:06Z</time>
      </trkpt>
      <trkpt lat="42.20853" lon="-1.51272">
        <ele>305.3</ele>
        <time>2014-11-29T14:48:06Z</time>
      </trkpt>
      <trkpt lat="42.20865" lon="-1.51299">
        <ele>303.4</ele>
        <time>2014-11-29T14:48:06Z</time>
      </trkpt>
      <trkpt lat="42.20889" lon="-1.51356">
        <ele>298.6</ele>
        <time>2014-11-29T14:48:06Z</time>
      </trkpt>
      <trkpt lat="42.20911" lon="-1.51408">
        <ele>295.5</ele>
        <time>2014-11-29T14:48:06Z</time>
      </trkpt>
      <trkpt lat="42.20939" lon="-1.51475">
        <ele>291.1</ele>
        <time>2014-11-29T14:48:06Z</time>
      </trkpt>
      <trkpt lat="42.20949" lon="-1.51557">
        <ele>287.8</ele>
        <time>2014-11-29T14:48:06Z</time>
      </trkpt>
      <trkpt lat="42.20951" lon="-1.51555">
        <ele>287.6</ele>
        <time>2014-11-29T11:35:42Z</time>
      </trkpt>
      <trkpt lat="42.20981" lon="-1.51499">
        <ele>286.6</ele>
        <time>2014-11-29T11:35:42Z</time>
      </trkpt>
      <trkpt lat="42.20997" lon="-1.51478">
        <ele>286.3</ele>
        <time>2014-11-29T11:35:42Z</time>
      </trkpt>
      <trkpt lat="42.21018" lon="-1.51441">
        <ele>286.8</ele>
        <time>2014-11-29T11:35:42Z</time>
      </trkpt>
      <trkpt lat="42.21038" lon="-1.51403">
        <ele>286.8</ele>
        <time>2014-11-29T11:35:42Z</time>
      </trkpt>
      <trkpt lat="42.2108" lon="-1.51328">
        <ele>288.3</ele>
        <time>2014-11-29T11:35:42Z</time>
      </trkpt>
      <trkpt lat="42.21099" lon="-1.51297">
        <ele>288.8</ele>
        <time>2014-11-29T11:35:42Z</time>
      </trkpt>
      <trkpt lat="42.21114" lon="-1.51281">
        <ele>289.2</ele>
        <time>2014-11-29T11:35:42Z</time>
      </trkpt>
      <trkpt lat="42.21133" lon="-1.51276">
        <ele>289</ele>
        <time>2014-11-29T11:35:42Z</time>
      </trkpt>
      <trkpt lat="42.21158" lon="-1.51275">
        <ele>288.8</ele>
        <time>2014-11-29T11:35:42Z</time>
      </trkpt>
      <trkpt lat="42.21183" lon="-1.51281">
        <ele>287.7</ele>
        <time>2014-11-29T11:35:42Z</time>
      </trkpt>
      <trkpt lat="42.21225" lon="-1.51297">
        <ele>286.1</ele>
        <time>2014-11-29T11:35:42Z</time>
      </trkpt>
      <trkpt lat="42.21289" lon="-1.5131">
        <ele>286.6</ele>
        <time>2014-11-29T11:35:42Z</time>
      </trkpt>
      <trkpt lat="42.21305" lon="-1.51308">
        <ele>287.1</ele>
        <time>2014-11-29T11:35:42Z</time>
      </trkpt>
      <trkpt lat="42.21325" lon="-1.51303">
        <ele>287.4</ele>
        <time>2014-11-29T11:35:42Z</time>
      </trkpt>
      <trkpt lat="42.21346" lon="-1.51288">
        <ele>287.3</ele>
        <time>2014-11-29T11:35:42Z</time>
      </trkpt>
      <trkpt lat="42.2136" lon="-1.51286">
        <ele>287.6</ele>
        <time>2014-11-29T11:35:42Z</time>
      </trkpt>
      <trkpt lat="42.21385" lon="-1.51281">
        <ele>288.3</ele>
        <time>2014-11-29T11:35:42Z</time>
      </trkpt>
      <trkpt lat="42.21404" lon="-1.51279">
        <ele>288.9</ele>
        <time>2014-11-29T11:35:42Z</time>
      </trkpt>
      <trkpt lat="42.2144" lon="-1.51278">
        <ele>289.4</ele>
        <time>2014-11-29T11:35:42Z</time>
      </trkpt>
      <trkpt lat="42.21454" lon="-1.5127">
        <ele>289.5</ele>
        <time>2014-11-29T11:35:42Z</time>
      </trkpt>
      <trkpt lat="42.21474" lon="-1.51256">
        <ele>289.7</ele>
        <time>2014-11-29T11:35:42Z</time>
      </trkpt>
      <trkpt lat="42.2154" lon="-1.51181">
        <ele>290</ele>
        <time>2014-11-29T11:35:42Z</time>
      </trkpt>
      <trkpt lat="42.21603" lon="-1.5111">
        <ele>289.4</ele>
        <time>2014-11-29T11:35:42Z</time>
      </trkpt>
      <trkpt lat="42.21703" lon="-1.50996">
        <ele>292.8</ele>
        <time>2014-11-29T11:35:42Z</time>
      </trkpt>
      <trkpt lat="42.21784" lon="-1.50905">
        <ele>289.6</ele>
        <time>2014-11-29T11:35:42Z</time>
      </trkpt>
      <trkpt lat="42.2188" lon="-1.50798">
        <ele>292.2</ele>
        <time>2014-11-29T11:35:42Z</time>
      </trkpt>
      <trkpt lat="42.2195" lon="-1.50715">
        <ele>292.1</ele>
        <time>2014-11-29T11:35:42Z</time>
      </trkpt>
      <trkpt lat="42.21966" lon="-1.50689">
        <ele>291.7</ele>
        <time>2014-11-29T11:35:42Z</time>
      </trkpt>
      <trkpt lat="42.22005" lon="-1.50613">
        <ele>291.1</ele>
        <time>2014-11-29T11:35:42Z</time>
      </trkpt>
      <trkpt lat="42.22032" lon="-1.50551">
        <ele>291.8</ele>
        <time>2014-11-29T11:35:42Z</time>
      </trkpt>
      <trkpt lat="42.22088" lon="-1.50433">
        <ele>292.2</ele>
        <time>2014-11-29T11:35:42Z</time>
      </trkpt>
      <trkpt lat="42.22129" lon="-1.50344">
        <ele>293.6</ele>
        <time>2014-11-29T11:35:42Z</time>
      </trkpt>
      <trkpt lat="42.22152" lon="-1.50297">
        <ele>295.6</ele>
        <time>2014-11-29T11:35:42Z</time>
      </trkpt>
      <trkpt lat="42.22168" lon="-1.50258">
        <ele>296.9</ele>
        <time>2014-11-29T11:35:42Z</time>
      </trkpt>
      <trkpt lat="42.22206" lon="-1.50154">
        <ele>297.4</ele>
        <time>2014-11-29T11:35:42Z</time>
      </trkpt>
      <trkpt lat="42.22233" lon="-1.50079">
        <ele>298.3</ele>
        <time>2014-11-29T11:35:42Z</time>
      </trkpt>
      <trkpt lat="42.22272" lon="-1.49969">
        <ele>296.6</ele>
        <time>2014-11-29T11:35:42Z</time>
      </trkpt>
      <trkpt lat="42.22329" lon="-1.49815">
        <ele>293.4</ele>
        <time>2014-11-29T11:35:42Z</time>
      </trkpt>
      <trkpt lat="42.22375" lon="-1.49685">
        <ele>297</ele>
        <time>2014-11-29T11:35:42Z</time>
      </trkpt>
      <trkpt lat="42.22426" lon="-1.49545">
        <ele>298.7</ele>
        <time>2014-11-29T11:35:42Z</time>
      </trkpt>
      <trkpt lat="42.22449" lon="-1.49481">
        <ele>299.6</ele>
        <time>2014-11-29T11:35:42Z</time>
      </trkpt>
      <trkpt lat="42.22481" lon="-1.49393">
        <ele>299.7</ele>
        <time>2014-11-29T11:35:42Z</time>
      </trkpt>
      <trkpt lat="42.2251" lon="-1.49337">
        <ele>301.1</ele>
        <time>2014-11-29T11:35:42Z</time>
      </trkpt>
      <trkpt lat="42.22526" lon="-1.49312">
        <ele>300.9</ele>
        <time>2014-11-29T11:35:42Z</time>
      </trkpt>
      <trkpt lat="42.22544" lon="-1.49283">
        <ele>300.3</ele>
        <time>2014-11-29T11:35:42Z</time>
      </trkpt>
      <trkpt lat="42.22556" lon="-1.49271">
        <ele>299.9</ele>
        <time>2014-11-29T11:35:42Z</time>
      </trkpt>
      <trkpt lat="42.22579" lon="-1.49261">
        <ele>299.5</ele>
        <time>2014-11-29T11:35:42Z</time>
      </trkpt>
      <trkpt lat="42.22614" lon="-1.49252">
        <ele>299.8</ele>
        <time>2014-11-29T11:35:42Z</time>
      </trkpt>
      <trkpt lat="42.22699" lon="-1.49237">
        <ele>301.3</ele>
        <time>2014-11-29T11:35:42Z</time>
      </trkpt>
      <trkpt lat="42.22772" lon="-1.49223">
        <ele>302.3</ele>
        <time>2014-11-29T11:35:42Z</time>
      </trkpt>
      <trkpt lat="42.22793" lon="-1.4922">
        <ele>302.5</ele>
        <time>2014-11-29T11:35:42Z</time>
      </trkpt>
      <trkpt lat="42.22807" lon="-1.49213">
        <ele>302.7</ele>
        <time>2014-11-29T11:35:42Z</time>
      </trkpt>
      <trkpt lat="42.22821" lon="-1.492">
        <ele>302.9</ele>
        <time>2014-11-29T11:35:42Z</time>
      </trkpt>
      <trkpt lat="42.22843" lon="-1.4916">
        <ele>303.2</ele>
        <time>2014-11-29T11:35:42Z</time>
      </trkpt>
      <trkpt lat="42.2288" lon="-1.49098">
        <ele>303.7</ele>
        <time>2014-11-29T11:35:42Z</time>
      </trkpt>
      <trkpt lat="42.22937" lon="-1.49002">
        <ele>305.7</ele>
        <time>2014-11-29T11:35:42Z</time>
      </trkpt>
      <trkpt lat="42.22973" lon="-1.48938">
        <ele>307.3</ele>
        <time>2014-11-29T11:35:42Z</time>
      </trkpt>
      <trkpt lat="42.22995" lon="-1.48886">
        <ele>308.3</ele>
        <time>2014-11-29T11:35:42Z</time>
      </trkpt>
      <trkpt lat="42.23008" lon="-1.48843">
        <ele>308.9</ele>
        <time>2014-11-29T11:35:42Z</time>
      </trkpt>
      <trkpt lat="42.23025" lon="-1.48775">
        <ele>309.7</ele>
        <time>2014-11-29T11:35:42Z</time>
      </trkpt>
      <trkpt lat="42.2303" lon="-1.4871">
        <ele>310.6</ele>
        <time>2014-11-29T11:35:42Z</time>
      </trkpt>
      <trkpt lat="42.23028" lon="-1.48661">
        <ele>311.5</ele>
        <time>2014-11-29T11:35:42Z</time>
      </trkpt>
      <trkpt lat="42.23024" lon="-1.48632">
        <ele>312.5</ele>
        <time>2014-11-29T11:35:42Z</time>
      </trkpt>
      <trkpt lat="42.23011" lon="-1.4859">
        <ele>314.4</ele>
        <time>2014-11-29T11:35:42Z</time>
      </trkpt>
      <trkpt lat="42.22977" lon="-1.48509">
        <ele>317</ele>
        <time>2014-11-29T11:35:42Z</time>
      </trkpt>
      <trkpt lat="42.22953" lon="-1.48475">
        <ele>316</ele>
        <time>2014-11-29T11:35:42Z</time>
      </trkpt>
      <trkpt lat="42.22922" lon="-1.48431">
        <ele>315</ele>
        <time>2014-11-29T11:35:42Z</time>
      </trkpt>
      <trkpt lat="42.22882" lon="-1.48372">
        <ele>312.8</ele>
        <time>2014-11-29T11:35:42Z</time>
      </trkpt>
      <trkpt lat="42.22803" lon="-1.4826">
        <ele>309.3</ele>
        <time>2014-11-29T11:35:42Z</time>
      </trkpt>
      <trkpt lat="42.22762" lon="-1.48198">
        <ele>307.8</ele>
        <time>2014-11-29T11:35:42Z</time>
      </trkpt>
      <trkpt lat="42.2273" lon="-1.48152">
        <ele>307.1</ele>
        <time>2014-11-29T11:35:42Z</time>
      </trkpt>
      <trkpt lat="42.2271" lon="-1.48121">
        <ele>306.4</ele>
        <time>2014-11-29T11:35:42Z</time>
      </trkpt>
      <trkpt lat="42.22701" lon="-1.48088">
        <ele>306.2</ele>
        <time>2014-11-29T11:35:42Z</time>
      </trkpt>
      <trkpt lat="42.22697" lon="-1.48063">
        <ele>306.7</ele>
        <time>2014-11-29T11:35:42Z</time>
      </trkpt>
      <trkpt lat="42.22686" lon="-1.48013">
        <ele>308</ele>
        <time>2014-11-29T11:35:42Z</time>
      </trkpt>
      <trkpt lat="42.22673" lon="-1.47941">
        <ele>308.9</ele>
        <time>2014-11-29T11:35:42Z</time>
      </trkpt>
      <trkpt lat="42.22658" lon="-1.47857">
        <ele>309.7</ele>
        <time>2014-11-29T11:35:42Z</time>
      </trkpt>
      <trkpt lat="42.22651" lon="-1.47801">
        <ele>309.8</ele>
        <time>2014-11-29T11:35:42Z</time>
      </trkpt>
      <trkpt lat="42.22652" lon="-1.47773">
        <ele>310</ele>
        <time>2014-11-29T11:35:42Z</time>
      </trkpt>
      <trkpt lat="42.22657" lon="-1.47728">
        <ele>309.7</ele>
        <time>2014-11-29T11:35:42Z</time>
      </trkpt>
      <trkpt lat="42.22661" lon="-1.47712">
        <ele>309.3</ele>
        <time>2014-11-29T11:35:42Z</time>
      </trkpt>
      <trkpt lat="42.22676" lon="-1.47639">
        <ele>307.7</ele>
        <time>2014-11-29T11:35:42Z</time>
      </trkpt>
      <trkpt lat="42.22678" lon="-1.47603">
        <ele>306.8</ele>
        <time>2014-11-29T11:35:42Z</time>
      </trkpt>
      <trkpt lat="42.22673" lon="-1.47553">
        <ele>306.8</ele>
        <time>2014-11-29T11:35:42Z</time>
      </trkpt>
      <trkpt lat="42.22667" lon="-1.47533">
        <ele>307.2</ele>
        <time>2014-11-29T11:35:42Z</time>
      </trkpt>
      <trkpt lat="42.22661" lon="-1.4752">
        <ele>307.3</ele>
        <time>2014-11-29T11:35:42Z</time>
      </trkpt>
      <trkpt lat="42.22638" lon="-1.47488">
        <ele>306.9</ele>
        <time>2014-11-29T11:35:42Z</time>
      </trkpt>
      <trkpt lat="42.22602" lon="-1.47441">
        <ele>306.1</ele>
        <time>2014-11-29T11:35:42Z</time>
      </trkpt>
      <trkpt lat="42.22577" lon="-1.47407">
        <ele>305.9</ele>
        <time>2014-11-29T11:35:42Z</time>
      </trkpt>
      <trkpt lat="42.22543" lon="-1.47361">
        <ele>306.1</ele>
        <time>2014-11-29T11:35:42Z</time>
      </trkpt>
      <trkpt lat="42.22506" lon="-1.47312">
        <ele>306.6</ele>
        <time>2014-11-29T11:35:42Z</time>
      </trkpt>
      <trkpt lat="42.22474" lon="-1.47269">
        <ele>307.1</ele>
        <time>2014-11-29T11:35:42Z</time>
      </trkpt>
      <trkpt lat="42.22457" lon="-1.47245">
        <ele>307.4</ele>
        <time>2014-11-29T11:35:42Z</time>
      </trkpt>
      <trkpt lat="42.22375" lon="-1.47133">
        <ele>304.8</ele>
        <time>2014-11-29T11:35:42Z</time>
      </trkpt>
      <trkpt lat="42.22287" lon="-1.47013">
        <ele>304.8</ele>
        <time>2014-11-29T11:35:42Z</time>
      </trkpt>
      <trkpt lat="42.2224" lon="-1.46953">
        <ele>305.1</ele>
        <time>2014-11-29T11:35:42Z</time>
      </trkpt>
      <trkpt lat="42.22171" lon="-1.46857">
        <ele>307.9</ele>
        <time>2014-11-29T11:35:42Z</time>
      </trkpt>
      <trkpt lat="42.22137" lon="-1.4681">
        <ele>307.8</ele>
        <time>2014-11-29T11:35:42Z</time>
      </trkpt>
      <trkpt lat="42.22127" lon="-1.46795">
        <ele>307.4</ele>
        <time>2014-11-29T11:35:42Z</time>
      </trkpt>
      <trkpt lat="42.22119" lon="-1.46779">
        <ele>306.9</ele>
        <time>2014-11-29T11:35:42Z</time>
      </trkpt>
      <trkpt lat="42.2211" lon="-1.46743">
        <ele>306.3</ele>
        <time>2014-11-29T11:35:42Z</time>
      </trkpt>
      <trkpt lat="42.2209" lon="-1.46681">
        <ele>306.1</ele>
        <time>2014-11-29T11:35:42Z</time>
      </trkpt>
      <trkpt lat="42.22065" lon="-1.46636">
        <ele>306.1</ele>
        <time>2014-11-29T11:35:42Z</time>
      </trkpt>
      <trkpt lat="42.22049" lon="-1.46607">
        <ele>305.8</ele>
        <time>2014-11-29T11:35:42Z</time>
      </trkpt>
      <trkpt lat="42.22033" lon="-1.46582">
        <ele>305.4</ele>
        <time>2014-11-29T11:35:42Z</time>
      </trkpt>
      <trkpt lat="42.2202" lon="-1.46568">
        <ele>305.1</ele>
        <time>2014-11-29T11:35:42Z</time>
      </trkpt>
      <trkpt lat="42.22003" lon="-1.46556">
        <ele>304.7</ele>
        <time>2014-11-29T11:35:42Z</time>
      </trkpt>
      <trkpt lat="42.21956" lon="-1.46521">
        <ele>303.9</ele>
        <time>2014-11-29T11:35:42Z</time>
      </trkpt>
      <trkpt lat="42.21913" lon="-1.46492">
        <ele>302.8</ele>
        <time>2014-11-29T11:35:42Z</time>
      </trkpt>
      <trkpt lat="42.21875" lon="-1.46465">
        <ele>300.7</ele>
        <time>2014-11-29T11:35:42Z</time>
      </trkpt>
      <trkpt lat="42.21845" lon="-1.46443">
        <ele>298.6</ele>
        <time>2014-11-29T11:35:42Z</time>
      </trkpt>
      <trkpt lat="42.21822" lon="-1.46417">
        <ele>297.3</ele>
        <time>2014-11-29T11:35:42Z</time>
      </trkpt>
      <trkpt lat="42.21808" lon="-1.46391">
        <ele>298.5</ele>
        <time>2014-11-29T11:35:42Z</time>
      </trkpt>
      <trkpt lat="42.21791" lon="-1.46356">
        <ele>300.2</ele>
        <time>2014-11-29T11:35:42Z</time>
      </trkpt>
      <trkpt lat="42.21791" lon="-1.46356">
        <ele>300.2</ele>
        <time>2014-11-29T12:00:08Z</time>
      </trkpt>
      <trkpt lat="42.21836" lon="-1.46297">
        <ele>300.9</ele>
        <time>2014-11-29T12:00:08Z</time>
      </trkpt>
      <trkpt lat="42.21858" lon="-1.46262">
        <ele>302</ele>
        <time>2014-11-29T12:00:08Z</time>
      </trkpt>
      <trkpt lat="42.21883" lon="-1.46224">
        <ele>303.1</ele>
        <time>2014-11-29T12:00:08Z</time>
      </trkpt>
      <trkpt lat="42.2191" lon="-1.46186">
        <ele>304.4</ele>
        <time>2014-11-29T12:00:08Z</time>
      </trkpt>
      <trkpt lat="42.21926" lon="-1.46173">
        <ele>304.8</ele>
        <time>2014-11-29T12:00:08Z</time>
      </trkpt>
      <trkpt lat="42.21959" lon="-1.46159">
        <ele>304.9</ele>
        <time>2014-11-29T12:00:08Z</time>
      </trkpt>
      <trkpt lat="42.2197" lon="-1.46156">
        <ele>304.8</ele>
        <time>2014-11-29T12:00:08Z</time>
      </trkpt>
      <trkpt lat="42.21979" lon="-1.46148">
        <ele>304.7</ele>
        <time>2014-11-29T12:00:08Z</time>
      </trkpt>
      <trkpt lat="42.21986" lon="-1.46137">
        <ele>304.4</ele>
        <time>2014-11-29T12:00:08Z</time>
      </trkpt>
      <trkpt lat="42.21995" lon="-1.4612">
        <ele>304</ele>
        <time>2014-11-29T12:00:08Z</time>
      </trkpt>
      <trkpt lat="42.21999" lon="-1.46104">
        <ele>303.5</ele>
        <time>2014-11-29T12:00:08Z</time>
      </trkpt>
      <trkpt lat="42.22013" lon="-1.46053">
        <ele>304.6</ele>
        <time>2014-11-29T12:00:08Z</time>
      </trkpt>
      <trkpt lat="42.2202" lon="-1.46026">
        <ele>305.7</ele>
        <time>2014-11-29T12:00:08Z</time>
      </trkpt>
      <trkpt lat="42.22023" lon="-1.46002">
        <ele>306.5</ele>
        <time>2014-11-29T12:00:08Z</time>
      </trkpt>
      <trkpt lat="42.22024" lon="-1.45957">
        <ele>308.2</ele>
        <time>2014-11-29T12:00:08Z</time>
      </trkpt>
      <trkpt lat="42.22028" lon="-1.45921">
        <ele>309.5</ele>
        <time>2014-11-29T12:00:08Z</time>
      </trkpt>
      <trkpt lat="42.22035" lon="-1.45884">
        <ele>310.5</ele>
        <time>2014-11-29T12:00:08Z</time>
      </trkpt>
      <trkpt lat="42.22038" lon="-1.45871">
        <ele>310.9</ele>
        <time>2014-11-29T12:00:08Z</time>
      </trkpt>
      <trkpt lat="42.22046" lon="-1.45854">
        <ele>311.4</ele>
        <time>2014-11-29T12:00:08Z</time>
      </trkpt>
      <trkpt lat="42.22061" lon="-1.45829">
        <ele>312</ele>
        <time>2014-11-29T12:00:08Z</time>
      </trkpt>
      <trkpt lat="42.22072" lon="-1.45818">
        <ele>312.2</ele>
        <time>2014-11-29T12:00:08Z</time>
      </trkpt>
      <trkpt lat="42.22087" lon="-1.45806">
        <ele>312.4</ele>
        <time>2014-11-29T12:00:08Z</time>
      </trkpt>
      <trkpt lat="42.22095" lon="-1.45798">
        <ele>312.7</ele>
        <time>2014-11-29T12:00:08Z</time>
      </trkpt>
      <trkpt lat="42.22105" lon="-1.45782">
        <ele>313.1</ele>
        <time>2014-11-29T12:00:08Z</time>
      </trkpt>
      <trkpt lat="42.22136" lon="-1.45753">
        <ele>314.2</ele>
        <time>2014-11-29T12:00:08Z</time>
      </trkpt>
      <trkpt lat="42.22149" lon="-1.45741">
        <ele>314.6</ele>
        <time>2014-11-29T12:00:08Z</time>
      </trkpt>
      <trkpt lat="42.22165" lon="-1.4573">
        <ele>315</ele>
        <time>2014-11-29T12:00:08Z</time>
      </trkpt>
      <trkpt lat="42.22184" lon="-1.45719">
        <ele>315.3</ele>
        <time>2014-11-29T12:00:08Z</time>
      </trkpt>
      <trkpt lat="42.22243" lon="-1.45691">
        <ele>316.2</ele>
        <time>2014-11-29T12:00:08Z</time>
      </trkpt>
      <trkpt lat="42.22294" lon="-1.45664">
        <ele>317.5</ele>
        <time>2014-11-29T12:00:08Z</time>
      </trkpt>
      <trkpt lat="42.22329" lon="-1.45645">
        <ele>318.4</ele>
        <time>2014-11-29T12:00:08Z</time>
      </trkpt>
      <trkpt lat="42.22354" lon="-1.45634">
        <ele>318.8</ele>
        <time>2014-11-29T12:00:08Z</time>
      </trkpt>
      <trkpt lat="42.22387" lon="-1.45621">
        <ele>319.6</ele>
        <time>2014-11-29T12:00:08Z</time>
      </trkpt>
      <trkpt lat="42.22401" lon="-1.45616">
        <ele>320.1</ele>
        <time>2014-11-29T12:00:08Z</time>
      </trkpt>
      <trkpt lat="42.22421" lon="-1.4561">
        <ele>320.8</ele>
        <time>2014-11-29T12:00:08Z</time>
      </trkpt>
      <trkpt lat="42.22473" lon="-1.45597">
        <ele>323.4</ele>
        <time>2014-11-29T12:00:08Z</time>
      </trkpt>
      <trkpt lat="42.22489" lon="-1.4559">
        <ele>324.3</ele>
        <time>2014-11-29T12:00:08Z</time>
      </trkpt>
      <trkpt lat="42.22512" lon="-1.4558">
        <ele>325.4</ele>
        <time>2014-11-29T12:00:08Z</time>
      </trkpt>
      <trkpt lat="42.22538" lon="-1.45569">
        <ele>326.4</ele>
        <time>2014-11-29T12:00:08Z</time>
      </trkpt>
      <trkpt lat="42.22553" lon="-1.45559">
        <ele>326.9</ele>
        <time>2014-11-29T12:00:08Z</time>
      </trkpt>
      <trkpt lat="42.22582" lon="-1.45556">
        <ele>327.9</ele>
        <time>2014-11-29T12:00:08Z</time>
      </trkpt>
      <trkpt lat="42.22625" lon="-1.45551">
        <ele>329.9</ele>
        <time>2014-11-29T12:00:08Z</time>
      </trkpt>
      <trkpt lat="42.22646" lon="-1.45549">
        <ele>330.9</ele>
        <time>2014-11-29T12:00:08Z</time>
      </trkpt>
      <trkpt lat="42.22663" lon="-1.45548">
        <ele>331.7</ele>
        <time>2014-11-29T12:00:08Z</time>
      </trkpt>
      <trkpt lat="42.2268" lon="-1.45549">
        <ele>331.9</ele>
        <time>2014-11-29T12:00:08Z</time>
      </trkpt>
      <trkpt lat="42.22702" lon="-1.45548">
        <ele>332.1</ele>
        <time>2014-11-29T12:00:08Z</time>
      </trkpt>
      <trkpt lat="42.2272" lon="-1.45545">
        <ele>332.3</ele>
        <time>2014-11-29T12:00:08Z</time>
      </trkpt>
      <trkpt lat="42.22743" lon="-1.45542">
        <ele>332.5</ele>
        <time>2014-11-29T12:00:08Z</time>
      </trkpt>
      <trkpt lat="42.2277" lon="-1.45539">
        <ele>334.5</ele>
        <time>2014-11-29T12:00:08Z</time>
      </trkpt>
      <trkpt lat="42.22784" lon="-1.45537">
        <ele>336</ele>
        <time>2014-11-29T12:00:08Z</time>
      </trkpt>
      <trkpt lat="42.22793" lon="-1.45535">
        <ele>336.8</ele>
        <time>2014-11-29T12:00:08Z</time>
      </trkpt>
      <trkpt lat="42.22806" lon="-1.45531">
        <ele>338.1</ele>
        <time>2014-11-29T12:00:08Z</time>
      </trkpt>
      <trkpt lat="42.22821" lon="-1.45521">
        <ele>339.3</ele>
        <time>2014-11-29T12:00:08Z</time>
      </trkpt>
      <trkpt lat="42.22836" lon="-1.45506">
        <ele>340.3</ele>
        <time>2014-11-29T12:00:08Z</time>
      </trkpt>
      <trkpt lat="42.2285" lon="-1.4549">
        <ele>341</ele>
        <time>2014-11-29T12:00:08Z</time>
      </trkpt>
      <trkpt lat="42.2287" lon="-1.45475">
        <ele>341.9</ele>
        <time>2014-11-29T12:00:08Z</time>
      </trkpt>
      <trkpt lat="42.22875" lon="-1.45472">
        <ele>342.2</ele>
        <time>2014-11-29T12:00:08Z</time>
      </trkpt>
      <trkpt lat="42.22883" lon="-1.45469">
        <ele>342.5</ele>
        <time>2014-11-29T12:00:08Z</time>
      </trkpt>
      <trkpt lat="42.22892" lon="-1.45466">
        <ele>342.9</ele>
        <time>2014-11-29T12:00:08Z</time>
      </trkpt>
      <trkpt lat="42.22905" lon="-1.45463">
        <ele>343.6</ele>
        <time>2014-11-29T12:00:08Z</time>
      </trkpt>
      <trkpt lat="42.22933" lon="-1.45454">
        <ele>344.3</ele>
        <time>2014-11-29T12:00:08Z</time>
      </trkpt>
      <trkpt lat="42.22956" lon="-1.45448">
        <ele>344.7</ele>
        <time>2014-11-29T12:00:08Z</time>
      </trkpt>
      <trkpt lat="42.22971" lon="-1.45443">
        <ele>345.2</ele>
        <time>2014-11-29T12:00:08Z</time>
      </trkpt>
      <trkpt lat="42.22984" lon="-1.45435">
        <ele>345.7</ele>
        <time>2014-11-29T12:00:08Z</time>
      </trkpt>
      <trkpt lat="42.22992" lon="-1.45425">
        <ele>346.3</ele>
        <time>2014-11-29T12:00:08Z</time>
      </trkpt>
      <trkpt lat="42.23" lon="-1.45407">
        <ele>347</ele>
        <time>2014-11-29T12:00:08Z</time>
      </trkpt>
      <trkpt lat="42.23006" lon="-1.45382">
        <ele>347.1</ele>
        <time>2014-11-29T12:00:08Z</time>
      </trkpt>
      <trkpt lat="42.23015" lon="-1.4536">
        <ele>347.2</ele>
        <time>2014-11-29T12:00:08Z</time>
      </trkpt>
      <trkpt lat="42.23024" lon="-1.45341">
        <ele>347.5</ele>
        <time>2014-11-29T12:00:08Z</time>
      </trkpt>
      <trkpt lat="42.23036" lon="-1.45322">
        <ele>347.9</ele>
        <time>2014-11-29T12:00:08Z</time>
      </trkpt>
      <trkpt lat="42.23045" lon="-1.45311">
        <ele>348.2</ele>
        <time>2014-11-29T12:00:08Z</time>
      </trkpt>
      <trkpt lat="42.23058" lon="-1.45292">
        <ele>348.5</ele>
        <time>2014-11-29T12:00:08Z</time>
      </trkpt>
      <trkpt lat="42.23065" lon="-1.45285">
        <ele>348.7</ele>
        <time>2014-11-29T12:00:08Z</time>
      </trkpt>
      <trkpt lat="42.23081" lon="-1.45265">
        <ele>349</ele>
        <time>2014-11-29T12:00:08Z</time>
      </trkpt>
      <trkpt lat="42.23093" lon="-1.4525">
        <ele>349</ele>
        <time>2014-11-29T12:00:08Z</time>
      </trkpt>
      <trkpt lat="42.23105" lon="-1.45236">
        <ele>349</ele>
        <time>2014-11-29T12:00:08Z</time>
      </trkpt>
      <trkpt lat="42.23118" lon="-1.45223">
        <ele>348.9</ele>
        <time>2014-11-29T12:00:08Z</time>
      </trkpt>
      <trkpt lat="42.23127" lon="-1.45214">
        <ele>348.8</ele>
        <time>2014-11-29T12:00:08Z</time>
      </trkpt>
      <trkpt lat="42.23138" lon="-1.45203">
        <ele>348.6</ele>
        <time>2014-11-29T12:00:08Z</time>
      </trkpt>
      <trkpt lat="42.23154" lon="-1.45188">
        <ele>348.4</ele>
        <time>2014-11-29T12:00:08Z</time>
      </trkpt>
      <trkpt lat="42.23184" lon="-1.45161">
        <ele>348.2</ele>
        <time>2014-11-29T12:00:08Z</time>
      </trkpt>
      <trkpt lat="42.23199" lon="-1.45145">
        <ele>348.2</ele>
        <time>2014-11-29T12:00:08Z</time>
      </trkpt>
      <trkpt lat="42.23216" lon="-1.45127">
        <ele>348</ele>
        <time>2014-11-29T12:00:08Z</time>
      </trkpt>
      <trkpt lat="42.23249" lon="-1.45092">
        <ele>347.2</ele>
        <time>2014-11-29T12:00:08Z</time>
      </trkpt>
      <trkpt lat="42.23262" lon="-1.45077">
        <ele>346.4</ele>
        <time>2014-11-29T12:00:08Z</time>
      </trkpt>
      <trkpt lat="42.23269" lon="-1.45067">
        <ele>345.9</ele>
        <time>2014-11-29T12:00:08Z</time>
      </trkpt>
      <trkpt lat="42.23277" lon="-1.45052">
        <ele>345.3</ele>
        <time>2014-11-29T12:00:08Z</time>
      </trkpt>
      <trkpt lat="42.23285" lon="-1.45035">
        <ele>344.8</ele>
        <time>2014-11-29T12:00:08Z</time>
      </trkpt>
      <trkpt lat="42.23294" lon="-1.4501">
        <ele>344</ele>
        <time>2014-11-29T12:00:08Z</time>
      </trkpt>
      <trkpt lat="42.233" lon="-1.44989">
        <ele>343.5</ele>
        <time>2014-11-29T12:00:08Z</time>
      </trkpt>
      <trkpt lat="42.23312" lon="-1.44943">
        <ele>342</ele>
        <time>2014-11-29T12:00:08Z</time>
      </trkpt>
      <trkpt lat="42.2332" lon="-1.44923">
        <ele>341.1</ele>
        <time>2014-11-29T12:00:08Z</time>
      </trkpt>
      <trkpt lat="42.23331" lon="-1.449">
        <ele>340</ele>
        <time>2014-11-29T12:00:08Z</time>
      </trkpt>
      <trkpt lat="42.23351" lon="-1.44861">
        <ele>340.3</ele>
        <time>2014-11-29T12:00:08Z</time>
      </trkpt>
      <trkpt lat="42.23358" lon="-1.44854">
        <ele>340.8</ele>
        <time>2014-11-29T12:00:08Z</time>
      </trkpt>
      <trkpt lat="42.23374" lon="-1.44838">
        <ele>342.2</ele>
        <time>2014-11-29T12:00:08Z</time>
      </trkpt>
      <trkpt lat="42.23389" lon="-1.44827">
        <ele>343.8</ele>
        <time>2014-11-29T12:00:08Z</time>
      </trkpt>
      <trkpt lat="42.23401" lon="-1.44818">
        <ele>344.8</ele>
        <time>2014-11-29T12:00:08Z</time>
      </trkpt>
      <trkpt lat="42.2342" lon="-1.448">
        <ele>346</ele>
        <time>2014-11-29T12:00:08Z</time>
      </trkpt>
      <trkpt lat="42.23442" lon="-1.44777">
        <ele>346.4</ele>
        <time>2014-11-29T12:00:08Z</time>
      </trkpt>
      <trkpt lat="42.23456" lon="-1.44764">
        <ele>346.8</ele>
        <time>2014-11-29T12:00:08Z</time>
      </trkpt>
      <trkpt lat="42.23467" lon="-1.44755">
        <ele>347.1</ele>
        <time>2014-11-29T12:00:08Z</time>
      </trkpt>
      <trkpt lat="42.23487" lon="-1.4474">
        <ele>347.7</ele>
        <time>2014-11-29T12:00:08Z</time>
      </trkpt>
      <trkpt lat="42.23501" lon="-1.44729">
        <ele>348</ele>
        <time>2014-11-29T12:00:08Z</time>
      </trkpt>
      <trkpt lat="42.23508" lon="-1.44721">
        <ele>347.9</ele>
        <time>2014-11-29T12:00:08Z</time>
      </trkpt>
      <trkpt lat="42.23516" lon="-1.44714">
        <ele>347.9</ele>
        <time>2014-11-29T12:00:08Z</time>
      </trkpt>
      <trkpt lat="42.2353" lon="-1.44702">
        <ele>347.9</ele>
        <time>2014-11-29T12:00:08Z</time>
      </trkpt>
      <trkpt lat="42.23544" lon="-1.44689">
        <ele>348.1</ele>
        <time>2014-11-29T12:00:08Z</time>
      </trkpt>
      <trkpt lat="42.23554" lon="-1.4468">
        <ele>348.3</ele>
        <time>2014-11-29T12:00:08Z</time>
      </trkpt>
      <trkpt lat="42.23562" lon="-1.44669">
        <ele>348.7</ele>
        <time>2014-11-29T12:00:08Z</time>
      </trkpt>
      <trkpt lat="42.23572" lon="-1.44654">
        <ele>348.6</ele>
        <time>2014-11-29T12:00:08Z</time>
      </trkpt>
      <trkpt lat="42.23578" lon="-1.44638">
        <ele>348.3</ele>
        <time>2014-11-29T12:00:08Z</time>
      </trkpt>
      <trkpt lat="42.23582" lon="-1.4462">
        <ele>347.9</ele>
        <time>2014-11-29T12:00:08Z</time>
      </trkpt>
      <trkpt lat="42.23586" lon="-1.44567">
        <ele>347.3</ele>
        <time>2014-11-29T12:00:08Z</time>
      </trkpt>
      <trkpt lat="42.23588" lon="-1.44536">
        <ele>347.6</ele>
        <time>2014-11-29T12:00:08Z</time>
      </trkpt>
      <trkpt lat="42.23589" lon="-1.44497">
        <ele>348</ele>
        <time>2014-11-29T12:00:08Z</time>
      </trkpt>
      <trkpt lat="42.2359" lon="-1.44468">
        <ele>348.4</ele>
        <time>2014-11-29T12:00:08Z</time>
      </trkpt>
      <trkpt lat="42.2359" lon="-1.44445">
        <ele>348.6</ele>
        <time>2014-11-29T12:00:08Z</time>
      </trkpt>
      <trkpt lat="42.23589" lon="-1.44429">
        <ele>348.8</ele>
        <time>2014-11-29T12:00:08Z</time>
      </trkpt>
      <trkpt lat="42.23584" lon="-1.44405">
        <ele>349.1</ele>
        <time>2014-11-29T12:00:08Z</time>
      </trkpt>
      <trkpt lat="42.23576" lon="-1.44376">
        <ele>349.6</ele>
        <time>2014-11-29T12:00:08Z</time>
      </trkpt>
      <trkpt lat="42.23565" lon="-1.4434">
        <ele>350.1</ele>
        <time>2014-11-29T12:00:08Z</time>
      </trkpt>
      <trkpt lat="42.23562" lon="-1.44323">
        <ele>350.3</ele>
        <time>2014-11-29T12:00:08Z</time>
      </trkpt>
      <trkpt lat="42.23568" lon="-1.443">
        <ele>350.4</ele>
        <time>2014-11-29T12:00:08Z</time>
      </trkpt>
      <trkpt lat="42.236" lon="-1.44218">
        <ele>349.5</ele>
        <time>2014-11-29T12:00:08Z</time>
      </trkpt>
      <trkpt lat="42.23622" lon="-1.44159">
        <ele>348.6</ele>
        <time>2014-11-29T12:00:08Z</time>
      </trkpt>
      <trkpt lat="42.23649" lon="-1.44089">
        <ele>347.6</ele>
        <time>2014-11-29T12:00:08Z</time>
      </trkpt>
      <trkpt lat="42.23661" lon="-1.44058">
        <ele>346.9</ele>
        <time>2014-11-29T12:00:08Z</time>
      </trkpt>
      <trkpt lat="42.23668" lon="-1.44043">
        <ele>346.5</ele>
        <time>2014-11-29T12:00:08Z</time>
      </trkpt>
      <trkpt lat="42.23678" lon="-1.44029">
        <ele>345.9</ele>
        <time>2014-11-29T12:00:08Z</time>
      </trkpt>
      <trkpt lat="42.23704" lon="-1.43996">
        <ele>344.2</ele>
        <time>2014-11-29T12:00:08Z</time>
      </trkpt>
      <trkpt lat="42.23716" lon="-1.43981">
        <ele>343.4</ele>
        <time>2014-11-29T12:00:08Z</time>
      </trkpt>
      <trkpt lat="42.23732" lon="-1.43956">
        <ele>342.6</ele>
        <time>2014-11-29T12:00:08Z</time>
      </trkpt>
      <trkpt lat="42.23752" lon="-1.43926">
        <ele>342</ele>
        <time>2014-11-29T12:00:08Z</time>
      </trkpt>
      <trkpt lat="42.23783" lon="-1.43884">
        <ele>342.6</ele>
        <time>2014-11-29T12:00:08Z</time>
      </trkpt>
      <trkpt lat="42.23796" lon="-1.43872">
        <ele>342.7</ele>
        <time>2014-11-29T12:00:08Z</time>
      </trkpt>
      <trkpt lat="42.2382" lon="-1.43849">
        <ele>342.9</ele>
        <time>2014-11-29T12:00:08Z</time>
      </trkpt>
      <trkpt lat="42.23865" lon="-1.43806">
        <ele>343.6</ele>
        <time>2014-11-29T12:00:08Z</time>
      </trkpt>
      <trkpt lat="42.23894" lon="-1.43771">
        <ele>343.6</ele>
        <time>2014-11-29T12:00:08Z</time>
      </trkpt>
      <trkpt lat="42.23931" lon="-1.43734">
        <ele>342.2</ele>
        <time>2014-11-29T12:00:08Z</time>
      </trkpt>
      <trkpt lat="42.23959" lon="-1.43701">
        <ele>341.1</ele>
        <time>2014-11-29T12:00:08Z</time>
      </trkpt>
      <trkpt lat="42.23993" lon="-1.43664">
        <ele>340.9</ele>
        <time>2014-11-29T12:00:08Z</time>
      </trkpt>
      <trkpt lat="42.24026" lon="-1.43625">
        <ele>340.2</ele>
        <time>2014-11-29T12:00:08Z</time>
      </trkpt>
      <trkpt lat="42.24087" lon="-1.43556">
        <ele>340</ele>
        <time>2014-11-29T12:00:08Z</time>
      </trkpt>
      <trkpt lat="42.24101" lon="-1.43547">
        <ele>340.7</ele>
        <time>2014-11-29T12:00:08Z</time>
      </trkpt>
      <trkpt lat="42.24117" lon="-1.43536">
        <ele>341.2</ele>
        <time>2014-11-29T12:00:08Z</time>
      </trkpt>
      <trkpt lat="42.24133" lon="-1.43528">
        <ele>341.6</ele>
        <time>2014-11-29T12:00:08Z</time>
      </trkpt>
      <trkpt lat="42.24149" lon="-1.43527">
        <ele>341.8</ele>
        <time>2014-11-29T12:00:08Z</time>
      </trkpt>
      <trkpt lat="42.24161" lon="-1.43524">
        <ele>341.9</ele>
        <time>2014-11-29T12:00:08Z</time>
      </trkpt>
      <trkpt lat="42.24178" lon="-1.43525">
        <ele>342</ele>
        <time>2014-11-29T12:00:08Z</time>
      </trkpt>
      <trkpt lat="42.24213" lon="-1.43531">
        <ele>342</ele>
        <time>2014-11-29T12:00:08Z</time>
      </trkpt>
      <trkpt lat="42.24231" lon="-1.43529">
        <ele>342</ele>
        <time>2014-11-29T12:00:08Z</time>
      </trkpt>
      <trkpt lat="42.24255" lon="-1.43514">
        <ele>342</ele>
        <time>2014-11-29T12:00:08Z</time>
      </trkpt>
      <trkpt lat="42.24282" lon="-1.43498">
        <ele>342</ele>
        <time>2014-11-29T12:00:08Z</time>
      </trkpt>
      <trkpt lat="42.2432" lon="-1.43476">
        <ele>342</ele>
        <time>2014-11-29T12:00:08Z</time>
      </trkpt>
      <trkpt lat="42.24367" lon="-1.4345">
        <ele>341.1</ele>
        <time>2014-11-29T12:00:08Z</time>
      </trkpt>
      <trkpt lat="42.244" lon="-1.43431">
        <ele>340.8</ele>
        <time>2014-11-29T12:00:08Z</time>
      </trkpt>
      <trkpt lat="42.2444" lon="-1.43407">
        <ele>341.4</ele>
        <time>2014-11-29T12:00:08Z</time>
      </trkpt>
      <trkpt lat="42.24461" lon="-1.43396">
        <ele>341.9</ele>
        <time>2014-11-29T12:00:08Z</time>
      </trkpt>
      <trkpt lat="42.245" lon="-1.43378">
        <ele>343</ele>
        <time>2014-11-29T12:00:08Z</time>
      </trkpt>
      <trkpt lat="42.24528" lon="-1.43364">
        <ele>344.4</ele>
        <time>2014-11-29T12:00:08Z</time>
      </trkpt>
      <trkpt lat="42.24553" lon="-1.43351">
        <ele>345.4</ele>
        <time>2014-11-29T12:00:08Z</time>
      </trkpt>
      <trkpt lat="42.24567" lon="-1.43343">
        <ele>345.8</ele>
        <time>2014-11-29T12:00:08Z</time>
      </trkpt>
      <trkpt lat="42.24584" lon="-1.43327">
        <ele>345.9</ele>
        <time>2014-11-29T12:00:08Z</time>
      </trkpt>
      <trkpt lat="42.24608" lon="-1.43291">
        <ele>345.4</ele>
        <time>2014-11-29T12:00:08Z</time>
      </trkpt>
      <trkpt lat="42.2463" lon="-1.43256">
        <ele>345.5</ele>
        <time>2014-11-29T12:00:08Z</time>
      </trkpt>
      <trkpt lat="42.24647" lon="-1.43226">
        <ele>346.8</ele>
        <time>2014-11-29T12:00:08Z</time>
      </trkpt>
      <trkpt lat="42.24665" lon="-1.43198">
        <ele>348.4</ele>
        <time>2014-11-29T12:00:08Z</time>
      </trkpt>
      <trkpt lat="42.24675" lon="-1.43181">
        <ele>349.3</ele>
        <time>2014-11-29T12:00:08Z</time>
      </trkpt>
      <trkpt lat="42.24697" lon="-1.43154">
        <ele>350.1</ele>
        <time>2014-11-29T12:00:08Z</time>
      </trkpt>
      <trkpt lat="42.24708" lon="-1.43142">
        <ele>350.3</ele>
        <time>2014-11-29T12:00:08Z</time>
      </trkpt>
      <trkpt lat="42.24718" lon="-1.43133">
        <ele>350.4</ele>
        <time>2014-11-29T12:00:08Z</time>
      </trkpt>
      <trkpt lat="42.24727" lon="-1.4313">
        <ele>350.4</ele>
        <time>2014-11-29T12:00:08Z</time>
      </trkpt>
      <trkpt lat="42.24747" lon="-1.43125">
        <ele>350.5</ele>
        <time>2014-11-29T12:00:08Z</time>
      </trkpt>
      <trkpt lat="42.24769" lon="-1.43123">
        <ele>350.6</ele>
        <time>2014-11-29T12:00:08Z</time>
      </trkpt>
      <trkpt lat="42.24784" lon="-1.43121">
        <ele>350.7</ele>
        <time>2014-11-29T12:00:08Z</time>
      </trkpt>
      <trkpt lat="42.24816" lon="-1.43118">
        <ele>351</ele>
        <time>2014-11-29T12:00:08Z</time>
      </trkpt>
      <trkpt lat="42.24848" lon="-1.43114">
        <ele>351.2</ele>
        <time>2014-11-29T12:00:08Z</time>
      </trkpt>
      <trkpt lat="42.24883" lon="-1.43111">
        <ele>351.3</ele>
        <time>2014-11-29T12:00:08Z</time>
      </trkpt>
      <trkpt lat="42.2491" lon="-1.43109">
        <ele>351.4</ele>
        <time>2014-11-29T12:00:08Z</time>
      </trkpt>
      <trkpt lat="42.2495" lon="-1.43103">
        <ele>353.3</ele>
        <time>2014-11-29T12:00:08Z</time>
      </trkpt>
      <trkpt lat="42.24974" lon="-1.431">
        <ele>354.6</ele>
        <time>2014-11-29T12:00:08Z</time>
      </trkpt>
      <trkpt lat="42.24999" lon="-1.43093">
        <ele>356</ele>
        <time>2014-11-29T12:00:08Z</time>
      </trkpt>
      <trkpt lat="42.25019" lon="-1.43088">
        <ele>356.9</ele>
        <time>2014-11-29T12:00:08Z</time>
      </trkpt>
      <trkpt lat="42.25039" lon="-1.43089">
        <ele>357.9</ele>
        <time>2014-11-29T12:00:08Z</time>
      </trkpt>
      <trkpt lat="42.25056" lon="-1.4309">
        <ele>358.7</ele>
        <time>2014-11-29T12:00:08Z</time>
      </trkpt>
      <trkpt lat="42.25075" lon="-1.43094">
        <ele>359.7</ele>
        <time>2014-11-29T12:00:08Z</time>
      </trkpt>
      <trkpt lat="42.25091" lon="-1.43102">
        <ele>360</ele>
        <time>2014-11-29T12:00:08Z</time>
      </trkpt>
      <trkpt lat="42.25105" lon="-1.43109">
        <ele>359.7</ele>
        <time>2014-11-29T12:00:08Z</time>
      </trkpt>
      <trkpt lat="42.25121" lon="-1.43114">
        <ele>359.3</ele>
        <time>2014-11-29T12:00:08Z</time>
      </trkpt>
      <trkpt lat="42.25137" lon="-1.43115">
        <ele>358.9</ele>
        <time>2014-11-29T12:00:08Z</time>
      </trkpt>
      <trkpt lat="42.25151" lon="-1.43114">
        <ele>358.4</ele>
        <time>2014-11-29T12:00:08Z</time>
      </trkpt>
      <trkpt lat="42.25171" lon="-1.43108">
        <ele>358</ele>
        <time>2014-11-29T12:00:08Z</time>
      </trkpt>
      <trkpt lat="42.2519" lon="-1.43097">
        <ele>358</ele>
        <time>2014-11-29T12:00:08Z</time>
      </trkpt>
      <trkpt lat="42.25201" lon="-1.43086">
        <ele>358</ele>
        <time>2014-11-29T12:00:08Z</time>
      </trkpt>
      <trkpt lat="42.25214" lon="-1.43062">
        <ele>358.1</ele>
        <time>2014-11-29T12:00:08Z</time>
      </trkpt>
      <trkpt lat="42.25222" lon="-1.43035">
        <ele>358.2</ele>
        <time>2014-11-29T12:00:08Z</time>
      </trkpt>
      <trkpt lat="42.25235" lon="-1.43004">
        <ele>358.2</ele>
        <time>2014-11-29T12:00:08Z</time>
      </trkpt>
      <trkpt lat="42.25251" lon="-1.42985">
        <ele>358.8</ele>
        <time>2014-11-29T12:00:08Z</time>
      </trkpt>
      <trkpt lat="42.25265" lon="-1.42977">
        <ele>360</ele>
        <time>2014-11-29T12:00:08Z</time>
      </trkpt>
      <trkpt lat="42.25282" lon="-1.42963">
        <ele>361.7</ele>
        <time>2014-11-29T12:00:08Z</time>
      </trkpt>
      <trkpt lat="42.25303" lon="-1.42946">
        <ele>363.5</ele>
        <time>2014-11-29T12:00:08Z</time>
      </trkpt>
      <trkpt lat="42.25331" lon="-1.42929">
        <ele>365.6</ele>
        <time>2014-11-29T12:00:08Z</time>
      </trkpt>
      <trkpt lat="42.2535" lon="-1.42914">
        <ele>365.9</ele>
        <time>2014-11-29T12:00:08Z</time>
      </trkpt>
      <trkpt lat="42.25358" lon="-1.42898">
        <ele>365.3</ele>
        <time>2014-11-29T12:00:08Z</time>
      </trkpt>
      <trkpt lat="42.25364" lon="-1.42878">
        <ele>364.5</ele>
        <time>2014-11-29T12:00:08Z</time>
      </trkpt>
      <trkpt lat="42.25363" lon="-1.42864">
        <ele>363.9</ele>
        <time>2014-11-29T12:00:08Z</time>
      </trkpt>
      <trkpt lat="42.25358" lon="-1.42853">
        <ele>363.4</ele>
        <time>2014-11-29T12:00:08Z</time>
      </trkpt>
      <trkpt lat="42.25345" lon="-1.42832">
        <ele>362.3</ele>
        <time>2014-11-29T12:00:08Z</time>
      </trkpt>
      <trkpt lat="42.25339" lon="-1.42819">
        <ele>362.1</ele>
        <time>2014-11-29T12:00:08Z</time>
      </trkpt>
      <trkpt lat="42.25327" lon="-1.42793">
        <ele>362.1</ele>
        <time>2014-11-29T12:00:08Z</time>
      </trkpt>
      <trkpt lat="42.25314" lon="-1.42764">
        <ele>362.3</ele>
        <time>2014-11-29T12:00:08Z</time>
      </trkpt>
      <trkpt lat="42.25309" lon="-1.42746">
        <ele>362.3</ele>
        <time>2014-11-29T12:00:08Z</time>
      </trkpt>
      <trkpt lat="42.25307" lon="-1.42726">
        <ele>362</ele>
        <time>2014-11-29T12:00:08Z</time>
      </trkpt>
      <trkpt lat="42.25299" lon="-1.42691">
        <ele>361.7</ele>
        <time>2014-11-29T12:00:08Z</time>
      </trkpt>
      <trkpt lat="42.25292" lon="-1.42662">
        <ele>361.5</ele>
        <time>2014-11-29T12:00:08Z</time>
      </trkpt>
      <trkpt lat="42.25282" lon="-1.42631">
        <ele>361.9</ele>
        <time>2014-11-29T12:00:08Z</time>
      </trkpt>
      <trkpt lat="42.2527" lon="-1.42596">
        <ele>362.4</ele>
        <time>2014-11-29T12:00:08Z</time>
      </trkpt>
      <trkpt lat="42.25262" lon="-1.42566">
        <ele>362.2</ele>
        <time>2014-11-29T12:00:08Z</time>
      </trkpt>
      <trkpt lat="42.25254" lon="-1.42531">
        <ele>361.1</ele>
        <time>2014-11-29T12:00:08Z</time>
      </trkpt>
      <trkpt lat="42.25251" lon="-1.42502">
        <ele>360.1</ele>
        <time>2014-11-29T12:00:08Z</time>
      </trkpt>
      <trkpt lat="42.25245" lon="-1.42458">
        <ele>361.2</ele>
        <time>2014-11-29T12:00:08Z</time>
      </trkpt>
      <trkpt lat="42.25242" lon="-1.42424">
        <ele>362.1</ele>
        <time>2014-11-29T12:00:08Z</time>
      </trkpt>
      <trkpt lat="42.25242" lon="-1.42403">
        <ele>362.6</ele>
        <time>2014-11-29T12:00:08Z</time>
      </trkpt>
      <trkpt lat="42.25246" lon="-1.42365">
        <ele>363.3</ele>
        <time>2014-11-29T12:00:08Z</time>
      </trkpt>
      <trkpt lat="42.25247" lon="-1.42345">
        <ele>363.8</ele>
        <time>2014-11-29T12:00:08Z</time>
      </trkpt>
      <trkpt lat="42.25247" lon="-1.42319">
        <ele>364.3</ele>
        <time>2014-11-29T12:00:08Z</time>
      </trkpt>
      <trkpt lat="42.25245" lon="-1.42287">
        <ele>365.1</ele>
        <time>2014-11-29T12:00:08Z</time>
      </trkpt>
      <trkpt lat="42.2524" lon="-1.42254">
        <ele>365.8</ele>
        <time>2014-11-29T12:00:08Z</time>
      </trkpt>
      <trkpt lat="42.25229" lon="-1.42211">
        <ele>365.5</ele>
        <time>2014-11-29T12:00:08Z</time>
      </trkpt>
      <trkpt lat="42.25225" lon="-1.42182">
        <ele>365.4</ele>
        <time>2014-11-29T12:00:08Z</time>
      </trkpt>
      <trkpt lat="42.25221" lon="-1.42147">
        <ele>365.3</ele>
        <time>2014-11-29T12:00:08Z</time>
      </trkpt>
      <trkpt lat="42.25223" lon="-1.42125">
        <ele>365.3</ele>
        <time>2014-11-29T12:00:08Z</time>
      </trkpt>
      <trkpt lat="42.2522" lon="-1.42094">
        <ele>365.4</ele>
        <time>2014-11-29T12:00:08Z</time>
      </trkpt>
      <trkpt lat="42.25217" lon="-1.42081">
        <ele>365.4</ele>
        <time>2014-11-29T12:00:08Z</time>
      </trkpt>
      <trkpt lat="42.2521" lon="-1.42058">
        <ele>365.3</ele>
        <time>2014-11-29T12:00:08Z</time>
      </trkpt>
      <trkpt lat="42.25197" lon="-1.42037">
        <ele>365.3</ele>
        <time>2014-11-29T12:00:08Z</time>
      </trkpt>
      <trkpt lat="42.25181" lon="-1.42">
        <ele>365</ele>
        <time>2014-11-29T12:00:08Z</time>
      </trkpt>
      <trkpt lat="42.25178" lon="-1.41977">
        <ele>365</ele>
        <time>2014-11-29T12:00:08Z</time>
      </trkpt>
      <trkpt lat="42.25178" lon="-1.41955">
        <ele>365</ele>
        <time>2014-11-29T12:00:08Z</time>
      </trkpt>
      <trkpt lat="42.25181" lon="-1.41898">
        <ele>365.1</ele>
        <time>2014-11-29T12:00:08Z</time>
      </trkpt>
      <trkpt lat="42.25188" lon="-1.41886">
        <ele>365.1</ele>
        <time>2014-11-29T12:00:08Z</time>
      </trkpt>
      <trkpt lat="42.252" lon="-1.41869">
        <ele>364.9</ele>
        <time>2014-11-29T12:00:08Z</time>
      </trkpt>
      <trkpt lat="42.25225" lon="-1.41835">
        <ele>363.9</ele>
        <time>2014-11-29T12:00:08Z</time>
      </trkpt>
      <trkpt lat="42.25234" lon="-1.41823">
        <ele>363.5</ele>
        <time>2014-11-29T12:00:08Z</time>
      </trkpt>
      <trkpt lat="42.2524" lon="-1.41812">
        <ele>363.2</ele>
        <time>2014-11-29T12:00:08Z</time>
      </trkpt>
      <trkpt lat="42.25245" lon="-1.418">
        <ele>362.9</ele>
        <time>2014-11-29T12:00:08Z</time>
      </trkpt>
      <trkpt lat="42.25246" lon="-1.41791">
        <ele>362.7</ele>
        <time>2014-11-29T12:00:08Z</time>
      </trkpt>
      <trkpt lat="42.25254" lon="-1.41783">
        <ele>362.4</ele>
        <time>2014-11-29T12:00:08Z</time>
      </trkpt>
      <trkpt lat="42.2529" lon="-1.41747">
        <ele>361.6</ele>
        <time>2014-11-29T12:00:08Z</time>
      </trkpt>
      <trkpt lat="42.25309" lon="-1.41728">
        <ele>361.8</ele>
        <time>2014-11-29T12:00:08Z</time>
      </trkpt>
      <trkpt lat="42.2532" lon="-1.41713">
        <ele>361.8</ele>
        <time>2014-11-29T12:00:08Z</time>
      </trkpt>
      <trkpt lat="42.25331" lon="-1.41694">
        <ele>361.7</ele>
        <time>2014-11-29T12:00:08Z</time>
      </trkpt>
      <trkpt lat="42.25359" lon="-1.41646">
        <ele>363.6</ele>
        <time>2014-11-29T12:00:08Z</time>
      </trkpt>
      <trkpt lat="42.25375" lon="-1.4162">
        <ele>364.3</ele>
        <time>2014-11-29T12:00:08Z</time>
      </trkpt>
      <trkpt lat="42.25381" lon="-1.41614">
        <ele>364.4</ele>
        <time>2014-11-29T12:00:08Z</time>
      </trkpt>
      <trkpt lat="42.25404" lon="-1.41597">
        <ele>364.4</ele>
        <time>2014-11-29T12:00:08Z</time>
      </trkpt>
      <trkpt lat="42.25434" lon="-1.41577">
        <ele>365.6</ele>
        <time>2014-11-29T12:00:08Z</time>
      </trkpt>
      <trkpt lat="42.25459" lon="-1.4156">
        <ele>368.1</ele>
        <time>2014-11-29T12:00:08Z</time>
      </trkpt>
      <trkpt lat="42.25484" lon="-1.41541">
        <ele>370.1</ele>
        <time>2014-11-29T12:00:08Z</time>
      </trkpt>
      <trkpt lat="42.25501" lon="-1.41524">
        <ele>371.5</ele>
        <time>2014-11-29T12:00:08Z</time>
      </trkpt>
      <trkpt lat="42.25509" lon="-1.41515">
        <ele>372.4</ele>
        <time>2014-11-29T12:00:08Z</time>
      </trkpt>
      <trkpt lat="42.25518" lon="-1.41517">
        <ele>373.1</ele>
        <time>2014-11-29T12:00:08Z</time>
      </trkpt>
      <trkpt lat="42.25523" lon="-1.4152">
        <ele>373.4</ele>
        <time>2014-11-29T12:00:08Z</time>
      </trkpt>
      <trkpt lat="42.25527" lon="-1.41537">
        <ele>373.2</ele>
        <time>2014-11-29T12:00:08Z</time>
      </trkpt>
      <trkpt lat="42.25532" lon="-1.41554">
        <ele>373.2</ele>
        <time>2014-11-29T12:00:08Z</time>
      </trkpt>
      <trkpt lat="42.25542" lon="-1.41565">
        <ele>373.6</ele>
        <time>2014-11-29T12:00:08Z</time>
      </trkpt>
      <trkpt lat="42.25562" lon="-1.41581">
        <ele>374.5</ele>
        <time>2014-11-29T12:00:08Z</time>
      </trkpt>
      <trkpt lat="42.25576" lon="-1.41601">
        <ele>374.8</ele>
        <time>2014-11-29T12:00:08Z</time>
      </trkpt>
      <trkpt lat="42.25588" lon="-1.4162">
        <ele>374.9</ele>
        <time>2014-11-29T12:00:08Z</time>
      </trkpt>
      <trkpt lat="42.25609" lon="-1.41652">
        <ele>374.6</ele>
        <time>2014-11-29T12:00:08Z</time>
      </trkpt>
      <trkpt lat="42.25621" lon="-1.4167">
        <ele>374.2</ele>
        <time>2014-11-29T12:00:08Z</time>
      </trkpt>
      <trkpt lat="42.25667" lon="-1.41736">
        <ele>371.8</ele>
        <time>2014-11-29T12:00:08Z</time>
      </trkpt>
      <trkpt lat="42.25685" lon="-1.41765">
        <ele>369.9</ele>
        <time>2014-11-29T12:00:08Z</time>
      </trkpt>
      <trkpt lat="42.25704" lon="-1.41793">
        <ele>368.7</ele>
        <time>2014-11-29T12:00:08Z</time>
      </trkpt>
      <trkpt lat="42.25724" lon="-1.41823">
        <ele>367.9</ele>
        <time>2014-11-29T12:00:08Z</time>
      </trkpt>
      <trkpt lat="42.25735" lon="-1.41831">
        <ele>367.8</ele>
        <time>2014-11-29T12:00:08Z</time>
      </trkpt>
      <trkpt lat="42.25748" lon="-1.41837">
        <ele>367.8</ele>
        <time>2014-11-29T12:00:08Z</time>
      </trkpt>
      <trkpt lat="42.25767" lon="-1.41842">
        <ele>367.5</ele>
        <time>2014-11-29T12:00:08Z</time>
      </trkpt>
      <trkpt lat="42.25813" lon="-1.41853">
        <ele>366.5</ele>
        <time>2014-11-29T12:00:08Z</time>
      </trkpt>
      <trkpt lat="42.25851" lon="-1.4186">
        <ele>365.7</ele>
        <time>2014-11-29T12:00:08Z</time>
      </trkpt>
      <trkpt lat="42.25881" lon="-1.41867">
        <ele>364.9</ele>
        <time>2014-11-29T12:00:08Z</time>
      </trkpt>
      <trkpt lat="42.25903" lon="-1.41873">
        <ele>364.3</ele>
        <time>2014-11-29T12:00:08Z</time>
      </trkpt>
      <trkpt lat="42.25916" lon="-1.41875">
        <ele>364</ele>
        <time>2014-11-29T12:00:08Z</time>
      </trkpt>
      <trkpt lat="42.25941" lon="-1.41877">
        <ele>364.5</ele>
        <time>2014-11-29T12:00:08Z</time>
      </trkpt>
      <trkpt lat="42.25971" lon="-1.4188">
        <ele>365.3</ele>
        <time>2014-11-29T12:00:08Z</time>
      </trkpt>
      <trkpt lat="42.26005" lon="-1.41881">
        <ele>365.9</ele>
        <time>2014-11-29T12:00:08Z</time>
      </trkpt>
      <trkpt lat="42.26037" lon="-1.41885">
        <ele>365.3</ele>
        <time>2014-11-29T12:00:08Z</time>
      </trkpt>
      <trkpt lat="42.26072" lon="-1.41886">
        <ele>364.6</ele>
        <time>2014-11-29T12:00:08Z</time>
      </trkpt>
      <trkpt lat="42.26084" lon="-1.41888">
        <ele>364.3</ele>
        <time>2014-11-29T12:00:08Z</time>
      </trkpt>
      <trkpt lat="42.26113" lon="-1.41889">
        <ele>364.1</ele>
        <time>2014-11-29T12:00:08Z</time>
      </trkpt>
      <trkpt lat="42.26137" lon="-1.41893">
        <ele>363.8</ele>
        <time>2014-11-29T12:00:08Z</time>
      </trkpt>
      <trkpt lat="42.26156" lon="-1.41897">
        <ele>363.6</ele>
        <time>2014-11-29T12:00:08Z</time>
      </trkpt>
      <trkpt lat="42.26166" lon="-1.419">
        <ele>363.4</ele>
        <time>2014-11-29T12:00:08Z</time>
      </trkpt>
      <trkpt lat="42.26182" lon="-1.41899">
        <ele>363.7</ele>
        <time>2014-11-29T12:00:08Z</time>
      </trkpt>
      <trkpt lat="42.26201" lon="-1.41895">
        <ele>364.2</ele>
        <time>2014-11-29T12:00:08Z</time>
      </trkpt>
      <trkpt lat="42.26225" lon="-1.41888">
        <ele>364.9</ele>
        <time>2014-11-29T12:00:08Z</time>
      </trkpt>
      <trkpt lat="42.2626" lon="-1.41879">
        <ele>365.3</ele>
        <time>2014-11-29T12:00:08Z</time>
      </trkpt>
      <trkpt lat="42.2629" lon="-1.41872">
        <ele>365.1</ele>
        <time>2014-11-29T12:00:08Z</time>
      </trkpt>
      <trkpt lat="42.26315" lon="-1.41866">
        <ele>365</ele>
        <time>2014-11-29T12:00:08Z</time>
      </trkpt>
      <trkpt lat="42.26333" lon="-1.4186">
        <ele>365</ele>
        <time>2014-11-29T12:00:08Z</time>
      </trkpt>
      <trkpt lat="42.26348" lon="-1.41858">
        <ele>365.3</ele>
        <time>2014-11-29T12:00:08Z</time>
      </trkpt>
      <trkpt lat="42.26379" lon="-1.41854">
        <ele>365.9</ele>
        <time>2014-11-29T12:00:08Z</time>
      </trkpt>
      <trkpt lat="42.26403" lon="-1.41854">
        <ele>366.3</ele>
        <time>2014-11-29T12:00:08Z</time>
      </trkpt>
      <trkpt lat="42.26432" lon="-1.41851">
        <ele>366.6</ele>
        <time>2014-11-29T12:00:08Z</time>
      </trkpt>
      <trkpt lat="42.26472" lon="-1.41847">
        <ele>366.7</ele>
        <time>2014-11-29T12:00:08Z</time>
      </trkpt>
      <trkpt lat="42.26513" lon="-1.41847">
        <ele>365.7</ele>
        <time>2014-11-29T12:00:08Z</time>
      </trkpt>
      <trkpt lat="42.26531" lon="-1.41856">
        <ele>364.4</ele>
        <time>2014-11-29T12:00:08Z</time>
      </trkpt>
      <trkpt lat="42.26547" lon="-1.41867">
        <ele>363.2</ele>
        <time>2014-11-29T12:00:08Z</time>
      </trkpt>
      <trkpt lat="42.2656" lon="-1.41871">
        <ele>362.4</ele>
        <time>2014-11-29T12:00:08Z</time>
      </trkpt>
      <trkpt lat="42.26584" lon="-1.41875">
        <ele>360.9</ele>
        <time>2014-11-29T12:00:08Z</time>
      </trkpt>
      <trkpt lat="42.26608" lon="-1.41878">
        <ele>360.2</ele>
        <time>2014-11-29T12:00:08Z</time>
      </trkpt>
      <trkpt lat="42.26643" lon="-1.41881">
        <ele>359.2</ele>
        <time>2014-11-29T12:00:08Z</time>
      </trkpt>
      <trkpt lat="42.26664" lon="-1.41878">
        <ele>358.6</ele>
        <time>2014-11-29T12:00:08Z</time>
      </trkpt>
      <trkpt lat="42.26694" lon="-1.41865">
        <ele>357.4</ele>
        <time>2014-11-29T12:00:08Z</time>
      </trkpt>
      <trkpt lat="42.26711" lon="-1.41851">
        <ele>356.6</ele>
        <time>2014-11-29T12:00:08Z</time>
      </trkpt>
      <trkpt lat="42.26726" lon="-1.41823">
        <ele>356.1</ele>
        <time>2014-11-29T12:00:08Z</time>
      </trkpt>
      <trkpt lat="42.26756" lon="-1.41782">
        <ele>356.3</ele>
        <time>2014-11-29T12:00:08Z</time>
      </trkpt>
      <trkpt lat="42.26772" lon="-1.41763">
        <ele>357</ele>
        <time>2014-11-29T12:00:08Z</time>
      </trkpt>
      <trkpt lat="42.26784" lon="-1.41756">
        <ele>357.3</ele>
        <time>2014-11-29T12:00:08Z</time>
      </trkpt>
      <trkpt lat="42.26799" lon="-1.41747">
        <ele>357.6</ele>
        <time>2014-11-29T12:00:08Z</time>
      </trkpt>
      <trkpt lat="42.26836" lon="-1.41723">
        <ele>358.1</ele>
        <time>2014-11-29T12:00:08Z</time>
      </trkpt>
      <trkpt lat="42.26864" lon="-1.41709">
        <ele>358.7</ele>
        <time>2014-11-29T12:00:08Z</time>
      </trkpt>
      <trkpt lat="42.26883" lon="-1.41697">
        <ele>359</ele>
        <time>2014-11-29T12:00:08Z</time>
      </trkpt>
      <trkpt lat="42.26903" lon="-1.41686">
        <ele>359.2</ele>
        <time>2014-11-29T12:00:08Z</time>
      </trkpt>
      <trkpt lat="42.26922" lon="-1.41677">
        <ele>359.6</ele>
        <time>2014-11-29T12:00:08Z</time>
      </trkpt>
      <trkpt lat="42.26944" lon="-1.41673">
        <ele>360.8</ele>
        <time>2014-11-29T12:00:08Z</time>
      </trkpt>
      <trkpt lat="42.26964" lon="-1.41671">
        <ele>361.9</ele>
        <time>2014-11-29T12:00:08Z</time>
      </trkpt>
      <trkpt lat="42.26987" lon="-1.41668">
        <ele>363.3</ele>
        <time>2014-11-29T12:00:08Z</time>
      </trkpt>
      <trkpt lat="42.27016" lon="-1.41669">
        <ele>364.4</ele>
        <time>2014-11-29T12:00:08Z</time>
      </trkpt>
      <trkpt lat="42.27034" lon="-1.41668">
        <ele>364.8</ele>
        <time>2014-11-29T12:00:08Z</time>
      </trkpt>
      <trkpt lat="42.27054" lon="-1.4167">
        <ele>365.3</ele>
        <time>2014-11-29T12:00:08Z</time>
      </trkpt>
      <trkpt lat="42.27079" lon="-1.41676">
        <ele>366</ele>
        <time>2014-11-29T12:00:08Z</time>
      </trkpt>
      <trkpt lat="42.27099" lon="-1.41678">
        <ele>366.9</ele>
        <time>2014-11-29T12:00:08Z</time>
      </trkpt>
      <trkpt lat="42.27116" lon="-1.41682">
        <ele>367.6</ele>
        <time>2014-11-29T12:00:08Z</time>
      </trkpt>
      <trkpt lat="42.27142" lon="-1.41691">
        <ele>368.7</ele>
        <time>2014-11-29T12:00:08Z</time>
      </trkpt>
      <trkpt lat="42.27158" lon="-1.41693">
        <ele>369.3</ele>
        <time>2014-11-29T12:00:08Z</time>
      </trkpt>
      <trkpt lat="42.27174" lon="-1.41691">
        <ele>370</ele>
        <time>2014-11-29T12:00:08Z</time>
      </trkpt>
      <trkpt lat="42.27187" lon="-1.41684">
        <ele>370.6</ele>
        <time>2014-11-29T12:00:08Z</time>
      </trkpt>
      <trkpt lat="42.27202" lon="-1.41669">
        <ele>371.3</ele>
        <time>2014-11-29T12:00:08Z</time>
      </trkpt>
      <trkpt lat="42.27218" lon="-1.41655">
        <ele>372.1</ele>
        <time>2014-11-29T12:00:08Z</time>
      </trkpt>
      <trkpt lat="42.2725" lon="-1.41638">
        <ele>373.7</ele>
        <time>2014-11-29T12:00:08Z</time>
      </trkpt>
      <trkpt lat="42.27264" lon="-1.41633">
        <ele>373.9</ele>
        <time>2014-11-29T12:00:08Z</time>
      </trkpt>
      <trkpt lat="42.27277" lon="-1.41633">
        <ele>374.1</ele>
        <time>2014-11-29T12:00:08Z</time>
      </trkpt>
      <trkpt lat="42.27296" lon="-1.41639">
        <ele>374.2</ele>
        <time>2014-11-29T12:00:08Z</time>
      </trkpt>
      <trkpt lat="42.27316" lon="-1.41642">
        <ele>374.5</ele>
        <time>2014-11-29T12:00:08Z</time>
      </trkpt>
      <trkpt lat="42.27331" lon="-1.41639">
        <ele>374.6</ele>
        <time>2014-11-29T12:00:08Z</time>
      </trkpt>
      <trkpt lat="42.27341" lon="-1.41631">
        <ele>374.1</ele>
        <time>2014-11-29T12:00:08Z</time>
      </trkpt>
      <trkpt lat="42.27354" lon="-1.41617">
        <ele>373.2</ele>
        <time>2014-11-29T12:00:08Z</time>
      </trkpt>
      <trkpt lat="42.27367" lon="-1.41602">
        <ele>372.4</ele>
        <time>2014-11-29T12:00:08Z</time>
      </trkpt>
      <trkpt lat="42.27382" lon="-1.41587">
        <ele>371.7</ele>
        <time>2014-11-29T12:00:08Z</time>
      </trkpt>
      <trkpt lat="42.27393" lon="-1.41581">
        <ele>371.1</ele>
        <time>2014-11-29T12:00:08Z</time>
      </trkpt>
      <trkpt lat="42.27409" lon="-1.41581">
        <ele>370.4</ele>
        <time>2014-11-29T12:00:08Z</time>
      </trkpt>
      <trkpt lat="42.27434" lon="-1.41576">
        <ele>370.1</ele>
        <time>2014-11-29T12:00:08Z</time>
      </trkpt>
      <trkpt lat="42.27454" lon="-1.41574">
        <ele>370.1</ele>
        <time>2014-11-29T12:00:08Z</time>
      </trkpt>
      <trkpt lat="42.2748" lon="-1.41569">
        <ele>370.2</ele>
        <time>2014-11-29T12:00:08Z</time>
      </trkpt>
      <trkpt lat="42.27501" lon="-1.41565">
        <ele>370.2</ele>
        <time>2014-11-29T12:00:08Z</time>
      </trkpt>
      <trkpt lat="42.27528" lon="-1.41561">
        <ele>370.4</ele>
        <time>2014-11-29T12:00:08Z</time>
      </trkpt>
      <trkpt lat="42.27558" lon="-1.41557">
        <ele>370.5</ele>
        <time>2014-11-29T12:00:08Z</time>
      </trkpt>
      <trkpt lat="42.27594" lon="-1.41552">
        <ele>370.7</ele>
        <time>2014-11-29T12:00:08Z</time>
      </trkpt>
      <trkpt lat="42.27625" lon="-1.41544">
        <ele>370.5</ele>
        <time>2014-11-29T12:00:08Z</time>
      </trkpt>
      <trkpt lat="42.27654" lon="-1.41538">
        <ele>370.2</ele>
        <time>2014-11-29T12:00:08Z</time>
      </trkpt>
      <trkpt lat="42.27691" lon="-1.41531">
        <ele>369.9</ele>
        <time>2014-11-29T12:00:08Z</time>
      </trkpt>
      <trkpt lat="42.27709" lon="-1.41533">
        <ele>369.8</ele>
        <time>2014-11-29T12:00:08Z</time>
      </trkpt>
      <trkpt lat="42.27738" lon="-1.41545">
        <ele>369.5</ele>
        <time>2014-11-29T12:00:08Z</time>
      </trkpt>
      <trkpt lat="42.2777" lon="-1.41557">
        <ele>369.7</ele>
        <time>2014-11-29T12:00:08Z</time>
      </trkpt>
      <trkpt lat="42.278" lon="-1.41567">
        <ele>370</ele>
        <time>2014-11-29T12:00:08Z</time>
      </trkpt>
      <trkpt lat="42.27817" lon="-1.41576">
        <ele>370</ele>
        <time>2014-11-29T12:00:08Z</time>
      </trkpt>
      <trkpt lat="42.27843" lon="-1.41574">
        <ele>371</ele>
        <time>2014-11-29T12:00:08Z</time>
      </trkpt>
      <trkpt lat="42.27873" lon="-1.41578">
        <ele>372.9</ele>
        <time>2014-11-29T12:00:08Z</time>
      </trkpt>
      <trkpt lat="42.27924" lon="-1.41582">
        <ele>376.2</ele>
        <time>2014-11-29T12:00:08Z</time>
      </trkpt>
      <trkpt lat="42.27973" lon="-1.41585">
        <ele>377.4</ele>
        <time>2014-11-29T12:00:08Z</time>
      </trkpt>
      <trkpt lat="42.28015" lon="-1.41589">
        <ele>378.6</ele>
        <time>2014-11-29T12:00:08Z</time>
      </trkpt>
      <trkpt lat="42.28066" lon="-1.41597">
        <ele>380</ele>
        <time>2014-11-29T12:00:08Z</time>
      </trkpt>
      <trkpt lat="42.28078" lon="-1.41602">
        <ele>380.2</ele>
        <time>2014-11-29T12:00:08Z</time>
      </trkpt>
      <trkpt lat="42.28115" lon="-1.4161">
        <ele>380.3</ele>
        <time>2014-11-29T12:00:08Z</time>
      </trkpt>
      <trkpt lat="42.28144" lon="-1.41616">
        <ele>380.3</ele>
        <time>2014-11-29T12:00:08Z</time>
      </trkpt>
      <trkpt lat="42.28181" lon="-1.4162">
        <ele>380</ele>
        <time>2014-11-29T12:00:08Z</time>
      </trkpt>
      <trkpt lat="42.28202" lon="-1.41624">
        <ele>379.6</ele>
        <time>2014-11-29T12:00:08Z</time>
      </trkpt>
      <trkpt lat="42.28229" lon="-1.41627">
        <ele>379.2</ele>
        <time>2014-11-29T12:00:08Z</time>
      </trkpt>
      <trkpt lat="42.28272" lon="-1.41642">
        <ele>378.4</ele>
        <time>2014-11-29T12:00:08Z</time>
      </trkpt>
      <trkpt lat="42.28289" lon="-1.41653">
        <ele>378.1</ele>
        <time>2014-11-29T12:00:08Z</time>
      </trkpt>
      <trkpt lat="42.28316" lon="-1.41669">
        <ele>377.7</ele>
        <time>2014-11-29T12:00:08Z</time>
      </trkpt>
      <trkpt lat="42.28336" lon="-1.41684">
        <ele>377.9</ele>
        <time>2014-11-29T12:00:08Z</time>
      </trkpt>
      <trkpt lat="42.28347" lon="-1.41691">
        <ele>378.7</ele>
        <time>2014-11-29T12:00:08Z</time>
      </trkpt>
      <trkpt lat="42.28364" lon="-1.41696">
        <ele>380.3</ele>
        <time>2014-11-29T12:00:08Z</time>
      </trkpt>
      <trkpt lat="42.28375" lon="-1.41699">
        <ele>381.2</ele>
        <time>2014-11-29T12:00:08Z</time>
      </trkpt>
      <trkpt lat="42.28392" lon="-1.41703">
        <ele>382.8</ele>
        <time>2014-11-29T12:00:08Z</time>
      </trkpt>
      <trkpt lat="42.28406" lon="-1.41704">
        <ele>384.1</ele>
        <time>2014-11-29T12:00:08Z</time>
      </trkpt>
      <trkpt lat="42.28418" lon="-1.41701">
        <ele>385.2</ele>
        <time>2014-11-29T12:00:08Z</time>
      </trkpt>
      <trkpt lat="42.28428" lon="-1.41707">
        <ele>385.5</ele>
        <time>2014-11-29T12:00:08Z</time>
      </trkpt>
      <trkpt lat="42.28442" lon="-1.4172">
        <ele>385.8</ele>
        <time>2014-11-29T12:00:08Z</time>
      </trkpt>
      <trkpt lat="42.28474" lon="-1.41743">
        <ele>386.3</ele>
        <time>2014-11-29T12:00:08Z</time>
      </trkpt>
      <trkpt lat="42.28492" lon="-1.41754">
        <ele>386.6</ele>
        <time>2014-11-29T12:00:08Z</time>
      </trkpt>
      <trkpt lat="42.28508" lon="-1.4177">
        <ele>386.5</ele>
        <time>2014-11-29T12:00:08Z</time>
      </trkpt>
      <trkpt lat="42.28517" lon="-1.41778">
        <ele>386.1</ele>
        <time>2014-11-29T12:00:08Z</time>
      </trkpt>
      <trkpt lat="42.28534" lon="-1.41783">
        <ele>385.6</ele>
        <time>2014-11-29T12:00:08Z</time>
      </trkpt>
      <trkpt lat="42.28575" lon="-1.4179">
        <ele>384.2</ele>
        <time>2014-11-29T12:00:08Z</time>
      </trkpt>
      <trkpt lat="42.28623" lon="-1.41785">
        <ele>383.8</ele>
        <time>2014-11-29T12:00:08Z</time>
      </trkpt>
      <trkpt lat="42.28671" lon="-1.41781">
        <ele>383.6</ele>
        <time>2014-11-29T12:00:08Z</time>
      </trkpt>
      <trkpt lat="42.28713" lon="-1.41777">
        <ele>382.9</ele>
        <time>2014-11-29T12:00:08Z</time>
      </trkpt>
      <trkpt lat="42.28778" lon="-1.41768">
        <ele>383</ele>
        <time>2014-11-29T12:00:08Z</time>
      </trkpt>
      <trkpt lat="42.28837" lon="-1.41759">
        <ele>383.9</ele>
        <time>2014-11-29T12:00:08Z</time>
      </trkpt>
      <trkpt lat="42.28895" lon="-1.4175">
        <ele>384.7</ele>
        <time>2014-11-29T12:00:08Z</time>
      </trkpt>
      <trkpt lat="42.28932" lon="-1.41744">
        <ele>385.7</ele>
        <time>2014-11-29T12:00:08Z</time>
      </trkpt>
      <trkpt lat="42.28957" lon="-1.41742">
        <ele>386.4</ele>
        <time>2014-11-29T12:00:08Z</time>
      </trkpt>
      <trkpt lat="42.28969" lon="-1.41745">
        <ele>386.5</ele>
        <time>2014-11-29T12:00:08Z</time>
      </trkpt>
      <trkpt lat="42.29026" lon="-1.4177">
        <ele>387.1</ele>
        <time>2014-11-29T12:00:08Z</time>
      </trkpt>
      <trkpt lat="42.2908" lon="-1.41796">
        <ele>388.1</ele>
        <time>2014-11-29T12:00:08Z</time>
      </trkpt>
      <trkpt lat="42.29146" lon="-1.41822">
        <ele>388.8</ele>
        <time>2014-11-29T12:00:08Z</time>
      </trkpt>
      <trkpt lat="42.29168" lon="-1.4183">
        <ele>389.1</ele>
        <time>2014-11-29T12:00:08Z</time>
      </trkpt>
      <trkpt lat="42.2919" lon="-1.41832">
        <ele>388.4</ele>
        <time>2014-11-29T12:00:08Z</time>
      </trkpt>
      <trkpt lat="42.29203" lon="-1.41831">
        <ele>388.2</ele>
        <time>2014-11-29T12:00:08Z</time>
      </trkpt>
      <trkpt lat="42.29233" lon="-1.41824">
        <ele>387.8</ele>
        <time>2014-11-29T12:00:08Z</time>
      </trkpt>
      <trkpt lat="42.29274" lon="-1.41818">
        <ele>387.4</ele>
        <time>2014-11-29T12:00:08Z</time>
      </trkpt>
      <trkpt lat="42.29288" lon="-1.41817">
        <ele>387.2</ele>
        <time>2014-11-29T12:00:08Z</time>
      </trkpt>
      <trkpt lat="42.293" lon="-1.41829">
        <ele>386.1</ele>
        <time>2014-11-29T12:00:08Z</time>
      </trkpt>
      <trkpt lat="42.29318" lon="-1.41863">
        <ele>384.9</ele>
        <time>2014-11-29T12:00:08Z</time>
      </trkpt>
      <trkpt lat="42.29354" lon="-1.41921">
        <ele>384.9</ele>
        <time>2014-11-29T12:00:08Z</time>
      </trkpt>
      <trkpt lat="42.29368" lon="-1.41947">
        <ele>385.6</ele>
        <time>2014-11-29T12:00:08Z</time>
      </trkpt>
      <trkpt lat="42.29374" lon="-1.41964">
        <ele>385.9</ele>
        <time>2014-11-29T12:00:08Z</time>
      </trkpt>
      <trkpt lat="42.2938" lon="-1.41974">
        <ele>386.3</ele>
        <time>2014-11-29T12:00:08Z</time>
      </trkpt>
      <trkpt lat="42.29394" lon="-1.41984">
        <ele>387.3</ele>
        <time>2014-11-29T12:00:08Z</time>
      </trkpt>
      <trkpt lat="42.29418" lon="-1.42014">
        <ele>388.8</ele>
        <time>2014-11-29T12:00:08Z</time>
      </trkpt>
      <trkpt lat="42.2944" lon="-1.42044">
        <ele>388.9</ele>
        <time>2014-11-29T12:00:08Z</time>
      </trkpt>
      <trkpt lat="42.29468" lon="-1.42065">
        <ele>388.7</ele>
        <time>2014-11-29T12:00:08Z</time>
      </trkpt>
      <trkpt lat="42.29511" lon="-1.4209">
        <ele>387.9</ele>
        <time>2014-11-29T12:00:08Z</time>
      </trkpt>
      <trkpt lat="42.29533" lon="-1.42106">
        <ele>387.6</ele>
        <time>2014-11-29T12:00:08Z</time>
      </trkpt>
      <trkpt lat="42.29541" lon="-1.42111">
        <ele>387.4</ele>
        <time>2014-11-29T12:00:08Z</time>
      </trkpt>
      <trkpt lat="42.29569" lon="-1.42117">
        <ele>387.6</ele>
        <time>2014-11-29T12:00:08Z</time>
      </trkpt>
      <trkpt lat="42.29603" lon="-1.42126">
        <ele>387.5</ele>
        <time>2014-11-29T12:00:08Z</time>
      </trkpt>
      <trkpt lat="42.29617" lon="-1.42133">
        <ele>387.3</ele>
        <time>2014-11-29T12:00:08Z</time>
      </trkpt>
      <trkpt lat="42.29635" lon="-1.42141">
        <ele>386.9</ele>
        <time>2014-11-29T12:00:08Z</time>
      </trkpt>
      <trkpt lat="42.29645" lon="-1.42152">
        <ele>386.5</ele>
        <time>2014-11-29T12:00:08Z</time>
      </trkpt>
      <trkpt lat="42.29658" lon="-1.42163">
        <ele>386.1</ele>
        <time>2014-11-29T12:00:08Z</time>
      </trkpt>
      <trkpt lat="42.29671" lon="-1.42167">
        <ele>386.1</ele>
        <time>2014-11-29T12:00:08Z</time>
      </trkpt>
      <trkpt lat="42.29691" lon="-1.42171">
        <ele>386.4</ele>
        <time>2014-11-29T12:00:08Z</time>
      </trkpt>
      <trkpt lat="42.29702" lon="-1.42174">
        <ele>386.6</ele>
        <time>2014-11-29T12:00:08Z</time>
      </trkpt>
      <trkpt lat="42.29713" lon="-1.42178">
        <ele>386.9</ele>
        <time>2014-11-29T12:00:08Z</time>
      </trkpt>
      <trkpt lat="42.29727" lon="-1.42196">
        <ele>387.6</ele>
        <time>2014-11-29T12:00:08Z</time>
      </trkpt>
      <trkpt lat="42.29753" lon="-1.42207">
        <ele>388.6</ele>
        <time>2014-11-29T12:00:08Z</time>
      </trkpt>
      <trkpt lat="42.29785" lon="-1.42218">
        <ele>390</ele>
        <time>2014-11-29T12:00:08Z</time>
      </trkpt>
      <trkpt lat="42.29805" lon="-1.42227">
        <ele>390.9</ele>
        <time>2014-11-29T12:00:08Z</time>
      </trkpt>
      <trkpt lat="42.29814" lon="-1.42235">
        <ele>391.3</ele>
        <time>2014-11-29T12:00:08Z</time>
      </trkpt>
      <trkpt lat="42.2983" lon="-1.42238">
        <ele>391.8</ele>
        <time>2014-11-29T12:00:08Z</time>
      </trkpt>
      <trkpt lat="42.29857" lon="-1.42241">
        <ele>392</ele>
        <time>2014-11-29T12:00:08Z</time>
      </trkpt>
      <trkpt lat="42.29894" lon="-1.42235">
        <ele>392.2</ele>
        <time>2014-11-29T12:00:08Z</time>
      </trkpt>
      <trkpt lat="42.29919" lon="-1.42231">
        <ele>392.5</ele>
        <time>2014-11-29T12:00:08Z</time>
      </trkpt>
      <trkpt lat="42.29938" lon="-1.42225">
        <ele>393.1</ele>
        <time>2014-11-29T12:00:08Z</time>
      </trkpt>
      <trkpt lat="42.2996" lon="-1.42213">
        <ele>393.9</ele>
        <time>2014-11-29T12:00:08Z</time>
      </trkpt>
      <trkpt lat="42.29974" lon="-1.422">
        <ele>394.6</ele>
        <time>2014-11-29T12:00:08Z</time>
      </trkpt>
      <trkpt lat="42.29989" lon="-1.42187">
        <ele>395.2</ele>
        <time>2014-11-29T12:00:08Z</time>
      </trkpt>
      <trkpt lat="42.30003" lon="-1.42179">
        <ele>395.7</ele>
        <time>2014-11-29T12:00:08Z</time>
      </trkpt>
      <trkpt lat="42.30031" lon="-1.42166">
        <ele>396</ele>
        <time>2014-11-29T12:00:08Z</time>
      </trkpt>
      <trkpt lat="42.30045" lon="-1.42156">
        <ele>396.4</ele>
        <time>2014-11-29T12:00:08Z</time>
      </trkpt>
      <trkpt lat="42.30058" lon="-1.42139">
        <ele>397.1</ele>
        <time>2014-11-29T12:00:08Z</time>
      </trkpt>
      <trkpt lat="42.30073" lon="-1.4211">
        <ele>398.1</ele>
        <time>2014-11-29T12:00:08Z</time>
      </trkpt>
      <trkpt lat="42.30087" lon="-1.42071">
        <ele>399.4</ele>
        <time>2014-11-29T12:00:08Z</time>
      </trkpt>
      <trkpt lat="42.30099" lon="-1.42024">
        <ele>401.3</ele>
        <time>2014-11-29T12:00:08Z</time>
      </trkpt>
      <trkpt lat="42.30117" lon="-1.41961">
        <ele>403.8</ele>
        <time>2014-11-29T12:00:08Z</time>
      </trkpt>
      <trkpt lat="42.30131" lon="-1.41927">
        <ele>405.5</ele>
        <time>2014-11-29T12:00:08Z</time>
      </trkpt>
      <trkpt lat="42.30142" lon="-1.41892">
        <ele>406.4</ele>
        <time>2014-11-29T12:00:08Z</time>
      </trkpt>
      <trkpt lat="42.30145" lon="-1.41865">
        <ele>406.4</ele>
        <time>2014-11-29T12:00:08Z</time>
      </trkpt>
      <trkpt lat="42.30152" lon="-1.41794">
        <ele>406</ele>
        <time>2014-11-29T12:00:08Z</time>
      </trkpt>
      <trkpt lat="42.30164" lon="-1.41767">
        <ele>406.1</ele>
        <time>2014-11-29T12:00:08Z</time>
      </trkpt>
      <trkpt lat="42.30175" lon="-1.41755">
        <ele>406.1</ele>
        <time>2014-11-29T12:00:08Z</time>
      </trkpt>
      <trkpt lat="42.30199" lon="-1.41742">
        <ele>406.2</ele>
        <time>2014-11-29T12:00:08Z</time>
      </trkpt>
      <trkpt lat="42.30257" lon="-1.41728">
        <ele>406.6</ele>
        <time>2014-11-29T12:00:08Z</time>
      </trkpt>
      <trkpt lat="42.30311" lon="-1.41714">
        <ele>407.4</ele>
        <time>2014-11-29T12:00:08Z</time>
      </trkpt>
      <trkpt lat="42.30344" lon="-1.41708">
        <ele>408</ele>
        <time>2014-11-29T12:00:08Z</time>
      </trkpt>
      <trkpt lat="42.30433" lon="-1.41691">
        <ele>410.6</ele>
        <time>2014-11-29T12:00:08Z</time>
      </trkpt>
      <trkpt lat="42.30469" lon="-1.41684">
        <ele>410.4</ele>
        <time>2014-11-29T12:00:08Z</time>
      </trkpt>
      <trkpt lat="42.30503" lon="-1.41678">
        <ele>409.8</ele>
        <time>2014-11-29T12:00:08Z</time>
      </trkpt>
      <trkpt lat="42.30524" lon="-1.4168">
        <ele>409.8</ele>
        <time>2014-11-29T12:00:08Z</time>
      </trkpt>
      <trkpt lat="42.30525" lon="-1.4168">
        <ele>409.9</ele>
        <time>2014-11-29T08:43:58Z</time>
      </trkpt>
      <trkpt lat="42.30558" lon="-1.41677">
        <ele>409.6</ele>
        <time>2014-11-29T08:43:58Z</time>
      </trkpt>
      <trkpt lat="42.3065" lon="-1.41656">
        <ele>408</ele>
        <time>2014-11-29T08:43:58Z</time>
      </trkpt>
      <trkpt lat="42.30741" lon="-1.41634">
        <ele>407.8</ele>
        <time>2014-11-29T08:43:58Z</time>
      </trkpt>
      <trkpt lat="42.30804" lon="-1.4162">
        <ele>407.7</ele>
        <time>2014-11-29T08:43:58Z</time>
      </trkpt>
      <trkpt lat="42.30862" lon="-1.41608">
        <ele>407.2</ele>
        <time>2014-11-29T08:43:58Z</time>
      </trkpt>
      <trkpt lat="42.3089" lon="-1.416">
        <ele>406.7</ele>
        <time>2014-11-29T08:43:58Z</time>
      </trkpt>
      <trkpt lat="42.30931" lon="-1.41586">
        <ele>406.6</ele>
        <time>2014-11-29T08:43:58Z</time>
      </trkpt>
      <trkpt lat="42.30984" lon="-1.41561">
        <ele>407.5</ele>
        <time>2014-11-29T08:43:58Z</time>
      </trkpt>
      <trkpt lat="42.31043" lon="-1.4153">
        <ele>408.2</ele>
        <time>2014-11-29T08:43:58Z</time>
      </trkpt>
      <trkpt lat="42.31091" lon="-1.41507">
        <ele>407.3</ele>
        <time>2014-11-29T08:43:58Z</time>
      </trkpt>
      <trkpt lat="42.31112" lon="-1.41502">
        <ele>405.9</ele>
        <time>2014-11-29T08:43:58Z</time>
      </trkpt>
      <trkpt lat="42.31167" lon="-1.41496">
        <ele>403.1</ele>
        <time>2014-11-29T08:43:58Z</time>
      </trkpt>
      <trkpt lat="42.31187" lon="-1.4149">
        <ele>403.2</ele>
        <time>2014-11-29T08:43:58Z</time>
      </trkpt>
      <trkpt lat="42.31225" lon="-1.41482">
        <ele>403.7</ele>
        <time>2014-11-29T08:43:58Z</time>
      </trkpt>
      <trkpt lat="42.3126" lon="-1.41481">
        <ele>403.5</ele>
        <time>2014-11-29T08:43:58Z</time>
      </trkpt>
      <trkpt lat="42.31279" lon="-1.41473">
        <ele>403.9</ele>
        <time>2014-11-29T08:43:58Z</time>
      </trkpt>
      <trkpt lat="42.31332" lon="-1.41468">
        <ele>403</ele>
        <time>2014-11-29T08:43:58Z</time>
      </trkpt>
      <trkpt lat="42.31401" lon="-1.41458">
        <ele>400.7</ele>
        <time>2014-11-29T08:43:58Z</time>
      </trkpt>
      <trkpt lat="42.31424" lon="-1.41454">
        <ele>400</ele>
        <time>2014-11-29T08:43:58Z</time>
      </trkpt>
      <trkpt lat="42.3145" lon="-1.41434">
        <ele>400.4</ele>
        <time>2014-11-29T08:43:58Z</time>
      </trkpt>
      <trkpt lat="42.31487" lon="-1.41398">
        <ele>401.4</ele>
        <time>2014-11-29T08:43:58Z</time>
      </trkpt>
      <trkpt lat="42.31534" lon="-1.41358">
        <ele>404.5</ele>
        <time>2014-11-29T08:43:58Z</time>
      </trkpt>
      <trkpt lat="42.31605" lon="-1.41294">
        <ele>409.1</ele>
        <time>2014-11-29T08:43:58Z</time>
      </trkpt>
      <trkpt lat="42.3166" lon="-1.41244">
        <ele>413.4</ele>
        <time>2014-11-29T08:43:58Z</time>
      </trkpt>
      <trkpt lat="42.31705" lon="-1.41204">
        <ele>412.5</ele>
        <time>2014-11-29T08:43:58Z</time>
      </trkpt>
      <trkpt lat="42.31723" lon="-1.41193">
        <ele>412</ele>
        <time>2014-11-29T08:43:58Z</time>
      </trkpt>
      <trkpt lat="42.31742" lon="-1.41185">
        <ele>411.4</ele>
        <time>2014-11-29T08:43:58Z</time>
      </trkpt>
      <trkpt lat="42.31805" lon="-1.41173">
        <ele>410.4</ele>
        <time>2014-11-29T08:43:58Z</time>
      </trkpt>
      <trkpt lat="42.31858" lon="-1.41163">
        <ele>409.8</ele>
        <time>2014-11-29T08:43:58Z</time>
      </trkpt>
      <trkpt lat="42.31918" lon="-1.4115">
        <ele>409.2</ele>
        <time>2014-11-29T08:43:58Z</time>
      </trkpt>
      <trkpt lat="42.3194" lon="-1.41146">
        <ele>408.3</ele>
        <time>2014-11-29T08:43:58Z</time>
      </trkpt>
      <trkpt lat="42.31959" lon="-1.41145">
        <ele>407.6</ele>
        <time>2014-11-29T08:43:58Z</time>
      </trkpt>
      <trkpt lat="42.31999" lon="-1.41153">
        <ele>406.2</ele>
        <time>2014-11-29T08:43:58Z</time>
      </trkpt>
      <trkpt lat="42.32051" lon="-1.41163">
        <ele>406.1</ele>
        <time>2014-11-29T08:43:58Z</time>
      </trkpt>
      <trkpt lat="42.32091" lon="-1.41181">
        <ele>405.6</ele>
        <time>2014-11-29T08:43:58Z</time>
      </trkpt>
      <trkpt lat="42.32116" lon="-1.41185">
        <ele>405</ele>
        <time>2014-11-29T08:43:58Z</time>
      </trkpt>
      <trkpt lat="42.32142" lon="-1.41159">
        <ele>404.7</ele>
        <time>2014-11-29T08:43:58Z</time>
      </trkpt>
      <trkpt lat="42.32162" lon="-1.41148">
        <ele>404.3</ele>
        <time>2014-11-29T08:43:58Z</time>
      </trkpt>
      <trkpt lat="42.32204" lon="-1.41144">
        <ele>404.3</ele>
        <time>2014-11-29T08:43:58Z</time>
      </trkpt>
      <trkpt lat="42.32277" lon="-1.41138">
        <ele>404.2</ele>
        <time>2014-11-29T08:43:58Z</time>
      </trkpt>
      <trkpt lat="42.32332" lon="-1.41133">
        <ele>404</ele>
        <time>2014-11-29T08:43:58Z</time>
      </trkpt>
      <trkpt lat="42.32403" lon="-1.41127">
        <ele>402.7</ele>
        <time>2014-11-29T08:43:58Z</time>
      </trkpt>
      <trkpt lat="42.32474" lon="-1.41122">
        <ele>401.2</ele>
        <time>2014-11-29T08:43:58Z</time>
      </trkpt>
      <trkpt lat="42.32523" lon="-1.41116">
        <ele>400.5</ele>
        <time>2014-11-29T08:43:58Z</time>
      </trkpt>
      <trkpt lat="42.3257" lon="-1.41113">
        <ele>400.3</ele>
        <time>2014-11-29T08:43:58Z</time>
      </trkpt>
      <trkpt lat="42.32597" lon="-1.41116">
        <ele>400.3</ele>
        <time>2014-11-29T08:43:58Z</time>
      </trkpt>
      <trkpt lat="42.32647" lon="-1.41131">
        <ele>399.7</ele>
        <time>2014-11-29T08:43:58Z</time>
      </trkpt>
      <trkpt lat="42.32724" lon="-1.41157">
        <ele>399.1</ele>
        <time>2014-11-29T08:43:58Z</time>
      </trkpt>
      <trkpt lat="42.32805" lon="-1.41184">
        <ele>397.9</ele>
        <time>2014-11-29T08:43:58Z</time>
      </trkpt>
      <trkpt lat="42.32875" lon="-1.41205">
        <ele>396.8</ele>
        <time>2014-11-29T08:43:58Z</time>
      </trkpt>
      <trkpt lat="42.32945" lon="-1.41229">
        <ele>394.8</ele>
        <time>2014-11-29T08:43:58Z</time>
      </trkpt>
      <trkpt lat="42.33013" lon="-1.41249">
        <ele>394.3</ele>
        <time>2014-11-29T08:43:58Z</time>
      </trkpt>
      <trkpt lat="42.33087" lon="-1.41275">
        <ele>394.4</ele>
        <time>2014-11-29T08:43:58Z</time>
      </trkpt>
      <trkpt lat="42.33146" lon="-1.41292">
        <ele>393.1</ele>
        <time>2014-11-29T08:43:58Z</time>
      </trkpt>
      <trkpt lat="42.33211" lon="-1.41314">
        <ele>392.5</ele>
        <time>2014-11-29T08:43:58Z</time>
      </trkpt>
      <trkpt lat="42.33287" lon="-1.41338">
        <ele>391</ele>
        <time>2014-11-29T08:43:58Z</time>
      </trkpt>
      <trkpt lat="42.33355" lon="-1.4136">
        <ele>389.7</ele>
        <time>2014-11-29T08:43:58Z</time>
      </trkpt>
      <trkpt lat="42.33443" lon="-1.41388">
        <ele>387.8</ele>
        <time>2014-11-29T08:43:58Z</time>
      </trkpt>
      <trkpt lat="42.33474" lon="-1.41399">
        <ele>387</ele>
        <time>2014-11-29T08:43:58Z</time>
      </trkpt>
      <trkpt lat="42.33493" lon="-1.41392">
        <ele>386.7</ele>
        <time>2014-11-29T08:43:58Z</time>
      </trkpt>
      <trkpt lat="42.33542" lon="-1.41372">
        <ele>386.3</ele>
        <time>2014-11-29T08:43:58Z</time>
      </trkpt>
      <trkpt lat="42.33597" lon="-1.4135">
        <ele>385.7</ele>
        <time>2014-11-29T08:43:58Z</time>
      </trkpt>
      <trkpt lat="42.33651" lon="-1.41331">
        <ele>385.2</ele>
        <time>2014-11-29T08:43:58Z</time>
      </trkpt>
      <trkpt lat="42.33732" lon="-1.41298">
        <ele>384.9</ele>
        <time>2014-11-29T08:43:58Z</time>
      </trkpt>
      <trkpt lat="42.33754" lon="-1.41287">
        <ele>384.9</ele>
        <time>2014-11-29T08:43:58Z</time>
      </trkpt>
      <trkpt lat="42.33774" lon="-1.41267">
        <ele>384.1</ele>
        <time>2014-11-29T08:43:58Z</time>
      </trkpt>
      <trkpt lat="42.33818" lon="-1.41217">
        <ele>382.5</ele>
        <time>2014-11-29T08:43:58Z</time>
      </trkpt>
      <trkpt lat="42.33858" lon="-1.41173">
        <ele>382.2</ele>
        <time>2014-11-29T08:43:58Z</time>
      </trkpt>
      <trkpt lat="42.33878" lon="-1.41151">
        <ele>382.6</ele>
        <time>2014-11-29T08:43:58Z</time>
      </trkpt>
      <trkpt lat="42.33896" lon="-1.41142">
        <ele>382.7</ele>
        <time>2014-11-29T08:43:58Z</time>
      </trkpt>
      <trkpt lat="42.33927" lon="-1.41138">
        <ele>382.4</ele>
        <time>2014-11-29T08:43:58Z</time>
      </trkpt>
      <trkpt lat="42.33999" lon="-1.41137">
        <ele>381</ele>
        <time>2014-11-29T08:43:58Z</time>
      </trkpt>
      <trkpt lat="42.34043" lon="-1.41135">
        <ele>382.4</ele>
        <time>2014-11-29T08:43:58Z</time>
      </trkpt>
      <trkpt lat="42.34061" lon="-1.41131">
        <ele>382.9</ele>
        <time>2014-11-29T08:43:58Z</time>
      </trkpt>
      <trkpt lat="42.34089" lon="-1.41107">
        <ele>383.1</ele>
        <time>2014-11-29T08:43:58Z</time>
      </trkpt>
      <trkpt lat="42.34127" lon="-1.41076">
        <ele>381.4</ele>
        <time>2014-11-29T08:43:58Z</time>
      </trkpt>
      <trkpt lat="42.3419" lon="-1.41025">
        <ele>378.7</ele>
        <time>2014-11-29T08:43:58Z</time>
        <extensions>
          <visugpx:TrkExtension xmlns:visugpx="https://www.visugpx.com/editgpx/">
            <visugpx:node>2</visugpx:node>
            </visugpx:TrkExtension>
        </extensions>
      </trkpt>
    </trkseg>
  </trk>
  <trk>
    <name><![CDATA[3.2 Polygone de Tir]]></name>
    <extensions>
      <line xmlns="http://www.topografix.com/GPX/gpx_style/0/2">
        <color>ff00ff</color>
        <opacity>0.5</opacity>
        <width>12</width>
      </line>
    </extensions>
    <trkseg>
      <trkpt lat="42.17949" lon="-1.53316">
        <ele>315.7</ele>
        <time>2014-11-29T08:21:17Z</time>
        <extensions>
          <visugpx:TrkExtension xmlns:visugpx="https://www.visugpx.com/editgpx/">
            <visugpx:node>1</visugpx:node>
            </visugpx:TrkExtension>
        </extensions>
      </trkpt>
      <trkpt lat="42.17939" lon="-1.53305">
        <ele>316</ele>
        <time>2014-11-29T08:21:17Z</time>
      </trkpt>
      <trkpt lat="42.17967" lon="-1.5327">
        <ele>317.5</ele>
        <time>2014-11-29T08:21:17Z</time>
      </trkpt>
      <trkpt lat="42.17979" lon="-1.53252">
        <ele>318.9</ele>
        <time>2014-11-29T08:21:17Z</time>
      </trkpt>
      <trkpt lat="42.17995" lon="-1.53224">
        <ele>320.1</ele>
        <time>2014-11-29T08:21:17Z</time>
      </trkpt>
      <trkpt lat="42.18032" lon="-1.5315">
        <ele>322.2</ele>
        <time>2014-11-29T08:21:17Z</time>
      </trkpt>
      <trkpt lat="42.1806" lon="-1.53094">
        <ele>322.8</ele>
        <time>2014-11-29T08:21:17Z</time>
      </trkpt>
      <trkpt lat="42.1808" lon="-1.53058">
        <ele>322.4</ele>
        <time>2014-11-29T08:21:17Z</time>
      </trkpt>
      <trkpt lat="42.18088" lon="-1.53036">
        <ele>321.5</ele>
        <time>2014-11-29T08:21:17Z</time>
      </trkpt>
      <trkpt lat="42.18092" lon="-1.53008">
        <ele>320.4</ele>
        <time>2014-11-29T08:21:17Z</time>
      </trkpt>
      <trkpt lat="42.18095" lon="-1.52982">
        <ele>318.8</ele>
        <time>2014-11-29T08:21:17Z</time>
      </trkpt>
      <trkpt lat="42.18094" lon="-1.52958">
        <ele>317.2</ele>
        <time>2014-11-29T08:21:17Z</time>
      </trkpt>
      <trkpt lat="42.18081" lon="-1.52882">
        <ele>313.1</ele>
        <time>2014-11-29T08:21:17Z</time>
      </trkpt>
      <trkpt lat="42.18066" lon="-1.52795">
        <ele>310.3</ele>
        <time>2014-11-29T08:21:17Z</time>
      </trkpt>
      <trkpt lat="42.18056" lon="-1.52746">
        <ele>309.4</ele>
        <time>2014-11-29T08:21:17Z</time>
      </trkpt>
      <trkpt lat="42.18044" lon="-1.52712">
        <ele>308.3</ele>
        <time>2014-11-29T08:21:17Z</time>
      </trkpt>
      <trkpt lat="42.17998" lon="-1.52588">
        <ele>303.5</ele>
        <time>2014-11-29T08:21:17Z</time>
      </trkpt>
      <trkpt lat="42.17955" lon="-1.52468">
        <ele>303.7</ele>
        <time>2014-11-29T08:21:17Z</time>
      </trkpt>
      <trkpt lat="42.1794" lon="-1.52427">
        <ele>302.4</ele>
        <time>2014-11-29T08:21:17Z</time>
      </trkpt>
      <trkpt lat="42.17934" lon="-1.52409">
        <ele>301.9</ele>
        <time>2014-11-29T08:21:17Z</time>
      </trkpt>
      <trkpt lat="42.17928" lon="-1.52382">
        <ele>301.3</ele>
        <time>2014-11-29T08:21:17Z</time>
      </trkpt>
      <trkpt lat="42.17919" lon="-1.52336">
        <ele>300.1</ele>
        <time>2014-11-29T08:21:17Z</time>
      </trkpt>
      <trkpt lat="42.17914" lon="-1.52314">
        <ele>299.4</ele>
        <time>2014-11-29T08:21:17Z</time>
      </trkpt>
      <trkpt lat="42.17896" lon="-1.52279">
        <ele>298.8</ele>
        <time>2014-11-29T08:21:17Z</time>
      </trkpt>
      <trkpt lat="42.17896" lon="-1.52279">
        <ele>298.8</ele>
        <time>2014-11-29T08:33:58Z</time>
      </trkpt>
      <trkpt lat="42.17797" lon="-1.52095">
        <ele>298.6</ele>
        <time>2014-11-29T08:33:58Z</time>
      </trkpt>
      <trkpt lat="42.17755" lon="-1.52017">
        <ele>297.3</ele>
        <time>2014-11-29T08:33:58Z</time>
      </trkpt>
      <trkpt lat="42.1775" lon="-1.52005">
        <ele>297.1</ele>
        <time>2014-11-29T08:33:58Z</time>
      </trkpt>
      <trkpt lat="42.17656" lon="-1.51783">
        <ele>293</ele>
        <time>2014-11-29T08:33:58Z</time>
      </trkpt>
      <trkpt lat="42.17646" lon="-1.51756">
        <ele>292.8</ele>
        <time>2014-11-29T08:33:58Z</time>
      </trkpt>
      <trkpt lat="42.17639" lon="-1.51728">
        <ele>292.9</ele>
        <time>2014-11-29T08:33:58Z</time>
      </trkpt>
      <trkpt lat="42.17637" lon="-1.51705">
        <ele>293</ele>
        <time>2014-11-29T08:33:58Z</time>
      </trkpt>
      <trkpt lat="42.17643" lon="-1.51674">
        <ele>293.4</ele>
        <time>2014-11-29T08:33:58Z</time>
      </trkpt>
      <trkpt lat="42.17675" lon="-1.51516">
        <ele>292.4</ele>
        <time>2014-11-29T08:33:58Z</time>
      </trkpt>
      <trkpt lat="42.17694" lon="-1.51419">
        <ele>291.4</ele>
        <time>2014-11-29T08:33:58Z</time>
      </trkpt>
      <trkpt lat="42.17698" lon="-1.5139">
        <ele>290.8</ele>
        <time>2014-11-29T08:33:58Z</time>
      </trkpt>
      <trkpt lat="42.17712" lon="-1.51206">
        <ele>288.7</ele>
        <time>2014-11-29T08:33:58Z</time>
      </trkpt>
      <trkpt lat="42.17714" lon="-1.5119">
        <ele>288.4</ele>
        <time>2014-11-29T08:33:58Z</time>
      </trkpt>
      <trkpt lat="42.17742" lon="-1.51064">
        <ele>288.1</ele>
        <time>2014-11-29T08:33:58Z</time>
      </trkpt>
      <trkpt lat="42.17772" lon="-1.50944">
        <ele>286.9</ele>
        <time>2014-11-29T08:33:58Z</time>
      </trkpt>
      <trkpt lat="42.17804" lon="-1.50806">
        <ele>287</ele>
        <time>2014-11-29T08:33:58Z</time>
      </trkpt>
      <trkpt lat="42.17812" lon="-1.50787">
        <ele>287.4</ele>
        <time>2014-11-29T08:33:58Z</time>
      </trkpt>
      <trkpt lat="42.17886" lon="-1.50641">
        <ele>288</ele>
        <time>2014-11-29T08:33:58Z</time>
      </trkpt>
      <trkpt lat="42.17903" lon="-1.50605">
        <ele>288.1</ele>
        <time>2014-11-29T08:33:58Z</time>
      </trkpt>
      <trkpt lat="42.1798" lon="-1.50522">
        <ele>287.2</ele>
        <time>2014-11-29T08:33:58Z</time>
      </trkpt>
      <trkpt lat="42.18059" lon="-1.50433">
        <ele>290.2</ele>
        <time>2014-11-29T08:33:58Z</time>
      </trkpt>
      <trkpt lat="42.18076" lon="-1.50413">
        <ele>291</ele>
        <time>2014-11-29T08:33:58Z</time>
      </trkpt>
      <trkpt lat="42.18088" lon="-1.50395">
        <ele>291.5</ele>
        <time>2014-11-29T08:33:58Z</time>
      </trkpt>
      <trkpt lat="42.18092" lon="-1.50381">
        <ele>291.8</ele>
        <time>2014-11-29T08:33:58Z</time>
      </trkpt>
      <trkpt lat="42.18103" lon="-1.50326">
        <ele>292.3</ele>
        <time>2014-11-29T08:33:58Z</time>
      </trkpt>
      <trkpt lat="42.18121" lon="-1.50206">
        <ele>289.9</ele>
        <time>2014-11-29T08:33:58Z</time>
      </trkpt>
      <trkpt lat="42.18139" lon="-1.50088">
        <ele>290.6</ele>
        <time>2014-11-29T08:33:58Z</time>
      </trkpt>
      <trkpt lat="42.18166" lon="-1.49902">
        <ele>291</ele>
        <time>2014-11-29T08:33:58Z</time>
      </trkpt>
      <trkpt lat="42.18185" lon="-1.49777">
        <ele>291.5</ele>
        <time>2014-11-29T08:33:58Z</time>
      </trkpt>
      <trkpt lat="42.18194" lon="-1.49719">
        <ele>291.8</ele>
        <time>2014-11-29T08:33:58Z</time>
      </trkpt>
      <trkpt lat="42.18209" lon="-1.49659">
        <ele>291.4</ele>
        <time>2014-11-29T08:33:58Z</time>
      </trkpt>
      <trkpt lat="42.18212" lon="-1.49644">
        <ele>291.2</ele>
        <time>2014-11-29T08:33:58Z</time>
      </trkpt>
      <trkpt lat="42.18215" lon="-1.49628">
        <ele>291</ele>
        <time>2014-11-29T08:33:58Z</time>
      </trkpt>
      <trkpt lat="42.18217" lon="-1.49526">
        <ele>291.4</ele>
        <time>2014-11-29T08:33:58Z</time>
      </trkpt>
      <trkpt lat="42.18218" lon="-1.49477">
        <ele>291.7</ele>
        <time>2014-11-29T08:33:58Z</time>
      </trkpt>
      <trkpt lat="42.18219" lon="-1.49465">
        <ele>291.6</ele>
        <time>2014-11-29T08:33:58Z</time>
      </trkpt>
      <trkpt lat="42.18224" lon="-1.49445">
        <ele>291.4</ele>
        <time>2014-11-29T08:33:58Z</time>
      </trkpt>
      <trkpt lat="42.18248" lon="-1.49365">
        <ele>290.4</ele>
        <time>2014-11-29T08:33:58Z</time>
      </trkpt>
      <trkpt lat="42.18276" lon="-1.4927">
        <ele>290.4</ele>
        <time>2014-11-29T08:33:58Z</time>
      </trkpt>
      <trkpt lat="42.18308" lon="-1.49161">
        <ele>289.3</ele>
        <time>2014-11-29T08:33:58Z</time>
      </trkpt>
      <trkpt lat="42.18326" lon="-1.49105">
        <ele>289.6</ele>
        <time>2014-11-29T08:33:58Z</time>
      </trkpt>
      <trkpt lat="42.18332" lon="-1.49092">
        <ele>289.9</ele>
        <time>2014-11-29T08:33:58Z</time>
      </trkpt>
      <trkpt lat="42.18342" lon="-1.4908">
        <ele>290.1</ele>
        <time>2014-11-29T08:33:58Z</time>
      </trkpt>
      <trkpt lat="42.18379" lon="-1.49048">
        <ele>290.5</ele>
        <time>2014-11-29T08:33:58Z</time>
      </trkpt>
      <trkpt lat="42.18432" lon="-1.49002">
        <ele>290.8</ele>
        <time>2014-11-29T08:33:58Z</time>
      </trkpt>
      <trkpt lat="42.18464" lon="-1.48974">
        <ele>290.3</ele>
        <time>2014-11-29T08:33:58Z</time>
      </trkpt>
      <trkpt lat="42.18472" lon="-1.48964">
        <ele>290.2</ele>
        <time>2014-11-29T08:33:58Z</time>
      </trkpt>
      <trkpt lat="42.18487" lon="-1.48942">
        <ele>290</ele>
        <time>2014-11-29T08:33:58Z</time>
      </trkpt>
      <trkpt lat="42.18533" lon="-1.48869">
        <ele>292.3</ele>
        <time>2014-11-29T08:33:58Z</time>
      </trkpt>
      <trkpt lat="42.1859" lon="-1.48779">
        <ele>294.4</ele>
        <time>2014-11-29T08:33:58Z</time>
      </trkpt>
      <trkpt lat="42.18647" lon="-1.48688">
        <ele>293.9</ele>
        <time>2014-11-29T08:33:58Z</time>
      </trkpt>
      <trkpt lat="42.18685" lon="-1.48627">
        <ele>295.8</ele>
        <time>2014-11-29T08:33:58Z</time>
      </trkpt>
      <trkpt lat="42.18693" lon="-1.48609">
        <ele>296.3</ele>
        <time>2014-11-29T08:33:58Z</time>
      </trkpt>
      <trkpt lat="42.18697" lon="-1.48593">
        <ele>296.6</ele>
        <time>2014-11-29T08:33:58Z</time>
      </trkpt>
      <trkpt lat="42.18698" lon="-1.48581">
        <ele>296.8</ele>
        <time>2014-11-29T08:33:58Z</time>
      </trkpt>
      <trkpt lat="42.18698" lon="-1.48567">
        <ele>297.1</ele>
        <time>2014-11-29T08:33:58Z</time>
      </trkpt>
      <trkpt lat="42.18681" lon="-1.48502">
        <ele>298.3</ele>
        <time>2014-11-29T08:33:58Z</time>
      </trkpt>
      <trkpt lat="42.18665" lon="-1.4844">
        <ele>299.4</ele>
        <time>2014-11-29T08:33:58Z</time>
      </trkpt>
      <trkpt lat="42.18664" lon="-1.48441">
        <ele>299.4</ele>
        <time>2014-11-29T14:48:06Z</time>
      </trkpt>
      <trkpt lat="42.18691" lon="-1.48428">
        <ele>300</ele>
        <time>2014-11-29T14:48:06Z</time>
      </trkpt>
      <trkpt lat="42.18708" lon="-1.48424">
        <ele>300.4</ele>
        <time>2014-11-29T14:48:06Z</time>
      </trkpt>
      <trkpt lat="42.18723" lon="-1.48424">
        <ele>300.6</ele>
        <time>2014-11-29T14:48:06Z</time>
      </trkpt>
      <trkpt lat="42.18733" lon="-1.48431">
        <ele>300.6</ele>
        <time>2014-11-29T14:48:06Z</time>
      </trkpt>
      <trkpt lat="42.18753" lon="-1.48446">
        <ele>300.9</ele>
        <time>2014-11-29T14:48:06Z</time>
      </trkpt>
      <trkpt lat="42.18775" lon="-1.48464">
        <ele>302.3</ele>
        <time>2014-11-29T14:48:06Z</time>
      </trkpt>
      <trkpt lat="42.18798" lon="-1.48483">
        <ele>303.4</ele>
        <time>2014-11-29T14:48:06Z</time>
      </trkpt>
      <trkpt lat="42.18823" lon="-1.48504">
        <ele>304.2</ele>
        <time>2014-11-29T14:48:06Z</time>
      </trkpt>
      <trkpt lat="42.18852" lon="-1.48529">
        <ele>303.9</ele>
        <time>2014-11-29T14:48:06Z</time>
      </trkpt>
      <trkpt lat="42.18878" lon="-1.48552">
        <ele>303.4</ele>
        <time>2014-11-29T14:48:06Z</time>
      </trkpt>
      <trkpt lat="42.18903" lon="-1.48572">
        <ele>303.1</ele>
        <time>2014-11-29T14:48:06Z</time>
      </trkpt>
      <trkpt lat="42.1893" lon="-1.48596">
        <ele>302.7</ele>
        <time>2014-11-29T14:48:06Z</time>
      </trkpt>
      <trkpt lat="42.18956" lon="-1.48617">
        <ele>302.6</ele>
        <time>2014-11-29T14:48:06Z</time>
      </trkpt>
      <trkpt lat="42.18973" lon="-1.48631">
        <ele>302.6</ele>
        <time>2014-11-29T14:48:06Z</time>
      </trkpt>
      <trkpt lat="42.19002" lon="-1.48656">
        <ele>303.1</ele>
        <time>2014-11-29T14:48:06Z</time>
      </trkpt>
      <trkpt lat="42.19032" lon="-1.48682">
        <ele>305.7</ele>
        <time>2014-11-29T14:48:06Z</time>
      </trkpt>
      <trkpt lat="42.19062" lon="-1.48708">
        <ele>308.5</ele>
        <time>2014-11-29T14:48:06Z</time>
      </trkpt>
      <trkpt lat="42.19102" lon="-1.48743">
        <ele>313.5</ele>
        <time>2014-11-29T14:48:06Z</time>
      </trkpt>
      <trkpt lat="42.19107" lon="-1.48747">
        <ele>314.4</ele>
        <time>2014-11-29T14:48:06Z</time>
      </trkpt>
      <trkpt lat="42.19135" lon="-1.4877">
        <ele>316.3</ele>
        <time>2014-11-29T14:48:06Z</time>
      </trkpt>
      <trkpt lat="42.19154" lon="-1.48786">
        <ele>316.4</ele>
        <time>2014-11-29T14:48:06Z</time>
      </trkpt>
      <trkpt lat="42.1917" lon="-1.48799">
        <ele>315.8</ele>
        <time>2014-11-29T14:48:06Z</time>
      </trkpt>
      <trkpt lat="42.19192" lon="-1.48817">
        <ele>313.1</ele>
        <time>2014-11-29T14:48:06Z</time>
      </trkpt>
      <trkpt lat="42.19215" lon="-1.48837">
        <ele>310.7</ele>
        <time>2014-11-29T14:48:06Z</time>
      </trkpt>
      <trkpt lat="42.19239" lon="-1.48856">
        <ele>309.3</ele>
        <time>2014-11-29T14:48:06Z</time>
      </trkpt>
      <trkpt lat="42.19256" lon="-1.48871">
        <ele>308</ele>
        <time>2014-11-29T14:48:06Z</time>
      </trkpt>
      <trkpt lat="42.1927" lon="-1.48885">
        <ele>306.5</ele>
        <time>2014-11-29T14:48:06Z</time>
      </trkpt>
      <trkpt lat="42.19295" lon="-1.48908">
        <ele>304.3</ele>
        <time>2014-11-29T14:48:06Z</time>
      </trkpt>
      <trkpt lat="42.19309" lon="-1.48922">
        <ele>303.5</ele>
        <time>2014-11-29T14:48:06Z</time>
      </trkpt>
      <trkpt lat="42.19337" lon="-1.48953">
        <ele>302.6</ele>
        <time>2014-11-29T14:48:06Z</time>
      </trkpt>
      <trkpt lat="42.19358" lon="-1.48973">
        <ele>302.5</ele>
        <time>2014-11-29T14:48:06Z</time>
      </trkpt>
      <trkpt lat="42.19381" lon="-1.48997">
        <ele>302.6</ele>
        <time>2014-11-29T14:48:06Z</time>
      </trkpt>
      <trkpt lat="42.19402" lon="-1.49016">
        <ele>302.5</ele>
        <time>2014-11-29T14:48:06Z</time>
      </trkpt>
      <trkpt lat="42.19429" lon="-1.49043">
        <ele>301.8</ele>
        <time>2014-11-29T14:48:06Z</time>
      </trkpt>
      <trkpt lat="42.19449" lon="-1.4906">
        <ele>301.2</ele>
        <time>2014-11-29T14:48:06Z</time>
      </trkpt>
      <trkpt lat="42.19465" lon="-1.49078">
        <ele>301</ele>
        <time>2014-11-29T14:48:06Z</time>
      </trkpt>
      <trkpt lat="42.19486" lon="-1.49098">
        <ele>300.9</ele>
        <time>2014-11-29T14:48:06Z</time>
      </trkpt>
      <trkpt lat="42.19502" lon="-1.49115">
        <ele>300.9</ele>
        <time>2014-11-29T14:48:06Z</time>
      </trkpt>
      <trkpt lat="42.19523" lon="-1.49136">
        <ele>300.1</ele>
        <time>2014-11-29T14:48:06Z</time>
      </trkpt>
      <trkpt lat="42.19546" lon="-1.49159">
        <ele>298.9</ele>
        <time>2014-11-29T14:48:06Z</time>
      </trkpt>
      <trkpt lat="42.19565" lon="-1.49178">
        <ele>298</ele>
        <time>2014-11-29T14:48:06Z</time>
      </trkpt>
      <trkpt lat="42.19607" lon="-1.4922">
        <ele>298.5</ele>
        <time>2014-11-29T14:48:06Z</time>
      </trkpt>
      <trkpt lat="42.19632" lon="-1.49245">
        <ele>298.9</ele>
        <time>2014-11-29T14:48:06Z</time>
      </trkpt>
      <trkpt lat="42.19648" lon="-1.49261">
        <ele>298.8</ele>
        <time>2014-11-29T14:48:06Z</time>
      </trkpt>
      <trkpt lat="42.19666" lon="-1.49279">
        <ele>298.6</ele>
        <time>2014-11-29T14:48:06Z</time>
      </trkpt>
      <trkpt lat="42.1968" lon="-1.49295">
        <ele>298.2</ele>
        <time>2014-11-29T14:48:06Z</time>
      </trkpt>
      <trkpt lat="42.19705" lon="-1.49319">
        <ele>297.6</ele>
        <time>2014-11-29T14:48:06Z</time>
      </trkpt>
      <trkpt lat="42.19721" lon="-1.49335">
        <ele>297.3</ele>
        <time>2014-11-29T14:48:06Z</time>
      </trkpt>
      <trkpt lat="42.19746" lon="-1.49362">
        <ele>296.3</ele>
        <time>2014-11-29T14:48:06Z</time>
      </trkpt>
      <trkpt lat="42.19773" lon="-1.49389">
        <ele>295.8</ele>
        <time>2014-11-29T14:48:06Z</time>
      </trkpt>
      <trkpt lat="42.19787" lon="-1.49401">
        <ele>295.7</ele>
        <time>2014-11-29T14:48:06Z</time>
      </trkpt>
      <trkpt lat="42.19804" lon="-1.4942">
        <ele>295.7</ele>
        <time>2014-11-29T14:48:06Z</time>
      </trkpt>
      <trkpt lat="42.1983" lon="-1.49446">
        <ele>296</ele>
        <time>2014-11-29T14:48:06Z</time>
      </trkpt>
      <trkpt lat="42.19853" lon="-1.49468">
        <ele>296.7</ele>
        <time>2014-11-29T14:48:06Z</time>
      </trkpt>
      <trkpt lat="42.19883" lon="-1.49498">
        <ele>297.8</ele>
        <time>2014-11-29T14:48:06Z</time>
      </trkpt>
      <trkpt lat="42.19902" lon="-1.49519">
        <ele>298.4</ele>
        <time>2014-11-29T14:48:06Z</time>
      </trkpt>
      <trkpt lat="42.19912" lon="-1.49528">
        <ele>298.5</ele>
        <time>2014-11-29T14:48:06Z</time>
      </trkpt>
      <trkpt lat="42.19925" lon="-1.49542">
        <ele>298.8</ele>
        <time>2014-11-29T14:48:06Z</time>
      </trkpt>
      <trkpt lat="42.1994" lon="-1.49558">
        <ele>299.1</ele>
        <time>2014-11-29T14:48:06Z</time>
      </trkpt>
      <trkpt lat="42.19958" lon="-1.49576">
        <ele>299.6</ele>
        <time>2014-11-29T14:48:06Z</time>
      </trkpt>
      <trkpt lat="42.19979" lon="-1.49596">
        <ele>300.3</ele>
        <time>2014-11-29T14:48:06Z</time>
      </trkpt>
      <trkpt lat="42.19998" lon="-1.49617">
        <ele>300.9</ele>
        <time>2014-11-29T14:48:06Z</time>
      </trkpt>
      <trkpt lat="42.20025" lon="-1.49642">
        <ele>302.1</ele>
        <time>2014-11-29T14:48:06Z</time>
      </trkpt>
      <trkpt lat="42.20038" lon="-1.49656">
        <ele>302.8</ele>
        <time>2014-11-29T14:48:06Z</time>
      </trkpt>
      <trkpt lat="42.20047" lon="-1.49665">
        <ele>303.2</ele>
        <time>2014-11-29T14:48:06Z</time>
      </trkpt>
      <trkpt lat="42.20057" lon="-1.49676">
        <ele>303.6</ele>
        <time>2014-11-29T14:48:06Z</time>
      </trkpt>
      <trkpt lat="42.2007" lon="-1.49687">
        <ele>303.9</ele>
        <time>2014-11-29T14:48:06Z</time>
      </trkpt>
      <trkpt lat="42.20088" lon="-1.49706">
        <ele>304.1</ele>
        <time>2014-11-29T14:48:06Z</time>
      </trkpt>
      <trkpt lat="42.20104" lon="-1.49722">
        <ele>304.1</ele>
        <time>2014-11-29T14:48:06Z</time>
      </trkpt>
      <trkpt lat="42.20119" lon="-1.49737">
        <ele>304.1</ele>
        <time>2014-11-29T14:48:06Z</time>
      </trkpt>
      <trkpt lat="42.20146" lon="-1.49767">
        <ele>305.1</ele>
        <time>2014-11-29T14:48:06Z</time>
      </trkpt>
      <trkpt lat="42.20166" lon="-1.49785">
        <ele>306.3</ele>
        <time>2014-11-29T14:48:06Z</time>
      </trkpt>
      <trkpt lat="42.20184" lon="-1.49805">
        <ele>307.7</ele>
        <time>2014-11-29T14:48:06Z</time>
      </trkpt>
      <trkpt lat="42.20207" lon="-1.49827">
        <ele>309.7</ele>
        <time>2014-11-29T14:48:06Z</time>
      </trkpt>
      <trkpt lat="42.20238" lon="-1.49858">
        <ele>311.4</ele>
        <time>2014-11-29T14:48:06Z</time>
      </trkpt>
      <trkpt lat="42.20254" lon="-1.49875">
        <ele>312.1</ele>
        <time>2014-11-29T14:48:06Z</time>
      </trkpt>
      <trkpt lat="42.20287" lon="-1.49907">
        <ele>313.3</ele>
        <time>2014-11-29T14:48:06Z</time>
      </trkpt>
      <trkpt lat="42.20312" lon="-1.49933">
        <ele>314.1</ele>
        <time>2014-11-29T14:48:06Z</time>
      </trkpt>
      <trkpt lat="42.2034" lon="-1.4996">
        <ele>315.6</ele>
        <time>2014-11-29T14:48:06Z</time>
      </trkpt>
      <trkpt lat="42.20377" lon="-1.49996">
        <ele>319.7</ele>
        <time>2014-11-29T14:48:06Z</time>
      </trkpt>
      <trkpt lat="42.20403" lon="-1.50021">
        <ele>320.7</ele>
        <time>2014-11-29T14:48:06Z</time>
      </trkpt>
      <trkpt lat="42.20417" lon="-1.50036">
        <ele>320.5</ele>
        <time>2014-11-29T14:48:06Z</time>
      </trkpt>
      <trkpt lat="42.20434" lon="-1.50052">
        <ele>319.6</ele>
        <time>2014-11-29T14:48:06Z</time>
      </trkpt>
      <trkpt lat="42.20464" lon="-1.50082">
        <ele>316.2</ele>
        <time>2014-11-29T14:48:06Z</time>
      </trkpt>
      <trkpt lat="42.2048" lon="-1.50098">
        <ele>314.9</ele>
        <time>2014-11-29T14:48:06Z</time>
      </trkpt>
      <trkpt lat="42.20499" lon="-1.50117">
        <ele>313.2</ele>
        <time>2014-11-29T14:48:06Z</time>
      </trkpt>
      <trkpt lat="42.20517" lon="-1.50138">
        <ele>311.1</ele>
        <time>2014-11-29T14:48:06Z</time>
      </trkpt>
      <trkpt lat="42.20535" lon="-1.5017">
        <ele>307.9</ele>
        <time>2014-11-29T14:48:06Z</time>
      </trkpt>
      <trkpt lat="42.2055" lon="-1.502">
        <ele>305.9</ele>
        <time>2014-11-29T14:48:06Z</time>
      </trkpt>
      <trkpt lat="42.20568" lon="-1.50244">
        <ele>302.9</ele>
        <time>2014-11-29T14:48:06Z</time>
      </trkpt>
      <trkpt lat="42.20588" lon="-1.50282">
        <ele>301.2</ele>
        <time>2014-11-29T14:48:06Z</time>
      </trkpt>
      <trkpt lat="42.20619" lon="-1.5035">
        <ele>298.8</ele>
        <time>2014-11-29T14:48:06Z</time>
      </trkpt>
      <trkpt lat="42.20642" lon="-1.50396">
        <ele>297.9</ele>
        <time>2014-11-29T14:48:06Z</time>
      </trkpt>
      <trkpt lat="42.2067" lon="-1.5046">
        <ele>298.1</ele>
        <time>2014-11-29T14:48:06Z</time>
      </trkpt>
      <trkpt lat="42.20694" lon="-1.5051">
        <ele>298.7</ele>
        <time>2014-11-29T14:48:06Z</time>
      </trkpt>
      <trkpt lat="42.20709" lon="-1.50543">
        <ele>298.5</ele>
        <time>2014-11-29T14:48:06Z</time>
      </trkpt>
      <trkpt lat="42.20719" lon="-1.50565">
        <ele>298.3</ele>
        <time>2014-11-29T14:48:06Z</time>
      </trkpt>
      <trkpt lat="42.20724" lon="-1.50586">
        <ele>298.1</ele>
        <time>2014-11-29T14:48:06Z</time>
      </trkpt>
      <trkpt lat="42.2073" lon="-1.50611">
        <ele>298.5</ele>
        <time>2014-11-29T14:48:06Z</time>
      </trkpt>
      <trkpt lat="42.20732" lon="-1.50657">
        <ele>299.1</ele>
        <time>2014-11-29T14:48:06Z</time>
      </trkpt>
      <trkpt lat="42.20731" lon="-1.50713">
        <ele>301.4</ele>
        <time>2014-11-29T14:48:06Z</time>
      </trkpt>
      <trkpt lat="42.20726" lon="-1.50749">
        <ele>302.6</ele>
        <time>2014-11-29T14:48:06Z</time>
      </trkpt>
      <trkpt lat="42.20718" lon="-1.50785">
        <ele>307</ele>
        <time>2014-11-29T14:48:06Z</time>
      </trkpt>
      <trkpt lat="42.20706" lon="-1.50816">
        <ele>309.4</ele>
        <time>2014-11-29T14:48:06Z</time>
      </trkpt>
      <trkpt lat="42.20694" lon="-1.5085">
        <ele>310.3</ele>
        <time>2014-11-29T14:48:06Z</time>
      </trkpt>
      <trkpt lat="42.20691" lon="-1.50874">
        <ele>311.3</ele>
        <time>2014-11-29T14:48:06Z</time>
      </trkpt>
      <trkpt lat="42.20694" lon="-1.50906">
        <ele>314.7</ele>
        <time>2014-11-29T14:48:06Z</time>
      </trkpt>
      <trkpt lat="42.20703" lon="-1.50929">
        <ele>317</ele>
        <time>2014-11-29T14:48:06Z</time>
      </trkpt>
      <trkpt lat="42.20717" lon="-1.50957">
        <ele>317.5</ele>
        <time>2014-11-29T14:48:06Z</time>
      </trkpt>
      <trkpt lat="42.20741" lon="-1.51006">
        <ele>315.2</ele>
        <time>2014-11-29T14:48:06Z</time>
      </trkpt>
      <trkpt lat="42.20757" lon="-1.5104">
        <ele>311.3</ele>
        <time>2014-11-29T14:48:06Z</time>
      </trkpt>
      <trkpt lat="42.20772" lon="-1.51072">
        <ele>307.1</ele>
        <time>2014-11-29T14:48:06Z</time>
      </trkpt>
      <trkpt lat="42.20795" lon="-1.51124">
        <ele>305.9</ele>
        <time>2014-11-29T14:48:06Z</time>
      </trkpt>
      <trkpt lat="42.2081" lon="-1.51165">
        <ele>306.7</ele>
        <time>2014-11-29T14:48:06Z</time>
      </trkpt>
      <trkpt lat="42.20842" lon="-1.51244">
        <ele>306.9</ele>
        <time>2014-11-29T14:48:06Z</time>
      </trkpt>
      <trkpt lat="42.20853" lon="-1.51272">
        <ele>305.3</ele>
        <time>2014-11-29T14:48:06Z</time>
      </trkpt>
      <trkpt lat="42.20865" lon="-1.51299">
        <ele>303.4</ele>
        <time>2014-11-29T14:48:06Z</time>
      </trkpt>
      <trkpt lat="42.20889" lon="-1.51356">
        <ele>298.6</ele>
        <time>2014-11-29T14:48:06Z</time>
      </trkpt>
      <trkpt lat="42.20911" lon="-1.51408">
        <ele>295.5</ele>
        <time>2014-11-29T14:48:06Z</time>
      </trkpt>
      <trkpt lat="42.20939" lon="-1.51475">
        <ele>291.1</ele>
        <time>2014-11-29T14:48:06Z</time>
      </trkpt>
      <trkpt lat="42.20949" lon="-1.51557">
        <ele>287.8</ele>
        <time>2014-11-29T14:48:06Z</time>
      </trkpt>
      <trkpt lat="42.20953" lon="-1.51558">
        <ele>287.5</ele>
        <time>2014-11-29T08:26:26Z</time>
      </trkpt>
      <trkpt lat="42.2092" lon="-1.51583">
        <ele>288.8</ele>
        <time>2014-11-29T08:26:26Z</time>
      </trkpt>
      <trkpt lat="42.20905" lon="-1.5159">
        <ele>288.8</ele>
        <time>2014-11-29T08:26:26Z</time>
      </trkpt>
      <trkpt lat="42.20889" lon="-1.51596">
        <ele>288.7</ele>
        <time>2014-11-29T08:26:26Z</time>
      </trkpt>
      <trkpt lat="42.20851" lon="-1.51599">
        <ele>288.9</ele>
        <time>2014-11-29T08:26:26Z</time>
      </trkpt>
      <trkpt lat="42.20758" lon="-1.51606">
        <ele>288.1</ele>
        <time>2014-11-29T08:26:26Z</time>
      </trkpt>
      <trkpt lat="42.20661" lon="-1.51615">
        <ele>287.8</ele>
        <time>2014-11-29T08:26:26Z</time>
      </trkpt>
      <trkpt lat="42.20618" lon="-1.51617">
        <ele>287.9</ele>
        <time>2014-11-29T08:26:26Z</time>
      </trkpt>
      <trkpt lat="42.20607" lon="-1.51616">
        <ele>287.9</ele>
        <time>2014-11-29T08:26:26Z</time>
      </trkpt>
      <trkpt lat="42.20594" lon="-1.51612">
        <ele>288</ele>
        <time>2014-11-29T08:26:26Z</time>
      </trkpt>
      <trkpt lat="42.20554" lon="-1.51595">
        <ele>287.7</ele>
        <time>2014-11-29T08:26:26Z</time>
      </trkpt>
      <trkpt lat="42.20506" lon="-1.51566">
        <ele>287.1</ele>
        <time>2014-11-29T08:26:26Z</time>
      </trkpt>
      <trkpt lat="42.20498" lon="-1.51558">
        <ele>287</ele>
        <time>2014-11-29T08:26:26Z</time>
      </trkpt>
      <trkpt lat="42.20466" lon="-1.51507">
        <ele>287.4</ele>
        <time>2014-11-29T08:26:26Z</time>
      </trkpt>
      <trkpt lat="42.20456" lon="-1.51498">
        <ele>287.5</ele>
        <time>2014-11-29T08:26:26Z</time>
      </trkpt>
      <trkpt lat="42.20441" lon="-1.51495">
        <ele>287.8</ele>
        <time>2014-11-29T08:26:26Z</time>
      </trkpt>
      <trkpt lat="42.20393" lon="-1.5151">
        <ele>287.6</ele>
        <time>2014-11-29T08:26:26Z</time>
      </trkpt>
      <trkpt lat="42.20364" lon="-1.51518">
        <ele>287.2</ele>
        <time>2014-11-29T08:26:26Z</time>
      </trkpt>
      <trkpt lat="42.20311" lon="-1.51528">
        <ele>286.8</ele>
        <time>2014-11-29T08:26:26Z</time>
      </trkpt>
      <trkpt lat="42.2029" lon="-1.51537">
        <ele>286.8</ele>
        <time>2014-11-29T08:26:26Z</time>
      </trkpt>
      <trkpt lat="42.20272" lon="-1.51549">
        <ele>286.7</ele>
        <time>2014-11-29T08:26:26Z</time>
      </trkpt>
      <trkpt lat="42.20246" lon="-1.51577">
        <ele>286.1</ele>
        <time>2014-11-29T08:26:26Z</time>
      </trkpt>
      <trkpt lat="42.20233" lon="-1.51593">
        <ele>286.1</ele>
        <time>2014-11-29T08:26:26Z</time>
      </trkpt>
      <trkpt lat="42.20209" lon="-1.51605">
        <ele>286</ele>
        <time>2014-11-29T08:26:26Z</time>
      </trkpt>
      <trkpt lat="42.20153" lon="-1.51624">
        <ele>285.4</ele>
        <time>2014-11-29T08:26:26Z</time>
      </trkpt>
      <trkpt lat="42.2013" lon="-1.51632">
        <ele>285.1</ele>
        <time>2014-11-29T08:26:26Z</time>
      </trkpt>
      <trkpt lat="42.2011" lon="-1.51643">
        <ele>284.8</ele>
        <time>2014-11-29T08:26:26Z</time>
      </trkpt>
      <trkpt lat="42.20074" lon="-1.51671">
        <ele>283.8</ele>
        <time>2014-11-29T08:26:26Z</time>
      </trkpt>
      <trkpt lat="42.20062" lon="-1.51677">
        <ele>283.5</ele>
        <time>2014-11-29T08:26:26Z</time>
      </trkpt>
      <trkpt lat="42.20036" lon="-1.51681">
        <ele>282.9</ele>
        <time>2014-11-29T08:26:26Z</time>
      </trkpt>
      <trkpt lat="42.19998" lon="-1.51686">
        <ele>282</ele>
        <time>2014-11-29T08:26:26Z</time>
      </trkpt>
      <trkpt lat="42.19978" lon="-1.5169">
        <ele>282.3</ele>
        <time>2014-11-29T08:26:26Z</time>
      </trkpt>
      <trkpt lat="42.19907" lon="-1.51719">
        <ele>283.7</ele>
        <time>2014-11-29T08:26:26Z</time>
      </trkpt>
      <trkpt lat="42.19881" lon="-1.51729">
        <ele>284</ele>
        <time>2014-11-29T08:26:26Z</time>
      </trkpt>
      <trkpt lat="42.1983" lon="-1.51744">
        <ele>284.1</ele>
        <time>2014-11-29T08:26:26Z</time>
      </trkpt>
      <trkpt lat="42.19749" lon="-1.51775">
        <ele>285</ele>
        <time>2014-11-29T08:26:26Z</time>
      </trkpt>
      <trkpt lat="42.19706" lon="-1.51791">
        <ele>284.2</ele>
        <time>2014-11-29T08:26:26Z</time>
      </trkpt>
      <trkpt lat="42.19656" lon="-1.51817">
        <ele>283.2</ele>
        <time>2014-11-29T08:26:26Z</time>
      </trkpt>
      <trkpt lat="42.19637" lon="-1.5183">
        <ele>283</ele>
        <time>2014-11-29T08:26:26Z</time>
      </trkpt>
      <trkpt lat="42.19607" lon="-1.51844">
        <ele>282.9</ele>
        <time>2014-11-29T08:26:26Z</time>
      </trkpt>
      <trkpt lat="42.19564" lon="-1.51863">
        <ele>282.8</ele>
        <time>2014-11-29T08:26:26Z</time>
      </trkpt>
      <trkpt lat="42.1955" lon="-1.51868">
        <ele>282.9</ele>
        <time>2014-11-29T08:26:26Z</time>
      </trkpt>
      <trkpt lat="42.19478" lon="-1.51912">
        <ele>283.4</ele>
        <time>2014-11-29T08:26:26Z</time>
      </trkpt>
      <trkpt lat="42.19434" lon="-1.51937">
        <ele>282.8</ele>
        <time>2014-11-29T08:26:26Z</time>
      </trkpt>
      <trkpt lat="42.19376" lon="-1.51961">
        <ele>282.5</ele>
        <time>2014-11-29T08:26:26Z</time>
      </trkpt>
      <trkpt lat="42.19339" lon="-1.51975">
        <ele>282.1</ele>
        <time>2014-11-29T08:26:26Z</time>
      </trkpt>
      <trkpt lat="42.19271" lon="-1.52007">
        <ele>281.4</ele>
        <time>2014-11-29T08:26:26Z</time>
      </trkpt>
      <trkpt lat="42.19242" lon="-1.5202">
        <ele>281.5</ele>
        <time>2014-11-29T08:26:26Z</time>
      </trkpt>
      <trkpt lat="42.19224" lon="-1.52026">
        <ele>281.7</ele>
        <time>2014-11-29T08:26:26Z</time>
      </trkpt>
      <trkpt lat="42.1921" lon="-1.52027">
        <ele>281.8</ele>
        <time>2014-11-29T08:26:26Z</time>
      </trkpt>
      <trkpt lat="42.19104" lon="-1.52032">
        <ele>281.2</ele>
        <time>2014-11-29T08:26:26Z</time>
      </trkpt>
      <trkpt lat="42.1905" lon="-1.52032">
        <ele>280.8</ele>
        <time>2014-11-29T08:26:26Z</time>
      </trkpt>
      <trkpt lat="42.18941" lon="-1.52029">
        <ele>280.6</ele>
        <time>2014-11-29T08:26:26Z</time>
      </trkpt>
      <trkpt lat="42.18929" lon="-1.52033">
        <ele>280.6</ele>
        <time>2014-11-29T08:26:26Z</time>
      </trkpt>
      <trkpt lat="42.18881" lon="-1.52067">
        <ele>280</ele>
        <time>2014-11-29T08:26:26Z</time>
      </trkpt>
      <trkpt lat="42.188" lon="-1.52122">
        <ele>280.3</ele>
        <time>2014-11-29T08:26:26Z</time>
      </trkpt>
      <trkpt lat="42.18783" lon="-1.52131">
        <ele>280.8</ele>
        <time>2014-11-29T08:26:26Z</time>
      </trkpt>
      <trkpt lat="42.18772" lon="-1.52134">
        <ele>281.2</ele>
        <time>2014-11-29T08:26:26Z</time>
      </trkpt>
      <trkpt lat="42.18659" lon="-1.52141">
        <ele>280.7</ele>
        <time>2014-11-29T08:26:26Z</time>
      </trkpt>
      <trkpt lat="42.18646" lon="-1.52146">
        <ele>280.8</ele>
        <time>2014-11-29T08:26:26Z</time>
      </trkpt>
      <trkpt lat="42.18634" lon="-1.52156">
        <ele>280.9</ele>
        <time>2014-11-29T08:26:26Z</time>
      </trkpt>
      <trkpt lat="42.1861" lon="-1.5218">
        <ele>280.8</ele>
        <time>2014-11-29T08:26:26Z</time>
      </trkpt>
      <trkpt lat="42.18597" lon="-1.52192">
        <ele>280.5</ele>
        <time>2014-11-29T08:26:26Z</time>
      </trkpt>
      <trkpt lat="42.18573" lon="-1.52199">
        <ele>280.3</ele>
        <time>2014-11-29T08:26:26Z</time>
      </trkpt>
      <trkpt lat="42.18556" lon="-1.52202">
        <ele>280.3</ele>
        <time>2014-11-29T08:26:26Z</time>
      </trkpt>
      <trkpt lat="42.18539" lon="-1.52199">
        <ele>280.4</ele>
        <time>2014-11-29T08:26:26Z</time>
      </trkpt>
      <trkpt lat="42.18518" lon="-1.52193">
        <ele>280.6</ele>
        <time>2014-11-29T08:26:26Z</time>
      </trkpt>
      <trkpt lat="42.18468" lon="-1.52178">
        <ele>281.5</ele>
        <time>2014-11-29T08:26:26Z</time>
      </trkpt>
      <trkpt lat="42.18451" lon="-1.52172">
        <ele>281.7</ele>
        <time>2014-11-29T08:26:26Z</time>
      </trkpt>
      <trkpt lat="42.18411" lon="-1.5217">
        <ele>282.3</ele>
        <time>2014-11-29T08:26:26Z</time>
      </trkpt>
      <trkpt lat="42.18386" lon="-1.52171">
        <ele>283.3</ele>
        <time>2014-11-29T08:26:26Z</time>
      </trkpt>
      <trkpt lat="42.18368" lon="-1.52176">
        <ele>284.1</ele>
        <time>2014-11-29T08:26:26Z</time>
      </trkpt>
      <trkpt lat="42.18334" lon="-1.52192">
        <ele>285.6</ele>
        <time>2014-11-29T08:26:26Z</time>
      </trkpt>
      <trkpt lat="42.18317" lon="-1.52197">
        <ele>285.9</ele>
        <time>2014-11-29T08:26:26Z</time>
      </trkpt>
      <trkpt lat="42.18273" lon="-1.52205">
        <ele>286.6</ele>
        <time>2014-11-29T08:26:26Z</time>
      </trkpt>
      <trkpt lat="42.18255" lon="-1.52205">
        <ele>286.8</ele>
        <time>2014-11-29T08:26:26Z</time>
      </trkpt>
      <trkpt lat="42.18238" lon="-1.52198">
        <ele>286.9</ele>
        <time>2014-11-29T08:26:26Z</time>
      </trkpt>
      <trkpt lat="42.18157" lon="-1.52146">
        <ele>287.4</ele>
        <time>2014-11-29T08:26:26Z</time>
      </trkpt>
      <trkpt lat="42.18128" lon="-1.52128">
        <ele>288.6</ele>
        <time>2014-11-29T08:26:26Z</time>
      </trkpt>
      <trkpt lat="42.18087" lon="-1.52114">
        <ele>290.2</ele>
        <time>2014-11-29T08:26:26Z</time>
      </trkpt>
      <trkpt lat="42.18062" lon="-1.5211">
        <ele>290.5</ele>
        <time>2014-11-29T08:26:26Z</time>
      </trkpt>
      <trkpt lat="42.18043" lon="-1.52112">
        <ele>290.7</ele>
        <time>2014-11-29T08:26:26Z</time>
      </trkpt>
      <trkpt lat="42.18016" lon="-1.5213">
        <ele>291.5</ele>
        <time>2014-11-29T08:26:26Z</time>
      </trkpt>
      <trkpt lat="42.17968" lon="-1.52163">
        <ele>293.3</ele>
        <time>2014-11-29T08:26:26Z</time>
      </trkpt>
      <trkpt lat="42.17943" lon="-1.52188">
        <ele>294.5</ele>
        <time>2014-11-29T08:26:26Z</time>
      </trkpt>
      <trkpt lat="42.17928" lon="-1.52205">
        <ele>295.3</ele>
        <time>2014-11-29T08:26:26Z</time>
      </trkpt>
      <trkpt lat="42.17918" lon="-1.52224">
        <ele>296.1</ele>
        <time>2014-11-29T08:26:26Z</time>
      </trkpt>
      <trkpt lat="42.17896" lon="-1.52277">
        <ele>298.7</ele>
        <time>2014-11-29T08:26:26Z</time>
      </trkpt>
    </trkseg>
  </trk>
  <trk>
    <name><![CDATA[4 - Landazuria]]></name>
    <extensions>
      <line xmlns="http://www.topografix.com/GPX/gpx_style/0/2">
        <color>0080ff</color>
        <opacity>0.5</opacity>
        <width>12</width>
      </line>
    </extensions>
    <trkseg>
      <trkpt lat="42.2064" lon="-1.58592">
        <ele>477</ele>
        <time>2010-10-31T14:41:52Z</time>
      </trkpt>
      <trkpt lat="42.2065" lon="-1.58594">
        <ele>477</ele>
        <time>2010-10-31T14:41:55Z</time>
      </trkpt>
      <trkpt lat="42.20685" lon="-1.5857">
        <ele>476</ele>
        <time>2010-10-31T14:42:08Z</time>
      </trkpt>
      <trkpt lat="42.20752" lon="-1.58552">
        <ele>468</ele>
        <time>2010-10-31T14:42:30Z</time>
      </trkpt>
      <trkpt lat="42.2082" lon="-1.58519">
        <ele>458</ele>
        <time>2010-10-31T14:42:55Z</time>
      </trkpt>
      <trkpt lat="42.2086" lon="-1.58513">
        <ele>455</ele>
        <time>2010-10-31T14:43:08Z</time>
      </trkpt>
      <trkpt lat="42.20893" lon="-1.58504">
        <ele>453</ele>
        <time>2010-10-31T14:43:18Z</time>
      </trkpt>
      <trkpt lat="42.20959" lon="-1.58432">
        <ele>447</ele>
        <time>2010-10-31T14:43:48Z</time>
      </trkpt>
      <trkpt lat="42.21019" lon="-1.58393">
        <ele>436</ele>
        <time>2010-10-31T14:44:09Z</time>
      </trkpt>
      <trkpt lat="42.2107" lon="-1.58371">
        <ele>425</ele>
        <time>2010-10-31T14:44:28Z</time>
      </trkpt>
      <trkpt lat="42.21072" lon="-1.58371">
        <ele>425</ele>
        <time>2010-10-31T14:44:28Z</time>
      </trkpt>
      <trkpt lat="42.21109" lon="-1.58374">
        <ele>422</ele>
        <time>2010-10-31T14:44:41Z</time>
      </trkpt>
      <trkpt lat="42.21156" lon="-1.58367">
        <ele>417</ele>
        <time>2010-10-31T14:44:57Z</time>
      </trkpt>
      <trkpt lat="42.21187" lon="-1.58346">
        <ele>411</ele>
        <time>2010-10-31T14:45:08Z</time>
      </trkpt>
      <trkpt lat="42.21225" lon="-1.58354">
        <ele>411</ele>
        <time>2010-10-31T14:45:20Z</time>
      </trkpt>
      <trkpt lat="42.21312" lon="-1.58392">
        <ele>401</ele>
        <time>2010-10-31T14:45:51Z</time>
      </trkpt>
      <trkpt lat="42.21381" lon="-1.58416">
        <ele>400</ele>
        <time>2010-10-31T14:46:15Z</time>
      </trkpt>
      <trkpt lat="42.21412" lon="-1.58405">
        <ele>402</ele>
        <time>2010-10-31T14:46:26Z</time>
      </trkpt>
      <trkpt lat="42.21469" lon="-1.58415">
        <ele>404</ele>
        <time>2010-10-31T14:46:45Z</time>
      </trkpt>
      <trkpt lat="42.21576" lon="-1.58379">
        <ele>392</ele>
        <time>2010-10-31T14:47:21Z</time>
      </trkpt>
      <trkpt lat="42.21601" lon="-1.58368">
        <ele>388</ele>
        <time>2010-10-31T14:47:31Z</time>
      </trkpt>
      <trkpt lat="42.21675" lon="-1.58387">
        <ele>386</ele>
        <time>2010-10-31T14:47:55Z</time>
      </trkpt>
      <trkpt lat="42.21785" lon="-1.58403">
        <ele>378</ele>
        <time>2010-10-31T14:48:32Z</time>
      </trkpt>
      <trkpt lat="42.21839" lon="-1.5842">
        <ele>375</ele>
        <time>2010-10-31T14:48:51Z</time>
      </trkpt>
      <trkpt lat="42.21889" lon="-1.58393">
        <ele>374</ele>
        <time>2010-10-31T14:49:08Z</time>
      </trkpt>
      <trkpt lat="42.2196" lon="-1.58307">
        <ele>366</ele>
        <time>2010-10-31T14:49:40Z</time>
      </trkpt>
      <trkpt lat="42.22004" lon="-1.58278">
        <ele>361</ele>
        <time>2010-10-31T14:49:56Z</time>
      </trkpt>
      <trkpt lat="42.22007" lon="-1.58276">
        <ele>361</ele>
        <time>2010-10-31T14:49:58Z</time>
      </trkpt>
      <trkpt lat="42.22201" lon="-1.58179">
        <ele>366</ele>
        <time>2010-10-31T14:51:06Z</time>
      </trkpt>
      <trkpt lat="42.22223" lon="-1.5816">
        <ele>368</ele>
        <time>2010-10-31T14:51:16Z</time>
      </trkpt>
      <trkpt lat="42.22256" lon="-1.58104">
        <ele>370</ele>
        <time>2010-10-31T14:51:33Z</time>
      </trkpt>
      <trkpt lat="42.22276" lon="-1.58078">
        <ele>373</ele>
        <time>2010-10-31T14:51:43Z</time>
      </trkpt>
      <trkpt lat="42.22277" lon="-1.58077">
        <ele>373</ele>
        <time>2010-10-31T14:51:43Z</time>
      </trkpt>
      <trkpt lat="42.22302" lon="-1.58055">
        <ele>375</ele>
        <time>2010-10-31T14:51:52Z</time>
      </trkpt>
      <trkpt lat="42.22343" lon="-1.58034">
        <ele>377</ele>
        <time>2010-10-31T14:52:08Z</time>
      </trkpt>
      <trkpt lat="42.22423" lon="-1.57933">
        <ele>384</ele>
        <time>2010-10-31T14:52:43Z</time>
      </trkpt>
      <trkpt lat="42.22505" lon="-1.57868">
        <ele>393</ele>
        <time>2010-10-31T14:53:16Z</time>
      </trkpt>
      <trkpt lat="42.2255" lon="-1.57817">
        <ele>393</ele>
        <time>2010-10-31T14:53:36Z</time>
      </trkpt>
      <trkpt lat="42.22615" lon="-1.57777">
        <ele>388</ele>
        <time>2010-10-31T14:53:58Z</time>
      </trkpt>
      <trkpt lat="42.22693" lon="-1.57727">
        <ele>370</ele>
        <time>2010-10-31T14:54:28Z</time>
      </trkpt>
      <trkpt lat="42.2272" lon="-1.57728">
        <ele>365</ele>
        <time>2010-10-31T14:54:36Z</time>
      </trkpt>
      <trkpt lat="42.22812" lon="-1.5778">
        <ele>352</ele>
        <time>2010-10-31T14:55:11Z</time>
      </trkpt>
      <trkpt lat="42.22855" lon="-1.57795">
        <ele>349</ele>
        <time>2010-10-31T14:55:24Z</time>
      </trkpt>
      <trkpt lat="42.22922" lon="-1.57833">
        <ele>348</ele>
        <time>2010-10-31T14:55:49Z</time>
      </trkpt>
      <trkpt lat="42.23013" lon="-1.57841">
        <ele>345</ele>
        <time>2010-10-31T14:56:20Z</time>
      </trkpt>
      <trkpt lat="42.23174" lon="-1.57848">
        <ele>335</ele>
        <time>2010-10-31T14:57:14Z</time>
      </trkpt>
      <trkpt lat="42.23311" lon="-1.57846">
        <ele>332</ele>
        <time>2010-10-31T14:57:58Z</time>
      </trkpt>
      <trkpt lat="42.23481" lon="-1.57853">
        <ele>333</ele>
        <time>2010-10-31T14:58:56Z</time>
      </trkpt>
      <trkpt lat="42.23558" lon="-1.57846">
        <ele>334</ele>
        <time>2010-10-31T14:59:21Z</time>
      </trkpt>
      <trkpt lat="42.23622" lon="-1.57827">
        <ele>333</ele>
        <time>2010-10-31T14:59:42Z</time>
      </trkpt>
      <trkpt lat="42.23738" lon="-1.57795">
        <ele>335</ele>
        <time>2010-10-31T15:00:23Z</time>
      </trkpt>
      <trkpt lat="42.2375" lon="-1.578">
        <ele>335</ele>
        <time>2010-10-31T15:00:26Z</time>
      </trkpt>
      <trkpt lat="42.23787" lon="-1.58127">
        <ele>337</ele>
        <time>2010-10-31T15:01:49Z</time>
      </trkpt>
      <trkpt lat="42.23793" lon="-1.58209">
        <ele>334</ele>
        <time>2010-10-31T15:02:08Z</time>
      </trkpt>
      <trkpt lat="42.23824" lon="-1.58325">
        <ele>335</ele>
        <time>2010-10-31T15:02:40Z</time>
      </trkpt>
      <trkpt lat="42.23835" lon="-1.58384">
        <ele>336</ele>
        <time>2010-10-31T15:02:54Z</time>
      </trkpt>
      <trkpt lat="42.23851" lon="-1.58438">
        <ele>337</ele>
        <time>2010-10-31T15:03:09Z</time>
      </trkpt>
      <trkpt lat="42.23872" lon="-1.58655">
        <ele>340</ele>
        <time>2010-10-31T15:04:03Z</time>
      </trkpt>
      <trkpt lat="42.23889" lon="-1.58816">
        <ele>341</ele>
        <time>2010-10-31T15:04:44Z</time>
      </trkpt>
      <trkpt lat="42.23909" lon="-1.58962">
        <ele>343</ele>
        <time>2010-10-31T15:05:21Z</time>
      </trkpt>
      <trkpt lat="42.23909" lon="-1.58964">
        <ele>343</ele>
        <time>2010-10-31T15:05:21Z</time>
      </trkpt>
      <trkpt lat="42.23917" lon="-1.59052">
        <ele>342</ele>
        <time>2010-10-31T15:05:43Z</time>
      </trkpt>
      <trkpt lat="42.23921" lon="-1.59132">
        <ele>340</ele>
        <time>2010-10-31T15:06:02Z</time>
      </trkpt>
      <trkpt lat="42.23939" lon="-1.59179">
        <ele>340</ele>
        <time>2010-10-31T15:06:16Z</time>
      </trkpt>
      <trkpt lat="42.23942" lon="-1.59217">
        <ele>340</ele>
        <time>2010-10-31T15:06:25Z</time>
      </trkpt>
      <trkpt lat="42.23938" lon="-1.59325">
        <ele>342</ele>
        <time>2010-10-31T15:06:52Z</time>
      </trkpt>
      <trkpt lat="42.23939" lon="-1.59343">
        <ele>342</ele>
        <time>2010-10-31T15:06:56Z</time>
      </trkpt>
      <trkpt lat="42.23982" lon="-1.59502">
        <ele>345</ele>
        <time>2010-10-31T15:07:38Z</time>
      </trkpt>
      <trkpt lat="42.23996" lon="-1.59615">
        <ele>345</ele>
        <time>2010-10-31T15:08:06Z</time>
      </trkpt>
      <trkpt lat="42.24001" lon="-1.59677">
        <ele>344</ele>
        <time>2010-10-31T15:08:21Z</time>
      </trkpt>
      <trkpt lat="42.24013" lon="-1.59719">
        <ele>341</ele>
        <time>2010-10-31T15:08:33Z</time>
      </trkpt>
      <trkpt lat="42.24024" lon="-1.59735">
        <ele>341</ele>
        <time>2010-10-31T15:08:38Z</time>
      </trkpt>
      <trkpt lat="42.24048" lon="-1.59746">
        <ele>341</ele>
        <time>2010-10-31T15:08:46Z</time>
      </trkpt>
      <trkpt lat="42.24107" lon="-1.59791">
        <ele>340</ele>
        <time>2010-10-31T15:09:10Z</time>
      </trkpt>
      <trkpt lat="42.24158" lon="-1.59813">
        <ele>339</ele>
        <time>2010-10-31T15:09:28Z</time>
      </trkpt>
      <trkpt lat="42.24179" lon="-1.59835">
        <ele>338</ele>
        <time>2010-10-31T15:09:36Z</time>
      </trkpt>
      <trkpt lat="42.24261" lon="-1.5994">
        <ele>344</ele>
        <time>2010-10-31T15:10:14Z</time>
      </trkpt>
      <trkpt lat="42.24309" lon="-1.59985">
        <ele>343</ele>
        <time>2010-10-31T15:10:34Z</time>
      </trkpt>
      <trkpt lat="42.24335" lon="-1.60015">
        <ele>344</ele>
        <time>2010-10-31T15:10:44Z</time>
      </trkpt>
      <trkpt lat="42.24372" lon="-1.60032">
        <ele>345</ele>
        <time>2010-10-31T15:10:57Z</time>
      </trkpt>
      <trkpt lat="42.24403" lon="-1.60033">
        <ele>348</ele>
        <time>2010-10-31T15:11:09Z</time>
      </trkpt>
      <trkpt lat="42.24405" lon="-1.60033">
        <ele>348</ele>
        <time>2010-10-31T15:11:09Z</time>
      </trkpt>
      <trkpt lat="42.24436" lon="-1.60023">
        <ele>348</ele>
        <time>2010-10-31T15:11:19Z</time>
      </trkpt>
      <trkpt lat="42.24458" lon="-1.60011">
        <ele>348</ele>
        <time>2010-10-31T15:11:28Z</time>
      </trkpt>
      <trkpt lat="42.24489" lon="-1.60016">
        <ele>347</ele>
        <time>2010-10-31T15:11:38Z</time>
      </trkpt>
      <trkpt lat="42.24512" lon="-1.60039">
        <ele>347</ele>
        <time>2010-10-31T15:11:48Z</time>
      </trkpt>
      <trkpt lat="42.24513" lon="-1.60041">
        <ele>347</ele>
        <time>2010-10-31T15:11:48Z</time>
      </trkpt>
      <trkpt lat="42.24555" lon="-1.60055">
        <ele>341</ele>
        <time>2010-10-31T15:12:03Z</time>
      </trkpt>
      <trkpt lat="42.24575" lon="-1.60062">
        <ele>340</ele>
        <time>2010-10-31T15:12:10Z</time>
      </trkpt>
      <trkpt lat="42.24583" lon="-1.60076">
        <ele>337</ele>
        <time>2010-10-31T15:12:13Z</time>
      </trkpt>
      <trkpt lat="42.24588" lon="-1.60121">
        <ele>335</ele>
        <time>2010-10-31T15:12:24Z</time>
      </trkpt>
      <trkpt lat="42.24589" lon="-1.60124">
        <ele>335</ele>
        <time>2010-10-31T15:12:26Z</time>
      </trkpt>
      <trkpt lat="42.24609" lon="-1.60209">
        <ele>331</ele>
        <time>2010-10-31T15:12:48Z</time>
      </trkpt>
      <trkpt lat="42.24616" lon="-1.60265">
        <ele>330</ele>
        <time>2010-10-31T15:13:01Z</time>
      </trkpt>
      <trkpt lat="42.24616" lon="-1.60268">
        <ele>330</ele>
        <time>2010-10-31T15:13:03Z</time>
      </trkpt>
      <trkpt lat="42.24607" lon="-1.60314">
        <ele>329</ele>
        <time>2010-10-31T15:13:14Z</time>
      </trkpt>
      <trkpt lat="42.24594" lon="-1.6037">
        <ele>326</ele>
        <time>2010-10-31T15:13:29Z</time>
      </trkpt>
      <trkpt lat="42.24595" lon="-1.60406">
        <ele>323</ele>
        <time>2010-10-31T15:13:38Z</time>
      </trkpt>
      <trkpt lat="42.24614" lon="-1.60488">
        <ele>317</ele>
        <time>2010-10-31T15:13:58Z</time>
      </trkpt>
      <trkpt lat="42.24637" lon="-1.60517">
        <ele>315</ele>
        <time>2010-10-31T15:14:09Z</time>
      </trkpt>
      <trkpt lat="42.24645" lon="-1.60596">
        <ele>315</ele>
        <time>2010-10-31T15:14:30Z</time>
      </trkpt>
      <trkpt lat="42.24645" lon="-1.60648">
        <ele>316</ele>
        <time>2010-10-31T15:14:43Z</time>
      </trkpt>
      <trkpt lat="42.24632" lon="-1.60716">
        <ele>316</ele>
        <time>2010-10-31T15:14:59Z</time>
      </trkpt>
      <trkpt lat="42.24642" lon="-1.60742">
        <ele>316</ele>
        <time>2010-10-31T15:15:07Z</time>
      </trkpt>
      <trkpt lat="42.24697" lon="-1.60844">
        <ele>315</ele>
        <time>2010-10-31T15:15:37Z</time>
      </trkpt>
      <trkpt lat="42.24698" lon="-1.60845">
        <ele>315</ele>
        <time>2010-10-31T15:15:39Z</time>
      </trkpt>
      <trkpt lat="42.24722" lon="-1.6093">
        <ele>317</ele>
        <time>2010-10-31T15:16:01Z</time>
      </trkpt>
      <trkpt lat="42.24756" lon="-1.61051">
        <ele>317</ele>
        <time>2010-10-31T15:16:33Z</time>
      </trkpt>
      <trkpt lat="42.24759" lon="-1.61109">
        <ele>318</ele>
        <time>2010-10-31T15:16:47Z</time>
      </trkpt>
      <trkpt lat="42.24748" lon="-1.61158">
        <ele>320</ele>
        <time>2010-10-31T15:17:00Z</time>
      </trkpt>
      <trkpt lat="42.24747" lon="-1.61196">
        <ele>322</ele>
        <time>2010-10-31T15:17:09Z</time>
      </trkpt>
      <trkpt lat="42.24766" lon="-1.61303">
        <ele>323</ele>
        <time>2010-10-31T15:17:36Z</time>
      </trkpt>
      <trkpt lat="42.24794" lon="-1.6146">
        <ele>324</ele>
        <time>2010-10-31T15:18:16Z</time>
      </trkpt>
      <trkpt lat="42.24838" lon="-1.61705">
        <ele>320</ele>
        <time>2010-10-31T15:19:18Z</time>
      </trkpt>
      <trkpt lat="42.24855" lon="-1.618">
        <ele>319</ele>
        <time>2010-10-31T15:19:42Z</time>
      </trkpt>
      <trkpt lat="42.24855" lon="-1.61804">
        <ele>319</ele>
        <time>2010-10-31T15:19:44Z</time>
      </trkpt>
      <trkpt lat="42.24861" lon="-1.6185">
        <ele>322</ele>
        <time>2010-10-31T15:19:55Z</time>
      </trkpt>
      <trkpt lat="42.24869" lon="-1.61901">
        <ele>323</ele>
        <time>2010-10-31T15:20:09Z</time>
      </trkpt>
      <trkpt lat="42.24868" lon="-1.61997">
        <ele>321</ele>
        <time>2010-10-31T15:20:33Z</time>
      </trkpt>
      <trkpt lat="42.24859" lon="-1.62088">
        <ele>319</ele>
        <time>2010-10-31T15:20:55Z</time>
      </trkpt>
      <trkpt lat="42.24833" lon="-1.62202">
        <ele>320</ele>
        <time>2010-10-31T15:21:24Z</time>
      </trkpt>
      <trkpt lat="42.24829" lon="-1.62274">
        <ele>319</ele>
        <time>2010-10-31T15:21:43Z</time>
      </trkpt>
      <trkpt lat="42.24833" lon="-1.62348">
        <ele>321</ele>
        <time>2010-10-31T15:22:01Z</time>
      </trkpt>
      <trkpt lat="42.24831" lon="-1.62365">
        <ele>321</ele>
        <time>2010-10-31T15:22:05Z</time>
      </trkpt>
      <trkpt lat="42.24826" lon="-1.62371">
        <ele>321</ele>
        <time>2010-10-31T15:22:07Z</time>
      </trkpt>
      <trkpt lat="42.24809" lon="-1.62369">
        <ele>321</ele>
        <time>2010-10-31T15:22:12Z</time>
      </trkpt>
      <trkpt lat="42.24761" lon="-1.62393">
        <ele>322</ele>
        <time>2010-10-31T15:22:29Z</time>
      </trkpt>
      <trkpt lat="42.24721" lon="-1.62406">
        <ele>323</ele>
        <time>2010-10-31T15:22:44Z</time>
      </trkpt>
      <trkpt lat="42.24668" lon="-1.624">
        <ele>319</ele>
        <time>2010-10-31T15:23:01Z</time>
      </trkpt>
      <trkpt lat="42.24582" lon="-1.62402">
        <ele>326</ele>
        <time>2010-10-31T15:23:30Z</time>
      </trkpt>
      <trkpt lat="42.24499" lon="-1.624">
        <ele>329</ele>
        <time>2010-10-31T15:23:57Z</time>
      </trkpt>
      <trkpt lat="42.24455" lon="-1.624">
        <ele>328</ele>
        <time>2010-10-31T15:24:13Z</time>
      </trkpt>
      <trkpt lat="42.24418" lon="-1.62426">
        <ele>327</ele>
        <time>2010-10-31T15:24:27Z</time>
      </trkpt>
      <trkpt lat="42.24359" lon="-1.62469">
        <ele>326</ele>
        <time>2010-10-31T15:24:48Z</time>
      </trkpt>
      <trkpt lat="42.24321" lon="-1.62501">
        <ele>324</ele>
        <time>2010-10-31T15:25:04Z</time>
      </trkpt>
      <trkpt lat="42.24177" lon="-1.62587">
        <ele>317</ele>
        <time>2010-10-31T15:25:56Z</time>
      </trkpt>
      <trkpt lat="42.24153" lon="-1.62608">
        <ele>317</ele>
        <time>2010-10-31T15:26:06Z</time>
      </trkpt>
      <trkpt lat="42.24092" lon="-1.62612">
        <ele>323</ele>
        <time>2010-10-31T15:26:26Z</time>
      </trkpt>
      <trkpt lat="42.24092" lon="-1.62612">
        <ele>323</ele>
        <time>2010-10-31T15:26:26Z</time>
      </trkpt>
      <trkpt lat="42.24059" lon="-1.6262">
        <ele>326</ele>
        <time>2010-10-31T15:26:36Z</time>
      </trkpt>
      <trkpt lat="42.24004" lon="-1.62689">
        <ele>329</ele>
        <time>2010-10-31T15:27:02Z</time>
      </trkpt>
      <trkpt lat="42.23993" lon="-1.62697">
        <ele>329</ele>
        <time>2010-10-31T15:27:06Z</time>
      </trkpt>
      <trkpt lat="42.23982" lon="-1.62683">
        <ele>331</ele>
        <time>2010-10-31T15:27:11Z</time>
      </trkpt>
      <trkpt lat="42.23945" lon="-1.6262">
        <ele>329</ele>
        <time>2010-10-31T15:27:32Z</time>
      </trkpt>
      <trkpt lat="42.23679" lon="-1.62182">
        <ele>337</ele>
        <time>2010-10-31T15:29:50Z</time>
      </trkpt>
      <trkpt lat="42.23624" lon="-1.62107">
        <ele>332</ele>
        <time>2010-10-31T15:30:16Z</time>
      </trkpt>
      <trkpt lat="42.23425" lon="-1.61841">
        <ele>344</ele>
        <time>2010-10-31T15:31:51Z</time>
      </trkpt>
      <trkpt lat="42.23366" lon="-1.61772">
        <ele>345</ele>
        <time>2010-10-31T15:32:17Z</time>
      </trkpt>
      <trkpt lat="42.23338" lon="-1.61729">
        <ele>345</ele>
        <time>2010-10-31T15:32:31Z</time>
      </trkpt>
      <trkpt lat="42.23313" lon="-1.61666">
        <ele>346</ele>
        <time>2010-10-31T15:32:49Z</time>
      </trkpt>
      <trkpt lat="42.23297" lon="-1.61608">
        <ele>345</ele>
        <time>2010-10-31T15:33:04Z</time>
      </trkpt>
      <trkpt lat="42.23286" lon="-1.61547">
        <ele>346</ele>
        <time>2010-10-31T15:33:20Z</time>
      </trkpt>
      <trkpt lat="42.23261" lon="-1.61486">
        <ele>351</ele>
        <time>2010-10-31T15:33:36Z</time>
      </trkpt>
      <trkpt lat="42.23253" lon="-1.61477">
        <ele>351</ele>
        <time>2010-10-31T15:33:39Z</time>
      </trkpt>
      <trkpt lat="42.2324" lon="-1.6148">
        <ele>351</ele>
        <time>2010-10-31T15:33:44Z</time>
      </trkpt>
      <trkpt lat="42.23157" lon="-1.61519">
        <ele>360</ele>
        <time>2010-10-31T15:34:14Z</time>
      </trkpt>
      <trkpt lat="42.23108" lon="-1.61535">
        <ele>370</ele>
        <time>2010-10-31T15:34:30Z</time>
      </trkpt>
      <trkpt lat="42.23071" lon="-1.61535">
        <ele>373</ele>
        <time>2010-10-31T15:34:43Z</time>
      </trkpt>
      <trkpt lat="42.23045" lon="-1.61544">
        <ele>377</ele>
        <time>2010-10-31T15:34:51Z</time>
      </trkpt>
      <trkpt lat="42.23037" lon="-1.61562">
        <ele>376</ele>
        <time>2010-10-31T15:34:56Z</time>
      </trkpt>
      <trkpt lat="42.23009" lon="-1.61576">
        <ele>375</ele>
        <time>2010-10-31T15:35:07Z</time>
      </trkpt>
      <trkpt lat="42.22965" lon="-1.61599">
        <ele>374</ele>
        <time>2010-10-31T15:35:23Z</time>
      </trkpt>
      <trkpt lat="42.22942" lon="-1.61587">
        <ele>374</ele>
        <time>2010-10-31T15:35:31Z</time>
      </trkpt>
      <trkpt lat="42.22865" lon="-1.61568">
        <ele>372</ele>
        <time>2010-10-31T15:35:56Z</time>
      </trkpt>
      <trkpt lat="42.22826" lon="-1.6155">
        <ele>377</ele>
        <time>2010-10-31T15:36:11Z</time>
      </trkpt>
      <trkpt lat="42.22792" lon="-1.61548">
        <ele>384</ele>
        <time>2010-10-31T15:36:22Z</time>
      </trkpt>
      <trkpt lat="42.22763" lon="-1.61556">
        <ele>398</ele>
        <time>2010-10-31T15:36:31Z</time>
      </trkpt>
      <trkpt lat="42.22681" lon="-1.61585">
        <ele>411</ele>
        <time>2010-10-31T15:37:00Z</time>
      </trkpt>
      <trkpt lat="42.22659" lon="-1.61594">
        <ele>414</ele>
        <time>2010-10-31T15:37:08Z</time>
      </trkpt>
      <trkpt lat="42.22634" lon="-1.61609">
        <ele>417</ele>
        <time>2010-10-31T15:37:16Z</time>
      </trkpt>
      <trkpt lat="42.22618" lon="-1.61623">
        <ele>417</ele>
        <time>2010-10-31T15:37:22Z</time>
      </trkpt>
      <trkpt lat="42.22607" lon="-1.61639">
        <ele>417</ele>
        <time>2010-10-31T15:37:29Z</time>
      </trkpt>
      <trkpt lat="42.22595" lon="-1.61638">
        <ele>416</ele>
        <time>2010-10-31T15:37:32Z</time>
      </trkpt>
      <trkpt lat="42.22577" lon="-1.6161">
        <ele>416</ele>
        <time>2010-10-31T15:37:41Z</time>
      </trkpt>
      <trkpt lat="42.22576" lon="-1.61609">
        <ele>416</ele>
        <time>2010-10-31T15:37:41Z</time>
      </trkpt>
      <trkpt lat="42.22553" lon="-1.61535">
        <ele>416</ele>
        <time>2010-10-31T15:38:02Z</time>
      </trkpt>
      <trkpt lat="42.22542" lon="-1.61512">
        <ele>417</ele>
        <time>2010-10-31T15:38:09Z</time>
      </trkpt>
      <trkpt lat="42.22506" lon="-1.61465">
        <ele>423</ele>
        <time>2010-10-31T15:38:26Z</time>
      </trkpt>
      <trkpt lat="42.22467" lon="-1.61413">
        <ele>430</ele>
        <time>2010-10-31T15:38:44Z</time>
      </trkpt>
      <trkpt lat="42.22433" lon="-1.61381">
        <ele>433</ele>
        <time>2010-10-31T15:38:58Z</time>
      </trkpt>
      <trkpt lat="42.22413" lon="-1.61365">
        <ele>439</ele>
        <time>2010-10-31T15:39:04Z</time>
      </trkpt>
      <trkpt lat="42.22375" lon="-1.61344">
        <ele>440</ele>
        <time>2010-10-31T15:39:19Z</time>
      </trkpt>
      <trkpt lat="42.22341" lon="-1.61319">
        <ele>431</ele>
        <time>2010-10-31T15:39:31Z</time>
      </trkpt>
      <trkpt lat="42.2234" lon="-1.61319">
        <ele>431</ele>
        <time>2010-10-31T15:39:31Z</time>
      </trkpt>
      <trkpt lat="42.22317" lon="-1.61294">
        <ele>424</ele>
        <time>2010-10-31T15:39:42Z</time>
      </trkpt>
      <trkpt lat="42.22242" lon="-1.61157">
        <ele>418</ele>
        <time>2010-10-31T15:40:24Z</time>
      </trkpt>
      <trkpt lat="42.22228" lon="-1.61131">
        <ele>418</ele>
        <time>2010-10-31T15:40:32Z</time>
      </trkpt>
      <trkpt lat="42.22118" lon="-1.60957">
        <ele>429</ele>
        <time>2010-10-31T15:41:29Z</time>
      </trkpt>
      <trkpt lat="42.22091" lon="-1.60934">
        <ele>431</ele>
        <time>2010-10-31T15:41:40Z</time>
      </trkpt>
      <trkpt lat="42.22055" lon="-1.60881">
        <ele>433</ele>
        <time>2010-10-31T15:41:56Z</time>
      </trkpt>
      <trkpt lat="42.22025" lon="-1.60814">
        <ele>433</ele>
        <time>2010-10-31T15:42:17Z</time>
      </trkpt>
      <trkpt lat="42.22011" lon="-1.60781">
        <ele>436</ele>
        <time>2010-10-31T15:42:25Z</time>
      </trkpt>
      <trkpt lat="42.21969" lon="-1.60725">
        <ele>438</ele>
        <time>2010-10-31T15:42:46Z</time>
      </trkpt>
      <trkpt lat="42.2195" lon="-1.6067">
        <ele>437</ele>
        <time>2010-10-31T15:43:00Z</time>
      </trkpt>
      <trkpt lat="42.21933" lon="-1.60636">
        <ele>436</ele>
        <time>2010-10-31T15:43:11Z</time>
      </trkpt>
      <trkpt lat="42.21909" lon="-1.6061">
        <ele>435</ele>
        <time>2010-10-31T15:43:21Z</time>
      </trkpt>
      <trkpt lat="42.2189" lon="-1.60594">
        <ele>434</ele>
        <time>2010-10-31T15:43:29Z</time>
      </trkpt>
      <trkpt lat="42.21861" lon="-1.60545">
        <ele>433</ele>
        <time>2010-10-31T15:43:44Z</time>
      </trkpt>
      <trkpt lat="42.21794" lon="-1.60436">
        <ele>442</ele>
        <time>2010-10-31T15:44:19Z</time>
      </trkpt>
      <trkpt lat="42.21757" lon="-1.60367">
        <ele>449</ele>
        <time>2010-10-31T15:44:40Z</time>
      </trkpt>
      <trkpt lat="42.21749" lon="-1.60355">
        <ele>449</ele>
        <time>2010-10-31T15:44:43Z</time>
      </trkpt>
      <trkpt lat="42.21741" lon="-1.60335">
        <ele>452</ele>
        <time>2010-10-31T15:44:50Z</time>
      </trkpt>
      <trkpt lat="42.21705" lon="-1.60293">
        <ele>451</ele>
        <time>2010-10-31T15:45:06Z</time>
      </trkpt>
      <trkpt lat="42.21665" lon="-1.60238">
        <ele>452</ele>
        <time>2010-10-31T15:45:25Z</time>
      </trkpt>
      <trkpt lat="42.21633" lon="-1.60186">
        <ele>448</ele>
        <time>2010-10-31T15:45:42Z</time>
      </trkpt>
      <trkpt lat="42.21599" lon="-1.60143">
        <ele>451</ele>
        <time>2010-10-31T15:45:57Z</time>
      </trkpt>
      <trkpt lat="42.21563" lon="-1.60091">
        <ele>452</ele>
        <time>2010-10-31T15:46:14Z</time>
      </trkpt>
      <trkpt lat="42.21545" lon="-1.60048">
        <ele>452</ele>
        <time>2010-10-31T15:46:27Z</time>
      </trkpt>
      <trkpt lat="42.21528" lon="-1.60021">
        <ele>452</ele>
        <time>2010-10-31T15:46:36Z</time>
      </trkpt>
      <trkpt lat="42.21509" lon="-1.59993">
        <ele>451</ele>
        <time>2010-10-31T15:46:44Z</time>
      </trkpt>
      <trkpt lat="42.2149" lon="-1.59956">
        <ele>451</ele>
        <time>2010-10-31T15:46:55Z</time>
      </trkpt>
      <trkpt lat="42.21468" lon="-1.59936">
        <ele>450</ele>
        <time>2010-10-31T15:47:05Z</time>
      </trkpt>
      <trkpt lat="42.21447" lon="-1.59896">
        <ele>450</ele>
        <time>2010-10-31T15:47:16Z</time>
      </trkpt>
      <trkpt lat="42.21409" lon="-1.59854">
        <ele>451</ele>
        <time>2010-10-31T15:47:34Z</time>
      </trkpt>
      <trkpt lat="42.21349" lon="-1.59745">
        <ele>460</ele>
        <time>2010-10-31T15:48:07Z</time>
      </trkpt>
      <trkpt lat="42.21318" lon="-1.59706">
        <ele>462</ele>
        <time>2010-10-31T15:48:21Z</time>
      </trkpt>
      <trkpt lat="42.21277" lon="-1.59657">
        <ele>461</ele>
        <time>2010-10-31T15:48:40Z</time>
      </trkpt>
      <trkpt lat="42.21227" lon="-1.59601">
        <ele>457</ele>
        <time>2010-10-31T15:49:00Z</time>
      </trkpt>
      <trkpt lat="42.21186" lon="-1.59551">
        <ele>457</ele>
        <time>2010-10-31T15:49:19Z</time>
      </trkpt>
      <trkpt lat="42.21159" lon="-1.595">
        <ele>457</ele>
        <time>2010-10-31T15:49:35Z</time>
      </trkpt>
      <trkpt lat="42.21158" lon="-1.59498">
        <ele>457</ele>
        <time>2010-10-31T15:49:35Z</time>
      </trkpt>
      <trkpt lat="42.21133" lon="-1.59438">
        <ele>458</ele>
        <time>2010-10-31T15:49:52Z</time>
      </trkpt>
      <trkpt lat="42.21132" lon="-1.59436">
        <ele>458</ele>
        <time>2010-10-31T15:49:54Z</time>
      </trkpt>
      <trkpt lat="42.21115" lon="-1.5939">
        <ele>459</ele>
        <time>2010-10-31T15:50:06Z</time>
      </trkpt>
      <trkpt lat="42.21115" lon="-1.59388">
        <ele>459</ele>
        <time>2010-10-31T15:50:07Z</time>
      </trkpt>
      <trkpt lat="42.21101" lon="-1.59367">
        <ele>460</ele>
        <time>2010-10-31T15:50:13Z</time>
      </trkpt>
      <trkpt lat="42.21068" lon="-1.59325">
        <ele>458</ele>
        <time>2010-10-31T15:50:29Z</time>
      </trkpt>
      <trkpt lat="42.21046" lon="-1.59284">
        <ele>459</ele>
        <time>2010-10-31T15:50:41Z</time>
      </trkpt>
      <trkpt lat="42.2101" lon="-1.59227">
        <ele>461</ele>
        <time>2010-10-31T15:50:59Z</time>
      </trkpt>
      <trkpt lat="42.21009" lon="-1.59226">
        <ele>461</ele>
        <time>2010-10-31T15:50:59Z</time>
      </trkpt>
      <trkpt lat="42.20969" lon="-1.59146">
        <ele>462</ele>
        <time>2010-10-31T15:51:23Z</time>
      </trkpt>
      <trkpt lat="42.20939" lon="-1.59083">
        <ele>464</ele>
        <time>2010-10-31T15:51:42Z</time>
      </trkpt>
      <trkpt lat="42.20924" lon="-1.5906">
        <ele>465</ele>
        <time>2010-10-31T15:51:50Z</time>
      </trkpt>
      <trkpt lat="42.20903" lon="-1.59009">
        <ele>467</ele>
        <time>2010-10-31T15:52:04Z</time>
      </trkpt>
      <trkpt lat="42.20885" lon="-1.5896">
        <ele>468</ele>
        <time>2010-10-31T15:52:17Z</time>
      </trkpt>
      <trkpt lat="42.2087" lon="-1.58916">
        <ele>468</ele>
        <time>2010-10-31T15:52:30Z</time>
      </trkpt>
      <trkpt lat="42.20844" lon="-1.58886">
        <ele>468</ele>
        <time>2010-10-31T15:52:42Z</time>
      </trkpt>
      <trkpt lat="42.20812" lon="-1.5884">
        <ele>467</ele>
        <time>2010-10-31T15:52:57Z</time>
      </trkpt>
      <trkpt lat="42.20794" lon="-1.58818">
        <ele>465</ele>
        <time>2010-10-31T15:53:05Z</time>
      </trkpt>
      <trkpt lat="42.20765" lon="-1.58772">
        <ele>465</ele>
        <time>2010-10-31T15:53:19Z</time>
      </trkpt>
      <trkpt lat="42.20764" lon="-1.58772">
        <ele>465</ele>
        <time>2010-10-31T15:53:21Z</time>
      </trkpt>
      <trkpt lat="42.2074" lon="-1.5873">
        <ele>467</ele>
        <time>2010-10-31T15:53:33Z</time>
      </trkpt>
      <trkpt lat="42.20739" lon="-1.58729">
        <ele>467</ele>
        <time>2010-10-31T15:53:33Z</time>
      </trkpt>
      <trkpt lat="42.20738" lon="-1.58727">
        <ele>467</ele>
        <time>2010-10-31T15:53:35Z</time>
      </trkpt>
      <trkpt lat="42.20698" lon="-1.58655">
        <ele>473</ele>
        <time>2010-10-31T15:53:56Z</time>
      </trkpt>
      <trkpt lat="42.2068" lon="-1.58629">
        <ele>474</ele>
        <time>2010-10-31T15:54:05Z</time>
      </trkpt>
      <trkpt lat="42.20679" lon="-1.58629">
        <ele>474</ele>
        <time>2010-10-31T15:54:05Z</time>
      </trkpt>
      <trkpt lat="42.20654" lon="-1.58614">
        <ele>476</ele>
        <time>2010-10-31T15:54:15Z</time>
      </trkpt>
      <trkpt lat="42.2064" lon="-1.58602">
        <ele>475</ele>
        <time>2010-10-31T15:54:21Z</time>
        <extensions>
          <visugpx:TrkExtension xmlns:visugpx="https://www.visugpx.com/editgpx/">
            <visugpx:node>1</visugpx:node>
            </visugpx:TrkExtension>
        </extensions>
      </trkpt>
    </trkseg>
  </trk>
  <trk>
    <name><![CDATA[5 Plana de Sagasti]]></name>
    <extensions>
      <line xmlns="http://www.topografix.com/GPX/gpx_style/0/2">
        <color>ff00ff</color>
        <opacity>0.5</opacity>
        <width>12</width>
      </line>
    </extensions>
    <trkseg>
      <trkpt lat="42.11155" lon="-1.39353">
        <ele>418.8</ele>
        <time>2009-12-04T09:09:11Z</time>
      </trkpt>
      <trkpt lat="42.11156" lon="-1.39354">
        <ele>418.8</ele>
        <time>2009-12-04T09:09:23Z</time>
      </trkpt>
      <trkpt lat="42.11161" lon="-1.39361">
        <ele>419.3</ele>
        <time>2009-12-04T09:09:27Z</time>
      </trkpt>
      <trkpt lat="42.11168" lon="-1.39376">
        <ele>419.3</ele>
        <time>2009-12-04T09:09:33Z</time>
      </trkpt>
      <trkpt lat="42.11147" lon="-1.39448">
        <ele>419.8</ele>
        <time>2009-12-04T09:09:50Z</time>
      </trkpt>
      <trkpt lat="42.11146" lon="-1.39452">
        <ele>419.8</ele>
        <time>2009-12-04T09:09:51Z</time>
      </trkpt>
      <trkpt lat="42.1116" lon="-1.39465">
        <ele>419.8</ele>
        <time>2009-12-04T09:09:57Z</time>
      </trkpt>
      <trkpt lat="42.11209" lon="-1.39482">
        <ele>423.1</ele>
        <time>2009-12-04T09:10:15Z</time>
      </trkpt>
      <trkpt lat="42.11254" lon="-1.39519">
        <ele>423.6</ele>
        <time>2009-12-04T09:10:34Z</time>
      </trkpt>
      <trkpt lat="42.11293" lon="-1.39553">
        <ele>425.5</ele>
        <time>2009-12-04T09:10:50Z</time>
      </trkpt>
      <trkpt lat="42.11329" lon="-1.39584">
        <ele>427.4</ele>
        <time>2009-12-04T09:11:09Z</time>
      </trkpt>
      <trkpt lat="42.11366" lon="-1.3962">
        <ele>426</ele>
        <time>2009-12-04T09:11:26Z</time>
      </trkpt>
      <trkpt lat="42.11388" lon="-1.39633">
        <ele>425.5</ele>
        <time>2009-12-04T09:11:39Z</time>
      </trkpt>
      <trkpt lat="42.11388" lon="-1.39633">
        <ele>425.5</ele>
        <time>2009-12-04T09:12:18Z</time>
      </trkpt>
      <trkpt lat="42.11419" lon="-1.39662">
        <ele>428.4</ele>
        <time>2009-12-04T09:12:36Z</time>
      </trkpt>
      <trkpt lat="42.11445" lon="-1.39683">
        <ele>433.2</ele>
        <time>2009-12-04T09:12:52Z</time>
      </trkpt>
      <trkpt lat="42.11478" lon="-1.39719">
        <ele>436.6</ele>
        <time>2009-12-04T09:13:12Z</time>
      </trkpt>
      <trkpt lat="42.11538" lon="-1.3977">
        <ele>437.5</ele>
        <time>2009-12-04T09:13:34Z</time>
      </trkpt>
      <trkpt lat="42.11566" lon="-1.39801">
        <ele>435.6</ele>
        <time>2009-12-04T09:13:42Z</time>
      </trkpt>
      <trkpt lat="42.11576" lon="-1.39814">
        <ele>435.1</ele>
        <time>2009-12-04T09:13:45Z</time>
      </trkpt>
      <trkpt lat="42.11599" lon="-1.39846">
        <ele>437.1</ele>
        <time>2009-12-04T09:13:54Z</time>
      </trkpt>
      <trkpt lat="42.11603" lon="-1.39859">
        <ele>436.6</ele>
        <time>2009-12-04T09:13:57Z</time>
      </trkpt>
      <trkpt lat="42.11655" lon="-1.39913">
        <ele>439</ele>
        <time>2009-12-04T09:14:17Z</time>
      </trkpt>
      <trkpt lat="42.11662" lon="-1.39932">
        <ele>439.5</ele>
        <time>2009-12-04T09:14:22Z</time>
      </trkpt>
      <trkpt lat="42.11664" lon="-1.3996">
        <ele>439</ele>
        <time>2009-12-04T09:14:36Z</time>
      </trkpt>
      <trkpt lat="42.11663" lon="-1.3996">
        <ele>439</ele>
        <time>2009-12-04T09:15:15Z</time>
      </trkpt>
      <trkpt lat="42.11688" lon="-1.40003">
        <ele>439.9</ele>
        <time>2009-12-04T09:15:28Z</time>
      </trkpt>
      <trkpt lat="42.1172" lon="-1.40063">
        <ele>439.9</ele>
        <time>2009-12-04T09:15:43Z</time>
      </trkpt>
      <trkpt lat="42.11735" lon="-1.40114">
        <ele>442.3</ele>
        <time>2009-12-04T09:15:59Z</time>
      </trkpt>
      <trkpt lat="42.1176" lon="-1.40165">
        <ele>441.9</ele>
        <time>2009-12-04T09:16:16Z</time>
      </trkpt>
      <trkpt lat="42.11805" lon="-1.40193">
        <ele>439.9</ele>
        <time>2009-12-04T09:16:34Z</time>
      </trkpt>
      <trkpt lat="42.11791" lon="-1.40193">
        <ele>441.4</ele>
        <time>2009-12-04T09:16:48Z</time>
      </trkpt>
      <trkpt lat="42.11802" lon="-1.40193">
        <ele>443.3</ele>
        <time>2009-12-04T09:18:28Z</time>
      </trkpt>
      <trkpt lat="42.11823" lon="-1.40189">
        <ele>441.4</ele>
        <time>2009-12-04T09:18:33Z</time>
      </trkpt>
      <trkpt lat="42.11864" lon="-1.40192">
        <ele>443.8</ele>
        <time>2009-12-04T09:18:46Z</time>
      </trkpt>
      <trkpt lat="42.11878" lon="-1.40232">
        <ele>445.2</ele>
        <time>2009-12-04T09:18:59Z</time>
      </trkpt>
      <trkpt lat="42.11904" lon="-1.40266">
        <ele>446.2</ele>
        <time>2009-12-04T09:19:14Z</time>
      </trkpt>
      <trkpt lat="42.11952" lon="-1.40302">
        <ele>448.6</ele>
        <time>2009-12-04T09:19:34Z</time>
      </trkpt>
      <trkpt lat="42.11978" lon="-1.40304">
        <ele>448.1</ele>
        <time>2009-12-04T09:19:43Z</time>
      </trkpt>
      <trkpt lat="42.11991" lon="-1.40315">
        <ele>448.1</ele>
        <time>2009-12-04T09:19:47Z</time>
      </trkpt>
      <trkpt lat="42.12023" lon="-1.4035">
        <ele>448.6</ele>
        <time>2009-12-04T09:20:01Z</time>
      </trkpt>
      <trkpt lat="42.12068" lon="-1.40365">
        <ele>451</ele>
        <time>2009-12-04T09:20:20Z</time>
      </trkpt>
      <trkpt lat="42.12109" lon="-1.40387">
        <ele>452.4</ele>
        <time>2009-12-04T09:20:38Z</time>
      </trkpt>
      <trkpt lat="42.12161" lon="-1.40419">
        <ele>453.4</ele>
        <time>2009-12-04T09:20:59Z</time>
      </trkpt>
      <trkpt lat="42.12204" lon="-1.40443">
        <ele>454.8</ele>
        <time>2009-12-04T09:21:17Z</time>
      </trkpt>
      <trkpt lat="42.12232" lon="-1.40458">
        <ele>456.8</ele>
        <time>2009-12-04T09:21:31Z</time>
      </trkpt>
      <trkpt lat="42.12275" lon="-1.40482">
        <ele>458.2</ele>
        <time>2009-12-04T09:21:50Z</time>
      </trkpt>
      <trkpt lat="42.1231" lon="-1.40496">
        <ele>457.7</ele>
        <time>2009-12-04T09:22:02Z</time>
      </trkpt>
      <trkpt lat="42.12353" lon="-1.40521">
        <ele>463</ele>
        <time>2009-12-04T09:22:21Z</time>
      </trkpt>
      <trkpt lat="42.12387" lon="-1.40541">
        <ele>465.4</ele>
        <time>2009-12-04T09:22:40Z</time>
      </trkpt>
      <trkpt lat="42.12415" lon="-1.4055">
        <ele>464</ele>
        <time>2009-12-04T09:22:57Z</time>
      </trkpt>
      <trkpt lat="42.12427" lon="-1.40555">
        <ele>462.1</ele>
        <time>2009-12-04T09:23:28Z</time>
      </trkpt>
      <trkpt lat="42.12436" lon="-1.40574">
        <ele>461.6</ele>
        <time>2009-12-04T09:23:32Z</time>
      </trkpt>
      <trkpt lat="42.12434" lon="-1.40589">
        <ele>460.6</ele>
        <time>2009-12-04T09:23:45Z</time>
      </trkpt>
      <trkpt lat="42.12417" lon="-1.40638">
        <ele>458.2</ele>
        <time>2009-12-04T09:23:57Z</time>
      </trkpt>
      <trkpt lat="42.12412" lon="-1.40647">
        <ele>458.2</ele>
        <time>2009-12-04T09:23:59Z</time>
      </trkpt>
      <trkpt lat="42.12366" lon="-1.40698">
        <ele>456.3</ele>
        <time>2009-12-04T09:24:14Z</time>
      </trkpt>
      <trkpt lat="42.12331" lon="-1.40715">
        <ele>454.4</ele>
        <time>2009-12-04T09:24:23Z</time>
      </trkpt>
      <trkpt lat="42.12304" lon="-1.4073">
        <ele>450.5</ele>
        <time>2009-12-04T09:24:28Z</time>
      </trkpt>
      <trkpt lat="42.12273" lon="-1.40757">
        <ele>448.6</ele>
        <time>2009-12-04T09:24:34Z</time>
      </trkpt>
      <trkpt lat="42.12263" lon="-1.40766">
        <ele>448.6</ele>
        <time>2009-12-04T09:24:42Z</time>
      </trkpt>
      <trkpt lat="42.12244" lon="-1.40782">
        <ele>448.6</ele>
        <time>2009-12-04T09:25:39Z</time>
      </trkpt>
      <trkpt lat="42.12204" lon="-1.40799">
        <ele>447.6</ele>
        <time>2009-12-04T09:25:50Z</time>
      </trkpt>
      <trkpt lat="42.12162" lon="-1.40838">
        <ele>443.8</ele>
        <time>2009-12-04T09:25:59Z</time>
      </trkpt>
      <trkpt lat="42.12135" lon="-1.40854">
        <ele>441.4</ele>
        <time>2009-12-04T09:26:03Z</time>
      </trkpt>
      <trkpt lat="42.1212" lon="-1.40861">
        <ele>439.9</ele>
        <time>2009-12-04T09:26:05Z</time>
      </trkpt>
      <trkpt lat="42.12088" lon="-1.40909">
        <ele>439.5</ele>
        <time>2009-12-04T09:26:12Z</time>
      </trkpt>
      <trkpt lat="42.12073" lon="-1.40969">
        <ele>437.5</ele>
        <time>2009-12-04T09:26:20Z</time>
      </trkpt>
      <trkpt lat="42.12092" lon="-1.41019">
        <ele>435.6</ele>
        <time>2009-12-04T09:26:28Z</time>
      </trkpt>
      <trkpt lat="42.12098" lon="-1.41021">
        <ele>435.6</ele>
        <time>2009-12-04T09:26:29Z</time>
      </trkpt>
      <trkpt lat="42.12109" lon="-1.41025">
        <ele>434.2</ele>
        <time>2009-12-04T09:26:39Z</time>
      </trkpt>
      <trkpt lat="42.12109" lon="-1.41025">
        <ele>434.7</ele>
        <time>2009-12-04T09:27:09Z</time>
      </trkpt>
      <trkpt lat="42.12146" lon="-1.41022">
        <ele>435.6</ele>
        <time>2009-12-04T09:27:24Z</time>
      </trkpt>
      <trkpt lat="42.12192" lon="-1.41027">
        <ele>437.5</ele>
        <time>2009-12-04T09:27:37Z</time>
      </trkpt>
      <trkpt lat="42.12232" lon="-1.4105">
        <ele>436.6</ele>
        <time>2009-12-04T09:27:50Z</time>
      </trkpt>
      <trkpt lat="42.12239" lon="-1.41057">
        <ele>436.1</ele>
        <time>2009-12-04T09:27:52Z</time>
      </trkpt>
      <trkpt lat="42.12247" lon="-1.41073">
        <ele>436.6</ele>
        <time>2009-12-04T09:27:56Z</time>
      </trkpt>
      <trkpt lat="42.12241" lon="-1.41132">
        <ele>437.5</ele>
        <time>2009-12-04T09:28:09Z</time>
      </trkpt>
      <trkpt lat="42.12248" lon="-1.41175">
        <ele>439.9</ele>
        <time>2009-12-04T09:28:23Z</time>
      </trkpt>
      <trkpt lat="42.12276" lon="-1.41219">
        <ele>440.9</ele>
        <time>2009-12-04T09:28:39Z</time>
      </trkpt>
      <trkpt lat="42.12326" lon="-1.41242">
        <ele>438</ele>
        <time>2009-12-04T09:28:53Z</time>
      </trkpt>
      <trkpt lat="42.12348" lon="-1.41296">
        <ele>439.9</ele>
        <time>2009-12-04T09:29:06Z</time>
      </trkpt>
      <trkpt lat="42.1237" lon="-1.41371">
        <ele>439.5</ele>
        <time>2009-12-04T09:29:24Z</time>
      </trkpt>
      <trkpt lat="42.12372" lon="-1.41374">
        <ele>439.5</ele>
        <time>2009-12-04T09:29:25Z</time>
      </trkpt>
      <trkpt lat="42.1237" lon="-1.41392">
        <ele>440.4</ele>
        <time>2009-12-04T09:29:30Z</time>
      </trkpt>
      <trkpt lat="42.12358" lon="-1.41411">
        <ele>440.4</ele>
        <time>2009-12-04T09:29:36Z</time>
      </trkpt>
      <trkpt lat="42.12303" lon="-1.4142">
        <ele>441.9</ele>
        <time>2009-12-04T09:29:55Z</time>
      </trkpt>
      <trkpt lat="42.12304" lon="-1.4142">
        <ele>443.3</ele>
        <time>2009-12-04T09:30:48Z</time>
      </trkpt>
      <trkpt lat="42.12303" lon="-1.41421">
        <ele>443.3</ele>
        <time>2009-12-04T09:31:04Z</time>
      </trkpt>
      <trkpt lat="42.12304" lon="-1.41417">
        <ele>443.3</ele>
        <time>2009-12-04T09:32:26Z</time>
      </trkpt>
      <trkpt lat="42.12303" lon="-1.41418">
        <ele>443.3</ele>
        <time>2009-12-04T09:32:47Z</time>
      </trkpt>
      <trkpt lat="42.12303" lon="-1.41418">
        <ele>443.3</ele>
        <time>2009-12-04T09:32:49Z</time>
      </trkpt>
      <trkpt lat="42.123" lon="-1.41419">
        <ele>443.3</ele>
        <time>2009-12-04T09:33:00Z</time>
      </trkpt>
      <trkpt lat="42.12302" lon="-1.41418">
        <ele>443.3</ele>
        <time>2009-12-04T09:33:36Z</time>
      </trkpt>
      <trkpt lat="42.12302" lon="-1.41418">
        <ele>443.8</ele>
        <time>2009-12-04T09:34:15Z</time>
      </trkpt>
      <trkpt lat="42.12265" lon="-1.41435">
        <ele>443.3</ele>
        <time>2009-12-04T09:34:28Z</time>
      </trkpt>
      <trkpt lat="42.12253" lon="-1.41439">
        <ele>443.8</ele>
        <time>2009-12-04T09:34:31Z</time>
      </trkpt>
      <trkpt lat="42.12172" lon="-1.41477">
        <ele>442.8</ele>
        <time>2009-12-04T09:34:48Z</time>
      </trkpt>
      <trkpt lat="42.12162" lon="-1.41485">
        <ele>442.8</ele>
        <time>2009-12-04T09:34:50Z</time>
      </trkpt>
      <trkpt lat="42.12137" lon="-1.41495">
        <ele>441.9</ele>
        <time>2009-12-04T09:34:55Z</time>
      </trkpt>
      <trkpt lat="42.12049" lon="-1.41501">
        <ele>445.7</ele>
        <time>2009-12-04T09:35:12Z</time>
      </trkpt>
      <trkpt lat="42.1204" lon="-1.41504">
        <ele>444.7</ele>
        <time>2009-12-04T09:35:14Z</time>
      </trkpt>
      <trkpt lat="42.12019" lon="-1.41503">
        <ele>442.3</ele>
        <time>2009-12-04T09:35:18Z</time>
      </trkpt>
      <trkpt lat="42.12003" lon="-1.415">
        <ele>439.9</ele>
        <time>2009-12-04T09:35:21Z</time>
      </trkpt>
      <trkpt lat="42.11981" lon="-1.41508">
        <ele>437.5</ele>
        <time>2009-12-04T09:35:25Z</time>
      </trkpt>
      <trkpt lat="42.11969" lon="-1.41516">
        <ele>436.6</ele>
        <time>2009-12-04T09:35:27Z</time>
      </trkpt>
      <trkpt lat="42.11939" lon="-1.41587">
        <ele>432.2</ele>
        <time>2009-12-04T09:35:36Z</time>
      </trkpt>
      <trkpt lat="42.11939" lon="-1.41597">
        <ele>432.2</ele>
        <time>2009-12-04T09:35:37Z</time>
      </trkpt>
      <trkpt lat="42.11946" lon="-1.41685">
        <ele>430.3</ele>
        <time>2009-12-04T09:35:47Z</time>
      </trkpt>
      <trkpt lat="42.11942" lon="-1.41717">
        <ele>429.4</ele>
        <time>2009-12-04T09:35:51Z</time>
      </trkpt>
      <trkpt lat="42.11931" lon="-1.41767">
        <ele>430.3</ele>
        <time>2009-12-04T09:35:58Z</time>
      </trkpt>
      <trkpt lat="42.11922" lon="-1.41785">
        <ele>429.4</ele>
        <time>2009-12-04T09:36:01Z</time>
      </trkpt>
      <trkpt lat="42.11912" lon="-1.41843">
        <ele>429.8</ele>
        <time>2009-12-04T09:36:10Z</time>
      </trkpt>
      <trkpt lat="42.11912" lon="-1.41855">
        <ele>430.3</ele>
        <time>2009-12-04T09:36:12Z</time>
      </trkpt>
      <trkpt lat="42.11911" lon="-1.41867">
        <ele>429.4</ele>
        <time>2009-12-04T09:36:14Z</time>
      </trkpt>
      <trkpt lat="42.11906" lon="-1.41898">
        <ele>427.4</ele>
        <time>2009-12-04T09:36:19Z</time>
      </trkpt>
      <trkpt lat="42.11905" lon="-1.41928">
        <ele>425.5</ele>
        <time>2009-12-04T09:36:23Z</time>
      </trkpt>
      <trkpt lat="42.11913" lon="-1.41985">
        <ele>424.6</ele>
        <time>2009-12-04T09:36:31Z</time>
      </trkpt>
      <trkpt lat="42.11915" lon="-1.42006">
        <ele>424.1</ele>
        <time>2009-12-04T09:36:34Z</time>
      </trkpt>
      <trkpt lat="42.11914" lon="-1.42081">
        <ele>427</ele>
        <time>2009-12-04T09:36:47Z</time>
      </trkpt>
      <trkpt lat="42.11924" lon="-1.42109">
        <ele>426</ele>
        <time>2009-12-04T09:36:52Z</time>
      </trkpt>
      <trkpt lat="42.11928" lon="-1.42169">
        <ele>426</ele>
        <time>2009-12-04T09:37:04Z</time>
      </trkpt>
      <trkpt lat="42.11928" lon="-1.42234">
        <ele>428.4</ele>
        <time>2009-12-04T09:37:21Z</time>
      </trkpt>
      <trkpt lat="42.11938" lon="-1.42291">
        <ele>430.8</ele>
        <time>2009-12-04T09:37:38Z</time>
      </trkpt>
      <trkpt lat="42.11943" lon="-1.42345">
        <ele>433.2</ele>
        <time>2009-12-04T09:37:54Z</time>
      </trkpt>
      <trkpt lat="42.11949" lon="-1.42388">
        <ele>432.2</ele>
        <time>2009-12-04T09:38:06Z</time>
      </trkpt>
      <trkpt lat="42.11941" lon="-1.4245">
        <ele>428.9</ele>
        <time>2009-12-04T09:38:23Z</time>
      </trkpt>
      <trkpt lat="42.11911" lon="-1.42504">
        <ele>429.4</ele>
        <time>2009-12-04T09:38:39Z</time>
      </trkpt>
      <trkpt lat="42.11897" lon="-1.42572">
        <ele>429.8</ele>
        <time>2009-12-04T09:38:56Z</time>
      </trkpt>
      <trkpt lat="42.11912" lon="-1.42603">
        <ele>433.2</ele>
        <time>2009-12-04T09:39:07Z</time>
      </trkpt>
      <trkpt lat="42.11965" lon="-1.42616">
        <ele>434.2</ele>
        <time>2009-12-04T09:39:24Z</time>
      </trkpt>
      <trkpt lat="42.12031" lon="-1.4263">
        <ele>436.1</ele>
        <time>2009-12-04T09:39:45Z</time>
      </trkpt>
      <trkpt lat="42.12073" lon="-1.42657">
        <ele>435.6</ele>
        <time>2009-12-04T09:40:02Z</time>
      </trkpt>
      <trkpt lat="42.12107" lon="-1.427">
        <ele>439.9</ele>
        <time>2009-12-04T09:40:19Z</time>
      </trkpt>
      <trkpt lat="42.12139" lon="-1.42768">
        <ele>441.4</ele>
        <time>2009-12-04T09:40:40Z</time>
      </trkpt>
      <trkpt lat="42.12159" lon="-1.42823">
        <ele>438.5</ele>
        <time>2009-12-04T09:40:57Z</time>
      </trkpt>
      <trkpt lat="42.12159" lon="-1.42878">
        <ele>436.1</ele>
        <time>2009-12-04T09:41:07Z</time>
      </trkpt>
      <trkpt lat="42.12162" lon="-1.42901">
        <ele>433.7</ele>
        <time>2009-12-04T09:41:10Z</time>
      </trkpt>
      <trkpt lat="42.12169" lon="-1.42925">
        <ele>432.2</ele>
        <time>2009-12-04T09:41:13Z</time>
      </trkpt>
      <trkpt lat="42.12178" lon="-1.42947">
        <ele>429.8</ele>
        <time>2009-12-04T09:41:16Z</time>
      </trkpt>
      <trkpt lat="42.12203" lon="-1.42977">
        <ele>428.4</ele>
        <time>2009-12-04T09:41:22Z</time>
      </trkpt>
      <trkpt lat="42.1225" lon="-1.43014">
        <ele>426.5</ele>
        <time>2009-12-04T09:41:34Z</time>
      </trkpt>
      <trkpt lat="42.12265" lon="-1.43033">
        <ele>424.6</ele>
        <time>2009-12-04T09:41:38Z</time>
      </trkpt>
      <trkpt lat="42.1228" lon="-1.43064">
        <ele>421.7</ele>
        <time>2009-12-04T09:41:43Z</time>
      </trkpt>
      <trkpt lat="42.123" lon="-1.43093">
        <ele>419.8</ele>
        <time>2009-12-04T09:41:49Z</time>
      </trkpt>
      <trkpt lat="42.12333" lon="-1.43102">
        <ele>421.2</ele>
        <time>2009-12-04T09:41:58Z</time>
      </trkpt>
      <trkpt lat="42.12367" lon="-1.43105">
        <ele>422.2</ele>
        <time>2009-12-04T09:42:09Z</time>
      </trkpt>
      <trkpt lat="42.12401" lon="-1.4312">
        <ele>425.5</ele>
        <time>2009-12-04T09:42:24Z</time>
      </trkpt>
      <trkpt lat="42.12429" lon="-1.43141">
        <ele>426</ele>
        <time>2009-12-04T09:42:40Z</time>
      </trkpt>
      <trkpt lat="42.12469" lon="-1.43163">
        <ele>425.5</ele>
        <time>2009-12-04T09:42:57Z</time>
      </trkpt>
      <trkpt lat="42.12474" lon="-1.43174">
        <ele>424.1</ele>
        <time>2009-12-04T09:43:01Z</time>
      </trkpt>
      <trkpt lat="42.12483" lon="-1.43188">
        <ele>425.5</ele>
        <time>2009-12-04T09:43:08Z</time>
      </trkpt>
      <trkpt lat="42.12509" lon="-1.43224">
        <ele>428.9</ele>
        <time>2009-12-04T09:43:26Z</time>
      </trkpt>
      <trkpt lat="42.12541" lon="-1.43261">
        <ele>432.2</ele>
        <time>2009-12-04T09:43:47Z</time>
      </trkpt>
      <trkpt lat="42.1256" lon="-1.4329">
        <ele>432.2</ele>
        <time>2009-12-04T09:44:03Z</time>
      </trkpt>
      <trkpt lat="42.12586" lon="-1.43339">
        <ele>428.9</ele>
        <time>2009-12-04T09:44:20Z</time>
      </trkpt>
      <trkpt lat="42.12598" lon="-1.43385">
        <ele>431.8</ele>
        <time>2009-12-04T09:44:36Z</time>
      </trkpt>
      <trkpt lat="42.1263" lon="-1.43416">
        <ele>429.4</ele>
        <time>2009-12-04T09:44:52Z</time>
      </trkpt>
      <trkpt lat="42.1268" lon="-1.43439">
        <ele>427.4</ele>
        <time>2009-12-04T09:45:06Z</time>
      </trkpt>
      <trkpt lat="42.12698" lon="-1.43449">
        <ele>426</ele>
        <time>2009-12-04T09:45:10Z</time>
      </trkpt>
      <trkpt lat="42.12772" lon="-1.43518">
        <ele>420.7</ele>
        <time>2009-12-04T09:45:30Z</time>
      </trkpt>
      <trkpt lat="42.12784" lon="-1.43524">
        <ele>420.7</ele>
        <time>2009-12-04T09:45:36Z</time>
      </trkpt>
      <trkpt lat="42.12791" lon="-1.43517">
        <ele>421.7</ele>
        <time>2009-12-04T09:45:40Z</time>
      </trkpt>
      <trkpt lat="42.1281" lon="-1.43471">
        <ele>423.6</ele>
        <time>2009-12-04T09:45:56Z</time>
      </trkpt>
      <trkpt lat="42.12845" lon="-1.43432">
        <ele>425</ele>
        <time>2009-12-04T09:46:13Z</time>
      </trkpt>
      <trkpt lat="42.12877" lon="-1.43386">
        <ele>427.9</ele>
        <time>2009-12-04T09:46:32Z</time>
      </trkpt>
      <trkpt lat="42.12904" lon="-1.43341">
        <ele>429.4</ele>
        <time>2009-12-04T09:46:50Z</time>
      </trkpt>
      <trkpt lat="42.1292" lon="-1.43316">
        <ele>431.8</ele>
        <time>2009-12-04T09:47:03Z</time>
      </trkpt>
      <trkpt lat="42.12949" lon="-1.43291">
        <ele>434.7</ele>
        <time>2009-12-04T09:47:20Z</time>
      </trkpt>
      <trkpt lat="42.12979" lon="-1.43262">
        <ele>437.5</ele>
        <time>2009-12-04T09:47:38Z</time>
      </trkpt>
      <trkpt lat="42.12997" lon="-1.43235">
        <ele>444.3</ele>
        <time>2009-12-04T09:47:53Z</time>
      </trkpt>
      <trkpt lat="42.12997" lon="-1.43233">
        <ele>444.3</ele>
        <time>2009-12-04T09:47:54Z</time>
      </trkpt>
      <trkpt lat="42.13004" lon="-1.43212">
        <ele>446.2</ele>
        <time>2009-12-04T09:48:07Z</time>
      </trkpt>
      <trkpt lat="42.13011" lon="-1.43183">
        <ele>445.7</ele>
        <time>2009-12-04T09:48:23Z</time>
      </trkpt>
      <trkpt lat="42.13024" lon="-1.43151">
        <ele>444.7</ele>
        <time>2009-12-04T09:48:39Z</time>
      </trkpt>
      <trkpt lat="42.13065" lon="-1.43089">
        <ele>447.2</ele>
        <time>2009-12-04T09:48:59Z</time>
      </trkpt>
      <trkpt lat="42.13104" lon="-1.43036">
        <ele>448.1</ele>
        <time>2009-12-04T09:49:17Z</time>
      </trkpt>
      <trkpt lat="42.13154" lon="-1.42996">
        <ele>448.1</ele>
        <time>2009-12-04T09:49:35Z</time>
      </trkpt>
      <trkpt lat="42.13201" lon="-1.42963">
        <ele>448.1</ele>
        <time>2009-12-04T09:49:52Z</time>
      </trkpt>
      <trkpt lat="42.1323" lon="-1.42927">
        <ele>447.6</ele>
        <time>2009-12-04T09:50:05Z</time>
      </trkpt>
      <trkpt lat="42.13249" lon="-1.42863">
        <ele>451.5</ele>
        <time>2009-12-04T09:50:26Z</time>
      </trkpt>
      <trkpt lat="42.13269" lon="-1.42817">
        <ele>453.4</ele>
        <time>2009-12-04T09:50:42Z</time>
      </trkpt>
      <trkpt lat="42.1328" lon="-1.42765">
        <ele>453.9</ele>
        <time>2009-12-04T09:50:58Z</time>
      </trkpt>
      <trkpt lat="42.13308" lon="-1.42693">
        <ele>454.8</ele>
        <time>2009-12-04T09:51:15Z</time>
      </trkpt>
      <trkpt lat="42.13333" lon="-1.42633">
        <ele>456.3</ele>
        <time>2009-12-04T09:51:30Z</time>
      </trkpt>
      <trkpt lat="42.13376" lon="-1.42599">
        <ele>456.8</ele>
        <time>2009-12-04T09:51:45Z</time>
      </trkpt>
      <trkpt lat="42.13406" lon="-1.42585">
        <ele>454.4</ele>
        <time>2009-12-04T09:51:53Z</time>
      </trkpt>
      <trkpt lat="42.13443" lon="-1.42577">
        <ele>453.9</ele>
        <time>2009-12-04T09:52:01Z</time>
      </trkpt>
      <trkpt lat="42.1346" lon="-1.42572">
        <ele>452.9</ele>
        <time>2009-12-04T09:52:05Z</time>
      </trkpt>
      <trkpt lat="42.13475" lon="-1.42573">
        <ele>452.9</ele>
        <time>2009-12-04T09:52:09Z</time>
      </trkpt>
      <trkpt lat="42.13487" lon="-1.42576">
        <ele>453.9</ele>
        <time>2009-12-04T09:52:21Z</time>
      </trkpt>
      <trkpt lat="42.13487" lon="-1.42577">
        <ele>453.9</ele>
        <time>2009-12-04T09:53:19Z</time>
      </trkpt>
      <trkpt lat="42.13492" lon="-1.42583">
        <ele>454.8</ele>
        <time>2009-12-04T09:53:23Z</time>
      </trkpt>
      <trkpt lat="42.13534" lon="-1.42594">
        <ele>455.3</ele>
        <time>2009-12-04T09:53:37Z</time>
      </trkpt>
      <trkpt lat="42.1359" lon="-1.42617">
        <ele>456.3</ele>
        <time>2009-12-04T09:53:55Z</time>
      </trkpt>
      <trkpt lat="42.13621" lon="-1.42646">
        <ele>455.8</ele>
        <time>2009-12-04T09:54:05Z</time>
      </trkpt>
      <trkpt lat="42.13634" lon="-1.42664">
        <ele>454.4</ele>
        <time>2009-12-04T09:54:09Z</time>
      </trkpt>
      <trkpt lat="42.1364" lon="-1.42675">
        <ele>454.4</ele>
        <time>2009-12-04T09:54:11Z</time>
      </trkpt>
      <trkpt lat="42.13648" lon="-1.42706">
        <ele>453.4</ele>
        <time>2009-12-04T09:54:16Z</time>
      </trkpt>
      <trkpt lat="42.13651" lon="-1.42732">
        <ele>452.4</ele>
        <time>2009-12-04T09:54:20Z</time>
      </trkpt>
      <trkpt lat="42.1366" lon="-1.4277">
        <ele>452</ele>
        <time>2009-12-04T09:54:26Z</time>
      </trkpt>
      <trkpt lat="42.13667" lon="-1.42786">
        <ele>452.4</ele>
        <time>2009-12-04T09:54:29Z</time>
      </trkpt>
      <trkpt lat="42.13672" lon="-1.42807">
        <ele>451.5</ele>
        <time>2009-12-04T09:54:33Z</time>
      </trkpt>
      <trkpt lat="42.13686" lon="-1.42866">
        <ele>450</ele>
        <time>2009-12-04T09:54:46Z</time>
      </trkpt>
      <trkpt lat="42.13728" lon="-1.4288">
        <ele>450.5</ele>
        <time>2009-12-04T09:54:58Z</time>
      </trkpt>
      <trkpt lat="42.13732" lon="-1.42881">
        <ele>450</ele>
        <time>2009-12-04T09:54:59Z</time>
      </trkpt>
      <trkpt lat="42.13745" lon="-1.42884">
        <ele>450</ele>
        <time>2009-12-04T09:55:02Z</time>
      </trkpt>
      <trkpt lat="42.1376" lon="-1.4289">
        <ele>449.6</ele>
        <time>2009-12-04T09:55:06Z</time>
      </trkpt>
      <trkpt lat="42.13816" lon="-1.4292">
        <ele>449.1</ele>
        <time>2009-12-04T09:55:23Z</time>
      </trkpt>
      <trkpt lat="42.13821" lon="-1.42922">
        <ele>449.1</ele>
        <time>2009-12-04T09:55:25Z</time>
      </trkpt>
      <trkpt lat="42.13857" lon="-1.42937">
        <ele>449.6</ele>
        <time>2009-12-04T09:55:37Z</time>
      </trkpt>
      <trkpt lat="42.13918" lon="-1.42934">
        <ele>446.7</ele>
        <time>2009-12-04T09:55:53Z</time>
      </trkpt>
      <trkpt lat="42.13935" lon="-1.42926">
        <ele>446.7</ele>
        <time>2009-12-04T09:55:57Z</time>
      </trkpt>
      <trkpt lat="42.13975" lon="-1.42879">
        <ele>446.2</ele>
        <time>2009-12-04T09:56:08Z</time>
      </trkpt>
      <trkpt lat="42.14003" lon="-1.4288">
        <ele>445.2</ele>
        <time>2009-12-04T09:56:15Z</time>
      </trkpt>
      <trkpt lat="42.1402" lon="-1.42913">
        <ele>446.2</ele>
        <time>2009-12-04T09:56:22Z</time>
      </trkpt>
      <trkpt lat="42.14026" lon="-1.42933">
        <ele>446.7</ele>
        <time>2009-12-04T09:56:26Z</time>
      </trkpt>
      <trkpt lat="42.1403" lon="-1.42943">
        <ele>446.7</ele>
        <time>2009-12-04T09:56:28Z</time>
      </trkpt>
      <trkpt lat="42.14058" lon="-1.43002">
        <ele>448.6</ele>
        <time>2009-12-04T09:56:42Z</time>
      </trkpt>
      <trkpt lat="42.14092" lon="-1.43045">
        <ele>448.6</ele>
        <time>2009-12-04T09:56:56Z</time>
      </trkpt>
      <trkpt lat="42.14132" lon="-1.43071">
        <ele>448.6</ele>
        <time>2009-12-04T09:57:09Z</time>
      </trkpt>
      <trkpt lat="42.14183" lon="-1.43064">
        <ele>447.6</ele>
        <time>2009-12-04T09:57:24Z</time>
      </trkpt>
      <trkpt lat="42.1421" lon="-1.43083">
        <ele>448.6</ele>
        <time>2009-12-04T09:57:34Z</time>
      </trkpt>
      <trkpt lat="42.14192" lon="-1.43132">
        <ele>448.6</ele>
        <time>2009-12-04T09:57:46Z</time>
      </trkpt>
      <trkpt lat="42.1418" lon="-1.43184">
        <ele>449.6</ele>
        <time>2009-12-04T09:58:00Z</time>
      </trkpt>
      <trkpt lat="42.14188" lon="-1.4324">
        <ele>455.3</ele>
        <time>2009-12-04T09:58:17Z</time>
      </trkpt>
      <trkpt lat="42.14208" lon="-1.43292">
        <ele>457.7</ele>
        <time>2009-12-04T09:58:35Z</time>
      </trkpt>
      <trkpt lat="42.14245" lon="-1.43351">
        <ele>455.8</ele>
        <time>2009-12-04T09:58:56Z</time>
      </trkpt>
      <trkpt lat="42.14257" lon="-1.4338">
        <ele>455.8</ele>
        <time>2009-12-04T09:59:03Z</time>
      </trkpt>
      <trkpt lat="42.14273" lon="-1.43437">
        <ele>456.3</ele>
        <time>2009-12-04T09:59:17Z</time>
      </trkpt>
      <trkpt lat="42.14288" lon="-1.43485">
        <ele>459.2</ele>
        <time>2009-12-04T09:59:33Z</time>
      </trkpt>
      <trkpt lat="42.14329" lon="-1.43518">
        <ele>456.3</ele>
        <time>2009-12-04T09:59:49Z</time>
      </trkpt>
      <trkpt lat="42.14342" lon="-1.43561">
        <ele>457.2</ele>
        <time>2009-12-04T10:00:00Z</time>
      </trkpt>
      <trkpt lat="42.14371" lon="-1.43599">
        <ele>460.1</ele>
        <time>2009-12-04T10:00:14Z</time>
      </trkpt>
      <trkpt lat="42.14395" lon="-1.43636">
        <ele>459.6</ele>
        <time>2009-12-04T10:00:29Z</time>
      </trkpt>
      <trkpt lat="42.14406" lon="-1.43659">
        <ele>456.8</ele>
        <time>2009-12-04T10:00:35Z</time>
      </trkpt>
      <trkpt lat="42.14414" lon="-1.43679">
        <ele>455.3</ele>
        <time>2009-12-04T10:00:39Z</time>
      </trkpt>
      <trkpt lat="42.14419" lon="-1.43696">
        <ele>452.4</ele>
        <time>2009-12-04T10:00:42Z</time>
      </trkpt>
      <trkpt lat="42.14432" lon="-1.43716">
        <ele>451</ele>
        <time>2009-12-04T10:00:46Z</time>
      </trkpt>
      <trkpt lat="42.1446" lon="-1.43757">
        <ele>448.6</ele>
        <time>2009-12-04T10:00:54Z</time>
      </trkpt>
      <trkpt lat="42.14487" lon="-1.4381">
        <ele>443.8</ele>
        <time>2009-12-04T10:01:03Z</time>
      </trkpt>
      <trkpt lat="42.14498" lon="-1.43825">
        <ele>442.8</ele>
        <time>2009-12-04T10:01:06Z</time>
      </trkpt>
      <trkpt lat="42.14572" lon="-1.43856">
        <ele>437.1</ele>
        <time>2009-12-04T10:01:19Z</time>
      </trkpt>
      <trkpt lat="42.14595" lon="-1.43869">
        <ele>435.1</ele>
        <time>2009-12-04T10:01:23Z</time>
      </trkpt>
      <trkpt lat="42.14615" lon="-1.43897">
        <ele>434.2</ele>
        <time>2009-12-04T10:01:28Z</time>
      </trkpt>
      <trkpt lat="42.14645" lon="-1.43981">
        <ele>428.4</ele>
        <time>2009-12-04T10:01:41Z</time>
      </trkpt>
      <trkpt lat="42.14649" lon="-1.44002">
        <ele>429.8</ele>
        <time>2009-12-04T10:01:44Z</time>
      </trkpt>
      <trkpt lat="42.14647" lon="-1.44035">
        <ele>429.4</ele>
        <time>2009-12-04T10:01:49Z</time>
      </trkpt>
      <trkpt lat="42.14636" lon="-1.44089">
        <ele>427.4</ele>
        <time>2009-12-04T10:01:58Z</time>
      </trkpt>
      <trkpt lat="42.14628" lon="-1.44099">
        <ele>427</ele>
        <time>2009-12-04T10:02:00Z</time>
      </trkpt>
      <trkpt lat="42.14621" lon="-1.4411">
        <ele>426</ele>
        <time>2009-12-04T10:02:02Z</time>
      </trkpt>
      <trkpt lat="42.146" lon="-1.44145">
        <ele>424.6</ele>
        <time>2009-12-04T10:02:08Z</time>
      </trkpt>
      <trkpt lat="42.14592" lon="-1.44172">
        <ele>425.5</ele>
        <time>2009-12-04T10:02:13Z</time>
      </trkpt>
      <trkpt lat="42.14578" lon="-1.4419">
        <ele>425</ele>
        <time>2009-12-04T10:02:17Z</time>
      </trkpt>
      <trkpt lat="42.14544" lon="-1.44244">
        <ele>422.6</ele>
        <time>2009-12-04T10:02:26Z</time>
      </trkpt>
      <trkpt lat="42.14517" lon="-1.44257">
        <ele>420.2</ele>
        <time>2009-12-04T10:02:32Z</time>
      </trkpt>
      <trkpt lat="42.14507" lon="-1.44258">
        <ele>419.8</ele>
        <time>2009-12-04T10:02:34Z</time>
      </trkpt>
      <trkpt lat="42.14487" lon="-1.4426">
        <ele>420.2</ele>
        <time>2009-12-04T10:02:39Z</time>
      </trkpt>
      <trkpt lat="42.14474" lon="-1.44254">
        <ele>419.8</ele>
        <time>2009-12-04T10:02:42Z</time>
      </trkpt>
      <trkpt lat="42.14444" lon="-1.44247">
        <ele>418.3</ele>
        <time>2009-12-04T10:02:47Z</time>
      </trkpt>
      <trkpt lat="42.14403" lon="-1.44232">
        <ele>416.4</ele>
        <time>2009-12-04T10:02:54Z</time>
      </trkpt>
      <trkpt lat="42.14387" lon="-1.44229">
        <ele>417.3</ele>
        <time>2009-12-04T10:02:57Z</time>
      </trkpt>
      <trkpt lat="42.14353" lon="-1.44219">
        <ele>418.8</ele>
        <time>2009-12-04T10:03:08Z</time>
      </trkpt>
      <trkpt lat="42.14346" lon="-1.44228">
        <ele>418.3</ele>
        <time>2009-12-04T10:03:13Z</time>
      </trkpt>
      <trkpt lat="42.14342" lon="-1.4423">
        <ele>416.9</ele>
        <time>2009-12-04T10:03:15Z</time>
      </trkpt>
      <trkpt lat="42.14321" lon="-1.44261">
        <ele>419.3</ele>
        <time>2009-12-04T10:03:28Z</time>
      </trkpt>
      <trkpt lat="42.14294" lon="-1.44285">
        <ele>421.2</ele>
        <time>2009-12-04T10:03:42Z</time>
      </trkpt>
      <trkpt lat="42.14254" lon="-1.44294">
        <ele>420.2</ele>
        <time>2009-12-04T10:03:56Z</time>
      </trkpt>
      <trkpt lat="42.14213" lon="-1.44305">
        <ele>421.7</ele>
        <time>2009-12-04T10:04:10Z</time>
      </trkpt>
      <trkpt lat="42.14186" lon="-1.44312">
        <ele>421.7</ele>
        <time>2009-12-04T10:04:19Z</time>
      </trkpt>
      <trkpt lat="42.14185" lon="-1.44333">
        <ele>422.2</ele>
        <time>2009-12-04T10:04:27Z</time>
      </trkpt>
      <trkpt lat="42.14192" lon="-1.4434">
        <ele>423.6</ele>
        <time>2009-12-04T10:04:38Z</time>
      </trkpt>
      <trkpt lat="42.14191" lon="-1.44341">
        <ele>423.1</ele>
        <time>2009-12-04T10:06:13Z</time>
      </trkpt>
      <trkpt lat="42.14191" lon="-1.44384">
        <ele>424.6</ele>
        <time>2009-12-04T10:06:25Z</time>
      </trkpt>
      <trkpt lat="42.14185" lon="-1.44417">
        <ele>426.5</ele>
        <time>2009-12-04T10:06:37Z</time>
      </trkpt>
      <trkpt lat="42.14184" lon="-1.44422">
        <ele>427</ele>
        <time>2009-12-04T10:06:39Z</time>
      </trkpt>
      <trkpt lat="42.14165" lon="-1.44437">
        <ele>428.9</ele>
        <time>2009-12-04T10:06:54Z</time>
      </trkpt>
      <trkpt lat="42.14148" lon="-1.44448">
        <ele>427.4</ele>
        <time>2009-12-04T10:07:07Z</time>
      </trkpt>
      <trkpt lat="42.14094" lon="-1.44472">
        <ele>427</ele>
        <time>2009-12-04T10:07:24Z</time>
      </trkpt>
      <trkpt lat="42.14015" lon="-1.44515">
        <ele>424.6</ele>
        <time>2009-12-04T10:07:43Z</time>
      </trkpt>
      <trkpt lat="42.13953" lon="-1.44535">
        <ele>424.6</ele>
        <time>2009-12-04T10:07:57Z</time>
      </trkpt>
      <trkpt lat="42.13934" lon="-1.44533">
        <ele>424.6</ele>
        <time>2009-12-04T10:08:07Z</time>
      </trkpt>
      <trkpt lat="42.13934" lon="-1.44533">
        <ele>424.6</ele>
        <time>2009-12-04T10:08:31Z</time>
      </trkpt>
      <trkpt lat="42.13919" lon="-1.44488">
        <ele>422.6</ele>
        <time>2009-12-04T10:08:41Z</time>
      </trkpt>
      <trkpt lat="42.13906" lon="-1.44433">
        <ele>420.2</ele>
        <time>2009-12-04T10:08:48Z</time>
      </trkpt>
      <trkpt lat="42.139" lon="-1.44408">
        <ele>420.2</ele>
        <time>2009-12-04T10:08:51Z</time>
      </trkpt>
      <trkpt lat="42.13886" lon="-1.44372">
        <ele>419.3</ele>
        <time>2009-12-04T10:08:56Z</time>
      </trkpt>
      <trkpt lat="42.13883" lon="-1.44333">
        <ele>418.3</ele>
        <time>2009-12-04T10:09:01Z</time>
      </trkpt>
      <trkpt lat="42.13885" lon="-1.4432">
        <ele>417.8</ele>
        <time>2009-12-04T10:09:03Z</time>
      </trkpt>
      <trkpt lat="42.13876" lon="-1.44311">
        <ele>417.3</ele>
        <time>2009-12-04T10:09:07Z</time>
      </trkpt>
      <trkpt lat="42.13869" lon="-1.44313">
        <ele>418.3</ele>
        <time>2009-12-04T10:09:09Z</time>
      </trkpt>
      <trkpt lat="42.13855" lon="-1.44296">
        <ele>418.8</ele>
        <time>2009-12-04T10:09:14Z</time>
      </trkpt>
      <trkpt lat="42.13831" lon="-1.44222">
        <ele>421.7</ele>
        <time>2009-12-04T10:09:30Z</time>
      </trkpt>
      <trkpt lat="42.1383" lon="-1.44203">
        <ele>420.7</ele>
        <time>2009-12-04T10:09:34Z</time>
      </trkpt>
      <trkpt lat="42.13826" lon="-1.44171">
        <ele>419.8</ele>
        <time>2009-12-04T10:09:39Z</time>
      </trkpt>
      <trkpt lat="42.13822" lon="-1.44143">
        <ele>418.8</ele>
        <time>2009-12-04T10:09:44Z</time>
      </trkpt>
      <trkpt lat="42.13837" lon="-1.44096">
        <ele>419.3</ele>
        <time>2009-12-04T10:09:56Z</time>
      </trkpt>
      <trkpt lat="42.1385" lon="-1.44074">
        <ele>419.8</ele>
        <time>2009-12-04T10:10:09Z</time>
      </trkpt>
      <trkpt lat="42.13831" lon="-1.44041">
        <ele>421.7</ele>
        <time>2009-12-04T10:10:25Z</time>
      </trkpt>
      <trkpt lat="42.13795" lon="-1.43998">
        <ele>421.2</ele>
        <time>2009-12-04T10:10:43Z</time>
      </trkpt>
      <trkpt lat="42.13749" lon="-1.4398">
        <ele>419.8</ele>
        <time>2009-12-04T10:10:51Z</time>
      </trkpt>
      <trkpt lat="42.13721" lon="-1.43962">
        <ele>418.8</ele>
        <time>2009-12-04T10:10:56Z</time>
      </trkpt>
      <trkpt lat="42.13688" lon="-1.43954">
        <ele>417.8</ele>
        <time>2009-12-04T10:11:01Z</time>
      </trkpt>
      <trkpt lat="42.13659" lon="-1.4395">
        <ele>418.3</ele>
        <time>2009-12-04T10:11:06Z</time>
      </trkpt>
      <trkpt lat="42.13646" lon="-1.43943">
        <ele>416.9</ele>
        <time>2009-12-04T10:11:09Z</time>
      </trkpt>
      <trkpt lat="42.13632" lon="-1.43907">
        <ele>415.4</ele>
        <time>2009-12-04T10:11:16Z</time>
      </trkpt>
      <trkpt lat="42.1363" lon="-1.43895">
        <ele>414.5</ele>
        <time>2009-12-04T10:11:18Z</time>
      </trkpt>
      <trkpt lat="42.13626" lon="-1.43877">
        <ele>413.5</ele>
        <time>2009-12-04T10:11:21Z</time>
      </trkpt>
      <trkpt lat="42.13609" lon="-1.4384">
        <ele>412.1</ele>
        <time>2009-12-04T10:11:27Z</time>
      </trkpt>
      <trkpt lat="42.13599" lon="-1.43816">
        <ele>412.1</ele>
        <time>2009-12-04T10:11:31Z</time>
      </trkpt>
      <trkpt lat="42.13582" lon="-1.43777">
        <ele>410.6</ele>
        <time>2009-12-04T10:11:41Z</time>
      </trkpt>
      <trkpt lat="42.13577" lon="-1.43774">
        <ele>411.6</ele>
        <time>2009-12-04T10:11:43Z</time>
      </trkpt>
      <trkpt lat="42.13545" lon="-1.43739">
        <ele>413</ele>
        <time>2009-12-04T10:11:59Z</time>
      </trkpt>
      <trkpt lat="42.13506" lon="-1.4373">
        <ele>415.4</ele>
        <time>2009-12-04T10:12:12Z</time>
      </trkpt>
      <trkpt lat="42.13471" lon="-1.4372">
        <ele>414</ele>
        <time>2009-12-04T10:12:24Z</time>
      </trkpt>
      <trkpt lat="42.13425" lon="-1.43706">
        <ele>416.9</ele>
        <time>2009-12-04T10:12:37Z</time>
      </trkpt>
      <trkpt lat="42.13399" lon="-1.43679">
        <ele>416.4</ele>
        <time>2009-12-04T10:12:47Z</time>
      </trkpt>
      <trkpt lat="42.1335" lon="-1.43641">
        <ele>412.1</ele>
        <time>2009-12-04T10:12:57Z</time>
      </trkpt>
      <trkpt lat="42.13284" lon="-1.43617">
        <ele>407.3</ele>
        <time>2009-12-04T10:13:09Z</time>
      </trkpt>
      <trkpt lat="42.13255" lon="-1.43616">
        <ele>407.3</ele>
        <time>2009-12-04T10:13:19Z</time>
      </trkpt>
      <trkpt lat="42.13248" lon="-1.43618">
        <ele>407.3</ele>
        <time>2009-12-04T10:13:21Z</time>
      </trkpt>
      <trkpt lat="42.1323" lon="-1.43629">
        <ele>407.3</ele>
        <time>2009-12-04T10:13:26Z</time>
      </trkpt>
      <trkpt lat="42.13185" lon="-1.43654">
        <ele>407.7</ele>
        <time>2009-12-04T10:13:39Z</time>
      </trkpt>
      <trkpt lat="42.13182" lon="-1.43657">
        <ele>408.2</ele>
        <time>2009-12-04T10:13:40Z</time>
      </trkpt>
      <trkpt lat="42.13142" lon="-1.43713">
        <ele>407.7</ele>
        <time>2009-12-04T10:13:55Z</time>
      </trkpt>
      <trkpt lat="42.13109" lon="-1.43782">
        <ele>411.1</ele>
        <time>2009-12-04T10:14:12Z</time>
      </trkpt>
      <trkpt lat="42.13059" lon="-1.43827">
        <ele>410.6</ele>
        <time>2009-12-04T10:14:29Z</time>
      </trkpt>
      <trkpt lat="42.13006" lon="-1.43824">
        <ele>411.6</ele>
        <time>2009-12-04T10:14:43Z</time>
      </trkpt>
      <trkpt lat="42.13" lon="-1.43826">
        <ele>411.6</ele>
        <time>2009-12-04T10:14:45Z</time>
      </trkpt>
      <trkpt lat="42.12992" lon="-1.43844">
        <ele>412.5</ele>
        <time>2009-12-04T10:14:50Z</time>
      </trkpt>
      <trkpt lat="42.12989" lon="-1.43901">
        <ele>413</ele>
        <time>2009-12-04T10:15:06Z</time>
      </trkpt>
      <trkpt lat="42.12965" lon="-1.4392">
        <ele>414.5</ele>
        <time>2009-12-04T10:15:18Z</time>
      </trkpt>
      <trkpt lat="42.1293" lon="-1.43901">
        <ele>418.3</ele>
        <time>2009-12-04T10:15:34Z</time>
      </trkpt>
      <trkpt lat="42.12892" lon="-1.43869">
        <ele>418.3</ele>
        <time>2009-12-04T10:15:52Z</time>
      </trkpt>
      <trkpt lat="42.12846" lon="-1.43855">
        <ele>418.8</ele>
        <time>2009-12-04T10:16:07Z</time>
      </trkpt>
      <trkpt lat="42.12837" lon="-1.43853">
        <ele>417.8</ele>
        <time>2009-12-04T10:16:09Z</time>
      </trkpt>
      <trkpt lat="42.12815" lon="-1.43855">
        <ele>416.9</ele>
        <time>2009-12-04T10:16:13Z</time>
      </trkpt>
      <trkpt lat="42.12782" lon="-1.43871">
        <ele>416.9</ele>
        <time>2009-12-04T10:16:23Z</time>
      </trkpt>
      <trkpt lat="42.12762" lon="-1.43908">
        <ele>416.9</ele>
        <time>2009-12-04T10:16:35Z</time>
      </trkpt>
      <trkpt lat="42.1275" lon="-1.43985">
        <ele>417.3</ele>
        <time>2009-12-04T10:16:52Z</time>
      </trkpt>
      <trkpt lat="42.12742" lon="-1.44036">
        <ele>419.3</ele>
        <time>2009-12-04T10:17:04Z</time>
      </trkpt>
      <trkpt lat="42.12731" lon="-1.4403">
        <ele>419.3</ele>
        <time>2009-12-04T10:17:08Z</time>
      </trkpt>
      <trkpt lat="42.127" lon="-1.4401">
        <ele>420.7</ele>
        <time>2009-12-04T10:17:21Z</time>
      </trkpt>
      <trkpt lat="42.12696" lon="-1.44009">
        <ele>421.2</ele>
        <time>2009-12-04T10:17:45Z</time>
      </trkpt>
      <trkpt lat="42.12653" lon="-1.44007">
        <ele>421.7</ele>
        <time>2009-12-04T10:17:59Z</time>
      </trkpt>
      <trkpt lat="42.12632" lon="-1.44015">
        <ele>419.3</ele>
        <time>2009-12-04T10:18:05Z</time>
      </trkpt>
      <trkpt lat="42.1257" lon="-1.44052">
        <ele>416.9</ele>
        <time>2009-12-04T10:18:21Z</time>
      </trkpt>
      <trkpt lat="42.12502" lon="-1.44047">
        <ele>417.8</ele>
        <time>2009-12-04T10:18:34Z</time>
      </trkpt>
      <trkpt lat="42.1241" lon="-1.44037">
        <ele>412.5</ele>
        <time>2009-12-04T10:18:49Z</time>
      </trkpt>
      <trkpt lat="42.12322" lon="-1.44011">
        <ele>411.1</ele>
        <time>2009-12-04T10:19:03Z</time>
      </trkpt>
      <trkpt lat="42.12221" lon="-1.43975">
        <ele>410.1</ele>
        <time>2009-12-04T10:19:21Z</time>
      </trkpt>
      <trkpt lat="42.12205" lon="-1.43974">
        <ele>410.6</ele>
        <time>2009-12-04T10:19:24Z</time>
      </trkpt>
      <trkpt lat="42.12186" lon="-1.43982">
        <ele>410.1</ele>
        <time>2009-12-04T10:19:28Z</time>
      </trkpt>
      <trkpt lat="42.12152" lon="-1.44004">
        <ele>408.7</ele>
        <time>2009-12-04T10:19:36Z</time>
      </trkpt>
      <trkpt lat="42.12124" lon="-1.44023">
        <ele>406.8</ele>
        <time>2009-12-04T10:19:43Z</time>
      </trkpt>
      <trkpt lat="42.12115" lon="-1.4403">
        <ele>406.3</ele>
        <time>2009-12-04T10:19:45Z</time>
      </trkpt>
      <trkpt lat="42.12027" lon="-1.44109">
        <ele>405.8</ele>
        <time>2009-12-04T10:20:03Z</time>
      </trkpt>
      <trkpt lat="42.11986" lon="-1.44163">
        <ele>405.8</ele>
        <time>2009-12-04T10:20:15Z</time>
      </trkpt>
      <trkpt lat="42.11974" lon="-1.4418">
        <ele>405.8</ele>
        <time>2009-12-04T10:20:19Z</time>
      </trkpt>
      <trkpt lat="42.11963" lon="-1.4419">
        <ele>405.3</ele>
        <time>2009-12-04T10:20:22Z</time>
      </trkpt>
      <trkpt lat="42.11926" lon="-1.44205">
        <ele>404.4</ele>
        <time>2009-12-04T10:20:30Z</time>
      </trkpt>
      <trkpt lat="42.1185" lon="-1.44258">
        <ele>403.9</ele>
        <time>2009-12-04T10:20:46Z</time>
      </trkpt>
      <trkpt lat="42.11845" lon="-1.44263">
        <ele>403.4</ele>
        <time>2009-12-04T10:20:47Z</time>
      </trkpt>
      <trkpt lat="42.11783" lon="-1.44355">
        <ele>402.4</ele>
        <time>2009-12-04T10:21:05Z</time>
      </trkpt>
      <trkpt lat="42.11742" lon="-1.44412">
        <ele>403.4</ele>
        <time>2009-12-04T10:21:20Z</time>
      </trkpt>
      <trkpt lat="42.11712" lon="-1.44473">
        <ele>404.9</ele>
        <time>2009-12-04T10:21:35Z</time>
      </trkpt>
      <trkpt lat="42.11676" lon="-1.4453">
        <ele>405.8</ele>
        <time>2009-12-04T10:21:51Z</time>
      </trkpt>
      <trkpt lat="42.11641" lon="-1.44579">
        <ele>404.4</ele>
        <time>2009-12-04T10:22:04Z</time>
      </trkpt>
      <trkpt lat="42.11574" lon="-1.4467">
        <ele>400</ele>
        <time>2009-12-04T10:22:21Z</time>
      </trkpt>
      <trkpt lat="42.11566" lon="-1.44681">
        <ele>400</ele>
        <time>2009-12-04T10:22:23Z</time>
      </trkpt>
      <trkpt lat="42.11561" lon="-1.44703">
        <ele>401.5</ele>
        <time>2009-12-04T10:22:27Z</time>
      </trkpt>
      <trkpt lat="42.11559" lon="-1.44745">
        <ele>402.4</ele>
        <time>2009-12-04T10:22:34Z</time>
      </trkpt>
      <trkpt lat="42.11549" lon="-1.44771">
        <ele>402</ele>
        <time>2009-12-04T10:22:39Z</time>
      </trkpt>
      <trkpt lat="42.11544" lon="-1.44781">
        <ele>401.5</ele>
        <time>2009-12-04T10:22:41Z</time>
      </trkpt>
      <trkpt lat="42.11519" lon="-1.44817">
        <ele>401.5</ele>
        <time>2009-12-04T10:22:49Z</time>
      </trkpt>
      <trkpt lat="42.11482" lon="-1.44891">
        <ele>401</ele>
        <time>2009-12-04T10:23:05Z</time>
      </trkpt>
      <trkpt lat="42.11431" lon="-1.44954">
        <ele>403.4</ele>
        <time>2009-12-04T10:23:23Z</time>
      </trkpt>
      <trkpt lat="42.11428" lon="-1.44957">
        <ele>403.9</ele>
        <time>2009-12-04T10:23:24Z</time>
      </trkpt>
      <trkpt lat="42.11401" lon="-1.45005">
        <ele>402.4</ele>
        <time>2009-12-04T10:23:34Z</time>
      </trkpt>
      <trkpt lat="42.11393" lon="-1.45029">
        <ele>402</ele>
        <time>2009-12-04T10:23:38Z</time>
      </trkpt>
      <trkpt lat="42.11389" lon="-1.45041">
        <ele>401.5</ele>
        <time>2009-12-04T10:23:40Z</time>
      </trkpt>
      <trkpt lat="42.11335" lon="-1.45116">
        <ele>399.1</ele>
        <time>2009-12-04T10:23:55Z</time>
      </trkpt>
      <trkpt lat="42.11293" lon="-1.45143">
        <ele>398.1</ele>
        <time>2009-12-04T10:24:03Z</time>
      </trkpt>
      <trkpt lat="42.11271" lon="-1.45167">
        <ele>398.1</ele>
        <time>2009-12-04T10:24:08Z</time>
      </trkpt>
      <trkpt lat="42.1125" lon="-1.45188">
        <ele>397.2</ele>
        <time>2009-12-04T10:24:13Z</time>
      </trkpt>
      <trkpt lat="42.11215" lon="-1.45212">
        <ele>396.7</ele>
        <time>2009-12-04T10:24:20Z</time>
      </trkpt>
      <trkpt lat="42.11182" lon="-1.45227">
        <ele>396.7</ele>
        <time>2009-12-04T10:24:26Z</time>
      </trkpt>
      <trkpt lat="42.11117" lon="-1.45282">
        <ele>396.2</ele>
        <time>2009-12-04T10:24:39Z</time>
      </trkpt>
      <trkpt lat="42.11081" lon="-1.45292">
        <ele>394.8</ele>
        <time>2009-12-04T10:24:45Z</time>
      </trkpt>
      <trkpt lat="42.11047" lon="-1.45289">
        <ele>395.7</ele>
        <time>2009-12-04T10:24:50Z</time>
      </trkpt>
      <trkpt lat="42.1097" lon="-1.45326">
        <ele>393.3</ele>
        <time>2009-12-04T10:25:03Z</time>
      </trkpt>
      <trkpt lat="42.10877" lon="-1.45384">
        <ele>391.4</ele>
        <time>2009-12-04T10:25:19Z</time>
      </trkpt>
      <trkpt lat="42.10818" lon="-1.45452">
        <ele>392.4</ele>
        <time>2009-12-04T10:25:35Z</time>
      </trkpt>
      <trkpt lat="42.10811" lon="-1.45462">
        <ele>391.4</ele>
        <time>2009-12-04T10:25:45Z</time>
      </trkpt>
      <trkpt lat="42.10811" lon="-1.45462">
        <ele>391.4</ele>
        <time>2009-12-04T10:26:19Z</time>
      </trkpt>
      <trkpt lat="42.10804" lon="-1.45462">
        <ele>390.9</ele>
        <time>2009-12-04T10:26:23Z</time>
      </trkpt>
      <trkpt lat="42.10763" lon="-1.45426">
        <ele>389.5</ele>
        <time>2009-12-04T10:26:35Z</time>
      </trkpt>
      <trkpt lat="42.10748" lon="-1.45402">
        <ele>389</ele>
        <time>2009-12-04T10:26:40Z</time>
      </trkpt>
      <trkpt lat="42.10727" lon="-1.4536">
        <ele>388</ele>
        <time>2009-12-04T10:26:49Z</time>
      </trkpt>
      <trkpt lat="42.10704" lon="-1.45321">
        <ele>388</ele>
        <time>2009-12-04T10:26:56Z</time>
      </trkpt>
      <trkpt lat="42.10661" lon="-1.45252">
        <ele>389.5</ele>
        <time>2009-12-04T10:27:07Z</time>
      </trkpt>
      <trkpt lat="42.10637" lon="-1.45232">
        <ele>389</ele>
        <time>2009-12-04T10:27:11Z</time>
      </trkpt>
      <trkpt lat="42.10541" lon="-1.45204">
        <ele>386.1</ele>
        <time>2009-12-04T10:27:24Z</time>
      </trkpt>
      <trkpt lat="42.10427" lon="-1.45159">
        <ele>384.7</ele>
        <time>2009-12-04T10:27:39Z</time>
      </trkpt>
      <trkpt lat="42.10365" lon="-1.45169">
        <ele>383.7</ele>
        <time>2009-12-04T10:27:50Z</time>
      </trkpt>
      <trkpt lat="42.1032" lon="-1.45145">
        <ele>381.3</ele>
        <time>2009-12-04T10:27:57Z</time>
      </trkpt>
      <trkpt lat="42.10224" lon="-1.4504">
        <ele>377.9</ele>
        <time>2009-12-04T10:28:11Z</time>
      </trkpt>
      <trkpt lat="42.10208" lon="-1.45031">
        <ele>377.5</ele>
        <time>2009-12-04T10:28:13Z</time>
      </trkpt>
      <trkpt lat="42.10167" lon="-1.45031">
        <ele>376</ele>
        <time>2009-12-04T10:28:18Z</time>
      </trkpt>
      <trkpt lat="42.10068" lon="-1.45048">
        <ele>373.6</ele>
        <time>2009-12-04T10:28:30Z</time>
      </trkpt>
      <trkpt lat="42.10046" lon="-1.45047">
        <ele>373.1</ele>
        <time>2009-12-04T10:28:33Z</time>
      </trkpt>
      <trkpt lat="42.09954" lon="-1.45053">
        <ele>370.2</ele>
        <time>2009-12-04T10:28:46Z</time>
      </trkpt>
      <trkpt lat="42.09924" lon="-1.45047">
        <ele>369.8</ele>
        <time>2009-12-04T10:28:50Z</time>
      </trkpt>
      <trkpt lat="42.09854" lon="-1.45075">
        <ele>368.3</ele>
        <time>2009-12-04T10:29:00Z</time>
      </trkpt>
      <trkpt lat="42.09834" lon="-1.45086">
        <ele>367.8</ele>
        <time>2009-12-04T10:29:03Z</time>
      </trkpt>
      <trkpt lat="42.09752" lon="-1.45153">
        <ele>366.9</ele>
        <time>2009-12-04T10:29:17Z</time>
      </trkpt>
      <trkpt lat="42.09662" lon="-1.45208">
        <ele>365.4</ele>
        <time>2009-12-04T10:29:32Z</time>
      </trkpt>
      <trkpt lat="42.09626" lon="-1.45245">
        <ele>366.4</ele>
        <time>2009-12-04T10:29:39Z</time>
      </trkpt>
      <trkpt lat="42.09553" lon="-1.45333">
        <ele>362.1</ele>
        <time>2009-12-04T10:29:55Z</time>
      </trkpt>
      <trkpt lat="42.09463" lon="-1.45428">
        <ele>359.2</ele>
        <time>2009-12-04T10:30:14Z</time>
      </trkpt>
      <trkpt lat="42.09458" lon="-1.45432">
        <ele>359.2</ele>
        <time>2009-12-04T10:30:15Z</time>
      </trkpt>
      <trkpt lat="42.09431" lon="-1.45447">
        <ele>359.2</ele>
        <time>2009-12-04T10:30:20Z</time>
      </trkpt>
      <trkpt lat="42.09399" lon="-1.45449">
        <ele>358.7</ele>
        <time>2009-12-04T10:30:25Z</time>
      </trkpt>
      <trkpt lat="42.09357" lon="-1.45429">
        <ele>358.7</ele>
        <time>2009-12-04T10:30:32Z</time>
      </trkpt>
      <trkpt lat="42.0928" lon="-1.45312">
        <ele>359.7</ele>
        <time>2009-12-04T10:30:50Z</time>
      </trkpt>
      <trkpt lat="42.09187" lon="-1.45168">
        <ele>356.8</ele>
        <time>2009-12-04T10:31:11Z</time>
      </trkpt>
      <trkpt lat="42.09105" lon="-1.45037">
        <ele>351.5</ele>
        <time>2009-12-04T10:31:27Z</time>
      </trkpt>
      <trkpt lat="42.09093" lon="-1.45018">
        <ele>352.5</ele>
        <time>2009-12-04T10:31:30Z</time>
      </trkpt>
      <trkpt lat="42.09085" lon="-1.44999">
        <ele>352.9</ele>
        <time>2009-12-04T10:31:33Z</time>
      </trkpt>
      <trkpt lat="42.09082" lon="-1.44973">
        <ele>353.4</ele>
        <time>2009-12-04T10:31:37Z</time>
      </trkpt>
      <trkpt lat="42.09085" lon="-1.44906">
        <ele>352</ele>
        <time>2009-12-04T10:31:51Z</time>
      </trkpt>
      <trkpt lat="42.09091" lon="-1.44818">
        <ele>352.5</ele>
        <time>2009-12-04T10:32:09Z</time>
      </trkpt>
      <trkpt lat="42.09094" lon="-1.44744">
        <ele>353.4</ele>
        <time>2009-12-04T10:32:25Z</time>
      </trkpt>
      <trkpt lat="42.09098" lon="-1.44654">
        <ele>353.9</ele>
        <time>2009-12-04T10:32:43Z</time>
      </trkpt>
      <trkpt lat="42.09098" lon="-1.446">
        <ele>354.4</ele>
        <time>2009-12-04T10:32:53Z</time>
      </trkpt>
      <trkpt lat="42.09086" lon="-1.44508">
        <ele>356.8</ele>
        <time>2009-12-04T10:33:11Z</time>
      </trkpt>
      <trkpt lat="42.09074" lon="-1.44532">
        <ele>357.7</ele>
        <time>2009-12-04T10:33:20Z</time>
      </trkpt>
      <trkpt lat="42.09048" lon="-1.44604">
        <ele>355.8</ele>
        <time>2009-12-04T10:33:33Z</time>
      </trkpt>
      <trkpt lat="42.08997" lon="-1.44721">
        <ele>353.9</ele>
        <time>2009-12-04T10:33:53Z</time>
      </trkpt>
      <trkpt lat="42.08943" lon="-1.44836">
        <ele>356.3</ele>
        <time>2009-12-04T10:34:12Z</time>
      </trkpt>
      <trkpt lat="42.08893" lon="-1.4495">
        <ele>356.3</ele>
        <time>2009-12-04T10:34:32Z</time>
      </trkpt>
      <trkpt lat="42.0888" lon="-1.44984">
        <ele>355.8</ele>
        <time>2009-12-04T10:34:38Z</time>
      </trkpt>
      <trkpt lat="42.08869" lon="-1.45015">
        <ele>355.8</ele>
        <time>2009-12-04T10:34:45Z</time>
      </trkpt>
      <trkpt lat="42.08852" lon="-1.45005">
        <ele>357.7</ele>
        <time>2009-12-04T10:34:53Z</time>
      </trkpt>
      <trkpt lat="42.08847" lon="-1.44954">
        <ele>359.7</ele>
        <time>2009-12-04T10:35:05Z</time>
      </trkpt>
      <trkpt lat="42.08825" lon="-1.44854">
        <ele>361.1</ele>
        <time>2009-12-04T10:35:24Z</time>
      </trkpt>
      <trkpt lat="42.08804" lon="-1.44762">
        <ele>361.1</ele>
        <time>2009-12-04T10:35:39Z</time>
      </trkpt>
      <trkpt lat="42.08798" lon="-1.44744">
        <ele>361.1</ele>
        <time>2009-12-04T10:35:42Z</time>
      </trkpt>
      <trkpt lat="42.08757" lon="-1.44648">
        <ele>360.2</ele>
        <time>2009-12-04T10:35:59Z</time>
      </trkpt>
      <trkpt lat="42.08703" lon="-1.44589">
        <ele>360.2</ele>
        <time>2009-12-04T10:36:13Z</time>
      </trkpt>
      <trkpt lat="42.08682" lon="-1.44576">
        <ele>361.6</ele>
        <time>2009-12-04T10:36:18Z</time>
      </trkpt>
      <trkpt lat="42.08673" lon="-1.4457">
        <ele>362.1</ele>
        <time>2009-12-04T10:36:20Z</time>
      </trkpt>
      <trkpt lat="42.0866" lon="-1.44553">
        <ele>362.6</ele>
        <time>2009-12-04T10:36:24Z</time>
      </trkpt>
      <trkpt lat="42.08651" lon="-1.44525">
        <ele>363</ele>
        <time>2009-12-04T10:36:29Z</time>
      </trkpt>
      <trkpt lat="42.08638" lon="-1.44452">
        <ele>361.6</ele>
        <time>2009-12-04T10:36:40Z</time>
      </trkpt>
      <trkpt lat="42.0861" lon="-1.44382">
        <ele>362.1</ele>
        <time>2009-12-04T10:36:52Z</time>
      </trkpt>
      <trkpt lat="42.08592" lon="-1.44358">
        <ele>362.1</ele>
        <time>2009-12-04T10:36:57Z</time>
      </trkpt>
      <trkpt lat="42.08573" lon="-1.44345">
        <ele>362.6</ele>
        <time>2009-12-04T10:37:01Z</time>
      </trkpt>
      <trkpt lat="42.08554" lon="-1.44316">
        <ele>362.6</ele>
        <time>2009-12-04T10:37:07Z</time>
      </trkpt>
      <trkpt lat="42.0855" lon="-1.44303">
        <ele>362.1</ele>
        <time>2009-12-04T10:37:09Z</time>
      </trkpt>
      <trkpt lat="42.0851" lon="-1.44198">
        <ele>365</ele>
        <time>2009-12-04T10:37:28Z</time>
      </trkpt>
      <trkpt lat="42.08479" lon="-1.44139">
        <ele>364</ele>
        <time>2009-12-04T10:37:42Z</time>
      </trkpt>
      <trkpt lat="42.08433" lon="-1.44087">
        <ele>365.4</ele>
        <time>2009-12-04T10:37:57Z</time>
      </trkpt>
      <trkpt lat="42.0837" lon="-1.44048">
        <ele>366.9</ele>
        <time>2009-12-04T10:38:15Z</time>
      </trkpt>
      <trkpt lat="42.08363" lon="-1.44043">
        <ele>367.4</ele>
        <time>2009-12-04T10:38:17Z</time>
      </trkpt>
      <trkpt lat="42.0829" lon="-1.43979">
        <ele>366.9</ele>
        <time>2009-12-04T10:38:36Z</time>
      </trkpt>
      <trkpt lat="42.08282" lon="-1.43972">
        <ele>367.4</ele>
        <time>2009-12-04T10:38:38Z</time>
      </trkpt>
      <trkpt lat="42.08231" lon="-1.43908">
        <ele>368.3</ele>
        <time>2009-12-04T10:38:53Z</time>
      </trkpt>
      <trkpt lat="42.08189" lon="-1.43863">
        <ele>371.7</ele>
        <time>2009-12-04T10:39:06Z</time>
      </trkpt>
      <trkpt lat="42.08174" lon="-1.43855">
        <ele>371.2</ele>
        <time>2009-12-04T10:39:10Z</time>
      </trkpt>
      <trkpt lat="42.08149" lon="-1.43848">
        <ele>371.2</ele>
        <time>2009-12-04T10:39:16Z</time>
      </trkpt>
      <trkpt lat="42.08137" lon="-1.43848">
        <ele>370.2</ele>
        <time>2009-12-04T10:39:19Z</time>
      </trkpt>
      <trkpt lat="42.08081" lon="-1.43842">
        <ele>371.2</ele>
        <time>2009-12-04T10:39:33Z</time>
      </trkpt>
      <trkpt lat="42.08057" lon="-1.43845">
        <ele>372.2</ele>
        <time>2009-12-04T10:39:39Z</time>
      </trkpt>
      <trkpt lat="42.08044" lon="-1.43845">
        <ele>373.1</ele>
        <time>2009-12-04T10:39:42Z</time>
      </trkpt>
      <trkpt lat="42.08036" lon="-1.43844">
        <ele>372.6</ele>
        <time>2009-12-04T10:39:44Z</time>
      </trkpt>
      <trkpt lat="42.08028" lon="-1.43841">
        <ele>373.6</ele>
        <time>2009-12-04T10:39:46Z</time>
      </trkpt>
      <trkpt lat="42.08012" lon="-1.43831">
        <ele>374.1</ele>
        <time>2009-12-04T10:39:50Z</time>
      </trkpt>
      <trkpt lat="42.07926" lon="-1.43779">
        <ele>376.5</ele>
        <time>2009-12-04T10:40:10Z</time>
      </trkpt>
      <trkpt lat="42.07849" lon="-1.43732">
        <ele>376.5</ele>
        <time>2009-12-04T10:40:28Z</time>
      </trkpt>
      <trkpt lat="42.07793" lon="-1.43708">
        <ele>375.5</ele>
        <time>2009-12-04T10:40:39Z</time>
      </trkpt>
      <trkpt lat="42.07777" lon="-1.43703">
        <ele>376.5</ele>
        <time>2009-12-04T10:40:42Z</time>
      </trkpt>
      <trkpt lat="42.0771" lon="-1.43651">
        <ele>377.5</ele>
        <time>2009-12-04T10:40:57Z</time>
      </trkpt>
      <trkpt lat="42.07668" lon="-1.43565">
        <ele>377.9</ele>
        <time>2009-12-04T10:41:13Z</time>
      </trkpt>
      <trkpt lat="42.07646" lon="-1.43524">
        <ele>379.4</ele>
        <time>2009-12-04T10:41:21Z</time>
      </trkpt>
      <trkpt lat="42.07603" lon="-1.43465">
        <ele>382.7</ele>
        <time>2009-12-04T10:41:37Z</time>
      </trkpt>
      <trkpt lat="42.07549" lon="-1.43444">
        <ele>383.2</ele>
        <time>2009-12-04T10:41:52Z</time>
      </trkpt>
      <trkpt lat="42.07514" lon="-1.43399">
        <ele>386.1</ele>
        <time>2009-12-04T10:42:05Z</time>
      </trkpt>
      <trkpt lat="42.0748" lon="-1.43339">
        <ele>386.1</ele>
        <time>2009-12-04T10:42:19Z</time>
      </trkpt>
      <trkpt lat="42.07477" lon="-1.43335">
        <ele>385.6</ele>
        <time>2009-12-04T10:42:20Z</time>
      </trkpt>
      <trkpt lat="42.07465" lon="-1.43317">
        <ele>385.6</ele>
        <time>2009-12-04T10:42:24Z</time>
      </trkpt>
      <trkpt lat="42.07451" lon="-1.43303">
        <ele>385.6</ele>
        <time>2009-12-04T10:42:28Z</time>
      </trkpt>
      <trkpt lat="42.07444" lon="-1.43298">
        <ele>386.1</ele>
        <time>2009-12-04T10:42:30Z</time>
      </trkpt>
      <trkpt lat="42.0741" lon="-1.43286">
        <ele>385.1</ele>
        <time>2009-12-04T10:42:38Z</time>
      </trkpt>
      <trkpt lat="42.07387" lon="-1.43276">
        <ele>385.6</ele>
        <time>2009-12-04T10:42:43Z</time>
      </trkpt>
      <trkpt lat="42.07365" lon="-1.43264">
        <ele>386.1</ele>
        <time>2009-12-04T10:42:48Z</time>
      </trkpt>
      <trkpt lat="42.0735" lon="-1.43251">
        <ele>387.5</ele>
        <time>2009-12-04T10:42:52Z</time>
      </trkpt>
      <trkpt lat="42.07337" lon="-1.43234">
        <ele>389</ele>
        <time>2009-12-04T10:42:56Z</time>
      </trkpt>
      <trkpt lat="42.07329" lon="-1.43221">
        <ele>389</ele>
        <time>2009-12-04T10:42:59Z</time>
      </trkpt>
      <trkpt lat="42.07272" lon="-1.43156">
        <ele>390.4</ele>
        <time>2009-12-04T10:43:17Z</time>
      </trkpt>
      <trkpt lat="42.07205" lon="-1.4309">
        <ele>392.4</ele>
        <time>2009-12-04T10:43:37Z</time>
      </trkpt>
      <trkpt lat="42.07145" lon="-1.43034">
        <ele>391.9</ele>
        <time>2009-12-04T10:43:54Z</time>
      </trkpt>
      <trkpt lat="42.07121" lon="-1.4301">
        <ele>392.8</ele>
        <time>2009-12-04T10:44:01Z</time>
      </trkpt>
      <trkpt lat="42.07083" lon="-1.42944">
        <ele>392.4</ele>
        <time>2009-12-04T10:44:15Z</time>
      </trkpt>
      <trkpt lat="42.07047" lon="-1.42853">
        <ele>393.8</ele>
        <time>2009-12-04T10:44:33Z</time>
      </trkpt>
      <trkpt lat="42.07046" lon="-1.42847">
        <ele>393.8</ele>
        <time>2009-12-04T10:44:34Z</time>
      </trkpt>
      <trkpt lat="42.07026" lon="-1.42798">
        <ele>395.2</ele>
        <time>2009-12-04T10:44:47Z</time>
      </trkpt>
      <trkpt lat="42.07028" lon="-1.42799">
        <ele>394.8</ele>
        <time>2009-12-04T10:45:12Z</time>
      </trkpt>
      <trkpt lat="42.07028" lon="-1.42799">
        <ele>394.8</ele>
        <time>2009-12-04T10:45:54Z</time>
      </trkpt>
      <trkpt lat="42.07036" lon="-1.42795">
        <ele>394.8</ele>
        <time>2009-12-04T10:45:58Z</time>
      </trkpt>
      <trkpt lat="42.07071" lon="-1.42745">
        <ele>397.2</ele>
        <time>2009-12-04T10:46:13Z</time>
      </trkpt>
      <trkpt lat="42.07086" lon="-1.42676">
        <ele>399.6</ele>
        <time>2009-12-04T10:46:29Z</time>
      </trkpt>
      <trkpt lat="42.07093" lon="-1.42594">
        <ele>401.5</ele>
        <time>2009-12-04T10:46:46Z</time>
      </trkpt>
      <trkpt lat="42.07094" lon="-1.42549">
        <ele>402</ele>
        <time>2009-12-04T10:46:54Z</time>
      </trkpt>
      <trkpt lat="42.07093" lon="-1.42504">
        <ele>402.4</ele>
        <time>2009-12-04T10:47:01Z</time>
      </trkpt>
      <trkpt lat="42.07111" lon="-1.42459">
        <ele>404.4</ele>
        <time>2009-12-04T10:47:09Z</time>
      </trkpt>
      <trkpt lat="42.07168" lon="-1.42411">
        <ele>403.4</ele>
        <time>2009-12-04T10:47:23Z</time>
      </trkpt>
      <trkpt lat="42.07204" lon="-1.42385">
        <ele>405.3</ele>
        <time>2009-12-04T10:47:33Z</time>
      </trkpt>
      <trkpt lat="42.07235" lon="-1.42364">
        <ele>405.8</ele>
        <time>2009-12-04T10:47:45Z</time>
      </trkpt>
      <trkpt lat="42.07254" lon="-1.42354">
        <ele>405.3</ele>
        <time>2009-12-04T10:48:26Z</time>
      </trkpt>
      <trkpt lat="42.07279" lon="-1.4234">
        <ele>404.9</ele>
        <time>2009-12-04T10:48:33Z</time>
      </trkpt>
      <trkpt lat="42.07293" lon="-1.42325">
        <ele>402.9</ele>
        <time>2009-12-04T10:48:37Z</time>
      </trkpt>
      <trkpt lat="42.07304" lon="-1.42302">
        <ele>401</ele>
        <time>2009-12-04T10:48:41Z</time>
      </trkpt>
      <trkpt lat="42.07334" lon="-1.42201">
        <ele>401</ele>
        <time>2009-12-04T10:48:55Z</time>
      </trkpt>
      <trkpt lat="42.07378" lon="-1.42099">
        <ele>401</ele>
        <time>2009-12-04T10:49:11Z</time>
      </trkpt>
      <trkpt lat="42.07398" lon="-1.42052">
        <ele>402</ele>
        <time>2009-12-04T10:49:19Z</time>
      </trkpt>
      <trkpt lat="42.07408" lon="-1.42031">
        <ele>403.4</ele>
        <time>2009-12-04T10:49:23Z</time>
      </trkpt>
      <trkpt lat="42.07424" lon="-1.42009">
        <ele>403.4</ele>
        <time>2009-12-04T10:49:28Z</time>
      </trkpt>
      <trkpt lat="42.07452" lon="-1.41985">
        <ele>402.9</ele>
        <time>2009-12-04T10:49:35Z</time>
      </trkpt>
      <trkpt lat="42.07489" lon="-1.41932">
        <ele>405.8</ele>
        <time>2009-12-04T10:49:50Z</time>
      </trkpt>
      <trkpt lat="42.07517" lon="-1.41874">
        <ele>407.7</ele>
        <time>2009-12-04T10:50:06Z</time>
      </trkpt>
      <trkpt lat="42.07541" lon="-1.41792">
        <ele>409.2</ele>
        <time>2009-12-04T10:50:25Z</time>
      </trkpt>
      <trkpt lat="42.07563" lon="-1.4172">
        <ele>414</ele>
        <time>2009-12-04T10:50:42Z</time>
      </trkpt>
      <trkpt lat="42.07594" lon="-1.41657">
        <ele>413.5</ele>
        <time>2009-12-04T10:51:00Z</time>
      </trkpt>
      <trkpt lat="42.07619" lon="-1.41589">
        <ele>415.4</ele>
        <time>2009-12-04T10:51:17Z</time>
      </trkpt>
      <trkpt lat="42.07642" lon="-1.41516">
        <ele>418.3</ele>
        <time>2009-12-04T10:51:32Z</time>
      </trkpt>
      <trkpt lat="42.07658" lon="-1.41463">
        <ele>417.3</ele>
        <time>2009-12-04T10:51:41Z</time>
      </trkpt>
      <trkpt lat="42.07667" lon="-1.41429">
        <ele>420.2</ele>
        <time>2009-12-04T10:51:47Z</time>
      </trkpt>
      <trkpt lat="42.07673" lon="-1.414">
        <ele>420.7</ele>
        <time>2009-12-04T10:51:52Z</time>
      </trkpt>
      <trkpt lat="42.0767" lon="-1.4132">
        <ele>423.1</ele>
        <time>2009-12-04T10:52:07Z</time>
      </trkpt>
      <trkpt lat="42.07674" lon="-1.41268">
        <ele>423.1</ele>
        <time>2009-12-04T10:52:16Z</time>
      </trkpt>
      <trkpt lat="42.07679" lon="-1.41242">
        <ele>422.6</ele>
        <time>2009-12-04T10:52:20Z</time>
      </trkpt>
      <trkpt lat="42.07699" lon="-1.41208">
        <ele>424.1</ele>
        <time>2009-12-04T10:52:27Z</time>
      </trkpt>
      <trkpt lat="42.07736" lon="-1.41189">
        <ele>424.1</ele>
        <time>2009-12-04T10:52:35Z</time>
      </trkpt>
      <trkpt lat="42.07753" lon="-1.41187">
        <ele>423.1</ele>
        <time>2009-12-04T10:52:39Z</time>
      </trkpt>
      <trkpt lat="42.07796" lon="-1.4121">
        <ele>424.6</ele>
        <time>2009-12-04T10:52:53Z</time>
      </trkpt>
      <trkpt lat="42.07837" lon="-1.41233">
        <ele>423.6</ele>
        <time>2009-12-04T10:53:09Z</time>
      </trkpt>
      <trkpt lat="42.07872" lon="-1.41235">
        <ele>426.5</ele>
        <time>2009-12-04T10:53:24Z</time>
      </trkpt>
      <trkpt lat="42.07898" lon="-1.41212">
        <ele>427.9</ele>
        <time>2009-12-04T10:53:36Z</time>
      </trkpt>
      <trkpt lat="42.07905" lon="-1.41157">
        <ele>428.4</ele>
        <time>2009-12-04T10:53:48Z</time>
      </trkpt>
      <trkpt lat="42.07902" lon="-1.4112">
        <ele>427.9</ele>
        <time>2009-12-04T10:53:55Z</time>
      </trkpt>
      <trkpt lat="42.07907" lon="-1.41091">
        <ele>427.9</ele>
        <time>2009-12-04T10:54:00Z</time>
      </trkpt>
      <trkpt lat="42.07912" lon="-1.41079">
        <ele>428.4</ele>
        <time>2009-12-04T10:54:02Z</time>
      </trkpt>
      <trkpt lat="42.07926" lon="-1.41059">
        <ele>428.4</ele>
        <time>2009-12-04T10:54:06Z</time>
      </trkpt>
      <trkpt lat="42.07949" lon="-1.41044">
        <ele>427.4</ele>
        <time>2009-12-04T10:54:11Z</time>
      </trkpt>
      <trkpt lat="42.07963" lon="-1.41041">
        <ele>427</ele>
        <time>2009-12-04T10:54:14Z</time>
      </trkpt>
      <trkpt lat="42.08003" lon="-1.41023">
        <ele>427.4</ele>
        <time>2009-12-04T10:54:23Z</time>
      </trkpt>
      <trkpt lat="42.08043" lon="-1.40985">
        <ele>426</ele>
        <time>2009-12-04T10:54:32Z</time>
      </trkpt>
      <trkpt lat="42.08116" lon="-1.40884">
        <ele>422.6</ele>
        <time>2009-12-04T10:54:52Z</time>
      </trkpt>
      <trkpt lat="42.08138" lon="-1.40849">
        <ele>422.2</ele>
        <time>2009-12-04T10:54:58Z</time>
      </trkpt>
      <trkpt lat="42.08158" lon="-1.40812">
        <ele>422.2</ele>
        <time>2009-12-04T10:55:04Z</time>
      </trkpt>
      <trkpt lat="42.08173" lon="-1.40744">
        <ele>421.7</ele>
        <time>2009-12-04T10:55:14Z</time>
      </trkpt>
      <trkpt lat="42.08199" lon="-1.40728">
        <ele>422.2</ele>
        <time>2009-12-04T10:55:21Z</time>
      </trkpt>
      <trkpt lat="42.08209" lon="-1.40731">
        <ele>422.2</ele>
        <time>2009-12-04T10:55:23Z</time>
      </trkpt>
      <trkpt lat="42.08295" lon="-1.4076">
        <ele>421.7</ele>
        <time>2009-12-04T10:55:40Z</time>
      </trkpt>
      <trkpt lat="42.08338" lon="-1.40761">
        <ele>419.3</ele>
        <time>2009-12-04T10:55:48Z</time>
      </trkpt>
      <trkpt lat="42.08377" lon="-1.40745">
        <ele>417.8</ele>
        <time>2009-12-04T10:55:56Z</time>
      </trkpt>
      <trkpt lat="42.08403" lon="-1.40744">
        <ele>416.9</ele>
        <time>2009-12-04T10:56:01Z</time>
      </trkpt>
      <trkpt lat="42.08479" lon="-1.40729">
        <ele>415.4</ele>
        <time>2009-12-04T10:56:16Z</time>
      </trkpt>
      <trkpt lat="42.08507" lon="-1.40708">
        <ele>412.5</ele>
        <time>2009-12-04T10:56:23Z</time>
      </trkpt>
      <trkpt lat="42.08562" lon="-1.40616">
        <ele>407.7</ele>
        <time>2009-12-04T10:56:35Z</time>
      </trkpt>
      <trkpt lat="42.08567" lon="-1.40609">
        <ele>408.2</ele>
        <time>2009-12-04T10:56:36Z</time>
      </trkpt>
      <trkpt lat="42.08586" lon="-1.40586">
        <ele>408.7</ele>
        <time>2009-12-04T10:56:40Z</time>
      </trkpt>
      <trkpt lat="42.08607" lon="-1.4057">
        <ele>407.7</ele>
        <time>2009-12-04T10:56:44Z</time>
      </trkpt>
      <trkpt lat="42.08622" lon="-1.40549">
        <ele>407.7</ele>
        <time>2009-12-04T10:56:48Z</time>
      </trkpt>
      <trkpt lat="42.08635" lon="-1.40536">
        <ele>407.7</ele>
        <time>2009-12-04T10:56:51Z</time>
      </trkpt>
      <trkpt lat="42.08693" lon="-1.40491">
        <ele>408.7</ele>
        <time>2009-12-04T10:57:06Z</time>
      </trkpt>
      <trkpt lat="42.08724" lon="-1.40463">
        <ele>408.2</ele>
        <time>2009-12-04T10:57:14Z</time>
      </trkpt>
      <trkpt lat="42.08778" lon="-1.40409">
        <ele>409.2</ele>
        <time>2009-12-04T10:57:29Z</time>
      </trkpt>
      <trkpt lat="42.08789" lon="-1.40403">
        <ele>409.7</ele>
        <time>2009-12-04T10:57:32Z</time>
      </trkpt>
      <trkpt lat="42.08846" lon="-1.40352">
        <ele>411.6</ele>
        <time>2009-12-04T10:57:50Z</time>
      </trkpt>
      <trkpt lat="42.08891" lon="-1.40315">
        <ele>412.1</ele>
        <time>2009-12-04T10:58:05Z</time>
      </trkpt>
      <trkpt lat="42.08946" lon="-1.40274">
        <ele>410.6</ele>
        <time>2009-12-04T10:58:23Z</time>
      </trkpt>
      <trkpt lat="42.08992" lon="-1.40219">
        <ele>409.7</ele>
        <time>2009-12-04T10:58:38Z</time>
      </trkpt>
      <trkpt lat="42.09046" lon="-1.40156">
        <ele>407.7</ele>
        <time>2009-12-04T10:58:52Z</time>
      </trkpt>
      <trkpt lat="42.09119" lon="-1.40095">
        <ele>409.2</ele>
        <time>2009-12-04T10:59:09Z</time>
      </trkpt>
      <trkpt lat="42.09155" lon="-1.40059">
        <ele>407.7</ele>
        <time>2009-12-04T10:59:17Z</time>
      </trkpt>
      <trkpt lat="42.09219" lon="-1.40002">
        <ele>406.8</ele>
        <time>2009-12-04T10:59:32Z</time>
      </trkpt>
      <trkpt lat="42.09262" lon="-1.39963">
        <ele>408.7</ele>
        <time>2009-12-04T10:59:48Z</time>
      </trkpt>
      <trkpt lat="42.09309" lon="-1.39919">
        <ele>412.1</ele>
        <time>2009-12-04T11:00:10Z</time>
      </trkpt>
      <trkpt lat="42.09354" lon="-1.39875">
        <ele>411.1</ele>
        <time>2009-12-04T11:00:28Z</time>
      </trkpt>
      <trkpt lat="42.09402" lon="-1.39826">
        <ele>410.1</ele>
        <time>2009-12-04T11:00:44Z</time>
      </trkpt>
      <trkpt lat="42.09455" lon="-1.39769">
        <ele>410.1</ele>
        <time>2009-12-04T11:01:03Z</time>
      </trkpt>
      <trkpt lat="42.09514" lon="-1.3971">
        <ele>411.6</ele>
        <time>2009-12-04T11:01:22Z</time>
      </trkpt>
      <trkpt lat="42.09571" lon="-1.39658">
        <ele>411.6</ele>
        <time>2009-12-04T11:01:38Z</time>
      </trkpt>
      <trkpt lat="42.09582" lon="-1.3965">
        <ele>412.1</ele>
        <time>2009-12-04T11:01:47Z</time>
      </trkpt>
      <trkpt lat="42.09583" lon="-1.39648">
        <ele>412.1</ele>
        <time>2009-12-04T11:02:37Z</time>
      </trkpt>
      <trkpt lat="42.09614" lon="-1.39637">
        <ele>411.1</ele>
        <time>2009-12-04T11:02:49Z</time>
      </trkpt>
      <trkpt lat="42.09658" lon="-1.39632">
        <ele>411.6</ele>
        <time>2009-12-04T11:03:00Z</time>
      </trkpt>
      <trkpt lat="42.09682" lon="-1.39626">
        <ele>412.5</ele>
        <time>2009-12-04T11:03:06Z</time>
      </trkpt>
      <trkpt lat="42.09747" lon="-1.39615">
        <ele>413.5</ele>
        <time>2009-12-04T11:03:22Z</time>
      </trkpt>
      <trkpt lat="42.09789" lon="-1.39603">
        <ele>414.9</ele>
        <time>2009-12-04T11:03:36Z</time>
      </trkpt>
      <trkpt lat="42.09787" lon="-1.39603">
        <ele>414</ele>
        <time>2009-12-04T11:05:49Z</time>
      </trkpt>
      <trkpt lat="42.09793" lon="-1.39604">
        <ele>414.9</ele>
        <time>2009-12-04T11:05:53Z</time>
      </trkpt>
      <trkpt lat="42.0984" lon="-1.39598">
        <ele>415.9</ele>
        <time>2009-12-04T11:06:07Z</time>
      </trkpt>
      <trkpt lat="42.09863" lon="-1.39595">
        <ele>415.9</ele>
        <time>2009-12-04T11:06:14Z</time>
      </trkpt>
      <trkpt lat="42.09926" lon="-1.39597">
        <ele>417.8</ele>
        <time>2009-12-04T11:06:30Z</time>
      </trkpt>
      <trkpt lat="42.0993" lon="-1.39598">
        <ele>417.3</ele>
        <time>2009-12-04T11:06:31Z</time>
      </trkpt>
      <trkpt lat="42.09942" lon="-1.39602">
        <ele>417.3</ele>
        <time>2009-12-04T11:06:34Z</time>
      </trkpt>
      <trkpt lat="42.09954" lon="-1.39608">
        <ele>416.4</ele>
        <time>2009-12-04T11:06:37Z</time>
      </trkpt>
      <trkpt lat="42.09995" lon="-1.39634">
        <ele>414.5</ele>
        <time>2009-12-04T11:06:47Z</time>
      </trkpt>
      <trkpt lat="42.1002" lon="-1.39638">
        <ele>412.5</ele>
        <time>2009-12-04T11:06:52Z</time>
      </trkpt>
      <trkpt lat="42.1011" lon="-1.39605">
        <ele>407.7</ele>
        <time>2009-12-04T11:07:06Z</time>
      </trkpt>
      <trkpt lat="42.1017" lon="-1.39547">
        <ele>406.8</ele>
        <time>2009-12-04T11:07:18Z</time>
      </trkpt>
      <trkpt lat="42.10243" lon="-1.39458">
        <ele>405.3</ele>
        <time>2009-12-04T11:07:36Z</time>
      </trkpt>
      <trkpt lat="42.10301" lon="-1.39385">
        <ele>406.8</ele>
        <time>2009-12-04T11:07:52Z</time>
      </trkpt>
      <trkpt lat="42.10366" lon="-1.3931">
        <ele>407.7</ele>
        <time>2009-12-04T11:08:11Z</time>
      </trkpt>
      <trkpt lat="42.10415" lon="-1.3928">
        <ele>411.6</ele>
        <time>2009-12-04T11:08:25Z</time>
      </trkpt>
      <trkpt lat="42.10453" lon="-1.39243">
        <ele>412.5</ele>
        <time>2009-12-04T11:08:39Z</time>
      </trkpt>
      <trkpt lat="42.10499" lon="-1.3919">
        <ele>414.5</ele>
        <time>2009-12-04T11:08:59Z</time>
      </trkpt>
      <trkpt lat="42.10543" lon="-1.39137">
        <ele>415.9</ele>
        <time>2009-12-04T11:09:16Z</time>
      </trkpt>
      <trkpt lat="42.10544" lon="-1.39131">
        <ele>416.4</ele>
        <time>2009-12-04T11:09:17Z</time>
      </trkpt>
      <trkpt lat="42.1055" lon="-1.39115">
        <ele>415.9</ele>
        <time>2009-12-04T11:09:20Z</time>
      </trkpt>
      <trkpt lat="42.10578" lon="-1.39064">
        <ele>414.9</ele>
        <time>2009-12-04T11:09:30Z</time>
      </trkpt>
      <trkpt lat="42.10596" lon="-1.38993">
        <ele>415.4</ele>
        <time>2009-12-04T11:09:41Z</time>
      </trkpt>
      <trkpt lat="42.10605" lon="-1.38964">
        <ele>416.4</ele>
        <time>2009-12-04T11:09:46Z</time>
      </trkpt>
      <trkpt lat="42.10618" lon="-1.3894">
        <ele>416.9</ele>
        <time>2009-12-04T11:09:51Z</time>
      </trkpt>
      <trkpt lat="42.10647" lon="-1.38897">
        <ele>416.9</ele>
        <time>2009-12-04T11:10:01Z</time>
      </trkpt>
      <trkpt lat="42.10714" lon="-1.38847">
        <ele>419.8</ele>
        <time>2009-12-04T11:10:19Z</time>
      </trkpt>
      <trkpt lat="42.10725" lon="-1.38843">
        <ele>420.2</ele>
        <time>2009-12-04T11:10:22Z</time>
      </trkpt>
      <trkpt lat="42.10752" lon="-1.38859">
        <ele>420.2</ele>
        <time>2009-12-04T11:10:29Z</time>
      </trkpt>
      <trkpt lat="42.10764" lon="-1.38878">
        <ele>417.8</ele>
        <time>2009-12-04T11:10:33Z</time>
      </trkpt>
      <trkpt lat="42.10824" lon="-1.38967">
        <ele>414.9</ele>
        <time>2009-12-04T11:10:50Z</time>
      </trkpt>
      <trkpt lat="42.10842" lon="-1.38994">
        <ele>415.4</ele>
        <time>2009-12-04T11:10:56Z</time>
      </trkpt>
      <trkpt lat="42.10875" lon="-1.3905">
        <ele>414.5</ele>
        <time>2009-12-04T11:11:10Z</time>
      </trkpt>
      <trkpt lat="42.10908" lon="-1.39101">
        <ele>414.9</ele>
        <time>2009-12-04T11:11:26Z</time>
      </trkpt>
      <trkpt lat="42.1094" lon="-1.39151">
        <ele>417.3</ele>
        <time>2009-12-04T11:11:43Z</time>
      </trkpt>
      <trkpt lat="42.10972" lon="-1.39197">
        <ele>418.3</ele>
        <time>2009-12-04T11:11:59Z</time>
      </trkpt>
      <trkpt lat="42.10979" lon="-1.39201">
        <ele>417.3</ele>
        <time>2009-12-04T11:12:10Z</time>
      </trkpt>
      <trkpt lat="42.10979" lon="-1.39202">
        <ele>416.9</ele>
        <time>2009-12-04T11:12:32Z</time>
      </trkpt>
      <trkpt lat="42.11003" lon="-1.39242">
        <ele>415.9</ele>
        <time>2009-12-04T11:12:48Z</time>
      </trkpt>
      <trkpt lat="42.11031" lon="-1.39274">
        <ele>417.3</ele>
        <time>2009-12-04T11:13:00Z</time>
      </trkpt>
      <trkpt lat="42.1108" lon="-1.39309">
        <ele>418.8</ele>
        <time>2009-12-04T11:13:17Z</time>
      </trkpt>
      <trkpt lat="42.1113" lon="-1.3934">
        <ele>419.8</ele>
        <time>2009-12-04T11:13:35Z</time>
      </trkpt>
      <trkpt lat="42.11154" lon="-1.39351">
        <ele>421.7</ele>
        <time>2009-12-04T11:13:48Z</time>
      </trkpt>
      <trkpt lat="42.11154" lon="-1.39351">
        <ele>421.7</ele>
        <time>2009-12-04T11:13:52Z</time>
        <extensions>
          <visugpx:TrkExtension xmlns:visugpx="https://www.visugpx.com/editgpx/">
            <visugpx:node>1</visugpx:node>
            </visugpx:TrkExtension>
        </extensions>
      </trkpt>
    </trkseg>
  </trk>
  <trk>
    <name><![CDATA[6 - Plana de la Negra]]></name>
    <extensions>
      <line xmlns="http://www.topografix.com/GPX/gpx_style/0/2">
        <color>0080ff</color>
        <opacity>0.5</opacity>
        <width>12</width>
      </line>
    </extensions>
    <trkseg>
      <trkpt lat="42.11159" lon="-1.39347">
        <ele>417</ele>
        <time>2010-11-05T21:00:01Z</time>
      </trkpt>
      <trkpt lat="42.11155" lon="-1.39359">
        <ele>417</ele>
        <time>2010-11-05T21:00:04Z</time>
      </trkpt>
      <trkpt lat="42.11133" lon="-1.39344">
        <ele>415</ele>
        <time>2010-11-05T21:00:10Z</time>
      </trkpt>
      <trkpt lat="42.11111" lon="-1.39331">
        <ele>413</ele>
        <time>2010-11-05T21:00:17Z</time>
      </trkpt>
      <trkpt lat="42.11109" lon="-1.3933">
        <ele>413</ele>
        <time>2010-11-05T21:00:18Z</time>
      </trkpt>
      <trkpt lat="42.11045" lon="-1.39286">
        <ele>413</ele>
        <time>2010-11-05T21:00:41Z</time>
      </trkpt>
      <trkpt lat="42.11009" lon="-1.39249">
        <ele>411</ele>
        <time>2010-11-05T21:00:55Z</time>
      </trkpt>
      <trkpt lat="42.10983" lon="-1.39206">
        <ele>409</ele>
        <time>2010-11-05T21:01:08Z</time>
      </trkpt>
      <trkpt lat="42.10892" lon="-1.39078">
        <ele>410</ele>
        <time>2010-11-05T21:01:48Z</time>
      </trkpt>
      <trkpt lat="42.10756" lon="-1.38861">
        <ele>413</ele>
        <time>2010-11-05T21:02:53Z</time>
      </trkpt>
      <trkpt lat="42.10701" lon="-1.38783">
        <ele>415</ele>
        <time>2010-11-05T21:03:18Z</time>
      </trkpt>
      <trkpt lat="42.10608" lon="-1.38649">
        <ele>414</ele>
        <time>2010-11-05T21:04:00Z</time>
      </trkpt>
      <trkpt lat="42.10577" lon="-1.3852">
        <ele>415</ele>
        <time>2010-11-05T21:04:31Z</time>
      </trkpt>
      <trkpt lat="42.10558" lon="-1.38467">
        <ele>417</ele>
        <time>2010-11-05T21:04:44Z</time>
      </trkpt>
      <trkpt lat="42.10559" lon="-1.38394">
        <ele>422</ele>
        <time>2010-11-05T21:05:00Z</time>
      </trkpt>
      <trkpt lat="42.10564" lon="-1.38347">
        <ele>425</ele>
        <time>2010-11-05T21:05:11Z</time>
      </trkpt>
      <trkpt lat="42.10554" lon="-1.3826">
        <ele>431</ele>
        <time>2010-11-05T21:05:32Z</time>
      </trkpt>
      <trkpt lat="42.10553" lon="-1.38226">
        <ele>434</ele>
        <time>2010-11-05T21:05:40Z</time>
      </trkpt>
      <trkpt lat="42.10554" lon="-1.38208">
        <ele>438</ele>
        <time>2010-11-05T21:05:45Z</time>
      </trkpt>
      <trkpt lat="42.10567" lon="-1.38203">
        <ele>438</ele>
        <time>2010-11-05T21:05:48Z</time>
      </trkpt>
      <trkpt lat="42.10589" lon="-1.38209">
        <ele>434</ele>
        <time>2010-11-05T21:05:56Z</time>
      </trkpt>
      <trkpt lat="42.10604" lon="-1.38206">
        <ele>438</ele>
        <time>2010-11-05T21:05:59Z</time>
      </trkpt>
      <trkpt lat="42.1063" lon="-1.38188">
        <ele>439</ele>
        <time>2010-11-05T21:06:09Z</time>
      </trkpt>
      <trkpt lat="42.10642" lon="-1.38167">
        <ele>443</ele>
        <time>2010-11-05T21:06:16Z</time>
      </trkpt>
      <trkpt lat="42.10667" lon="-1.3815">
        <ele>446</ele>
        <time>2010-11-05T21:06:23Z</time>
      </trkpt>
      <trkpt lat="42.10693" lon="-1.38124">
        <ele>449</ele>
        <time>2010-11-05T21:06:34Z</time>
      </trkpt>
      <trkpt lat="42.10712" lon="-1.38103">
        <ele>448</ele>
        <time>2010-11-05T21:06:42Z</time>
      </trkpt>
      <trkpt lat="42.10736" lon="-1.38083">
        <ele>450</ele>
        <time>2010-11-05T21:06:51Z</time>
      </trkpt>
      <trkpt lat="42.10761" lon="-1.38076">
        <ele>450</ele>
        <time>2010-11-05T21:06:58Z</time>
      </trkpt>
      <trkpt lat="42.10785" lon="-1.38057">
        <ele>454</ele>
        <time>2010-11-05T21:07:07Z</time>
      </trkpt>
      <trkpt lat="42.10811" lon="-1.3803">
        <ele>457</ele>
        <time>2010-11-05T21:07:17Z</time>
      </trkpt>
      <trkpt lat="42.10828" lon="-1.38018">
        <ele>458</ele>
        <time>2010-11-05T21:07:23Z</time>
      </trkpt>
      <trkpt lat="42.10829" lon="-1.38017">
        <ele>458</ele>
        <time>2010-11-05T21:07:23Z</time>
      </trkpt>
      <trkpt lat="42.10863" lon="-1.38004">
        <ele>460</ele>
        <time>2010-11-05T21:07:33Z</time>
      </trkpt>
      <trkpt lat="42.10885" lon="-1.37999">
        <ele>459</ele>
        <time>2010-11-05T21:07:41Z</time>
      </trkpt>
      <trkpt lat="42.10887" lon="-1.37998">
        <ele>459</ele>
        <time>2010-11-05T21:07:42Z</time>
      </trkpt>
      <trkpt lat="42.10898" lon="-1.37986">
        <ele>459</ele>
        <time>2010-11-05T21:07:46Z</time>
      </trkpt>
      <trkpt lat="42.10907" lon="-1.37947">
        <ele>463</ele>
        <time>2010-11-05T21:07:55Z</time>
      </trkpt>
      <trkpt lat="42.10929" lon="-1.37921">
        <ele>466</ele>
        <time>2010-11-05T21:08:05Z</time>
      </trkpt>
      <trkpt lat="42.1095" lon="-1.37902">
        <ele>469</ele>
        <time>2010-11-05T21:08:11Z</time>
      </trkpt>
      <trkpt lat="42.10968" lon="-1.37893">
        <ele>469</ele>
        <time>2010-11-05T21:08:18Z</time>
      </trkpt>
      <trkpt lat="42.10999" lon="-1.37901">
        <ele>469</ele>
        <time>2010-11-05T21:08:27Z</time>
      </trkpt>
      <trkpt lat="42.11013" lon="-1.37896">
        <ele>469</ele>
        <time>2010-11-05T21:08:33Z</time>
      </trkpt>
      <trkpt lat="42.11033" lon="-1.37863">
        <ele>471</ele>
        <time>2010-11-05T21:08:41Z</time>
      </trkpt>
      <trkpt lat="42.11049" lon="-1.37834">
        <ele>472</ele>
        <time>2010-11-05T21:08:51Z</time>
      </trkpt>
      <trkpt lat="42.11068" lon="-1.37798">
        <ele>476</ele>
        <time>2010-11-05T21:09:01Z</time>
      </trkpt>
      <trkpt lat="42.11069" lon="-1.37798">
        <ele>476</ele>
        <time>2010-11-05T21:09:01Z</time>
      </trkpt>
      <trkpt lat="42.11087" lon="-1.3774">
        <ele>481</ele>
        <time>2010-11-05T21:09:15Z</time>
      </trkpt>
      <trkpt lat="42.11109" lon="-1.37701">
        <ele>486</ele>
        <time>2010-11-05T21:09:27Z</time>
      </trkpt>
      <trkpt lat="42.11125" lon="-1.3767">
        <ele>492</ele>
        <time>2010-11-05T21:09:34Z</time>
      </trkpt>
      <trkpt lat="42.11135" lon="-1.37638">
        <ele>490</ele>
        <time>2010-11-05T21:09:43Z</time>
      </trkpt>
      <trkpt lat="42.11137" lon="-1.37597">
        <ele>502</ele>
        <time>2010-11-05T21:09:53Z</time>
      </trkpt>
      <trkpt lat="42.11149" lon="-1.3758">
        <ele>502</ele>
        <time>2010-11-05T21:09:59Z</time>
      </trkpt>
      <trkpt lat="42.11166" lon="-1.37561">
        <ele>495</ele>
        <time>2010-11-05T21:10:06Z</time>
      </trkpt>
      <trkpt lat="42.11189" lon="-1.37547">
        <ele>485</ele>
        <time>2010-11-05T21:10:14Z</time>
      </trkpt>
      <trkpt lat="42.11193" lon="-1.37533">
        <ele>487</ele>
        <time>2010-11-05T21:10:18Z</time>
      </trkpt>
      <trkpt lat="42.11188" lon="-1.37498">
        <ele>487</ele>
        <time>2010-11-05T21:10:25Z</time>
      </trkpt>
      <trkpt lat="42.11185" lon="-1.37473">
        <ele>486</ele>
        <time>2010-11-05T21:10:31Z</time>
      </trkpt>
      <trkpt lat="42.11174" lon="-1.37433">
        <ele>498</ele>
        <time>2010-11-05T21:10:41Z</time>
      </trkpt>
      <trkpt lat="42.11158" lon="-1.37405">
        <ele>495</ele>
        <time>2010-11-05T21:10:50Z</time>
      </trkpt>
      <trkpt lat="42.1113" lon="-1.37376">
        <ele>504</ele>
        <time>2010-11-05T21:11:00Z</time>
      </trkpt>
      <trkpt lat="42.11106" lon="-1.37343">
        <ele>504</ele>
        <time>2010-11-05T21:11:11Z</time>
      </trkpt>
      <trkpt lat="42.11083" lon="-1.37327">
        <ele>513</ele>
        <time>2010-11-05T21:11:19Z</time>
      </trkpt>
      <trkpt lat="42.11056" lon="-1.37317">
        <ele>515</ele>
        <time>2010-11-05T21:11:29Z</time>
      </trkpt>
      <trkpt lat="42.11034" lon="-1.37313">
        <ele>521</ele>
        <time>2010-11-05T21:11:35Z</time>
      </trkpt>
      <trkpt lat="42.11012" lon="-1.3731">
        <ele>526</ele>
        <time>2010-11-05T21:11:43Z</time>
      </trkpt>
      <trkpt lat="42.10997" lon="-1.37302">
        <ele>526</ele>
        <time>2010-11-05T21:11:48Z</time>
      </trkpt>
      <trkpt lat="42.10979" lon="-1.37277">
        <ele>526</ele>
        <time>2010-11-05T21:11:56Z</time>
      </trkpt>
      <trkpt lat="42.1096" lon="-1.37245">
        <ele>524</ele>
        <time>2010-11-05T21:12:05Z</time>
      </trkpt>
      <trkpt lat="42.10942" lon="-1.37209">
        <ele>527</ele>
        <time>2010-11-05T21:12:15Z</time>
      </trkpt>
      <trkpt lat="42.10942" lon="-1.37208">
        <ele>527</ele>
        <time>2010-11-05T21:12:15Z</time>
      </trkpt>
      <trkpt lat="42.10932" lon="-1.37177">
        <ele>527</ele>
        <time>2010-11-05T21:12:23Z</time>
      </trkpt>
      <trkpt lat="42.10915" lon="-1.37145">
        <ele>530</ele>
        <time>2010-11-05T21:12:32Z</time>
      </trkpt>
      <trkpt lat="42.10901" lon="-1.37123">
        <ele>533</ele>
        <time>2010-11-05T21:12:39Z</time>
      </trkpt>
      <trkpt lat="42.10886" lon="-1.37113">
        <ele>533</ele>
        <time>2010-11-05T21:12:43Z</time>
      </trkpt>
      <trkpt lat="42.10865" lon="-1.37107">
        <ele>533</ele>
        <time>2010-11-05T21:12:51Z</time>
      </trkpt>
      <trkpt lat="42.10846" lon="-1.371">
        <ele>532</ele>
        <time>2010-11-05T21:12:56Z</time>
      </trkpt>
      <trkpt lat="42.10817" lon="-1.37079">
        <ele>532</ele>
        <time>2010-11-05T21:13:07Z</time>
      </trkpt>
      <trkpt lat="42.10804" lon="-1.3707">
        <ele>532</ele>
        <time>2010-11-05T21:13:10Z</time>
      </trkpt>
      <trkpt lat="42.10786" lon="-1.37073">
        <ele>532</ele>
        <time>2010-11-05T21:13:17Z</time>
      </trkpt>
      <trkpt lat="42.10759" lon="-1.37081">
        <ele>532</ele>
        <time>2010-11-05T21:13:25Z</time>
      </trkpt>
      <trkpt lat="42.10743" lon="-1.37072">
        <ele>532</ele>
        <time>2010-11-05T21:13:31Z</time>
      </trkpt>
      <trkpt lat="42.10726" lon="-1.37057">
        <ele>537</ele>
        <time>2010-11-05T21:13:36Z</time>
      </trkpt>
      <trkpt lat="42.10708" lon="-1.37058">
        <ele>540</ele>
        <time>2010-11-05T21:13:42Z</time>
      </trkpt>
      <trkpt lat="42.10698" lon="-1.37066">
        <ele>540</ele>
        <time>2010-11-05T21:13:46Z</time>
      </trkpt>
      <trkpt lat="42.10681" lon="-1.3709">
        <ele>537</ele>
        <time>2010-11-05T21:13:53Z</time>
      </trkpt>
      <trkpt lat="42.10665" lon="-1.37103">
        <ele>535</ele>
        <time>2010-11-05T21:14:00Z</time>
      </trkpt>
      <trkpt lat="42.10638" lon="-1.37111">
        <ele>536</ele>
        <time>2010-11-05T21:14:08Z</time>
      </trkpt>
      <trkpt lat="42.10611" lon="-1.37116">
        <ele>535</ele>
        <time>2010-11-05T21:14:17Z</time>
      </trkpt>
      <trkpt lat="42.10583" lon="-1.3711">
        <ele>534</ele>
        <time>2010-11-05T21:14:24Z</time>
      </trkpt>
      <trkpt lat="42.10554" lon="-1.37097">
        <ele>535</ele>
        <time>2010-11-05T21:14:35Z</time>
      </trkpt>
      <trkpt lat="42.1054" lon="-1.37078">
        <ele>531</ele>
        <time>2010-11-05T21:14:41Z</time>
      </trkpt>
      <trkpt lat="42.10531" lon="-1.37042">
        <ele>535</ele>
        <time>2010-11-05T21:14:49Z</time>
      </trkpt>
      <trkpt lat="42.10517" lon="-1.37002">
        <ele>541</ele>
        <time>2010-11-05T21:14:59Z</time>
      </trkpt>
      <trkpt lat="42.10516" lon="-1.36984">
        <ele>542</ele>
        <time>2010-11-05T21:15:04Z</time>
      </trkpt>
      <trkpt lat="42.10523" lon="-1.36958">
        <ele>543</ele>
        <time>2010-11-05T21:15:11Z</time>
      </trkpt>
      <trkpt lat="42.10543" lon="-1.36933">
        <ele>547</ele>
        <time>2010-11-05T21:15:18Z</time>
      </trkpt>
      <trkpt lat="42.10553" lon="-1.3691">
        <ele>548</ele>
        <time>2010-11-05T21:15:24Z</time>
      </trkpt>
      <trkpt lat="42.10559" lon="-1.36883">
        <ele>547</ele>
        <time>2010-11-05T21:15:31Z</time>
      </trkpt>
      <trkpt lat="42.10574" lon="-1.36857">
        <ele>550</ele>
        <time>2010-11-05T21:15:39Z</time>
      </trkpt>
      <trkpt lat="42.10587" lon="-1.3685">
        <ele>550</ele>
        <time>2010-11-05T21:15:43Z</time>
      </trkpt>
      <trkpt lat="42.10613" lon="-1.36846">
        <ele>551</ele>
        <time>2010-11-05T21:15:50Z</time>
      </trkpt>
      <trkpt lat="42.10627" lon="-1.36838">
        <ele>553</ele>
        <time>2010-11-05T21:15:56Z</time>
      </trkpt>
      <trkpt lat="42.10628" lon="-1.36838">
        <ele>553</ele>
        <time>2010-11-05T21:15:56Z</time>
      </trkpt>
      <trkpt lat="42.10644" lon="-1.36816">
        <ele>551</ele>
        <time>2010-11-05T21:16:02Z</time>
      </trkpt>
      <trkpt lat="42.10653" lon="-1.3679">
        <ele>552</ele>
        <time>2010-11-05T21:16:09Z</time>
      </trkpt>
      <trkpt lat="42.10733" lon="-1.36527">
        <ele>542</ele>
        <time>2010-11-05T21:17:14Z</time>
      </trkpt>
      <trkpt lat="42.1073" lon="-1.36517">
        <ele>542</ele>
        <time>2010-11-05T21:17:17Z</time>
      </trkpt>
      <trkpt lat="42.10586" lon="-1.3641">
        <ele>539</ele>
        <time>2010-11-05T21:18:08Z</time>
      </trkpt>
      <trkpt lat="42.10535" lon="-1.36371">
        <ele>536</ele>
        <time>2010-11-05T21:18:26Z</time>
      </trkpt>
      <trkpt lat="42.10479" lon="-1.36318">
        <ele>534</ele>
        <time>2010-11-05T21:18:46Z</time>
      </trkpt>
      <trkpt lat="42.10419" lon="-1.36251">
        <ele>531</ele>
        <time>2010-11-05T21:19:10Z</time>
      </trkpt>
      <trkpt lat="42.10408" lon="-1.36243">
        <ele>531</ele>
        <time>2010-11-05T21:19:15Z</time>
      </trkpt>
      <trkpt lat="42.10391" lon="-1.36238">
        <ele>531</ele>
        <time>2010-11-05T21:19:20Z</time>
      </trkpt>
      <trkpt lat="42.10357" lon="-1.36236">
        <ele>526</ele>
        <time>2010-11-05T21:19:31Z</time>
      </trkpt>
      <trkpt lat="42.10087" lon="-1.36206">
        <ele>526</ele>
        <time>2010-11-05T21:20:55Z</time>
      </trkpt>
      <trkpt lat="42.09917" lon="-1.3619">
        <ele>529</ele>
        <time>2010-11-05T21:21:46Z</time>
      </trkpt>
      <trkpt lat="42.0976" lon="-1.36172">
        <ele>537</ele>
        <time>2010-11-05T21:22:34Z</time>
      </trkpt>
      <trkpt lat="42.09744" lon="-1.36174">
        <ele>537</ele>
        <time>2010-11-05T21:22:40Z</time>
      </trkpt>
      <trkpt lat="42.09614" lon="-1.36225">
        <ele>534</ele>
        <time>2010-11-05T21:23:22Z</time>
      </trkpt>
      <trkpt lat="42.09428" lon="-1.36301">
        <ele>529</ele>
        <time>2010-11-05T21:24:22Z</time>
      </trkpt>
      <trkpt lat="42.09191" lon="-1.36395">
        <ele>526</ele>
        <time>2010-11-05T21:25:37Z</time>
      </trkpt>
      <trkpt lat="42.09095" lon="-1.36436">
        <ele>528</ele>
        <time>2010-11-05T21:26:09Z</time>
      </trkpt>
      <trkpt lat="42.09087" lon="-1.36432">
        <ele>528</ele>
        <time>2010-11-05T21:26:11Z</time>
      </trkpt>
      <trkpt lat="42.08852" lon="-1.36205">
        <ele>521</ele>
        <time>2010-11-05T21:27:40Z</time>
      </trkpt>
      <trkpt lat="42.08746" lon="-1.36104">
        <ele>521</ele>
        <time>2010-11-05T21:28:21Z</time>
      </trkpt>
      <trkpt lat="42.08608" lon="-1.35963">
        <ele>519</ele>
        <time>2010-11-05T21:29:14Z</time>
      </trkpt>
      <trkpt lat="42.08566" lon="-1.35935">
        <ele>517</ele>
        <time>2010-11-05T21:29:28Z</time>
      </trkpt>
      <trkpt lat="42.08355" lon="-1.35804">
        <ele>520</ele>
        <time>2010-11-05T21:30:40Z</time>
      </trkpt>
      <trkpt lat="42.08251" lon="-1.35742">
        <ele>521</ele>
        <time>2010-11-05T21:31:15Z</time>
      </trkpt>
      <trkpt lat="42.07911" lon="-1.35538">
        <ele>520</ele>
        <time>2010-11-05T21:33:08Z</time>
      </trkpt>
      <trkpt lat="42.07819" lon="-1.3548">
        <ele>519</ele>
        <time>2010-11-05T21:33:39Z</time>
      </trkpt>
      <trkpt lat="42.07639" lon="-1.35409">
        <ele>525</ele>
        <time>2010-11-05T21:34:37Z</time>
      </trkpt>
      <trkpt lat="42.076" lon="-1.35381">
        <ele>527</ele>
        <time>2010-11-05T21:34:51Z</time>
      </trkpt>
      <trkpt lat="42.07591" lon="-1.35353">
        <ele>529</ele>
        <time>2010-11-05T21:34:59Z</time>
      </trkpt>
      <trkpt lat="42.07592" lon="-1.35349">
        <ele>529</ele>
        <time>2010-11-05T21:34:59Z</time>
      </trkpt>
      <trkpt lat="42.07589" lon="-1.35286">
        <ele>533</ele>
        <time>2010-11-05T21:35:13Z</time>
      </trkpt>
      <trkpt lat="42.07572" lon="-1.3527">
        <ele>533</ele>
        <time>2010-11-05T21:35:21Z</time>
      </trkpt>
      <trkpt lat="42.07549" lon="-1.35271">
        <ele>534</ele>
        <time>2010-11-05T21:35:28Z</time>
      </trkpt>
      <trkpt lat="42.07523" lon="-1.35271">
        <ele>536</ele>
        <time>2010-11-05T21:35:36Z</time>
      </trkpt>
      <trkpt lat="42.07494" lon="-1.35251">
        <ele>541</ele>
        <time>2010-11-05T21:35:45Z</time>
      </trkpt>
      <trkpt lat="42.07469" lon="-1.35196">
        <ele>548</ele>
        <time>2010-11-05T21:36:01Z</time>
      </trkpt>
      <trkpt lat="42.07446" lon="-1.35134">
        <ele>557</ele>
        <time>2010-11-05T21:36:17Z</time>
      </trkpt>
      <trkpt lat="42.07447" lon="-1.351">
        <ele>556</ele>
        <time>2010-11-05T21:36:25Z</time>
      </trkpt>
      <trkpt lat="42.07445" lon="-1.35072">
        <ele>555</ele>
        <time>2010-11-05T21:36:31Z</time>
      </trkpt>
      <trkpt lat="42.07428" lon="-1.35025">
        <ele>560</ele>
        <time>2010-11-05T21:36:43Z</time>
      </trkpt>
      <trkpt lat="42.07401" lon="-1.34984">
        <ele>562</ele>
        <time>2010-11-05T21:36:55Z</time>
      </trkpt>
      <trkpt lat="42.07356" lon="-1.34939">
        <ele>567</ele>
        <time>2010-11-05T21:37:13Z</time>
      </trkpt>
      <trkpt lat="42.07313" lon="-1.34901">
        <ele>575</ele>
        <time>2010-11-05T21:37:29Z</time>
      </trkpt>
      <trkpt lat="42.07261" lon="-1.34875">
        <ele>588</ele>
        <time>2010-11-05T21:37:45Z</time>
      </trkpt>
      <trkpt lat="42.07225" lon="-1.34838">
        <ele>593</ele>
        <time>2010-11-05T21:38:00Z</time>
      </trkpt>
      <trkpt lat="42.07208" lon="-1.34791">
        <ele>597</ele>
        <time>2010-11-05T21:38:12Z</time>
      </trkpt>
      <trkpt lat="42.07186" lon="-1.34673">
        <ele>594</ele>
        <time>2010-11-05T21:38:39Z</time>
      </trkpt>
      <trkpt lat="42.07173" lon="-1.34609">
        <ele>604</ele>
        <time>2010-11-05T21:38:55Z</time>
      </trkpt>
      <trkpt lat="42.07165" lon="-1.34541">
        <ele>605</ele>
        <time>2010-11-05T21:39:11Z</time>
      </trkpt>
      <trkpt lat="42.0716" lon="-1.34446">
        <ele>609</ele>
        <time>2010-11-05T21:39:33Z</time>
      </trkpt>
      <trkpt lat="42.07151" lon="-1.3432">
        <ele>625</ele>
        <time>2010-11-05T21:40:03Z</time>
      </trkpt>
      <trkpt lat="42.07153" lon="-1.34235">
        <ele>631</ele>
        <time>2010-11-05T21:40:21Z</time>
      </trkpt>
      <trkpt lat="42.07162" lon="-1.34135">
        <ele>631</ele>
        <time>2010-11-05T21:40:45Z</time>
      </trkpt>
      <trkpt lat="42.07192" lon="-1.33997">
        <ele>636</ele>
        <time>2010-11-05T21:41:18Z</time>
      </trkpt>
      <trkpt lat="42.07194" lon="-1.33947">
        <ele>638</ele>
        <time>2010-11-05T21:41:29Z</time>
      </trkpt>
      <trkpt lat="42.07196" lon="-1.33866">
        <ele>638</ele>
        <time>2010-11-05T21:41:48Z</time>
      </trkpt>
      <trkpt lat="42.07192" lon="-1.33859">
        <ele>638</ele>
        <time>2010-11-05T21:41:50Z</time>
      </trkpt>
      <trkpt lat="42.07187" lon="-1.33862">
        <ele>638</ele>
        <time>2010-11-05T21:41:51Z</time>
      </trkpt>
      <trkpt lat="42.07182" lon="-1.33871">
        <ele>638</ele>
        <time>2010-11-05T21:41:55Z</time>
      </trkpt>
      <trkpt lat="42.07181" lon="-1.33914">
        <ele>638</ele>
        <time>2010-11-05T21:42:04Z</time>
      </trkpt>
      <trkpt lat="42.07178" lon="-1.33944">
        <ele>640</ele>
        <time>2010-11-05T21:42:11Z</time>
      </trkpt>
      <trkpt lat="42.07169" lon="-1.33976">
        <ele>640</ele>
        <time>2010-11-05T21:42:18Z</time>
      </trkpt>
      <trkpt lat="42.07159" lon="-1.33989">
        <ele>640</ele>
        <time>2010-11-05T21:42:22Z</time>
      </trkpt>
      <trkpt lat="42.07146" lon="-1.34013">
        <ele>641</ele>
        <time>2010-11-05T21:42:30Z</time>
      </trkpt>
      <trkpt lat="42.07137" lon="-1.34041">
        <ele>641</ele>
        <time>2010-11-05T21:42:37Z</time>
      </trkpt>
      <trkpt lat="42.07125" lon="-1.34089">
        <ele>640</ele>
        <time>2010-11-05T21:42:49Z</time>
      </trkpt>
      <trkpt lat="42.07122" lon="-1.34111">
        <ele>639</ele>
        <time>2010-11-05T21:42:54Z</time>
      </trkpt>
      <trkpt lat="42.07117" lon="-1.34119">
        <ele>639</ele>
        <time>2010-11-05T21:42:55Z</time>
      </trkpt>
      <trkpt lat="42.07104" lon="-1.34115">
        <ele>639</ele>
        <time>2010-11-05T21:43:00Z</time>
      </trkpt>
      <trkpt lat="42.0708" lon="-1.34104">
        <ele>640</ele>
        <time>2010-11-05T21:43:08Z</time>
      </trkpt>
      <trkpt lat="42.07055" lon="-1.34098">
        <ele>639</ele>
        <time>2010-11-05T21:43:16Z</time>
      </trkpt>
      <trkpt lat="42.07041" lon="-1.3411">
        <ele>638</ele>
        <time>2010-11-05T21:43:21Z</time>
      </trkpt>
      <trkpt lat="42.07034" lon="-1.34122">
        <ele>638</ele>
        <time>2010-11-05T21:43:25Z</time>
      </trkpt>
      <trkpt lat="42.07027" lon="-1.3414">
        <ele>638</ele>
        <time>2010-11-05T21:43:29Z</time>
      </trkpt>
      <trkpt lat="42.07026" lon="-1.34141">
        <ele>638</ele>
        <time>2010-11-05T21:43:30Z</time>
      </trkpt>
      <trkpt lat="42.07014" lon="-1.34154">
        <ele>638</ele>
        <time>2010-11-05T21:43:33Z</time>
      </trkpt>
      <trkpt lat="42.07004" lon="-1.34164">
        <ele>637</ele>
        <time>2010-11-05T21:43:38Z</time>
      </trkpt>
      <trkpt lat="42.07001" lon="-1.34197">
        <ele>637</ele>
        <time>2010-11-05T21:43:46Z</time>
      </trkpt>
      <trkpt lat="42.07" lon="-1.34255">
        <ele>636</ele>
        <time>2010-11-05T21:43:59Z</time>
      </trkpt>
      <trkpt lat="42.07" lon="-1.34258">
        <ele>636</ele>
        <time>2010-11-05T21:44:00Z</time>
      </trkpt>
      <trkpt lat="42.06998" lon="-1.3433">
        <ele>636</ele>
        <time>2010-11-05T21:44:16Z</time>
      </trkpt>
      <trkpt lat="42.06995" lon="-1.34364">
        <ele>636</ele>
        <time>2010-11-05T21:44:23Z</time>
      </trkpt>
      <trkpt lat="42.07003" lon="-1.34419">
        <ele>636</ele>
        <time>2010-11-05T21:44:37Z</time>
      </trkpt>
      <trkpt lat="42.07017" lon="-1.34492">
        <ele>635</ele>
        <time>2010-11-05T21:44:54Z</time>
      </trkpt>
      <trkpt lat="42.0702" lon="-1.34537">
        <ele>635</ele>
        <time>2010-11-05T21:45:04Z</time>
      </trkpt>
      <trkpt lat="42.07013" lon="-1.3459">
        <ele>635</ele>
        <time>2010-11-05T21:45:17Z</time>
      </trkpt>
      <trkpt lat="42.07009" lon="-1.3463">
        <ele>637</ele>
        <time>2010-11-05T21:45:26Z</time>
      </trkpt>
      <trkpt lat="42.0702" lon="-1.34672">
        <ele>639</ele>
        <time>2010-11-05T21:45:36Z</time>
      </trkpt>
      <trkpt lat="42.07021" lon="-1.34734">
        <ele>641</ele>
        <time>2010-11-05T21:45:50Z</time>
      </trkpt>
      <trkpt lat="42.07021" lon="-1.34805">
        <ele>639</ele>
        <time>2010-11-05T21:46:06Z</time>
      </trkpt>
      <trkpt lat="42.07023" lon="-1.34842">
        <ele>638</ele>
        <time>2010-11-05T21:46:16Z</time>
      </trkpt>
      <trkpt lat="42.07025" lon="-1.34866">
        <ele>637</ele>
        <time>2010-11-05T21:46:20Z</time>
      </trkpt>
      <trkpt lat="42.07018" lon="-1.34873">
        <ele>637</ele>
        <time>2010-11-05T21:46:24Z</time>
      </trkpt>
      <trkpt lat="42.06998" lon="-1.34889">
        <ele>635</ele>
        <time>2010-11-05T21:46:30Z</time>
      </trkpt>
      <trkpt lat="42.06997" lon="-1.3489">
        <ele>635</ele>
        <time>2010-11-05T21:46:30Z</time>
      </trkpt>
      <trkpt lat="42.06978" lon="-1.34908">
        <ele>632</ele>
        <time>2010-11-05T21:46:39Z</time>
      </trkpt>
      <trkpt lat="42.06958" lon="-1.34943">
        <ele>629</ele>
        <time>2010-11-05T21:46:49Z</time>
      </trkpt>
      <trkpt lat="42.0695" lon="-1.3496">
        <ele>628</ele>
        <time>2010-11-05T21:46:52Z</time>
      </trkpt>
      <trkpt lat="42.06943" lon="-1.34986">
        <ele>628</ele>
        <time>2010-11-05T21:46:59Z</time>
      </trkpt>
      <trkpt lat="42.06948" lon="-1.35001">
        <ele>627</ele>
        <time>2010-11-05T21:47:02Z</time>
      </trkpt>
      <trkpt lat="42.0696" lon="-1.35041">
        <ele>628</ele>
        <time>2010-11-05T21:47:13Z</time>
      </trkpt>
      <trkpt lat="42.06975" lon="-1.35086">
        <ele>627</ele>
        <time>2010-11-05T21:47:24Z</time>
      </trkpt>
      <trkpt lat="42.06976" lon="-1.35087">
        <ele>627</ele>
        <time>2010-11-05T21:47:24Z</time>
      </trkpt>
      <trkpt lat="42.06987" lon="-1.35146">
        <ele>630</ele>
        <time>2010-11-05T21:47:38Z</time>
      </trkpt>
      <trkpt lat="42.06991" lon="-1.35188">
        <ele>630</ele>
        <time>2010-11-05T21:47:48Z</time>
      </trkpt>
      <trkpt lat="42.06987" lon="-1.35213">
        <ele>629</ele>
        <time>2010-11-05T21:47:53Z</time>
      </trkpt>
      <trkpt lat="42.06984" lon="-1.3525">
        <ele>625</ele>
        <time>2010-11-05T21:48:02Z</time>
      </trkpt>
      <trkpt lat="42.06984" lon="-1.35251">
        <ele>625</ele>
        <time>2010-11-05T21:48:02Z</time>
      </trkpt>
      <trkpt lat="42.06987" lon="-1.35295">
        <ele>628</ele>
        <time>2010-11-05T21:48:12Z</time>
      </trkpt>
      <trkpt lat="42.06991" lon="-1.35324">
        <ele>629</ele>
        <time>2010-11-05T21:48:20Z</time>
      </trkpt>
      <trkpt lat="42.06986" lon="-1.35347">
        <ele>629</ele>
        <time>2010-11-05T21:48:26Z</time>
      </trkpt>
      <trkpt lat="42.06981" lon="-1.35386">
        <ele>628</ele>
        <time>2010-11-05T21:48:34Z</time>
      </trkpt>
      <trkpt lat="42.06973" lon="-1.3544">
        <ele>629</ele>
        <time>2010-11-05T21:48:47Z</time>
      </trkpt>
      <trkpt lat="42.06959" lon="-1.35463">
        <ele>629</ele>
        <time>2010-11-05T21:48:53Z</time>
      </trkpt>
      <trkpt lat="42.06953" lon="-1.35485">
        <ele>627</ele>
        <time>2010-11-05T21:49:00Z</time>
      </trkpt>
      <trkpt lat="42.06945" lon="-1.35522">
        <ele>627</ele>
        <time>2010-11-05T21:49:08Z</time>
      </trkpt>
      <trkpt lat="42.06939" lon="-1.35552">
        <ele>626</ele>
        <time>2010-11-05T21:49:16Z</time>
      </trkpt>
      <trkpt lat="42.06947" lon="-1.35598">
        <ele>625</ele>
        <time>2010-11-05T21:49:25Z</time>
      </trkpt>
      <trkpt lat="42.06947" lon="-1.35599">
        <ele>625</ele>
        <time>2010-11-05T21:49:25Z</time>
      </trkpt>
      <trkpt lat="42.06959" lon="-1.35657">
        <ele>628</ele>
        <time>2010-11-05T21:49:39Z</time>
      </trkpt>
      <trkpt lat="42.06957" lon="-1.35677">
        <ele>626</ele>
        <time>2010-11-05T21:49:44Z</time>
      </trkpt>
      <trkpt lat="42.06943" lon="-1.357">
        <ele>626</ele>
        <time>2010-11-05T21:49:52Z</time>
      </trkpt>
      <trkpt lat="42.06914" lon="-1.35759">
        <ele>629</ele>
        <time>2010-11-05T21:50:08Z</time>
      </trkpt>
      <trkpt lat="42.06891" lon="-1.35807">
        <ele>631</ele>
        <time>2010-11-05T21:50:21Z</time>
      </trkpt>
      <trkpt lat="42.06885" lon="-1.35848">
        <ele>629</ele>
        <time>2010-11-05T21:50:30Z</time>
      </trkpt>
      <trkpt lat="42.06884" lon="-1.35849">
        <ele>629</ele>
        <time>2010-11-05T21:50:30Z</time>
      </trkpt>
      <trkpt lat="42.06889" lon="-1.35907">
        <ele>629</ele>
        <time>2010-11-05T21:50:43Z</time>
      </trkpt>
      <trkpt lat="42.0689" lon="-1.35909">
        <ele>629</ele>
        <time>2010-11-05T21:50:45Z</time>
      </trkpt>
      <trkpt lat="42.06901" lon="-1.3596">
        <ele>629</ele>
        <time>2010-11-05T21:50:57Z</time>
      </trkpt>
      <trkpt lat="42.06916" lon="-1.35988">
        <ele>629</ele>
        <time>2010-11-05T21:51:04Z</time>
      </trkpt>
      <trkpt lat="42.06916" lon="-1.35989">
        <ele>629</ele>
        <time>2010-11-05T21:51:04Z</time>
      </trkpt>
      <trkpt lat="42.06974" lon="-1.36109">
        <ele>634</ele>
        <time>2010-11-05T21:51:37Z</time>
      </trkpt>
      <trkpt lat="42.06999" lon="-1.36171">
        <ele>635</ele>
        <time>2010-11-05T21:51:53Z</time>
      </trkpt>
      <trkpt lat="42.07003" lon="-1.36213">
        <ele>635</ele>
        <time>2010-11-05T21:52:04Z</time>
      </trkpt>
      <trkpt lat="42.07001" lon="-1.36279">
        <ele>635</ele>
        <time>2010-11-05T21:52:19Z</time>
      </trkpt>
      <trkpt lat="42.06996" lon="-1.36311">
        <ele>635</ele>
        <time>2010-11-05T21:52:26Z</time>
      </trkpt>
      <trkpt lat="42.0699" lon="-1.36371">
        <ele>636</ele>
        <time>2010-11-05T21:52:39Z</time>
      </trkpt>
      <trkpt lat="42.06992" lon="-1.36457">
        <ele>638</ele>
        <time>2010-11-05T21:53:00Z</time>
      </trkpt>
      <trkpt lat="42.06999" lon="-1.36516">
        <ele>639</ele>
        <time>2010-11-05T21:53:13Z</time>
      </trkpt>
      <trkpt lat="42.07001" lon="-1.36573">
        <ele>639</ele>
        <time>2010-11-05T21:53:27Z</time>
      </trkpt>
      <trkpt lat="42.07013" lon="-1.36673">
        <ele>637</ele>
        <time>2010-11-05T21:53:49Z</time>
      </trkpt>
      <trkpt lat="42.07017" lon="-1.36744">
        <ele>642</ele>
        <time>2010-11-05T21:54:05Z</time>
      </trkpt>
      <trkpt lat="42.07024" lon="-1.36816">
        <ele>643</ele>
        <time>2010-11-05T21:54:23Z</time>
      </trkpt>
      <trkpt lat="42.07021" lon="-1.36843">
        <ele>643</ele>
        <time>2010-11-05T21:54:29Z</time>
      </trkpt>
      <trkpt lat="42.06997" lon="-1.36929">
        <ele>642</ele>
        <time>2010-11-05T21:54:50Z</time>
      </trkpt>
      <trkpt lat="42.06975" lon="-1.37079">
        <ele>639</ele>
        <time>2010-11-05T21:55:25Z</time>
      </trkpt>
      <trkpt lat="42.06943" lon="-1.37361">
        <ele>637</ele>
        <time>2010-11-05T21:56:30Z</time>
      </trkpt>
      <trkpt lat="42.06915" lon="-1.37771">
        <ele>644</ele>
        <time>2010-11-05T21:58:04Z</time>
      </trkpt>
      <trkpt lat="42.06912" lon="-1.37794">
        <ele>644</ele>
        <time>2010-11-05T21:58:10Z</time>
      </trkpt>
      <trkpt lat="42.06901" lon="-1.37828">
        <ele>644</ele>
        <time>2010-11-05T21:58:18Z</time>
      </trkpt>
      <trkpt lat="42.06858" lon="-1.37926">
        <ele>644</ele>
        <time>2010-11-05T21:58:45Z</time>
      </trkpt>
      <trkpt lat="42.06836" lon="-1.37982">
        <ele>643</ele>
        <time>2010-11-05T21:58:58Z</time>
      </trkpt>
      <trkpt lat="42.0681" lon="-1.38058">
        <ele>642</ele>
        <time>2010-11-05T21:59:19Z</time>
      </trkpt>
      <trkpt lat="42.06809" lon="-1.38061">
        <ele>642</ele>
        <time>2010-11-05T21:59:19Z</time>
      </trkpt>
      <trkpt lat="42.0678" lon="-1.38129">
        <ele>640</ele>
        <time>2010-11-05T21:59:36Z</time>
      </trkpt>
      <trkpt lat="42.06779" lon="-1.38131">
        <ele>640</ele>
        <time>2010-11-05T21:59:38Z</time>
      </trkpt>
      <trkpt lat="42.06751" lon="-1.38216">
        <ele>639</ele>
        <time>2010-11-05T21:59:59Z</time>
      </trkpt>
      <trkpt lat="42.06734" lon="-1.38263">
        <ele>640</ele>
        <time>2010-11-05T22:00:11Z</time>
      </trkpt>
      <trkpt lat="42.06718" lon="-1.38332">
        <ele>637</ele>
        <time>2010-11-05T22:00:27Z</time>
      </trkpt>
      <trkpt lat="42.06718" lon="-1.38334">
        <ele>637</ele>
        <time>2010-11-05T22:00:27Z</time>
      </trkpt>
      <trkpt lat="42.06697" lon="-1.38412">
        <ele>637</ele>
        <time>2010-11-05T22:00:47Z</time>
      </trkpt>
      <trkpt lat="42.06686" lon="-1.38445">
        <ele>637</ele>
        <time>2010-11-05T22:00:54Z</time>
      </trkpt>
      <trkpt lat="42.06684" lon="-1.38469">
        <ele>637</ele>
        <time>2010-11-05T22:01:01Z</time>
      </trkpt>
      <trkpt lat="42.06686" lon="-1.38541">
        <ele>639</ele>
        <time>2010-11-05T22:01:18Z</time>
      </trkpt>
      <trkpt lat="42.06676" lon="-1.3861">
        <ele>639</ele>
        <time>2010-11-05T22:01:34Z</time>
      </trkpt>
      <trkpt lat="42.06648" lon="-1.3872">
        <ele>642</ele>
        <time>2010-11-05T22:02:00Z</time>
      </trkpt>
      <trkpt lat="42.06597" lon="-1.38832">
        <ele>642</ele>
        <time>2010-11-05T22:02:30Z</time>
      </trkpt>
      <trkpt lat="42.06585" lon="-1.38864">
        <ele>642</ele>
        <time>2010-11-05T22:02:38Z</time>
      </trkpt>
      <trkpt lat="42.06572" lon="-1.38889">
        <ele>641</ele>
        <time>2010-11-05T22:02:46Z</time>
      </trkpt>
      <trkpt lat="42.06542" lon="-1.38916">
        <ele>640</ele>
        <time>2010-11-05T22:02:57Z</time>
      </trkpt>
      <trkpt lat="42.0652" lon="-1.38937">
        <ele>637</ele>
        <time>2010-11-05T22:03:05Z</time>
      </trkpt>
      <trkpt lat="42.06506" lon="-1.38966">
        <ele>634</ele>
        <time>2010-11-05T22:03:13Z</time>
      </trkpt>
      <trkpt lat="42.06501" lon="-1.38986">
        <ele>634</ele>
        <time>2010-11-05T22:03:18Z</time>
      </trkpt>
      <trkpt lat="42.06503" lon="-1.39004">
        <ele>633</ele>
        <time>2010-11-05T22:03:22Z</time>
      </trkpt>
      <trkpt lat="42.06513" lon="-1.39016">
        <ele>633</ele>
        <time>2010-11-05T22:03:26Z</time>
      </trkpt>
      <trkpt lat="42.06535" lon="-1.39075">
        <ele>630</ele>
        <time>2010-11-05T22:03:41Z</time>
      </trkpt>
      <trkpt lat="42.06534" lon="-1.39105">
        <ele>629</ele>
        <time>2010-11-05T22:03:48Z</time>
      </trkpt>
      <trkpt lat="42.06488" lon="-1.39297">
        <ele>622</ele>
        <time>2010-11-05T22:04:34Z</time>
      </trkpt>
      <trkpt lat="42.06459" lon="-1.39422">
        <ele>618</ele>
        <time>2010-11-05T22:05:04Z</time>
      </trkpt>
      <trkpt lat="42.06442" lon="-1.39568">
        <ele>607</ele>
        <time>2010-11-05T22:05:39Z</time>
      </trkpt>
      <trkpt lat="42.06407" lon="-1.39699">
        <ele>594</ele>
        <time>2010-11-05T22:06:11Z</time>
      </trkpt>
      <trkpt lat="42.06377" lon="-1.39834">
        <ele>581</ele>
        <time>2010-11-05T22:06:43Z</time>
      </trkpt>
      <trkpt lat="42.06358" lon="-1.39995">
        <ele>569</ele>
        <time>2010-11-05T22:07:21Z</time>
      </trkpt>
      <trkpt lat="42.06351" lon="-1.40069">
        <ele>566</ele>
        <time>2010-11-05T22:07:37Z</time>
      </trkpt>
      <trkpt lat="42.06344" lon="-1.4013">
        <ele>572</ele>
        <time>2010-11-05T22:07:52Z</time>
      </trkpt>
      <trkpt lat="42.06339" lon="-1.40186">
        <ele>566</ele>
        <time>2010-11-05T22:08:04Z</time>
      </trkpt>
      <trkpt lat="42.06346" lon="-1.40227">
        <ele>563</ele>
        <time>2010-11-05T22:08:15Z</time>
      </trkpt>
      <trkpt lat="42.06343" lon="-1.40267">
        <ele>557</ele>
        <time>2010-11-05T22:08:23Z</time>
      </trkpt>
      <trkpt lat="42.06331" lon="-1.40316">
        <ele>554</ele>
        <time>2010-11-05T22:08:36Z</time>
      </trkpt>
      <trkpt lat="42.06333" lon="-1.40333">
        <ele>551</ele>
        <time>2010-11-05T22:08:39Z</time>
      </trkpt>
      <trkpt lat="42.06343" lon="-1.4033">
        <ele>551</ele>
        <time>2010-11-05T22:08:43Z</time>
      </trkpt>
      <trkpt lat="42.06369" lon="-1.40301">
        <ele>547</ele>
        <time>2010-11-05T22:08:52Z</time>
      </trkpt>
      <trkpt lat="42.06399" lon="-1.40262">
        <ele>546</ele>
        <time>2010-11-05T22:09:06Z</time>
      </trkpt>
      <trkpt lat="42.0643" lon="-1.40249">
        <ele>539</ele>
        <time>2010-11-05T22:09:16Z</time>
      </trkpt>
      <trkpt lat="42.06461" lon="-1.40219">
        <ele>528</ele>
        <time>2010-11-05T22:09:29Z</time>
      </trkpt>
      <trkpt lat="42.06477" lon="-1.40172">
        <ele>533</ele>
        <time>2010-11-05T22:09:41Z</time>
      </trkpt>
      <trkpt lat="42.06499" lon="-1.4016">
        <ele>527</ele>
        <time>2010-11-05T22:09:48Z</time>
      </trkpt>
      <trkpt lat="42.06541" lon="-1.40147">
        <ele>524</ele>
        <time>2010-11-05T22:10:02Z</time>
      </trkpt>
      <trkpt lat="42.06566" lon="-1.40144">
        <ele>520</ele>
        <time>2010-11-05T22:10:08Z</time>
      </trkpt>
      <trkpt lat="42.06595" lon="-1.40113">
        <ele>517</ele>
        <time>2010-11-05T22:10:21Z</time>
      </trkpt>
      <trkpt lat="42.06611" lon="-1.40085">
        <ele>513</ele>
        <time>2010-11-05T22:10:29Z</time>
      </trkpt>
      <trkpt lat="42.06634" lon="-1.40071">
        <ele>508</ele>
        <time>2010-11-05T22:10:37Z</time>
      </trkpt>
      <trkpt lat="42.06667" lon="-1.40072">
        <ele>502</ele>
        <time>2010-11-05T22:10:47Z</time>
      </trkpt>
      <trkpt lat="42.06703" lon="-1.40079">
        <ele>496</ele>
        <time>2010-11-05T22:10:58Z</time>
      </trkpt>
      <trkpt lat="42.0673" lon="-1.40089">
        <ele>489</ele>
        <time>2010-11-05T22:11:07Z</time>
      </trkpt>
      <trkpt lat="42.06759" lon="-1.40131">
        <ele>482</ele>
        <time>2010-11-05T22:11:20Z</time>
      </trkpt>
      <trkpt lat="42.06792" lon="-1.40157">
        <ele>472</ele>
        <time>2010-11-05T22:11:33Z</time>
      </trkpt>
      <trkpt lat="42.06826" lon="-1.40213">
        <ele>467</ele>
        <time>2010-11-05T22:11:49Z</time>
      </trkpt>
      <trkpt lat="42.0685" lon="-1.40243">
        <ele>465</ele>
        <time>2010-11-05T22:11:58Z</time>
      </trkpt>
      <trkpt lat="42.06886" lon="-1.40268">
        <ele>463</ele>
        <time>2010-11-05T22:12:11Z</time>
      </trkpt>
      <trkpt lat="42.06904" lon="-1.40292">
        <ele>460</ele>
        <time>2010-11-05T22:12:20Z</time>
      </trkpt>
      <trkpt lat="42.06934" lon="-1.40332">
        <ele>458</ele>
        <time>2010-11-05T22:12:33Z</time>
      </trkpt>
      <trkpt lat="42.06943" lon="-1.40348">
        <ele>457</ele>
        <time>2010-11-05T22:12:37Z</time>
      </trkpt>
      <trkpt lat="42.06948" lon="-1.4038">
        <ele>457</ele>
        <time>2010-11-05T22:12:44Z</time>
      </trkpt>
      <trkpt lat="42.06945" lon="-1.4042">
        <ele>457</ele>
        <time>2010-11-05T22:12:54Z</time>
      </trkpt>
      <trkpt lat="42.06941" lon="-1.40477">
        <ele>456</ele>
        <time>2010-11-05T22:13:07Z</time>
      </trkpt>
      <trkpt lat="42.06948" lon="-1.40542">
        <ele>455</ele>
        <time>2010-11-05T22:13:21Z</time>
      </trkpt>
      <trkpt lat="42.06971" lon="-1.40619">
        <ele>451</ele>
        <time>2010-11-05T22:13:40Z</time>
      </trkpt>
      <trkpt lat="42.06997" lon="-1.40655">
        <ele>448</ele>
        <time>2010-11-05T22:13:53Z</time>
      </trkpt>
      <trkpt lat="42.07031" lon="-1.40723">
        <ele>444</ele>
        <time>2010-11-05T22:14:12Z</time>
      </trkpt>
      <trkpt lat="42.07032" lon="-1.40725">
        <ele>444</ele>
        <time>2010-11-05T22:14:12Z</time>
      </trkpt>
      <trkpt lat="42.07064" lon="-1.4076">
        <ele>442</ele>
        <time>2010-11-05T22:14:25Z</time>
      </trkpt>
      <trkpt lat="42.07097" lon="-1.40795">
        <ele>441</ele>
        <time>2010-11-05T22:14:38Z</time>
      </trkpt>
      <trkpt lat="42.07115" lon="-1.40822">
        <ele>441</ele>
        <time>2010-11-05T22:14:45Z</time>
      </trkpt>
      <trkpt lat="42.07138" lon="-1.4086">
        <ele>440</ele>
        <time>2010-11-05T22:14:57Z</time>
      </trkpt>
      <trkpt lat="42.07156" lon="-1.40913">
        <ele>438</ele>
        <time>2010-11-05T22:15:11Z</time>
      </trkpt>
      <trkpt lat="42.07166" lon="-1.40964">
        <ele>435</ele>
        <time>2010-11-05T22:15:22Z</time>
      </trkpt>
      <trkpt lat="42.07167" lon="-1.41007">
        <ele>433</ele>
        <time>2010-11-05T22:15:32Z</time>
      </trkpt>
      <trkpt lat="42.07173" lon="-1.4107">
        <ele>433</ele>
        <time>2010-11-05T22:15:47Z</time>
      </trkpt>
      <trkpt lat="42.07183" lon="-1.41126">
        <ele>431</ele>
        <time>2010-11-05T22:16:00Z</time>
      </trkpt>
      <trkpt lat="42.07176" lon="-1.41205">
        <ele>431</ele>
        <time>2010-11-05T22:16:18Z</time>
      </trkpt>
      <trkpt lat="42.07169" lon="-1.41241">
        <ele>433</ele>
        <time>2010-11-05T22:16:26Z</time>
      </trkpt>
      <trkpt lat="42.07127" lon="-1.41355">
        <ele>432</ele>
        <time>2010-11-05T22:16:56Z</time>
      </trkpt>
      <trkpt lat="42.07105" lon="-1.41451">
        <ele>427</ele>
        <time>2010-11-05T22:17:18Z</time>
      </trkpt>
      <trkpt lat="42.07084" lon="-1.41526">
        <ele>424</ele>
        <time>2010-11-05T22:17:36Z</time>
      </trkpt>
      <trkpt lat="42.07075" lon="-1.41594">
        <ele>423</ele>
        <time>2010-11-05T22:17:53Z</time>
      </trkpt>
      <trkpt lat="42.07077" lon="-1.41664">
        <ele>419</ele>
        <time>2010-11-05T22:18:08Z</time>
      </trkpt>
      <trkpt lat="42.07086" lon="-1.41709">
        <ele>417</ele>
        <time>2010-11-05T22:18:20Z</time>
      </trkpt>
      <trkpt lat="42.07108" lon="-1.4176">
        <ele>416</ele>
        <time>2010-11-05T22:18:33Z</time>
      </trkpt>
      <trkpt lat="42.07117" lon="-1.41791">
        <ele>414</ele>
        <time>2010-11-05T22:18:41Z</time>
      </trkpt>
      <trkpt lat="42.07121" lon="-1.4184">
        <ele>412</ele>
        <time>2010-11-05T22:18:52Z</time>
      </trkpt>
      <trkpt lat="42.07116" lon="-1.4188">
        <ele>411</ele>
        <time>2010-11-05T22:19:02Z</time>
      </trkpt>
      <trkpt lat="42.07117" lon="-1.41952">
        <ele>411</ele>
        <time>2010-11-05T22:19:18Z</time>
      </trkpt>
      <trkpt lat="42.07114" lon="-1.41986">
        <ele>411</ele>
        <time>2010-11-05T22:19:26Z</time>
      </trkpt>
      <trkpt lat="42.07105" lon="-1.42043">
        <ele>408</ele>
        <time>2010-11-05T22:19:40Z</time>
      </trkpt>
      <trkpt lat="42.0708" lon="-1.42103">
        <ele>409</ele>
        <time>2010-11-05T22:19:56Z</time>
      </trkpt>
      <trkpt lat="42.07061" lon="-1.42142">
        <ele>407</ele>
        <time>2010-11-05T22:20:05Z</time>
      </trkpt>
      <trkpt lat="42.07046" lon="-1.42174">
        <ele>405</ele>
        <time>2010-11-05T22:20:15Z</time>
      </trkpt>
      <trkpt lat="42.07045" lon="-1.42229">
        <ele>398</ele>
        <time>2010-11-05T22:20:28Z</time>
      </trkpt>
      <trkpt lat="42.07053" lon="-1.42285">
        <ele>396</ele>
        <time>2010-11-05T22:20:40Z</time>
      </trkpt>
      <trkpt lat="42.07071" lon="-1.42371">
        <ele>394</ele>
        <time>2010-11-05T22:21:01Z</time>
      </trkpt>
      <trkpt lat="42.07091" lon="-1.42458">
        <ele>393</ele>
        <time>2010-11-05T22:21:22Z</time>
      </trkpt>
      <trkpt lat="42.07091" lon="-1.42488">
        <ele>393</ele>
        <time>2010-11-05T22:21:28Z</time>
      </trkpt>
      <trkpt lat="42.07097" lon="-1.42483">
        <ele>393</ele>
        <time>2010-11-05T22:21:31Z</time>
      </trkpt>
      <trkpt lat="42.0711" lon="-1.42464">
        <ele>394</ele>
        <time>2010-11-05T22:21:36Z</time>
      </trkpt>
      <trkpt lat="42.07153" lon="-1.42428">
        <ele>397</ele>
        <time>2010-11-05T22:21:52Z</time>
      </trkpt>
      <trkpt lat="42.07197" lon="-1.4239">
        <ele>403</ele>
        <time>2010-11-05T22:22:08Z</time>
      </trkpt>
      <trkpt lat="42.07263" lon="-1.42357">
        <ele>397</ele>
        <time>2010-11-05T22:22:29Z</time>
      </trkpt>
      <trkpt lat="42.07297" lon="-1.42339">
        <ele>393</ele>
        <time>2010-11-05T22:22:41Z</time>
      </trkpt>
      <trkpt lat="42.07303" lon="-1.42309">
        <ele>393</ele>
        <time>2010-11-05T22:22:48Z</time>
      </trkpt>
      <trkpt lat="42.07318" lon="-1.42254">
        <ele>395</ele>
        <time>2010-11-05T22:23:02Z</time>
      </trkpt>
      <trkpt lat="42.07335" lon="-1.42198">
        <ele>399</ele>
        <time>2010-11-05T22:23:16Z</time>
      </trkpt>
      <trkpt lat="42.07354" lon="-1.42164">
        <ele>401</ele>
        <time>2010-11-05T22:23:26Z</time>
      </trkpt>
      <trkpt lat="42.07376" lon="-1.42116">
        <ele>404</ele>
        <time>2010-11-05T22:23:39Z</time>
      </trkpt>
      <trkpt lat="42.07377" lon="-1.42112">
        <ele>404</ele>
        <time>2010-11-05T22:23:39Z</time>
      </trkpt>
      <trkpt lat="42.07397" lon="-1.42053">
        <ele>406</ele>
        <time>2010-11-05T22:23:53Z</time>
      </trkpt>
      <trkpt lat="42.07425" lon="-1.42013">
        <ele>408</ele>
        <time>2010-11-05T22:24:07Z</time>
      </trkpt>
      <trkpt lat="42.07427" lon="-1.42011">
        <ele>408</ele>
        <time>2010-11-05T22:24:07Z</time>
      </trkpt>
      <trkpt lat="42.07455" lon="-1.41989">
        <ele>409</ele>
        <time>2010-11-05T22:24:17Z</time>
      </trkpt>
      <trkpt lat="42.07487" lon="-1.41945">
        <ele>412</ele>
        <time>2010-11-05T22:24:31Z</time>
      </trkpt>
      <trkpt lat="42.07507" lon="-1.41898">
        <ele>410</ele>
        <time>2010-11-05T22:24:44Z</time>
      </trkpt>
      <trkpt lat="42.07507" lon="-1.41894">
        <ele>410</ele>
        <time>2010-11-05T22:24:44Z</time>
      </trkpt>
      <trkpt lat="42.07525" lon="-1.41847">
        <ele>411</ele>
        <time>2010-11-05T22:24:57Z</time>
      </trkpt>
      <trkpt lat="42.07538" lon="-1.41797">
        <ele>411</ele>
        <time>2010-11-05T22:25:08Z</time>
      </trkpt>
      <trkpt lat="42.07549" lon="-1.41752">
        <ele>415</ele>
        <time>2010-11-05T22:25:19Z</time>
      </trkpt>
      <trkpt lat="42.07578" lon="-1.41684">
        <ele>417</ele>
        <time>2010-11-05T22:25:38Z</time>
      </trkpt>
      <trkpt lat="42.07603" lon="-1.41639">
        <ele>418</ele>
        <time>2010-11-05T22:25:51Z</time>
      </trkpt>
      <trkpt lat="42.07628" lon="-1.41556">
        <ele>418</ele>
        <time>2010-11-05T22:26:12Z</time>
      </trkpt>
      <trkpt lat="42.07652" lon="-1.41482">
        <ele>420</ele>
        <time>2010-11-05T22:26:29Z</time>
      </trkpt>
      <trkpt lat="42.07672" lon="-1.41405">
        <ele>423</ele>
        <time>2010-11-05T22:26:48Z</time>
      </trkpt>
      <trkpt lat="42.07673" lon="-1.41349">
        <ele>425</ele>
        <time>2010-11-05T22:27:02Z</time>
      </trkpt>
      <trkpt lat="42.07668" lon="-1.41279">
        <ele>426</ele>
        <time>2010-11-05T22:27:18Z</time>
      </trkpt>
      <trkpt lat="42.07682" lon="-1.41238">
        <ele>425</ele>
        <time>2010-11-05T22:27:28Z</time>
      </trkpt>
      <trkpt lat="42.07714" lon="-1.41203">
        <ele>424</ele>
        <time>2010-11-05T22:27:41Z</time>
      </trkpt>
      <trkpt lat="42.07738" lon="-1.41193">
        <ele>424</ele>
        <time>2010-11-05T22:27:49Z</time>
      </trkpt>
      <trkpt lat="42.07767" lon="-1.41196">
        <ele>423</ele>
        <time>2010-11-05T22:27:57Z</time>
      </trkpt>
      <trkpt lat="42.07808" lon="-1.41218">
        <ele>420</ele>
        <time>2010-11-05T22:28:11Z</time>
      </trkpt>
      <trkpt lat="42.07833" lon="-1.41239">
        <ele>418</ele>
        <time>2010-11-05T22:28:19Z</time>
      </trkpt>
      <trkpt lat="42.07865" lon="-1.41247">
        <ele>418</ele>
        <time>2010-11-05T22:28:30Z</time>
      </trkpt>
      <trkpt lat="42.07866" lon="-1.41247">
        <ele>418</ele>
        <time>2010-11-05T22:28:30Z</time>
      </trkpt>
      <trkpt lat="42.079" lon="-1.41231">
        <ele>421</ele>
        <time>2010-11-05T22:28:41Z</time>
      </trkpt>
      <trkpt lat="42.07911" lon="-1.41187">
        <ele>421</ele>
        <time>2010-11-05T22:28:51Z</time>
      </trkpt>
      <trkpt lat="42.07903" lon="-1.41142">
        <ele>424</ele>
        <time>2010-11-05T22:29:03Z</time>
      </trkpt>
      <trkpt lat="42.07908" lon="-1.41095">
        <ele>426</ele>
        <time>2010-11-05T22:29:13Z</time>
      </trkpt>
      <trkpt lat="42.07926" lon="-1.41059">
        <ele>427</ele>
        <time>2010-11-05T22:29:23Z</time>
      </trkpt>
      <trkpt lat="42.07952" lon="-1.41045">
        <ele>426</ele>
        <time>2010-11-05T22:29:32Z</time>
      </trkpt>
      <trkpt lat="42.07984" lon="-1.41042">
        <ele>426</ele>
        <time>2010-11-05T22:29:42Z</time>
      </trkpt>
      <trkpt lat="42.08012" lon="-1.4102">
        <ele>427</ele>
        <time>2010-11-05T22:29:51Z</time>
      </trkpt>
      <trkpt lat="42.08049" lon="-1.40973">
        <ele>426</ele>
        <time>2010-11-05T22:30:07Z</time>
      </trkpt>
      <trkpt lat="42.08096" lon="-1.40915">
        <ele>425</ele>
        <time>2010-11-05T22:30:28Z</time>
      </trkpt>
      <trkpt lat="42.08158" lon="-1.40826">
        <ele>422</ele>
        <time>2010-11-05T22:30:55Z</time>
      </trkpt>
      <trkpt lat="42.08174" lon="-1.40767">
        <ele>423</ele>
        <time>2010-11-05T22:31:09Z</time>
      </trkpt>
      <trkpt lat="42.08174" lon="-1.40764">
        <ele>423</ele>
        <time>2010-11-05T22:31:09Z</time>
      </trkpt>
      <trkpt lat="42.08177" lon="-1.40727">
        <ele>423</ele>
        <time>2010-11-05T22:31:19Z</time>
      </trkpt>
      <trkpt lat="42.08192" lon="-1.40729">
        <ele>422</ele>
        <time>2010-11-05T22:31:24Z</time>
      </trkpt>
      <trkpt lat="42.08193" lon="-1.40729">
        <ele>422</ele>
        <time>2010-11-05T22:31:24Z</time>
      </trkpt>
      <trkpt lat="42.08222" lon="-1.40737">
        <ele>422</ele>
        <time>2010-11-05T22:31:33Z</time>
      </trkpt>
      <trkpt lat="42.08253" lon="-1.40752">
        <ele>422</ele>
        <time>2010-11-05T22:31:43Z</time>
      </trkpt>
      <trkpt lat="42.08297" lon="-1.4077">
        <ele>422</ele>
        <time>2010-11-05T22:31:57Z</time>
      </trkpt>
      <trkpt lat="42.08298" lon="-1.40771">
        <ele>422</ele>
        <time>2010-11-05T22:31:57Z</time>
      </trkpt>
      <trkpt lat="42.08336" lon="-1.40768">
        <ele>422</ele>
        <time>2010-11-05T22:32:10Z</time>
      </trkpt>
      <trkpt lat="42.08354" lon="-1.40757">
        <ele>424</ele>
        <time>2010-11-05T22:32:16Z</time>
      </trkpt>
      <trkpt lat="42.08368" lon="-1.40751">
        <ele>424</ele>
        <time>2010-11-05T22:32:19Z</time>
      </trkpt>
      <trkpt lat="42.08399" lon="-1.40749">
        <ele>422</ele>
        <time>2010-11-05T22:32:30Z</time>
      </trkpt>
      <trkpt lat="42.08401" lon="-1.40749">
        <ele>422</ele>
        <time>2010-11-05T22:32:30Z</time>
      </trkpt>
      <trkpt lat="42.08429" lon="-1.40745">
        <ele>420</ele>
        <time>2010-11-05T22:32:38Z</time>
      </trkpt>
      <trkpt lat="42.08432" lon="-1.40745">
        <ele>417</ele>
        <time>2010-11-05T22:32:40Z</time>
      </trkpt>
      <trkpt lat="42.08471" lon="-1.40734">
        <ele>414</ele>
        <time>2010-11-05T22:32:51Z</time>
      </trkpt>
      <trkpt lat="42.08494" lon="-1.4073">
        <ele>411</ele>
        <time>2010-11-05T22:32:59Z</time>
      </trkpt>
      <trkpt lat="42.08513" lon="-1.4071">
        <ele>411</ele>
        <time>2010-11-05T22:33:07Z</time>
      </trkpt>
      <trkpt lat="42.08536" lon="-1.40684">
        <ele>409</ele>
        <time>2010-11-05T22:33:15Z</time>
      </trkpt>
      <trkpt lat="42.08548" lon="-1.40646">
        <ele>406</ele>
        <time>2010-11-05T22:33:26Z</time>
      </trkpt>
      <trkpt lat="42.08571" lon="-1.40607">
        <ele>403</ele>
        <time>2010-11-05T22:33:37Z</time>
      </trkpt>
      <trkpt lat="42.08622" lon="-1.40548">
        <ele>400</ele>
        <time>2010-11-05T22:33:58Z</time>
      </trkpt>
      <trkpt lat="42.08653" lon="-1.40525">
        <ele>400</ele>
        <time>2010-11-05T22:34:09Z</time>
      </trkpt>
      <trkpt lat="42.08687" lon="-1.40496">
        <ele>402</ele>
        <time>2010-11-05T22:34:20Z</time>
      </trkpt>
      <trkpt lat="42.08725" lon="-1.40464">
        <ele>406</ele>
        <time>2010-11-05T22:34:35Z</time>
      </trkpt>
      <trkpt lat="42.08755" lon="-1.40436">
        <ele>409</ele>
        <time>2010-11-05T22:34:46Z</time>
      </trkpt>
      <trkpt lat="42.08772" lon="-1.40418">
        <ele>408</ele>
        <time>2010-11-05T22:34:52Z</time>
      </trkpt>
      <trkpt lat="42.08799" lon="-1.40399">
        <ele>408</ele>
        <time>2010-11-05T22:35:02Z</time>
      </trkpt>
      <trkpt lat="42.08799" lon="-1.40399">
        <ele>408</ele>
        <time>2010-11-05T22:35:02Z</time>
      </trkpt>
      <trkpt lat="42.0882" lon="-1.40383">
        <ele>408</ele>
        <time>2010-11-05T22:35:10Z</time>
      </trkpt>
      <trkpt lat="42.08841" lon="-1.40364">
        <ele>408</ele>
        <time>2010-11-05T22:35:18Z</time>
      </trkpt>
      <trkpt lat="42.08868" lon="-1.40329">
        <ele>406</ele>
        <time>2010-11-05T22:35:29Z</time>
      </trkpt>
      <trkpt lat="42.08904" lon="-1.4031">
        <ele>406</ele>
        <time>2010-11-05T22:35:41Z</time>
      </trkpt>
      <trkpt lat="42.08929" lon="-1.40286">
        <ele>411</ele>
        <time>2010-11-05T22:35:51Z</time>
      </trkpt>
      <trkpt lat="42.08931" lon="-1.40286">
        <ele>411</ele>
        <time>2010-11-05T22:35:51Z</time>
      </trkpt>
      <trkpt lat="42.08963" lon="-1.40246">
        <ele>413</ele>
        <time>2010-11-05T22:36:04Z</time>
      </trkpt>
      <trkpt lat="42.09003" lon="-1.40208">
        <ele>414</ele>
        <time>2010-11-05T22:36:20Z</time>
      </trkpt>
      <trkpt lat="42.09038" lon="-1.40158">
        <ele>413</ele>
        <time>2010-11-05T22:36:34Z</time>
      </trkpt>
      <trkpt lat="42.09076" lon="-1.40134">
        <ele>411</ele>
        <time>2010-11-05T22:36:48Z</time>
      </trkpt>
      <trkpt lat="42.09119" lon="-1.40092">
        <ele>410</ele>
        <time>2010-11-05T22:37:04Z</time>
      </trkpt>
      <trkpt lat="42.09192" lon="-1.40028">
        <ele>410</ele>
        <time>2010-11-05T22:37:30Z</time>
      </trkpt>
      <trkpt lat="42.09192" lon="-1.40028">
        <ele>410</ele>
        <time>2010-11-05T22:37:31Z</time>
      </trkpt>
      <trkpt lat="42.09251" lon="-1.3997">
        <ele>412</ele>
        <time>2010-11-05T22:37:54Z</time>
      </trkpt>
      <trkpt lat="42.09374" lon="-1.39858">
        <ele>411</ele>
        <time>2010-11-05T22:38:40Z</time>
      </trkpt>
      <trkpt lat="42.09456" lon="-1.39769">
        <ele>413</ele>
        <time>2010-11-05T22:39:12Z</time>
      </trkpt>
      <trkpt lat="42.09523" lon="-1.39702">
        <ele>407</ele>
        <time>2010-11-05T22:39:37Z</time>
      </trkpt>
      <trkpt lat="42.09563" lon="-1.39666">
        <ele>408</ele>
        <time>2010-11-05T22:39:53Z</time>
      </trkpt>
      <trkpt lat="42.09605" lon="-1.39643">
        <ele>410</ele>
        <time>2010-11-05T22:40:06Z</time>
      </trkpt>
      <trkpt lat="42.09643" lon="-1.39635">
        <ele>411</ele>
        <time>2010-11-05T22:40:19Z</time>
      </trkpt>
      <trkpt lat="42.09705" lon="-1.39628">
        <ele>413</ele>
        <time>2010-11-05T22:40:38Z</time>
      </trkpt>
      <trkpt lat="42.09836" lon="-1.39598">
        <ele>413</ele>
        <time>2010-11-05T22:41:19Z</time>
      </trkpt>
      <trkpt lat="42.09913" lon="-1.39585">
        <ele>413</ele>
        <time>2010-11-05T22:41:43Z</time>
      </trkpt>
      <trkpt lat="42.09945" lon="-1.39604">
        <ele>412</ele>
        <time>2010-11-05T22:41:52Z</time>
      </trkpt>
      <trkpt lat="42.09998" lon="-1.39628">
        <ele>409</ele>
        <time>2010-11-05T22:42:10Z</time>
      </trkpt>
      <trkpt lat="42.10033" lon="-1.39635">
        <ele>407</ele>
        <time>2010-11-05T22:42:21Z</time>
      </trkpt>
      <trkpt lat="42.10086" lon="-1.39629">
        <ele>403</ele>
        <time>2010-11-05T22:42:37Z</time>
      </trkpt>
      <trkpt lat="42.10138" lon="-1.39595">
        <ele>408</ele>
        <time>2010-11-05T22:42:55Z</time>
      </trkpt>
      <trkpt lat="42.10184" lon="-1.3954">
        <ele>409</ele>
        <time>2010-11-05T22:43:14Z</time>
      </trkpt>
      <trkpt lat="42.10218" lon="-1.39493">
        <ele>409</ele>
        <time>2010-11-05T22:43:30Z</time>
      </trkpt>
      <trkpt lat="42.1022" lon="-1.39493">
        <ele>409</ele>
        <time>2010-11-05T22:43:30Z</time>
      </trkpt>
      <trkpt lat="42.10328" lon="-1.39363">
        <ele>411</ele>
        <time>2010-11-05T22:44:14Z</time>
      </trkpt>
      <trkpt lat="42.10369" lon="-1.39306">
        <ele>416</ele>
        <time>2010-11-05T22:44:33Z</time>
      </trkpt>
      <trkpt lat="42.10402" lon="-1.39285">
        <ele>416</ele>
        <time>2010-11-05T22:44:43Z</time>
      </trkpt>
      <trkpt lat="42.10433" lon="-1.39268">
        <ele>416</ele>
        <time>2010-11-05T22:44:54Z</time>
      </trkpt>
      <trkpt lat="42.10434" lon="-1.39268">
        <ele>416</ele>
        <time>2010-11-05T22:44:55Z</time>
      </trkpt>
      <trkpt lat="42.10474" lon="-1.39223">
        <ele>414</ele>
        <time>2010-11-05T22:45:11Z</time>
      </trkpt>
      <trkpt lat="42.10513" lon="-1.39176">
        <ele>415</ele>
        <time>2010-11-05T22:45:27Z</time>
      </trkpt>
      <trkpt lat="42.10539" lon="-1.39146">
        <ele>417</ele>
        <time>2010-11-05T22:45:37Z</time>
      </trkpt>
      <trkpt lat="42.10569" lon="-1.39093">
        <ele>418</ele>
        <time>2010-11-05T22:45:53Z</time>
      </trkpt>
      <trkpt lat="42.10592" lon="-1.39046">
        <ele>420</ele>
        <time>2010-11-05T22:46:06Z</time>
      </trkpt>
      <trkpt lat="42.10598" lon="-1.38987">
        <ele>421</ele>
        <time>2010-11-05T22:46:18Z</time>
      </trkpt>
      <trkpt lat="42.10606" lon="-1.38959">
        <ele>420</ele>
        <time>2010-11-05T22:46:25Z</time>
      </trkpt>
      <trkpt lat="42.10645" lon="-1.38897">
        <ele>418</ele>
        <time>2010-11-05T22:46:44Z</time>
      </trkpt>
      <trkpt lat="42.10683" lon="-1.3887">
        <ele>414</ele>
        <time>2010-11-05T22:46:58Z</time>
      </trkpt>
      <trkpt lat="42.10725" lon="-1.38843">
        <ele>417</ele>
        <time>2010-11-05T22:47:12Z</time>
      </trkpt>
      <trkpt lat="42.10767" lon="-1.38898">
        <ele>410</ele>
        <time>2010-11-05T22:47:30Z</time>
      </trkpt>
      <trkpt lat="42.10878" lon="-1.39068">
        <ele>410</ele>
        <time>2010-11-05T22:48:22Z</time>
      </trkpt>
      <trkpt lat="42.10914" lon="-1.39119">
        <ele>408</ele>
        <time>2010-11-05T22:48:38Z</time>
      </trkpt>
      <trkpt lat="42.10986" lon="-1.39229">
        <ele>409</ele>
        <time>2010-11-05T22:49:12Z</time>
      </trkpt>
      <trkpt lat="42.1105" lon="-1.39304">
        <ele>410</ele>
        <time>2010-11-05T22:49:37Z</time>
        <extensions>
          <visugpx:TrkExtension xmlns:visugpx="https://www.visugpx.com/editgpx/">
            <visugpx:node>1</visugpx:node>
            </visugpx:TrkExtension>
        </extensions>
      </trkpt>
    </trkseg>
  </trk>
  <trk>
    <name><![CDATA[7-8 Ermita Sancho Abarca]]></name>
    <extensions>
      <line xmlns="http://www.topografix.com/GPX/gpx_style/0/2">
        <color>ff00ff</color>
        <opacity>0.5</opacity>
        <width>12</width>
      </line>
    </extensions>
    <trkseg>
      <trkpt lat="42.11156" lon="-1.39346">
        <ele>414.46545410156</ele>
      </trkpt>
      <trkpt lat="42.11171" lon="-1.39339">
        <ele>417.83020019531</ele>
      </trkpt>
      <trkpt lat="42.11158" lon="-1.39352">
        <ele>418.31079101562</ele>
      </trkpt>
      <trkpt lat="42.11142" lon="-1.39349">
        <ele>421.19482421875</ele>
      </trkpt>
      <trkpt lat="42.11055" lon="-1.39295">
        <ele>417.349609375</ele>
      </trkpt>
      <trkpt lat="42.11025" lon="-1.39264">
        <ele>414.94616699219</ele>
      </trkpt>
      <trkpt lat="42.10642" lon="-1.38704">
        <ele>420.2333984375</ele>
      </trkpt>
      <trkpt lat="42.1062" lon="-1.38656">
        <ele>421.19482421875</ele>
      </trkpt>
      <trkpt lat="42.10568" lon="-1.38477">
        <ele>425.04016113281</ele>
      </trkpt>
      <trkpt lat="42.10566" lon="-1.38354">
        <ele>433.69189453125</ele>
      </trkpt>
      <trkpt lat="42.10552" lon="-1.38231">
        <ele>439.9404296875</ele>
      </trkpt>
      <trkpt lat="42.1056" lon="-1.38214">
        <ele>439.45971679688</ele>
      </trkpt>
      <trkpt lat="42.10614" lon="-1.38203">
        <ele>436.57592773438</ele>
      </trkpt>
      <trkpt lat="42.10728" lon="-1.38094">
        <ele>446.18908691406</ele>
      </trkpt>
      <trkpt lat="42.10764" lon="-1.38078">
        <ele>445.70837402344</ele>
      </trkpt>
      <trkpt lat="42.10821" lon="-1.38028">
        <ele>450.03442382812</ele>
      </trkpt>
      <trkpt lat="42.1088" lon="-1.38003">
        <ele>453.87963867188</ele>
      </trkpt>
      <trkpt lat="42.10895" lon="-1.37989">
        <ele>453.39892578125</ele>
      </trkpt>
      <trkpt lat="42.10916" lon="-1.37946">
        <ele>460.60876464844</ele>
      </trkpt>
      <trkpt lat="42.10943" lon="-1.37914">
        <ele>464.4541015625</ele>
      </trkpt>
      <trkpt lat="42.10961" lon="-1.379">
        <ele>463.01208496094</ele>
      </trkpt>
      <trkpt lat="42.10982" lon="-1.37895">
        <ele>461.57019042969</ele>
      </trkpt>
      <trkpt lat="42.11007" lon="-1.37898">
        <ele>463.49279785156</ele>
      </trkpt>
      <trkpt lat="42.11024" lon="-1.37886">
        <ele>465.41552734375</ele>
      </trkpt>
      <trkpt lat="42.1107" lon="-1.37809">
        <ele>480.31591796875</ele>
      </trkpt>
      <trkpt lat="42.11096" lon="-1.37735">
        <ele>482.71923828125</ele>
      </trkpt>
      <trkpt lat="42.11126" lon="-1.37676">
        <ele>489.44836425781</ele>
      </trkpt>
      <trkpt lat="42.11151" lon="-1.37587">
        <ele>500.02294921875</ele>
      </trkpt>
      <trkpt lat="42.11189" lon="-1.3755">
        <ele>500.02294921875</ele>
      </trkpt>
      <trkpt lat="42.112" lon="-1.37512">
        <ele>503.8681640625</ele>
      </trkpt>
      <trkpt lat="42.11189" lon="-1.37461">
        <ele>504.82946777344</ele>
      </trkpt>
      <trkpt lat="42.11171" lon="-1.37418">
        <ele>507.71350097656</ele>
      </trkpt>
      <trkpt lat="42.1112" lon="-1.37358">
        <ele>503.8681640625</ele>
      </trkpt>
      <trkpt lat="42.11087" lon="-1.37333">
        <ele>505.79089355469</ele>
      </trkpt>
      <trkpt lat="42.11045" lon="-1.37312">
        <ele>511.55871582031</ele>
      </trkpt>
      <trkpt lat="42.11008" lon="-1.37307">
        <ele>513.96203613281</ele>
      </trkpt>
      <trkpt lat="42.10997" lon="-1.37296">
        <ele>516.365234375</ele>
      </trkpt>
      <trkpt lat="42.10955" lon="-1.37235">
        <ele>526.93981933594</ele>
      </trkpt>
      <trkpt lat="42.10913" lon="-1.37134">
        <ele>528.3818359375</ele>
      </trkpt>
      <trkpt lat="42.10895" lon="-1.37116">
        <ele>529.82373046875</ele>
      </trkpt>
      <trkpt lat="42.10851" lon="-1.37104">
        <ele>534.63037109375</ele>
      </trkpt>
      <trkpt lat="42.10809" lon="-1.37076">
        <ele>537.51428222656</ele>
      </trkpt>
      <trkpt lat="42.10761" lon="-1.37079">
        <ele>539.91760253906</ele>
      </trkpt>
      <trkpt lat="42.10719" lon="-1.37063">
        <ele>536.55310058594</ele>
      </trkpt>
      <trkpt lat="42.10662" lon="-1.37111">
        <ele>540.87890625</ele>
      </trkpt>
      <trkpt lat="42.10619" lon="-1.37125">
        <ele>545.20483398438</ele>
      </trkpt>
      <trkpt lat="42.1057" lon="-1.37105">
        <ele>538.95629882812</ele>
      </trkpt>
      <trkpt lat="42.10554" lon="-1.37091">
        <ele>537.51428222656</ele>
      </trkpt>
      <trkpt lat="42.10518" lon="-1.36996">
        <ele>539.43688964844</ele>
      </trkpt>
      <trkpt lat="42.1052" lon="-1.36968">
        <ele>540.87890625</ele>
      </trkpt>
      <trkpt lat="42.10553" lon="-1.36924">
        <ele>543.76281738281</ele>
      </trkpt>
      <trkpt lat="42.10569" lon="-1.36868">
        <ele>548.5693359375</ele>
      </trkpt>
      <trkpt lat="42.1059" lon="-1.36849">
        <ele>550.97265625</ele>
      </trkpt>
      <trkpt lat="42.10625" lon="-1.36837">
        <ele>550.01147460938</ele>
      </trkpt>
      <trkpt lat="42.10647" lon="-1.36811">
        <ele>550.01147460938</ele>
      </trkpt>
      <trkpt lat="42.10732" lon="-1.36548">
        <ele>560.10522460938</ele>
      </trkpt>
      <trkpt lat="42.10731" lon="-1.36518">
        <ele>559.14404296875</ele>
      </trkpt>
      <trkpt lat="42.10724" lon="-1.3651">
        <ele>557.7021484375</ele>
      </trkpt>
      <trkpt lat="42.10523" lon="-1.36361">
        <ele>553.85668945312</ele>
      </trkpt>
      <trkpt lat="42.10424" lon="-1.36256">
        <ele>550.4921875</ele>
      </trkpt>
      <trkpt lat="42.10393" lon="-1.36242">
        <ele>550.97265625</ele>
      </trkpt>
      <trkpt lat="42.09774" lon="-1.36177">
        <ele>543.28210449219</ele>
      </trkpt>
      <trkpt lat="42.09737" lon="-1.3618">
        <ele>547.12744140625</ele>
      </trkpt>
      <trkpt lat="42.09169" lon="-1.36412">
        <ele>537.51428222656</ele>
      </trkpt>
      <trkpt lat="42.09119" lon="-1.36431">
        <ele>534.63037109375</ele>
      </trkpt>
      <trkpt lat="42.09089" lon="-1.36433">
        <ele>537.99499511719</ele>
      </trkpt>
      <trkpt lat="42.09029" lon="-1.36381">
        <ele>536.55310058594</ele>
      </trkpt>
      <trkpt lat="42.08612" lon="-1.35967">
        <ele>524.53649902344</ele>
      </trkpt>
      <trkpt lat="42.0787" lon="-1.35511">
        <ele>527.90100097656</ele>
      </trkpt>
      <trkpt lat="42.07622" lon="-1.35398">
        <ele>528.3818359375</ele>
      </trkpt>
      <trkpt lat="42.07607" lon="-1.35383">
        <ele>528.86254882812</ele>
      </trkpt>
      <trkpt lat="42.07599" lon="-1.35355">
        <ele>530.78515625</ele>
      </trkpt>
      <trkpt lat="42.07597" lon="-1.35297">
        <ele>537.51428222656</ele>
      </trkpt>
      <trkpt lat="42.07588" lon="-1.35276">
        <ele>537.51428222656</ele>
      </trkpt>
      <trkpt lat="42.07574" lon="-1.35272">
        <ele>536.07238769531</ele>
      </trkpt>
      <trkpt lat="42.07544" lon="-1.35281">
        <ele>538.47570800781</ele>
      </trkpt>
      <trkpt lat="42.07527" lon="-1.35276">
        <ele>538.95629882812</ele>
      </trkpt>
      <trkpt lat="42.07515" lon="-1.35268">
        <ele>541.35949707031</ele>
      </trkpt>
      <trkpt lat="42.07494" lon="-1.35235">
        <ele>545.20483398438</ele>
      </trkpt>
      <trkpt lat="42.07452" lon="-1.35134">
        <ele>556.74072265625</ele>
      </trkpt>
      <trkpt lat="42.0745" lon="-1.35066">
        <ele>563.95043945312</ele>
      </trkpt>
      <trkpt lat="42.07401" lon="-1.34978">
        <ele>566.83447265625</ele>
      </trkpt>
      <trkpt lat="42.07287" lon="-1.34891">
        <ele>579.81225585938</ele>
      </trkpt>
      <trkpt lat="42.07224" lon="-1.34826">
        <ele>590.38696289062</ele>
      </trkpt>
      <trkpt lat="42.07171" lon="-1.34605">
        <ele>606.24853515625</ele>
      </trkpt>
      <trkpt lat="42.0715" lon="-1.34273">
        <ele>629.80078125</ele>
      </trkpt>
      <trkpt lat="42.07167" lon="-1.34062">
        <ele>638.45288085938</ele>
      </trkpt>
      <trkpt lat="42.07198" lon="-1.33956">
        <ele>644.701171875</ele>
      </trkpt>
      <trkpt lat="42.07191" lon="-1.33845">
        <ele>640.85595703125</ele>
      </trkpt>
      <trkpt lat="42.07226" lon="-1.33694">
        <ele>645.18188476562</ele>
      </trkpt>
      <trkpt lat="42.07257" lon="-1.33613">
        <ele>647.58520507812</ele>
      </trkpt>
      <trkpt lat="42.07264" lon="-1.33429">
        <ele>648.06591796875</ele>
      </trkpt>
      <trkpt lat="42.07296" lon="-1.33265">
        <ele>647.58520507812</ele>
      </trkpt>
      <trkpt lat="42.07295" lon="-1.33218">
        <ele>648.06591796875</ele>
      </trkpt>
      <trkpt lat="42.07276" lon="-1.33143">
        <ele>648.54638671875</ele>
      </trkpt>
      <trkpt lat="42.07278" lon="-1.33031">
        <ele>649.98852539062</ele>
      </trkpt>
      <trkpt lat="42.07267" lon="-1.32857">
        <ele>645.66259765625</ele>
      </trkpt>
      <trkpt lat="42.07277" lon="-1.32714">
        <ele>645.18188476562</ele>
      </trkpt>
      <trkpt lat="42.07296" lon="-1.32643">
        <ele>645.66259765625</ele>
      </trkpt>
      <trkpt lat="42.07315" lon="-1.32497">
        <ele>648.06591796875</ele>
      </trkpt>
      <trkpt lat="42.07296" lon="-1.32351">
        <ele>649.5078125</ele>
      </trkpt>
      <trkpt lat="42.07289" lon="-1.32324">
        <ele>649.98852539062</ele>
      </trkpt>
      <trkpt lat="42.07217" lon="-1.32181">
        <ele>647.1044921875</ele>
      </trkpt>
      <trkpt lat="42.07202" lon="-1.3209">
        <ele>647.1044921875</ele>
      </trkpt>
      <trkpt lat="42.07214" lon="-1.3186">
        <ele>645.66259765625</ele>
      </trkpt>
      <trkpt lat="42.07212" lon="-1.31729">
        <ele>642.29809570312</ele>
      </trkpt>
      <trkpt lat="42.07246" lon="-1.31577">
        <ele>643.25927734375</ele>
      </trkpt>
      <trkpt lat="42.07282" lon="-1.31494">
        <ele>645.18188476562</ele>
      </trkpt>
      <trkpt lat="42.07306" lon="-1.31363">
        <ele>644.220703125</ele>
      </trkpt>
      <trkpt lat="42.07274" lon="-1.31151">
        <ele>648.06591796875</ele>
      </trkpt>
      <trkpt lat="42.07242" lon="-1.31081">
        <ele>646.14331054688</ele>
      </trkpt>
      <trkpt lat="42.0722" lon="-1.3106">
        <ele>643.73999023438</ele>
      </trkpt>
      <trkpt lat="42.07198" lon="-1.31067">
        <ele>642.77880859375</ele>
      </trkpt>
      <trkpt lat="42.07169" lon="-1.31088">
        <ele>641.8173828125</ele>
      </trkpt>
      <trkpt lat="42.06941" lon="-1.31275">
        <ele>642.29809570312</ele>
      </trkpt>
      <trkpt lat="42.06914" lon="-1.31278">
        <ele>642.29809570312</ele>
      </trkpt>
      <trkpt lat="42.06668" lon="-1.3125">
        <ele>641.33666992188</ele>
      </trkpt>
      <trkpt lat="42.06606" lon="-1.31215">
        <ele>638.45288085938</ele>
      </trkpt>
      <trkpt lat="42.06571" lon="-1.31219">
        <ele>635.08813476562</ele>
      </trkpt>
      <trkpt lat="42.06519" lon="-1.31273">
        <ele>632.68481445312</ele>
      </trkpt>
      <trkpt lat="42.06493" lon="-1.31272">
        <ele>630.28149414062</ele>
      </trkpt>
      <trkpt lat="42.06427" lon="-1.31224">
        <ele>635.56860351562</ele>
      </trkpt>
      <trkpt lat="42.06326" lon="-1.31206">
        <ele>633.64599609375</ele>
      </trkpt>
      <trkpt lat="42.06297" lon="-1.31179">
        <ele>634.12670898438</ele>
      </trkpt>
      <trkpt lat="42.06254" lon="-1.3112">
        <ele>633.64599609375</ele>
      </trkpt>
      <trkpt lat="42.06234" lon="-1.31078">
        <ele>633.64599609375</ele>
      </trkpt>
      <trkpt lat="42.06223" lon="-1.31007">
        <ele>633.64599609375</ele>
      </trkpt>
      <trkpt lat="42.06208" lon="-1.30972">
        <ele>633.64599609375</ele>
      </trkpt>
      <trkpt lat="42.06115" lon="-1.3087">
        <ele>626.9169921875</ele>
      </trkpt>
      <trkpt lat="42.06071" lon="-1.30835">
        <ele>625.47485351562</ele>
      </trkpt>
      <trkpt lat="42.06012" lon="-1.30805">
        <ele>622.59106445312</ele>
      </trkpt>
      <trkpt lat="42.05979" lon="-1.30777">
        <ele>623.07177734375</ele>
      </trkpt>
      <trkpt lat="42.05922" lon="-1.30706">
        <ele>624.03295898438</ele>
      </trkpt>
      <trkpt lat="42.05909" lon="-1.30702">
        <ele>624.513671875</ele>
      </trkpt>
      <trkpt lat="42.05882" lon="-1.30717">
        <ele>625.95556640625</ele>
      </trkpt>
      <trkpt lat="42.05836" lon="-1.30777">
        <ele>624.513671875</ele>
      </trkpt>
      <trkpt lat="42.05804" lon="-1.30796">
        <ele>624.99438476562</ele>
      </trkpt>
      <trkpt lat="42.05753" lon="-1.30817">
        <ele>630.28149414062</ele>
      </trkpt>
      <trkpt lat="42.05727" lon="-1.30815">
        <ele>631.24291992188</ele>
      </trkpt>
      <trkpt lat="42.05708" lon="-1.30785">
        <ele>632.2041015625</ele>
      </trkpt>
      <trkpt lat="42.05683" lon="-1.30709">
        <ele>635.56860351562</ele>
      </trkpt>
      <trkpt lat="42.05667" lon="-1.30684">
        <ele>633.16528320312</ele>
      </trkpt>
      <trkpt lat="42.05645" lon="-1.30669">
        <ele>631.24291992188</ele>
      </trkpt>
      <trkpt lat="42.05509" lon="-1.3063">
        <ele>628.83959960938</ele>
      </trkpt>
      <trkpt lat="42.05476" lon="-1.30596">
        <ele>628.35888671875</ele>
      </trkpt>
      <trkpt lat="42.05462" lon="-1.30569">
        <ele>629.32006835938</ele>
      </trkpt>
      <trkpt lat="42.05398" lon="-1.30518">
        <ele>626.43627929688</ele>
      </trkpt>
      <trkpt lat="42.05382" lon="-1.30487">
        <ele>626.9169921875</ele>
      </trkpt>
      <trkpt lat="42.0534" lon="-1.30442">
        <ele>624.03295898438</ele>
      </trkpt>
      <trkpt lat="42.05276" lon="-1.30388">
        <ele>619.70703125</ele>
      </trkpt>
      <trkpt lat="42.05234" lon="-1.30277">
        <ele>617.7841796875</ele>
      </trkpt>
      <trkpt lat="42.05203" lon="-1.30259">
        <ele>615.38110351562</ele>
      </trkpt>
      <trkpt lat="42.0518" lon="-1.30276">
        <ele>617.3037109375</ele>
      </trkpt>
      <trkpt lat="42.05152" lon="-1.30335">
        <ele>616.34228515625</ele>
      </trkpt>
      <trkpt lat="42.05113" lon="-1.30384">
        <ele>617.7841796875</ele>
      </trkpt>
      <trkpt lat="42.05027" lon="-1.30414">
        <ele>615.38110351562</ele>
      </trkpt>
      <trkpt lat="42.05001" lon="-1.30437">
        <ele>617.3037109375</ele>
      </trkpt>
      <trkpt lat="42.04861" lon="-1.30667">
        <ele>614.900390625</ele>
      </trkpt>
      <trkpt lat="42.04804" lon="-1.30733">
        <ele>614.900390625</ele>
      </trkpt>
      <trkpt lat="42.04726" lon="-1.30803">
        <ele>615.86181640625</ele>
      </trkpt>
      <trkpt lat="42.04626" lon="-1.30833">
        <ele>611.53588867188</ele>
      </trkpt>
      <trkpt lat="42.04555" lon="-1.30834">
        <ele>612.4970703125</ele>
      </trkpt>
      <trkpt lat="42.04471" lon="-1.30787">
        <ele>610.57446289062</ele>
      </trkpt>
      <trkpt lat="42.04438" lon="-1.30756">
        <ele>609.61328125</ele>
      </trkpt>
      <trkpt lat="42.04303" lon="-1.30566">
        <ele>610.09375</ele>
      </trkpt>
      <trkpt lat="42.04281" lon="-1.30567">
        <ele>610.09375</ele>
      </trkpt>
      <trkpt lat="42.04264" lon="-1.30587">
        <ele>612.0166015625</ele>
      </trkpt>
      <trkpt lat="42.0411" lon="-1.30863">
        <ele>607.2099609375</ele>
      </trkpt>
      <trkpt lat="42.03839" lon="-1.31287">
        <ele>603.84521484375</ele>
      </trkpt>
      <trkpt lat="42.0382" lon="-1.31305">
        <ele>605.76806640625</ele>
      </trkpt>
      <trkpt lat="42.03793" lon="-1.31314">
        <ele>607.2099609375</ele>
      </trkpt>
      <trkpt lat="42.03793" lon="-1.3132">
        <ele>608.17138671875</ele>
      </trkpt>
      <trkpt lat="42.03782" lon="-1.31308">
        <ele>606.72924804688</ele>
      </trkpt>
      <trkpt lat="42.03742" lon="-1.31294">
        <ele>607.2099609375</ele>
      </trkpt>
      <trkpt lat="42.03677" lon="-1.31282">
        <ele>605.76806640625</ele>
      </trkpt>
      <trkpt lat="42.03653" lon="-1.31264">
        <ele>606.24853515625</ele>
      </trkpt>
      <trkpt lat="42.0357" lon="-1.31169">
        <ele>604.806640625</ele>
      </trkpt>
      <trkpt lat="42.03508" lon="-1.31133">
        <ele>601.92260742188</ele>
      </trkpt>
      <trkpt lat="42.03454" lon="-1.31124">
        <ele>600.48071289062</ele>
      </trkpt>
      <trkpt lat="42.03343" lon="-1.31122">
        <ele>600.48071289062</ele>
      </trkpt>
      <trkpt lat="42.03246" lon="-1.31157">
        <ele>598.55786132812</ele>
      </trkpt>
      <trkpt lat="42.03191" lon="-1.31197">
        <ele>597.11596679688</ele>
      </trkpt>
      <trkpt lat="42.03151" lon="-1.31234">
        <ele>596.63549804688</ele>
      </trkpt>
      <trkpt lat="42.03101" lon="-1.31333">
        <ele>595.193359375</ele>
      </trkpt>
      <trkpt lat="42.02988" lon="-1.31452">
        <ele>595.193359375</ele>
      </trkpt>
      <trkpt lat="42.02956" lon="-1.31508">
        <ele>595.193359375</ele>
      </trkpt>
      <trkpt lat="42.02919" lon="-1.31602">
        <ele>594.23217773438</ele>
      </trkpt>
      <trkpt lat="42.02853" lon="-1.31696">
        <ele>599.03857421875</ele>
      </trkpt>
      <trkpt lat="42.02777" lon="-1.31792">
        <ele>596.63549804688</ele>
      </trkpt>
      <trkpt lat="42.02728" lon="-1.31833">
        <ele>594.23217773438</ele>
      </trkpt>
      <trkpt lat="42.02599" lon="-1.3192">
        <ele>593.75146484375</ele>
      </trkpt>
      <trkpt lat="42.02578" lon="-1.31929">
        <ele>595.193359375</ele>
      </trkpt>
      <trkpt lat="42.02538" lon="-1.31933">
        <ele>597.5966796875</ele>
      </trkpt>
      <trkpt lat="42.02508" lon="-1.31974">
        <ele>603.84521484375</ele>
      </trkpt>
      <trkpt lat="42.0224" lon="-1.31993">
        <ele>593.75146484375</ele>
      </trkpt>
      <trkpt lat="42.02198" lon="-1.32">
        <ele>594.23217773438</ele>
      </trkpt>
      <trkpt lat="42.02151" lon="-1.32018">
        <ele>595.193359375</ele>
      </trkpt>
      <trkpt lat="42.02123" lon="-1.32053">
        <ele>595.67407226562</ele>
      </trkpt>
      <trkpt lat="42.02077" lon="-1.32161">
        <ele>601.92260742188</ele>
      </trkpt>
      <trkpt lat="42.02024" lon="-1.32368">
        <ele>612.4970703125</ele>
      </trkpt>
      <trkpt lat="42.01991" lon="-1.32435">
        <ele>618.26489257812</ele>
      </trkpt>
      <trkpt lat="42.01983" lon="-1.32475">
        <ele>625.47485351562</ele>
      </trkpt>
      <trkpt lat="42.02007" lon="-1.3251">
        <ele>634.12670898438</ele>
      </trkpt>
      <trkpt lat="42.02017" lon="-1.32512">
        <ele>635.56860351562</ele>
      </trkpt>
      <trkpt lat="42.02005" lon="-1.32487">
        <ele>635.56860351562</ele>
      </trkpt>
      <trkpt lat="42.02007" lon="-1.32469">
        <ele>637.0107421875</ele>
      </trkpt>
      <trkpt lat="42.02039" lon="-1.32435">
        <ele>641.33666992188</ele>
      </trkpt>
      <trkpt lat="42.02035" lon="-1.32404">
        <ele>633.64599609375</ele>
      </trkpt>
      <trkpt lat="42.02041" lon="-1.3242">
        <ele>632.68481445312</ele>
      </trkpt>
      <trkpt lat="42.02054" lon="-1.32409">
        <ele>632.2041015625</ele>
      </trkpt>
      <trkpt lat="42.02061" lon="-1.32384">
        <ele>630.76220703125</ele>
      </trkpt>
      <trkpt lat="42.02096" lon="-1.32312">
        <ele>634.12670898438</ele>
      </trkpt>
      <trkpt lat="42.02074" lon="-1.32376">
        <ele>634.607421875</ele>
        <extensions>
          <visugpx:TrkExtension xmlns:visugpx="https://www.visugpx.com/editgpx/">
            <visugpx:node>1</visugpx:node>
            </visugpx:TrkExtension>
        </extensions>
      </trkpt>
    </trkseg>
  </trk>
  <trk>
    <name><![CDATA[8-9  Valdenovillas - Sancho Abarca]]></name>
    <extensions>
      <line xmlns="http://www.topografix.com/GPX/gpx_style/0/2">
        <color>0080ff</color>
        <opacity>0.5</opacity>
        <width>12</width>
      </line>
    </extensions>
    <trkseg>
      <trkpt lat="41.96678" lon="-1.38166">
        <ele>249</ele>
        <time>2010-11-06T17:51:28Z</time>
      </trkpt>
      <trkpt lat="41.9672" lon="-1.38184">
        <ele>250</ele>
        <time>2010-11-06T17:51:41Z</time>
      </trkpt>
      <trkpt lat="41.96775" lon="-1.38134">
        <ele>254</ele>
        <time>2010-11-06T17:52:03Z</time>
      </trkpt>
      <trkpt lat="41.96916" lon="-1.38116">
        <ele>259</ele>
        <time>2010-11-06T17:52:46Z</time>
      </trkpt>
      <trkpt lat="41.96925" lon="-1.38105">
        <ele>259</ele>
        <time>2010-11-06T17:52:51Z</time>
      </trkpt>
      <trkpt lat="41.96966" lon="-1.37701">
        <ele>282</ele>
        <time>2010-11-06T17:54:25Z</time>
      </trkpt>
      <trkpt lat="41.9708" lon="-1.37507">
        <ele>293</ele>
        <time>2010-11-06T17:55:21Z</time>
      </trkpt>
      <trkpt lat="41.972" lon="-1.37453">
        <ele>298</ele>
        <time>2010-11-06T17:56:00Z</time>
      </trkpt>
      <trkpt lat="41.97278" lon="-1.37465">
        <ele>298</ele>
        <time>2010-11-06T17:56:24Z</time>
      </trkpt>
      <trkpt lat="41.97344" lon="-1.37514">
        <ele>299</ele>
        <time>2010-11-06T17:56:48Z</time>
      </trkpt>
      <trkpt lat="41.97428" lon="-1.37526">
        <ele>299</ele>
        <time>2010-11-06T17:57:14Z</time>
      </trkpt>
      <trkpt lat="41.9748" lon="-1.37512">
        <ele>297</ele>
        <time>2010-11-06T17:57:30Z</time>
      </trkpt>
      <trkpt lat="41.975" lon="-1.3745">
        <ele>299</ele>
        <time>2010-11-06T17:57:47Z</time>
      </trkpt>
      <trkpt lat="41.9746" lon="-1.37254">
        <ele>305</ele>
        <time>2010-11-06T17:58:33Z</time>
      </trkpt>
      <trkpt lat="41.97512" lon="-1.37137">
        <ele>310</ele>
        <time>2010-11-06T17:59:05Z</time>
      </trkpt>
      <trkpt lat="41.97585" lon="-1.3709">
        <ele>314</ele>
        <time>2010-11-06T17:59:29Z</time>
      </trkpt>
      <trkpt lat="41.97593" lon="-1.37064">
        <ele>316</ele>
        <time>2010-11-06T17:59:37Z</time>
      </trkpt>
      <trkpt lat="41.97568" lon="-1.36949">
        <ele>319</ele>
        <time>2010-11-06T18:00:04Z</time>
      </trkpt>
      <trkpt lat="41.97575" lon="-1.36888">
        <ele>320</ele>
        <time>2010-11-06T18:00:18Z</time>
      </trkpt>
      <trkpt lat="41.97788" lon="-1.36747">
        <ele>322</ele>
        <time>2010-11-06T18:01:32Z</time>
      </trkpt>
      <trkpt lat="41.9803" lon="-1.36702">
        <ele>316</ele>
        <time>2010-11-06T18:02:46Z</time>
      </trkpt>
      <trkpt lat="41.98195" lon="-1.36691">
        <ele>322</ele>
        <time>2010-11-06T18:03:37Z</time>
      </trkpt>
      <trkpt lat="41.98269" lon="-1.36723">
        <ele>324</ele>
        <time>2010-11-06T18:04:03Z</time>
      </trkpt>
      <trkpt lat="41.98639" lon="-1.36614">
        <ele>327</ele>
        <time>2010-11-06T18:05:59Z</time>
      </trkpt>
      <trkpt lat="41.98713" lon="-1.36619">
        <ele>321</ele>
        <time>2010-11-06T18:06:21Z</time>
      </trkpt>
      <trkpt lat="41.98841" lon="-1.36653">
        <ele>326</ele>
        <time>2010-11-06T18:07:03Z</time>
      </trkpt>
      <trkpt lat="41.99166" lon="-1.36661">
        <ele>339</ele>
        <time>2010-11-06T18:08:43Z</time>
      </trkpt>
      <trkpt lat="41.99384" lon="-1.36502">
        <ele>351</ele>
        <time>2010-11-06T18:09:59Z</time>
      </trkpt>
      <trkpt lat="41.9951" lon="-1.36494">
        <ele>351</ele>
        <time>2010-11-06T18:10:38Z</time>
      </trkpt>
      <trkpt lat="41.99632" lon="-1.36532">
        <ele>353</ele>
        <time>2010-11-06T18:11:16Z</time>
      </trkpt>
      <trkpt lat="41.99769" lon="-1.36525">
        <ele>353</ele>
        <time>2010-11-06T18:12:00Z</time>
      </trkpt>
      <trkpt lat="41.9982" lon="-1.36554">
        <ele>354</ele>
        <time>2010-11-06T18:12:18Z</time>
      </trkpt>
      <trkpt lat="41.99829" lon="-1.36446">
        <ele>350</ele>
        <time>2010-11-06T18:12:43Z</time>
      </trkpt>
      <trkpt lat="41.99854" lon="-1.3635">
        <ele>354</ele>
        <time>2010-11-06T18:13:07Z</time>
      </trkpt>
      <trkpt lat="41.99881" lon="-1.36298">
        <ele>359</ele>
        <time>2010-11-06T18:13:22Z</time>
      </trkpt>
      <trkpt lat="41.99969" lon="-1.36208">
        <ele>352</ele>
        <time>2010-11-06T18:13:55Z</time>
      </trkpt>
      <trkpt lat="42.00018" lon="-1.36091">
        <ele>347</ele>
        <time>2010-11-06T18:14:27Z</time>
      </trkpt>
      <trkpt lat="42.00017" lon="-1.3605">
        <ele>346</ele>
        <time>2010-11-06T18:14:36Z</time>
      </trkpt>
      <trkpt lat="41.99944" lon="-1.35861">
        <ele>345</ele>
        <time>2010-11-06T18:15:26Z</time>
      </trkpt>
      <trkpt lat="41.99944" lon="-1.35741">
        <ele>336</ele>
        <time>2010-11-06T18:15:53Z</time>
      </trkpt>
      <trkpt lat="41.99958" lon="-1.35699">
        <ele>331</ele>
        <time>2010-11-06T18:16:04Z</time>
      </trkpt>
      <trkpt lat="41.99978" lon="-1.35689">
        <ele>329</ele>
        <time>2010-11-06T18:16:10Z</time>
      </trkpt>
      <trkpt lat="42.00175" lon="-1.35703">
        <ele>327</ele>
        <time>2010-11-06T18:17:11Z</time>
      </trkpt>
      <trkpt lat="42.00318" lon="-1.35742">
        <ele>334</ele>
        <time>2010-11-06T18:17:55Z</time>
      </trkpt>
      <trkpt lat="42.00496" lon="-1.35767">
        <ele>326</ele>
        <time>2010-11-06T18:18:51Z</time>
      </trkpt>
      <trkpt lat="42.00761" lon="-1.35772">
        <ele>333</ele>
        <time>2010-11-06T18:20:12Z</time>
      </trkpt>
      <trkpt lat="42.0081" lon="-1.35795">
        <ele>333</ele>
        <time>2010-11-06T18:20:28Z</time>
      </trkpt>
      <trkpt lat="42.00894" lon="-1.35874">
        <ele>334</ele>
        <time>2010-11-06T18:21:00Z</time>
      </trkpt>
      <trkpt lat="42.01007" lon="-1.35914">
        <ele>336</ele>
        <time>2010-11-06T18:21:37Z</time>
      </trkpt>
      <trkpt lat="42.01125" lon="-1.36027">
        <ele>342</ele>
        <time>2010-11-06T18:22:21Z</time>
      </trkpt>
      <trkpt lat="42.01299" lon="-1.36108">
        <ele>343</ele>
        <time>2010-11-06T18:23:18Z</time>
      </trkpt>
      <trkpt lat="42.01541" lon="-1.36124">
        <ele>344</ele>
        <time>2010-11-06T18:24:32Z</time>
      </trkpt>
      <trkpt lat="42.01694" lon="-1.36167">
        <ele>344</ele>
        <time>2010-11-06T18:25:21Z</time>
      </trkpt>
      <trkpt lat="42.01785" lon="-1.3621">
        <ele>346</ele>
        <time>2010-11-06T18:25:51Z</time>
      </trkpt>
      <trkpt lat="42.01906" lon="-1.36236">
        <ele>351</ele>
        <time>2010-11-06T18:26:28Z</time>
      </trkpt>
      <trkpt lat="42.02128" lon="-1.36209">
        <ele>357</ele>
        <time>2010-11-06T18:27:37Z</time>
      </trkpt>
      <trkpt lat="42.02181" lon="-1.36232">
        <ele>357</ele>
        <time>2010-11-06T18:27:54Z</time>
      </trkpt>
      <trkpt lat="42.02247" lon="-1.36214">
        <ele>356</ele>
        <time>2010-11-06T18:28:15Z</time>
      </trkpt>
      <trkpt lat="42.02306" lon="-1.36279">
        <ele>356</ele>
        <time>2010-11-06T18:28:39Z</time>
      </trkpt>
      <trkpt lat="42.0234" lon="-1.36278">
        <ele>355</ele>
        <time>2010-11-06T18:28:50Z</time>
      </trkpt>
      <trkpt lat="42.02386" lon="-1.36224">
        <ele>358</ele>
        <time>2010-11-06T18:29:09Z</time>
      </trkpt>
      <trkpt lat="42.0245" lon="-1.36234">
        <ele>363</ele>
        <time>2010-11-06T18:29:28Z</time>
      </trkpt>
      <trkpt lat="42.02581" lon="-1.36142">
        <ele>368</ele>
        <time>2010-11-06T18:30:14Z</time>
      </trkpt>
      <trkpt lat="42.02598" lon="-1.36102">
        <ele>369</ele>
        <time>2010-11-06T18:30:25Z</time>
      </trkpt>
      <trkpt lat="42.02607" lon="-1.35994">
        <ele>377</ele>
        <time>2010-11-06T18:30:51Z</time>
      </trkpt>
      <trkpt lat="42.02657" lon="-1.35968">
        <ele>376</ele>
        <time>2010-11-06T18:31:07Z</time>
      </trkpt>
      <trkpt lat="42.02675" lon="-1.35928">
        <ele>379</ele>
        <time>2010-11-06T18:31:19Z</time>
      </trkpt>
      <trkpt lat="42.02792" lon="-1.3582">
        <ele>377</ele>
        <time>2010-11-06T18:32:01Z</time>
      </trkpt>
      <trkpt lat="42.02862" lon="-1.3578">
        <ele>377</ele>
        <time>2010-11-06T18:32:26Z</time>
      </trkpt>
      <trkpt lat="42.0308" lon="-1.35701">
        <ele>376</ele>
        <time>2010-11-06T18:33:35Z</time>
      </trkpt>
      <trkpt lat="42.03135" lon="-1.35564">
        <ele>384</ele>
        <time>2010-11-06T18:34:11Z</time>
      </trkpt>
      <trkpt lat="42.03133" lon="-1.35475">
        <ele>388</ele>
        <time>2010-11-06T18:34:32Z</time>
      </trkpt>
      <trkpt lat="42.03194" lon="-1.3538">
        <ele>390</ele>
        <time>2010-11-06T18:35:01Z</time>
      </trkpt>
      <trkpt lat="42.03219" lon="-1.35283">
        <ele>397</ele>
        <time>2010-11-06T18:35:25Z</time>
      </trkpt>
      <trkpt lat="42.03305" lon="-1.35112">
        <ele>397</ele>
        <time>2010-11-06T18:36:12Z</time>
      </trkpt>
      <trkpt lat="42.03322" lon="-1.35007">
        <ele>401</ele>
        <time>2010-11-06T18:36:36Z</time>
      </trkpt>
      <trkpt lat="42.03345" lon="-1.34974">
        <ele>406</ele>
        <time>2010-11-06T18:36:47Z</time>
      </trkpt>
      <trkpt lat="42.03447" lon="-1.34924">
        <ele>411</ele>
        <time>2010-11-06T18:37:22Z</time>
      </trkpt>
      <trkpt lat="42.03488" lon="-1.34884">
        <ele>402</ele>
        <time>2010-11-06T18:37:37Z</time>
      </trkpt>
      <trkpt lat="42.0353" lon="-1.34808">
        <ele>414</ele>
        <time>2010-11-06T18:37:59Z</time>
      </trkpt>
      <trkpt lat="42.03688" lon="-1.34619">
        <ele>406</ele>
        <time>2010-11-06T18:39:06Z</time>
      </trkpt>
      <trkpt lat="42.03737" lon="-1.34534">
        <ele>404</ele>
        <time>2010-11-06T18:39:30Z</time>
      </trkpt>
      <trkpt lat="42.03808" lon="-1.34518">
        <ele>400</ele>
        <time>2010-11-06T18:39:52Z</time>
      </trkpt>
      <trkpt lat="42.03815" lon="-1.34502">
        <ele>404</ele>
        <time>2010-11-06T18:39:57Z</time>
      </trkpt>
      <trkpt lat="42.03816" lon="-1.34446">
        <ele>413</ele>
        <time>2010-11-06T18:40:10Z</time>
      </trkpt>
      <trkpt lat="42.03791" lon="-1.34337">
        <ele>432</ele>
        <time>2010-11-06T18:40:37Z</time>
      </trkpt>
      <trkpt lat="42.03753" lon="-1.34267">
        <ele>442</ele>
        <time>2010-11-06T18:40:56Z</time>
      </trkpt>
      <trkpt lat="42.03694" lon="-1.34204">
        <ele>455</ele>
        <time>2010-11-06T18:41:21Z</time>
      </trkpt>
      <trkpt lat="42.0366" lon="-1.34063">
        <ele>466</ele>
        <time>2010-11-06T18:41:56Z</time>
      </trkpt>
      <trkpt lat="42.03612" lon="-1.3406">
        <ele>470</ele>
        <time>2010-11-06T18:42:11Z</time>
      </trkpt>
      <trkpt lat="42.03597" lon="-1.34044">
        <ele>469</ele>
        <time>2010-11-06T18:42:17Z</time>
      </trkpt>
      <trkpt lat="42.03549" lon="-1.33888">
        <ele>482</ele>
        <time>2010-11-06T18:42:55Z</time>
      </trkpt>
      <trkpt lat="42.03415" lon="-1.33817">
        <ele>500</ele>
        <time>2010-11-06T18:43:41Z</time>
      </trkpt>
      <trkpt lat="42.03269" lon="-1.33589">
        <ele>527</ele>
        <time>2010-11-06T18:44:51Z</time>
      </trkpt>
      <trkpt lat="42.03197" lon="-1.33413">
        <ele>560</ele>
        <time>2010-11-06T18:45:39Z</time>
      </trkpt>
      <trkpt lat="42.03187" lon="-1.33218">
        <ele>567</ele>
        <time>2010-11-06T18:46:24Z</time>
      </trkpt>
      <trkpt lat="42.03225" lon="-1.33045">
        <ele>578</ele>
        <time>2010-11-06T18:47:05Z</time>
      </trkpt>
      <trkpt lat="42.03398" lon="-1.3268">
        <ele>590</ele>
        <time>2010-11-06T18:48:45Z</time>
      </trkpt>
      <trkpt lat="42.03496" lon="-1.3256">
        <ele>591</ele>
        <time>2010-11-06T18:49:27Z</time>
      </trkpt>
      <trkpt lat="42.03489" lon="-1.32463">
        <ele>597</ele>
        <time>2010-11-06T18:49:50Z</time>
      </trkpt>
      <trkpt lat="42.03411" lon="-1.32333">
        <ele>598</ele>
        <time>2010-11-06T18:50:29Z</time>
      </trkpt>
      <trkpt lat="42.03454" lon="-1.32249">
        <ele>594</ele>
        <time>2010-11-06T18:50:51Z</time>
      </trkpt>
      <trkpt lat="42.03519" lon="-1.32177">
        <ele>600</ele>
        <time>2010-11-06T18:51:18Z</time>
      </trkpt>
      <trkpt lat="42.03566" lon="-1.31945">
        <ele>605</ele>
        <time>2010-11-06T18:52:14Z</time>
      </trkpt>
      <trkpt lat="42.03447" lon="-1.31872">
        <ele>598</ele>
        <time>2010-11-06T18:52:55Z</time>
      </trkpt>
      <trkpt lat="42.03513" lon="-1.31793">
        <ele>603</ele>
        <time>2010-11-06T18:53:22Z</time>
      </trkpt>
      <trkpt lat="42.03509" lon="-1.31708">
        <ele>602</ele>
        <time>2010-11-06T18:53:43Z</time>
      </trkpt>
      <trkpt lat="42.036" lon="-1.31569">
        <ele>603</ele>
        <time>2010-11-06T18:54:24Z</time>
      </trkpt>
      <trkpt lat="42.03629" lon="-1.31458">
        <ele>604</ele>
        <time>2010-11-06T18:54:51Z</time>
      </trkpt>
      <trkpt lat="42.0366" lon="-1.3141">
        <ele>606</ele>
        <time>2010-11-06T18:55:06Z</time>
      </trkpt>
      <trkpt lat="42.03786" lon="-1.31349">
        <ele>604</ele>
        <time>2010-11-06T18:55:47Z</time>
      </trkpt>
      <trkpt lat="42.03795" lon="-1.31316">
        <ele>598</ele>
        <time>2010-11-06T18:55:57Z</time>
      </trkpt>
      <trkpt lat="42.03663" lon="-1.31287">
        <ele>592</ele>
        <time>2010-11-06T18:56:38Z</time>
      </trkpt>
      <trkpt lat="42.03589" lon="-1.31183">
        <ele>588</ele>
        <time>2010-11-06T18:57:12Z</time>
      </trkpt>
      <trkpt lat="42.0348" lon="-1.31124">
        <ele>583</ele>
        <time>2010-11-06T18:57:48Z</time>
      </trkpt>
      <trkpt lat="42.03336" lon="-1.31123">
        <ele>584</ele>
        <time>2010-11-06T18:58:33Z</time>
      </trkpt>
      <trkpt lat="42.0326" lon="-1.3115">
        <ele>591</ele>
        <time>2010-11-06T18:58:57Z</time>
      </trkpt>
      <trkpt lat="42.03134" lon="-1.31259">
        <ele>583</ele>
        <time>2010-11-06T18:59:43Z</time>
      </trkpt>
      <trkpt lat="42.03104" lon="-1.31326">
        <ele>587</ele>
        <time>2010-11-06T19:00:02Z</time>
      </trkpt>
      <trkpt lat="42.02957" lon="-1.31503">
        <ele>571</ele>
        <time>2010-11-06T19:01:02Z</time>
      </trkpt>
      <trkpt lat="42.02913" lon="-1.31615">
        <ele>575</ele>
        <time>2010-11-06T19:01:31Z</time>
      </trkpt>
      <trkpt lat="42.02789" lon="-1.31778">
        <ele>578</ele>
        <time>2010-11-06T19:02:25Z</time>
      </trkpt>
      <trkpt lat="42.02724" lon="-1.3184">
        <ele>576</ele>
        <time>2010-11-06T19:02:49Z</time>
      </trkpt>
      <trkpt lat="42.02639" lon="-1.31902">
        <ele>575</ele>
        <time>2010-11-06T19:03:19Z</time>
      </trkpt>
      <trkpt lat="42.02523" lon="-1.31937">
        <ele>579</ele>
        <time>2010-11-06T19:03:57Z</time>
      </trkpt>
      <trkpt lat="42.02505" lon="-1.31978">
        <ele>576</ele>
        <time>2010-11-06T19:04:07Z</time>
      </trkpt>
      <trkpt lat="42.02227" lon="-1.3199">
        <ele>583</ele>
        <time>2010-11-06T19:05:33Z</time>
      </trkpt>
      <trkpt lat="42.02135" lon="-1.32031">
        <ele>586</ele>
        <time>2010-11-06T19:06:05Z</time>
      </trkpt>
      <trkpt lat="42.02066" lon="-1.32193">
        <ele>592</ele>
        <time>2010-11-06T19:06:46Z</time>
      </trkpt>
      <trkpt lat="42.02015" lon="-1.32384">
        <ele>625</ele>
        <time>2010-11-06T19:07:34Z</time>
      </trkpt>
      <trkpt lat="42.01981" lon="-1.3246">
        <ele>606</ele>
        <time>2010-11-06T19:07:56Z</time>
      </trkpt>
      <trkpt lat="42.01986" lon="-1.32492">
        <ele>602</ele>
        <time>2010-11-06T19:08:03Z</time>
      </trkpt>
      <trkpt lat="42.02023" lon="-1.3252">
        <ele>618</ele>
        <time>2010-11-06T19:08:18Z</time>
      </trkpt>
      <trkpt lat="42.01986" lon="-1.32492">
        <ele>602</ele>
        <time>2010-11-06T19:08:03Z</time>
      </trkpt>
      <trkpt lat="42.01981" lon="-1.3246">
        <ele>606</ele>
        <time>2010-11-06T19:07:56Z</time>
      </trkpt>
      <trkpt lat="42.02015" lon="-1.32384">
        <ele>625</ele>
        <time>2010-11-06T19:07:34Z</time>
      </trkpt>
      <trkpt lat="42.02066" lon="-1.32193">
        <ele>592</ele>
        <time>2010-11-06T19:06:46Z</time>
      </trkpt>
      <trkpt lat="42.02135" lon="-1.32031">
        <ele>586</ele>
        <time>2010-11-06T19:06:05Z</time>
      </trkpt>
      <trkpt lat="42.02227" lon="-1.3199">
        <ele>583</ele>
        <time>2010-11-06T19:05:33Z</time>
      </trkpt>
      <trkpt lat="42.02505" lon="-1.31978">
        <ele>576</ele>
        <time>2010-11-06T19:04:07Z</time>
      </trkpt>
      <trkpt lat="42.02523" lon="-1.31937">
        <ele>579</ele>
        <time>2010-11-06T19:03:57Z</time>
      </trkpt>
      <trkpt lat="42.02639" lon="-1.31902">
        <ele>575</ele>
        <time>2010-11-06T19:03:19Z</time>
      </trkpt>
      <trkpt lat="42.02724" lon="-1.3184">
        <ele>576</ele>
        <time>2010-11-06T19:02:49Z</time>
      </trkpt>
      <trkpt lat="42.02789" lon="-1.31778">
        <ele>578</ele>
        <time>2010-11-06T19:02:25Z</time>
      </trkpt>
      <trkpt lat="42.02913" lon="-1.31615">
        <ele>575</ele>
        <time>2010-11-06T19:01:31Z</time>
      </trkpt>
      <trkpt lat="42.02957" lon="-1.31503">
        <ele>571</ele>
        <time>2010-11-06T19:01:02Z</time>
      </trkpt>
      <trkpt lat="42.03104" lon="-1.31326">
        <ele>587</ele>
        <time>2010-11-06T19:00:02Z</time>
      </trkpt>
      <trkpt lat="42.03134" lon="-1.31259">
        <ele>583</ele>
        <time>2010-11-06T18:59:43Z</time>
      </trkpt>
      <trkpt lat="42.0326" lon="-1.3115">
        <ele>591</ele>
        <time>2010-11-06T18:58:57Z</time>
      </trkpt>
      <trkpt lat="42.03336" lon="-1.31123">
        <ele>584</ele>
        <time>2010-11-06T18:58:33Z</time>
      </trkpt>
      <trkpt lat="42.0348" lon="-1.31124">
        <ele>583</ele>
        <time>2010-11-06T18:57:48Z</time>
      </trkpt>
      <trkpt lat="42.03589" lon="-1.31183">
        <ele>588</ele>
        <time>2010-11-06T18:57:12Z</time>
      </trkpt>
      <trkpt lat="42.03663" lon="-1.31287">
        <ele>592</ele>
        <time>2010-11-06T18:56:38Z</time>
      </trkpt>
      <trkpt lat="42.038" lon="-1.31321">
        <ele>601</ele>
        <time>2010-11-06T18:55:55Z</time>
      </trkpt>
      <trkpt lat="42.03761" lon="-1.31366">
        <ele>605</ele>
        <time>2010-11-06T18:55:39Z</time>
      </trkpt>
      <trkpt lat="42.0366" lon="-1.3141">
        <ele>606</ele>
        <time>2010-11-06T18:55:06Z</time>
      </trkpt>
      <trkpt lat="42.03629" lon="-1.31458">
        <ele>604</ele>
        <time>2010-11-06T18:54:51Z</time>
      </trkpt>
      <trkpt lat="42.036" lon="-1.31569">
        <ele>603</ele>
        <time>2010-11-06T18:54:24Z</time>
      </trkpt>
      <trkpt lat="42.03509" lon="-1.31708">
        <ele>602</ele>
        <time>2010-11-06T18:53:43Z</time>
      </trkpt>
      <trkpt lat="42.03513" lon="-1.31793">
        <ele>603</ele>
        <time>2010-11-06T18:53:22Z</time>
      </trkpt>
      <trkpt lat="42.03447" lon="-1.31872">
        <ele>598</ele>
        <time>2010-11-06T18:52:55Z</time>
      </trkpt>
      <trkpt lat="42.03566" lon="-1.31945">
        <ele>605</ele>
        <time>2010-11-06T18:52:14Z</time>
      </trkpt>
      <trkpt lat="42.03519" lon="-1.32177">
        <ele>600</ele>
        <time>2010-11-06T18:51:18Z</time>
      </trkpt>
      <trkpt lat="42.03454" lon="-1.32249">
        <ele>594</ele>
        <time>2010-11-06T18:50:51Z</time>
      </trkpt>
      <trkpt lat="42.03411" lon="-1.32333">
        <ele>598</ele>
        <time>2010-11-06T18:50:29Z</time>
      </trkpt>
      <trkpt lat="42.03489" lon="-1.32463">
        <ele>597</ele>
        <time>2010-11-06T18:49:50Z</time>
      </trkpt>
      <trkpt lat="42.03496" lon="-1.3256">
        <ele>591</ele>
        <time>2010-11-06T18:49:27Z</time>
      </trkpt>
      <trkpt lat="42.03398" lon="-1.3268">
        <ele>590</ele>
        <time>2010-11-06T18:48:45Z</time>
      </trkpt>
      <trkpt lat="42.03225" lon="-1.33045">
        <ele>578</ele>
        <time>2010-11-06T18:47:05Z</time>
      </trkpt>
      <trkpt lat="42.03187" lon="-1.33218">
        <ele>567</ele>
        <time>2010-11-06T18:46:24Z</time>
      </trkpt>
      <trkpt lat="42.03197" lon="-1.33413">
        <ele>560</ele>
        <time>2010-11-06T18:45:39Z</time>
      </trkpt>
      <trkpt lat="42.03269" lon="-1.33589">
        <ele>527</ele>
        <time>2010-11-06T18:44:51Z</time>
      </trkpt>
      <trkpt lat="42.03415" lon="-1.33817">
        <ele>500</ele>
        <time>2010-11-06T18:43:41Z</time>
      </trkpt>
      <trkpt lat="42.03549" lon="-1.33888">
        <ele>482</ele>
        <time>2010-11-06T18:42:55Z</time>
      </trkpt>
      <trkpt lat="42.03597" lon="-1.34044">
        <ele>469</ele>
        <time>2010-11-06T18:42:17Z</time>
      </trkpt>
      <trkpt lat="42.03612" lon="-1.3406">
        <ele>470</ele>
        <time>2010-11-06T18:42:11Z</time>
      </trkpt>
      <trkpt lat="42.0366" lon="-1.34063">
        <ele>466</ele>
        <time>2010-11-06T18:41:56Z</time>
      </trkpt>
      <trkpt lat="42.03694" lon="-1.34204">
        <ele>455</ele>
        <time>2010-11-06T18:41:21Z</time>
      </trkpt>
      <trkpt lat="42.03753" lon="-1.34267">
        <ele>442</ele>
        <time>2010-11-06T18:40:56Z</time>
      </trkpt>
      <trkpt lat="42.03791" lon="-1.34337">
        <ele>432</ele>
        <time>2010-11-06T18:40:37Z</time>
      </trkpt>
      <trkpt lat="42.03816" lon="-1.34446">
        <ele>413</ele>
        <time>2010-11-06T18:40:10Z</time>
      </trkpt>
      <trkpt lat="42.03815" lon="-1.34502">
        <ele>404</ele>
        <time>2010-11-06T18:39:57Z</time>
      </trkpt>
      <trkpt lat="42.03808" lon="-1.34518">
        <ele>400</ele>
        <time>2010-11-06T18:39:52Z</time>
      </trkpt>
      <trkpt lat="42.03737" lon="-1.34534">
        <ele>404</ele>
        <time>2010-11-06T18:39:30Z</time>
      </trkpt>
      <trkpt lat="42.03688" lon="-1.34619">
        <ele>406</ele>
        <time>2010-11-06T18:39:06Z</time>
      </trkpt>
      <trkpt lat="42.0353" lon="-1.34808">
        <ele>414</ele>
        <time>2010-11-06T18:37:59Z</time>
      </trkpt>
      <trkpt lat="42.03488" lon="-1.34884">
        <ele>402</ele>
        <time>2010-11-06T18:37:37Z</time>
      </trkpt>
      <trkpt lat="42.03447" lon="-1.34924">
        <ele>411</ele>
        <time>2010-11-06T18:37:22Z</time>
      </trkpt>
      <trkpt lat="42.03345" lon="-1.34974">
        <ele>406</ele>
        <time>2010-11-06T18:36:47Z</time>
      </trkpt>
      <trkpt lat="42.03322" lon="-1.35007">
        <ele>401</ele>
        <time>2010-11-06T18:36:36Z</time>
      </trkpt>
      <trkpt lat="42.03305" lon="-1.35112">
        <ele>397</ele>
        <time>2010-11-06T18:36:12Z</time>
      </trkpt>
      <trkpt lat="42.03219" lon="-1.35283">
        <ele>397</ele>
        <time>2010-11-06T18:35:25Z</time>
      </trkpt>
      <trkpt lat="42.03194" lon="-1.3538">
        <ele>390</ele>
        <time>2010-11-06T18:35:01Z</time>
      </trkpt>
      <trkpt lat="42.03133" lon="-1.35475">
        <ele>388</ele>
        <time>2010-11-06T18:34:32Z</time>
      </trkpt>
      <trkpt lat="42.03135" lon="-1.35564">
        <ele>384</ele>
        <time>2010-11-06T18:34:11Z</time>
      </trkpt>
      <trkpt lat="42.0308" lon="-1.35701">
        <ele>376</ele>
        <time>2010-11-06T18:33:35Z</time>
      </trkpt>
      <trkpt lat="42.02862" lon="-1.3578">
        <ele>377</ele>
        <time>2010-11-06T18:32:26Z</time>
      </trkpt>
      <trkpt lat="42.02792" lon="-1.3582">
        <ele>377</ele>
        <time>2010-11-06T18:32:01Z</time>
      </trkpt>
      <trkpt lat="42.02675" lon="-1.35928">
        <ele>379</ele>
        <time>2010-11-06T18:31:19Z</time>
      </trkpt>
      <trkpt lat="42.02657" lon="-1.35968">
        <ele>376</ele>
        <time>2010-11-06T18:31:07Z</time>
      </trkpt>
      <trkpt lat="42.02607" lon="-1.35994">
        <ele>377</ele>
        <time>2010-11-06T18:30:51Z</time>
      </trkpt>
      <trkpt lat="42.02598" lon="-1.36102">
        <ele>369</ele>
        <time>2010-11-06T18:30:25Z</time>
      </trkpt>
      <trkpt lat="42.02581" lon="-1.36142">
        <ele>368</ele>
        <time>2010-11-06T18:30:14Z</time>
      </trkpt>
      <trkpt lat="42.0245" lon="-1.36234">
        <ele>363</ele>
        <time>2010-11-06T18:29:28Z</time>
      </trkpt>
      <trkpt lat="42.02386" lon="-1.36224">
        <ele>358</ele>
        <time>2010-11-06T18:29:09Z</time>
      </trkpt>
      <trkpt lat="42.0234" lon="-1.36278">
        <ele>355</ele>
        <time>2010-11-06T18:28:50Z</time>
      </trkpt>
      <trkpt lat="42.02306" lon="-1.36279">
        <ele>356</ele>
        <time>2010-11-06T18:28:39Z</time>
      </trkpt>
      <trkpt lat="42.02247" lon="-1.36214">
        <ele>356</ele>
        <time>2010-11-06T18:28:15Z</time>
      </trkpt>
      <trkpt lat="42.02181" lon="-1.36232">
        <ele>357</ele>
        <time>2010-11-06T18:27:54Z</time>
      </trkpt>
      <trkpt lat="42.02128" lon="-1.36209">
        <ele>357</ele>
        <time>2010-11-06T18:27:37Z</time>
      </trkpt>
      <trkpt lat="42.01906" lon="-1.36236">
        <ele>351</ele>
        <time>2010-11-06T18:26:28Z</time>
      </trkpt>
      <trkpt lat="42.01785" lon="-1.3621">
        <ele>346</ele>
        <time>2010-11-06T18:25:51Z</time>
      </trkpt>
      <trkpt lat="42.01694" lon="-1.36167">
        <ele>344</ele>
        <time>2010-11-06T18:25:21Z</time>
      </trkpt>
      <trkpt lat="42.01541" lon="-1.36124">
        <ele>344</ele>
        <time>2010-11-06T18:24:32Z</time>
      </trkpt>
      <trkpt lat="42.01299" lon="-1.36108">
        <ele>343</ele>
        <time>2010-11-06T18:23:18Z</time>
      </trkpt>
      <trkpt lat="42.01125" lon="-1.36027">
        <ele>342</ele>
        <time>2010-11-06T18:22:21Z</time>
      </trkpt>
      <trkpt lat="42.01007" lon="-1.35914">
        <ele>336</ele>
        <time>2010-11-06T18:21:37Z</time>
      </trkpt>
      <trkpt lat="42.00894" lon="-1.35874">
        <ele>334</ele>
        <time>2010-11-06T18:21:00Z</time>
      </trkpt>
      <trkpt lat="42.0081" lon="-1.35795">
        <ele>333</ele>
        <time>2010-11-06T18:20:28Z</time>
      </trkpt>
      <trkpt lat="42.00761" lon="-1.35772">
        <ele>333</ele>
        <time>2010-11-06T18:20:12Z</time>
      </trkpt>
      <trkpt lat="42.00496" lon="-1.35767">
        <ele>326</ele>
        <time>2010-11-06T18:18:51Z</time>
      </trkpt>
      <trkpt lat="42.00318" lon="-1.35742">
        <ele>334</ele>
        <time>2010-11-06T18:17:55Z</time>
      </trkpt>
      <trkpt lat="42.00175" lon="-1.35703">
        <ele>327</ele>
        <time>2010-11-06T18:17:11Z</time>
      </trkpt>
      <trkpt lat="41.99978" lon="-1.35689">
        <ele>329</ele>
        <time>2010-11-06T18:16:10Z</time>
      </trkpt>
      <trkpt lat="41.99958" lon="-1.35699">
        <ele>331</ele>
        <time>2010-11-06T18:16:04Z</time>
      </trkpt>
      <trkpt lat="41.99944" lon="-1.35741">
        <ele>336</ele>
        <time>2010-11-06T18:15:53Z</time>
      </trkpt>
      <trkpt lat="41.99944" lon="-1.35861">
        <ele>345</ele>
        <time>2010-11-06T18:15:26Z</time>
      </trkpt>
      <trkpt lat="42.00017" lon="-1.3605">
        <ele>346</ele>
        <time>2010-11-06T18:14:36Z</time>
      </trkpt>
      <trkpt lat="42.00018" lon="-1.36091">
        <ele>347</ele>
        <time>2010-11-06T18:14:27Z</time>
      </trkpt>
      <trkpt lat="41.99969" lon="-1.36208">
        <ele>352</ele>
        <time>2010-11-06T18:13:55Z</time>
      </trkpt>
      <trkpt lat="41.99881" lon="-1.36298">
        <ele>359</ele>
        <time>2010-11-06T18:13:22Z</time>
      </trkpt>
      <trkpt lat="41.99854" lon="-1.3635">
        <ele>354</ele>
        <time>2010-11-06T18:13:07Z</time>
      </trkpt>
      <trkpt lat="41.99829" lon="-1.36446">
        <ele>350</ele>
        <time>2010-11-06T18:12:43Z</time>
      </trkpt>
      <trkpt lat="41.9982" lon="-1.36554">
        <ele>354</ele>
        <time>2010-11-06T18:12:18Z</time>
      </trkpt>
      <trkpt lat="41.99769" lon="-1.36525">
        <ele>353</ele>
        <time>2010-11-06T18:12:00Z</time>
      </trkpt>
      <trkpt lat="41.99632" lon="-1.36532">
        <ele>353</ele>
        <time>2010-11-06T18:11:16Z</time>
      </trkpt>
      <trkpt lat="41.9951" lon="-1.36494">
        <ele>351</ele>
        <time>2010-11-06T18:10:38Z</time>
      </trkpt>
      <trkpt lat="41.99384" lon="-1.36502">
        <ele>351</ele>
        <time>2010-11-06T18:09:59Z</time>
      </trkpt>
      <trkpt lat="41.99166" lon="-1.36661">
        <ele>339</ele>
        <time>2010-11-06T18:08:43Z</time>
      </trkpt>
      <trkpt lat="41.98841" lon="-1.36653">
        <ele>326</ele>
        <time>2010-11-06T18:07:03Z</time>
      </trkpt>
      <trkpt lat="41.98713" lon="-1.36619">
        <ele>321</ele>
        <time>2010-11-06T18:06:21Z</time>
      </trkpt>
      <trkpt lat="41.98639" lon="-1.36614">
        <ele>327</ele>
        <time>2010-11-06T18:05:59Z</time>
      </trkpt>
      <trkpt lat="41.98269" lon="-1.36723">
        <ele>324</ele>
        <time>2010-11-06T18:04:03Z</time>
      </trkpt>
      <trkpt lat="41.98195" lon="-1.36691">
        <ele>322</ele>
        <time>2010-11-06T18:03:37Z</time>
      </trkpt>
      <trkpt lat="41.9803" lon="-1.36702">
        <ele>316</ele>
        <time>2010-11-06T18:02:46Z</time>
      </trkpt>
      <trkpt lat="41.97788" lon="-1.36747">
        <ele>322</ele>
        <time>2010-11-06T18:01:32Z</time>
      </trkpt>
      <trkpt lat="41.97575" lon="-1.36888">
        <ele>320</ele>
        <time>2010-11-06T18:00:18Z</time>
      </trkpt>
      <trkpt lat="41.97568" lon="-1.36949">
        <ele>319</ele>
        <time>2010-11-06T18:00:04Z</time>
      </trkpt>
      <trkpt lat="41.97593" lon="-1.37064">
        <ele>316</ele>
        <time>2010-11-06T17:59:37Z</time>
      </trkpt>
      <trkpt lat="41.97585" lon="-1.3709">
        <ele>314</ele>
        <time>2010-11-06T17:59:29Z</time>
      </trkpt>
      <trkpt lat="41.97512" lon="-1.37137">
        <ele>310</ele>
        <time>2010-11-06T17:59:05Z</time>
      </trkpt>
      <trkpt lat="41.9746" lon="-1.37254">
        <ele>305</ele>
        <time>2010-11-06T17:58:33Z</time>
      </trkpt>
      <trkpt lat="41.975" lon="-1.3745">
        <ele>299</ele>
        <time>2010-11-06T17:57:47Z</time>
      </trkpt>
      <trkpt lat="41.9748" lon="-1.37512">
        <ele>297</ele>
        <time>2010-11-06T17:57:30Z</time>
      </trkpt>
      <trkpt lat="41.97428" lon="-1.37526">
        <ele>299</ele>
        <time>2010-11-06T17:57:14Z</time>
      </trkpt>
      <trkpt lat="41.97344" lon="-1.37514">
        <ele>299</ele>
        <time>2010-11-06T17:56:48Z</time>
      </trkpt>
      <trkpt lat="41.97278" lon="-1.37465">
        <ele>298</ele>
        <time>2010-11-06T17:56:24Z</time>
      </trkpt>
      <trkpt lat="41.972" lon="-1.37453">
        <ele>298</ele>
        <time>2010-11-06T17:56:00Z</time>
      </trkpt>
      <trkpt lat="41.9708" lon="-1.37507">
        <ele>293</ele>
        <time>2010-11-06T17:55:21Z</time>
      </trkpt>
      <trkpt lat="41.96966" lon="-1.37701">
        <ele>282</ele>
        <time>2010-11-06T17:54:25Z</time>
      </trkpt>
      <trkpt lat="41.96925" lon="-1.38105">
        <ele>259</ele>
        <time>2010-11-06T17:52:51Z</time>
      </trkpt>
      <trkpt lat="41.96916" lon="-1.38116">
        <ele>259</ele>
        <time>2010-11-06T17:52:46Z</time>
      </trkpt>
      <trkpt lat="41.96775" lon="-1.38134">
        <ele>254</ele>
        <time>2010-11-06T17:52:03Z</time>
      </trkpt>
      <trkpt lat="41.9672" lon="-1.38184">
        <ele>250</ele>
        <time>2010-11-06T17:51:41Z</time>
      </trkpt>
      <trkpt lat="41.96678" lon="-1.38166">
        <ele>249</ele>
        <time>2010-11-06T17:51:28Z</time>
        <extensions>
          <visugpx:TrkExtension xmlns:visugpx="https://www.visugpx.com/editgpx/">
            <visugpx:node>1</visugpx:node>
            </visugpx:TrkExtension>
        </extensions>
      </trkpt>
    </trkseg>
  </trk>
  <trk>
    <name><![CDATA[8- 9 Extreme Bardenas]]></name>
    <extensions>
      <line xmlns="http://www.topografix.com/GPX/gpx_style/0/2">
        <color>ff00ff</color>
        <opacity>0.5</opacity>
        <width>12</width>
      </line>
    </extensions>
    <trkseg>
      <trkpt lat="42.30521" lon="-1.41679">
        <ele>394</ele>
        <time>2010-11-06T18:51:39Z</time>
      </trkpt>
      <trkpt lat="42.30223" lon="-1.41735">
        <ele>395</ele>
        <time>2010-11-06T18:53:00Z</time>
      </trkpt>
      <trkpt lat="42.30166" lon="-1.41767">
        <ele>392</ele>
        <time>2010-11-06T18:53:16Z</time>
      </trkpt>
      <trkpt lat="42.30136" lon="-1.41913">
        <ele>393</ele>
        <time>2010-11-06T18:53:46Z</time>
      </trkpt>
      <trkpt lat="42.30053" lon="-1.42153">
        <ele>392</ele>
        <time>2010-11-06T18:54:39Z</time>
      </trkpt>
      <trkpt lat="42.30001" lon="-1.42175">
        <ele>391</ele>
        <time>2010-11-06T18:54:53Z</time>
      </trkpt>
      <trkpt lat="42.29944" lon="-1.42228">
        <ele>382</ele>
        <time>2010-11-06T18:55:12Z</time>
      </trkpt>
      <trkpt lat="42.29866" lon="-1.42242">
        <ele>370</ele>
        <time>2010-11-06T18:55:33Z</time>
      </trkpt>
      <trkpt lat="42.29811" lon="-1.42233">
        <ele>371</ele>
        <time>2010-11-06T18:55:47Z</time>
      </trkpt>
      <trkpt lat="42.29478" lon="-1.42069">
        <ele>380</ele>
        <time>2010-11-06T18:57:23Z</time>
      </trkpt>
      <trkpt lat="42.2938" lon="-1.41974">
        <ele>372</ele>
        <time>2010-11-06T18:57:55Z</time>
      </trkpt>
      <trkpt lat="42.293" lon="-1.4183">
        <ele>373</ele>
        <time>2010-11-06T18:58:31Z</time>
      </trkpt>
      <trkpt lat="42.29278" lon="-1.41813">
        <ele>379</ele>
        <time>2010-11-06T18:58:38Z</time>
      </trkpt>
      <trkpt lat="42.29167" lon="-1.4183">
        <ele>373</ele>
        <time>2010-11-06T18:59:08Z</time>
      </trkpt>
      <trkpt lat="42.28946" lon="-1.41741">
        <ele>371</ele>
        <time>2010-11-06T19:00:10Z</time>
      </trkpt>
      <trkpt lat="42.28535" lon="-1.41788">
        <ele>378</ele>
        <time>2010-11-06T19:02:00Z</time>
      </trkpt>
      <trkpt lat="42.28425" lon="-1.41703">
        <ele>370</ele>
        <time>2010-11-06T19:02:33Z</time>
      </trkpt>
      <trkpt lat="42.2835" lon="-1.41696">
        <ele>366</ele>
        <time>2010-11-06T19:02:54Z</time>
      </trkpt>
      <trkpt lat="42.28264" lon="-1.4164">
        <ele>361</ele>
        <time>2010-11-06T19:03:19Z</time>
      </trkpt>
      <trkpt lat="42.28011" lon="-1.41592">
        <ele>365</ele>
        <time>2010-11-06T19:04:26Z</time>
      </trkpt>
      <trkpt lat="42.27819" lon="-1.41577">
        <ele>357</ele>
        <time>2010-11-06T19:05:17Z</time>
      </trkpt>
      <trkpt lat="42.27688" lon="-1.4153">
        <ele>358</ele>
        <time>2010-11-06T19:05:55Z</time>
      </trkpt>
      <trkpt lat="42.27387" lon="-1.41582">
        <ele>369</ele>
        <time>2010-11-06T19:07:15Z</time>
      </trkpt>
      <trkpt lat="42.27333" lon="-1.41638">
        <ele>370</ele>
        <time>2010-11-06T19:07:34Z</time>
      </trkpt>
      <trkpt lat="42.27244" lon="-1.41638">
        <ele>363</ele>
        <time>2010-11-06T19:07:58Z</time>
      </trkpt>
      <trkpt lat="42.2716" lon="-1.41693">
        <ele>355</ele>
        <time>2010-11-06T19:08:22Z</time>
      </trkpt>
      <trkpt lat="42.26995" lon="-1.41667">
        <ele>357</ele>
        <time>2010-11-06T19:09:06Z</time>
      </trkpt>
      <trkpt lat="42.26894" lon="-1.41689">
        <ele>352</ele>
        <time>2010-11-06T19:09:35Z</time>
      </trkpt>
      <trkpt lat="42.26755" lon="-1.41777">
        <ele>349</ele>
        <time>2010-11-06T19:10:15Z</time>
      </trkpt>
      <trkpt lat="42.26703" lon="-1.41858">
        <ele>349</ele>
        <time>2010-11-06T19:10:36Z</time>
      </trkpt>
      <trkpt lat="42.2664" lon="-1.41879">
        <ele>349</ele>
        <time>2010-11-06T19:10:53Z</time>
      </trkpt>
      <trkpt lat="42.26483" lon="-1.41847">
        <ele>350</ele>
        <time>2010-11-06T19:11:36Z</time>
      </trkpt>
      <trkpt lat="42.2634" lon="-1.41856">
        <ele>353</ele>
        <time>2010-11-06T19:12:14Z</time>
      </trkpt>
      <trkpt lat="42.26184" lon="-1.41897">
        <ele>356</ele>
        <time>2010-11-06T19:12:57Z</time>
      </trkpt>
      <trkpt lat="42.25744" lon="-1.41836">
        <ele>356</ele>
        <time>2010-11-06T19:14:55Z</time>
      </trkpt>
      <trkpt lat="42.25715" lon="-1.41812">
        <ele>355</ele>
        <time>2010-11-06T19:15:03Z</time>
      </trkpt>
      <trkpt lat="42.25514" lon="-1.41522">
        <ele>364</ele>
        <time>2010-11-06T19:16:23Z</time>
      </trkpt>
      <trkpt lat="42.25501" lon="-1.41524">
        <ele>363</ele>
        <time>2010-11-06T19:16:26Z</time>
      </trkpt>
      <trkpt lat="42.25372" lon="-1.4162">
        <ele>366</ele>
        <time>2010-11-06T19:17:06Z</time>
      </trkpt>
      <trkpt lat="42.25321" lon="-1.41722">
        <ele>364</ele>
        <time>2010-11-06T19:17:29Z</time>
      </trkpt>
      <trkpt lat="42.25246" lon="-1.41791">
        <ele>360</ele>
        <time>2010-11-06T19:17:53Z</time>
      </trkpt>
      <trkpt lat="42.25187" lon="-1.41895">
        <ele>355</ele>
        <time>2010-11-06T19:18:20Z</time>
      </trkpt>
      <trkpt lat="42.25178" lon="-1.41953">
        <ele>356</ele>
        <time>2010-11-06T19:18:32Z</time>
      </trkpt>
      <trkpt lat="42.25189" lon="-1.42031">
        <ele>352</ele>
        <time>2010-11-06T19:18:47Z</time>
      </trkpt>
      <trkpt lat="42.25212" lon="-1.42061">
        <ele>351</ele>
        <time>2010-11-06T19:18:55Z</time>
      </trkpt>
      <trkpt lat="42.25246" lon="-1.42268">
        <ele>350</ele>
        <time>2010-11-06T19:19:38Z</time>
      </trkpt>
      <trkpt lat="42.25241" lon="-1.42403">
        <ele>356</ele>
        <time>2010-11-06T19:20:05Z</time>
      </trkpt>
      <trkpt lat="42.25255" lon="-1.42539">
        <ele>359</ele>
        <time>2010-11-06T19:20:33Z</time>
      </trkpt>
      <trkpt lat="42.25318" lon="-1.42768">
        <ele>347</ele>
        <time>2010-11-06T19:21:20Z</time>
      </trkpt>
      <trkpt lat="42.25356" lon="-1.42847">
        <ele>349</ele>
        <time>2010-11-06T19:21:39Z</time>
      </trkpt>
      <trkpt lat="42.25364" lon="-1.42885">
        <ele>352</ele>
        <time>2010-11-06T19:21:47Z</time>
      </trkpt>
      <trkpt lat="42.25351" lon="-1.42907">
        <ele>353</ele>
        <time>2010-11-06T19:21:52Z</time>
      </trkpt>
      <trkpt lat="42.25241" lon="-1.42993">
        <ele>349</ele>
        <time>2010-11-06T19:22:27Z</time>
      </trkpt>
      <trkpt lat="42.25195" lon="-1.43096">
        <ele>354</ele>
        <time>2010-11-06T19:22:51Z</time>
      </trkpt>
      <trkpt lat="42.25146" lon="-1.4312">
        <ele>351</ele>
        <time>2010-11-06T19:23:04Z</time>
      </trkpt>
      <trkpt lat="42.25076" lon="-1.43093">
        <ele>350</ele>
        <time>2010-11-06T19:23:23Z</time>
      </trkpt>
      <trkpt lat="42.2501" lon="-1.43088">
        <ele>347</ele>
        <time>2010-11-06T19:23:42Z</time>
      </trkpt>
      <trkpt lat="42.24951" lon="-1.43109">
        <ele>344</ele>
        <time>2010-11-06T19:23:58Z</time>
      </trkpt>
      <trkpt lat="42.24734" lon="-1.43128">
        <ele>357</ele>
        <time>2010-11-06T19:24:55Z</time>
      </trkpt>
      <trkpt lat="42.24692" lon="-1.43163">
        <ele>356</ele>
        <time>2010-11-06T19:25:10Z</time>
      </trkpt>
      <trkpt lat="42.24592" lon="-1.43324">
        <ele>352</ele>
        <time>2010-11-06T19:25:51Z</time>
      </trkpt>
      <trkpt lat="42.24227" lon="-1.4353">
        <ele>339</ele>
        <time>2010-11-06T19:27:37Z</time>
      </trkpt>
      <trkpt lat="42.2415" lon="-1.43525">
        <ele>336</ele>
        <time>2010-11-06T19:27:57Z</time>
      </trkpt>
      <trkpt lat="42.24098" lon="-1.43547">
        <ele>334</ele>
        <time>2010-11-06T19:28:12Z</time>
      </trkpt>
      <trkpt lat="42.23821" lon="-1.43847">
        <ele>342</ele>
        <time>2010-11-06T19:29:47Z</time>
      </trkpt>
      <trkpt lat="42.23669" lon="-1.44044">
        <ele>350</ele>
        <time>2010-11-06T19:30:42Z</time>
      </trkpt>
      <trkpt lat="42.23562" lon="-1.44322">
        <ele>344</ele>
        <time>2010-11-06T19:31:44Z</time>
      </trkpt>
      <trkpt lat="42.23587" lon="-1.44411">
        <ele>343</ele>
        <time>2010-11-06T19:32:03Z</time>
      </trkpt>
      <trkpt lat="42.2358" lon="-1.44643">
        <ele>347</ele>
        <time>2010-11-06T19:32:50Z</time>
      </trkpt>
      <trkpt lat="42.23352" lon="-1.44868">
        <ele>336</ele>
        <time>2010-11-06T19:34:04Z</time>
      </trkpt>
      <trkpt lat="42.23316" lon="-1.44934">
        <ele>339</ele>
        <time>2010-11-06T19:34:22Z</time>
      </trkpt>
      <trkpt lat="42.23285" lon="-1.4505">
        <ele>347</ele>
        <time>2010-11-06T19:34:46Z</time>
      </trkpt>
      <trkpt lat="42.23099" lon="-1.45241">
        <ele>339</ele>
        <time>2010-11-06T19:35:48Z</time>
      </trkpt>
      <trkpt lat="42.23016" lon="-1.45361">
        <ele>345</ele>
        <time>2010-11-06T19:36:20Z</time>
      </trkpt>
      <trkpt lat="42.22983" lon="-1.4544">
        <ele>341</ele>
        <time>2010-11-06T19:36:39Z</time>
      </trkpt>
      <trkpt lat="42.22852" lon="-1.45486">
        <ele>344</ele>
        <time>2010-11-06T19:37:14Z</time>
      </trkpt>
      <trkpt lat="42.22814" lon="-1.45533">
        <ele>340</ele>
        <time>2010-11-06T19:37:28Z</time>
      </trkpt>
      <trkpt lat="42.22554" lon="-1.45561">
        <ele>316</ele>
        <time>2010-11-06T19:38:38Z</time>
      </trkpt>
      <trkpt lat="42.22391" lon="-1.45616">
        <ele>301</ele>
        <time>2010-11-06T19:39:24Z</time>
      </trkpt>
      <trkpt lat="42.22179" lon="-1.45718">
        <ele>313</ele>
        <time>2010-11-06T19:40:23Z</time>
      </trkpt>
      <trkpt lat="42.22056" lon="-1.45832">
        <ele>309</ele>
        <time>2010-11-06T19:41:03Z</time>
      </trkpt>
      <trkpt lat="42.21981" lon="-1.46141">
        <ele>299</ele>
        <time>2010-11-06T19:42:08Z</time>
      </trkpt>
      <trkpt lat="42.21908" lon="-1.46184">
        <ele>301</ele>
        <time>2010-11-06T19:42:29Z</time>
      </trkpt>
      <trkpt lat="42.21793" lon="-1.46359">
        <ele>291</ele>
        <time>2010-11-06T19:43:17Z</time>
      </trkpt>
      <trkpt lat="42.21691" lon="-1.46165">
        <ele>296</ele>
        <time>2010-11-06T19:44:04Z</time>
      </trkpt>
      <trkpt lat="42.21577" lon="-1.46019">
        <ele>299</ele>
        <time>2010-11-06T19:44:46Z</time>
      </trkpt>
      <trkpt lat="42.21447" lon="-1.4579">
        <ele>299</ele>
        <time>2010-11-06T19:45:43Z</time>
      </trkpt>
      <trkpt lat="42.21358" lon="-1.45732">
        <ele>303</ele>
        <time>2010-11-06T19:46:09Z</time>
      </trkpt>
      <trkpt lat="42.20375" lon="-1.44423">
        <ele>311</ele>
        <time>2010-11-06T19:52:18Z</time>
      </trkpt>
      <trkpt lat="42.1987" lon="-1.43716">
        <ele>315</ele>
        <time>2010-11-06T19:55:32Z</time>
      </trkpt>
      <trkpt lat="42.19847" lon="-1.43382">
        <ele>330</ele>
        <time>2010-11-06T19:56:39Z</time>
      </trkpt>
      <trkpt lat="42.19738" lon="-1.43024">
        <ele>345</ele>
        <time>2010-11-06T19:57:56Z</time>
      </trkpt>
      <trkpt lat="42.19706" lon="-1.42966">
        <ele>346</ele>
        <time>2010-11-06T19:58:11Z</time>
      </trkpt>
      <trkpt lat="42.19674" lon="-1.42794">
        <ele>340</ele>
        <time>2010-11-06T19:58:46Z</time>
      </trkpt>
      <trkpt lat="42.19593" lon="-1.4203">
        <ele>346</ele>
        <time>2010-11-06T20:01:19Z</time>
      </trkpt>
      <trkpt lat="42.19393" lon="-1.41351">
        <ele>341</ele>
        <time>2010-11-06T20:03:43Z</time>
      </trkpt>
      <trkpt lat="42.19377" lon="-1.41327">
        <ele>341</ele>
        <time>2010-11-06T20:03:49Z</time>
      </trkpt>
      <trkpt lat="42.1904" lon="-1.41177">
        <ele>336</ele>
        <time>2010-11-06T20:05:25Z</time>
      </trkpt>
      <trkpt lat="42.18753" lon="-1.41191">
        <ele>322</ele>
        <time>2010-11-06T20:06:41Z</time>
      </trkpt>
      <trkpt lat="42.18474" lon="-1.41029">
        <ele>318</ele>
        <time>2010-11-06T20:08:02Z</time>
      </trkpt>
      <trkpt lat="42.18343" lon="-1.40977">
        <ele>325</ele>
        <time>2010-11-06T20:08:39Z</time>
      </trkpt>
      <trkpt lat="42.1826" lon="-1.40849">
        <ele>327</ele>
        <time>2010-11-06T20:09:12Z</time>
      </trkpt>
      <trkpt lat="42.18103" lon="-1.40728">
        <ele>330</ele>
        <time>2010-11-06T20:10:01Z</time>
      </trkpt>
      <trkpt lat="42.17995" lon="-1.4073">
        <ele>332</ele>
        <time>2010-11-06T20:10:30Z</time>
      </trkpt>
      <trkpt lat="42.17872" lon="-1.40865">
        <ele>334</ele>
        <time>2010-11-06T20:11:12Z</time>
      </trkpt>
      <trkpt lat="42.17791" lon="-1.41003">
        <ele>332</ele>
        <time>2010-11-06T20:11:47Z</time>
      </trkpt>
      <trkpt lat="42.17699" lon="-1.41292">
        <ele>329</ele>
        <time>2010-11-06T20:12:50Z</time>
      </trkpt>
      <trkpt lat="42.17143" lon="-1.41977">
        <ele>331</ele>
        <time>2010-11-06T20:16:11Z</time>
      </trkpt>
      <trkpt lat="42.17" lon="-1.42271">
        <ele>319</ele>
        <time>2010-11-06T20:17:19Z</time>
      </trkpt>
      <trkpt lat="42.1689" lon="-1.42405">
        <ele>305</ele>
        <time>2010-11-06T20:17:59Z</time>
      </trkpt>
      <trkpt lat="42.16837" lon="-1.42443">
        <ele>301</ele>
        <time>2010-11-06T20:18:15Z</time>
      </trkpt>
      <trkpt lat="42.16699" lon="-1.42649">
        <ele>312</ele>
        <time>2010-11-06T20:19:11Z</time>
      </trkpt>
      <trkpt lat="42.1633" lon="-1.43069">
        <ele>315</ele>
        <time>2010-11-06T20:21:20Z</time>
      </trkpt>
      <trkpt lat="42.16283" lon="-1.43245">
        <ele>310</ele>
        <time>2010-11-06T20:21:58Z</time>
      </trkpt>
      <trkpt lat="42.16251" lon="-1.43295">
        <ele>306</ele>
        <time>2010-11-06T20:22:11Z</time>
      </trkpt>
      <trkpt lat="42.16211" lon="-1.43287">
        <ele>307</ele>
        <time>2010-11-06T20:22:20Z</time>
      </trkpt>
      <trkpt lat="42.16182" lon="-1.43252">
        <ele>309</ele>
        <time>2010-11-06T20:22:31Z</time>
      </trkpt>
      <trkpt lat="42.16134" lon="-1.43138">
        <ele>303</ele>
        <time>2010-11-06T20:22:58Z</time>
      </trkpt>
      <trkpt lat="42.16074" lon="-1.43081">
        <ele>299</ele>
        <time>2010-11-06T20:23:17Z</time>
      </trkpt>
      <trkpt lat="42.16001" lon="-1.43036">
        <ele>312</ele>
        <time>2010-11-06T20:23:38Z</time>
      </trkpt>
      <trkpt lat="42.15825" lon="-1.42873">
        <ele>306</ele>
        <time>2010-11-06T20:24:36Z</time>
      </trkpt>
      <trkpt lat="42.15726" lon="-1.42847">
        <ele>307</ele>
        <time>2010-11-06T20:25:03Z</time>
      </trkpt>
      <trkpt lat="42.15549" lon="-1.42655">
        <ele>313</ele>
        <time>2010-11-06T20:26:03Z</time>
      </trkpt>
      <trkpt lat="42.15461" lon="-1.42684">
        <ele>318</ele>
        <time>2010-11-06T20:26:29Z</time>
      </trkpt>
      <trkpt lat="42.15345" lon="-1.42584">
        <ele>326</ele>
        <time>2010-11-06T20:27:05Z</time>
      </trkpt>
      <trkpt lat="42.152" lon="-1.42527">
        <ele>327</ele>
        <time>2010-11-06T20:27:45Z</time>
      </trkpt>
      <trkpt lat="42.15111" lon="-1.42552">
        <ele>332</ele>
        <time>2010-11-06T20:28:10Z</time>
      </trkpt>
      <trkpt lat="42.14986" lon="-1.42618">
        <ele>337</ele>
        <time>2010-11-06T20:28:46Z</time>
      </trkpt>
      <trkpt lat="42.14914" lon="-1.42588">
        <ele>338</ele>
        <time>2010-11-06T20:29:06Z</time>
      </trkpt>
      <trkpt lat="42.14814" lon="-1.42493">
        <ele>351</ele>
        <time>2010-11-06T20:29:40Z</time>
      </trkpt>
      <trkpt lat="42.14782" lon="-1.42542">
        <ele>354</ele>
        <time>2010-11-06T20:29:54Z</time>
      </trkpt>
      <trkpt lat="42.14754" lon="-1.42552">
        <ele>356</ele>
        <time>2010-11-06T20:30:00Z</time>
      </trkpt>
      <trkpt lat="42.1466" lon="-1.42544">
        <ele>359</ele>
        <time>2010-11-06T20:30:26Z</time>
      </trkpt>
      <trkpt lat="42.14618" lon="-1.42558">
        <ele>360</ele>
        <time>2010-11-06T20:30:37Z</time>
      </trkpt>
      <trkpt lat="42.14564" lon="-1.4254">
        <ele>362</ele>
        <time>2010-11-06T20:30:53Z</time>
      </trkpt>
      <trkpt lat="42.14514" lon="-1.42446">
        <ele>368</ele>
        <time>2010-11-06T20:31:15Z</time>
      </trkpt>
      <trkpt lat="42.14506" lon="-1.42265">
        <ele>378</ele>
        <time>2010-11-06T20:31:52Z</time>
      </trkpt>
      <trkpt lat="42.14403" lon="-1.42153">
        <ele>390</ele>
        <time>2010-11-06T20:32:28Z</time>
      </trkpt>
      <trkpt lat="42.14392" lon="-1.4211">
        <ele>390</ele>
        <time>2010-11-06T20:32:36Z</time>
      </trkpt>
      <trkpt lat="42.14364" lon="-1.42085">
        <ele>391</ele>
        <time>2010-11-06T20:32:46Z</time>
      </trkpt>
      <trkpt lat="42.14242" lon="-1.42068">
        <ele>413</ele>
        <time>2010-11-06T20:33:19Z</time>
      </trkpt>
      <trkpt lat="42.1418" lon="-1.42109">
        <ele>428</ele>
        <time>2010-11-06T20:33:37Z</time>
      </trkpt>
      <trkpt lat="42.14148" lon="-1.42096">
        <ele>419</ele>
        <time>2010-11-06T20:33:46Z</time>
      </trkpt>
      <trkpt lat="42.14105" lon="-1.42115">
        <ele>423</ele>
        <time>2010-11-06T20:33:59Z</time>
      </trkpt>
      <trkpt lat="42.14077" lon="-1.42146">
        <ele>428</ele>
        <time>2010-11-06T20:34:09Z</time>
      </trkpt>
      <trkpt lat="42.13991" lon="-1.42185">
        <ele>445</ele>
        <time>2010-11-06T20:34:33Z</time>
      </trkpt>
      <trkpt lat="42.13837" lon="-1.42135">
        <ele>427</ele>
        <time>2010-11-06T20:35:16Z</time>
      </trkpt>
      <trkpt lat="42.13799" lon="-1.42105">
        <ele>430</ele>
        <time>2010-11-06T20:35:27Z</time>
      </trkpt>
      <trkpt lat="42.13714" lon="-1.42116">
        <ele>432</ele>
        <time>2010-11-06T20:35:51Z</time>
      </trkpt>
      <trkpt lat="42.13673" lon="-1.4214">
        <ele>428</ele>
        <time>2010-11-06T20:36:02Z</time>
      </trkpt>
      <trkpt lat="42.13635" lon="-1.4226">
        <ele>430</ele>
        <time>2010-11-06T20:36:29Z</time>
      </trkpt>
      <trkpt lat="42.13504" lon="-1.42333">
        <ele>436</ele>
        <time>2010-11-06T20:37:07Z</time>
      </trkpt>
      <trkpt lat="42.13418" lon="-1.42314">
        <ele>440</ele>
        <time>2010-11-06T20:37:29Z</time>
      </trkpt>
      <trkpt lat="42.13405" lon="-1.42325">
        <ele>440</ele>
        <time>2010-11-06T20:37:34Z</time>
      </trkpt>
      <trkpt lat="42.13407" lon="-1.42339">
        <ele>440</ele>
        <time>2010-11-06T20:37:37Z</time>
      </trkpt>
      <trkpt lat="42.13455" lon="-1.42352">
        <ele>439</ele>
        <time>2010-11-06T20:37:50Z</time>
      </trkpt>
      <trkpt lat="42.13479" lon="-1.42392">
        <ele>439</ele>
        <time>2010-11-06T20:38:00Z</time>
      </trkpt>
      <trkpt lat="42.13492" lon="-1.42474">
        <ele>444</ele>
        <time>2010-11-06T20:38:17Z</time>
      </trkpt>
      <trkpt lat="42.1346" lon="-1.42571">
        <ele>448</ele>
        <time>2010-11-06T20:38:38Z</time>
      </trkpt>
      <trkpt lat="42.13335" lon="-1.42623">
        <ele>456</ele>
        <time>2010-11-06T20:39:13Z</time>
      </trkpt>
      <trkpt lat="42.13224" lon="-1.42927">
        <ele>448</ele>
        <time>2010-11-06T20:40:21Z</time>
      </trkpt>
      <trkpt lat="42.13179" lon="-1.42988">
        <ele>445</ele>
        <time>2010-11-06T20:40:37Z</time>
      </trkpt>
      <trkpt lat="42.13135" lon="-1.43008">
        <ele>447</ele>
        <time>2010-11-06T20:40:50Z</time>
      </trkpt>
      <trkpt lat="42.13081" lon="-1.43063">
        <ele>450</ele>
        <time>2010-11-06T20:41:07Z</time>
      </trkpt>
      <trkpt lat="42.13024" lon="-1.4315">
        <ele>444</ele>
        <time>2010-11-06T20:41:30Z</time>
      </trkpt>
      <trkpt lat="42.12992" lon="-1.43247">
        <ele>447</ele>
        <time>2010-11-06T20:41:52Z</time>
      </trkpt>
      <trkpt lat="42.12901" lon="-1.43341">
        <ele>436</ele>
        <time>2010-11-06T20:42:22Z</time>
      </trkpt>
      <trkpt lat="42.12807" lon="-1.4347">
        <ele>421</ele>
        <time>2010-11-06T20:42:59Z</time>
      </trkpt>
      <trkpt lat="42.12786" lon="-1.43524">
        <ele>419</ele>
        <time>2010-11-06T20:43:11Z</time>
      </trkpt>
      <trkpt lat="42.12773" lon="-1.43525">
        <ele>419</ele>
        <time>2010-11-06T20:43:15Z</time>
      </trkpt>
      <trkpt lat="42.12673" lon="-1.43437">
        <ele>426</ele>
        <time>2010-11-06T20:43:47Z</time>
      </trkpt>
      <trkpt lat="42.12625" lon="-1.43418">
        <ele>431</ele>
        <time>2010-11-06T20:43:59Z</time>
      </trkpt>
      <trkpt lat="42.12545" lon="-1.43265">
        <ele>424</ele>
        <time>2010-11-06T20:44:38Z</time>
      </trkpt>
      <trkpt lat="42.12463" lon="-1.43158">
        <ele>426</ele>
        <time>2010-11-06T20:45:08Z</time>
      </trkpt>
      <trkpt lat="42.12417" lon="-1.43138">
        <ele>426</ele>
        <time>2010-11-06T20:45:20Z</time>
      </trkpt>
      <trkpt lat="42.1239" lon="-1.43104">
        <ele>427</ele>
        <time>2010-11-06T20:45:30Z</time>
      </trkpt>
      <trkpt lat="42.12309" lon="-1.43109">
        <ele>426</ele>
        <time>2010-11-06T20:45:52Z</time>
      </trkpt>
      <trkpt lat="42.12263" lon="-1.43028">
        <ele>422</ele>
        <time>2010-11-06T20:46:13Z</time>
      </trkpt>
      <trkpt lat="42.12177" lon="-1.42958">
        <ele>428</ele>
        <time>2010-11-06T20:46:40Z</time>
      </trkpt>
      <trkpt lat="42.12154" lon="-1.42815">
        <ele>426</ele>
        <time>2010-11-06T20:47:10Z</time>
      </trkpt>
      <trkpt lat="42.12109" lon="-1.42704">
        <ele>421</ele>
        <time>2010-11-06T20:47:34Z</time>
      </trkpt>
      <trkpt lat="42.12075" lon="-1.42662">
        <ele>420</ele>
        <time>2010-11-06T20:47:47Z</time>
      </trkpt>
      <trkpt lat="42.12043" lon="-1.4263">
        <ele>419</ele>
        <time>2010-11-06T20:47:58Z</time>
      </trkpt>
      <trkpt lat="42.11899" lon="-1.426">
        <ele>422</ele>
        <time>2010-11-06T20:48:36Z</time>
      </trkpt>
      <trkpt lat="42.11893" lon="-1.42585">
        <ele>422</ele>
        <time>2010-11-06T20:48:39Z</time>
      </trkpt>
      <trkpt lat="42.1195" lon="-1.42401">
        <ele>423</ele>
        <time>2010-11-06T20:49:21Z</time>
      </trkpt>
      <trkpt lat="42.11921" lon="-1.42227">
        <ele>418</ele>
        <time>2010-11-06T20:49:56Z</time>
      </trkpt>
      <trkpt lat="42.11904" lon="-1.41933">
        <ele>416</ele>
        <time>2010-11-06T20:50:55Z</time>
      </trkpt>
      <trkpt lat="42.11912" lon="-1.41798">
        <ele>420</ele>
        <time>2010-11-06T20:51:22Z</time>
      </trkpt>
      <trkpt lat="42.11945" lon="-1.41752">
        <ele>423</ele>
        <time>2010-11-06T20:51:35Z</time>
      </trkpt>
      <trkpt lat="42.11944" lon="-1.41549">
        <ele>437</ele>
        <time>2010-11-06T20:52:16Z</time>
      </trkpt>
      <trkpt lat="42.12001" lon="-1.41499">
        <ele>436</ele>
        <time>2010-11-06T20:52:34Z</time>
      </trkpt>
      <trkpt lat="42.12151" lon="-1.41494">
        <ele>440</ele>
        <time>2010-11-06T20:53:15Z</time>
      </trkpt>
      <trkpt lat="42.12295" lon="-1.41423">
        <ele>433</ele>
        <time>2010-11-06T20:53:55Z</time>
      </trkpt>
      <trkpt lat="42.12334" lon="-1.41422">
        <ele>433</ele>
        <time>2010-11-06T20:54:06Z</time>
      </trkpt>
      <trkpt lat="42.12367" lon="-1.41405">
        <ele>434</ele>
        <time>2010-11-06T20:54:15Z</time>
      </trkpt>
      <trkpt lat="42.12371" lon="-1.41374">
        <ele>429</ele>
        <time>2010-11-06T20:54:22Z</time>
      </trkpt>
      <trkpt lat="42.12326" lon="-1.4124">
        <ele>427</ele>
        <time>2010-11-06T20:54:52Z</time>
      </trkpt>
      <trkpt lat="42.12259" lon="-1.41212">
        <ele>428</ele>
        <time>2010-11-06T20:55:10Z</time>
      </trkpt>
      <trkpt lat="42.12241" lon="-1.41145">
        <ele>433</ele>
        <time>2010-11-06T20:55:24Z</time>
      </trkpt>
      <trkpt lat="42.12239" lon="-1.41063">
        <ele>438</ele>
        <time>2010-11-06T20:55:40Z</time>
      </trkpt>
      <trkpt lat="42.12169" lon="-1.4102">
        <ele>438</ele>
        <time>2010-11-06T20:56:00Z</time>
      </trkpt>
      <trkpt lat="42.12077" lon="-1.41013">
        <ele>433</ele>
        <time>2010-11-06T20:56:26Z</time>
      </trkpt>
      <trkpt lat="42.12071" lon="-1.40971">
        <ele>434</ele>
        <time>2010-11-06T20:56:34Z</time>
      </trkpt>
      <trkpt lat="42.12115" lon="-1.40863">
        <ele>433</ele>
        <time>2010-11-06T20:56:59Z</time>
      </trkpt>
      <trkpt lat="42.12153" lon="-1.40855">
        <ele>440</ele>
        <time>2010-11-06T20:57:09Z</time>
      </trkpt>
      <trkpt lat="42.12177" lon="-1.40821">
        <ele>439</ele>
        <time>2010-11-06T20:57:18Z</time>
      </trkpt>
      <trkpt lat="42.12298" lon="-1.40728">
        <ele>457</ele>
        <time>2010-11-06T20:57:57Z</time>
      </trkpt>
      <trkpt lat="42.12368" lon="-1.40694">
        <ele>456</ele>
        <time>2010-11-06T20:58:16Z</time>
      </trkpt>
      <trkpt lat="42.12415" lon="-1.40637">
        <ele>453</ele>
        <time>2010-11-06T20:58:33Z</time>
      </trkpt>
      <trkpt lat="42.12433" lon="-1.4056">
        <ele>454</ele>
        <time>2010-11-06T20:58:49Z</time>
      </trkpt>
      <trkpt lat="42.12263" lon="-1.40485">
        <ele>443</ele>
        <time>2010-11-06T20:59:39Z</time>
      </trkpt>
      <trkpt lat="42.12071" lon="-1.40365">
        <ele>446</ele>
        <time>2010-11-06T21:00:34Z</time>
      </trkpt>
      <trkpt lat="42.12046" lon="-1.40366">
        <ele>444</ele>
        <time>2010-11-06T21:00:42Z</time>
      </trkpt>
      <trkpt lat="42.11987" lon="-1.40328">
        <ele>441</ele>
        <time>2010-11-06T21:00:58Z</time>
      </trkpt>
      <trkpt lat="42.11973" lon="-1.40299">
        <ele>439</ele>
        <time>2010-11-06T21:01:06Z</time>
      </trkpt>
      <trkpt lat="42.11908" lon="-1.40273">
        <ele>431</ele>
        <time>2010-11-06T21:01:24Z</time>
      </trkpt>
      <trkpt lat="42.11869" lon="-1.40223">
        <ele>432</ele>
        <time>2010-11-06T21:01:39Z</time>
      </trkpt>
      <trkpt lat="42.11864" lon="-1.40188">
        <ele>432</ele>
        <time>2010-11-06T21:01:46Z</time>
      </trkpt>
      <trkpt lat="42.11786" lon="-1.4019">
        <ele>434</ele>
        <time>2010-11-06T21:02:07Z</time>
      </trkpt>
      <trkpt lat="42.11771" lon="-1.40179">
        <ele>430</ele>
        <time>2010-11-06T21:02:11Z</time>
      </trkpt>
      <trkpt lat="42.11742" lon="-1.40145">
        <ele>428</ele>
        <time>2010-11-06T21:02:21Z</time>
      </trkpt>
      <trkpt lat="42.11713" lon="-1.4004">
        <ele>422</ele>
        <time>2010-11-06T21:02:43Z</time>
      </trkpt>
      <trkpt lat="42.11658" lon="-1.39948">
        <ele>423</ele>
        <time>2010-11-06T21:03:07Z</time>
      </trkpt>
      <trkpt lat="42.11656" lon="-1.39911">
        <ele>423</ele>
        <time>2010-11-06T21:03:15Z</time>
      </trkpt>
      <trkpt lat="42.11603" lon="-1.3987">
        <ele>424</ele>
        <time>2010-11-06T21:03:31Z</time>
      </trkpt>
      <trkpt lat="42.11596" lon="-1.39838">
        <ele>424</ele>
        <time>2010-11-06T21:03:37Z</time>
      </trkpt>
      <trkpt lat="42.11549" lon="-1.39782">
        <ele>420</ele>
        <time>2010-11-06T21:03:55Z</time>
      </trkpt>
      <trkpt lat="42.1131" lon="-1.39565">
        <ele>412</ele>
        <time>2010-11-06T21:05:11Z</time>
      </trkpt>
      <trkpt lat="42.11195" lon="-1.39477">
        <ele>413</ele>
        <time>2010-11-06T21:05:48Z</time>
      </trkpt>
      <trkpt lat="42.11146" lon="-1.39464">
        <ele>414</ele>
        <time>2010-11-06T21:06:01Z</time>
      </trkpt>
      <trkpt lat="42.11161" lon="-1.39365">
        <ele>417</ele>
        <time>2010-11-06T21:06:21Z</time>
      </trkpt>
      <trkpt lat="42.11044" lon="-1.39292">
        <ele>410</ele>
        <time>2010-11-06T21:06:56Z</time>
      </trkpt>
      <trkpt lat="42.10634" lon="-1.38694">
        <ele>412</ele>
        <time>2010-11-06T21:09:37Z</time>
      </trkpt>
      <trkpt lat="42.10562" lon="-1.38467">
        <ele>417</ele>
        <time>2010-11-06T21:10:27Z</time>
      </trkpt>
      <trkpt lat="42.10557" lon="-1.38224">
        <ele>434</ele>
        <time>2010-11-06T21:11:16Z</time>
      </trkpt>
      <trkpt lat="42.10633" lon="-1.38182">
        <ele>439</ele>
        <time>2010-11-06T21:11:38Z</time>
      </trkpt>
      <trkpt lat="42.10719" lon="-1.38094">
        <ele>450</ele>
        <time>2010-11-06T21:12:07Z</time>
      </trkpt>
      <trkpt lat="42.10784" lon="-1.38062">
        <ele>454</ele>
        <time>2010-11-06T21:12:24Z</time>
      </trkpt>
      <trkpt lat="42.10827" lon="-1.38015">
        <ele>458</ele>
        <time>2010-11-06T21:12:39Z</time>
      </trkpt>
      <trkpt lat="42.10883" lon="-1.38">
        <ele>459</ele>
        <time>2010-11-06T21:12:55Z</time>
      </trkpt>
      <trkpt lat="42.10936" lon="-1.37911">
        <ele>465</ele>
        <time>2010-11-06T21:13:17Z</time>
      </trkpt>
      <trkpt lat="42.10979" lon="-1.37892">
        <ele>469</ele>
        <time>2010-11-06T21:13:30Z</time>
      </trkpt>
      <trkpt lat="42.11017" lon="-1.37896">
        <ele>467</ele>
        <time>2010-11-06T21:13:39Z</time>
      </trkpt>
      <trkpt lat="42.11127" lon="-1.37665">
        <ele>484</ele>
        <time>2010-11-06T21:14:36Z</time>
      </trkpt>
      <trkpt lat="42.11141" lon="-1.37593">
        <ele>502</ele>
        <time>2010-11-06T21:14:51Z</time>
      </trkpt>
      <trkpt lat="42.11161" lon="-1.37563">
        <ele>495</ele>
        <time>2010-11-06T21:14:59Z</time>
      </trkpt>
      <trkpt lat="42.11192" lon="-1.37547">
        <ele>485</ele>
        <time>2010-11-06T21:15:08Z</time>
      </trkpt>
      <trkpt lat="42.11196" lon="-1.37515">
        <ele>487</ele>
        <time>2010-11-06T21:15:15Z</time>
      </trkpt>
      <trkpt lat="42.1117" lon="-1.37421">
        <ele>495</ele>
        <time>2010-11-06T21:15:34Z</time>
      </trkpt>
      <trkpt lat="42.11099" lon="-1.37341">
        <ele>504</ele>
        <time>2010-11-06T21:15:59Z</time>
      </trkpt>
      <trkpt lat="42.11008" lon="-1.37309">
        <ele>526</ele>
        <time>2010-11-06T21:16:25Z</time>
      </trkpt>
      <trkpt lat="42.10979" lon="-1.37282">
        <ele>526</ele>
        <time>2010-11-06T21:16:34Z</time>
      </trkpt>
      <trkpt lat="42.10905" lon="-1.37124">
        <ele>532</ele>
        <time>2010-11-06T21:17:12Z</time>
      </trkpt>
      <trkpt lat="42.10835" lon="-1.371">
        <ele>532</ele>
        <time>2010-11-06T21:17:32Z</time>
      </trkpt>
      <trkpt lat="42.10814" lon="-1.37075">
        <ele>532</ele>
        <time>2010-11-06T21:17:38Z</time>
      </trkpt>
      <trkpt lat="42.1076" lon="-1.3708">
        <ele>532</ele>
        <time>2010-11-06T21:17:54Z</time>
      </trkpt>
      <trkpt lat="42.10728" lon="-1.37059">
        <ele>537</ele>
        <time>2010-11-06T21:18:03Z</time>
      </trkpt>
      <trkpt lat="42.10694" lon="-1.3707">
        <ele>537</ele>
        <time>2010-11-06T21:18:13Z</time>
      </trkpt>
      <trkpt lat="42.10661" lon="-1.37107">
        <ele>535</ele>
        <time>2010-11-06T21:18:24Z</time>
      </trkpt>
      <trkpt lat="42.10609" lon="-1.37112">
        <ele>535</ele>
        <time>2010-11-06T21:18:38Z</time>
      </trkpt>
      <trkpt lat="42.10559" lon="-1.371">
        <ele>531</ele>
        <time>2010-11-06T21:18:51Z</time>
      </trkpt>
      <trkpt lat="42.10541" lon="-1.37071">
        <ele>531</ele>
        <time>2010-11-06T21:18:59Z</time>
      </trkpt>
      <trkpt lat="42.10516" lon="-1.36983">
        <ele>542</ele>
        <time>2010-11-06T21:19:18Z</time>
      </trkpt>
      <trkpt lat="42.10554" lon="-1.36889">
        <ele>547</ele>
        <time>2010-11-06T21:19:39Z</time>
      </trkpt>
      <trkpt lat="42.10644" lon="-1.36816">
        <ele>551</ele>
        <time>2010-11-06T21:20:09Z</time>
      </trkpt>
      <trkpt lat="42.10732" lon="-1.36521">
        <ele>542</ele>
        <time>2010-11-06T21:21:11Z</time>
      </trkpt>
      <trkpt lat="42.10538" lon="-1.36373">
        <ele>536</ele>
        <time>2010-11-06T21:22:12Z</time>
      </trkpt>
      <trkpt lat="42.10413" lon="-1.36246">
        <ele>531</ele>
        <time>2010-11-06T21:22:53Z</time>
      </trkpt>
      <trkpt lat="42.09756" lon="-1.36167">
        <ele>537</ele>
        <time>2010-11-06T21:25:50Z</time>
      </trkpt>
      <trkpt lat="42.09099" lon="-1.36433">
        <ele>528</ele>
        <time>2010-11-06T21:28:53Z</time>
      </trkpt>
      <trkpt lat="42.08997" lon="-1.36358">
        <ele>525</ele>
        <time>2010-11-06T21:29:23Z</time>
      </trkpt>
      <trkpt lat="42.08602" lon="-1.35955">
        <ele>518</ele>
        <time>2010-11-06T21:31:35Z</time>
      </trkpt>
      <trkpt lat="42.07848" lon="-1.35499">
        <ele>520</ele>
        <time>2010-11-06T21:35:15Z</time>
      </trkpt>
      <trkpt lat="42.07607" lon="-1.35388">
        <ele>527</ele>
        <time>2010-11-06T21:36:23Z</time>
      </trkpt>
      <trkpt lat="42.07587" lon="-1.35356">
        <ele>529</ele>
        <time>2010-11-06T21:36:33Z</time>
      </trkpt>
      <trkpt lat="42.07588" lon="-1.35282">
        <ele>533</ele>
        <time>2010-11-06T21:36:47Z</time>
      </trkpt>
      <trkpt lat="42.0757" lon="-1.35268">
        <ele>533</ele>
        <time>2010-11-06T21:36:52Z</time>
      </trkpt>
      <trkpt lat="42.07532" lon="-1.35274">
        <ele>536</ele>
        <time>2010-11-06T21:37:03Z</time>
      </trkpt>
      <trkpt lat="42.07498" lon="-1.35253">
        <ele>541</ele>
        <time>2010-11-06T21:37:13Z</time>
      </trkpt>
      <trkpt lat="42.07466" lon="-1.35198">
        <ele>548</ele>
        <time>2010-11-06T21:37:27Z</time>
      </trkpt>
      <trkpt lat="42.07442" lon="-1.35121">
        <ele>556</ele>
        <time>2010-11-06T21:37:43Z</time>
      </trkpt>
      <trkpt lat="42.07449" lon="-1.35082">
        <ele>555</ele>
        <time>2010-11-06T21:37:51Z</time>
      </trkpt>
      <trkpt lat="42.07404" lon="-1.34984">
        <ele>554</ele>
        <time>2010-11-06T21:38:15Z</time>
      </trkpt>
      <trkpt lat="42.07218" lon="-1.34827">
        <ele>593</ele>
        <time>2010-11-06T21:39:14Z</time>
      </trkpt>
      <trkpt lat="42.07164" lon="-1.34571">
        <ele>604</ele>
        <time>2010-11-06T21:40:06Z</time>
      </trkpt>
      <trkpt lat="42.07146" lon="-1.34279">
        <ele>628</ele>
        <time>2010-11-06T21:41:05Z</time>
      </trkpt>
      <trkpt lat="42.07169" lon="-1.34051">
        <ele>637</ele>
        <time>2010-11-06T21:41:50Z</time>
      </trkpt>
      <trkpt lat="42.07196" lon="-1.33972">
        <ele>637</ele>
        <time>2010-11-06T21:42:09Z</time>
      </trkpt>
      <trkpt lat="42.07206" lon="-1.33787">
        <ele>639</ele>
        <time>2010-11-06T21:42:46Z</time>
      </trkpt>
      <trkpt lat="42.07258" lon="-1.33608">
        <ele>638</ele>
        <time>2010-11-06T21:43:24Z</time>
      </trkpt>
      <trkpt lat="42.07265" lon="-1.33436">
        <ele>633</ele>
        <time>2010-11-06T21:43:57Z</time>
      </trkpt>
      <trkpt lat="42.07294" lon="-1.33252">
        <ele>632</ele>
        <time>2010-11-06T21:44:35Z</time>
      </trkpt>
      <trkpt lat="42.07275" lon="-1.33137">
        <ele>633</ele>
        <time>2010-11-06T21:44:58Z</time>
      </trkpt>
      <trkpt lat="42.0727" lon="-1.32874">
        <ele>640</ele>
        <time>2010-11-06T21:45:50Z</time>
      </trkpt>
      <trkpt lat="42.07278" lon="-1.32711">
        <ele>640</ele>
        <time>2010-11-06T21:46:24Z</time>
      </trkpt>
      <trkpt lat="42.07309" lon="-1.32508">
        <ele>637</ele>
        <time>2010-11-06T21:47:05Z</time>
      </trkpt>
      <trkpt lat="42.07282" lon="-1.32311">
        <ele>633</ele>
        <time>2010-11-06T21:47:45Z</time>
      </trkpt>
      <trkpt lat="42.07226" lon="-1.3222">
        <ele>633</ele>
        <time>2010-11-06T21:48:07Z</time>
      </trkpt>
      <trkpt lat="42.07198" lon="-1.32045">
        <ele>635</ele>
        <time>2010-11-06T21:48:44Z</time>
      </trkpt>
      <trkpt lat="42.07219" lon="-1.31669">
        <ele>635</ele>
        <time>2010-11-06T21:49:59Z</time>
      </trkpt>
      <trkpt lat="42.07289" lon="-1.31454">
        <ele>636</ele>
        <time>2010-11-06T21:50:45Z</time>
      </trkpt>
      <trkpt lat="42.07301" lon="-1.31357">
        <ele>633</ele>
        <time>2010-11-06T21:51:04Z</time>
      </trkpt>
      <trkpt lat="42.07252" lon="-1.311">
        <ele>642</ele>
        <time>2010-11-06T21:51:58Z</time>
      </trkpt>
      <trkpt lat="42.0722" lon="-1.31052">
        <ele>634</ele>
        <time>2010-11-06T21:52:11Z</time>
      </trkpt>
      <trkpt lat="42.06942" lon="-1.31273">
        <ele>623</ele>
        <time>2010-11-06T21:53:37Z</time>
      </trkpt>
      <trkpt lat="42.06662" lon="-1.31251">
        <ele>624</ele>
        <time>2010-11-06T21:54:51Z</time>
      </trkpt>
      <trkpt lat="42.06591" lon="-1.31208">
        <ele>625</ele>
        <time>2010-11-06T21:55:12Z</time>
      </trkpt>
      <trkpt lat="42.06567" lon="-1.31208">
        <ele>627</ele>
        <time>2010-11-06T21:55:20Z</time>
      </trkpt>
      <trkpt lat="42.06514" lon="-1.3127">
        <ele>628</ele>
        <time>2010-11-06T21:55:38Z</time>
      </trkpt>
      <trkpt lat="42.06414" lon="-1.31213">
        <ele>619</ele>
        <time>2010-11-06T21:56:08Z</time>
      </trkpt>
      <trkpt lat="42.06336" lon="-1.31215">
        <ele>626</ele>
        <time>2010-11-06T21:56:29Z</time>
      </trkpt>
      <trkpt lat="42.06241" lon="-1.31117">
        <ele>626</ele>
        <time>2010-11-06T21:57:00Z</time>
      </trkpt>
      <trkpt lat="42.06215" lon="-1.3099">
        <ele>627</ele>
        <time>2010-11-06T21:57:26Z</time>
      </trkpt>
      <trkpt lat="42.06082" lon="-1.30843">
        <ele>610</ele>
        <time>2010-11-06T21:58:12Z</time>
      </trkpt>
      <trkpt lat="42.06012" lon="-1.30806">
        <ele>614</ele>
        <time>2010-11-06T21:58:33Z</time>
      </trkpt>
      <trkpt lat="42.05899" lon="-1.30695">
        <ele>608</ele>
        <time>2010-11-06T21:59:11Z</time>
      </trkpt>
      <trkpt lat="42.05863" lon="-1.30722">
        <ele>613</ele>
        <time>2010-11-06T21:59:22Z</time>
      </trkpt>
      <trkpt lat="42.05835" lon="-1.3077">
        <ele>620</ele>
        <time>2010-11-06T21:59:33Z</time>
      </trkpt>
      <trkpt lat="42.0574" lon="-1.30824">
        <ele>621</ele>
        <time>2010-11-06T22:00:00Z</time>
      </trkpt>
      <trkpt lat="42.05713" lon="-1.30806">
        <ele>618</ele>
        <time>2010-11-06T22:00:10Z</time>
      </trkpt>
      <trkpt lat="42.05673" lon="-1.3069">
        <ele>613</ele>
        <time>2010-11-06T22:00:34Z</time>
      </trkpt>
      <trkpt lat="42.05636" lon="-1.30664">
        <ele>611</ele>
        <time>2010-11-06T22:00:46Z</time>
      </trkpt>
      <trkpt lat="42.05514" lon="-1.30631">
        <ele>616</ele>
        <time>2010-11-06T22:01:20Z</time>
      </trkpt>
      <trkpt lat="42.05484" lon="-1.30611">
        <ele>617</ele>
        <time>2010-11-06T22:01:28Z</time>
      </trkpt>
      <trkpt lat="42.05461" lon="-1.30563">
        <ele>612</ele>
        <time>2010-11-06T22:01:40Z</time>
      </trkpt>
      <trkpt lat="42.05412" lon="-1.30535">
        <ele>613</ele>
        <time>2010-11-06T22:01:53Z</time>
      </trkpt>
      <trkpt lat="42.05282" lon="-1.30392">
        <ele>602</ele>
        <time>2010-11-06T22:02:38Z</time>
      </trkpt>
      <trkpt lat="42.05237" lon="-1.30287">
        <ele>587</ele>
        <time>2010-11-06T22:03:03Z</time>
      </trkpt>
      <trkpt lat="42.05205" lon="-1.30264">
        <ele>578</ele>
        <time>2010-11-06T22:03:13Z</time>
      </trkpt>
      <trkpt lat="42.05176" lon="-1.30283">
        <ele>584</ele>
        <time>2010-11-06T22:03:23Z</time>
      </trkpt>
      <trkpt lat="42.05154" lon="-1.30339">
        <ele>598</ele>
        <time>2010-11-06T22:03:35Z</time>
      </trkpt>
      <trkpt lat="42.05108" lon="-1.30379">
        <ele>602</ele>
        <time>2010-11-06T22:03:50Z</time>
      </trkpt>
      <trkpt lat="42.0501" lon="-1.30412">
        <ele>585</ele>
        <time>2010-11-06T22:04:18Z</time>
      </trkpt>
      <trkpt lat="42.04857" lon="-1.3067">
        <ele>597</ele>
        <time>2010-11-06T22:05:23Z</time>
      </trkpt>
      <trkpt lat="42.04738" lon="-1.30803">
        <ele>604</ele>
        <time>2010-11-06T22:06:05Z</time>
      </trkpt>
      <trkpt lat="42.04591" lon="-1.30837">
        <ele>601</ele>
        <time>2010-11-06T22:06:45Z</time>
      </trkpt>
      <trkpt lat="42.04464" lon="-1.30784">
        <ele>599</ele>
        <time>2010-11-06T22:07:20Z</time>
      </trkpt>
      <trkpt lat="42.04298" lon="-1.30561">
        <ele>596</ele>
        <time>2010-11-06T22:08:22Z</time>
      </trkpt>
      <trkpt lat="42.04279" lon="-1.30562">
        <ele>599</ele>
        <time>2010-11-06T22:08:28Z</time>
      </trkpt>
      <trkpt lat="42.04078" lon="-1.30906">
        <ele>602</ele>
        <time>2010-11-06T22:09:54Z</time>
      </trkpt>
      <trkpt lat="42.03815" lon="-1.31314">
        <ele>598</ele>
        <time>2010-11-06T22:11:42Z</time>
      </trkpt>
      <trkpt lat="42.03786" lon="-1.31345">
        <ele>602</ele>
        <time>2010-11-06T22:11:52Z</time>
      </trkpt>
      <trkpt lat="42.03664" lon="-1.31412">
        <ele>606</ele>
        <time>2010-11-06T22:12:27Z</time>
      </trkpt>
      <trkpt lat="42.03627" lon="-1.31467">
        <ele>605</ele>
        <time>2010-11-06T22:12:41Z</time>
      </trkpt>
      <trkpt lat="42.03607" lon="-1.31554">
        <ele>603</ele>
        <time>2010-11-06T22:12:59Z</time>
      </trkpt>
      <trkpt lat="42.03515" lon="-1.31692">
        <ele>604</ele>
        <time>2010-11-06T22:13:37Z</time>
      </trkpt>
      <trkpt lat="42.03516" lon="-1.31787">
        <ele>605</ele>
        <time>2010-11-06T22:13:56Z</time>
      </trkpt>
      <trkpt lat="42.03479" lon="-1.31847">
        <ele>600</ele>
        <time>2010-11-06T22:14:12Z</time>
      </trkpt>
      <trkpt lat="42.03449" lon="-1.31859">
        <ele>598</ele>
        <time>2010-11-06T22:14:20Z</time>
      </trkpt>
      <trkpt lat="42.03452" lon="-1.31875">
        <ele>597</ele>
        <time>2010-11-06T22:14:23Z</time>
      </trkpt>
      <trkpt lat="42.03496" lon="-1.31909">
        <ele>600</ele>
        <time>2010-11-06T22:14:37Z</time>
      </trkpt>
      <trkpt lat="42.03563" lon="-1.31944">
        <ele>605</ele>
        <time>2010-11-06T22:14:57Z</time>
      </trkpt>
      <trkpt lat="42.03525" lon="-1.32176">
        <ele>600</ele>
        <time>2010-11-06T22:15:44Z</time>
      </trkpt>
      <trkpt lat="42.03437" lon="-1.32266">
        <ele>595</ele>
        <time>2010-11-06T22:16:13Z</time>
      </trkpt>
      <trkpt lat="42.03411" lon="-1.32344">
        <ele>598</ele>
        <time>2010-11-06T22:16:31Z</time>
      </trkpt>
      <trkpt lat="42.03457" lon="-1.32413">
        <ele>598</ele>
        <time>2010-11-06T22:16:48Z</time>
      </trkpt>
      <trkpt lat="42.03497" lon="-1.32553">
        <ele>591</ele>
        <time>2010-11-06T22:17:18Z</time>
      </trkpt>
      <trkpt lat="42.03403" lon="-1.32672">
        <ele>590</ele>
        <time>2010-11-06T22:17:53Z</time>
      </trkpt>
      <trkpt lat="42.03224" lon="-1.33066">
        <ele>578</ele>
        <time>2010-11-06T22:19:26Z</time>
      </trkpt>
      <trkpt lat="42.03185" lon="-1.33235">
        <ele>567</ele>
        <time>2010-11-06T22:20:01Z</time>
      </trkpt>
      <trkpt lat="42.03194" lon="-1.33415">
        <ele>560</ele>
        <time>2010-11-06T22:20:37Z</time>
      </trkpt>
      <trkpt lat="42.03282" lon="-1.3362">
        <ele>530</ele>
        <time>2010-11-06T22:21:25Z</time>
      </trkpt>
      <trkpt lat="42.03349" lon="-1.3373">
        <ele>511</ele>
        <time>2010-11-06T22:21:54Z</time>
      </trkpt>
      <trkpt lat="42.03417" lon="-1.33816">
        <ele>500</ele>
        <time>2010-11-06T22:22:19Z</time>
      </trkpt>
      <trkpt lat="42.03544" lon="-1.33887">
        <ele>482</ele>
        <time>2010-11-06T22:22:57Z</time>
      </trkpt>
      <trkpt lat="42.03578" lon="-1.3401">
        <ele>473</ele>
        <time>2010-11-06T22:23:23Z</time>
      </trkpt>
      <trkpt lat="42.03607" lon="-1.3406">
        <ele>470</ele>
        <time>2010-11-06T22:23:37Z</time>
      </trkpt>
      <trkpt lat="42.03644" lon="-1.34054">
        <ele>469</ele>
        <time>2010-11-06T22:23:48Z</time>
      </trkpt>
      <trkpt lat="42.03668" lon="-1.34075">
        <ele>465</ele>
        <time>2010-11-06T22:23:55Z</time>
      </trkpt>
      <trkpt lat="42.03686" lon="-1.34195">
        <ele>455</ele>
        <time>2010-11-06T22:24:19Z</time>
      </trkpt>
      <trkpt lat="42.03759" lon="-1.34273">
        <ele>442</ele>
        <time>2010-11-06T22:24:44Z</time>
      </trkpt>
      <trkpt lat="42.03803" lon="-1.34371">
        <ele>423</ele>
        <time>2010-11-06T22:25:08Z</time>
      </trkpt>
      <trkpt lat="42.03812" lon="-1.34503">
        <ele>404</ele>
        <time>2010-11-06T22:25:35Z</time>
      </trkpt>
      <trkpt lat="42.03803" lon="-1.34524">
        <ele>400</ele>
        <time>2010-11-06T22:25:40Z</time>
      </trkpt>
      <trkpt lat="42.0374" lon="-1.3453">
        <ele>404</ele>
        <time>2010-11-06T22:25:56Z</time>
      </trkpt>
      <trkpt lat="42.03686" lon="-1.34621">
        <ele>406</ele>
        <time>2010-11-06T22:26:20Z</time>
      </trkpt>
      <trkpt lat="42.03627" lon="-1.34677">
        <ele>410</ele>
        <time>2010-11-06T22:26:39Z</time>
      </trkpt>
      <trkpt lat="42.03567" lon="-1.34778">
        <ele>413</ele>
        <time>2010-11-06T22:27:04Z</time>
      </trkpt>
      <trkpt lat="42.03532" lon="-1.34797">
        <ele>414</ele>
        <time>2010-11-06T22:27:15Z</time>
      </trkpt>
      <trkpt lat="42.03491" lon="-1.3488">
        <ele>402</ele>
        <time>2010-11-06T22:27:34Z</time>
      </trkpt>
      <trkpt lat="42.03448" lon="-1.34928">
        <ele>411</ele>
        <time>2010-11-06T22:27:50Z</time>
      </trkpt>
      <trkpt lat="42.03331" lon="-1.34982">
        <ele>406</ele>
        <time>2010-11-06T22:28:22Z</time>
      </trkpt>
      <trkpt lat="42.03304" lon="-1.35117">
        <ele>397</ele>
        <time>2010-11-06T22:28:51Z</time>
      </trkpt>
      <trkpt lat="42.03134" lon="-1.3549">
        <ele>387</ele>
        <time>2010-11-06T22:30:18Z</time>
      </trkpt>
      <trkpt lat="42.03116" lon="-1.35621">
        <ele>383</ele>
        <time>2010-11-06T22:30:45Z</time>
      </trkpt>
      <trkpt lat="42.03085" lon="-1.35685">
        <ele>376</ele>
        <time>2010-11-06T22:31:01Z</time>
      </trkpt>
      <trkpt lat="42.02993" lon="-1.35744">
        <ele>378</ele>
        <time>2010-11-06T22:31:27Z</time>
      </trkpt>
      <trkpt lat="42.02849" lon="-1.35783">
        <ele>377</ele>
        <time>2010-11-06T22:32:07Z</time>
      </trkpt>
      <trkpt lat="42.02768" lon="-1.35843">
        <ele>377</ele>
        <time>2010-11-06T22:32:32Z</time>
      </trkpt>
      <trkpt lat="42.0261" lon="-1.35991">
        <ele>377</ele>
        <time>2010-11-06T22:33:23Z</time>
      </trkpt>
      <trkpt lat="42.02585" lon="-1.36147">
        <ele>368</ele>
        <time>2010-11-06T22:33:56Z</time>
      </trkpt>
      <trkpt lat="42.02446" lon="-1.36242">
        <ele>360</ele>
        <time>2010-11-06T22:34:38Z</time>
      </trkpt>
      <trkpt lat="42.02389" lon="-1.36229">
        <ele>358</ele>
        <time>2010-11-06T22:34:54Z</time>
      </trkpt>
      <trkpt lat="42.02318" lon="-1.36286">
        <ele>356</ele>
        <time>2010-11-06T22:35:16Z</time>
      </trkpt>
      <trkpt lat="42.02299" lon="-1.36282">
        <ele>356</ele>
        <time>2010-11-06T22:35:21Z</time>
      </trkpt>
      <trkpt lat="42.02245" lon="-1.36216">
        <ele>356</ele>
        <time>2010-11-06T22:35:41Z</time>
      </trkpt>
      <trkpt lat="42.02173" lon="-1.3623">
        <ele>357</ele>
        <time>2010-11-06T22:35:59Z</time>
      </trkpt>
      <trkpt lat="42.0208" lon="-1.36215">
        <ele>356</ele>
        <time>2010-11-06T22:36:25Z</time>
      </trkpt>
      <trkpt lat="42.01909" lon="-1.3624">
        <ele>351</ele>
        <time>2010-11-06T22:37:11Z</time>
      </trkpt>
      <trkpt lat="42.01503" lon="-1.36113">
        <ele>344</ele>
        <time>2010-11-06T22:39:02Z</time>
      </trkpt>
      <trkpt lat="42.01303" lon="-1.36109">
        <ele>343</ele>
        <time>2010-11-06T22:39:55Z</time>
      </trkpt>
      <trkpt lat="42.01123" lon="-1.36024">
        <ele>341</ele>
        <time>2010-11-06T22:40:46Z</time>
      </trkpt>
      <trkpt lat="42.00994" lon="-1.35904">
        <ele>336</ele>
        <time>2010-11-06T22:41:28Z</time>
      </trkpt>
      <trkpt lat="42.0093" lon="-1.35895">
        <ele>335</ele>
        <time>2010-11-06T22:41:45Z</time>
      </trkpt>
      <trkpt lat="42.00892" lon="-1.35873">
        <ele>334</ele>
        <time>2010-11-06T22:41:56Z</time>
      </trkpt>
      <trkpt lat="42.00838" lon="-1.35816">
        <ele>332</ele>
        <time>2010-11-06T22:42:15Z</time>
      </trkpt>
      <trkpt lat="42.00765" lon="-1.35772">
        <ele>333</ele>
        <time>2010-11-06T22:42:35Z</time>
      </trkpt>
      <trkpt lat="42.00715" lon="-1.35765">
        <ele>333</ele>
        <time>2010-11-06T22:42:48Z</time>
      </trkpt>
      <trkpt lat="42.00673" lon="-1.35777">
        <ele>333</ele>
        <time>2010-11-06T22:43:01Z</time>
      </trkpt>
      <trkpt lat="42.00434" lon="-1.3575">
        <ele>326</ele>
        <time>2010-11-06T22:44:05Z</time>
      </trkpt>
      <trkpt lat="42.00379" lon="-1.35756">
        <ele>331</ele>
        <time>2010-11-06T22:44:20Z</time>
      </trkpt>
      <trkpt lat="42.00157" lon="-1.35699">
        <ele>327</ele>
        <time>2010-11-06T22:45:19Z</time>
      </trkpt>
      <trkpt lat="42.00004" lon="-1.35686">
        <ele>329</ele>
        <time>2010-11-06T22:46:01Z</time>
      </trkpt>
      <trkpt lat="41.99961" lon="-1.357">
        <ele>329</ele>
        <time>2010-11-06T22:46:12Z</time>
      </trkpt>
      <trkpt lat="41.99943" lon="-1.35749">
        <ele>336</ele>
        <time>2010-11-06T22:46:23Z</time>
      </trkpt>
      <trkpt lat="41.99949" lon="-1.35896">
        <ele>347</ele>
        <time>2010-11-06T22:46:53Z</time>
      </trkpt>
      <trkpt lat="41.99975" lon="-1.35976">
        <ele>346</ele>
        <time>2010-11-06T22:47:11Z</time>
      </trkpt>
      <trkpt lat="42.00006" lon="-1.36001">
        <ele>346</ele>
        <time>2010-11-06T22:47:19Z</time>
      </trkpt>
      <trkpt lat="42.00022" lon="-1.36062">
        <ele>346</ele>
        <time>2010-11-06T22:47:33Z</time>
      </trkpt>
      <trkpt lat="41.99959" lon="-1.36223">
        <ele>354</ele>
        <time>2010-11-06T22:48:08Z</time>
      </trkpt>
      <trkpt lat="41.99913" lon="-1.36256">
        <ele>360</ele>
        <time>2010-11-06T22:48:23Z</time>
      </trkpt>
      <trkpt lat="41.99859" lon="-1.36332">
        <ele>355</ele>
        <time>2010-11-06T22:48:43Z</time>
      </trkpt>
      <trkpt lat="41.99832" lon="-1.36435">
        <ele>350</ele>
        <time>2010-11-06T22:49:05Z</time>
      </trkpt>
      <trkpt lat="41.99827" lon="-1.36548">
        <ele>354</ele>
        <time>2010-11-06T22:49:29Z</time>
      </trkpt>
      <trkpt lat="41.99807" lon="-1.36555">
        <ele>355</ele>
        <time>2010-11-06T22:49:34Z</time>
      </trkpt>
      <trkpt lat="41.99777" lon="-1.36528">
        <ele>353</ele>
        <time>2010-11-06T22:49:44Z</time>
      </trkpt>
      <trkpt lat="41.99635" lon="-1.36531">
        <ele>353</ele>
        <time>2010-11-06T22:50:22Z</time>
      </trkpt>
      <trkpt lat="41.99515" lon="-1.36498">
        <ele>352</ele>
        <time>2010-11-06T22:50:54Z</time>
      </trkpt>
      <trkpt lat="41.99386" lon="-1.36506">
        <ele>351</ele>
        <time>2010-11-06T22:51:29Z</time>
      </trkpt>
      <trkpt lat="41.9935" lon="-1.36521">
        <ele>352</ele>
        <time>2010-11-06T22:51:38Z</time>
      </trkpt>
      <trkpt lat="41.99185" lon="-1.36662">
        <ele>339</ele>
        <time>2010-11-06T22:52:31Z</time>
      </trkpt>
      <trkpt lat="41.98933" lon="-1.36663">
        <ele>334</ele>
        <time>2010-11-06T22:53:38Z</time>
      </trkpt>
      <trkpt lat="41.98654" lon="-1.3662">
        <ele>326</ele>
        <time>2010-11-06T22:54:53Z</time>
      </trkpt>
      <trkpt lat="41.98425" lon="-1.36684">
        <ele>329</ele>
        <time>2010-11-06T22:55:56Z</time>
      </trkpt>
      <trkpt lat="41.98381" lon="-1.36682">
        <ele>327</ele>
        <time>2010-11-06T22:56:07Z</time>
      </trkpt>
      <trkpt lat="41.98268" lon="-1.36724">
        <ele>324</ele>
        <time>2010-11-06T22:56:39Z</time>
      </trkpt>
      <trkpt lat="41.9821" lon="-1.36691">
        <ele>323</ele>
        <time>2010-11-06T22:56:55Z</time>
      </trkpt>
      <trkpt lat="41.97831" lon="-1.36733">
        <ele>318</ele>
        <time>2010-11-06T22:58:37Z</time>
      </trkpt>
      <trkpt lat="41.97751" lon="-1.3676">
        <ele>323</ele>
        <time>2010-11-06T22:58:59Z</time>
      </trkpt>
      <trkpt lat="41.97577" lon="-1.36891">
        <ele>320</ele>
        <time>2010-11-06T22:59:53Z</time>
      </trkpt>
      <trkpt lat="41.97563" lon="-1.36933">
        <ele>319</ele>
        <time>2010-11-06T23:00:01Z</time>
      </trkpt>
      <trkpt lat="41.97591" lon="-1.37032">
        <ele>318</ele>
        <time>2010-11-06T23:00:22Z</time>
      </trkpt>
      <trkpt lat="41.9759" lon="-1.3708">
        <ele>314</ele>
        <time>2010-11-06T23:00:32Z</time>
      </trkpt>
      <trkpt lat="41.97508" lon="-1.37143">
        <ele>310</ele>
        <time>2010-11-06T23:00:57Z</time>
      </trkpt>
      <trkpt lat="41.97466" lon="-1.3724">
        <ele>305</ele>
        <time>2010-11-06T23:01:19Z</time>
      </trkpt>
      <trkpt lat="41.97462" lon="-1.37282">
        <ele>304</ele>
        <time>2010-11-06T23:01:27Z</time>
      </trkpt>
      <trkpt lat="41.975" lon="-1.37457">
        <ele>299</ele>
        <time>2010-11-06T23:02:04Z</time>
      </trkpt>
      <trkpt lat="41.97484" lon="-1.37507">
        <ele>297</ele>
        <time>2010-11-06T23:02:15Z</time>
      </trkpt>
      <trkpt lat="41.97385" lon="-1.3753">
        <ele>300</ele>
        <time>2010-11-06T23:02:42Z</time>
      </trkpt>
      <trkpt lat="41.97262" lon="-1.37459">
        <ele>298</ele>
        <time>2010-11-06T23:03:17Z</time>
      </trkpt>
      <trkpt lat="41.97214" lon="-1.37455">
        <ele>298</ele>
        <time>2010-11-06T23:03:30Z</time>
      </trkpt>
      <trkpt lat="41.97159" lon="-1.37464">
        <ele>297</ele>
        <time>2010-11-06T23:03:46Z</time>
      </trkpt>
      <trkpt lat="41.97089" lon="-1.37504">
        <ele>293</ele>
        <time>2010-11-06T23:04:05Z</time>
      </trkpt>
      <trkpt lat="41.97043" lon="-1.37556">
        <ele>291</ele>
        <time>2010-11-06T23:04:21Z</time>
      </trkpt>
      <trkpt lat="41.96965" lon="-1.37708">
        <ele>282</ele>
        <time>2010-11-06T23:04:59Z</time>
      </trkpt>
      <trkpt lat="41.96917" lon="-1.38116">
        <ele>259</ele>
        <time>2010-11-06T23:06:22Z</time>
      </trkpt>
      <trkpt lat="41.96759" lon="-1.38145">
        <ele>254</ele>
        <time>2010-11-06T23:07:05Z</time>
      </trkpt>
      <trkpt lat="41.96725" lon="-1.38185">
        <ele>250</ele>
        <time>2010-11-06T23:07:16Z</time>
        <extensions>
          <visugpx:TrkExtension xmlns:visugpx="https://www.visugpx.com/editgpx/">
            <visugpx:node>1</visugpx:node>
            </visugpx:TrkExtension>
        </extensions>
      </trkpt>
    </trkseg>
  </trk>
  <trk>
    <name><![CDATA[Boucle 1]]></name>
    <extensions>
      <line xmlns="http://www.topografix.com/GPX/gpx_style/0/2">
        <color>80ff00</color>
        <opacity>0.5</opacity>
        <width>12</width>
      </line>
    </extensions>
    <trkseg>
      <trkpt lat="42.17607" lon="-1.59544">
        <ele>266.2</ele>
        <extensions>
          <visugpx:TrkExtension xmlns:visugpx="https://www.visugpx.com/editgpx/">
            <visugpx:node>16</visugpx:node>
            </visugpx:TrkExtension>
        </extensions>
      </trkpt>
      <trkpt lat="42.17607" lon="-1.59544">
        <ele>266.2</ele>
      </trkpt>
      <trkpt lat="42.17605" lon="-1.59547">
        <ele>266</ele>
      </trkpt>
      <trkpt lat="42.17593" lon="-1.59561">
        <ele>265.2</ele>
      </trkpt>
      <trkpt lat="42.17576" lon="-1.59539">
        <ele>265</ele>
      </trkpt>
      <trkpt lat="42.17538" lon="-1.59494">
        <ele>264.1</ele>
      </trkpt>
      <trkpt lat="42.17458" lon="-1.59392">
        <ele>263.4</ele>
      </trkpt>
      <trkpt lat="42.17418" lon="-1.59342">
        <ele>263</ele>
      </trkpt>
      <trkpt lat="42.17353" lon="-1.5926">
        <ele>262.9</ele>
      </trkpt>
      <trkpt lat="42.17282" lon="-1.59171">
        <ele>263</ele>
      </trkpt>
      <trkpt lat="42.17231" lon="-1.59114">
        <ele>263.3</ele>
      </trkpt>
      <trkpt lat="42.17213" lon="-1.59109">
        <ele>263.1</ele>
      </trkpt>
      <trkpt lat="42.17209" lon="-1.59094">
        <ele>263.6</ele>
      </trkpt>
      <trkpt lat="42.1718" lon="-1.58957">
        <ele>264.8</ele>
      </trkpt>
      <trkpt lat="42.17175" lon="-1.58937">
        <ele>265.1</ele>
      </trkpt>
      <trkpt lat="42.17168" lon="-1.58916">
        <ele>265.1</ele>
      </trkpt>
      <trkpt lat="42.17084" lon="-1.58762">
        <ele>266.6</ele>
      </trkpt>
      <trkpt lat="42.17033" lon="-1.58656">
        <ele>266.2</ele>
      </trkpt>
      <trkpt lat="42.17011" lon="-1.58613">
        <ele>265.4</ele>
      </trkpt>
      <trkpt lat="42.1695" lon="-1.58488">
        <ele>264.1</ele>
      </trkpt>
      <trkpt lat="42.16884" lon="-1.58359">
        <ele>262.8</ele>
      </trkpt>
      <trkpt lat="42.16865" lon="-1.58329">
        <ele>262.3</ele>
      </trkpt>
      <trkpt lat="42.16534" lon="-1.57843">
        <ele>263</ele>
      </trkpt>
      <trkpt lat="42.16432" lon="-1.57689">
        <ele>264.6</ele>
      </trkpt>
      <trkpt lat="42.16421" lon="-1.57657">
        <ele>266.7</ele>
      </trkpt>
      <trkpt lat="42.1641" lon="-1.57603">
        <ele>267.7</ele>
      </trkpt>
      <trkpt lat="42.16402" lon="-1.57585">
        <ele>267.9</ele>
      </trkpt>
      <trkpt lat="42.1638" lon="-1.57547">
        <ele>270</ele>
      </trkpt>
      <trkpt lat="42.16375" lon="-1.57528">
        <ele>272</ele>
      </trkpt>
      <trkpt lat="42.16373" lon="-1.57507">
        <ele>272.9</ele>
      </trkpt>
      <trkpt lat="42.16368" lon="-1.57458">
        <ele>272.9</ele>
      </trkpt>
      <trkpt lat="42.16368" lon="-1.5744">
        <ele>273.5</ele>
      </trkpt>
      <trkpt lat="42.16371" lon="-1.57418">
        <ele>275.3</ele>
      </trkpt>
      <trkpt lat="42.16377" lon="-1.57394">
        <ele>276.6</ele>
      </trkpt>
      <trkpt lat="42.16389" lon="-1.57354">
        <ele>277.7</ele>
      </trkpt>
      <trkpt lat="42.16399" lon="-1.57323">
        <ele>277.7</ele>
      </trkpt>
      <trkpt lat="42.16418" lon="-1.57283">
        <ele>279.1</ele>
      </trkpt>
      <trkpt lat="42.16422" lon="-1.57273">
        <ele>279.4</ele>
      </trkpt>
      <trkpt lat="42.16423" lon="-1.57265">
        <ele>279.4</ele>
      </trkpt>
      <trkpt lat="42.16423" lon="-1.57255">
        <ele>279.3</ele>
      </trkpt>
      <trkpt lat="42.16421" lon="-1.57241">
        <ele>279.5</ele>
      </trkpt>
      <trkpt lat="42.16411" lon="-1.57202">
        <ele>280.5</ele>
      </trkpt>
      <trkpt lat="42.16408" lon="-1.57184">
        <ele>281.3</ele>
      </trkpt>
      <trkpt lat="42.16407" lon="-1.57168">
        <ele>282.3</ele>
      </trkpt>
      <trkpt lat="42.16415" lon="-1.57101">
        <ele>284.7</ele>
      </trkpt>
      <trkpt lat="42.16416" lon="-1.57075">
        <ele>286.6</ele>
      </trkpt>
      <trkpt lat="42.16413" lon="-1.57032">
        <ele>287.7</ele>
      </trkpt>
      <trkpt lat="42.16413" lon="-1.57011">
        <ele>288.3</ele>
      </trkpt>
      <trkpt lat="42.16415" lon="-1.56992">
        <ele>288.9</ele>
      </trkpt>
      <trkpt lat="42.1642" lon="-1.56971">
        <ele>289</ele>
      </trkpt>
      <trkpt lat="42.16426" lon="-1.56953">
        <ele>288.8</ele>
      </trkpt>
      <trkpt lat="42.16434" lon="-1.56935">
        <ele>289.2</ele>
      </trkpt>
      <trkpt lat="42.16591" lon="-1.56665">
        <ele>297.3</ele>
      </trkpt>
      <trkpt lat="42.16606" lon="-1.56636">
        <ele>298.7</ele>
      </trkpt>
      <trkpt lat="42.16616" lon="-1.56613">
        <ele>299.2</ele>
      </trkpt>
      <trkpt lat="42.16616" lon="-1.56613">
        <ele>299.2</ele>
      </trkpt>
      <trkpt lat="42.16646" lon="-1.56543">
        <ele>300.7</ele>
      </trkpt>
      <trkpt lat="42.16688" lon="-1.56473">
        <ele>302.5</ele>
      </trkpt>
      <trkpt lat="42.16703" lon="-1.56442">
        <ele>302.6</ele>
      </trkpt>
      <trkpt lat="42.16767" lon="-1.56284">
        <ele>306.6</ele>
      </trkpt>
      <trkpt lat="42.16787" lon="-1.56239">
        <ele>308.3</ele>
      </trkpt>
      <trkpt lat="42.16812" lon="-1.562">
        <ele>309.2</ele>
      </trkpt>
      <trkpt lat="42.16817" lon="-1.56193">
        <ele>309.4</ele>
      </trkpt>
      <trkpt lat="42.16825" lon="-1.56181">
        <ele>309.7</ele>
      </trkpt>
      <trkpt lat="42.16858" lon="-1.56138">
        <ele>311</ele>
      </trkpt>
      <trkpt lat="42.16869" lon="-1.56125">
        <ele>311.1</ele>
      </trkpt>
      <trkpt lat="42.16897" lon="-1.56101">
        <ele>309.7</ele>
      </trkpt>
      <trkpt lat="42.16967" lon="-1.56059">
        <ele>305.8</ele>
      </trkpt>
      <trkpt lat="42.1698" lon="-1.5605">
        <ele>305.3</ele>
      </trkpt>
      <trkpt lat="42.16995" lon="-1.56035">
        <ele>304.8</ele>
      </trkpt>
      <trkpt lat="42.1701" lon="-1.5601">
        <ele>304</ele>
      </trkpt>
      <trkpt lat="42.17014" lon="-1.55995">
        <ele>303.5</ele>
      </trkpt>
      <trkpt lat="42.17016" lon="-1.5598">
        <ele>303.6</ele>
      </trkpt>
      <trkpt lat="42.17014" lon="-1.55897">
        <ele>303</ele>
      </trkpt>
      <trkpt lat="42.17015" lon="-1.55874">
        <ele>302.8</ele>
      </trkpt>
      <trkpt lat="42.17023" lon="-1.55838">
        <ele>302.7</ele>
      </trkpt>
      <trkpt lat="42.17029" lon="-1.55822">
        <ele>302.2</ele>
      </trkpt>
      <trkpt lat="42.17043" lon="-1.558">
        <ele>301.5</ele>
      </trkpt>
      <trkpt lat="42.17052" lon="-1.55789">
        <ele>301.8</ele>
      </trkpt>
      <trkpt lat="42.17098" lon="-1.55751">
        <ele>301.5</ele>
      </trkpt>
      <trkpt lat="42.1715" lon="-1.55687">
        <ele>301.2</ele>
      </trkpt>
      <trkpt lat="42.17167" lon="-1.55662">
        <ele>301.8</ele>
      </trkpt>
      <trkpt lat="42.17167" lon="-1.55649">
        <ele>301.4</ele>
      </trkpt>
      <trkpt lat="42.17183" lon="-1.55604">
        <ele>300.9</ele>
      </trkpt>
      <trkpt lat="42.17185" lon="-1.55592">
        <ele>300.4</ele>
      </trkpt>
      <trkpt lat="42.17184" lon="-1.55579">
        <ele>299.9</ele>
      </trkpt>
      <trkpt lat="42.17179" lon="-1.55566">
        <ele>299.7</ele>
      </trkpt>
      <trkpt lat="42.17187" lon="-1.55565">
        <ele>299.5</ele>
      </trkpt>
      <trkpt lat="42.17195" lon="-1.55559">
        <ele>299.2</ele>
      </trkpt>
      <trkpt lat="42.17204" lon="-1.55538">
        <ele>299.5</ele>
      </trkpt>
      <trkpt lat="42.17221" lon="-1.55509">
        <ele>298.7</ele>
      </trkpt>
      <trkpt lat="42.17228" lon="-1.55491">
        <ele>298.6</ele>
      </trkpt>
      <trkpt lat="42.17238" lon="-1.55449">
        <ele>299.1</ele>
      </trkpt>
      <trkpt lat="42.17245" lon="-1.55444">
        <ele>299.6</ele>
      </trkpt>
      <trkpt lat="42.17249" lon="-1.55429">
        <ele>299.4</ele>
      </trkpt>
      <trkpt lat="42.17256" lon="-1.55412">
        <ele>298.9</ele>
      </trkpt>
      <trkpt lat="42.17283" lon="-1.5536">
        <ele>298.1</ele>
      </trkpt>
      <trkpt lat="42.17292" lon="-1.55344">
        <ele>297.9</ele>
      </trkpt>
      <trkpt lat="42.17305" lon="-1.55311">
        <ele>298</ele>
      </trkpt>
      <trkpt lat="42.17311" lon="-1.5528">
        <ele>298.4</ele>
      </trkpt>
      <trkpt lat="42.17316" lon="-1.55263">
        <ele>297.8</ele>
      </trkpt>
      <trkpt lat="42.17329" lon="-1.55231">
        <ele>296.8</ele>
      </trkpt>
      <trkpt lat="42.17335" lon="-1.5521">
        <ele>296.6</ele>
      </trkpt>
      <trkpt lat="42.17337" lon="-1.55174">
        <ele>296.5</ele>
      </trkpt>
      <trkpt lat="42.17342" lon="-1.5514">
        <ele>296</ele>
      </trkpt>
      <trkpt lat="42.17347" lon="-1.55127">
        <ele>295.4</ele>
      </trkpt>
      <trkpt lat="42.17377" lon="-1.55061">
        <ele>293.4</ele>
      </trkpt>
      <trkpt lat="42.17383" lon="-1.55041">
        <ele>293.2</ele>
      </trkpt>
      <trkpt lat="42.17392" lon="-1.54997">
        <ele>292.1</ele>
      </trkpt>
      <trkpt lat="42.17402" lon="-1.54966">
        <ele>291.6</ele>
      </trkpt>
      <trkpt lat="42.17409" lon="-1.54952">
        <ele>291.2</ele>
      </trkpt>
      <trkpt lat="42.17426" lon="-1.54929">
        <ele>290.2</ele>
      </trkpt>
      <trkpt lat="42.17523" lon="-1.54816">
        <ele>288.1</ele>
      </trkpt>
      <trkpt lat="42.17529" lon="-1.54806">
        <ele>288.2</ele>
      </trkpt>
      <trkpt lat="42.1755" lon="-1.54756">
        <ele>287.3</ele>
      </trkpt>
      <trkpt lat="42.17558" lon="-1.54746">
        <ele>286.5</ele>
      </trkpt>
      <trkpt lat="42.17579" lon="-1.54728">
        <ele>284.9</ele>
      </trkpt>
      <trkpt lat="42.17592" lon="-1.54707">
        <ele>282.5</ele>
      </trkpt>
      <trkpt lat="42.17596" lon="-1.54693">
        <ele>281.4</ele>
      </trkpt>
      <trkpt lat="42.17608" lon="-1.54626">
        <ele>279.8</ele>
      </trkpt>
      <trkpt lat="42.17622" lon="-1.54575">
        <ele>277.5</ele>
      </trkpt>
      <trkpt lat="42.17636" lon="-1.54543">
        <ele>277.4</ele>
      </trkpt>
      <trkpt lat="42.17676" lon="-1.5446">
        <ele>276.6</ele>
      </trkpt>
      <trkpt lat="42.17697" lon="-1.54397">
        <ele>276</ele>
      </trkpt>
      <trkpt lat="42.17719" lon="-1.54316">
        <ele>275.9</ele>
      </trkpt>
      <trkpt lat="42.17721" lon="-1.54296">
        <ele>276</ele>
      </trkpt>
      <trkpt lat="42.17721" lon="-1.54281">
        <ele>276</ele>
      </trkpt>
      <trkpt lat="42.17718" lon="-1.5426">
        <ele>275.8</ele>
      </trkpt>
      <trkpt lat="42.17713" lon="-1.54244">
        <ele>275.7</ele>
      </trkpt>
      <trkpt lat="42.17694" lon="-1.54209">
        <ele>276</ele>
      </trkpt>
      <trkpt lat="42.17673" lon="-1.54181">
        <ele>276</ele>
      </trkpt>
      <trkpt lat="42.1767" lon="-1.54176">
        <ele>276</ele>
      </trkpt>
      <trkpt lat="42.17638" lon="-1.54127">
        <ele>273.9</ele>
      </trkpt>
      <trkpt lat="42.17548" lon="-1.53997">
        <ele>280.1</ele>
      </trkpt>
      <trkpt lat="42.17531" lon="-1.53969">
        <ele>282.2</ele>
      </trkpt>
      <trkpt lat="42.17526" lon="-1.53957">
        <ele>282.5</ele>
      </trkpt>
      <trkpt lat="42.17524" lon="-1.53943">
        <ele>283</ele>
      </trkpt>
      <trkpt lat="42.17524" lon="-1.5393">
        <ele>283.9</ele>
      </trkpt>
      <trkpt lat="42.17545" lon="-1.53737">
        <ele>295.1</ele>
      </trkpt>
      <trkpt lat="42.17548" lon="-1.53659">
        <ele>299.5</ele>
      </trkpt>
      <trkpt lat="42.17548" lon="-1.53652">
        <ele>299.9</ele>
      </trkpt>
      <trkpt lat="42.17549" lon="-1.5361">
        <ele>303.6</ele>
      </trkpt>
      <trkpt lat="42.17552" lon="-1.53583">
        <ele>305.8</ele>
      </trkpt>
      <trkpt lat="42.17554" lon="-1.53568">
        <ele>306.9</ele>
      </trkpt>
      <trkpt lat="42.17562" lon="-1.53545">
        <ele>308.5</ele>
      </trkpt>
      <trkpt lat="42.17569" lon="-1.5353">
        <ele>308.6</ele>
      </trkpt>
      <trkpt lat="42.17582" lon="-1.53501">
        <ele>308.9</ele>
      </trkpt>
      <trkpt lat="42.17595" lon="-1.53453">
        <ele>311.8</ele>
      </trkpt>
      <trkpt lat="42.176" lon="-1.53441">
        <ele>312.4</ele>
      </trkpt>
      <trkpt lat="42.17607" lon="-1.53432">
        <ele>311.8</ele>
      </trkpt>
      <trkpt lat="42.17615" lon="-1.53425">
        <ele>311.5</ele>
      </trkpt>
      <trkpt lat="42.17656" lon="-1.53401">
        <ele>311.6</ele>
      </trkpt>
      <trkpt lat="42.17676" lon="-1.53391">
        <ele>312</ele>
      </trkpt>
      <trkpt lat="42.17758" lon="-1.5336">
        <ele>312.4</ele>
      </trkpt>
      <trkpt lat="42.17781" lon="-1.53353">
        <ele>312.9</ele>
      </trkpt>
      <trkpt lat="42.17806" lon="-1.53352">
        <ele>313</ele>
      </trkpt>
      <trkpt lat="42.17859" lon="-1.53362">
        <ele>312.1</ele>
      </trkpt>
      <trkpt lat="42.17883" lon="-1.53359">
        <ele>312.7</ele>
      </trkpt>
      <trkpt lat="42.17904" lon="-1.53344">
        <ele>312.2</ele>
      </trkpt>
      <trkpt lat="42.17916" lon="-1.53333">
        <ele>312.9</ele>
      </trkpt>
      <trkpt lat="42.17924" lon="-1.53324">
        <ele>313</ele>
      </trkpt>
      <trkpt lat="42.17924" lon="-1.53324">
        <ele>313</ele>
        <extensions>
          <visugpx:TrkExtension xmlns:visugpx="https://www.visugpx.com/editgpx/">
            <visugpx:node>1</visugpx:node>
            </visugpx:TrkExtension>
        </extensions>
      </trkpt>
      <trkpt lat="42.17935" lon="-1.5331">
        <ele>313.4</ele>
      </trkpt>
      <trkpt lat="42.17966" lon="-1.53271">
        <ele>315.6</ele>
      </trkpt>
      <trkpt lat="42.17986" lon="-1.53239">
        <ele>317</ele>
      </trkpt>
      <trkpt lat="42.18037" lon="-1.5314">
        <ele>321.3</ele>
      </trkpt>
      <trkpt lat="42.18075" lon="-1.53068">
        <ele>325.3</ele>
      </trkpt>
      <trkpt lat="42.18081" lon="-1.53056">
        <ele>325.9</ele>
      </trkpt>
      <trkpt lat="42.18088" lon="-1.53033">
        <ele>325.9</ele>
      </trkpt>
      <trkpt lat="42.18092" lon="-1.53006">
        <ele>325.4</ele>
      </trkpt>
      <trkpt lat="42.18094" lon="-1.52979">
        <ele>324.5</ele>
      </trkpt>
      <trkpt lat="42.18093" lon="-1.52955">
        <ele>323.7</ele>
      </trkpt>
      <trkpt lat="42.1809" lon="-1.52934">
        <ele>323.1</ele>
      </trkpt>
      <trkpt lat="42.18057" lon="-1.52753">
        <ele>317.8</ele>
      </trkpt>
      <trkpt lat="42.18054" lon="-1.52738">
        <ele>317.3</ele>
      </trkpt>
      <trkpt lat="42.17941" lon="-1.52429">
        <ele>308.2</ele>
      </trkpt>
      <trkpt lat="42.1793" lon="-1.52393">
        <ele>307.3</ele>
      </trkpt>
      <trkpt lat="42.17917" lon="-1.52328">
        <ele>307.8</ele>
      </trkpt>
      <trkpt lat="42.17911" lon="-1.5231">
        <ele>307.4</ele>
      </trkpt>
      <trkpt lat="42.17896" lon="-1.52278">
        <ele>306.8</ele>
      </trkpt>
      <trkpt lat="42.17886" lon="-1.52261">
        <ele>305.8</ele>
      </trkpt>
      <trkpt lat="42.17886" lon="-1.52261">
        <ele>305.8</ele>
        <extensions>
          <visugpx:TrkExtension xmlns:visugpx="https://www.visugpx.com/editgpx/">
            <visugpx:node>2</visugpx:node>
            </visugpx:TrkExtension>
        </extensions>
      </trkpt>
      <trkpt lat="42.17896" lon="-1.52278">
        <ele>306.8</ele>
      </trkpt>
      <trkpt lat="42.17919" lon="-1.52221">
        <ele>303.7</ele>
      </trkpt>
      <trkpt lat="42.17931" lon="-1.522">
        <ele>301.8</ele>
      </trkpt>
      <trkpt lat="42.17952" lon="-1.52175">
        <ele>300.5</ele>
      </trkpt>
      <trkpt lat="42.18035" lon="-1.52116">
        <ele>295.5</ele>
      </trkpt>
      <trkpt lat="42.18051" lon="-1.52111">
        <ele>294.3</ele>
      </trkpt>
      <trkpt lat="42.18064" lon="-1.52109">
        <ele>294</ele>
      </trkpt>
      <trkpt lat="42.18093" lon="-1.52116">
        <ele>293.7</ele>
      </trkpt>
      <trkpt lat="42.18127" lon="-1.52127">
        <ele>292.4</ele>
      </trkpt>
      <trkpt lat="42.18226" lon="-1.52191">
        <ele>290.9</ele>
      </trkpt>
      <trkpt lat="42.18252" lon="-1.52204">
        <ele>290.3</ele>
      </trkpt>
      <trkpt lat="42.1829" lon="-1.52205">
        <ele>289.2</ele>
      </trkpt>
      <trkpt lat="42.18341" lon="-1.5219">
        <ele>288</ele>
      </trkpt>
      <trkpt lat="42.18371" lon="-1.52175">
        <ele>287.8</ele>
      </trkpt>
      <trkpt lat="42.18389" lon="-1.52169">
        <ele>287.1</ele>
      </trkpt>
      <trkpt lat="42.18442" lon="-1.52171">
        <ele>286.1</ele>
      </trkpt>
      <trkpt lat="42.18545" lon="-1.522">
        <ele>284</ele>
      </trkpt>
      <trkpt lat="42.18566" lon="-1.52201">
        <ele>283.9</ele>
      </trkpt>
      <trkpt lat="42.18593" lon="-1.52192">
        <ele>283.6</ele>
      </trkpt>
      <trkpt lat="42.18608" lon="-1.52183">
        <ele>283.1</ele>
      </trkpt>
      <trkpt lat="42.18636" lon="-1.52152">
        <ele>283</ele>
      </trkpt>
      <trkpt lat="42.18659" lon="-1.52139">
        <ele>283</ele>
      </trkpt>
      <trkpt lat="42.18776" lon="-1.52131">
        <ele>282.7</ele>
      </trkpt>
      <trkpt lat="42.18785" lon="-1.5213">
        <ele>282.5</ele>
      </trkpt>
      <trkpt lat="42.18806" lon="-1.52117">
        <ele>282</ele>
      </trkpt>
      <trkpt lat="42.18876" lon="-1.52068">
        <ele>282</ele>
      </trkpt>
      <trkpt lat="42.18928" lon="-1.52033">
        <ele>282</ele>
      </trkpt>
      <trkpt lat="42.18942" lon="-1.52029">
        <ele>282</ele>
      </trkpt>
      <trkpt lat="42.19085" lon="-1.52031">
        <ele>283</ele>
      </trkpt>
      <trkpt lat="42.1922" lon="-1.52027">
        <ele>283</ele>
      </trkpt>
      <trkpt lat="42.19296" lon="-1.51996">
        <ele>284</ele>
      </trkpt>
      <trkpt lat="42.19346" lon="-1.5197">
        <ele>284</ele>
      </trkpt>
      <trkpt lat="42.19412" lon="-1.51947">
        <ele>284.8</ele>
      </trkpt>
      <trkpt lat="42.19448" lon="-1.51929">
        <ele>285</ele>
      </trkpt>
      <trkpt lat="42.19561" lon="-1.51861">
        <ele>285</ele>
      </trkpt>
      <trkpt lat="42.19628" lon="-1.51835">
        <ele>285</ele>
      </trkpt>
      <trkpt lat="42.1969" lon="-1.51797">
        <ele>285.8</ele>
      </trkpt>
      <trkpt lat="42.19711" lon="-1.51787">
        <ele>286</ele>
      </trkpt>
      <trkpt lat="42.19805" lon="-1.51753">
        <ele>286</ele>
      </trkpt>
      <trkpt lat="42.19885" lon="-1.51726">
        <ele>286.9</ele>
      </trkpt>
      <trkpt lat="42.19985" lon="-1.51688">
        <ele>287</ele>
      </trkpt>
      <trkpt lat="42.20057" lon="-1.51677">
        <ele>287</ele>
      </trkpt>
      <trkpt lat="42.20068" lon="-1.51674">
        <ele>287</ele>
      </trkpt>
      <trkpt lat="42.2012" lon="-1.51636">
        <ele>287.7</ele>
      </trkpt>
      <trkpt lat="42.2015" lon="-1.51623">
        <ele>287.6</ele>
      </trkpt>
      <trkpt lat="42.20212" lon="-1.51603">
        <ele>287.6</ele>
      </trkpt>
      <trkpt lat="42.20232" lon="-1.51592">
        <ele>287.8</ele>
      </trkpt>
      <trkpt lat="42.20271" lon="-1.51547">
        <ele>288</ele>
      </trkpt>
      <trkpt lat="42.20306" lon="-1.51529">
        <ele>288</ele>
      </trkpt>
      <trkpt lat="42.20375" lon="-1.51514">
        <ele>288</ele>
      </trkpt>
      <trkpt lat="42.20425" lon="-1.51498">
        <ele>288</ele>
      </trkpt>
      <trkpt lat="42.20442" lon="-1.51495">
        <ele>288</ele>
      </trkpt>
      <trkpt lat="42.20457" lon="-1.51498">
        <ele>288.5</ele>
      </trkpt>
      <trkpt lat="42.20474" lon="-1.51518">
        <ele>288.4</ele>
      </trkpt>
      <trkpt lat="42.20491" lon="-1.51549">
        <ele>288.7</ele>
      </trkpt>
      <trkpt lat="42.20505" lon="-1.51565">
        <ele>289</ele>
      </trkpt>
      <trkpt lat="42.20519" lon="-1.51575">
        <ele>289</ele>
      </trkpt>
      <trkpt lat="42.20566" lon="-1.51601">
        <ele>289</ele>
      </trkpt>
      <trkpt lat="42.20606" lon="-1.51616">
        <ele>289</ele>
      </trkpt>
      <trkpt lat="42.20619" lon="-1.51618">
        <ele>289</ele>
      </trkpt>
      <trkpt lat="42.20873" lon="-1.51597">
        <ele>290</ele>
      </trkpt>
      <trkpt lat="42.20902" lon="-1.51591">
        <ele>290</ele>
      </trkpt>
      <trkpt lat="42.20923" lon="-1.5158">
        <ele>290.3</ele>
      </trkpt>
      <trkpt lat="42.20932" lon="-1.51573">
        <ele>290.8</ele>
      </trkpt>
      <trkpt lat="42.20946" lon="-1.51561">
        <ele>291.8</ele>
      </trkpt>
      <trkpt lat="42.20974" lon="-1.51507">
        <ele>293.6</ele>
      </trkpt>
      <trkpt lat="42.20986" lon="-1.5149">
        <ele>293.9</ele>
      </trkpt>
      <trkpt lat="42.20972" lon="-1.51493">
        <ele>294.8</ele>
      </trkpt>
      <trkpt lat="42.20969" lon="-1.51493">
        <ele>294.7</ele>
        <extensions>
          <visugpx:TrkExtension xmlns:visugpx="https://www.visugpx.com/editgpx/">
            <visugpx:node>3</visugpx:node>
            </visugpx:TrkExtension>
        </extensions>
      </trkpt>
      <trkpt lat="42.20972" lon="-1.51493">
        <ele>294.8</ele>
      </trkpt>
      <trkpt lat="42.20986" lon="-1.5149">
        <ele>293.9</ele>
      </trkpt>
      <trkpt lat="42.21" lon="-1.51471">
        <ele>294.1</ele>
      </trkpt>
      <trkpt lat="42.21102" lon="-1.51293">
        <ele>296.2</ele>
      </trkpt>
      <trkpt lat="42.21127" lon="-1.5128">
        <ele>294.8</ele>
      </trkpt>
      <trkpt lat="42.21153" lon="-1.51275">
        <ele>293.5</ele>
      </trkpt>
      <trkpt lat="42.21176" lon="-1.5128">
        <ele>292.3</ele>
      </trkpt>
      <trkpt lat="42.21209" lon="-1.51293">
        <ele>289.4</ele>
      </trkpt>
      <trkpt lat="42.2128" lon="-1.5131">
        <ele>284.6</ele>
      </trkpt>
      <trkpt lat="42.21304" lon="-1.51309">
        <ele>283.9</ele>
      </trkpt>
      <trkpt lat="42.2136" lon="-1.51285">
        <ele>286.2</ele>
      </trkpt>
      <trkpt lat="42.21397" lon="-1.51279">
        <ele>288.7</ele>
      </trkpt>
      <trkpt lat="42.21435" lon="-1.51278">
        <ele>290.7</ele>
      </trkpt>
      <trkpt lat="42.21458" lon="-1.51267">
        <ele>290.6</ele>
      </trkpt>
      <trkpt lat="42.21476" lon="-1.51252">
        <ele>291</ele>
      </trkpt>
      <trkpt lat="42.21704" lon="-1.50998">
        <ele>292</ele>
      </trkpt>
      <trkpt lat="42.21884" lon="-1.50792">
        <ele>292.8</ele>
      </trkpt>
      <trkpt lat="42.21897" lon="-1.50777">
        <ele>293</ele>
      </trkpt>
      <trkpt lat="42.21949" lon="-1.50716">
        <ele>293</ele>
      </trkpt>
      <trkpt lat="42.21993" lon="-1.50639">
        <ele>293</ele>
      </trkpt>
      <trkpt lat="42.22137" lon="-1.50328">
        <ele>293.9</ele>
      </trkpt>
      <trkpt lat="42.22177" lon="-1.50234">
        <ele>294</ele>
      </trkpt>
      <trkpt lat="42.22269" lon="-1.49975">
        <ele>295</ele>
      </trkpt>
      <trkpt lat="42.22338" lon="-1.49788">
        <ele>296</ele>
      </trkpt>
      <trkpt lat="42.22472" lon="-1.49416">
        <ele>298</ele>
      </trkpt>
      <trkpt lat="42.22486" lon="-1.49384">
        <ele>298.5</ele>
      </trkpt>
      <trkpt lat="42.22529" lon="-1.49304">
        <ele>299</ele>
      </trkpt>
      <trkpt lat="42.2255" lon="-1.49276">
        <ele>299.8</ele>
      </trkpt>
      <trkpt lat="42.22573" lon="-1.49263">
        <ele>300</ele>
      </trkpt>
      <trkpt lat="42.22633" lon="-1.49248">
        <ele>301</ele>
      </trkpt>
      <trkpt lat="42.22794" lon="-1.49222">
        <ele>301.6</ele>
      </trkpt>
      <trkpt lat="42.22805" lon="-1.49215">
        <ele>301.7</ele>
      </trkpt>
      <trkpt lat="42.22823" lon="-1.49196">
        <ele>301.6</ele>
      </trkpt>
      <trkpt lat="42.22962" lon="-1.4896">
        <ele>305.7</ele>
      </trkpt>
      <trkpt lat="42.22977" lon="-1.4893">
        <ele>307.5</ele>
      </trkpt>
      <trkpt lat="42.22994" lon="-1.48888">
        <ele>307.8</ele>
      </trkpt>
      <trkpt lat="42.23007" lon="-1.48846">
        <ele>308.9</ele>
      </trkpt>
      <trkpt lat="42.23023" lon="-1.48778">
        <ele>309.5</ele>
      </trkpt>
      <trkpt lat="42.23027" lon="-1.48747">
        <ele>311</ele>
      </trkpt>
      <trkpt lat="42.23028" lon="-1.48679">
        <ele>313.5</ele>
      </trkpt>
      <trkpt lat="42.23025" lon="-1.48647">
        <ele>313.7</ele>
      </trkpt>
      <trkpt lat="42.23019" lon="-1.4862">
        <ele>313.7</ele>
      </trkpt>
      <trkpt lat="42.23" lon="-1.4856">
        <ele>313.8</ele>
      </trkpt>
      <trkpt lat="42.22987" lon="-1.48531">
        <ele>312.6</ele>
      </trkpt>
      <trkpt lat="42.22973" lon="-1.48504">
        <ele>311.9</ele>
      </trkpt>
      <trkpt lat="42.22941" lon="-1.48457">
        <ele>310.8</ele>
      </trkpt>
      <trkpt lat="42.22834" lon="-1.48304">
        <ele>307.9</ele>
      </trkpt>
      <trkpt lat="42.22734" lon="-1.48157">
        <ele>305.5</ele>
      </trkpt>
      <trkpt lat="42.22709" lon="-1.48114">
        <ele>305.1</ele>
      </trkpt>
      <trkpt lat="42.22701" lon="-1.48088">
        <ele>305</ele>
      </trkpt>
      <trkpt lat="42.22674" lon="-1.47944">
        <ele>305.3</ele>
      </trkpt>
      <trkpt lat="42.22653" lon="-1.47819">
        <ele>304.5</ele>
      </trkpt>
      <trkpt lat="42.22651" lon="-1.47784">
        <ele>304.9</ele>
      </trkpt>
      <trkpt lat="42.22654" lon="-1.47752">
        <ele>305.5</ele>
      </trkpt>
      <trkpt lat="42.22664" lon="-1.47696">
        <ele>305.9</ele>
      </trkpt>
      <trkpt lat="42.22675" lon="-1.47648">
        <ele>305.5</ele>
      </trkpt>
      <trkpt lat="42.22678" lon="-1.47625">
        <ele>305.4</ele>
      </trkpt>
      <trkpt lat="42.22678" lon="-1.47602">
        <ele>305.4</ele>
      </trkpt>
      <trkpt lat="42.22675" lon="-1.47572">
        <ele>305.6</ele>
      </trkpt>
      <trkpt lat="42.22668" lon="-1.4754">
        <ele>306</ele>
      </trkpt>
      <trkpt lat="42.22661" lon="-1.47522">
        <ele>305.8</ele>
      </trkpt>
      <trkpt lat="42.22654" lon="-1.47509">
        <ele>305.9</ele>
      </trkpt>
      <trkpt lat="42.22503" lon="-1.47307">
        <ele>305</ele>
      </trkpt>
      <trkpt lat="42.22135" lon="-1.4681">
        <ele>307</ele>
      </trkpt>
      <trkpt lat="42.22122" lon="-1.46786">
        <ele>307</ele>
      </trkpt>
      <trkpt lat="42.221" lon="-1.46711">
        <ele>306.7</ele>
      </trkpt>
      <trkpt lat="42.22087" lon="-1.46676">
        <ele>305.8</ele>
      </trkpt>
      <trkpt lat="42.22044" lon="-1.46598">
        <ele>305.8</ele>
      </trkpt>
      <trkpt lat="42.22026" lon="-1.46572">
        <ele>305.9</ele>
      </trkpt>
      <trkpt lat="42.22011" lon="-1.46559">
        <ele>304.9</ele>
      </trkpt>
      <trkpt lat="42.21858" lon="-1.46454">
        <ele>301.7</ele>
      </trkpt>
      <trkpt lat="42.21827" lon="-1.46424">
        <ele>302.5</ele>
      </trkpt>
      <trkpt lat="42.21792" lon="-1.46361">
        <ele>302</ele>
      </trkpt>
      <trkpt lat="42.21788" lon="-1.46355">
        <ele>302.2</ele>
        <extensions>
          <visugpx:TrkExtension xmlns:visugpx="https://www.visugpx.com/editgpx/">
            <visugpx:node>4</visugpx:node>
            </visugpx:TrkExtension>
        </extensions>
      </trkpt>
      <trkpt lat="42.21788" lon="-1.46355">
        <ele>302.2</ele>
      </trkpt>
      <trkpt lat="42.21792" lon="-1.46361">
        <ele>302</ele>
      </trkpt>
      <trkpt lat="42.21872" lon="-1.4624">
        <ele>303.3</ele>
      </trkpt>
      <trkpt lat="42.21897" lon="-1.46205">
        <ele>304.3</ele>
      </trkpt>
      <trkpt lat="42.21912" lon="-1.46188">
        <ele>304</ele>
      </trkpt>
      <trkpt lat="42.21924" lon="-1.46176">
        <ele>304.2</ele>
      </trkpt>
      <trkpt lat="42.21965" lon="-1.46157">
        <ele>305.7</ele>
      </trkpt>
      <trkpt lat="42.21977" lon="-1.46148">
        <ele>306.1</ele>
      </trkpt>
      <trkpt lat="42.2199" lon="-1.46131">
        <ele>306.6</ele>
      </trkpt>
      <trkpt lat="42.21995" lon="-1.46119">
        <ele>306.8</ele>
      </trkpt>
      <trkpt lat="42.22" lon="-1.46103">
        <ele>307</ele>
      </trkpt>
      <trkpt lat="42.22018" lon="-1.46034">
        <ele>309.8</ele>
      </trkpt>
      <trkpt lat="42.22023" lon="-1.45998">
        <ele>310</ele>
      </trkpt>
      <trkpt lat="42.22025" lon="-1.4595">
        <ele>310.8</ele>
      </trkpt>
      <trkpt lat="42.22029" lon="-1.4592">
        <ele>311.8</ele>
      </trkpt>
      <trkpt lat="42.22034" lon="-1.45889">
        <ele>312.5</ele>
      </trkpt>
      <trkpt lat="42.22041" lon="-1.45865">
        <ele>312.5</ele>
      </trkpt>
      <trkpt lat="42.22047" lon="-1.45852">
        <ele>312.5</ele>
      </trkpt>
      <trkpt lat="42.22063" lon="-1.45828">
        <ele>312.3</ele>
      </trkpt>
      <trkpt lat="42.22089" lon="-1.45802">
        <ele>313</ele>
      </trkpt>
      <trkpt lat="42.22121" lon="-1.45766">
        <ele>314.4</ele>
      </trkpt>
      <trkpt lat="42.22169" lon="-1.45726">
        <ele>315.1</ele>
      </trkpt>
      <trkpt lat="42.22343" lon="-1.45636">
        <ele>319.3</ele>
      </trkpt>
      <trkpt lat="42.22405" lon="-1.45614">
        <ele>320.6</ele>
      </trkpt>
      <trkpt lat="42.22468" lon="-1.45597">
        <ele>322.8</ele>
      </trkpt>
      <trkpt lat="42.22524" lon="-1.45575">
        <ele>323.7</ele>
      </trkpt>
      <trkpt lat="42.22552" lon="-1.45561">
        <ele>323</ele>
      </trkpt>
      <trkpt lat="42.22564" lon="-1.45559">
        <ele>323.2</ele>
      </trkpt>
      <trkpt lat="42.2265" lon="-1.45549">
        <ele>329.1</ele>
      </trkpt>
      <trkpt lat="42.227" lon="-1.45548">
        <ele>329.8</ele>
      </trkpt>
      <trkpt lat="42.2279" lon="-1.45536">
        <ele>332.2</ele>
      </trkpt>
      <trkpt lat="42.22802" lon="-1.45532">
        <ele>332.6</ele>
      </trkpt>
      <trkpt lat="42.22814" lon="-1.45525">
        <ele>333.2</ele>
      </trkpt>
      <trkpt lat="42.22828" lon="-1.45514">
        <ele>333.6</ele>
      </trkpt>
      <trkpt lat="42.22853" lon="-1.45489">
        <ele>334.7</ele>
      </trkpt>
      <trkpt lat="42.2288" lon="-1.45472">
        <ele>335</ele>
      </trkpt>
      <trkpt lat="42.22978" lon="-1.45439">
        <ele>343.2</ele>
      </trkpt>
      <trkpt lat="42.22986" lon="-1.45433">
        <ele>343.5</ele>
      </trkpt>
      <trkpt lat="42.22997" lon="-1.45417">
        <ele>345</ele>
      </trkpt>
      <trkpt lat="42.2301" lon="-1.45375">
        <ele>345.8</ele>
      </trkpt>
      <trkpt lat="42.23017" lon="-1.45358">
        <ele>346.2</ele>
      </trkpt>
      <trkpt lat="42.23037" lon="-1.45323">
        <ele>348.2</ele>
      </trkpt>
      <trkpt lat="42.23054" lon="-1.45299">
        <ele>347.4</ele>
      </trkpt>
      <trkpt lat="42.23098" lon="-1.45245">
        <ele>350.6</ele>
      </trkpt>
      <trkpt lat="42.23163" lon="-1.45182">
        <ele>350.1</ele>
      </trkpt>
      <trkpt lat="42.23183" lon="-1.45161">
        <ele>350</ele>
      </trkpt>
      <trkpt lat="42.23246" lon="-1.45095">
        <ele>348.8</ele>
      </trkpt>
      <trkpt lat="42.23263" lon="-1.45074">
        <ele>348.5</ele>
      </trkpt>
      <trkpt lat="42.23273" lon="-1.45059">
        <ele>348.5</ele>
      </trkpt>
      <trkpt lat="42.23284" lon="-1.45038">
        <ele>347.8</ele>
      </trkpt>
      <trkpt lat="42.23296" lon="-1.45007">
        <ele>346.6</ele>
      </trkpt>
      <trkpt lat="42.23316" lon="-1.44934">
        <ele>346.2</ele>
      </trkpt>
      <trkpt lat="42.23342" lon="-1.4488">
        <ele>346.4</ele>
      </trkpt>
      <trkpt lat="42.23355" lon="-1.4486">
        <ele>345.8</ele>
      </trkpt>
      <trkpt lat="42.23414" lon="-1.44807">
        <ele>341.8</ele>
      </trkpt>
      <trkpt lat="42.23446" lon="-1.44773">
        <ele>344.3</ele>
      </trkpt>
      <trkpt lat="42.23529" lon="-1.44703">
        <ele>350</ele>
      </trkpt>
      <trkpt lat="42.23562" lon="-1.44669">
        <ele>350.2</ele>
      </trkpt>
      <trkpt lat="42.23575" lon="-1.44645">
        <ele>350.5</ele>
      </trkpt>
      <trkpt lat="42.23581" lon="-1.44629">
        <ele>350.9</ele>
      </trkpt>
      <trkpt lat="42.23586" lon="-1.44583">
        <ele>351</ele>
      </trkpt>
      <trkpt lat="42.23589" lon="-1.44492">
        <ele>349.4</ele>
      </trkpt>
      <trkpt lat="42.23589" lon="-1.44445">
        <ele>350</ele>
      </trkpt>
      <trkpt lat="42.23584" lon="-1.44402">
        <ele>351</ele>
      </trkpt>
      <trkpt lat="42.23565" lon="-1.44344">
        <ele>352</ele>
      </trkpt>
      <trkpt lat="42.23564" lon="-1.44326">
        <ele>352</ele>
      </trkpt>
      <trkpt lat="42.23565" lon="-1.44314">
        <ele>352</ele>
      </trkpt>
      <trkpt lat="42.23568" lon="-1.44302">
        <ele>352.1</ele>
      </trkpt>
      <trkpt lat="42.23592" lon="-1.44235">
        <ele>352</ele>
      </trkpt>
      <trkpt lat="42.23657" lon="-1.44069">
        <ele>350</ele>
      </trkpt>
      <trkpt lat="42.23666" lon="-1.44049">
        <ele>349.8</ele>
      </trkpt>
      <trkpt lat="42.23676" lon="-1.44033">
        <ele>349.2</ele>
      </trkpt>
      <trkpt lat="42.23717" lon="-1.4398">
        <ele>347.4</ele>
      </trkpt>
      <trkpt lat="42.23771" lon="-1.43901">
        <ele>345.4</ele>
      </trkpt>
      <trkpt lat="42.23784" lon="-1.43885">
        <ele>344.8</ele>
      </trkpt>
      <trkpt lat="42.23858" lon="-1.43812">
        <ele>345.7</ele>
      </trkpt>
      <trkpt lat="42.24089" lon="-1.43555">
        <ele>342.8</ele>
      </trkpt>
      <trkpt lat="42.24125" lon="-1.43534">
        <ele>341.6</ele>
      </trkpt>
      <trkpt lat="42.24141" lon="-1.43528">
        <ele>340.9</ele>
      </trkpt>
      <trkpt lat="42.24172" lon="-1.43525">
        <ele>339.7</ele>
      </trkpt>
      <trkpt lat="42.24214" lon="-1.4353">
        <ele>342.7</ele>
      </trkpt>
      <trkpt lat="42.24225" lon="-1.43529">
        <ele>343.1</ele>
      </trkpt>
      <trkpt lat="42.24236" lon="-1.43526">
        <ele>343.5</ele>
      </trkpt>
      <trkpt lat="42.24453" lon="-1.43401">
        <ele>341.6</ele>
      </trkpt>
      <trkpt lat="42.24558" lon="-1.43348">
        <ele>344</ele>
      </trkpt>
      <trkpt lat="42.24571" lon="-1.43339">
        <ele>344</ele>
      </trkpt>
      <trkpt lat="42.24592" lon="-1.43316">
        <ele>344.7</ele>
      </trkpt>
      <trkpt lat="42.24606" lon="-1.43296">
        <ele>345.3</ele>
      </trkpt>
      <trkpt lat="42.24672" lon="-1.43186">
        <ele>348.1</ele>
      </trkpt>
      <trkpt lat="42.24708" lon="-1.43142">
        <ele>349.5</ele>
      </trkpt>
      <trkpt lat="42.24718" lon="-1.43134">
        <ele>350</ele>
      </trkpt>
      <trkpt lat="42.24729" lon="-1.4313">
        <ele>350.6</ele>
      </trkpt>
      <trkpt lat="42.24753" lon="-1.43125">
        <ele>351.4</ele>
      </trkpt>
      <trkpt lat="42.24927" lon="-1.43107">
        <ele>352.5</ele>
      </trkpt>
      <trkpt lat="42.25017" lon="-1.4309">
        <ele>354.6</ele>
      </trkpt>
      <trkpt lat="42.25035" lon="-1.43089">
        <ele>355.1</ele>
      </trkpt>
      <trkpt lat="42.25055" lon="-1.43091">
        <ele>355.3</ele>
      </trkpt>
      <trkpt lat="42.25071" lon="-1.43095">
        <ele>356</ele>
      </trkpt>
      <trkpt lat="42.25111" lon="-1.43112">
        <ele>358</ele>
      </trkpt>
      <trkpt lat="42.25126" lon="-1.43116">
        <ele>358.5</ele>
      </trkpt>
      <trkpt lat="42.25145" lon="-1.43115">
        <ele>359</ele>
      </trkpt>
      <trkpt lat="42.2516" lon="-1.43111">
        <ele>359</ele>
      </trkpt>
      <trkpt lat="42.25184" lon="-1.43102">
        <ele>359</ele>
      </trkpt>
      <trkpt lat="42.25197" lon="-1.43093">
        <ele>359</ele>
      </trkpt>
      <trkpt lat="42.25203" lon="-1.43084">
        <ele>359</ele>
      </trkpt>
      <trkpt lat="42.25211" lon="-1.43067">
        <ele>359</ele>
      </trkpt>
      <trkpt lat="42.25229" lon="-1.43014">
        <ele>361.7</ele>
      </trkpt>
      <trkpt lat="42.25237" lon="-1.43002">
        <ele>362.3</ele>
      </trkpt>
      <trkpt lat="42.2525" lon="-1.42988">
        <ele>362.4</ele>
      </trkpt>
      <trkpt lat="42.253" lon="-1.42949">
        <ele>361.9</ele>
      </trkpt>
      <trkpt lat="42.25333" lon="-1.42952">
        <ele>361.5</ele>
      </trkpt>
      <trkpt lat="42.25337" lon="-1.4293">
        <ele>363</ele>
      </trkpt>
      <trkpt lat="42.25342" lon="-1.42921">
        <ele>363.7</ele>
      </trkpt>
      <trkpt lat="42.25353" lon="-1.42909">
        <ele>364.1</ele>
      </trkpt>
      <trkpt lat="42.25359" lon="-1.429">
        <ele>364</ele>
      </trkpt>
      <trkpt lat="42.25363" lon="-1.42886">
        <ele>363.8</ele>
      </trkpt>
      <trkpt lat="42.25364" lon="-1.42864">
        <ele>363.1</ele>
      </trkpt>
      <trkpt lat="42.25343" lon="-1.42828">
        <ele>362.9</ele>
      </trkpt>
      <trkpt lat="42.25322" lon="-1.42782">
        <ele>363.3</ele>
      </trkpt>
      <trkpt lat="42.25312" lon="-1.4275">
        <ele>363.8</ele>
      </trkpt>
      <trkpt lat="42.253" lon="-1.42688">
        <ele>364.2</ele>
      </trkpt>
      <trkpt lat="42.25271" lon="-1.42597">
        <ele>365.2</ele>
      </trkpt>
      <trkpt lat="42.2526" lon="-1.42558">
        <ele>366.2</ele>
      </trkpt>
      <trkpt lat="42.25255" lon="-1.4253">
        <ele>366.6</ele>
      </trkpt>
      <trkpt lat="42.25243" lon="-1.42437">
        <ele>366.1</ele>
      </trkpt>
      <trkpt lat="42.25241" lon="-1.42411">
        <ele>365.9</ele>
      </trkpt>
      <trkpt lat="42.25247" lon="-1.42334">
        <ele>366.1</ele>
      </trkpt>
      <trkpt lat="42.25247" lon="-1.42312">
        <ele>366.1</ele>
      </trkpt>
      <trkpt lat="42.25246" lon="-1.42292">
        <ele>366.1</ele>
      </trkpt>
      <trkpt lat="42.25227" lon="-1.42197">
        <ele>367</ele>
      </trkpt>
      <trkpt lat="42.25222" lon="-1.42151">
        <ele>366.6</ele>
      </trkpt>
      <trkpt lat="42.2522" lon="-1.42099">
        <ele>367</ele>
      </trkpt>
      <trkpt lat="42.25217" lon="-1.42082">
        <ele>367</ele>
      </trkpt>
      <trkpt lat="42.25213" lon="-1.42068">
        <ele>367.2</ele>
      </trkpt>
      <trkpt lat="42.2519" lon="-1.4202">
        <ele>368.3</ele>
      </trkpt>
      <trkpt lat="42.25183" lon="-1.42001">
        <ele>369</ele>
      </trkpt>
      <trkpt lat="42.2518" lon="-1.41985">
        <ele>369.3</ele>
      </trkpt>
      <trkpt lat="42.25179" lon="-1.41937">
        <ele>369.6</ele>
      </trkpt>
      <trkpt lat="42.25182" lon="-1.41913">
        <ele>369.4</ele>
      </trkpt>
      <trkpt lat="42.25186" lon="-1.41894">
        <ele>369.3</ele>
      </trkpt>
      <trkpt lat="42.25192" lon="-1.41884">
        <ele>369.1</ele>
      </trkpt>
      <trkpt lat="42.25237" lon="-1.4182">
        <ele>367</ele>
      </trkpt>
      <trkpt lat="42.25248" lon="-1.41795">
        <ele>367.2</ele>
      </trkpt>
      <trkpt lat="42.25255" lon="-1.41783">
        <ele>367.9</ele>
      </trkpt>
      <trkpt lat="42.25304" lon="-1.41733">
        <ele>368.9</ele>
      </trkpt>
      <trkpt lat="42.2532" lon="-1.41714">
        <ele>368.5</ele>
      </trkpt>
      <trkpt lat="42.25334" lon="-1.41692">
        <ele>368.1</ele>
      </trkpt>
      <trkpt lat="42.25362" lon="-1.41639">
        <ele>368</ele>
      </trkpt>
      <trkpt lat="42.25373" lon="-1.41623">
        <ele>367.6</ele>
      </trkpt>
      <trkpt lat="42.25391" lon="-1.41606">
        <ele>367.2</ele>
      </trkpt>
      <trkpt lat="42.25457" lon="-1.41561">
        <ele>367.7</ele>
      </trkpt>
      <trkpt lat="42.25492" lon="-1.41531">
        <ele>368.3</ele>
      </trkpt>
      <trkpt lat="42.25505" lon="-1.41516">
        <ele>369.1</ele>
        <extensions>
          <visugpx:TrkExtension xmlns:visugpx="https://www.visugpx.com/editgpx/">
            <visugpx:node>5</visugpx:node>
            </visugpx:TrkExtension>
        </extensions>
      </trkpt>
      <trkpt lat="42.25506" lon="-1.41515">
        <ele>369.2</ele>
      </trkpt>
      <trkpt lat="42.2551" lon="-1.41513">
        <ele>369.4</ele>
      </trkpt>
      <trkpt lat="42.25518" lon="-1.41517">
        <ele>369.6</ele>
      </trkpt>
      <trkpt lat="42.25524" lon="-1.41528">
        <ele>369.7</ele>
      </trkpt>
      <trkpt lat="42.2553" lon="-1.41551">
        <ele>370.1</ele>
      </trkpt>
      <trkpt lat="42.25538" lon="-1.41562">
        <ele>370.1</ele>
      </trkpt>
      <trkpt lat="42.25563" lon="-1.41583">
        <ele>370.5</ele>
      </trkpt>
      <trkpt lat="42.25675" lon="-1.41749">
        <ele>370.4</ele>
      </trkpt>
      <trkpt lat="42.25717" lon="-1.41818">
        <ele>369.4</ele>
      </trkpt>
      <trkpt lat="42.2573" lon="-1.4183">
        <ele>369.2</ele>
      </trkpt>
      <trkpt lat="42.25742" lon="-1.41837">
        <ele>368.9</ele>
      </trkpt>
      <trkpt lat="42.25903" lon="-1.41873">
        <ele>367.6</ele>
      </trkpt>
      <trkpt lat="42.26097" lon="-1.41889">
        <ele>367</ele>
      </trkpt>
      <trkpt lat="42.26175" lon="-1.41898">
        <ele>366.2</ele>
      </trkpt>
      <trkpt lat="42.26194" lon="-1.41896">
        <ele>366.7</ele>
      </trkpt>
      <trkpt lat="42.26317" lon="-1.41864">
        <ele>366</ele>
      </trkpt>
      <trkpt lat="42.26353" lon="-1.41858">
        <ele>365.4</ele>
      </trkpt>
      <trkpt lat="42.26499" lon="-1.41846">
        <ele>366.5</ele>
      </trkpt>
      <trkpt lat="42.26513" lon="-1.41848">
        <ele>366.9</ele>
      </trkpt>
      <trkpt lat="42.26523" lon="-1.41854">
        <ele>367.1</ele>
      </trkpt>
      <trkpt lat="42.26539" lon="-1.41863">
        <ele>367</ele>
      </trkpt>
      <trkpt lat="42.26562" lon="-1.41871">
        <ele>367</ele>
      </trkpt>
      <trkpt lat="42.26582" lon="-1.41875">
        <ele>367</ele>
      </trkpt>
      <trkpt lat="42.26614" lon="-1.4188">
        <ele>365.8</ele>
      </trkpt>
      <trkpt lat="42.26648" lon="-1.4188">
        <ele>363.7</ele>
      </trkpt>
      <trkpt lat="42.26688" lon="-1.4187">
        <ele>362</ele>
      </trkpt>
      <trkpt lat="42.26699" lon="-1.41863">
        <ele>361.8</ele>
      </trkpt>
      <trkpt lat="42.26711" lon="-1.41852">
        <ele>361.5</ele>
      </trkpt>
      <trkpt lat="42.26721" lon="-1.41834">
        <ele>361.1</ele>
      </trkpt>
      <trkpt lat="42.26747" lon="-1.41793">
        <ele>359.9</ele>
      </trkpt>
      <trkpt lat="42.26763" lon="-1.41772">
        <ele>359.3</ele>
      </trkpt>
      <trkpt lat="42.26777" lon="-1.41759">
        <ele>359.4</ele>
      </trkpt>
      <trkpt lat="42.26801" lon="-1.41745">
        <ele>359.3</ele>
      </trkpt>
      <trkpt lat="42.26824" lon="-1.41729">
        <ele>360.3</ele>
      </trkpt>
      <trkpt lat="42.26909" lon="-1.41683">
        <ele>360.6</ele>
      </trkpt>
      <trkpt lat="42.26941" lon="-1.41673">
        <ele>360.8</ele>
      </trkpt>
      <trkpt lat="42.26972" lon="-1.4167">
        <ele>360.9</ele>
      </trkpt>
      <trkpt lat="42.27031" lon="-1.41669">
        <ele>363.4</ele>
      </trkpt>
      <trkpt lat="42.27103" lon="-1.4168">
        <ele>365.4</ele>
      </trkpt>
      <trkpt lat="42.27151" lon="-1.41693">
        <ele>367.5</ele>
      </trkpt>
      <trkpt lat="42.27163" lon="-1.41693">
        <ele>367.9</ele>
      </trkpt>
      <trkpt lat="42.2718" lon="-1.41689">
        <ele>368.2</ele>
      </trkpt>
      <trkpt lat="42.27196" lon="-1.41676">
        <ele>368.7</ele>
      </trkpt>
      <trkpt lat="42.27218" lon="-1.41654">
        <ele>369</ele>
      </trkpt>
      <trkpt lat="42.27252" lon="-1.41637">
        <ele>371.1</ele>
      </trkpt>
      <trkpt lat="42.27264" lon="-1.41634">
        <ele>371.2</ele>
      </trkpt>
      <trkpt lat="42.27278" lon="-1.41635">
        <ele>371.1</ele>
      </trkpt>
      <trkpt lat="42.27304" lon="-1.4164">
        <ele>371.9</ele>
      </trkpt>
      <trkpt lat="42.27317" lon="-1.4164">
        <ele>372</ele>
      </trkpt>
      <trkpt lat="42.2733" lon="-1.41638">
        <ele>372</ele>
      </trkpt>
      <trkpt lat="42.27342" lon="-1.41629">
        <ele>372.8</ele>
      </trkpt>
      <trkpt lat="42.2738" lon="-1.41587">
        <ele>374.2</ele>
      </trkpt>
      <trkpt lat="42.27388" lon="-1.41582">
        <ele>374</ele>
      </trkpt>
      <trkpt lat="42.27451" lon="-1.41574">
        <ele>373</ele>
      </trkpt>
      <trkpt lat="42.27553" lon="-1.41558">
        <ele>372.9</ele>
      </trkpt>
      <trkpt lat="42.27621" lon="-1.41545">
        <ele>372.4</ele>
      </trkpt>
      <trkpt lat="42.27621" lon="-1.41545">
        <ele>372.4</ele>
        <extensions>
          <visugpx:TrkExtension xmlns:visugpx="https://www.visugpx.com/editgpx/">
            <visugpx:node>6</visugpx:node>
            </visugpx:TrkExtension>
        </extensions>
      </trkpt>
      <trkpt lat="42.27621" lon="-1.41545">
        <ele>372.4</ele>
      </trkpt>
      <trkpt lat="42.27685" lon="-1.41532">
        <ele>372.1</ele>
      </trkpt>
      <trkpt lat="42.27698" lon="-1.41532">
        <ele>372</ele>
      </trkpt>
      <trkpt lat="42.27714" lon="-1.41536">
        <ele>372.4</ele>
      </trkpt>
      <trkpt lat="42.2781" lon="-1.41575">
        <ele>373</ele>
      </trkpt>
      <trkpt lat="42.27821" lon="-1.41577">
        <ele>373</ele>
      </trkpt>
      <trkpt lat="42.2792" lon="-1.41582">
        <ele>375.1</ele>
      </trkpt>
      <trkpt lat="42.28021" lon="-1.41591">
        <ele>376.5</ele>
      </trkpt>
      <trkpt lat="42.28119" lon="-1.41611">
        <ele>378.3</ele>
      </trkpt>
      <trkpt lat="42.2823" lon="-1.41629">
        <ele>379.4</ele>
      </trkpt>
      <trkpt lat="42.28244" lon="-1.41633">
        <ele>379.2</ele>
      </trkpt>
      <trkpt lat="42.28276" lon="-1.41648">
        <ele>379.6</ele>
      </trkpt>
      <trkpt lat="42.28291" lon="-1.41656">
        <ele>379.4</ele>
      </trkpt>
      <trkpt lat="42.28334" lon="-1.41686">
        <ele>378.3</ele>
      </trkpt>
      <trkpt lat="42.28354" lon="-1.41696">
        <ele>378</ele>
      </trkpt>
      <trkpt lat="42.2839" lon="-1.41704">
        <ele>378.7</ele>
      </trkpt>
      <trkpt lat="42.28418" lon="-1.41704">
        <ele>378.7</ele>
      </trkpt>
      <trkpt lat="42.28425" lon="-1.41707">
        <ele>379</ele>
      </trkpt>
      <trkpt lat="42.28457" lon="-1.41732">
        <ele>380.4</ele>
      </trkpt>
      <trkpt lat="42.28488" lon="-1.41754">
        <ele>382.8</ele>
      </trkpt>
      <trkpt lat="42.28513" lon="-1.41775">
        <ele>382.9</ele>
      </trkpt>
      <trkpt lat="42.28527" lon="-1.41781">
        <ele>382.7</ele>
      </trkpt>
      <trkpt lat="42.28575" lon="-1.41791">
        <ele>384.7</ele>
      </trkpt>
      <trkpt lat="42.28647" lon="-1.41783">
        <ele>383.1</ele>
      </trkpt>
      <trkpt lat="42.28713" lon="-1.41776">
        <ele>383</ele>
      </trkpt>
      <trkpt lat="42.28944" lon="-1.41744">
        <ele>386</ele>
      </trkpt>
      <trkpt lat="42.28965" lon="-1.41746">
        <ele>386.7</ele>
      </trkpt>
      <trkpt lat="42.28985" lon="-1.41752">
        <ele>387</ele>
      </trkpt>
      <trkpt lat="42.2905" lon="-1.41783">
        <ele>387.8</ele>
      </trkpt>
      <trkpt lat="42.29133" lon="-1.41818">
        <ele>387.5</ele>
      </trkpt>
      <trkpt lat="42.29159" lon="-1.41827">
        <ele>387.4</ele>
      </trkpt>
      <trkpt lat="42.29182" lon="-1.41832">
        <ele>387.6</ele>
      </trkpt>
      <trkpt lat="42.292" lon="-1.41831">
        <ele>387.9</ele>
      </trkpt>
      <trkpt lat="42.29244" lon="-1.41821">
        <ele>387.4</ele>
      </trkpt>
      <trkpt lat="42.29276" lon="-1.41817">
        <ele>387</ele>
      </trkpt>
      <trkpt lat="42.29285" lon="-1.41817">
        <ele>387.2</ele>
      </trkpt>
      <trkpt lat="42.29293" lon="-1.41822">
        <ele>387.2</ele>
      </trkpt>
      <trkpt lat="42.29299" lon="-1.41829">
        <ele>387.1</ele>
      </trkpt>
      <trkpt lat="42.29331" lon="-1.41887">
        <ele>385</ele>
      </trkpt>
      <trkpt lat="42.29362" lon="-1.41937">
        <ele>384.3</ele>
      </trkpt>
      <trkpt lat="42.29372" lon="-1.41961">
        <ele>384.4</ele>
      </trkpt>
      <trkpt lat="42.29379" lon="-1.41971">
        <ele>384.3</ele>
      </trkpt>
      <trkpt lat="42.2941" lon="-1.42003">
        <ele>383.6</ele>
      </trkpt>
      <trkpt lat="42.29428" lon="-1.42028">
        <ele>383.6</ele>
      </trkpt>
      <trkpt lat="42.29444" lon="-1.42047">
        <ele>384.6</ele>
      </trkpt>
      <trkpt lat="42.29532" lon="-1.42105">
        <ele>387.2</ele>
      </trkpt>
      <trkpt lat="42.29551" lon="-1.42113">
        <ele>387.9</ele>
      </trkpt>
      <trkpt lat="42.29614" lon="-1.4213">
        <ele>386.7</ele>
      </trkpt>
      <trkpt lat="42.29629" lon="-1.42137">
        <ele>386.8</ele>
      </trkpt>
      <trkpt lat="42.29644" lon="-1.42149">
        <ele>386</ele>
      </trkpt>
      <trkpt lat="42.29663" lon="-1.42166">
        <ele>384.9</ele>
      </trkpt>
      <trkpt lat="42.29709" lon="-1.42175">
        <ele>386.4</ele>
      </trkpt>
      <trkpt lat="42.29725" lon="-1.42194">
        <ele>388.1</ele>
      </trkpt>
      <trkpt lat="42.29745" lon="-1.42205">
        <ele>388.8</ele>
      </trkpt>
      <trkpt lat="42.29785" lon="-1.42219">
        <ele>391</ele>
      </trkpt>
      <trkpt lat="42.2982" lon="-1.42236">
        <ele>391.5</ele>
      </trkpt>
      <trkpt lat="42.29834" lon="-1.4224">
        <ele>391.7</ele>
      </trkpt>
      <trkpt lat="42.29857" lon="-1.42241">
        <ele>392.2</ele>
      </trkpt>
      <trkpt lat="42.29899" lon="-1.42235">
        <ele>392.9</ele>
      </trkpt>
      <trkpt lat="42.29942" lon="-1.42225">
        <ele>394.6</ele>
      </trkpt>
      <trkpt lat="42.29981" lon="-1.42194">
        <ele>394.7</ele>
      </trkpt>
      <trkpt lat="42.30011" lon="-1.42174">
        <ele>395</ele>
      </trkpt>
      <trkpt lat="42.30038" lon="-1.42161">
        <ele>396.1</ele>
      </trkpt>
      <trkpt lat="42.30055" lon="-1.42144">
        <ele>396.8</ele>
      </trkpt>
      <trkpt lat="42.30068" lon="-1.42123">
        <ele>397.3</ele>
      </trkpt>
      <trkpt lat="42.30083" lon="-1.42086">
        <ele>398.9</ele>
      </trkpt>
      <trkpt lat="42.30108" lon="-1.41986">
        <ele>400.6</ele>
      </trkpt>
      <trkpt lat="42.30139" lon="-1.41903">
        <ele>402.5</ele>
      </trkpt>
      <trkpt lat="42.30144" lon="-1.41882">
        <ele>403.2</ele>
      </trkpt>
      <trkpt lat="42.30151" lon="-1.41802">
        <ele>404.9</ele>
      </trkpt>
      <trkpt lat="42.30156" lon="-1.41782">
        <ele>405.2</ele>
      </trkpt>
      <trkpt lat="42.30164" lon="-1.41766">
        <ele>405.4</ele>
      </trkpt>
      <trkpt lat="42.30174" lon="-1.41756">
        <ele>405.5</ele>
      </trkpt>
      <trkpt lat="42.30188" lon="-1.41747">
        <ele>405.8</ele>
      </trkpt>
      <trkpt lat="42.3021" lon="-1.41738">
        <ele>406.6</ele>
      </trkpt>
      <trkpt lat="42.30351" lon="-1.41706">
        <ele>409.4</ele>
      </trkpt>
      <trkpt lat="42.30455" lon="-1.41685">
        <ele>410</ele>
      </trkpt>
      <trkpt lat="42.30479" lon="-1.41682">
        <ele>410</ele>
        <extensions>
          <visugpx:TrkExtension xmlns:visugpx="https://www.visugpx.com/editgpx/">
            <visugpx:node>7</visugpx:node>
            </visugpx:TrkExtension>
        </extensions>
      </trkpt>
      <trkpt lat="42.30479" lon="-1.41682">
        <ele>410</ele>
      </trkpt>
      <trkpt lat="42.30495" lon="-1.4168">
        <ele>410</ele>
      </trkpt>
      <trkpt lat="42.30522" lon="-1.41679">
        <ele>410</ele>
      </trkpt>
      <trkpt lat="42.30511" lon="-1.41704">
        <ele>410.7</ele>
      </trkpt>
      <trkpt lat="42.30496" lon="-1.41718">
        <ele>411.6</ele>
      </trkpt>
      <trkpt lat="42.30484" lon="-1.41733">
        <ele>411.8</ele>
      </trkpt>
      <trkpt lat="42.30412" lon="-1.41832">
        <ele>410.8</ele>
      </trkpt>
      <trkpt lat="42.30378" lon="-1.41876">
        <ele>411</ele>
      </trkpt>
      <trkpt lat="42.30372" lon="-1.41899">
        <ele>410.7</ele>
      </trkpt>
      <trkpt lat="42.30372" lon="-1.41929">
        <ele>409</ele>
      </trkpt>
      <trkpt lat="42.30368" lon="-1.41951">
        <ele>407.2</ele>
      </trkpt>
      <trkpt lat="42.30346" lon="-1.42044">
        <ele>402.9</ele>
      </trkpt>
      <trkpt lat="42.30312" lon="-1.42137">
        <ele>402.2</ele>
      </trkpt>
      <trkpt lat="42.30285" lon="-1.42222">
        <ele>400.3</ele>
      </trkpt>
      <trkpt lat="42.30265" lon="-1.42259">
        <ele>398.5</ele>
      </trkpt>
      <trkpt lat="42.30211" lon="-1.42474">
        <ele>389.5</ele>
      </trkpt>
      <trkpt lat="42.30198" lon="-1.42538">
        <ele>387.8</ele>
      </trkpt>
      <trkpt lat="42.30192" lon="-1.42571">
        <ele>387</ele>
      </trkpt>
      <trkpt lat="42.30159" lon="-1.42679">
        <ele>385</ele>
      </trkpt>
      <trkpt lat="42.30145" lon="-1.42773">
        <ele>384.3</ele>
      </trkpt>
      <trkpt lat="42.30145" lon="-1.42826">
        <ele>383.4</ele>
      </trkpt>
      <trkpt lat="42.30143" lon="-1.42848">
        <ele>383.3</ele>
      </trkpt>
      <trkpt lat="42.30129" lon="-1.4291">
        <ele>383.3</ele>
      </trkpt>
      <trkpt lat="42.30082" lon="-1.43132">
        <ele>380</ele>
      </trkpt>
      <trkpt lat="42.30052" lon="-1.43229">
        <ele>378.9</ele>
      </trkpt>
      <trkpt lat="42.3004" lon="-1.43284">
        <ele>378.5</ele>
      </trkpt>
      <trkpt lat="42.30026" lon="-1.43361">
        <ele>378</ele>
      </trkpt>
      <trkpt lat="42.30017" lon="-1.43384">
        <ele>378</ele>
      </trkpt>
      <trkpt lat="42.30007" lon="-1.43398">
        <ele>377.8</ele>
      </trkpt>
      <trkpt lat="42.30002" lon="-1.43413">
        <ele>377.8</ele>
      </trkpt>
      <trkpt lat="42.30001" lon="-1.43439">
        <ele>377.9</ele>
      </trkpt>
      <trkpt lat="42.30002" lon="-1.43448">
        <ele>377.3</ele>
      </trkpt>
      <trkpt lat="42.30018" lon="-1.43483">
        <ele>376.8</ele>
      </trkpt>
      <trkpt lat="42.30017" lon="-1.43499">
        <ele>377.6</ele>
      </trkpt>
      <trkpt lat="42.30014" lon="-1.43522">
        <ele>377.9</ele>
      </trkpt>
      <trkpt lat="42.29988" lon="-1.43617">
        <ele>377.7</ele>
      </trkpt>
      <trkpt lat="42.29952" lon="-1.43714">
        <ele>377.8</ele>
      </trkpt>
      <trkpt lat="42.2992" lon="-1.43771">
        <ele>377.8</ele>
      </trkpt>
      <trkpt lat="42.29799" lon="-1.43917">
        <ele>377</ele>
      </trkpt>
      <trkpt lat="42.29758" lon="-1.43969">
        <ele>376.9</ele>
      </trkpt>
      <trkpt lat="42.29711" lon="-1.44014">
        <ele>376.4</ele>
      </trkpt>
      <trkpt lat="42.2968" lon="-1.44055">
        <ele>375.5</ele>
      </trkpt>
      <trkpt lat="42.29655" lon="-1.44073">
        <ele>376.1</ele>
      </trkpt>
      <trkpt lat="42.29638" lon="-1.44089">
        <ele>376.9</ele>
      </trkpt>
      <trkpt lat="42.29594" lon="-1.44118">
        <ele>376.5</ele>
      </trkpt>
      <trkpt lat="42.29586" lon="-1.44121">
        <ele>376.4</ele>
      </trkpt>
      <trkpt lat="42.2955" lon="-1.44147">
        <ele>376.9</ele>
      </trkpt>
      <trkpt lat="42.29481" lon="-1.44208">
        <ele>377.2</ele>
      </trkpt>
      <trkpt lat="42.29438" lon="-1.44246">
        <ele>377.7</ele>
      </trkpt>
      <trkpt lat="42.29365" lon="-1.44305">
        <ele>377.1</ele>
      </trkpt>
      <trkpt lat="42.29329" lon="-1.44343">
        <ele>376.6</ele>
      </trkpt>
      <trkpt lat="42.29156" lon="-1.44439">
        <ele>373.9</ele>
      </trkpt>
      <trkpt lat="42.29139" lon="-1.44457">
        <ele>374.9</ele>
      </trkpt>
      <trkpt lat="42.29111" lon="-1.44473">
        <ele>376.1</ele>
      </trkpt>
      <trkpt lat="42.29079" lon="-1.44481">
        <ele>376.1</ele>
      </trkpt>
      <trkpt lat="42.29017" lon="-1.44488">
        <ele>377.1</ele>
      </trkpt>
      <trkpt lat="42.28914" lon="-1.445">
        <ele>376.9</ele>
      </trkpt>
      <trkpt lat="42.28891" lon="-1.44507">
        <ele>376.3</ele>
      </trkpt>
      <trkpt lat="42.2886" lon="-1.44522">
        <ele>375.7</ele>
      </trkpt>
      <trkpt lat="42.28833" lon="-1.44544">
        <ele>374.6</ele>
      </trkpt>
      <trkpt lat="42.28779" lon="-1.44582">
        <ele>376</ele>
      </trkpt>
      <trkpt lat="42.28747" lon="-1.44596">
        <ele>375.3</ele>
      </trkpt>
      <trkpt lat="42.28709" lon="-1.44603">
        <ele>374.7</ele>
      </trkpt>
      <trkpt lat="42.28662" lon="-1.44624">
        <ele>375.4</ele>
      </trkpt>
      <trkpt lat="42.28636" lon="-1.44632">
        <ele>374.9</ele>
      </trkpt>
      <trkpt lat="42.28608" lon="-1.44653">
        <ele>375.3</ele>
      </trkpt>
      <trkpt lat="42.2857" lon="-1.44664">
        <ele>374.2</ele>
      </trkpt>
      <trkpt lat="42.28544" lon="-1.44683">
        <ele>374.8</ele>
      </trkpt>
      <trkpt lat="42.28484" lon="-1.44735">
        <ele>375.1</ele>
      </trkpt>
      <trkpt lat="42.28476" lon="-1.44742">
        <ele>374.9</ele>
      </trkpt>
      <trkpt lat="42.28421" lon="-1.4478">
        <ele>374.4</ele>
      </trkpt>
      <trkpt lat="42.28386" lon="-1.44819">
        <ele>374.4</ele>
      </trkpt>
      <trkpt lat="42.28356" lon="-1.44849">
        <ele>374.5</ele>
      </trkpt>
      <trkpt lat="42.28304" lon="-1.44887">
        <ele>374.9</ele>
      </trkpt>
      <trkpt lat="42.28157" lon="-1.44966">
        <ele>375.6</ele>
      </trkpt>
      <trkpt lat="42.28001" lon="-1.45011">
        <ele>370.6</ele>
      </trkpt>
      <trkpt lat="42.27973" lon="-1.45021">
        <ele>369.3</ele>
      </trkpt>
      <trkpt lat="42.27947" lon="-1.45037">
        <ele>369</ele>
      </trkpt>
      <trkpt lat="42.27911" lon="-1.45065">
        <ele>369.9</ele>
      </trkpt>
      <trkpt lat="42.27883" lon="-1.45099">
        <ele>368.9</ele>
      </trkpt>
      <trkpt lat="42.27863" lon="-1.45128">
        <ele>368</ele>
      </trkpt>
      <trkpt lat="42.27857" lon="-1.45149">
        <ele>367.6</ele>
      </trkpt>
      <trkpt lat="42.27844" lon="-1.45169">
        <ele>366.9</ele>
      </trkpt>
      <trkpt lat="42.27818" lon="-1.45189">
        <ele>366.7</ele>
      </trkpt>
      <trkpt lat="42.2779" lon="-1.45208">
        <ele>366.4</ele>
      </trkpt>
      <trkpt lat="42.27776" lon="-1.45221">
        <ele>365.9</ele>
      </trkpt>
      <trkpt lat="42.27731" lon="-1.4528">
        <ele>364.7</ele>
      </trkpt>
      <trkpt lat="42.27704" lon="-1.45329">
        <ele>365.2</ele>
      </trkpt>
      <trkpt lat="42.27694" lon="-1.45339">
        <ele>365.4</ele>
      </trkpt>
      <trkpt lat="42.27679" lon="-1.45349">
        <ele>365.3</ele>
      </trkpt>
      <trkpt lat="42.27659" lon="-1.45367">
        <ele>364.7</ele>
      </trkpt>
      <trkpt lat="42.27642" lon="-1.45389">
        <ele>364.2</ele>
      </trkpt>
      <trkpt lat="42.27631" lon="-1.45415">
        <ele>363.7</ele>
      </trkpt>
      <trkpt lat="42.27606" lon="-1.45454">
        <ele>362.2</ele>
      </trkpt>
      <trkpt lat="42.27595" lon="-1.45464">
        <ele>362.1</ele>
      </trkpt>
      <trkpt lat="42.27586" lon="-1.45469">
        <ele>362</ele>
      </trkpt>
      <trkpt lat="42.27579" lon="-1.45477">
        <ele>361.5</ele>
      </trkpt>
      <trkpt lat="42.27567" lon="-1.45499">
        <ele>360.2</ele>
      </trkpt>
      <trkpt lat="42.27558" lon="-1.4553">
        <ele>358.4</ele>
      </trkpt>
      <trkpt lat="42.27555" lon="-1.45546">
        <ele>357.3</ele>
      </trkpt>
      <trkpt lat="42.27555" lon="-1.45565">
        <ele>356.6</ele>
      </trkpt>
      <trkpt lat="42.27552" lon="-1.45583">
        <ele>355.8</ele>
      </trkpt>
      <trkpt lat="42.27536" lon="-1.45633">
        <ele>354.5</ele>
      </trkpt>
      <trkpt lat="42.27534" lon="-1.45654">
        <ele>354.3</ele>
      </trkpt>
      <trkpt lat="42.27536" lon="-1.45689">
        <ele>354.6</ele>
      </trkpt>
      <trkpt lat="42.27541" lon="-1.45753">
        <ele>354.4</ele>
      </trkpt>
      <trkpt lat="42.27557" lon="-1.45819">
        <ele>354.8</ele>
      </trkpt>
      <trkpt lat="42.27559" lon="-1.45836">
        <ele>354.3</ele>
      </trkpt>
      <trkpt lat="42.27556" lon="-1.45855">
        <ele>353.3</ele>
      </trkpt>
      <trkpt lat="42.27527" lon="-1.45961">
        <ele>350.3</ele>
      </trkpt>
      <trkpt lat="42.27523" lon="-1.45993">
        <ele>349.3</ele>
      </trkpt>
      <trkpt lat="42.27516" lon="-1.46024">
        <ele>349.3</ele>
      </trkpt>
      <trkpt lat="42.27516" lon="-1.46042">
        <ele>348.4</ele>
      </trkpt>
      <trkpt lat="42.27525" lon="-1.46071">
        <ele>348</ele>
      </trkpt>
      <trkpt lat="42.27544" lon="-1.46099">
        <ele>348.3</ele>
      </trkpt>
      <trkpt lat="42.27559" lon="-1.46111">
        <ele>346.9</ele>
      </trkpt>
      <trkpt lat="42.27567" lon="-1.46128">
        <ele>343.6</ele>
      </trkpt>
      <trkpt lat="42.27578" lon="-1.4616">
        <ele>346.7</ele>
      </trkpt>
      <trkpt lat="42.27604" lon="-1.46267">
        <ele>348.7</ele>
      </trkpt>
      <trkpt lat="42.27637" lon="-1.46348">
        <ele>349</ele>
      </trkpt>
      <trkpt lat="42.27649" lon="-1.46408">
        <ele>349.1</ele>
      </trkpt>
      <trkpt lat="42.27653" lon="-1.46467">
        <ele>348</ele>
      </trkpt>
      <trkpt lat="42.27653" lon="-1.46512">
        <ele>347.7</ele>
      </trkpt>
      <trkpt lat="42.27657" lon="-1.46552">
        <ele>346.6</ele>
      </trkpt>
      <trkpt lat="42.27656" lon="-1.46568">
        <ele>347.1</ele>
      </trkpt>
      <trkpt lat="42.27652" lon="-1.46578">
        <ele>347.1</ele>
      </trkpt>
      <trkpt lat="42.2764" lon="-1.46589">
        <ele>345.6</ele>
      </trkpt>
      <trkpt lat="42.27624" lon="-1.46599">
        <ele>344.8</ele>
      </trkpt>
      <trkpt lat="42.27602" lon="-1.46618">
        <ele>343.8</ele>
      </trkpt>
      <trkpt lat="42.27559" lon="-1.46663">
        <ele>342.3</ele>
      </trkpt>
      <trkpt lat="42.27541" lon="-1.46693">
        <ele>342.4</ele>
      </trkpt>
      <trkpt lat="42.27533" lon="-1.46731">
        <ele>342.1</ele>
      </trkpt>
      <trkpt lat="42.2749" lon="-1.46877">
        <ele>340</ele>
      </trkpt>
      <trkpt lat="42.27455" lon="-1.47036">
        <ele>339.3</ele>
      </trkpt>
      <trkpt lat="42.27443" lon="-1.47109">
        <ele>336</ele>
      </trkpt>
      <trkpt lat="42.27438" lon="-1.4713">
        <ele>335.3</ele>
      </trkpt>
      <trkpt lat="42.27437" lon="-1.47156">
        <ele>337</ele>
      </trkpt>
      <trkpt lat="42.27434" lon="-1.47177">
        <ele>338.6</ele>
      </trkpt>
      <trkpt lat="42.27426" lon="-1.47207">
        <ele>338.7</ele>
      </trkpt>
      <trkpt lat="42.27422" lon="-1.47225">
        <ele>338.2</ele>
      </trkpt>
      <trkpt lat="42.27417" lon="-1.47255">
        <ele>338</ele>
      </trkpt>
      <trkpt lat="42.27405" lon="-1.47286">
        <ele>338.1</ele>
      </trkpt>
      <trkpt lat="42.2733" lon="-1.47423">
        <ele>336.9</ele>
      </trkpt>
      <trkpt lat="42.27301" lon="-1.47469">
        <ele>336.1</ele>
      </trkpt>
      <trkpt lat="42.27235" lon="-1.4756">
        <ele>334.1</ele>
      </trkpt>
      <trkpt lat="42.27201" lon="-1.47592">
        <ele>333.4</ele>
      </trkpt>
      <trkpt lat="42.2719" lon="-1.47604">
        <ele>331.8</ele>
      </trkpt>
      <trkpt lat="42.27176" lon="-1.47625">
        <ele>330.3</ele>
      </trkpt>
      <trkpt lat="42.27166" lon="-1.47646">
        <ele>330.2</ele>
      </trkpt>
      <trkpt lat="42.27152" lon="-1.47686">
        <ele>325.2</ele>
      </trkpt>
      <trkpt lat="42.27151" lon="-1.47695">
        <ele>323.6</ele>
      </trkpt>
      <trkpt lat="42.27154" lon="-1.47701">
        <ele>323.8</ele>
      </trkpt>
      <trkpt lat="42.2716" lon="-1.47712">
        <ele>324.7</ele>
      </trkpt>
      <trkpt lat="42.27167" lon="-1.47721">
        <ele>325.9</ele>
      </trkpt>
      <trkpt lat="42.27204" lon="-1.47768">
        <ele>331.5</ele>
      </trkpt>
      <trkpt lat="42.27235" lon="-1.4783">
        <ele>332</ele>
      </trkpt>
      <trkpt lat="42.27239" lon="-1.47842">
        <ele>332.3</ele>
      </trkpt>
      <trkpt lat="42.27243" lon="-1.47864">
        <ele>332.7</ele>
      </trkpt>
      <trkpt lat="42.27254" lon="-1.47906">
        <ele>333</ele>
      </trkpt>
      <trkpt lat="42.27269" lon="-1.47954">
        <ele>332.6</ele>
      </trkpt>
      <trkpt lat="42.27267" lon="-1.47975">
        <ele>333.1</ele>
      </trkpt>
      <trkpt lat="42.27267" lon="-1.48034">
        <ele>334</ele>
      </trkpt>
      <trkpt lat="42.27266" lon="-1.48052">
        <ele>334</ele>
      </trkpt>
      <trkpt lat="42.27263" lon="-1.48062">
        <ele>333.3</ele>
      </trkpt>
      <trkpt lat="42.27252" lon="-1.4808">
        <ele>329.9</ele>
      </trkpt>
      <trkpt lat="42.2725" lon="-1.4809">
        <ele>328.8</ele>
      </trkpt>
      <trkpt lat="42.27251" lon="-1.48098">
        <ele>328.6</ele>
      </trkpt>
      <trkpt lat="42.27254" lon="-1.48106">
        <ele>328.8</ele>
      </trkpt>
      <trkpt lat="42.27272" lon="-1.4814">
        <ele>328.2</ele>
      </trkpt>
      <trkpt lat="42.27274" lon="-1.48148">
        <ele>328.3</ele>
      </trkpt>
      <trkpt lat="42.27274" lon="-1.48159">
        <ele>328.5</ele>
      </trkpt>
      <trkpt lat="42.27263" lon="-1.48209">
        <ele>330.9</ele>
      </trkpt>
      <trkpt lat="42.27245" lon="-1.48278">
        <ele>335</ele>
      </trkpt>
      <trkpt lat="42.27241" lon="-1.483">
        <ele>335.8</ele>
      </trkpt>
      <trkpt lat="42.27239" lon="-1.48319">
        <ele>336</ele>
      </trkpt>
      <trkpt lat="42.27252" lon="-1.48453">
        <ele>338</ele>
      </trkpt>
      <trkpt lat="42.27262" lon="-1.48509">
        <ele>338.2</ele>
      </trkpt>
      <trkpt lat="42.27264" lon="-1.48552">
        <ele>337.2</ele>
      </trkpt>
      <trkpt lat="42.27257" lon="-1.48601">
        <ele>335.6</ele>
      </trkpt>
      <trkpt lat="42.2726" lon="-1.4861">
        <ele>334.4</ele>
      </trkpt>
      <trkpt lat="42.27304" lon="-1.48659">
        <ele>338.9</ele>
      </trkpt>
      <trkpt lat="42.27308" lon="-1.48668">
        <ele>338.9</ele>
      </trkpt>
      <trkpt lat="42.27308" lon="-1.48678">
        <ele>338.8</ele>
      </trkpt>
      <trkpt lat="42.27302" lon="-1.48707">
        <ele>339.1</ele>
      </trkpt>
      <trkpt lat="42.27303" lon="-1.48722">
        <ele>339.1</ele>
      </trkpt>
      <trkpt lat="42.27311" lon="-1.48758">
        <ele>339.9</ele>
      </trkpt>
      <trkpt lat="42.27326" lon="-1.48811">
        <ele>340</ele>
      </trkpt>
      <trkpt lat="42.2734" lon="-1.48852">
        <ele>340.5</ele>
      </trkpt>
      <trkpt lat="42.27378" lon="-1.48955">
        <ele>341.1</ele>
      </trkpt>
      <trkpt lat="42.27382" lon="-1.48968">
        <ele>341.2</ele>
      </trkpt>
      <trkpt lat="42.27385" lon="-1.4898">
        <ele>341.4</ele>
      </trkpt>
      <trkpt lat="42.27387" lon="-1.48997">
        <ele>342</ele>
      </trkpt>
      <trkpt lat="42.2738" lon="-1.49048">
        <ele>342.1</ele>
      </trkpt>
      <trkpt lat="42.27365" lon="-1.49092">
        <ele>342.8</ele>
      </trkpt>
      <trkpt lat="42.27361" lon="-1.49113">
        <ele>343</ele>
      </trkpt>
      <trkpt lat="42.2736" lon="-1.49135">
        <ele>343</ele>
      </trkpt>
      <trkpt lat="42.27362" lon="-1.49163">
        <ele>343.9</ele>
      </trkpt>
      <trkpt lat="42.27371" lon="-1.49217">
        <ele>344.6</ele>
      </trkpt>
      <trkpt lat="42.27372" lon="-1.49245">
        <ele>345.4</ele>
      </trkpt>
      <trkpt lat="42.27376" lon="-1.49284">
        <ele>346.1</ele>
      </trkpt>
      <trkpt lat="42.27367" lon="-1.49267">
        <ele>345.9</ele>
      </trkpt>
      <trkpt lat="42.27357" lon="-1.49256">
        <ele>346</ele>
      </trkpt>
      <trkpt lat="42.27343" lon="-1.49247">
        <ele>346</ele>
      </trkpt>
      <trkpt lat="42.27332" lon="-1.49243">
        <ele>346.1</ele>
      </trkpt>
      <trkpt lat="42.27321" lon="-1.49244">
        <ele>346.6</ele>
      </trkpt>
      <trkpt lat="42.27316" lon="-1.49245">
        <ele>346.8</ele>
        <extensions>
          <visugpx:TrkExtension xmlns:visugpx="https://www.visugpx.com/editgpx/">
            <visugpx:node>8</visugpx:node>
            </visugpx:TrkExtension>
        </extensions>
      </trkpt>
      <trkpt lat="42.27321" lon="-1.49244">
        <ele>346.6</ele>
      </trkpt>
      <trkpt lat="42.27332" lon="-1.49243">
        <ele>346.1</ele>
      </trkpt>
      <trkpt lat="42.27343" lon="-1.49247">
        <ele>346</ele>
      </trkpt>
      <trkpt lat="42.27357" lon="-1.49256">
        <ele>346</ele>
      </trkpt>
      <trkpt lat="42.27367" lon="-1.49267">
        <ele>345.9</ele>
      </trkpt>
      <trkpt lat="42.27376" lon="-1.49284">
        <ele>346.1</ele>
      </trkpt>
      <trkpt lat="42.27378" lon="-1.49309">
        <ele>346.4</ele>
      </trkpt>
      <trkpt lat="42.27378" lon="-1.49345">
        <ele>348</ele>
      </trkpt>
      <trkpt lat="42.27374" lon="-1.49388">
        <ele>351.1</ele>
      </trkpt>
      <trkpt lat="42.27374" lon="-1.49409">
        <ele>350.3</ele>
      </trkpt>
      <trkpt lat="42.27369" lon="-1.49429">
        <ele>350.9</ele>
      </trkpt>
      <trkpt lat="42.27353" lon="-1.49456">
        <ele>353.6</ele>
      </trkpt>
      <trkpt lat="42.27328" lon="-1.49484">
        <ele>356.2</ele>
      </trkpt>
      <trkpt lat="42.27316" lon="-1.49502">
        <ele>358.4</ele>
      </trkpt>
      <trkpt lat="42.2731" lon="-1.49519">
        <ele>359.7</ele>
      </trkpt>
      <trkpt lat="42.27308" lon="-1.49536">
        <ele>360.4</ele>
      </trkpt>
      <trkpt lat="42.27311" lon="-1.49562">
        <ele>361.2</ele>
      </trkpt>
      <trkpt lat="42.27311" lon="-1.49604">
        <ele>361.8</ele>
      </trkpt>
      <trkpt lat="42.27313" lon="-1.49616">
        <ele>361.8</ele>
      </trkpt>
      <trkpt lat="42.27352" lon="-1.49716">
        <ele>363.3</ele>
      </trkpt>
      <trkpt lat="42.27362" lon="-1.49731">
        <ele>364.3</ele>
      </trkpt>
      <trkpt lat="42.27365" lon="-1.49742">
        <ele>364.7</ele>
      </trkpt>
      <trkpt lat="42.27364" lon="-1.49755">
        <ele>365.2</ele>
      </trkpt>
      <trkpt lat="42.27361" lon="-1.49772">
        <ele>365.8</ele>
      </trkpt>
      <trkpt lat="42.27351" lon="-1.49787">
        <ele>366.3</ele>
      </trkpt>
      <trkpt lat="42.27321" lon="-1.49819">
        <ele>369.9</ele>
      </trkpt>
      <trkpt lat="42.27312" lon="-1.49836">
        <ele>371.1</ele>
      </trkpt>
      <trkpt lat="42.27308" lon="-1.49848">
        <ele>371.7</ele>
      </trkpt>
      <trkpt lat="42.2731" lon="-1.49859">
        <ele>372.7</ele>
      </trkpt>
      <trkpt lat="42.27334" lon="-1.49896">
        <ele>375.7</ele>
      </trkpt>
      <trkpt lat="42.27352" lon="-1.49937">
        <ele>377.7</ele>
      </trkpt>
      <trkpt lat="42.27384" lon="-1.49987">
        <ele>381.2</ele>
      </trkpt>
      <trkpt lat="42.27433" lon="-1.5009">
        <ele>385.6</ele>
      </trkpt>
      <trkpt lat="42.27457" lon="-1.50126">
        <ele>385.3</ele>
      </trkpt>
      <trkpt lat="42.27472" lon="-1.50157">
        <ele>386.3</ele>
      </trkpt>
      <trkpt lat="42.27493" lon="-1.50208">
        <ele>388.7</ele>
      </trkpt>
      <trkpt lat="42.27498" lon="-1.50228">
        <ele>389.6</ele>
      </trkpt>
      <trkpt lat="42.27506" lon="-1.50282">
        <ele>391.9</ele>
      </trkpt>
      <trkpt lat="42.27505" lon="-1.50293">
        <ele>392.2</ele>
      </trkpt>
      <trkpt lat="42.27495" lon="-1.50326">
        <ele>393.4</ele>
      </trkpt>
      <trkpt lat="42.27495" lon="-1.50341">
        <ele>393.7</ele>
      </trkpt>
      <trkpt lat="42.27511" lon="-1.5038">
        <ele>397.2</ele>
      </trkpt>
      <trkpt lat="42.27509" lon="-1.50405">
        <ele>397.9</ele>
      </trkpt>
      <trkpt lat="42.27502" lon="-1.50443">
        <ele>397.3</ele>
      </trkpt>
      <trkpt lat="42.27499" lon="-1.50464">
        <ele>398.5</ele>
      </trkpt>
      <trkpt lat="42.27503" lon="-1.50504">
        <ele>401.3</ele>
      </trkpt>
      <trkpt lat="42.275" lon="-1.50512">
        <ele>401.3</ele>
      </trkpt>
      <trkpt lat="42.27495" lon="-1.5052">
        <ele>402.4</ele>
      </trkpt>
      <trkpt lat="42.27485" lon="-1.50523">
        <ele>403.1</ele>
      </trkpt>
      <trkpt lat="42.27465" lon="-1.50523">
        <ele>404.9</ele>
      </trkpt>
      <trkpt lat="42.27458" lon="-1.50519">
        <ele>405.8</ele>
      </trkpt>
      <trkpt lat="42.27443" lon="-1.50491">
        <ele>405.4</ele>
      </trkpt>
      <trkpt lat="42.27435" lon="-1.50487">
        <ele>405.2</ele>
      </trkpt>
      <trkpt lat="42.27429" lon="-1.5049">
        <ele>405.5</ele>
      </trkpt>
      <trkpt lat="42.27425" lon="-1.50499">
        <ele>406</ele>
      </trkpt>
      <trkpt lat="42.27423" lon="-1.50545">
        <ele>409.5</ele>
      </trkpt>
      <trkpt lat="42.27416" lon="-1.50559">
        <ele>410.6</ele>
      </trkpt>
      <trkpt lat="42.27406" lon="-1.50571">
        <ele>412.5</ele>
      </trkpt>
      <trkpt lat="42.27382" lon="-1.50587">
        <ele>414.2</ele>
      </trkpt>
      <trkpt lat="42.27339" lon="-1.50603">
        <ele>417.7</ele>
      </trkpt>
      <trkpt lat="42.27319" lon="-1.50608">
        <ele>419</ele>
      </trkpt>
      <trkpt lat="42.27253" lon="-1.50601">
        <ele>423.2</ele>
      </trkpt>
      <trkpt lat="42.27211" lon="-1.50589">
        <ele>426.5</ele>
      </trkpt>
      <trkpt lat="42.27206" lon="-1.50596">
        <ele>427.9</ele>
      </trkpt>
      <trkpt lat="42.27203" lon="-1.50606">
        <ele>429.7</ele>
      </trkpt>
      <trkpt lat="42.27254" lon="-1.50646">
        <ele>430.9</ele>
      </trkpt>
      <trkpt lat="42.27332" lon="-1.50655">
        <ele>431.6</ele>
      </trkpt>
      <trkpt lat="42.27385" lon="-1.50661">
        <ele>431</ele>
      </trkpt>
      <trkpt lat="42.27402" lon="-1.50668">
        <ele>430.6</ele>
      </trkpt>
      <trkpt lat="42.27415" lon="-1.50686">
        <ele>430.7</ele>
      </trkpt>
      <trkpt lat="42.2742" lon="-1.50697">
        <ele>430.9</ele>
      </trkpt>
      <trkpt lat="42.27448" lon="-1.50751">
        <ele>430.8</ele>
      </trkpt>
      <trkpt lat="42.27462" lon="-1.50795">
        <ele>430</ele>
      </trkpt>
      <trkpt lat="42.27483" lon="-1.50864">
        <ele>428.9</ele>
      </trkpt>
      <trkpt lat="42.27521" lon="-1.50969">
        <ele>427</ele>
      </trkpt>
      <trkpt lat="42.27568" lon="-1.5113">
        <ele>425.6</ele>
      </trkpt>
      <trkpt lat="42.27587" lon="-1.51183">
        <ele>425.1</ele>
      </trkpt>
      <trkpt lat="42.27619" lon="-1.5128">
        <ele>425.3</ele>
      </trkpt>
      <trkpt lat="42.27622" lon="-1.51308">
        <ele>425.4</ele>
      </trkpt>
      <trkpt lat="42.27627" lon="-1.51335">
        <ele>425.5</ele>
      </trkpt>
      <trkpt lat="42.27641" lon="-1.51367">
        <ele>424.9</ele>
      </trkpt>
      <trkpt lat="42.27658" lon="-1.51397">
        <ele>424.4</ele>
      </trkpt>
      <trkpt lat="42.27702" lon="-1.5146">
        <ele>423.7</ele>
      </trkpt>
      <trkpt lat="42.2774" lon="-1.51531">
        <ele>423</ele>
      </trkpt>
      <trkpt lat="42.27839" lon="-1.51704">
        <ele>423.3</ele>
      </trkpt>
      <trkpt lat="42.27867" lon="-1.51764">
        <ele>424.2</ele>
      </trkpt>
      <trkpt lat="42.27901" lon="-1.51852">
        <ele>423.3</ele>
      </trkpt>
      <trkpt lat="42.27919" lon="-1.5189">
        <ele>423</ele>
      </trkpt>
      <trkpt lat="42.27934" lon="-1.51915">
        <ele>423.4</ele>
      </trkpt>
      <trkpt lat="42.27954" lon="-1.51943">
        <ele>423.9</ele>
      </trkpt>
      <trkpt lat="42.27962" lon="-1.5196">
        <ele>424.4</ele>
      </trkpt>
      <trkpt lat="42.27979" lon="-1.52008">
        <ele>426.3</ele>
      </trkpt>
      <trkpt lat="42.2802" lon="-1.52082">
        <ele>428</ele>
      </trkpt>
      <trkpt lat="42.2803" lon="-1.52102">
        <ele>428</ele>
      </trkpt>
      <trkpt lat="42.2807" lon="-1.52205">
        <ele>427.5</ele>
      </trkpt>
      <trkpt lat="42.28081" lon="-1.52249">
        <ele>427</ele>
      </trkpt>
      <trkpt lat="42.28092" lon="-1.52267">
        <ele>426.9</ele>
      </trkpt>
      <trkpt lat="42.28143" lon="-1.52351">
        <ele>426.9</ele>
      </trkpt>
      <trkpt lat="42.28326" lon="-1.52677">
        <ele>419.6</ele>
      </trkpt>
      <trkpt lat="42.28398" lon="-1.52812">
        <ele>421.2</ele>
      </trkpt>
      <trkpt lat="42.28428" lon="-1.52861">
        <ele>422.6</ele>
      </trkpt>
      <trkpt lat="42.28442" lon="-1.5289">
        <ele>423.1</ele>
      </trkpt>
      <trkpt lat="42.28468" lon="-1.5295">
        <ele>425</ele>
      </trkpt>
      <trkpt lat="42.28481" lon="-1.52973">
        <ele>425.3</ele>
      </trkpt>
      <trkpt lat="42.28503" lon="-1.53">
        <ele>426</ele>
      </trkpt>
      <trkpt lat="42.28553" lon="-1.53082">
        <ele>425</ele>
      </trkpt>
      <trkpt lat="42.28626" lon="-1.53196">
        <ele>424</ele>
      </trkpt>
      <trkpt lat="42.28655" lon="-1.53239">
        <ele>424</ele>
      </trkpt>
      <trkpt lat="42.28717" lon="-1.53319">
        <ele>423</ele>
      </trkpt>
      <trkpt lat="42.28751" lon="-1.5337">
        <ele>423</ele>
      </trkpt>
      <trkpt lat="42.28799" lon="-1.5343">
        <ele>422.1</ele>
      </trkpt>
      <trkpt lat="42.28836" lon="-1.53468">
        <ele>422</ele>
      </trkpt>
      <trkpt lat="42.28873" lon="-1.53513">
        <ele>421.3</ele>
      </trkpt>
      <trkpt lat="42.28911" lon="-1.53557">
        <ele>421</ele>
      </trkpt>
      <trkpt lat="42.28922" lon="-1.53573">
        <ele>420.8</ele>
      </trkpt>
      <trkpt lat="42.29017" lon="-1.53731">
        <ele>419.4</ele>
      </trkpt>
      <trkpt lat="42.29039" lon="-1.53763">
        <ele>419</ele>
      </trkpt>
      <trkpt lat="42.29045" lon="-1.53773">
        <ele>419</ele>
      </trkpt>
      <trkpt lat="42.2905" lon="-1.5379">
        <ele>419</ele>
      </trkpt>
      <trkpt lat="42.29057" lon="-1.53814">
        <ele>419</ele>
      </trkpt>
      <trkpt lat="42.29063" lon="-1.53851">
        <ele>418.8</ele>
      </trkpt>
      <trkpt lat="42.29064" lon="-1.53888">
        <ele>418.7</ele>
      </trkpt>
      <trkpt lat="42.29055" lon="-1.54017">
        <ele>417</ele>
      </trkpt>
      <trkpt lat="42.29051" lon="-1.54053">
        <ele>416.2</ele>
      </trkpt>
      <trkpt lat="42.29044" lon="-1.54099">
        <ele>416</ele>
      </trkpt>
      <trkpt lat="42.29042" lon="-1.54137">
        <ele>417.4</ele>
      </trkpt>
      <trkpt lat="42.29034" lon="-1.54193">
        <ele>417</ele>
      </trkpt>
      <trkpt lat="42.29033" lon="-1.5421">
        <ele>417</ele>
      </trkpt>
      <trkpt lat="42.29027" lon="-1.543">
        <ele>417</ele>
      </trkpt>
      <trkpt lat="42.29015" lon="-1.54359">
        <ele>416.5</ele>
      </trkpt>
      <trkpt lat="42.29007" lon="-1.54424">
        <ele>415.7</ele>
      </trkpt>
      <trkpt lat="42.29001" lon="-1.54454">
        <ele>416</ele>
      </trkpt>
      <trkpt lat="42.28926" lon="-1.54643">
        <ele>414.9</ele>
      </trkpt>
      <trkpt lat="42.28891" lon="-1.54743">
        <ele>410.6</ele>
      </trkpt>
      <trkpt lat="42.28879" lon="-1.54767">
        <ele>409.1</ele>
      </trkpt>
      <trkpt lat="42.28881" lon="-1.54782">
        <ele>408.8</ele>
      </trkpt>
      <trkpt lat="42.28885" lon="-1.54789">
        <ele>409</ele>
      </trkpt>
      <trkpt lat="42.28896" lon="-1.54801">
        <ele>409.1</ele>
      </trkpt>
      <trkpt lat="42.2896" lon="-1.54893">
        <ele>407.5</ele>
      </trkpt>
      <trkpt lat="42.29014" lon="-1.54949">
        <ele>405.8</ele>
      </trkpt>
      <trkpt lat="42.29069" lon="-1.55042">
        <ele>404.1</ele>
      </trkpt>
      <trkpt lat="42.29076" lon="-1.55056">
        <ele>403.8</ele>
      </trkpt>
      <trkpt lat="42.29079" lon="-1.55069">
        <ele>403.6</ele>
      </trkpt>
      <trkpt lat="42.2909" lon="-1.55241">
        <ele>401.8</ele>
      </trkpt>
      <trkpt lat="42.29092" lon="-1.5526">
        <ele>402</ele>
      </trkpt>
      <trkpt lat="42.29103" lon="-1.55302">
        <ele>401.8</ele>
      </trkpt>
      <trkpt lat="42.29137" lon="-1.55408">
        <ele>399.3</ele>
      </trkpt>
      <trkpt lat="42.29152" lon="-1.55447">
        <ele>400.8</ele>
      </trkpt>
      <trkpt lat="42.29178" lon="-1.55499">
        <ele>398.7</ele>
      </trkpt>
      <trkpt lat="42.29185" lon="-1.55507">
        <ele>398.2</ele>
      </trkpt>
      <trkpt lat="42.29185" lon="-1.55507">
        <ele>398.2</ele>
        <extensions>
          <visugpx:TrkExtension xmlns:visugpx="https://www.visugpx.com/editgpx/">
            <visugpx:node>9</visugpx:node>
            </visugpx:TrkExtension>
        </extensions>
      </trkpt>
      <trkpt lat="42.29195" lon="-1.5552">
        <ele>397</ele>
      </trkpt>
      <trkpt lat="42.29206" lon="-1.55526">
        <ele>396.6</ele>
      </trkpt>
      <trkpt lat="42.29219" lon="-1.55528">
        <ele>396.1</ele>
      </trkpt>
      <trkpt lat="42.29179" lon="-1.55551">
        <ele>399.7</ele>
      </trkpt>
      <trkpt lat="42.29165" lon="-1.55553">
        <ele>401.3</ele>
      </trkpt>
      <trkpt lat="42.29148" lon="-1.55551">
        <ele>403.4</ele>
      </trkpt>
      <trkpt lat="42.29127" lon="-1.55545">
        <ele>406.2</ele>
      </trkpt>
      <trkpt lat="42.2911" lon="-1.55537">
        <ele>407.4</ele>
      </trkpt>
      <trkpt lat="42.29078" lon="-1.55497">
        <ele>409.5</ele>
      </trkpt>
      <trkpt lat="42.28992" lon="-1.55413">
        <ele>412.3</ele>
      </trkpt>
      <trkpt lat="42.28897" lon="-1.55334">
        <ele>413</ele>
      </trkpt>
      <trkpt lat="42.28867" lon="-1.55316">
        <ele>413.6</ele>
      </trkpt>
      <trkpt lat="42.2886" lon="-1.55314">
        <ele>413.7</ele>
      </trkpt>
      <trkpt lat="42.28838" lon="-1.55313">
        <ele>414</ele>
      </trkpt>
      <trkpt lat="42.28818" lon="-1.55307">
        <ele>414</ele>
      </trkpt>
      <trkpt lat="42.28804" lon="-1.55306">
        <ele>414</ele>
      </trkpt>
      <trkpt lat="42.28792" lon="-1.55302">
        <ele>414</ele>
      </trkpt>
      <trkpt lat="42.28775" lon="-1.55285">
        <ele>414.1</ele>
      </trkpt>
      <trkpt lat="42.28748" lon="-1.55239">
        <ele>415</ele>
      </trkpt>
      <trkpt lat="42.28724" lon="-1.55203">
        <ele>415.3</ele>
      </trkpt>
      <trkpt lat="42.2869" lon="-1.55155">
        <ele>416</ele>
      </trkpt>
      <trkpt lat="42.28671" lon="-1.55133">
        <ele>416</ele>
      </trkpt>
      <trkpt lat="42.28665" lon="-1.55126">
        <ele>416</ele>
      </trkpt>
      <trkpt lat="42.28656" lon="-1.55122">
        <ele>415.8</ele>
      </trkpt>
      <trkpt lat="42.28633" lon="-1.55129">
        <ele>415.4</ele>
      </trkpt>
      <trkpt lat="42.28606" lon="-1.55166">
        <ele>414</ele>
      </trkpt>
      <trkpt lat="42.28591" lon="-1.55193">
        <ele>413.3</ele>
      </trkpt>
      <trkpt lat="42.28569" lon="-1.55241">
        <ele>413</ele>
      </trkpt>
      <trkpt lat="42.28495" lon="-1.55358">
        <ele>410.1</ele>
      </trkpt>
      <trkpt lat="42.28428" lon="-1.55503">
        <ele>411.5</ele>
      </trkpt>
      <trkpt lat="42.28416" lon="-1.5552">
        <ele>411.3</ele>
      </trkpt>
      <trkpt lat="42.28377" lon="-1.55567">
        <ele>411.6</ele>
      </trkpt>
      <trkpt lat="42.28349" lon="-1.55598">
        <ele>411.2</ele>
      </trkpt>
      <trkpt lat="42.28342" lon="-1.55611">
        <ele>411</ele>
      </trkpt>
      <trkpt lat="42.28331" lon="-1.55646">
        <ele>410.8</ele>
      </trkpt>
      <trkpt lat="42.28318" lon="-1.55707">
        <ele>410.3</ele>
      </trkpt>
      <trkpt lat="42.28318" lon="-1.55745">
        <ele>409.2</ele>
      </trkpt>
      <trkpt lat="42.28329" lon="-1.55864">
        <ele>405.2</ele>
      </trkpt>
      <trkpt lat="42.28337" lon="-1.55918">
        <ele>405.8</ele>
      </trkpt>
      <trkpt lat="42.28336" lon="-1.5595">
        <ele>407</ele>
      </trkpt>
      <trkpt lat="42.28331" lon="-1.55994">
        <ele>408.8</ele>
      </trkpt>
      <trkpt lat="42.28329" lon="-1.5601">
        <ele>409</ele>
      </trkpt>
      <trkpt lat="42.28329" lon="-1.56037">
        <ele>408.7</ele>
      </trkpt>
      <trkpt lat="42.28332" lon="-1.56063">
        <ele>408</ele>
      </trkpt>
      <trkpt lat="42.28359" lon="-1.56142">
        <ele>409</ele>
      </trkpt>
      <trkpt lat="42.28369" lon="-1.56192">
        <ele>409</ele>
      </trkpt>
      <trkpt lat="42.28396" lon="-1.56286">
        <ele>407.9</ele>
      </trkpt>
      <trkpt lat="42.28398" lon="-1.56306">
        <ele>407.7</ele>
      </trkpt>
      <trkpt lat="42.28398" lon="-1.5635">
        <ele>407.9</ele>
      </trkpt>
      <trkpt lat="42.28395" lon="-1.56389">
        <ele>408</ele>
      </trkpt>
      <trkpt lat="42.28374" lon="-1.56519">
        <ele>406.8</ele>
      </trkpt>
      <trkpt lat="42.28361" lon="-1.56592">
        <ele>406</ele>
      </trkpt>
      <trkpt lat="42.28348" lon="-1.56625">
        <ele>406</ele>
      </trkpt>
      <trkpt lat="42.28332" lon="-1.56653">
        <ele>406</ele>
      </trkpt>
      <trkpt lat="42.28297" lon="-1.56701">
        <ele>405.9</ele>
      </trkpt>
      <trkpt lat="42.28295" lon="-1.56704">
        <ele>405.9</ele>
      </trkpt>
      <trkpt lat="42.28281" lon="-1.56724">
        <ele>405.2</ele>
        <extensions>
          <visugpx:TrkExtension xmlns:visugpx="https://www.visugpx.com/editgpx/">
            <visugpx:node>10</visugpx:node>
            </visugpx:TrkExtension>
        </extensions>
      </trkpt>
      <trkpt lat="42.28275" lon="-1.56733">
        <ele>405.3</ele>
      </trkpt>
      <trkpt lat="42.28256" lon="-1.56753">
        <ele>405.2</ele>
      </trkpt>
      <trkpt lat="42.28229" lon="-1.56775">
        <ele>405</ele>
      </trkpt>
      <trkpt lat="42.28194" lon="-1.568">
        <ele>405</ele>
      </trkpt>
      <trkpt lat="42.28164" lon="-1.56828">
        <ele>405</ele>
      </trkpt>
      <trkpt lat="42.28116" lon="-1.56864">
        <ele>405</ele>
      </trkpt>
      <trkpt lat="42.28092" lon="-1.56897">
        <ele>405</ele>
      </trkpt>
      <trkpt lat="42.28065" lon="-1.56924">
        <ele>404.3</ele>
      </trkpt>
      <trkpt lat="42.28048" lon="-1.56945">
        <ele>404</ele>
      </trkpt>
      <trkpt lat="42.28026" lon="-1.56966">
        <ele>404</ele>
      </trkpt>
      <trkpt lat="42.27997" lon="-1.56998">
        <ele>404</ele>
      </trkpt>
      <trkpt lat="42.27924" lon="-1.57042">
        <ele>402.6</ele>
      </trkpt>
      <trkpt lat="42.2791" lon="-1.57057">
        <ele>402</ele>
      </trkpt>
      <trkpt lat="42.27884" lon="-1.57088">
        <ele>402.5</ele>
      </trkpt>
      <trkpt lat="42.27851" lon="-1.57118">
        <ele>403</ele>
      </trkpt>
      <trkpt lat="42.27841" lon="-1.57122">
        <ele>403</ele>
      </trkpt>
      <trkpt lat="42.27801" lon="-1.5714">
        <ele>402</ele>
      </trkpt>
      <trkpt lat="42.27723" lon="-1.572">
        <ele>400</ele>
      </trkpt>
      <trkpt lat="42.2769" lon="-1.57223">
        <ele>400</ele>
      </trkpt>
      <trkpt lat="42.2766" lon="-1.5726">
        <ele>400</ele>
      </trkpt>
      <trkpt lat="42.2763" lon="-1.57286">
        <ele>399.9</ele>
      </trkpt>
      <trkpt lat="42.27607" lon="-1.57303">
        <ele>399.1</ele>
      </trkpt>
      <trkpt lat="42.27568" lon="-1.57324">
        <ele>397.8</ele>
      </trkpt>
      <trkpt lat="42.27557" lon="-1.57333">
        <ele>397.1</ele>
      </trkpt>
      <trkpt lat="42.27535" lon="-1.57358">
        <ele>397.7</ele>
      </trkpt>
      <trkpt lat="42.2752" lon="-1.57369">
        <ele>398.2</ele>
      </trkpt>
      <trkpt lat="42.27479" lon="-1.57396">
        <ele>399.9</ele>
      </trkpt>
      <trkpt lat="42.27438" lon="-1.57417">
        <ele>400</ele>
      </trkpt>
      <trkpt lat="42.27423" lon="-1.57429">
        <ele>399.6</ele>
      </trkpt>
      <trkpt lat="42.27383" lon="-1.57464">
        <ele>399</ele>
      </trkpt>
      <trkpt lat="42.27375" lon="-1.57473">
        <ele>399</ele>
      </trkpt>
      <trkpt lat="42.27351" lon="-1.57484">
        <ele>397.9</ele>
      </trkpt>
      <trkpt lat="42.27301" lon="-1.57492">
        <ele>397.4</ele>
      </trkpt>
      <trkpt lat="42.27261" lon="-1.57497">
        <ele>398.1</ele>
      </trkpt>
      <trkpt lat="42.27204" lon="-1.57497">
        <ele>398.1</ele>
      </trkpt>
      <trkpt lat="42.27116" lon="-1.57494">
        <ele>399.6</ele>
      </trkpt>
      <trkpt lat="42.27066" lon="-1.57502">
        <ele>400</ele>
      </trkpt>
      <trkpt lat="42.27022" lon="-1.57525">
        <ele>400.3</ele>
      </trkpt>
      <trkpt lat="42.27006" lon="-1.57528">
        <ele>400.8</ele>
      </trkpt>
      <trkpt lat="42.26966" lon="-1.57523">
        <ele>401</ele>
      </trkpt>
      <trkpt lat="42.26911" lon="-1.5753">
        <ele>402</ele>
      </trkpt>
      <trkpt lat="42.26878" lon="-1.5753">
        <ele>402</ele>
      </trkpt>
      <trkpt lat="42.26853" lon="-1.57532">
        <ele>402.3</ele>
      </trkpt>
      <trkpt lat="42.26785" lon="-1.5755">
        <ele>403</ele>
      </trkpt>
      <trkpt lat="42.26766" lon="-1.5756">
        <ele>403.1</ele>
      </trkpt>
      <trkpt lat="42.26745" lon="-1.57568">
        <ele>403.5</ele>
      </trkpt>
      <trkpt lat="42.2672" lon="-1.57573">
        <ele>404</ele>
      </trkpt>
      <trkpt lat="42.26689" lon="-1.57574">
        <ele>404.5</ele>
      </trkpt>
      <trkpt lat="42.26664" lon="-1.57571">
        <ele>405</ele>
      </trkpt>
      <trkpt lat="42.26646" lon="-1.57566">
        <ele>405</ele>
      </trkpt>
      <trkpt lat="42.26614" lon="-1.57552">
        <ele>405.9</ele>
      </trkpt>
      <trkpt lat="42.26559" lon="-1.57517">
        <ele>406</ele>
      </trkpt>
      <trkpt lat="42.26528" lon="-1.57506">
        <ele>406</ele>
      </trkpt>
      <trkpt lat="42.26443" lon="-1.57503">
        <ele>406.9</ele>
      </trkpt>
      <trkpt lat="42.26391" lon="-1.57494">
        <ele>407</ele>
      </trkpt>
      <trkpt lat="42.26357" lon="-1.57491">
        <ele>407</ele>
      </trkpt>
      <trkpt lat="42.26312" lon="-1.57494">
        <ele>407.8</ele>
      </trkpt>
      <trkpt lat="42.26283" lon="-1.575">
        <ele>408</ele>
      </trkpt>
      <trkpt lat="42.26232" lon="-1.575">
        <ele>409</ele>
      </trkpt>
      <trkpt lat="42.26188" lon="-1.57504">
        <ele>410</ele>
      </trkpt>
      <trkpt lat="42.26161" lon="-1.57504">
        <ele>410</ele>
      </trkpt>
      <trkpt lat="42.26144" lon="-1.57502">
        <ele>410</ele>
      </trkpt>
      <trkpt lat="42.26129" lon="-1.57497">
        <ele>409.7</ele>
      </trkpt>
      <trkpt lat="42.26088" lon="-1.57479">
        <ele>410</ele>
      </trkpt>
      <trkpt lat="42.26072" lon="-1.57475">
        <ele>410</ele>
      </trkpt>
      <trkpt lat="42.26055" lon="-1.57476">
        <ele>410.2</ele>
      </trkpt>
      <trkpt lat="42.26039" lon="-1.57481">
        <ele>410.5</ele>
      </trkpt>
      <trkpt lat="42.25988" lon="-1.57515">
        <ele>405.2</ele>
      </trkpt>
      <trkpt lat="42.25981" lon="-1.5752">
        <ele>404</ele>
      </trkpt>
      <trkpt lat="42.2597" lon="-1.57523">
        <ele>402.1</ele>
      </trkpt>
      <trkpt lat="42.25955" lon="-1.57525">
        <ele>399.8</ele>
      </trkpt>
      <trkpt lat="42.25896" lon="-1.57522">
        <ele>392.7</ele>
      </trkpt>
      <trkpt lat="42.25871" lon="-1.57512">
        <ele>388.6</ele>
      </trkpt>
      <trkpt lat="42.25825" lon="-1.57478">
        <ele>383.9</ele>
      </trkpt>
      <trkpt lat="42.25799" lon="-1.57468">
        <ele>380.4</ele>
      </trkpt>
      <trkpt lat="42.25789" lon="-1.57468">
        <ele>379.7</ele>
      </trkpt>
      <trkpt lat="42.25414" lon="-1.57509">
        <ele>356.9</ele>
      </trkpt>
      <trkpt lat="42.25063" lon="-1.57545">
        <ele>340.3</ele>
      </trkpt>
      <trkpt lat="42.25045" lon="-1.57549">
        <ele>340</ele>
      </trkpt>
      <trkpt lat="42.24797" lon="-1.57683">
        <ele>344.3</ele>
      </trkpt>
      <trkpt lat="42.24778" lon="-1.57689">
        <ele>345</ele>
      </trkpt>
      <trkpt lat="42.24726" lon="-1.57693">
        <ele>346.9</ele>
      </trkpt>
      <trkpt lat="42.24715" lon="-1.57694">
        <ele>346.8</ele>
      </trkpt>
      <trkpt lat="42.24683" lon="-1.57708">
        <ele>344.5</ele>
      </trkpt>
      <trkpt lat="42.24622" lon="-1.57719">
        <ele>341.4</ele>
      </trkpt>
      <trkpt lat="42.24589" lon="-1.57728">
        <ele>340</ele>
      </trkpt>
      <trkpt lat="42.24506" lon="-1.57768">
        <ele>337.5</ele>
      </trkpt>
      <trkpt lat="42.24474" lon="-1.57777">
        <ele>337</ele>
      </trkpt>
      <trkpt lat="42.24439" lon="-1.57781">
        <ele>336</ele>
      </trkpt>
      <trkpt lat="42.24401" lon="-1.57781">
        <ele>336</ele>
      </trkpt>
      <trkpt lat="42.24301" lon="-1.57773">
        <ele>336</ele>
      </trkpt>
      <trkpt lat="42.24266" lon="-1.57771">
        <ele>335.4</ele>
      </trkpt>
      <trkpt lat="42.24175" lon="-1.57774">
        <ele>335.9</ele>
      </trkpt>
      <trkpt lat="42.23976" lon="-1.57789">
        <ele>336</ele>
      </trkpt>
      <trkpt lat="42.23952" lon="-1.57795">
        <ele>336</ele>
      </trkpt>
      <trkpt lat="42.23912" lon="-1.57808">
        <ele>336.9</ele>
      </trkpt>
      <trkpt lat="42.23824" lon="-1.57814">
        <ele>337</ele>
      </trkpt>
      <trkpt lat="42.23743" lon="-1.578">
        <ele>337</ele>
      </trkpt>
      <trkpt lat="42.2374" lon="-1.57774">
        <ele>337</ele>
        <extensions>
          <visugpx:TrkExtension xmlns:visugpx="https://www.visugpx.com/editgpx/">
            <visugpx:node>11</visugpx:node>
            </visugpx:TrkExtension>
        </extensions>
      </trkpt>
      <trkpt lat="42.23743" lon="-1.578">
        <ele>337</ele>
      </trkpt>
      <trkpt lat="42.23719" lon="-1.57801">
        <ele>337.1</ele>
      </trkpt>
      <trkpt lat="42.23676" lon="-1.57809">
        <ele>338</ele>
      </trkpt>
      <trkpt lat="42.23626" lon="-1.57826">
        <ele>338</ele>
      </trkpt>
      <trkpt lat="42.23591" lon="-1.57835">
        <ele>338</ele>
      </trkpt>
      <trkpt lat="42.2352" lon="-1.57846">
        <ele>338.6</ele>
      </trkpt>
      <trkpt lat="42.23465" lon="-1.57851">
        <ele>339</ele>
      </trkpt>
      <trkpt lat="42.23404" lon="-1.5785">
        <ele>339.6</ele>
      </trkpt>
      <trkpt lat="42.23325" lon="-1.57846">
        <ele>340.5</ele>
      </trkpt>
      <trkpt lat="42.23272" lon="-1.57841">
        <ele>341.2</ele>
      </trkpt>
      <trkpt lat="42.23238" lon="-1.57843">
        <ele>342</ele>
      </trkpt>
      <trkpt lat="42.23186" lon="-1.57852">
        <ele>343.2</ele>
      </trkpt>
      <trkpt lat="42.23141" lon="-1.57845">
        <ele>344.9</ele>
      </trkpt>
      <trkpt lat="42.22963" lon="-1.57838">
        <ele>348.5</ele>
      </trkpt>
      <trkpt lat="42.22932" lon="-1.57835">
        <ele>349.5</ele>
      </trkpt>
      <trkpt lat="42.22907" lon="-1.57829">
        <ele>349.9</ele>
      </trkpt>
      <trkpt lat="42.22888" lon="-1.57818">
        <ele>350</ele>
      </trkpt>
      <trkpt lat="42.22846" lon="-1.5779">
        <ele>351.5</ele>
      </trkpt>
      <trkpt lat="42.22772" lon="-1.5776">
        <ele>355.8</ele>
      </trkpt>
      <trkpt lat="42.22718" lon="-1.5773">
        <ele>358.6</ele>
      </trkpt>
      <trkpt lat="42.22697" lon="-1.57728">
        <ele>360</ele>
      </trkpt>
      <trkpt lat="42.22685" lon="-1.57734">
        <ele>361.3</ele>
      </trkpt>
      <trkpt lat="42.22681" lon="-1.57735">
        <ele>361.7</ele>
      </trkpt>
      <trkpt lat="42.22668" lon="-1.57741">
        <ele>362.9</ele>
      </trkpt>
      <trkpt lat="42.2253" lon="-1.57836">
        <ele>371.9</ele>
      </trkpt>
      <trkpt lat="42.2249" lon="-1.57882">
        <ele>374.7</ele>
      </trkpt>
      <trkpt lat="42.2246" lon="-1.57907">
        <ele>377.8</ele>
      </trkpt>
      <trkpt lat="42.22424" lon="-1.57931">
        <ele>378.7</ele>
      </trkpt>
      <trkpt lat="42.22401" lon="-1.57952">
        <ele>375.7</ele>
      </trkpt>
      <trkpt lat="42.22355" lon="-1.58016">
        <ele>371.3</ele>
      </trkpt>
      <trkpt lat="42.2234" lon="-1.58033">
        <ele>371</ele>
      </trkpt>
      <trkpt lat="42.2229" lon="-1.58068">
        <ele>369.4</ele>
      </trkpt>
      <trkpt lat="42.22272" lon="-1.58085">
        <ele>368.8</ele>
      </trkpt>
      <trkpt lat="42.22243" lon="-1.58122">
        <ele>365</ele>
      </trkpt>
      <trkpt lat="42.22219" lon="-1.58156">
        <ele>362.4</ele>
      </trkpt>
      <trkpt lat="42.22205" lon="-1.5817">
        <ele>361.8</ele>
      </trkpt>
      <trkpt lat="42.22193" lon="-1.58178">
        <ele>361.6</ele>
      </trkpt>
      <trkpt lat="42.22" lon="-1.58282">
        <ele>358.2</ele>
      </trkpt>
      <trkpt lat="42.2198" lon="-1.58291">
        <ele>358.9</ele>
      </trkpt>
      <trkpt lat="42.21954" lon="-1.58309">
        <ele>359.8</ele>
      </trkpt>
      <trkpt lat="42.21929" lon="-1.58335">
        <ele>361.1</ele>
      </trkpt>
      <trkpt lat="42.21888" lon="-1.58388">
        <ele>365.1</ele>
      </trkpt>
      <trkpt lat="42.21876" lon="-1.58401">
        <ele>366.2</ele>
      </trkpt>
      <trkpt lat="42.21863" lon="-1.58408">
        <ele>366.8</ele>
      </trkpt>
      <trkpt lat="42.21848" lon="-1.58412">
        <ele>366.8</ele>
      </trkpt>
      <trkpt lat="42.21831" lon="-1.58412">
        <ele>367.3</ele>
      </trkpt>
      <trkpt lat="42.21752" lon="-1.58396">
        <ele>370.9</ele>
      </trkpt>
      <trkpt lat="42.21615" lon="-1.58372">
        <ele>379.7</ele>
      </trkpt>
      <trkpt lat="42.21602" lon="-1.58369">
        <ele>380.8</ele>
      </trkpt>
      <trkpt lat="42.21591" lon="-1.58371">
        <ele>381.7</ele>
      </trkpt>
      <trkpt lat="42.21574" lon="-1.5838">
        <ele>383.3</ele>
      </trkpt>
      <trkpt lat="42.2151" lon="-1.58406">
        <ele>390.1</ele>
      </trkpt>
      <trkpt lat="42.21478" lon="-1.58416">
        <ele>390.8</ele>
      </trkpt>
      <trkpt lat="42.21445" lon="-1.58414">
        <ele>393.1</ele>
      </trkpt>
      <trkpt lat="42.21413" lon="-1.58404">
        <ele>394.3</ele>
      </trkpt>
      <trkpt lat="42.21375" lon="-1.58414">
        <ele>397.1</ele>
      </trkpt>
      <trkpt lat="42.21363" lon="-1.58413">
        <ele>398.2</ele>
      </trkpt>
      <trkpt lat="42.21333" lon="-1.58402">
        <ele>401</ele>
      </trkpt>
      <trkpt lat="42.21289" lon="-1.5838">
        <ele>402.6</ele>
      </trkpt>
      <trkpt lat="42.2121" lon="-1.58351">
        <ele>410</ele>
      </trkpt>
      <trkpt lat="42.21192" lon="-1.58347">
        <ele>412.6</ele>
      </trkpt>
      <trkpt lat="42.21181" lon="-1.58349">
        <ele>413.1</ele>
      </trkpt>
      <trkpt lat="42.21149" lon="-1.58366">
        <ele>415.8</ele>
      </trkpt>
      <trkpt lat="42.2112" lon="-1.58373">
        <ele>418.3</ele>
      </trkpt>
      <trkpt lat="42.21054" lon="-1.58376">
        <ele>424.2</ele>
      </trkpt>
      <trkpt lat="42.21033" lon="-1.58385">
        <ele>425.2</ele>
      </trkpt>
      <trkpt lat="42.21014" lon="-1.58396">
        <ele>428.6</ele>
      </trkpt>
      <trkpt lat="42.20972" lon="-1.58422">
        <ele>432.2</ele>
      </trkpt>
      <trkpt lat="42.20892" lon="-1.58497">
        <ele>442.3</ele>
      </trkpt>
      <trkpt lat="42.20878" lon="-1.58507">
        <ele>445</ele>
      </trkpt>
      <trkpt lat="42.20864" lon="-1.58513">
        <ele>447.2</ele>
      </trkpt>
      <trkpt lat="42.20807" lon="-1.58523">
        <ele>452.6</ele>
      </trkpt>
      <trkpt lat="42.20796" lon="-1.58527">
        <ele>453.5</ele>
      </trkpt>
      <trkpt lat="42.20763" lon="-1.58547">
        <ele>460.1</ele>
      </trkpt>
      <trkpt lat="42.20742" lon="-1.58556">
        <ele>461</ele>
      </trkpt>
      <trkpt lat="42.207" lon="-1.58564">
        <ele>466.7</ele>
      </trkpt>
      <trkpt lat="42.20689" lon="-1.58569">
        <ele>468.6</ele>
      </trkpt>
      <trkpt lat="42.2064" lon="-1.58604">
        <ele>471.8</ele>
      </trkpt>
      <trkpt lat="42.20636" lon="-1.58602">
        <ele>471.6</ele>
        <extensions>
          <visugpx:TrkExtension xmlns:visugpx="https://www.visugpx.com/editgpx/">
            <visugpx:node>12</visugpx:node>
            </visugpx:TrkExtension>
        </extensions>
      </trkpt>
      <trkpt lat="42.20636" lon="-1.58602">
        <ele>471.6</ele>
      </trkpt>
      <trkpt lat="42.20571" lon="-1.58576">
        <ele>469.3</ele>
      </trkpt>
      <trkpt lat="42.20561" lon="-1.58576">
        <ele>469</ele>
      </trkpt>
      <trkpt lat="42.20556" lon="-1.58578">
        <ele>468.6</ele>
      </trkpt>
      <trkpt lat="42.20548" lon="-1.58583">
        <ele>468</ele>
      </trkpt>
      <trkpt lat="42.20515" lon="-1.5859">
        <ele>465.9</ele>
      </trkpt>
      <trkpt lat="42.20475" lon="-1.58593">
        <ele>463</ele>
      </trkpt>
      <trkpt lat="42.20451" lon="-1.58593">
        <ele>460.4</ele>
      </trkpt>
      <trkpt lat="42.20419" lon="-1.58586">
        <ele>457.1</ele>
      </trkpt>
      <trkpt lat="42.2037" lon="-1.58584">
        <ele>452.6</ele>
      </trkpt>
      <trkpt lat="42.2032" lon="-1.58586">
        <ele>447.1</ele>
      </trkpt>
      <trkpt lat="42.20302" lon="-1.58591">
        <ele>444.8</ele>
      </trkpt>
      <trkpt lat="42.20294" lon="-1.58594">
        <ele>443.8</ele>
      </trkpt>
      <trkpt lat="42.20274" lon="-1.58611">
        <ele>440.9</ele>
      </trkpt>
      <trkpt lat="42.20266" lon="-1.5862">
        <ele>440.7</ele>
      </trkpt>
      <trkpt lat="42.20232" lon="-1.58656">
        <ele>437</ele>
      </trkpt>
      <trkpt lat="42.20211" lon="-1.58673">
        <ele>435.1</ele>
      </trkpt>
      <trkpt lat="42.20168" lon="-1.58693">
        <ele>434</ele>
      </trkpt>
      <trkpt lat="42.20126" lon="-1.58717">
        <ele>431.2</ele>
      </trkpt>
      <trkpt lat="42.20086" lon="-1.58733">
        <ele>428.6</ele>
      </trkpt>
      <trkpt lat="42.20057" lon="-1.58735">
        <ele>428.5</ele>
      </trkpt>
      <trkpt lat="42.20046" lon="-1.58736">
        <ele>428</ele>
      </trkpt>
      <trkpt lat="42.20005" lon="-1.58733">
        <ele>425.4</ele>
      </trkpt>
      <trkpt lat="42.19968" lon="-1.58732">
        <ele>422.2</ele>
      </trkpt>
      <trkpt lat="42.19917" lon="-1.58746">
        <ele>418.2</ele>
      </trkpt>
      <trkpt lat="42.19803" lon="-1.58786">
        <ele>414.3</ele>
      </trkpt>
      <trkpt lat="42.19762" lon="-1.58798">
        <ele>413.3</ele>
      </trkpt>
      <trkpt lat="42.1972" lon="-1.58803">
        <ele>413.1</ele>
      </trkpt>
      <trkpt lat="42.19641" lon="-1.58799">
        <ele>411.3</ele>
      </trkpt>
      <trkpt lat="42.19618" lon="-1.58802">
        <ele>411.8</ele>
      </trkpt>
      <trkpt lat="42.19603" lon="-1.5882">
        <ele>412</ele>
      </trkpt>
      <trkpt lat="42.19559" lon="-1.58807">
        <ele>412.8</ele>
      </trkpt>
      <trkpt lat="42.19544" lon="-1.58819">
        <ele>412.9</ele>
      </trkpt>
      <trkpt lat="42.19528" lon="-1.58828">
        <ele>413.2</ele>
      </trkpt>
      <trkpt lat="42.19512" lon="-1.58831">
        <ele>413.1</ele>
      </trkpt>
      <trkpt lat="42.19465" lon="-1.58834">
        <ele>414</ele>
      </trkpt>
      <trkpt lat="42.1945" lon="-1.58832">
        <ele>414</ele>
      </trkpt>
      <trkpt lat="42.19411" lon="-1.58842">
        <ele>412.9</ele>
      </trkpt>
      <trkpt lat="42.1937" lon="-1.58844">
        <ele>412.2</ele>
      </trkpt>
      <trkpt lat="42.19324" lon="-1.58843">
        <ele>411.3</ele>
      </trkpt>
      <trkpt lat="42.19298" lon="-1.58849">
        <ele>410</ele>
      </trkpt>
      <trkpt lat="42.19269" lon="-1.58853">
        <ele>408.7</ele>
      </trkpt>
      <trkpt lat="42.19127" lon="-1.58872">
        <ele>407.1</ele>
      </trkpt>
      <trkpt lat="42.19079" lon="-1.58877">
        <ele>404.3</ele>
      </trkpt>
      <trkpt lat="42.19042" lon="-1.58877">
        <ele>402.2</ele>
      </trkpt>
      <trkpt lat="42.19004" lon="-1.58873">
        <ele>400.2</ele>
      </trkpt>
      <trkpt lat="42.18971" lon="-1.58869">
        <ele>398.7</ele>
      </trkpt>
      <trkpt lat="42.18951" lon="-1.58864">
        <ele>398.2</ele>
      </trkpt>
      <trkpt lat="42.18891" lon="-1.58871">
        <ele>397.6</ele>
      </trkpt>
      <trkpt lat="42.1882" lon="-1.58882">
        <ele>396.5</ele>
      </trkpt>
      <trkpt lat="42.18798" lon="-1.58884">
        <ele>395.5</ele>
      </trkpt>
      <trkpt lat="42.18748" lon="-1.58882">
        <ele>391.3</ele>
      </trkpt>
      <trkpt lat="42.18736" lon="-1.5888">
        <ele>390.5</ele>
      </trkpt>
      <trkpt lat="42.18727" lon="-1.58875">
        <ele>389.9</ele>
      </trkpt>
      <trkpt lat="42.18718" lon="-1.58866">
        <ele>389.4</ele>
      </trkpt>
      <trkpt lat="42.18616" lon="-1.58739">
        <ele>378.2</ele>
      </trkpt>
      <trkpt lat="42.18576" lon="-1.58695">
        <ele>378.3</ele>
      </trkpt>
      <trkpt lat="42.18571" lon="-1.58685">
        <ele>378.4</ele>
      </trkpt>
      <trkpt lat="42.18563" lon="-1.58649">
        <ele>376.5</ele>
      </trkpt>
      <trkpt lat="42.18558" lon="-1.58637">
        <ele>376.1</ele>
      </trkpt>
      <trkpt lat="42.18545" lon="-1.58618">
        <ele>373.2</ele>
      </trkpt>
      <trkpt lat="42.18536" lon="-1.58611">
        <ele>372.4</ele>
      </trkpt>
      <trkpt lat="42.18526" lon="-1.58607">
        <ele>371.9</ele>
      </trkpt>
      <trkpt lat="42.18517" lon="-1.58608">
        <ele>370.9</ele>
      </trkpt>
      <trkpt lat="42.1851" lon="-1.58612">
        <ele>370.6</ele>
      </trkpt>
      <trkpt lat="42.18489" lon="-1.58633">
        <ele>369.6</ele>
      </trkpt>
      <trkpt lat="42.18486" lon="-1.58634">
        <ele>369.3</ele>
      </trkpt>
      <trkpt lat="42.18486" lon="-1.58634">
        <ele>369.3</ele>
        <extensions>
          <visugpx:TrkExtension xmlns:visugpx="https://www.visugpx.com/editgpx/">
            <visugpx:node>13</visugpx:node>
            </visugpx:TrkExtension>
        </extensions>
      </trkpt>
      <trkpt lat="42.18477" lon="-1.5864">
        <ele>368.8</ele>
      </trkpt>
      <trkpt lat="42.18467" lon="-1.58643">
        <ele>368.7</ele>
      </trkpt>
      <trkpt lat="42.18457" lon="-1.58642">
        <ele>368.9</ele>
      </trkpt>
      <trkpt lat="42.18431" lon="-1.58631">
        <ele>368</ele>
      </trkpt>
      <trkpt lat="42.18418" lon="-1.58627">
        <ele>368.1</ele>
      </trkpt>
      <trkpt lat="42.18405" lon="-1.58627">
        <ele>366.5</ele>
      </trkpt>
      <trkpt lat="42.18388" lon="-1.58631">
        <ele>364.3</ele>
      </trkpt>
      <trkpt lat="42.18334" lon="-1.58667">
        <ele>362.1</ele>
      </trkpt>
      <trkpt lat="42.18286" lon="-1.58687">
        <ele>362.9</ele>
      </trkpt>
      <trkpt lat="42.1824" lon="-1.58693">
        <ele>362.8</ele>
      </trkpt>
      <trkpt lat="42.18226" lon="-1.58699">
        <ele>365.5</ele>
      </trkpt>
      <trkpt lat="42.18215" lon="-1.58709">
        <ele>365.6</ele>
      </trkpt>
      <trkpt lat="42.18205" lon="-1.58723">
        <ele>364.1</ele>
      </trkpt>
      <trkpt lat="42.182" lon="-1.58738">
        <ele>363.2</ele>
      </trkpt>
      <trkpt lat="42.18196" lon="-1.58757">
        <ele>361.7</ele>
      </trkpt>
      <trkpt lat="42.18195" lon="-1.58805">
        <ele>357.2</ele>
      </trkpt>
      <trkpt lat="42.18188" lon="-1.58835">
        <ele>356.7</ele>
      </trkpt>
      <trkpt lat="42.18171" lon="-1.58871">
        <ele>354.4</ele>
      </trkpt>
      <trkpt lat="42.18133" lon="-1.58954">
        <ele>352.1</ele>
      </trkpt>
      <trkpt lat="42.18121" lon="-1.58974">
        <ele>350.3</ele>
      </trkpt>
      <trkpt lat="42.18107" lon="-1.5899">
        <ele>350</ele>
      </trkpt>
      <trkpt lat="42.18064" lon="-1.59018">
        <ele>345.6</ele>
      </trkpt>
      <trkpt lat="42.18036" lon="-1.5903">
        <ele>343.8</ele>
      </trkpt>
      <trkpt lat="42.18028" lon="-1.59038">
        <ele>341.1</ele>
      </trkpt>
      <trkpt lat="42.18006" lon="-1.5907">
        <ele>336.4</ele>
      </trkpt>
      <trkpt lat="42.17989" lon="-1.5908">
        <ele>335.7</ele>
      </trkpt>
      <trkpt lat="42.17975" lon="-1.59084">
        <ele>336.3</ele>
      </trkpt>
      <trkpt lat="42.17913" lon="-1.59082">
        <ele>331.2</ele>
      </trkpt>
      <trkpt lat="42.17883" lon="-1.59094">
        <ele>327.5</ele>
      </trkpt>
      <trkpt lat="42.17855" lon="-1.59098">
        <ele>326.1</ele>
      </trkpt>
      <trkpt lat="42.17848" lon="-1.59103">
        <ele>326.3</ele>
      </trkpt>
      <trkpt lat="42.17839" lon="-1.59116">
        <ele>324.7</ele>
      </trkpt>
      <trkpt lat="42.1782" lon="-1.5916">
        <ele>321.7</ele>
      </trkpt>
      <trkpt lat="42.17781" lon="-1.59231">
        <ele>319</ele>
      </trkpt>
      <trkpt lat="42.1776" lon="-1.59258">
        <ele>318</ele>
      </trkpt>
      <trkpt lat="42.17746" lon="-1.59273">
        <ele>316.8</ele>
      </trkpt>
      <trkpt lat="42.17729" lon="-1.59282">
        <ele>315.2</ele>
      </trkpt>
      <trkpt lat="42.17719" lon="-1.59289">
        <ele>313.3</ele>
      </trkpt>
      <trkpt lat="42.17713" lon="-1.59299">
        <ele>311.7</ele>
      </trkpt>
      <trkpt lat="42.17679" lon="-1.59339">
        <ele>311.7</ele>
      </trkpt>
      <trkpt lat="42.17672" lon="-1.59348">
        <ele>309.7</ele>
      </trkpt>
      <trkpt lat="42.17669" lon="-1.59361">
        <ele>307.4</ele>
      </trkpt>
      <trkpt lat="42.17669" lon="-1.59374">
        <ele>307.3</ele>
      </trkpt>
      <trkpt lat="42.17674" lon="-1.59389">
        <ele>307.3</ele>
      </trkpt>
      <trkpt lat="42.17687" lon="-1.59409">
        <ele>304.8</ele>
      </trkpt>
      <trkpt lat="42.17729" lon="-1.5945">
        <ele>296.3</ele>
      </trkpt>
      <trkpt lat="42.17765" lon="-1.59484">
        <ele>289.2</ele>
      </trkpt>
      <trkpt lat="42.17771" lon="-1.595">
        <ele>289.7</ele>
      </trkpt>
      <trkpt lat="42.17772" lon="-1.59512">
        <ele>285.8</ele>
      </trkpt>
      <trkpt lat="42.17766" lon="-1.59532">
        <ele>285.5</ele>
      </trkpt>
      <trkpt lat="42.17765" lon="-1.59551">
        <ele>286.1</ele>
      </trkpt>
      <trkpt lat="42.1777" lon="-1.59577">
        <ele>281</ele>
      </trkpt>
      <trkpt lat="42.17768" lon="-1.59585">
        <ele>281.7</ele>
      </trkpt>
      <trkpt lat="42.17768" lon="-1.59585">
        <ele>281.7</ele>
        <extensions>
          <visugpx:TrkExtension xmlns:visugpx="https://www.visugpx.com/editgpx/">
            <visugpx:node>14</visugpx:node>
            </visugpx:TrkExtension>
        </extensions>
      </trkpt>
      <trkpt lat="42.1776" lon="-1.5962">
        <ele>277.4</ele>
      </trkpt>
      <trkpt lat="42.1775" lon="-1.59658">
        <ele>272</ele>
      </trkpt>
      <trkpt lat="42.17745" lon="-1.59667">
        <ele>272</ele>
      </trkpt>
      <trkpt lat="42.17741" lon="-1.59669">
        <ele>272</ele>
      </trkpt>
      <trkpt lat="42.17736" lon="-1.5967">
        <ele>271.9</ele>
      </trkpt>
      <trkpt lat="42.1773" lon="-1.59667">
        <ele>272</ele>
      </trkpt>
      <trkpt lat="42.17697" lon="-1.59637">
        <ele>271.2</ele>
      </trkpt>
      <trkpt lat="42.17694" lon="-1.59642">
        <ele>270.5</ele>
      </trkpt>
      <trkpt lat="42.17643" lon="-1.59577">
        <ele>268</ele>
      </trkpt>
      <trkpt lat="42.17637" lon="-1.59574">
        <ele>267.6</ele>
      </trkpt>
      <trkpt lat="42.17629" lon="-1.59577">
        <ele>266.9</ele>
      </trkpt>
      <trkpt lat="42.17605" lon="-1.59547">
        <ele>266</ele>
      </trkpt>
      <trkpt lat="42.17608" lon="-1.59545">
        <ele>266.2</ele>
        <extensions>
          <visugpx:TrkExtension xmlns:visugpx="https://www.visugpx.com/editgpx/">
            <visugpx:node>15</visugpx:node>
            </visugpx:TrkExtension>
        </extensions>
      </trkpt>
    </trkseg>
  </trk>
  <trk>
    <name><![CDATA[Boucle 2]]></name>
    <extensions>
      <line xmlns="http://www.topografix.com/GPX/gpx_style/0/2">
        <color>ffff00</color>
        <opacity>0.5</opacity>
        <width>12</width>
      </line>
    </extensions>
    <trkseg>
      <trkpt lat="42.17632" lon="-1.59512">
        <ele>269.5</ele>
      </trkpt>
      <trkpt lat="42.17632" lon="-1.59512">
        <ele>269.5</ele>
      </trkpt>
      <trkpt lat="42.17634" lon="-1.5951">
        <ele>269.7</ele>
      </trkpt>
      <trkpt lat="42.17614" lon="-1.59475">
        <ele>272.2</ele>
      </trkpt>
      <trkpt lat="42.17516" lon="-1.59353">
        <ele>268.1</ele>
      </trkpt>
      <trkpt lat="42.17474" lon="-1.59293">
        <ele>268.5</ele>
      </trkpt>
      <trkpt lat="42.17429" lon="-1.59257">
        <ele>267</ele>
      </trkpt>
      <trkpt lat="42.17392" lon="-1.59211">
        <ele>266.7</ele>
      </trkpt>
      <trkpt lat="42.17374" lon="-1.59182">
        <ele>265.9</ele>
      </trkpt>
      <trkpt lat="42.17352" lon="-1.59152">
        <ele>264.8</ele>
      </trkpt>
      <trkpt lat="42.17345" lon="-1.5915">
        <ele>264.8</ele>
      </trkpt>
      <trkpt lat="42.17335" lon="-1.59145">
        <ele>264.8</ele>
      </trkpt>
      <trkpt lat="42.17329" lon="-1.59144">
        <ele>264.8</ele>
      </trkpt>
      <trkpt lat="42.17323" lon="-1.59142">
        <ele>264.8</ele>
      </trkpt>
      <trkpt lat="42.17221" lon="-1.59096">
        <ele>263.5</ele>
      </trkpt>
      <trkpt lat="42.17209" lon="-1.59094">
        <ele>263.6</ele>
      </trkpt>
      <trkpt lat="42.1718" lon="-1.58957">
        <ele>264.8</ele>
      </trkpt>
      <trkpt lat="42.17175" lon="-1.58937">
        <ele>265.1</ele>
      </trkpt>
      <trkpt lat="42.17168" lon="-1.58916">
        <ele>265.1</ele>
      </trkpt>
      <trkpt lat="42.17084" lon="-1.58762">
        <ele>266.6</ele>
      </trkpt>
      <trkpt lat="42.17033" lon="-1.58656">
        <ele>266.2</ele>
      </trkpt>
      <trkpt lat="42.17011" lon="-1.58613">
        <ele>265.4</ele>
      </trkpt>
      <trkpt lat="42.1695" lon="-1.58488">
        <ele>264.1</ele>
      </trkpt>
      <trkpt lat="42.16884" lon="-1.58359">
        <ele>262.8</ele>
      </trkpt>
      <trkpt lat="42.16865" lon="-1.58329">
        <ele>262.3</ele>
      </trkpt>
      <trkpt lat="42.16534" lon="-1.57843">
        <ele>263</ele>
      </trkpt>
      <trkpt lat="42.16432" lon="-1.57689">
        <ele>264.6</ele>
      </trkpt>
      <trkpt lat="42.16421" lon="-1.57657">
        <ele>266.7</ele>
      </trkpt>
      <trkpt lat="42.1641" lon="-1.57603">
        <ele>267.7</ele>
      </trkpt>
      <trkpt lat="42.16402" lon="-1.57585">
        <ele>267.9</ele>
      </trkpt>
      <trkpt lat="42.1638" lon="-1.57547">
        <ele>270</ele>
      </trkpt>
      <trkpt lat="42.16375" lon="-1.57528">
        <ele>272</ele>
      </trkpt>
      <trkpt lat="42.16373" lon="-1.57507">
        <ele>272.9</ele>
      </trkpt>
      <trkpt lat="42.16368" lon="-1.57458">
        <ele>272.9</ele>
      </trkpt>
      <trkpt lat="42.16368" lon="-1.5744">
        <ele>273.5</ele>
      </trkpt>
      <trkpt lat="42.16371" lon="-1.57418">
        <ele>275.3</ele>
      </trkpt>
      <trkpt lat="42.16377" lon="-1.57394">
        <ele>276.6</ele>
      </trkpt>
      <trkpt lat="42.16389" lon="-1.57354">
        <ele>277.7</ele>
      </trkpt>
      <trkpt lat="42.16399" lon="-1.57323">
        <ele>277.7</ele>
      </trkpt>
      <trkpt lat="42.16418" lon="-1.57283">
        <ele>279.1</ele>
      </trkpt>
      <trkpt lat="42.16422" lon="-1.57273">
        <ele>279.4</ele>
      </trkpt>
      <trkpt lat="42.16423" lon="-1.57265">
        <ele>279.4</ele>
      </trkpt>
      <trkpt lat="42.16423" lon="-1.57255">
        <ele>279.3</ele>
      </trkpt>
      <trkpt lat="42.16421" lon="-1.57241">
        <ele>279.5</ele>
      </trkpt>
      <trkpt lat="42.16411" lon="-1.57202">
        <ele>280.5</ele>
      </trkpt>
      <trkpt lat="42.1641" lon="-1.57195">
        <ele>280.7</ele>
        <extensions>
          <visugpx:TrkExtension xmlns:visugpx="https://www.visugpx.com/editgpx/">
            <visugpx:node>1</visugpx:node>
            </visugpx:TrkExtension>
        </extensions>
      </trkpt>
      <trkpt lat="42.1641" lon="-1.57195">
        <ele>280.7</ele>
      </trkpt>
      <trkpt lat="42.16408" lon="-1.57184">
        <ele>281.3</ele>
      </trkpt>
      <trkpt lat="42.16407" lon="-1.57168">
        <ele>282.3</ele>
      </trkpt>
      <trkpt lat="42.16415" lon="-1.57101">
        <ele>284.7</ele>
      </trkpt>
      <trkpt lat="42.16416" lon="-1.57075">
        <ele>286.6</ele>
      </trkpt>
      <trkpt lat="42.16413" lon="-1.57032">
        <ele>287.7</ele>
      </trkpt>
      <trkpt lat="42.16413" lon="-1.57011">
        <ele>288.3</ele>
      </trkpt>
      <trkpt lat="42.16415" lon="-1.56992">
        <ele>288.9</ele>
      </trkpt>
      <trkpt lat="42.1642" lon="-1.56971">
        <ele>289</ele>
      </trkpt>
      <trkpt lat="42.16426" lon="-1.56953">
        <ele>288.8</ele>
      </trkpt>
      <trkpt lat="42.16434" lon="-1.56935">
        <ele>289.2</ele>
        <extensions>
          <visugpx:TrkExtension xmlns:visugpx="https://www.visugpx.com/editgpx/">
            <visugpx:node>2</visugpx:node>
            </visugpx:TrkExtension>
        </extensions>
      </trkpt>
      <trkpt lat="42.16591" lon="-1.56665">
        <ele>297.3</ele>
      </trkpt>
      <trkpt lat="42.16606" lon="-1.56636">
        <ele>298.7</ele>
      </trkpt>
      <trkpt lat="42.16646" lon="-1.56543">
        <ele>300.7</ele>
      </trkpt>
      <trkpt lat="42.16688" lon="-1.56473">
        <ele>302.5</ele>
      </trkpt>
      <trkpt lat="42.16703" lon="-1.56442">
        <ele>302.6</ele>
      </trkpt>
      <trkpt lat="42.16767" lon="-1.56284">
        <ele>306.6</ele>
      </trkpt>
      <trkpt lat="42.16787" lon="-1.56239">
        <ele>308.3</ele>
      </trkpt>
      <trkpt lat="42.16812" lon="-1.562">
        <ele>309.2</ele>
      </trkpt>
      <trkpt lat="42.16817" lon="-1.56193">
        <ele>309.4</ele>
      </trkpt>
      <trkpt lat="42.16825" lon="-1.56181">
        <ele>309.7</ele>
      </trkpt>
      <trkpt lat="42.16858" lon="-1.56138">
        <ele>311</ele>
      </trkpt>
      <trkpt lat="42.16869" lon="-1.56125">
        <ele>311.1</ele>
      </trkpt>
      <trkpt lat="42.16897" lon="-1.56101">
        <ele>309.7</ele>
      </trkpt>
      <trkpt lat="42.16967" lon="-1.56059">
        <ele>305.8</ele>
      </trkpt>
      <trkpt lat="42.1698" lon="-1.5605">
        <ele>305.3</ele>
      </trkpt>
      <trkpt lat="42.16995" lon="-1.56035">
        <ele>304.8</ele>
      </trkpt>
      <trkpt lat="42.1701" lon="-1.5601">
        <ele>304</ele>
      </trkpt>
      <trkpt lat="42.17014" lon="-1.55995">
        <ele>303.5</ele>
      </trkpt>
      <trkpt lat="42.17016" lon="-1.5598">
        <ele>303.6</ele>
      </trkpt>
      <trkpt lat="42.17014" lon="-1.55897">
        <ele>303</ele>
      </trkpt>
      <trkpt lat="42.17015" lon="-1.55874">
        <ele>302.8</ele>
      </trkpt>
      <trkpt lat="42.17023" lon="-1.55838">
        <ele>302.7</ele>
      </trkpt>
      <trkpt lat="42.17029" lon="-1.55822">
        <ele>302.2</ele>
      </trkpt>
      <trkpt lat="42.17043" lon="-1.558">
        <ele>301.5</ele>
      </trkpt>
      <trkpt lat="42.17052" lon="-1.55789">
        <ele>301.8</ele>
      </trkpt>
      <trkpt lat="42.17098" lon="-1.55751">
        <ele>301.5</ele>
      </trkpt>
      <trkpt lat="42.1715" lon="-1.55687">
        <ele>301.2</ele>
      </trkpt>
      <trkpt lat="42.17167" lon="-1.55662">
        <ele>301.8</ele>
      </trkpt>
      <trkpt lat="42.17167" lon="-1.55649">
        <ele>301.4</ele>
      </trkpt>
      <trkpt lat="42.17183" lon="-1.55604">
        <ele>300.9</ele>
      </trkpt>
      <trkpt lat="42.17185" lon="-1.55592">
        <ele>300.4</ele>
      </trkpt>
      <trkpt lat="42.17184" lon="-1.55579">
        <ele>299.9</ele>
      </trkpt>
      <trkpt lat="42.17179" lon="-1.55566">
        <ele>299.7</ele>
      </trkpt>
      <trkpt lat="42.17187" lon="-1.55565">
        <ele>299.5</ele>
      </trkpt>
      <trkpt lat="42.17195" lon="-1.55559">
        <ele>299.2</ele>
      </trkpt>
      <trkpt lat="42.17204" lon="-1.55538">
        <ele>299.5</ele>
      </trkpt>
      <trkpt lat="42.17221" lon="-1.55509">
        <ele>298.7</ele>
      </trkpt>
      <trkpt lat="42.17228" lon="-1.55491">
        <ele>298.6</ele>
      </trkpt>
      <trkpt lat="42.17238" lon="-1.55449">
        <ele>299.1</ele>
      </trkpt>
      <trkpt lat="42.17245" lon="-1.55444">
        <ele>299.6</ele>
      </trkpt>
      <trkpt lat="42.17249" lon="-1.55429">
        <ele>299.4</ele>
      </trkpt>
      <trkpt lat="42.17256" lon="-1.55412">
        <ele>298.9</ele>
      </trkpt>
      <trkpt lat="42.17283" lon="-1.5536">
        <ele>298.1</ele>
      </trkpt>
      <trkpt lat="42.17292" lon="-1.55344">
        <ele>297.9</ele>
      </trkpt>
      <trkpt lat="42.17305" lon="-1.55311">
        <ele>298</ele>
      </trkpt>
      <trkpt lat="42.17311" lon="-1.5528">
        <ele>298.4</ele>
      </trkpt>
      <trkpt lat="42.17316" lon="-1.55263">
        <ele>297.8</ele>
      </trkpt>
      <trkpt lat="42.17329" lon="-1.55231">
        <ele>296.8</ele>
      </trkpt>
      <trkpt lat="42.17335" lon="-1.5521">
        <ele>296.6</ele>
      </trkpt>
      <trkpt lat="42.17337" lon="-1.55174">
        <ele>296.5</ele>
      </trkpt>
      <trkpt lat="42.17342" lon="-1.5514">
        <ele>296</ele>
      </trkpt>
      <trkpt lat="42.17347" lon="-1.55127">
        <ele>295.4</ele>
      </trkpt>
      <trkpt lat="42.17377" lon="-1.55061">
        <ele>293.4</ele>
      </trkpt>
      <trkpt lat="42.17383" lon="-1.55041">
        <ele>293.2</ele>
      </trkpt>
      <trkpt lat="42.17392" lon="-1.54997">
        <ele>292.1</ele>
      </trkpt>
      <trkpt lat="42.17402" lon="-1.54966">
        <ele>291.6</ele>
      </trkpt>
      <trkpt lat="42.17409" lon="-1.54952">
        <ele>291.2</ele>
      </trkpt>
      <trkpt lat="42.17426" lon="-1.54929">
        <ele>290.2</ele>
      </trkpt>
      <trkpt lat="42.17523" lon="-1.54816">
        <ele>288.1</ele>
      </trkpt>
      <trkpt lat="42.17529" lon="-1.54806">
        <ele>288.2</ele>
      </trkpt>
      <trkpt lat="42.1755" lon="-1.54756">
        <ele>287.3</ele>
      </trkpt>
      <trkpt lat="42.17558" lon="-1.54746">
        <ele>286.5</ele>
      </trkpt>
      <trkpt lat="42.17579" lon="-1.54728">
        <ele>284.9</ele>
      </trkpt>
      <trkpt lat="42.17592" lon="-1.54707">
        <ele>282.5</ele>
      </trkpt>
      <trkpt lat="42.17596" lon="-1.54693">
        <ele>281.4</ele>
      </trkpt>
      <trkpt lat="42.17608" lon="-1.54626">
        <ele>279.8</ele>
      </trkpt>
      <trkpt lat="42.17622" lon="-1.54575">
        <ele>277.5</ele>
      </trkpt>
      <trkpt lat="42.17636" lon="-1.54543">
        <ele>277.4</ele>
      </trkpt>
      <trkpt lat="42.17676" lon="-1.5446">
        <ele>276.6</ele>
      </trkpt>
      <trkpt lat="42.17697" lon="-1.54397">
        <ele>276</ele>
      </trkpt>
      <trkpt lat="42.17719" lon="-1.54316">
        <ele>275.9</ele>
      </trkpt>
      <trkpt lat="42.17721" lon="-1.54296">
        <ele>276</ele>
      </trkpt>
      <trkpt lat="42.17721" lon="-1.54281">
        <ele>276</ele>
      </trkpt>
      <trkpt lat="42.17718" lon="-1.5426">
        <ele>275.8</ele>
      </trkpt>
      <trkpt lat="42.17713" lon="-1.54244">
        <ele>275.7</ele>
      </trkpt>
      <trkpt lat="42.17694" lon="-1.54209">
        <ele>276</ele>
      </trkpt>
      <trkpt lat="42.17673" lon="-1.54181">
        <ele>276</ele>
      </trkpt>
      <trkpt lat="42.1767" lon="-1.54176">
        <ele>276</ele>
      </trkpt>
      <trkpt lat="42.17638" lon="-1.54127">
        <ele>273.9</ele>
      </trkpt>
      <trkpt lat="42.17548" lon="-1.53997">
        <ele>280.1</ele>
      </trkpt>
      <trkpt lat="42.17531" lon="-1.53969">
        <ele>282.2</ele>
      </trkpt>
      <trkpt lat="42.17526" lon="-1.53957">
        <ele>282.5</ele>
      </trkpt>
      <trkpt lat="42.17524" lon="-1.53943">
        <ele>283</ele>
      </trkpt>
      <trkpt lat="42.17524" lon="-1.5393">
        <ele>283.9</ele>
      </trkpt>
      <trkpt lat="42.17545" lon="-1.53737">
        <ele>295.1</ele>
      </trkpt>
      <trkpt lat="42.17548" lon="-1.53659">
        <ele>299.5</ele>
      </trkpt>
      <trkpt lat="42.17548" lon="-1.53652">
        <ele>299.9</ele>
      </trkpt>
      <trkpt lat="42.17549" lon="-1.5361">
        <ele>303.6</ele>
      </trkpt>
      <trkpt lat="42.17552" lon="-1.53583">
        <ele>305.8</ele>
      </trkpt>
      <trkpt lat="42.17554" lon="-1.53568">
        <ele>306.9</ele>
      </trkpt>
      <trkpt lat="42.17562" lon="-1.53545">
        <ele>308.5</ele>
      </trkpt>
      <trkpt lat="42.17569" lon="-1.5353">
        <ele>308.6</ele>
      </trkpt>
      <trkpt lat="42.17582" lon="-1.53501">
        <ele>308.9</ele>
      </trkpt>
      <trkpt lat="42.17595" lon="-1.53453">
        <ele>311.8</ele>
      </trkpt>
      <trkpt lat="42.176" lon="-1.53441">
        <ele>312.4</ele>
      </trkpt>
      <trkpt lat="42.17607" lon="-1.53432">
        <ele>311.8</ele>
      </trkpt>
      <trkpt lat="42.17615" lon="-1.53425">
        <ele>311.5</ele>
      </trkpt>
      <trkpt lat="42.17656" lon="-1.53401">
        <ele>311.6</ele>
      </trkpt>
      <trkpt lat="42.17676" lon="-1.53391">
        <ele>312</ele>
      </trkpt>
      <trkpt lat="42.17758" lon="-1.5336">
        <ele>312.4</ele>
      </trkpt>
      <trkpt lat="42.17781" lon="-1.53353">
        <ele>312.9</ele>
      </trkpt>
      <trkpt lat="42.17806" lon="-1.53352">
        <ele>313</ele>
      </trkpt>
      <trkpt lat="42.17859" lon="-1.53362">
        <ele>312.1</ele>
      </trkpt>
      <trkpt lat="42.17883" lon="-1.53359">
        <ele>312.7</ele>
      </trkpt>
      <trkpt lat="42.17904" lon="-1.53344">
        <ele>312.2</ele>
      </trkpt>
      <trkpt lat="42.17916" lon="-1.53333">
        <ele>312.9</ele>
      </trkpt>
      <trkpt lat="42.17935" lon="-1.5331">
        <ele>313.4</ele>
      </trkpt>
      <trkpt lat="42.17966" lon="-1.53271">
        <ele>315.6</ele>
      </trkpt>
      <trkpt lat="42.17986" lon="-1.53239">
        <ele>317</ele>
      </trkpt>
      <trkpt lat="42.18037" lon="-1.5314">
        <ele>321.3</ele>
      </trkpt>
      <trkpt lat="42.18075" lon="-1.53068">
        <ele>325.3</ele>
      </trkpt>
      <trkpt lat="42.18081" lon="-1.53056">
        <ele>325.9</ele>
      </trkpt>
      <trkpt lat="42.18088" lon="-1.53033">
        <ele>325.9</ele>
      </trkpt>
      <trkpt lat="42.18092" lon="-1.53006">
        <ele>325.4</ele>
      </trkpt>
      <trkpt lat="42.18094" lon="-1.52986">
        <ele>324.7</ele>
        <extensions>
          <visugpx:TrkExtension xmlns:visugpx="https://www.visugpx.com/editgpx/">
            <visugpx:node>3</visugpx:node>
            </visugpx:TrkExtension>
        </extensions>
      </trkpt>
      <trkpt lat="42.18094" lon="-1.52979">
        <ele>324.5</ele>
      </trkpt>
      <trkpt lat="42.18093" lon="-1.52955">
        <ele>323.7</ele>
      </trkpt>
      <trkpt lat="42.1809" lon="-1.52934">
        <ele>323.1</ele>
      </trkpt>
      <trkpt lat="42.18057" lon="-1.52753">
        <ele>317.8</ele>
      </trkpt>
      <trkpt lat="42.18054" lon="-1.52738">
        <ele>317.3</ele>
      </trkpt>
      <trkpt lat="42.17941" lon="-1.52429">
        <ele>308.2</ele>
      </trkpt>
      <trkpt lat="42.1793" lon="-1.52393">
        <ele>307.3</ele>
      </trkpt>
      <trkpt lat="42.17917" lon="-1.52328">
        <ele>307.8</ele>
      </trkpt>
      <trkpt lat="42.17911" lon="-1.5231">
        <ele>307.4</ele>
      </trkpt>
      <trkpt lat="42.17896" lon="-1.52278">
        <ele>306.8</ele>
      </trkpt>
      <trkpt lat="42.17752" lon="-1.52007">
        <ele>299.4</ele>
      </trkpt>
      <trkpt lat="42.17659" lon="-1.51791">
        <ele>294.6</ele>
      </trkpt>
      <trkpt lat="42.17643" lon="-1.51744">
        <ele>294.9</ele>
      </trkpt>
      <trkpt lat="42.17639" lon="-1.51713">
        <ele>294.7</ele>
      </trkpt>
      <trkpt lat="42.17639" lon="-1.51704">
        <ele>294.3</ele>
      </trkpt>
      <trkpt lat="42.1763" lon="-1.51708">
        <ele>294.3</ele>
      </trkpt>
      <trkpt lat="42.17628" lon="-1.51711">
        <ele>294.4</ele>
      </trkpt>
      <trkpt lat="42.17628" lon="-1.51711">
        <ele>294.4</ele>
        <extensions>
          <visugpx:TrkExtension xmlns:visugpx="https://www.visugpx.com/editgpx/">
            <visugpx:node>4</visugpx:node>
            </visugpx:TrkExtension>
        </extensions>
      </trkpt>
      <trkpt lat="42.17628" lon="-1.51711">
        <ele>294.4</ele>
      </trkpt>
      <trkpt lat="42.1763" lon="-1.51708">
        <ele>294.3</ele>
      </trkpt>
      <trkpt lat="42.17639" lon="-1.51704">
        <ele>294.3</ele>
      </trkpt>
      <trkpt lat="42.1764" lon="-1.51694">
        <ele>294</ele>
      </trkpt>
      <trkpt lat="42.17696" lon="-1.51401">
        <ele>294</ele>
      </trkpt>
      <trkpt lat="42.17708" lon="-1.51253">
        <ele>291.1</ele>
      </trkpt>
      <trkpt lat="42.17726" lon="-1.5113">
        <ele>290.9</ele>
      </trkpt>
      <trkpt lat="42.17741" lon="-1.51068">
        <ele>291</ele>
        <extensions>
          <visugpx:TrkExtension xmlns:visugpx="https://www.visugpx.com/editgpx/">
            <visugpx:node>5</visugpx:node>
            </visugpx:TrkExtension>
        </extensions>
      </trkpt>
      <trkpt lat="42.17802" lon="-1.50808">
        <ele>291.2</ele>
      </trkpt>
      <trkpt lat="42.17837" lon="-1.50737">
        <ele>291.3</ele>
      </trkpt>
      <trkpt lat="42.17851" lon="-1.5071">
        <ele>291.6</ele>
      </trkpt>
      <trkpt lat="42.17912" lon="-1.50601">
        <ele>291.1</ele>
      </trkpt>
      <trkpt lat="42.17934" lon="-1.50577">
        <ele>291</ele>
      </trkpt>
      <trkpt lat="42.18078" lon="-1.50417">
        <ele>290.8</ele>
      </trkpt>
      <trkpt lat="42.18088" lon="-1.50395">
        <ele>292.1</ele>
      </trkpt>
      <trkpt lat="42.18096" lon="-1.50366">
        <ele>292.5</ele>
      </trkpt>
      <trkpt lat="42.18107" lon="-1.503">
        <ele>292.5</ele>
      </trkpt>
      <trkpt lat="42.18192" lon="-1.49734">
        <ele>295.5</ele>
      </trkpt>
      <trkpt lat="42.18219" lon="-1.4962">
        <ele>296.7</ele>
      </trkpt>
      <trkpt lat="42.18219" lon="-1.49496">
        <ele>295.1</ele>
      </trkpt>
      <trkpt lat="42.18219" lon="-1.49466">
        <ele>294.8</ele>
      </trkpt>
      <trkpt lat="42.18331" lon="-1.4909">
        <ele>290</ele>
      </trkpt>
      <trkpt lat="42.18468" lon="-1.48968">
        <ele>291.8</ele>
      </trkpt>
      <trkpt lat="42.18505" lon="-1.48916">
        <ele>292.8</ele>
      </trkpt>
      <trkpt lat="42.18684" lon="-1.48631">
        <ele>296.2</ele>
      </trkpt>
      <trkpt lat="42.18691" lon="-1.48615">
        <ele>296.8</ele>
      </trkpt>
      <trkpt lat="42.18695" lon="-1.48597">
        <ele>297</ele>
      </trkpt>
      <trkpt lat="42.18696" lon="-1.48562">
        <ele>297.8</ele>
      </trkpt>
      <trkpt lat="42.18664" lon="-1.48439">
        <ele>300.1</ele>
      </trkpt>
      <trkpt lat="42.18664" lon="-1.48436">
        <ele>300.2</ele>
      </trkpt>
      <trkpt lat="42.18664" lon="-1.48436">
        <ele>300.2</ele>
        <extensions>
          <visugpx:TrkExtension xmlns:visugpx="https://www.visugpx.com/editgpx/">
            <visugpx:node>6</visugpx:node>
            </visugpx:TrkExtension>
        </extensions>
      </trkpt>
      <trkpt lat="42.18664" lon="-1.48436">
        <ele>300.2</ele>
      </trkpt>
      <trkpt lat="42.18664" lon="-1.48439">
        <ele>300.1</ele>
      </trkpt>
      <trkpt lat="42.18657" lon="-1.48437">
        <ele>299.9</ele>
      </trkpt>
      <trkpt lat="42.18625" lon="-1.48436">
        <ele>299.3</ele>
      </trkpt>
      <trkpt lat="42.18605" lon="-1.48433">
        <ele>299.3</ele>
      </trkpt>
      <trkpt lat="42.18584" lon="-1.48422">
        <ele>299.6</ele>
      </trkpt>
      <trkpt lat="42.18575" lon="-1.48413">
        <ele>299.4</ele>
      </trkpt>
      <trkpt lat="42.18534" lon="-1.48323">
        <ele>301.5</ele>
      </trkpt>
      <trkpt lat="42.18439" lon="-1.48182">
        <ele>302.2</ele>
      </trkpt>
      <trkpt lat="42.1841" lon="-1.48135">
        <ele>300.5</ele>
      </trkpt>
      <trkpt lat="42.18403" lon="-1.48119">
        <ele>300</ele>
      </trkpt>
      <trkpt lat="42.18397" lon="-1.48095">
        <ele>299</ele>
      </trkpt>
      <trkpt lat="42.18386" lon="-1.48028">
        <ele>296.9</ele>
      </trkpt>
      <trkpt lat="42.18378" lon="-1.48001">
        <ele>296.6</ele>
      </trkpt>
      <trkpt lat="42.18369" lon="-1.47982">
        <ele>296.3</ele>
      </trkpt>
      <trkpt lat="42.18335" lon="-1.47932">
        <ele>296</ele>
      </trkpt>
      <trkpt lat="42.18308" lon="-1.47887">
        <ele>296</ele>
      </trkpt>
      <trkpt lat="42.18292" lon="-1.4785">
        <ele>293.9</ele>
      </trkpt>
      <trkpt lat="42.18286" lon="-1.47822">
        <ele>293.7</ele>
      </trkpt>
      <trkpt lat="42.18286" lon="-1.47795">
        <ele>293</ele>
      </trkpt>
      <trkpt lat="42.18305" lon="-1.47605">
        <ele>286.8</ele>
      </trkpt>
      <trkpt lat="42.18305" lon="-1.47576">
        <ele>285.7</ele>
      </trkpt>
      <trkpt lat="42.18301" lon="-1.47544">
        <ele>285.2</ele>
      </trkpt>
      <trkpt lat="42.18292" lon="-1.47505">
        <ele>283.2</ele>
      </trkpt>
      <trkpt lat="42.18277" lon="-1.47465">
        <ele>283.2</ele>
      </trkpt>
      <trkpt lat="42.18267" lon="-1.47422">
        <ele>286.6</ele>
      </trkpt>
      <trkpt lat="42.18259" lon="-1.47324">
        <ele>288</ele>
      </trkpt>
      <trkpt lat="42.18248" lon="-1.4726">
        <ele>286</ele>
      </trkpt>
      <trkpt lat="42.1824" lon="-1.47187">
        <ele>286.4</ele>
      </trkpt>
      <trkpt lat="42.18224" lon="-1.46989">
        <ele>288.9</ele>
      </trkpt>
      <trkpt lat="42.18205" lon="-1.4684">
        <ele>289.8</ele>
      </trkpt>
      <trkpt lat="42.18193" lon="-1.46717">
        <ele>292</ele>
      </trkpt>
      <trkpt lat="42.18183" lon="-1.4664">
        <ele>292.6</ele>
      </trkpt>
      <trkpt lat="42.18169" lon="-1.46562">
        <ele>293.9</ele>
      </trkpt>
      <trkpt lat="42.1814" lon="-1.46419">
        <ele>295</ele>
      </trkpt>
      <trkpt lat="42.18138" lon="-1.464">
        <ele>295.6</ele>
      </trkpt>
      <trkpt lat="42.18138" lon="-1.46374">
        <ele>296</ele>
      </trkpt>
      <trkpt lat="42.18139" lon="-1.46347">
        <ele>296</ele>
      </trkpt>
      <trkpt lat="42.18142" lon="-1.46328">
        <ele>296.2</ele>
      </trkpt>
      <trkpt lat="42.18173" lon="-1.46162">
        <ele>299</ele>
      </trkpt>
      <trkpt lat="42.18182" lon="-1.46103">
        <ele>298.7</ele>
      </trkpt>
      <trkpt lat="42.18185" lon="-1.46068">
        <ele>299</ele>
      </trkpt>
      <trkpt lat="42.18186" lon="-1.46023">
        <ele>299</ele>
      </trkpt>
      <trkpt lat="42.18184" lon="-1.45984">
        <ele>298.8</ele>
      </trkpt>
      <trkpt lat="42.18181" lon="-1.45948">
        <ele>298.9</ele>
      </trkpt>
      <trkpt lat="42.1817" lon="-1.45909">
        <ele>299.1</ele>
      </trkpt>
      <trkpt lat="42.18159" lon="-1.45882">
        <ele>299.1</ele>
      </trkpt>
      <trkpt lat="42.18021" lon="-1.45703">
        <ele>302</ele>
      </trkpt>
      <trkpt lat="42.17922" lon="-1.45585">
        <ele>300.3</ele>
      </trkpt>
      <trkpt lat="42.17762" lon="-1.45414">
        <ele>296</ele>
      </trkpt>
      <trkpt lat="42.17659" lon="-1.45307">
        <ele>296.2</ele>
      </trkpt>
      <trkpt lat="42.17602" lon="-1.4526">
        <ele>294.7</ele>
      </trkpt>
      <trkpt lat="42.17571" lon="-1.45226">
        <ele>291.1</ele>
      </trkpt>
      <trkpt lat="42.17461" lon="-1.45044">
        <ele>297.4</ele>
      </trkpt>
      <trkpt lat="42.17366" lon="-1.44925">
        <ele>296.8</ele>
      </trkpt>
      <trkpt lat="42.17307" lon="-1.44866">
        <ele>296.9</ele>
      </trkpt>
      <trkpt lat="42.17299" lon="-1.44854">
        <ele>296.6</ele>
      </trkpt>
      <trkpt lat="42.1726" lon="-1.44749">
        <ele>297.6</ele>
      </trkpt>
      <trkpt lat="42.17248" lon="-1.44727">
        <ele>297.4</ele>
      </trkpt>
      <trkpt lat="42.17229" lon="-1.44703">
        <ele>299.3</ele>
      </trkpt>
      <trkpt lat="42.17194" lon="-1.44673">
        <ele>300</ele>
      </trkpt>
      <trkpt lat="42.17083" lon="-1.44564">
        <ele>305.3</ele>
      </trkpt>
      <trkpt lat="42.17058" lon="-1.44534">
        <ele>305.1</ele>
      </trkpt>
      <trkpt lat="42.17038" lon="-1.445">
        <ele>304.6</ele>
      </trkpt>
      <trkpt lat="42.16935" lon="-1.44332">
        <ele>304.3</ele>
      </trkpt>
      <trkpt lat="42.16914" lon="-1.44303">
        <ele>304.8</ele>
      </trkpt>
      <trkpt lat="42.16891" lon="-1.44279">
        <ele>304.9</ele>
      </trkpt>
      <trkpt lat="42.16821" lon="-1.44217">
        <ele>306.7</ele>
      </trkpt>
      <trkpt lat="42.16798" lon="-1.44188">
        <ele>307.5</ele>
      </trkpt>
      <trkpt lat="42.16766" lon="-1.44138">
        <ele>307.9</ele>
      </trkpt>
      <trkpt lat="42.1672" lon="-1.44059">
        <ele>309.1</ele>
      </trkpt>
      <trkpt lat="42.16712" lon="-1.44049">
        <ele>309.4</ele>
      </trkpt>
      <trkpt lat="42.16636" lon="-1.43972">
        <ele>311</ele>
      </trkpt>
      <trkpt lat="42.16578" lon="-1.43911">
        <ele>311.4</ele>
      </trkpt>
      <trkpt lat="42.16551" lon="-1.43881">
        <ele>312.4</ele>
      </trkpt>
      <trkpt lat="42.16535" lon="-1.43849">
        <ele>314</ele>
      </trkpt>
      <trkpt lat="42.165" lon="-1.43758">
        <ele>317</ele>
      </trkpt>
      <trkpt lat="42.1648" lon="-1.43714">
        <ele>316.9</ele>
      </trkpt>
      <trkpt lat="42.16349" lon="-1.43451">
        <ele>314.4</ele>
      </trkpt>
      <trkpt lat="42.16313" lon="-1.43378">
        <ele>316.2</ele>
      </trkpt>
      <trkpt lat="42.16302" lon="-1.43351">
        <ele>316</ele>
      </trkpt>
      <trkpt lat="42.16294" lon="-1.43326">
        <ele>316</ele>
      </trkpt>
      <trkpt lat="42.16292" lon="-1.43318">
        <ele>316</ele>
        <extensions>
          <visugpx:TrkExtension xmlns:visugpx="https://www.visugpx.com/editgpx/">
            <visugpx:node>7</visugpx:node>
            </visugpx:TrkExtension>
        </extensions>
      </trkpt>
      <trkpt lat="42.16294" lon="-1.43326">
        <ele>316</ele>
      </trkpt>
      <trkpt lat="42.16302" lon="-1.43351">
        <ele>316</ele>
      </trkpt>
      <trkpt lat="42.1627" lon="-1.43326">
        <ele>316</ele>
      </trkpt>
      <trkpt lat="42.16241" lon="-1.43291">
        <ele>316.5</ele>
      </trkpt>
      <trkpt lat="42.16221" lon="-1.43287">
        <ele>316.7</ele>
      </trkpt>
      <trkpt lat="42.16198" lon="-1.43278">
        <ele>317</ele>
      </trkpt>
      <trkpt lat="42.16189" lon="-1.43265">
        <ele>317</ele>
      </trkpt>
      <trkpt lat="42.16178" lon="-1.43234">
        <ele>317</ele>
      </trkpt>
      <trkpt lat="42.16163" lon="-1.43197">
        <ele>317.9</ele>
      </trkpt>
      <trkpt lat="42.16132" lon="-1.43135">
        <ele>318.1</ele>
      </trkpt>
      <trkpt lat="42.16121" lon="-1.4312">
        <ele>318.2</ele>
      </trkpt>
      <trkpt lat="42.16097" lon="-1.43099">
        <ele>319.2</ele>
      </trkpt>
      <trkpt lat="42.16014" lon="-1.43047">
        <ele>320.2</ele>
      </trkpt>
      <trkpt lat="42.15987" lon="-1.43026">
        <ele>321</ele>
      </trkpt>
      <trkpt lat="42.15858" lon="-1.42901">
        <ele>324.1</ele>
      </trkpt>
      <trkpt lat="42.15833" lon="-1.42877">
        <ele>325</ele>
      </trkpt>
      <trkpt lat="42.15816" lon="-1.42865">
        <ele>325.5</ele>
      </trkpt>
      <trkpt lat="42.15798" lon="-1.42858">
        <ele>326.4</ele>
      </trkpt>
      <trkpt lat="42.15728" lon="-1.42849">
        <ele>328</ele>
      </trkpt>
      <trkpt lat="42.15697" lon="-1.42829">
        <ele>328.2</ele>
      </trkpt>
      <trkpt lat="42.15667" lon="-1.42793">
        <ele>328.5</ele>
      </trkpt>
      <trkpt lat="42.15542" lon="-1.42649">
        <ele>331.3</ele>
      </trkpt>
      <trkpt lat="42.15507" lon="-1.42675">
        <ele>330.7</ele>
      </trkpt>
      <trkpt lat="42.15475" lon="-1.42685">
        <ele>330.9</ele>
      </trkpt>
      <trkpt lat="42.15455" lon="-1.42682">
        <ele>331.3</ele>
      </trkpt>
      <trkpt lat="42.15342" lon="-1.42579">
        <ele>333.1</ele>
      </trkpt>
      <trkpt lat="42.15317" lon="-1.42568">
        <ele>333.2</ele>
      </trkpt>
      <trkpt lat="42.1528" lon="-1.42558">
        <ele>333.8</ele>
      </trkpt>
      <trkpt lat="42.15223" lon="-1.42528">
        <ele>334</ele>
      </trkpt>
      <trkpt lat="42.15204" lon="-1.42528">
        <ele>334</ele>
      </trkpt>
      <trkpt lat="42.1519" lon="-1.42531">
        <ele>334.2</ele>
      </trkpt>
      <trkpt lat="42.15178" lon="-1.4254">
        <ele>334.6</ele>
      </trkpt>
      <trkpt lat="42.1511" lon="-1.42548">
        <ele>336.8</ele>
      </trkpt>
      <trkpt lat="42.15032" lon="-1.42599">
        <ele>339</ele>
      </trkpt>
      <trkpt lat="42.15011" lon="-1.42609">
        <ele>339.6</ele>
      </trkpt>
      <trkpt lat="42.1498" lon="-1.42617">
        <ele>341.1</ele>
      </trkpt>
      <trkpt lat="42.1496" lon="-1.42611">
        <ele>341.6</ele>
      </trkpt>
      <trkpt lat="42.1493" lon="-1.42595">
        <ele>342.9</ele>
      </trkpt>
      <trkpt lat="42.14905" lon="-1.42576">
        <ele>344.1</ele>
      </trkpt>
      <trkpt lat="42.14877" lon="-1.42546">
        <ele>345.9</ele>
      </trkpt>
      <trkpt lat="42.14849" lon="-1.42536">
        <ele>346</ele>
      </trkpt>
      <trkpt lat="42.14837" lon="-1.42527">
        <ele>346</ele>
      </trkpt>
      <trkpt lat="42.14815" lon="-1.42492">
        <ele>348.5</ele>
      </trkpt>
      <trkpt lat="42.14804" lon="-1.42493">
        <ele>349.5</ele>
      </trkpt>
      <trkpt lat="42.14797" lon="-1.42506">
        <ele>351.8</ele>
      </trkpt>
      <trkpt lat="42.14789" lon="-1.4253">
        <ele>353</ele>
      </trkpt>
      <trkpt lat="42.14762" lon="-1.42553">
        <ele>354.5</ele>
      </trkpt>
      <trkpt lat="42.14668" lon="-1.42543">
        <ele>364</ele>
      </trkpt>
      <trkpt lat="42.1463" lon="-1.42554">
        <ele>366.6</ele>
      </trkpt>
      <trkpt lat="42.1459" lon="-1.42554">
        <ele>372.2</ele>
      </trkpt>
      <trkpt lat="42.14564" lon="-1.42542">
        <ele>375.8</ele>
      </trkpt>
      <trkpt lat="42.14544" lon="-1.42516">
        <ele>374.9</ele>
      </trkpt>
      <trkpt lat="42.14516" lon="-1.42449">
        <ele>375.5</ele>
      </trkpt>
      <trkpt lat="42.14514" lon="-1.42417">
        <ele>378.5</ele>
      </trkpt>
      <trkpt lat="42.14519" lon="-1.4236">
        <ele>381.8</ele>
      </trkpt>
      <trkpt lat="42.14517" lon="-1.4232">
        <ele>383.5</ele>
      </trkpt>
      <trkpt lat="42.14512" lon="-1.42285">
        <ele>384.6</ele>
      </trkpt>
      <trkpt lat="42.14498" lon="-1.42254">
        <ele>384.9</ele>
      </trkpt>
      <trkpt lat="42.14458" lon="-1.42221">
        <ele>390.2</ele>
      </trkpt>
      <trkpt lat="42.14399" lon="-1.42149">
        <ele>402</ele>
      </trkpt>
      <trkpt lat="42.14395" lon="-1.42123">
        <ele>404.4</ele>
      </trkpt>
      <trkpt lat="42.14387" lon="-1.42101">
        <ele>406.1</ele>
      </trkpt>
      <trkpt lat="42.14367" lon="-1.42085">
        <ele>407.7</ele>
      </trkpt>
      <trkpt lat="42.14344" lon="-1.42086">
        <ele>408.2</ele>
      </trkpt>
      <trkpt lat="42.14238" lon="-1.42069">
        <ele>424</ele>
      </trkpt>
      <trkpt lat="42.14194" lon="-1.42099">
        <ele>428.1</ele>
      </trkpt>
      <trkpt lat="42.14171" lon="-1.42107">
        <ele>431.1</ele>
      </trkpt>
      <trkpt lat="42.14144" lon="-1.42097">
        <ele>432.3</ele>
      </trkpt>
      <trkpt lat="42.14125" lon="-1.42109">
        <ele>435.5</ele>
      </trkpt>
      <trkpt lat="42.14057" lon="-1.42161">
        <ele>441.8</ele>
      </trkpt>
      <trkpt lat="42.14023" lon="-1.42172">
        <ele>443</ele>
      </trkpt>
      <trkpt lat="42.13991" lon="-1.42186">
        <ele>444.4</ele>
      </trkpt>
      <trkpt lat="42.13973" lon="-1.42182">
        <ele>442.8</ele>
      </trkpt>
      <trkpt lat="42.13882" lon="-1.42145">
        <ele>445</ele>
      </trkpt>
      <trkpt lat="42.13831" lon="-1.42131">
        <ele>444.9</ele>
      </trkpt>
      <trkpt lat="42.13796" lon="-1.42102">
        <ele>444</ele>
      </trkpt>
      <trkpt lat="42.13734" lon="-1.42123">
        <ele>438.9</ele>
      </trkpt>
      <trkpt lat="42.13711" lon="-1.42116">
        <ele>440.2</ele>
      </trkpt>
      <trkpt lat="42.13678" lon="-1.42138">
        <ele>433.6</ele>
      </trkpt>
      <trkpt lat="42.13666" lon="-1.4215">
        <ele>432.2</ele>
      </trkpt>
      <trkpt lat="42.13647" lon="-1.42192">
        <ele>431</ele>
      </trkpt>
      <trkpt lat="42.13645" lon="-1.42205">
        <ele>430.3</ele>
      </trkpt>
      <trkpt lat="42.1364" lon="-1.42239">
        <ele>430.7</ele>
      </trkpt>
      <trkpt lat="42.13634" lon="-1.42258">
        <ele>431.8</ele>
      </trkpt>
      <trkpt lat="42.13622" lon="-1.42273">
        <ele>432</ele>
      </trkpt>
      <trkpt lat="42.13577" lon="-1.4229">
        <ele>433.5</ele>
      </trkpt>
      <trkpt lat="42.13533" lon="-1.4231">
        <ele>433.9</ele>
      </trkpt>
      <trkpt lat="42.13509" lon="-1.42332">
        <ele>436.3</ele>
      </trkpt>
      <trkpt lat="42.13499" lon="-1.42334">
        <ele>437.3</ele>
      </trkpt>
      <trkpt lat="42.1349" lon="-1.42328">
        <ele>439.1</ele>
      </trkpt>
      <trkpt lat="42.13482" lon="-1.4232">
        <ele>439.8</ele>
      </trkpt>
      <trkpt lat="42.13469" lon="-1.42313">
        <ele>440.6</ele>
      </trkpt>
      <trkpt lat="42.13456" lon="-1.42311">
        <ele>441.1</ele>
        <extensions>
          <visugpx:TrkExtension xmlns:visugpx="https://www.visugpx.com/editgpx/">
            <visugpx:node>8</visugpx:node>
            </visugpx:TrkExtension>
        </extensions>
      </trkpt>
      <trkpt lat="42.13452" lon="-1.42311">
        <ele>441.4</ele>
      </trkpt>
      <trkpt lat="42.13423" lon="-1.42313">
        <ele>443.3</ele>
      </trkpt>
      <trkpt lat="42.1341" lon="-1.42317">
        <ele>444.2</ele>
      </trkpt>
      <trkpt lat="42.13403" lon="-1.42328">
        <ele>445.2</ele>
      </trkpt>
      <trkpt lat="42.13411" lon="-1.42335">
        <ele>445.4</ele>
      </trkpt>
      <trkpt lat="42.13434" lon="-1.42341">
        <ele>446.3</ele>
      </trkpt>
      <trkpt lat="42.13447" lon="-1.42346">
        <ele>446.7</ele>
      </trkpt>
      <trkpt lat="42.13466" lon="-1.42364">
        <ele>446.7</ele>
      </trkpt>
      <trkpt lat="42.13475" lon="-1.42379">
        <ele>446.6</ele>
      </trkpt>
      <trkpt lat="42.13483" lon="-1.42401">
        <ele>446.1</ele>
      </trkpt>
      <trkpt lat="42.13486" lon="-1.42436">
        <ele>447.8</ele>
      </trkpt>
      <trkpt lat="42.13491" lon="-1.42458">
        <ele>448.1</ele>
      </trkpt>
      <trkpt lat="42.13492" lon="-1.4248">
        <ele>448.7</ele>
      </trkpt>
      <trkpt lat="42.13478" lon="-1.42517">
        <ele>450.2</ele>
      </trkpt>
      <trkpt lat="42.13475" lon="-1.42563">
        <ele>451</ele>
      </trkpt>
      <trkpt lat="42.13478" lon="-1.42575">
        <ele>451.1</ele>
      </trkpt>
      <trkpt lat="42.13484" lon="-1.42583">
        <ele>451.4</ele>
      </trkpt>
      <trkpt lat="42.13485" lon="-1.42584">
        <ele>451.4</ele>
        <extensions>
          <visugpx:TrkExtension xmlns:visugpx="https://www.visugpx.com/editgpx/">
            <visugpx:node>9</visugpx:node>
            </visugpx:TrkExtension>
        </extensions>
      </trkpt>
      <trkpt lat="42.13494" lon="-1.42589">
        <ele>451.6</ele>
      </trkpt>
      <trkpt lat="42.13522" lon="-1.42592">
        <ele>451.9</ele>
      </trkpt>
      <trkpt lat="42.13546" lon="-1.42602">
        <ele>453.3</ele>
      </trkpt>
      <trkpt lat="42.13585" lon="-1.42616">
        <ele>454.2</ele>
      </trkpt>
      <trkpt lat="42.13594" lon="-1.42622">
        <ele>454.1</ele>
      </trkpt>
      <trkpt lat="42.13633" lon="-1.4266">
        <ele>451.6</ele>
      </trkpt>
      <trkpt lat="42.13641" lon="-1.42676">
        <ele>451.1</ele>
      </trkpt>
      <trkpt lat="42.13647" lon="-1.42693">
        <ele>451.3</ele>
      </trkpt>
      <trkpt lat="42.13656" lon="-1.42756">
        <ele>448.5</ele>
      </trkpt>
      <trkpt lat="42.1366" lon="-1.42771">
        <ele>447.5</ele>
      </trkpt>
      <trkpt lat="42.13667" lon="-1.42786">
        <ele>446.8</ele>
      </trkpt>
      <trkpt lat="42.13672" lon="-1.42806">
        <ele>446.6</ele>
      </trkpt>
      <trkpt lat="42.13676" lon="-1.42848">
        <ele>446.2</ele>
      </trkpt>
      <trkpt lat="42.13679" lon="-1.42863">
        <ele>446.2</ele>
      </trkpt>
      <trkpt lat="42.13684" lon="-1.4287">
        <ele>446.4</ele>
      </trkpt>
      <trkpt lat="42.13694" lon="-1.42874">
        <ele>447</ele>
      </trkpt>
      <trkpt lat="42.1375" lon="-1.42888">
        <ele>447</ele>
      </trkpt>
      <trkpt lat="42.13812" lon="-1.42922">
        <ele>446.8</ele>
      </trkpt>
      <trkpt lat="42.13844" lon="-1.42936">
        <ele>446.4</ele>
      </trkpt>
      <trkpt lat="42.13874" lon="-1.42942">
        <ele>446.2</ele>
      </trkpt>
      <trkpt lat="42.13895" lon="-1.42941">
        <ele>446.3</ele>
      </trkpt>
      <trkpt lat="42.13915" lon="-1.42936">
        <ele>446.3</ele>
      </trkpt>
      <trkpt lat="42.13937" lon="-1.42926">
        <ele>445.4</ele>
      </trkpt>
      <trkpt lat="42.1395" lon="-1.42916">
        <ele>444.8</ele>
      </trkpt>
      <trkpt lat="42.13975" lon="-1.42879">
        <ele>444.4</ele>
      </trkpt>
      <trkpt lat="42.13981" lon="-1.42874">
        <ele>444.7</ele>
      </trkpt>
      <trkpt lat="42.13988" lon="-1.42874">
        <ele>444.8</ele>
      </trkpt>
      <trkpt lat="42.13996" lon="-1.4288">
        <ele>444.9</ele>
      </trkpt>
      <trkpt lat="42.14009" lon="-1.42896">
        <ele>445.1</ele>
      </trkpt>
      <trkpt lat="42.1402" lon="-1.42918">
        <ele>444.7</ele>
      </trkpt>
      <trkpt lat="42.14029" lon="-1.42944">
        <ele>444.1</ele>
      </trkpt>
      <trkpt lat="42.14048" lon="-1.42977">
        <ele>444.4</ele>
      </trkpt>
      <trkpt lat="42.14063" lon="-1.43021">
        <ele>444.2</ele>
      </trkpt>
      <trkpt lat="42.14069" lon="-1.43032">
        <ele>444.1</ele>
      </trkpt>
      <trkpt lat="42.14091" lon="-1.43047">
        <ele>445.1</ele>
      </trkpt>
      <trkpt lat="42.14106" lon="-1.43065">
        <ele>445.2</ele>
      </trkpt>
      <trkpt lat="42.14113" lon="-1.43071">
        <ele>445.5</ele>
      </trkpt>
      <trkpt lat="42.14125" lon="-1.43076">
        <ele>445.8</ele>
      </trkpt>
      <trkpt lat="42.14149" lon="-1.43077">
        <ele>446.2</ele>
      </trkpt>
      <trkpt lat="42.14161" lon="-1.43075">
        <ele>446.3</ele>
      </trkpt>
      <trkpt lat="42.14184" lon="-1.43065">
        <ele>446</ele>
      </trkpt>
      <trkpt lat="42.14196" lon="-1.43062">
        <ele>445.8</ele>
      </trkpt>
      <trkpt lat="42.14203" lon="-1.43066">
        <ele>446</ele>
      </trkpt>
      <trkpt lat="42.14207" lon="-1.43072">
        <ele>446.1</ele>
      </trkpt>
      <trkpt lat="42.14209" lon="-1.4308">
        <ele>446.1</ele>
      </trkpt>
      <trkpt lat="42.14207" lon="-1.43097">
        <ele>446.6</ele>
      </trkpt>
      <trkpt lat="42.14186" lon="-1.43141">
        <ele>446.9</ele>
      </trkpt>
      <trkpt lat="42.14181" lon="-1.4316">
        <ele>447.6</ele>
      </trkpt>
      <trkpt lat="42.14178" lon="-1.43178">
        <ele>448.6</ele>
      </trkpt>
      <trkpt lat="42.14179" lon="-1.43209">
        <ele>450.4</ele>
      </trkpt>
      <trkpt lat="42.14183" lon="-1.4323">
        <ele>451.3</ele>
      </trkpt>
      <trkpt lat="42.1419" lon="-1.43252">
        <ele>451.8</ele>
      </trkpt>
      <trkpt lat="42.14198" lon="-1.43273">
        <ele>452.3</ele>
      </trkpt>
      <trkpt lat="42.14206" lon="-1.4329">
        <ele>452.6</ele>
      </trkpt>
      <trkpt lat="42.14232" lon="-1.43322">
        <ele>452.8</ele>
      </trkpt>
      <trkpt lat="42.14245" lon="-1.43345">
        <ele>452.3</ele>
      </trkpt>
      <trkpt lat="42.14255" lon="-1.43374">
        <ele>452</ele>
      </trkpt>
      <trkpt lat="42.14258" lon="-1.43393">
        <ele>452</ele>
      </trkpt>
      <trkpt lat="42.14286" lon="-1.43483">
        <ele>454.8</ele>
      </trkpt>
      <trkpt lat="42.14297" lon="-1.43499">
        <ele>454.8</ele>
      </trkpt>
      <trkpt lat="42.1433" lon="-1.43523">
        <ele>454.2</ele>
      </trkpt>
      <trkpt lat="42.14336" lon="-1.43535">
        <ele>454.4</ele>
      </trkpt>
      <trkpt lat="42.14342" lon="-1.43562">
        <ele>455</ele>
      </trkpt>
      <trkpt lat="42.14351" lon="-1.43579">
        <ele>455.1</ele>
      </trkpt>
      <trkpt lat="42.1437" lon="-1.436">
        <ele>456</ele>
      </trkpt>
      <trkpt lat="42.14381" lon="-1.43613">
        <ele>456</ele>
      </trkpt>
      <trkpt lat="42.14389" lon="-1.43627">
        <ele>456</ele>
      </trkpt>
      <trkpt lat="42.14408" lon="-1.43667">
        <ele>453.9</ele>
      </trkpt>
      <trkpt lat="42.14416" lon="-1.43695">
        <ele>450.1</ele>
      </trkpt>
      <trkpt lat="42.14422" lon="-1.43707">
        <ele>450.3</ele>
      </trkpt>
      <trkpt lat="42.14451" lon="-1.43745">
        <ele>447.8</ele>
      </trkpt>
      <trkpt lat="42.14494" lon="-1.4382">
        <ele>441.8</ele>
      </trkpt>
      <trkpt lat="42.14503" lon="-1.4383">
        <ele>441.4</ele>
        <extensions>
          <visugpx:TrkExtension xmlns:visugpx="https://www.visugpx.com/editgpx/">
            <visugpx:node>10</visugpx:node>
            </visugpx:TrkExtension>
        </extensions>
      </trkpt>
      <trkpt lat="42.14503" lon="-1.4383">
        <ele>441.4</ele>
      </trkpt>
      <trkpt lat="42.1453" lon="-1.43844">
        <ele>439</ele>
      </trkpt>
      <trkpt lat="42.14563" lon="-1.43853">
        <ele>436.5</ele>
      </trkpt>
      <trkpt lat="42.14596" lon="-1.43874">
        <ele>434.1</ele>
      </trkpt>
      <trkpt lat="42.14605" lon="-1.43882">
        <ele>433.5</ele>
      </trkpt>
      <trkpt lat="42.14613" lon="-1.43895">
        <ele>432.8</ele>
      </trkpt>
      <trkpt lat="42.14627" lon="-1.43929">
        <ele>431.7</ele>
      </trkpt>
      <trkpt lat="42.14648" lon="-1.43991">
        <ele>429.3</ele>
      </trkpt>
      <trkpt lat="42.14648" lon="-1.43997">
        <ele>429.1</ele>
      </trkpt>
      <trkpt lat="42.14649" lon="-1.44008">
        <ele>428.8</ele>
      </trkpt>
      <trkpt lat="42.14646" lon="-1.44038">
        <ele>428</ele>
      </trkpt>
      <trkpt lat="42.14647" lon="-1.44059">
        <ele>427.6</ele>
      </trkpt>
      <trkpt lat="42.14645" lon="-1.44073">
        <ele>427.4</ele>
      </trkpt>
      <trkpt lat="42.1464" lon="-1.44082">
        <ele>427.1</ele>
      </trkpt>
      <trkpt lat="42.14626" lon="-1.44099">
        <ele>426.7</ele>
      </trkpt>
      <trkpt lat="42.14606" lon="-1.4413">
        <ele>425.4</ele>
      </trkpt>
      <trkpt lat="42.14596" lon="-1.44151">
        <ele>424.8</ele>
      </trkpt>
      <trkpt lat="42.14588" lon="-1.44173">
        <ele>423.6</ele>
      </trkpt>
      <trkpt lat="42.14582" lon="-1.44179">
        <ele>423.5</ele>
      </trkpt>
      <trkpt lat="42.14573" lon="-1.4419">
        <ele>423.7</ele>
      </trkpt>
      <trkpt lat="42.14563" lon="-1.44215">
        <ele>422.7</ele>
      </trkpt>
      <trkpt lat="42.14553" lon="-1.44232">
        <ele>421.9</ele>
      </trkpt>
      <trkpt lat="42.14541" lon="-1.44249">
        <ele>421</ele>
      </trkpt>
      <trkpt lat="42.14531" lon="-1.44256">
        <ele>420.2</ele>
      </trkpt>
      <trkpt lat="42.14499" lon="-1.44265">
        <ele>418.9</ele>
      </trkpt>
      <trkpt lat="42.1449" lon="-1.44262">
        <ele>418.9</ele>
      </trkpt>
      <trkpt lat="42.14464" lon="-1.44251">
        <ele>418.1</ele>
      </trkpt>
      <trkpt lat="42.1444" lon="-1.44246">
        <ele>416.1</ele>
      </trkpt>
      <trkpt lat="42.14426" lon="-1.44239">
        <ele>416.1</ele>
      </trkpt>
      <trkpt lat="42.1438" lon="-1.44234">
        <ele>414.4</ele>
      </trkpt>
      <trkpt lat="42.1436" lon="-1.44236">
        <ele>413.6</ele>
      </trkpt>
      <trkpt lat="42.14343" lon="-1.44239">
        <ele>415.4</ele>
      </trkpt>
      <trkpt lat="42.14327" lon="-1.44249">
        <ele>417.4</ele>
      </trkpt>
      <trkpt lat="42.14309" lon="-1.44279">
        <ele>418.9</ele>
      </trkpt>
      <trkpt lat="42.14299" lon="-1.44287">
        <ele>419.6</ele>
      </trkpt>
      <trkpt lat="42.14286" lon="-1.44291">
        <ele>419.9</ele>
      </trkpt>
      <trkpt lat="42.14266" lon="-1.44291">
        <ele>420.5</ele>
      </trkpt>
      <trkpt lat="42.14258" lon="-1.44294">
        <ele>420.4</ele>
      </trkpt>
      <trkpt lat="42.14251" lon="-1.44303">
        <ele>419.4</ele>
      </trkpt>
      <trkpt lat="42.14242" lon="-1.44309">
        <ele>418.7</ele>
      </trkpt>
      <trkpt lat="42.14232" lon="-1.44311">
        <ele>418.9</ele>
      </trkpt>
      <trkpt lat="42.14201" lon="-1.44305">
        <ele>420.1</ele>
      </trkpt>
      <trkpt lat="42.14188" lon="-1.44315">
        <ele>420.8</ele>
      </trkpt>
      <trkpt lat="42.14186" lon="-1.44329">
        <ele>420.7</ele>
      </trkpt>
      <trkpt lat="42.14191" lon="-1.44357">
        <ele>420.8</ele>
      </trkpt>
      <trkpt lat="42.14187" lon="-1.44404">
        <ele>424.1</ele>
      </trkpt>
      <trkpt lat="42.14185" lon="-1.44415">
        <ele>424.6</ele>
      </trkpt>
      <trkpt lat="42.14182" lon="-1.44422">
        <ele>424.9</ele>
      </trkpt>
      <trkpt lat="42.14175" lon="-1.4443">
        <ele>425.4</ele>
      </trkpt>
      <trkpt lat="42.14132" lon="-1.44455">
        <ele>425.6</ele>
      </trkpt>
      <trkpt lat="42.1409" lon="-1.44475">
        <ele>424.2</ele>
      </trkpt>
      <trkpt lat="42.14028" lon="-1.44511">
        <ele>423</ele>
      </trkpt>
      <trkpt lat="42.13952" lon="-1.44537">
        <ele>421.3</ele>
      </trkpt>
      <trkpt lat="42.13943" lon="-1.44538">
        <ele>421.4</ele>
      </trkpt>
      <trkpt lat="42.13936" lon="-1.44535">
        <ele>421.6</ele>
      </trkpt>
      <trkpt lat="42.1393" lon="-1.44528">
        <ele>421.5</ele>
      </trkpt>
      <trkpt lat="42.13926" lon="-1.44517">
        <ele>421.1</ele>
      </trkpt>
      <trkpt lat="42.13898" lon="-1.44401">
        <ele>418.1</ele>
      </trkpt>
      <trkpt lat="42.13885" lon="-1.4437">
        <ele>417.7</ele>
      </trkpt>
      <trkpt lat="42.13881" lon="-1.4435">
        <ele>417.2</ele>
      </trkpt>
      <trkpt lat="42.13882" lon="-1.44339">
        <ele>416.8</ele>
      </trkpt>
      <trkpt lat="42.13887" lon="-1.44319">
        <ele>416.4</ele>
      </trkpt>
      <trkpt lat="42.13886" lon="-1.44314">
        <ele>416.2</ele>
      </trkpt>
      <trkpt lat="42.13883" lon="-1.44312">
        <ele>416.1</ele>
      </trkpt>
      <trkpt lat="42.1387" lon="-1.44317">
        <ele>415.9</ele>
      </trkpt>
      <trkpt lat="42.13864" lon="-1.44315">
        <ele>415.7</ele>
      </trkpt>
      <trkpt lat="42.13859" lon="-1.44308">
        <ele>415.7</ele>
      </trkpt>
      <trkpt lat="42.13833" lon="-1.44235">
        <ele>418.5</ele>
      </trkpt>
      <trkpt lat="42.13831" lon="-1.44221">
        <ele>418.9</ele>
      </trkpt>
      <trkpt lat="42.13832" lon="-1.44195">
        <ele>418.1</ele>
      </trkpt>
      <trkpt lat="42.13823" lon="-1.44162">
        <ele>416.8</ele>
        <extensions>
          <visugpx:TrkExtension xmlns:visugpx="https://www.visugpx.com/editgpx/">
            <visugpx:node>11</visugpx:node>
            </visugpx:TrkExtension>
        </extensions>
      </trkpt>
      <trkpt lat="42.13822" lon="-1.44157">
        <ele>417</ele>
      </trkpt>
      <trkpt lat="42.13827" lon="-1.4411">
        <ele>418</ele>
      </trkpt>
      <trkpt lat="42.13845" lon="-1.44088">
        <ele>418.6</ele>
      </trkpt>
      <trkpt lat="42.13847" lon="-1.4408">
        <ele>418.6</ele>
      </trkpt>
      <trkpt lat="42.13845" lon="-1.44067">
        <ele>419.1</ele>
      </trkpt>
      <trkpt lat="42.13826" lon="-1.44033">
        <ele>421.1</ele>
      </trkpt>
      <trkpt lat="42.13813" lon="-1.44016">
        <ele>421.5</ele>
      </trkpt>
      <trkpt lat="42.13795" lon="-1.44">
        <ele>420.2</ele>
      </trkpt>
      <trkpt lat="42.13778" lon="-1.43991">
        <ele>418.7</ele>
      </trkpt>
      <trkpt lat="42.13752" lon="-1.43984">
        <ele>416.6</ele>
      </trkpt>
      <trkpt lat="42.13744" lon="-1.43979">
        <ele>416</ele>
      </trkpt>
      <trkpt lat="42.13726" lon="-1.43965">
        <ele>415.2</ele>
      </trkpt>
      <trkpt lat="42.13713" lon="-1.4396">
        <ele>414.7</ele>
      </trkpt>
      <trkpt lat="42.13659" lon="-1.43955">
        <ele>412.8</ele>
      </trkpt>
      <trkpt lat="42.13651" lon="-1.43952">
        <ele>412.6</ele>
      </trkpt>
      <trkpt lat="42.13645" lon="-1.43946">
        <ele>412.3</ele>
      </trkpt>
      <trkpt lat="42.13639" lon="-1.43937">
        <ele>412</ele>
      </trkpt>
      <trkpt lat="42.13635" lon="-1.4392">
        <ele>412</ele>
      </trkpt>
      <trkpt lat="42.13627" lon="-1.4388">
        <ele>411.6</ele>
      </trkpt>
      <trkpt lat="42.136" lon="-1.4381">
        <ele>409.7</ele>
      </trkpt>
      <trkpt lat="42.13588" lon="-1.43782">
        <ele>409.2</ele>
      </trkpt>
      <trkpt lat="42.13557" lon="-1.43749">
        <ele>409.2</ele>
      </trkpt>
      <trkpt lat="42.13546" lon="-1.43741">
        <ele>409.4</ele>
      </trkpt>
      <trkpt lat="42.13531" lon="-1.43736">
        <ele>409.6</ele>
      </trkpt>
      <trkpt lat="42.13505" lon="-1.43731">
        <ele>409.8</ele>
      </trkpt>
      <trkpt lat="42.13488" lon="-1.43723">
        <ele>410.4</ele>
      </trkpt>
      <trkpt lat="42.13478" lon="-1.43725">
        <ele>410.7</ele>
      </trkpt>
      <trkpt lat="42.13464" lon="-1.43723">
        <ele>411</ele>
      </trkpt>
      <trkpt lat="42.13422" lon="-1.43704">
        <ele>412.4</ele>
      </trkpt>
      <trkpt lat="42.13413" lon="-1.43696">
        <ele>412.9</ele>
      </trkpt>
      <trkpt lat="42.13399" lon="-1.43678">
        <ele>412.5</ele>
      </trkpt>
      <trkpt lat="42.13358" lon="-1.43646">
        <ele>410.8</ele>
      </trkpt>
      <trkpt lat="42.13347" lon="-1.43641">
        <ele>410.1</ele>
      </trkpt>
      <trkpt lat="42.13282" lon="-1.43617">
        <ele>406</ele>
      </trkpt>
      <trkpt lat="42.13255" lon="-1.43616">
        <ele>406</ele>
      </trkpt>
      <trkpt lat="42.13244" lon="-1.43618">
        <ele>406.2</ele>
      </trkpt>
      <trkpt lat="42.1317" lon="-1.43664">
        <ele>407</ele>
      </trkpt>
      <trkpt lat="42.13153" lon="-1.43685">
        <ele>406.7</ele>
      </trkpt>
      <trkpt lat="42.13111" lon="-1.4378">
        <ele>407.1</ele>
      </trkpt>
      <trkpt lat="42.13095" lon="-1.438">
        <ele>408.1</ele>
      </trkpt>
      <trkpt lat="42.13078" lon="-1.43816">
        <ele>408.2</ele>
      </trkpt>
      <trkpt lat="42.13062" lon="-1.43825">
        <ele>408.8</ele>
      </trkpt>
      <trkpt lat="42.13049" lon="-1.43828">
        <ele>408.8</ele>
      </trkpt>
      <trkpt lat="42.13034" lon="-1.43828">
        <ele>408.4</ele>
      </trkpt>
      <trkpt lat="42.13015" lon="-1.43824">
        <ele>408.3</ele>
      </trkpt>
      <trkpt lat="42.13005" lon="-1.43825">
        <ele>408.3</ele>
      </trkpt>
      <trkpt lat="42.12999" lon="-1.43831">
        <ele>408.1</ele>
      </trkpt>
      <trkpt lat="42.12993" lon="-1.43843">
        <ele>408.8</ele>
      </trkpt>
      <trkpt lat="42.12991" lon="-1.43897">
        <ele>409.8</ele>
      </trkpt>
      <trkpt lat="42.12984" lon="-1.43912">
        <ele>410.5</ele>
      </trkpt>
      <trkpt lat="42.12976" lon="-1.43918">
        <ele>410.8</ele>
      </trkpt>
      <trkpt lat="42.12965" lon="-1.4392">
        <ele>411.7</ele>
      </trkpt>
      <trkpt lat="42.12957" lon="-1.43918">
        <ele>412.6</ele>
      </trkpt>
      <trkpt lat="42.12945" lon="-1.43913">
        <ele>413.9</ele>
      </trkpt>
      <trkpt lat="42.12935" lon="-1.43905">
        <ele>414.9</ele>
      </trkpt>
      <trkpt lat="42.12906" lon="-1.43879">
        <ele>416.2</ele>
      </trkpt>
      <trkpt lat="42.12897" lon="-1.43873">
        <ele>416.5</ele>
      </trkpt>
      <trkpt lat="42.12886" lon="-1.43868">
        <ele>417.1</ele>
      </trkpt>
      <trkpt lat="42.12836" lon="-1.43853">
        <ele>416.2</ele>
      </trkpt>
      <trkpt lat="42.12826" lon="-1.43853">
        <ele>415.7</ele>
      </trkpt>
      <trkpt lat="42.12797" lon="-1.43865">
        <ele>414.9</ele>
      </trkpt>
      <trkpt lat="42.12764" lon="-1.43887">
        <ele>414.6</ele>
      </trkpt>
      <trkpt lat="42.12749" lon="-1.43989">
        <ele>414</ele>
      </trkpt>
      <trkpt lat="42.1275" lon="-1.44021">
        <ele>414.8</ele>
      </trkpt>
      <trkpt lat="42.12748" lon="-1.44042">
        <ele>415.1</ele>
      </trkpt>
      <trkpt lat="42.12724" lon="-1.44019">
        <ele>415.6</ele>
      </trkpt>
      <trkpt lat="42.12715" lon="-1.44013">
        <ele>415.7</ele>
      </trkpt>
      <trkpt lat="42.12705" lon="-1.4401">
        <ele>416</ele>
      </trkpt>
      <trkpt lat="42.12669" lon="-1.44011">
        <ele>415.1</ele>
      </trkpt>
      <trkpt lat="42.12652" lon="-1.44006">
        <ele>414.6</ele>
      </trkpt>
      <trkpt lat="42.12599" lon="-1.44046">
        <ele>414.4</ele>
      </trkpt>
      <trkpt lat="42.12579" lon="-1.44056">
        <ele>413.9</ele>
      </trkpt>
      <trkpt lat="42.12538" lon="-1.44058">
        <ele>413</ele>
      </trkpt>
      <trkpt lat="42.12476" lon="-1.44042">
        <ele>411.6</ele>
      </trkpt>
      <trkpt lat="42.12416" lon="-1.44042">
        <ele>410.5</ele>
      </trkpt>
      <trkpt lat="42.12395" lon="-1.44039">
        <ele>410.4</ele>
      </trkpt>
      <trkpt lat="42.1233" lon="-1.44019">
        <ele>408.9</ele>
      </trkpt>
      <trkpt lat="42.12245" lon="-1.43982">
        <ele>408.6</ele>
      </trkpt>
      <trkpt lat="42.12214" lon="-1.43975">
        <ele>408.9</ele>
      </trkpt>
      <trkpt lat="42.12203" lon="-1.43976">
        <ele>409</ele>
      </trkpt>
      <trkpt lat="42.12185" lon="-1.43982">
        <ele>409</ele>
      </trkpt>
      <trkpt lat="42.12163" lon="-1.44">
        <ele>409</ele>
      </trkpt>
      <trkpt lat="42.12133" lon="-1.44017">
        <ele>408.3</ele>
      </trkpt>
      <trkpt lat="42.12098" lon="-1.44042">
        <ele>407</ele>
      </trkpt>
      <trkpt lat="42.12015" lon="-1.44118">
        <ele>404.9</ele>
      </trkpt>
      <trkpt lat="42.12001" lon="-1.44137">
        <ele>405</ele>
      </trkpt>
      <trkpt lat="42.11988" lon="-1.44161">
        <ele>404.5</ele>
      </trkpt>
      <trkpt lat="42.11975" lon="-1.44179">
        <ele>404.9</ele>
      </trkpt>
      <trkpt lat="42.11966" lon="-1.44189">
        <ele>404.8</ele>
      </trkpt>
      <trkpt lat="42.11952" lon="-1.44196">
        <ele>404.3</ele>
      </trkpt>
      <trkpt lat="42.11924" lon="-1.44205">
        <ele>404.4</ele>
      </trkpt>
      <trkpt lat="42.11897" lon="-1.44217">
        <ele>404.2</ele>
      </trkpt>
      <trkpt lat="42.1188" lon="-1.44229">
        <ele>403.7</ele>
      </trkpt>
      <trkpt lat="42.11848" lon="-1.44258">
        <ele>402.7</ele>
      </trkpt>
      <trkpt lat="42.11754" lon="-1.44395">
        <ele>402.1</ele>
      </trkpt>
      <trkpt lat="42.11736" lon="-1.44421">
        <ele>402.6</ele>
      </trkpt>
      <trkpt lat="42.11718" lon="-1.4446">
        <ele>403.6</ele>
      </trkpt>
      <trkpt lat="42.1169" lon="-1.44506">
        <ele>405</ele>
      </trkpt>
      <trkpt lat="42.11656" lon="-1.44558">
        <ele>404.9</ele>
      </trkpt>
      <trkpt lat="42.11574" lon="-1.44668">
        <ele>400</ele>
      </trkpt>
      <trkpt lat="42.11568" lon="-1.44675">
        <ele>399.9</ele>
      </trkpt>
      <trkpt lat="42.11562" lon="-1.44692">
        <ele>400.3</ele>
      </trkpt>
      <trkpt lat="42.11561" lon="-1.44731">
        <ele>400.4</ele>
      </trkpt>
      <trkpt lat="42.11557" lon="-1.44752">
        <ele>400.7</ele>
      </trkpt>
      <trkpt lat="42.11536" lon="-1.44792">
        <ele>400.8</ele>
      </trkpt>
      <trkpt lat="42.1152" lon="-1.44812">
        <ele>401.1</ele>
      </trkpt>
      <trkpt lat="42.1151" lon="-1.4483">
        <ele>401.3</ele>
      </trkpt>
      <trkpt lat="42.11501" lon="-1.44857">
        <ele>402</ele>
      </trkpt>
      <trkpt lat="42.11491" lon="-1.44876">
        <ele>402</ele>
      </trkpt>
      <trkpt lat="42.11434" lon="-1.44943">
        <ele>403</ele>
      </trkpt>
      <trkpt lat="42.11419" lon="-1.44964">
        <ele>403.1</ele>
      </trkpt>
      <trkpt lat="42.11405" lon="-1.4499">
        <ele>402.2</ele>
      </trkpt>
      <trkpt lat="42.11384" lon="-1.45048">
        <ele>400.1</ele>
      </trkpt>
      <trkpt lat="42.1137" lon="-1.45074">
        <ele>399.3</ele>
      </trkpt>
      <trkpt lat="42.11325" lon="-1.45124">
        <ele>397.5</ele>
      </trkpt>
      <trkpt lat="42.11307" lon="-1.45135">
        <ele>397.1</ele>
      </trkpt>
      <trkpt lat="42.11288" lon="-1.45151">
        <ele>396.6</ele>
      </trkpt>
      <trkpt lat="42.11243" lon="-1.45197">
        <ele>395.9</ele>
      </trkpt>
      <trkpt lat="42.11229" lon="-1.45209">
        <ele>395.7</ele>
      </trkpt>
      <trkpt lat="42.11183" lon="-1.45226">
        <ele>395.9</ele>
      </trkpt>
      <trkpt lat="42.11159" lon="-1.45244">
        <ele>395.2</ele>
      </trkpt>
      <trkpt lat="42.11121" lon="-1.45277">
        <ele>395</ele>
      </trkpt>
      <trkpt lat="42.11106" lon="-1.45288">
        <ele>394.4</ele>
      </trkpt>
      <trkpt lat="42.11088" lon="-1.45293">
        <ele>393.6</ele>
      </trkpt>
      <trkpt lat="42.11057" lon="-1.4529">
        <ele>393.6</ele>
      </trkpt>
      <trkpt lat="42.1104" lon="-1.4529">
        <ele>393.2</ele>
      </trkpt>
      <trkpt lat="42.11023" lon="-1.45295">
        <ele>393</ele>
      </trkpt>
      <trkpt lat="42.10995" lon="-1.45312">
        <ele>393.2</ele>
      </trkpt>
      <trkpt lat="42.10913" lon="-1.45356">
        <ele>391.5</ele>
      </trkpt>
      <trkpt lat="42.10881" lon="-1.45384">
        <ele>390.3</ele>
      </trkpt>
      <trkpt lat="42.10848" lon="-1.45416">
        <ele>390</ele>
      </trkpt>
      <trkpt lat="42.10808" lon="-1.45463">
        <ele>391</ele>
      </trkpt>
      <trkpt lat="42.10793" lon="-1.45461">
        <ele>391</ele>
      </trkpt>
      <trkpt lat="42.10767" lon="-1.45431">
        <ele>391</ele>
      </trkpt>
      <trkpt lat="42.10669" lon="-1.45261">
        <ele>391</ele>
      </trkpt>
      <trkpt lat="42.10658" lon="-1.45246">
        <ele>391</ele>
      </trkpt>
      <trkpt lat="42.10647" lon="-1.45237">
        <ele>391</ele>
      </trkpt>
      <trkpt lat="42.10629" lon="-1.45229">
        <ele>390.6</ele>
      </trkpt>
      <trkpt lat="42.10605" lon="-1.45227">
        <ele>389.8</ele>
      </trkpt>
      <trkpt lat="42.10571" lon="-1.45218">
        <ele>388.5</ele>
      </trkpt>
      <trkpt lat="42.10537" lon="-1.45203">
        <ele>387.3</ele>
      </trkpt>
      <trkpt lat="42.10472" lon="-1.45167">
        <ele>386</ele>
      </trkpt>
      <trkpt lat="42.10445" lon="-1.45158">
        <ele>385.4</ele>
      </trkpt>
      <trkpt lat="42.10426" lon="-1.45159">
        <ele>385.4</ele>
      </trkpt>
      <trkpt lat="42.10376" lon="-1.45171">
        <ele>386.2</ele>
      </trkpt>
      <trkpt lat="42.10355" lon="-1.45171">
        <ele>385.8</ele>
      </trkpt>
      <trkpt lat="42.10339" lon="-1.45167">
        <ele>384.4</ele>
      </trkpt>
      <trkpt lat="42.10321" lon="-1.45148">
        <ele>383.4</ele>
      </trkpt>
      <trkpt lat="42.10261" lon="-1.4507">
        <ele>379.4</ele>
      </trkpt>
      <trkpt lat="42.10242" lon="-1.45052">
        <ele>379.2</ele>
      </trkpt>
      <trkpt lat="42.10213" lon="-1.45036">
        <ele>379.5</ele>
      </trkpt>
      <trkpt lat="42.10191" lon="-1.45026">
        <ele>377.8</ele>
      </trkpt>
      <trkpt lat="42.10156" lon="-1.45039">
        <ele>376.4</ele>
      </trkpt>
      <trkpt lat="42.1007" lon="-1.45053">
        <ele>373.7</ele>
      </trkpt>
      <trkpt lat="42.10055" lon="-1.45047">
        <ele>373.6</ele>
      </trkpt>
      <trkpt lat="42.10039" lon="-1.45049">
        <ele>373.6</ele>
      </trkpt>
      <trkpt lat="42.10019" lon="-1.45055">
        <ele>373.1</ele>
      </trkpt>
      <trkpt lat="42.09997" lon="-1.45058">
        <ele>372.8</ele>
      </trkpt>
      <trkpt lat="42.09966" lon="-1.45056">
        <ele>371.8</ele>
      </trkpt>
      <trkpt lat="42.09928" lon="-1.45046">
        <ele>371.5</ele>
      </trkpt>
      <trkpt lat="42.09916" lon="-1.45046">
        <ele>371.3</ele>
      </trkpt>
      <trkpt lat="42.09904" lon="-1.45049">
        <ele>371.1</ele>
      </trkpt>
      <trkpt lat="42.0987" lon="-1.4507">
        <ele>369.8</ele>
      </trkpt>
      <trkpt lat="42.09835" lon="-1.45088">
        <ele>368.7</ele>
      </trkpt>
      <trkpt lat="42.09801" lon="-1.45118">
        <ele>367.7</ele>
      </trkpt>
      <trkpt lat="42.09766" lon="-1.45145">
        <ele>366.1</ele>
      </trkpt>
      <trkpt lat="42.09747" lon="-1.45158">
        <ele>365.7</ele>
      </trkpt>
      <trkpt lat="42.09713" lon="-1.45176">
        <ele>365.4</ele>
      </trkpt>
      <trkpt lat="42.09646" lon="-1.45218">
        <ele>365</ele>
      </trkpt>
      <trkpt lat="42.09572" lon="-1.45312">
        <ele>362.9</ele>
      </trkpt>
      <trkpt lat="42.09449" lon="-1.45443">
        <ele>360</ele>
      </trkpt>
      <trkpt lat="42.09418" lon="-1.45453">
        <ele>359</ele>
      </trkpt>
      <trkpt lat="42.09389" lon="-1.4545">
        <ele>359</ele>
      </trkpt>
      <trkpt lat="42.09367" lon="-1.4544">
        <ele>358.3</ele>
      </trkpt>
      <trkpt lat="42.09353" lon="-1.45428">
        <ele>358.3</ele>
      </trkpt>
      <trkpt lat="42.0932" lon="-1.45379">
        <ele>358.2</ele>
      </trkpt>
      <trkpt lat="42.09275" lon="-1.45301">
        <ele>360</ele>
      </trkpt>
      <trkpt lat="42.09186" lon="-1.45165">
        <ele>356.4</ele>
      </trkpt>
      <trkpt lat="42.09141" lon="-1.45084">
        <ele>354.1</ele>
      </trkpt>
      <trkpt lat="42.09092" lon="-1.45016">
        <ele>352.2</ele>
      </trkpt>
      <trkpt lat="42.09087" lon="-1.44998">
        <ele>353.1</ele>
      </trkpt>
      <trkpt lat="42.09083" lon="-1.44975">
        <ele>353.9</ele>
      </trkpt>
      <trkpt lat="42.09086" lon="-1.44886">
        <ele>354</ele>
      </trkpt>
      <trkpt lat="42.09098" lon="-1.44557">
        <ele>358</ele>
      </trkpt>
      <trkpt lat="42.09093" lon="-1.44514">
        <ele>358.7</ele>
      </trkpt>
      <trkpt lat="42.09082" lon="-1.44497">
        <ele>358.8</ele>
      </trkpt>
      <trkpt lat="42.09084" lon="-1.44488">
        <ele>358.6</ele>
        <extensions>
          <visugpx:TrkExtension xmlns:visugpx="https://www.visugpx.com/editgpx/">
            <visugpx:node>12</visugpx:node>
            </visugpx:TrkExtension>
        </extensions>
      </trkpt>
      <trkpt lat="42.09082" lon="-1.44497">
        <ele>358.8</ele>
      </trkpt>
      <trkpt lat="42.09069" lon="-1.44536">
        <ele>358</ele>
      </trkpt>
      <trkpt lat="42.09013" lon="-1.44679">
        <ele>356.3</ele>
      </trkpt>
      <trkpt lat="42.0891" lon="-1.44902">
        <ele>354.6</ele>
      </trkpt>
      <trkpt lat="42.08879" lon="-1.44979">
        <ele>357.4</ele>
      </trkpt>
      <trkpt lat="42.08862" lon="-1.4504">
        <ele>357</ele>
      </trkpt>
      <trkpt lat="42.08856" lon="-1.45018">
        <ele>357.8</ele>
      </trkpt>
      <trkpt lat="42.08833" lon="-1.4488">
        <ele>360</ele>
      </trkpt>
      <trkpt lat="42.08813" lon="-1.44795">
        <ele>358.8</ele>
      </trkpt>
      <trkpt lat="42.08797" lon="-1.44737">
        <ele>359.8</ele>
      </trkpt>
      <trkpt lat="42.08779" lon="-1.44687">
        <ele>359.6</ele>
      </trkpt>
      <trkpt lat="42.08761" lon="-1.44651">
        <ele>359.4</ele>
      </trkpt>
      <trkpt lat="42.08743" lon="-1.44628">
        <ele>360</ele>
      </trkpt>
      <trkpt lat="42.08713" lon="-1.44598">
        <ele>360.7</ele>
      </trkpt>
      <trkpt lat="42.08693" lon="-1.44581">
        <ele>361.7</ele>
      </trkpt>
      <trkpt lat="42.08682" lon="-1.44578">
        <ele>361.9</ele>
      </trkpt>
      <trkpt lat="42.08671" lon="-1.44568">
        <ele>362</ele>
      </trkpt>
      <trkpt lat="42.08662" lon="-1.44552">
        <ele>362.4</ele>
      </trkpt>
      <trkpt lat="42.08655" lon="-1.44534">
        <ele>362.5</ele>
      </trkpt>
      <trkpt lat="42.08649" lon="-1.44487">
        <ele>362.6</ele>
      </trkpt>
      <trkpt lat="42.08644" lon="-1.44462">
        <ele>362.2</ele>
      </trkpt>
      <trkpt lat="42.08624" lon="-1.44406">
        <ele>361.7</ele>
      </trkpt>
      <trkpt lat="42.08611" lon="-1.44374">
        <ele>361.9</ele>
      </trkpt>
      <trkpt lat="42.08603" lon="-1.44363">
        <ele>361.7</ele>
      </trkpt>
      <trkpt lat="42.08574" lon="-1.44343">
        <ele>362.1</ele>
      </trkpt>
      <trkpt lat="42.08564" lon="-1.44333">
        <ele>361.4</ele>
      </trkpt>
      <trkpt lat="42.08556" lon="-1.44318">
        <ele>362</ele>
      </trkpt>
      <trkpt lat="42.08495" lon="-1.44157">
        <ele>364.6</ele>
      </trkpt>
      <trkpt lat="42.08486" lon="-1.44141">
        <ele>364.6</ele>
      </trkpt>
      <trkpt lat="42.08466" lon="-1.44116">
        <ele>365.2</ele>
      </trkpt>
      <trkpt lat="42.08449" lon="-1.44097">
        <ele>365.6</ele>
      </trkpt>
      <trkpt lat="42.08434" lon="-1.44086">
        <ele>366.2</ele>
      </trkpt>
      <trkpt lat="42.08369" lon="-1.44048">
        <ele>369.8</ele>
      </trkpt>
      <trkpt lat="42.08352" lon="-1.44036">
        <ele>370.1</ele>
      </trkpt>
      <trkpt lat="42.08324" lon="-1.44008">
        <ele>370.3</ele>
      </trkpt>
      <trkpt lat="42.08282" lon="-1.43973">
        <ele>368.9</ele>
      </trkpt>
      <trkpt lat="42.08264" lon="-1.43952">
        <ele>370.3</ele>
      </trkpt>
      <trkpt lat="42.08218" lon="-1.43889">
        <ele>371.2</ele>
      </trkpt>
      <trkpt lat="42.082" lon="-1.4387">
        <ele>371.7</ele>
      </trkpt>
      <trkpt lat="42.08187" lon="-1.4386">
        <ele>372.2</ele>
      </trkpt>
      <trkpt lat="42.08174" lon="-1.43854">
        <ele>372.5</ele>
      </trkpt>
      <trkpt lat="42.08133" lon="-1.43846">
        <ele>372.6</ele>
      </trkpt>
      <trkpt lat="42.081" lon="-1.43845">
        <ele>373.2</ele>
      </trkpt>
      <trkpt lat="42.08036" lon="-1.43846">
        <ele>375.6</ele>
      </trkpt>
      <trkpt lat="42.08021" lon="-1.43839">
        <ele>375.9</ele>
      </trkpt>
      <trkpt lat="42.07872" lon="-1.43746">
        <ele>377.5</ele>
      </trkpt>
      <trkpt lat="42.07816" lon="-1.43717">
        <ele>378</ele>
      </trkpt>
      <trkpt lat="42.07754" lon="-1.43692">
        <ele>378.8</ele>
      </trkpt>
      <trkpt lat="42.07725" lon="-1.43668">
        <ele>379</ele>
      </trkpt>
      <trkpt lat="42.077" lon="-1.43633">
        <ele>379.6</ele>
      </trkpt>
      <trkpt lat="42.07648" lon="-1.43525">
        <ele>381.9</ele>
      </trkpt>
      <trkpt lat="42.07629" lon="-1.43494">
        <ele>382.2</ele>
      </trkpt>
      <trkpt lat="42.07611" lon="-1.43474">
        <ele>384.1</ele>
      </trkpt>
      <trkpt lat="42.07599" lon="-1.43465">
        <ele>384.4</ele>
      </trkpt>
      <trkpt lat="42.07555" lon="-1.43451">
        <ele>384.8</ele>
      </trkpt>
      <trkpt lat="42.07543" lon="-1.43438">
        <ele>385.4</ele>
      </trkpt>
      <trkpt lat="42.0752" lon="-1.43406">
        <ele>386.3</ele>
      </trkpt>
      <trkpt lat="42.07481" lon="-1.4334">
        <ele>387.3</ele>
      </trkpt>
      <trkpt lat="42.07462" lon="-1.43311">
        <ele>386.8</ele>
      </trkpt>
      <trkpt lat="42.07448" lon="-1.43299">
        <ele>386.2</ele>
      </trkpt>
      <trkpt lat="42.07419" lon="-1.43288">
        <ele>386.6</ele>
      </trkpt>
      <trkpt lat="42.07405" lon="-1.43284">
        <ele>386.9</ele>
      </trkpt>
      <trkpt lat="42.07377" lon="-1.43272">
        <ele>387.2</ele>
      </trkpt>
      <trkpt lat="42.07362" lon="-1.43262">
        <ele>387.4</ele>
      </trkpt>
      <trkpt lat="42.07352" lon="-1.43252">
        <ele>387.1</ele>
      </trkpt>
      <trkpt lat="42.07322" lon="-1.43211">
        <ele>388.6</ele>
      </trkpt>
      <trkpt lat="42.07311" lon="-1.43195">
        <ele>389.2</ele>
      </trkpt>
      <trkpt lat="42.07271" lon="-1.43152">
        <ele>391.1</ele>
      </trkpt>
      <trkpt lat="42.07129" lon="-1.43019">
        <ele>394.8</ele>
      </trkpt>
      <trkpt lat="42.07116" lon="-1.43004">
        <ele>394.6</ele>
      </trkpt>
      <trkpt lat="42.07065" lon="-1.42903">
        <ele>396.3</ele>
      </trkpt>
      <trkpt lat="42.07033" lon="-1.4281">
        <ele>397.2</ele>
      </trkpt>
      <trkpt lat="42.07029" lon="-1.42802">
        <ele>397.2</ele>
      </trkpt>
      <trkpt lat="42.07044" lon="-1.4279">
        <ele>398.1</ele>
        <extensions>
          <visugpx:TrkExtension xmlns:visugpx="https://www.visugpx.com/editgpx/">
            <visugpx:node>13</visugpx:node>
            </visugpx:TrkExtension>
        </extensions>
      </trkpt>
      <trkpt lat="42.07046" lon="-1.42789">
        <ele>398.3</ele>
      </trkpt>
      <trkpt lat="42.07062" lon="-1.42766">
        <ele>399.7</ele>
      </trkpt>
      <trkpt lat="42.07072" lon="-1.42739">
        <ele>400.8</ele>
      </trkpt>
      <trkpt lat="42.0708" lon="-1.42698">
        <ele>402.4</ele>
      </trkpt>
      <trkpt lat="42.07086" lon="-1.42659">
        <ele>403.3</ele>
      </trkpt>
      <trkpt lat="42.0709" lon="-1.42612">
        <ele>404</ele>
      </trkpt>
      <trkpt lat="42.07092" lon="-1.42482">
        <ele>403.9</ele>
      </trkpt>
      <trkpt lat="42.07103" lon="-1.42469">
        <ele>404.1</ele>
      </trkpt>
      <trkpt lat="42.07182" lon="-1.42399">
        <ele>406.4</ele>
      </trkpt>
      <trkpt lat="42.07266" lon="-1.42351">
        <ele>406.9</ele>
      </trkpt>
      <trkpt lat="42.07283" lon="-1.4234">
        <ele>406.9</ele>
      </trkpt>
      <trkpt lat="42.07294" lon="-1.42328">
        <ele>406.4</ele>
      </trkpt>
      <trkpt lat="42.073" lon="-1.42314">
        <ele>405.8</ele>
      </trkpt>
      <trkpt lat="42.07315" lon="-1.42247">
        <ele>402.7</ele>
      </trkpt>
      <trkpt lat="42.07323" lon="-1.42223">
        <ele>402.4</ele>
      </trkpt>
      <trkpt lat="42.07354" lon="-1.42159">
        <ele>403.9</ele>
      </trkpt>
      <trkpt lat="42.07407" lon="-1.42034">
        <ele>405.3</ele>
      </trkpt>
      <trkpt lat="42.07423" lon="-1.42013">
        <ele>405.6</ele>
      </trkpt>
      <trkpt lat="42.0746" lon="-1.41978">
        <ele>407.9</ele>
      </trkpt>
      <trkpt lat="42.07486" lon="-1.41936">
        <ele>409.5</ele>
      </trkpt>
      <trkpt lat="42.07506" lon="-1.41899">
        <ele>410.2</ele>
      </trkpt>
      <trkpt lat="42.07519" lon="-1.41872">
        <ele>411.2</ele>
      </trkpt>
      <trkpt lat="42.07527" lon="-1.41848">
        <ele>412</ele>
      </trkpt>
      <trkpt lat="42.07544" lon="-1.41777">
        <ele>414</ele>
      </trkpt>
      <trkpt lat="42.07554" lon="-1.41745">
        <ele>415.2</ele>
      </trkpt>
      <trkpt lat="42.07567" lon="-1.41713">
        <ele>416.7</ele>
      </trkpt>
      <trkpt lat="42.07594" lon="-1.41659">
        <ele>419.4</ele>
      </trkpt>
      <trkpt lat="42.07609" lon="-1.41621">
        <ele>420</ele>
      </trkpt>
      <trkpt lat="42.0767" lon="-1.41423">
        <ele>423.2</ele>
      </trkpt>
      <trkpt lat="42.07674" lon="-1.41393">
        <ele>424.6</ele>
      </trkpt>
      <trkpt lat="42.0767" lon="-1.41289">
        <ele>425.9</ele>
      </trkpt>
      <trkpt lat="42.07675" lon="-1.41255">
        <ele>424.7</ele>
      </trkpt>
      <trkpt lat="42.07684" lon="-1.41231">
        <ele>424.6</ele>
      </trkpt>
      <trkpt lat="42.07701" lon="-1.41211">
        <ele>424.9</ele>
      </trkpt>
      <trkpt lat="42.07724" lon="-1.41196">
        <ele>424.9</ele>
      </trkpt>
      <trkpt lat="42.07751" lon="-1.4119">
        <ele>424.4</ele>
      </trkpt>
      <trkpt lat="42.07769" lon="-1.41197">
        <ele>425.1</ele>
      </trkpt>
      <trkpt lat="42.07823" lon="-1.41233">
        <ele>426.9</ele>
      </trkpt>
      <trkpt lat="42.07863" lon="-1.41238">
        <ele>428.9</ele>
      </trkpt>
      <trkpt lat="42.0788" lon="-1.41235">
        <ele>428.4</ele>
      </trkpt>
      <trkpt lat="42.07896" lon="-1.41214">
        <ele>430</ele>
      </trkpt>
      <trkpt lat="42.07905" lon="-1.41179">
        <ele>430.7</ele>
      </trkpt>
      <trkpt lat="42.07906" lon="-1.41157">
        <ele>431.1</ele>
      </trkpt>
      <trkpt lat="42.07902" lon="-1.41115">
        <ele>430.3</ele>
      </trkpt>
      <trkpt lat="42.07906" lon="-1.41096">
        <ele>429.9</ele>
      </trkpt>
      <trkpt lat="42.07914" lon="-1.41077">
        <ele>429.3</ele>
      </trkpt>
      <trkpt lat="42.07931" lon="-1.41057">
        <ele>428.4</ele>
      </trkpt>
      <trkpt lat="42.07949" lon="-1.41047">
        <ele>428.5</ele>
      </trkpt>
      <trkpt lat="42.07982" lon="-1.41041">
        <ele>427.9</ele>
      </trkpt>
      <trkpt lat="42.08015" lon="-1.41014">
        <ele>427.4</ele>
      </trkpt>
      <trkpt lat="42.08049" lon="-1.40977">
        <ele>426.2</ele>
      </trkpt>
      <trkpt lat="42.08135" lon="-1.40858">
        <ele>423.3</ele>
      </trkpt>
      <trkpt lat="42.0815" lon="-1.40832">
        <ele>422.6</ele>
      </trkpt>
      <trkpt lat="42.08159" lon="-1.40809">
        <ele>423.2</ele>
      </trkpt>
      <trkpt lat="42.08168" lon="-1.40772">
        <ele>423</ele>
      </trkpt>
      <trkpt lat="42.08176" lon="-1.40727">
        <ele>423.8</ele>
      </trkpt>
      <trkpt lat="42.08208" lon="-1.40733">
        <ele>422</ele>
      </trkpt>
      <trkpt lat="42.08279" lon="-1.40759">
        <ele>421</ele>
      </trkpt>
      <trkpt lat="42.08297" lon="-1.40763">
        <ele>420.6</ele>
      </trkpt>
      <trkpt lat="42.08317" lon="-1.40761">
        <ele>421.3</ele>
      </trkpt>
      <trkpt lat="42.08331" lon="-1.40764">
        <ele>420.9</ele>
      </trkpt>
      <trkpt lat="42.08342" lon="-1.40763">
        <ele>420.2</ele>
      </trkpt>
      <trkpt lat="42.08358" lon="-1.40751">
        <ele>419.5</ele>
      </trkpt>
      <trkpt lat="42.0837" lon="-1.40747">
        <ele>419.5</ele>
      </trkpt>
      <trkpt lat="42.08392" lon="-1.40748">
        <ele>419.3</ele>
      </trkpt>
      <trkpt lat="42.08478" lon="-1.40734">
        <ele>416.8</ele>
      </trkpt>
      <trkpt lat="42.08497" lon="-1.40723">
        <ele>415.5</ele>
      </trkpt>
      <trkpt lat="42.08507" lon="-1.40711">
        <ele>415.8</ele>
      </trkpt>
      <trkpt lat="42.08526" lon="-1.40676">
        <ele>412.5</ele>
      </trkpt>
      <trkpt lat="42.08557" lon="-1.40624">
        <ele>409.9</ele>
      </trkpt>
      <trkpt lat="42.08581" lon="-1.40594">
        <ele>410.5</ele>
      </trkpt>
      <trkpt lat="42.08633" lon="-1.40539">
        <ele>411.8</ele>
      </trkpt>
      <trkpt lat="42.08707" lon="-1.40481">
        <ele>411.3</ele>
      </trkpt>
      <trkpt lat="42.08716" lon="-1.40474">
        <ele>411.1</ele>
      </trkpt>
      <trkpt lat="42.08775" lon="-1.40412">
        <ele>410.5</ele>
      </trkpt>
      <trkpt lat="42.08796" lon="-1.40401">
        <ele>410.7</ele>
      </trkpt>
      <trkpt lat="42.08821" lon="-1.40378">
        <ele>411.4</ele>
      </trkpt>
      <trkpt lat="42.08841" lon="-1.40357">
        <ele>412.3</ele>
      </trkpt>
      <trkpt lat="42.08863" lon="-1.40336">
        <ele>412.9</ele>
      </trkpt>
      <trkpt lat="42.08925" lon="-1.40293">
        <ele>414</ele>
      </trkpt>
      <trkpt lat="42.08946" lon="-1.40275">
        <ele>414.1</ele>
      </trkpt>
      <trkpt lat="42.09033" lon="-1.40172">
        <ele>412.2</ele>
      </trkpt>
      <trkpt lat="42.0905" lon="-1.40154">
        <ele>412</ele>
      </trkpt>
      <trkpt lat="42.09096" lon="-1.40117">
        <ele>411.8</ele>
      </trkpt>
      <trkpt lat="42.09128" lon="-1.40087">
        <ele>410.5</ele>
      </trkpt>
      <trkpt lat="42.09201" lon="-1.40015">
        <ele>408.6</ele>
      </trkpt>
      <trkpt lat="42.09299" lon="-1.39931">
        <ele>414.2</ele>
      </trkpt>
      <trkpt lat="42.09428" lon="-1.39797">
        <ele>414</ele>
      </trkpt>
      <trkpt lat="42.09496" lon="-1.39728">
        <ele>414</ele>
      </trkpt>
      <trkpt lat="42.09545" lon="-1.39682">
        <ele>412.7</ele>
      </trkpt>
      <trkpt lat="42.09567" lon="-1.39662">
        <ele>413</ele>
      </trkpt>
      <trkpt lat="42.09592" lon="-1.39647">
        <ele>413.3</ele>
      </trkpt>
      <trkpt lat="42.0961" lon="-1.39638">
        <ele>413.9</ele>
      </trkpt>
      <trkpt lat="42.09752" lon="-1.39617">
        <ele>415.3</ele>
      </trkpt>
      <trkpt lat="42.09823" lon="-1.39601">
        <ele>415.6</ele>
      </trkpt>
      <trkpt lat="42.09882" lon="-1.39594">
        <ele>415.9</ele>
      </trkpt>
      <trkpt lat="42.09902" lon="-1.39592">
        <ele>416</ele>
      </trkpt>
      <trkpt lat="42.09926" lon="-1.39598">
        <ele>416</ele>
      </trkpt>
      <trkpt lat="42.09978" lon="-1.39623">
        <ele>415.4</ele>
      </trkpt>
      <trkpt lat="42.09997" lon="-1.39637">
        <ele>414.2</ele>
      </trkpt>
      <trkpt lat="42.10013" lon="-1.39637">
        <ele>412.7</ele>
      </trkpt>
      <trkpt lat="42.10076" lon="-1.39628">
        <ele>408.8</ele>
      </trkpt>
      <trkpt lat="42.10097" lon="-1.39616">
        <ele>407.1</ele>
      </trkpt>
      <trkpt lat="42.10124" lon="-1.39595">
        <ele>405.4</ele>
      </trkpt>
      <trkpt lat="42.10161" lon="-1.39561">
        <ele>405.9</ele>
      </trkpt>
      <trkpt lat="42.10195" lon="-1.3952">
        <ele>406</ele>
      </trkpt>
      <trkpt lat="42.10321" lon="-1.39362">
        <ele>409.3</ele>
      </trkpt>
      <trkpt lat="42.10357" lon="-1.39323">
        <ele>410.2</ele>
      </trkpt>
      <trkpt lat="42.10373" lon="-1.393">
        <ele>410.7</ele>
      </trkpt>
      <trkpt lat="42.1039" lon="-1.3929">
        <ele>411.5</ele>
      </trkpt>
      <trkpt lat="42.1042" lon="-1.39279">
        <ele>412.2</ele>
      </trkpt>
      <trkpt lat="42.10431" lon="-1.3927">
        <ele>412.8</ele>
      </trkpt>
      <trkpt lat="42.10473" lon="-1.39221">
        <ele>415.1</ele>
      </trkpt>
      <trkpt lat="42.10498" lon="-1.39193">
        <ele>416.9</ele>
      </trkpt>
      <trkpt lat="42.10525" lon="-1.39168">
        <ele>417</ele>
      </trkpt>
      <trkpt lat="42.10534" lon="-1.39156">
        <ele>416.8</ele>
      </trkpt>
      <trkpt lat="42.10551" lon="-1.39117">
        <ele>416.8</ele>
      </trkpt>
      <trkpt lat="42.10574" lon="-1.39076">
        <ele>417.6</ele>
      </trkpt>
      <trkpt lat="42.10583" lon="-1.39053">
        <ele>418</ele>
      </trkpt>
      <trkpt lat="42.1059" lon="-1.39032">
        <ele>418.3</ele>
      </trkpt>
      <trkpt lat="42.10594" lon="-1.39016">
        <ele>418.4</ele>
      </trkpt>
      <trkpt lat="42.10596" lon="-1.38986">
        <ele>418.7</ele>
      </trkpt>
      <trkpt lat="42.10601" lon="-1.38971">
        <ele>419.3</ele>
      </trkpt>
      <trkpt lat="42.10634" lon="-1.38916">
        <ele>420</ele>
      </trkpt>
      <trkpt lat="42.10652" lon="-1.38894">
        <ele>419.7</ele>
      </trkpt>
      <trkpt lat="42.10687" lon="-1.38864">
        <ele>420.5</ele>
      </trkpt>
      <trkpt lat="42.10694" lon="-1.3886">
        <ele>421</ele>
      </trkpt>
      <trkpt lat="42.10709" lon="-1.38853">
        <ele>420.8</ele>
        <extensions>
          <visugpx:TrkExtension xmlns:visugpx="https://www.visugpx.com/editgpx/">
            <visugpx:node>14</visugpx:node>
            </visugpx:TrkExtension>
        </extensions>
      </trkpt>
      <trkpt lat="42.10735" lon="-1.38839">
        <ele>420.1</ele>
      </trkpt>
      <trkpt lat="42.10821" lon="-1.38964">
        <ele>416.9</ele>
      </trkpt>
      <trkpt lat="42.10988" lon="-1.39221">
        <ele>414.8</ele>
      </trkpt>
      <trkpt lat="42.11027" lon="-1.39272">
        <ele>416.2</ele>
      </trkpt>
      <trkpt lat="42.11042" lon="-1.39285">
        <ele>416.3</ele>
      </trkpt>
      <trkpt lat="42.11168" lon="-1.39368">
        <ele>420.7</ele>
      </trkpt>
      <trkpt lat="42.11138" lon="-1.39461">
        <ele>420.6</ele>
      </trkpt>
      <trkpt lat="42.11179" lon="-1.39469">
        <ele>421.3</ele>
      </trkpt>
      <trkpt lat="42.11194" lon="-1.39475">
        <ele>422.2</ele>
      </trkpt>
      <trkpt lat="42.11211" lon="-1.39485">
        <ele>423.2</ele>
      </trkpt>
      <trkpt lat="42.11261" lon="-1.39531">
        <ele>424.4</ele>
      </trkpt>
      <trkpt lat="42.11306" lon="-1.39562">
        <ele>426.2</ele>
      </trkpt>
      <trkpt lat="42.11342" lon="-1.39602">
        <ele>426.2</ele>
      </trkpt>
      <trkpt lat="42.11386" lon="-1.39633">
        <ele>426.4</ele>
      </trkpt>
      <trkpt lat="42.11436" lon="-1.39679">
        <ele>429.7</ele>
      </trkpt>
      <trkpt lat="42.11463" lon="-1.39709">
        <ele>432.2</ele>
      </trkpt>
      <trkpt lat="42.11535" lon="-1.39768">
        <ele>433.1</ele>
      </trkpt>
      <trkpt lat="42.11588" lon="-1.3983">
        <ele>432.9</ele>
      </trkpt>
      <trkpt lat="42.11595" lon="-1.39841">
        <ele>433</ele>
      </trkpt>
      <trkpt lat="42.11601" lon="-1.39859">
        <ele>433</ele>
      </trkpt>
      <trkpt lat="42.11606" lon="-1.39868">
        <ele>433</ele>
      </trkpt>
      <trkpt lat="42.11618" lon="-1.39881">
        <ele>433.2</ele>
      </trkpt>
      <trkpt lat="42.1165" lon="-1.39906">
        <ele>433.6</ele>
      </trkpt>
      <trkpt lat="42.11656" lon="-1.39917">
        <ele>433.6</ele>
      </trkpt>
      <trkpt lat="42.1166" lon="-1.39931">
        <ele>433.3</ele>
      </trkpt>
      <trkpt lat="42.11661" lon="-1.39958">
        <ele>433.5</ele>
      </trkpt>
      <trkpt lat="42.11665" lon="-1.39971">
        <ele>434.7</ele>
      </trkpt>
      <trkpt lat="42.11679" lon="-1.39995">
        <ele>433.1</ele>
      </trkpt>
      <trkpt lat="42.11702" lon="-1.40022">
        <ele>434</ele>
      </trkpt>
      <trkpt lat="42.1171" lon="-1.40036">
        <ele>434.2</ele>
      </trkpt>
      <trkpt lat="42.11716" lon="-1.40055">
        <ele>434.8</ele>
      </trkpt>
      <trkpt lat="42.11719" lon="-1.4008">
        <ele>435.9</ele>
      </trkpt>
      <trkpt lat="42.11737" lon="-1.40136">
        <ele>439.6</ele>
      </trkpt>
      <trkpt lat="42.11745" lon="-1.40151">
        <ele>439</ele>
      </trkpt>
      <trkpt lat="42.11772" lon="-1.40182">
        <ele>438.6</ele>
      </trkpt>
      <trkpt lat="42.11785" lon="-1.40192">
        <ele>438.3</ele>
      </trkpt>
      <trkpt lat="42.11799" lon="-1.40194">
        <ele>437.5</ele>
      </trkpt>
      <trkpt lat="42.11822" lon="-1.40189">
        <ele>436.9</ele>
      </trkpt>
      <trkpt lat="42.11849" lon="-1.40189">
        <ele>438</ele>
      </trkpt>
      <trkpt lat="42.11858" lon="-1.40192">
        <ele>438.7</ele>
      </trkpt>
      <trkpt lat="42.11865" lon="-1.402">
        <ele>439.3</ele>
      </trkpt>
      <trkpt lat="42.11876" lon="-1.40236">
        <ele>440.9</ele>
      </trkpt>
      <trkpt lat="42.11883" lon="-1.40246">
        <ele>441.6</ele>
      </trkpt>
      <trkpt lat="42.11935" lon="-1.40297">
        <ele>442.5</ele>
      </trkpt>
      <trkpt lat="42.11955" lon="-1.40304">
        <ele>442.6</ele>
      </trkpt>
      <trkpt lat="42.11968" lon="-1.40302">
        <ele>443.3</ele>
      </trkpt>
      <trkpt lat="42.11977" lon="-1.40307">
        <ele>443.5</ele>
      </trkpt>
      <trkpt lat="42.11995" lon="-1.40332">
        <ele>443.7</ele>
      </trkpt>
      <trkpt lat="42.12005" lon="-1.40342">
        <ele>444.4</ele>
      </trkpt>
      <trkpt lat="42.12044" lon="-1.40362">
        <ele>445.6</ele>
      </trkpt>
      <trkpt lat="42.12074" lon="-1.40366">
        <ele>447.9</ele>
      </trkpt>
      <trkpt lat="42.12098" lon="-1.40381">
        <ele>448.6</ele>
      </trkpt>
      <trkpt lat="42.1216" lon="-1.40419">
        <ele>447.9</ele>
      </trkpt>
      <trkpt lat="42.12177" lon="-1.40433">
        <ele>448.2</ele>
      </trkpt>
      <trkpt lat="42.12209" lon="-1.40445">
        <ele>451.1</ele>
      </trkpt>
      <trkpt lat="42.12229" lon="-1.40458">
        <ele>452.9</ele>
      </trkpt>
      <trkpt lat="42.1225" lon="-1.40476">
        <ele>454</ele>
      </trkpt>
      <trkpt lat="42.1226" lon="-1.40482">
        <ele>454.1</ele>
      </trkpt>
      <trkpt lat="42.12285" lon="-1.40484">
        <ele>454.2</ele>
      </trkpt>
      <trkpt lat="42.12312" lon="-1.40501">
        <ele>453.5</ele>
      </trkpt>
      <trkpt lat="42.12337" lon="-1.40514">
        <ele>456.3</ele>
      </trkpt>
      <trkpt lat="42.12393" lon="-1.40549">
        <ele>460.9</ele>
      </trkpt>
      <trkpt lat="42.12407" lon="-1.40552">
        <ele>459.3</ele>
        <extensions>
          <visugpx:TrkExtension xmlns:visugpx="https://www.visugpx.com/editgpx/">
            <visugpx:node>15</visugpx:node>
            </visugpx:TrkExtension>
        </extensions>
      </trkpt>
      <trkpt lat="42.12424" lon="-1.40556">
        <ele>457.7</ele>
      </trkpt>
      <trkpt lat="42.12429" lon="-1.40559">
        <ele>457.5</ele>
      </trkpt>
      <trkpt lat="42.12432" lon="-1.40566">
        <ele>457.2</ele>
      </trkpt>
      <trkpt lat="42.12433" lon="-1.40577">
        <ele>457</ele>
      </trkpt>
      <trkpt lat="42.12425" lon="-1.4062">
        <ele>455.5</ele>
      </trkpt>
      <trkpt lat="42.12412" lon="-1.40644">
        <ele>453.8</ele>
      </trkpt>
      <trkpt lat="42.12375" lon="-1.40687">
        <ele>451.8</ele>
      </trkpt>
      <trkpt lat="42.12364" lon="-1.40698">
        <ele>451.9</ele>
      </trkpt>
      <trkpt lat="42.123" lon="-1.40731">
        <ele>446.9</ele>
      </trkpt>
      <trkpt lat="42.1224" lon="-1.40785">
        <ele>446.4</ele>
      </trkpt>
      <trkpt lat="42.12206" lon="-1.40799">
        <ele>445.8</ele>
      </trkpt>
      <trkpt lat="42.12188" lon="-1.40813">
        <ele>443.5</ele>
      </trkpt>
      <trkpt lat="42.12163" lon="-1.40839">
        <ele>441.1</ele>
      </trkpt>
      <trkpt lat="42.12149" lon="-1.40851">
        <ele>440</ele>
      </trkpt>
      <trkpt lat="42.12116" lon="-1.40864">
        <ele>437</ele>
      </trkpt>
      <trkpt lat="42.12106" lon="-1.4087">
        <ele>437</ele>
      </trkpt>
      <trkpt lat="42.12097" lon="-1.40883">
        <ele>437.3</ele>
      </trkpt>
      <trkpt lat="42.12089" lon="-1.40906">
        <ele>437.2</ele>
      </trkpt>
      <trkpt lat="42.12071" lon="-1.40971">
        <ele>435.2</ele>
      </trkpt>
      <trkpt lat="42.12071" lon="-1.40987">
        <ele>434</ele>
      </trkpt>
      <trkpt lat="42.12073" lon="-1.40998">
        <ele>433.2</ele>
      </trkpt>
      <trkpt lat="42.12078" lon="-1.41008">
        <ele>432.7</ele>
      </trkpt>
      <trkpt lat="42.12088" lon="-1.41017">
        <ele>432.4</ele>
      </trkpt>
      <trkpt lat="42.12098" lon="-1.41021">
        <ele>432.1</ele>
      </trkpt>
      <trkpt lat="42.1218" lon="-1.41021">
        <ele>434.9</ele>
      </trkpt>
      <trkpt lat="42.12198" lon="-1.41036">
        <ele>434.7</ele>
      </trkpt>
      <trkpt lat="42.12227" lon="-1.4105">
        <ele>433.9</ele>
      </trkpt>
      <trkpt lat="42.12236" lon="-1.41059">
        <ele>432.9</ele>
      </trkpt>
      <trkpt lat="42.12243" lon="-1.41069">
        <ele>433.1</ele>
      </trkpt>
      <trkpt lat="42.12246" lon="-1.4108">
        <ele>433.5</ele>
      </trkpt>
      <trkpt lat="42.12245" lon="-1.41089">
        <ele>433.5</ele>
      </trkpt>
      <trkpt lat="42.1224" lon="-1.41124">
        <ele>434.4</ele>
      </trkpt>
      <trkpt lat="42.1224" lon="-1.41146">
        <ele>436.1</ele>
      </trkpt>
      <trkpt lat="42.12242" lon="-1.41165">
        <ele>438.5</ele>
      </trkpt>
      <trkpt lat="42.12247" lon="-1.41184">
        <ele>439.1</ele>
      </trkpt>
      <trkpt lat="42.12255" lon="-1.41203">
        <ele>438.6</ele>
      </trkpt>
      <trkpt lat="42.12264" lon="-1.41214">
        <ele>437.8</ele>
      </trkpt>
      <trkpt lat="42.12275" lon="-1.41221">
        <ele>437.2</ele>
      </trkpt>
      <trkpt lat="42.12289" lon="-1.41226">
        <ele>436.3</ele>
      </trkpt>
      <trkpt lat="42.12308" lon="-1.41229">
        <ele>435.8</ele>
      </trkpt>
      <trkpt lat="42.12318" lon="-1.41234">
        <ele>436.1</ele>
      </trkpt>
      <trkpt lat="42.12325" lon="-1.41244">
        <ele>435.9</ele>
      </trkpt>
      <trkpt lat="42.12345" lon="-1.41294">
        <ele>436.2</ele>
      </trkpt>
      <trkpt lat="42.12353" lon="-1.41334">
        <ele>436.4</ele>
      </trkpt>
      <trkpt lat="42.12367" lon="-1.41372">
        <ele>436.8</ele>
      </trkpt>
      <trkpt lat="42.12368" lon="-1.41389">
        <ele>436.5</ele>
      </trkpt>
      <trkpt lat="42.12364" lon="-1.41401">
        <ele>437</ele>
      </trkpt>
      <trkpt lat="42.12358" lon="-1.41409">
        <ele>437.5</ele>
      </trkpt>
      <trkpt lat="42.12345" lon="-1.41417">
        <ele>438</ele>
      </trkpt>
      <trkpt lat="42.12325" lon="-1.41422">
        <ele>438.4</ele>
      </trkpt>
      <trkpt lat="42.1229" lon="-1.41426">
        <ele>438.9</ele>
      </trkpt>
      <trkpt lat="42.12212" lon="-1.41456">
        <ele>438.4</ele>
      </trkpt>
      <trkpt lat="42.12184" lon="-1.41469">
        <ele>438.2</ele>
      </trkpt>
      <trkpt lat="42.12162" lon="-1.41487">
        <ele>439</ele>
      </trkpt>
      <trkpt lat="42.1215" lon="-1.41494">
        <ele>439</ele>
      </trkpt>
      <trkpt lat="42.12079" lon="-1.41493">
        <ele>440.8</ele>
      </trkpt>
      <trkpt lat="42.12025" lon="-1.41505">
        <ele>440.7</ele>
      </trkpt>
      <trkpt lat="42.12009" lon="-1.415">
        <ele>439</ele>
      </trkpt>
      <trkpt lat="42.11992" lon="-1.41501">
        <ele>437.4</ele>
      </trkpt>
      <trkpt lat="42.11963" lon="-1.4152">
        <ele>434.6</ele>
      </trkpt>
      <trkpt lat="42.11952" lon="-1.41531">
        <ele>433.6</ele>
      </trkpt>
      <trkpt lat="42.11941" lon="-1.41557">
        <ele>432</ele>
      </trkpt>
      <trkpt lat="42.11937" lon="-1.41572">
        <ele>431.7</ele>
      </trkpt>
      <trkpt lat="42.11936" lon="-1.41588">
        <ele>431.2</ele>
      </trkpt>
      <trkpt lat="42.11943" lon="-1.41663">
        <ele>429</ele>
      </trkpt>
      <trkpt lat="42.11943" lon="-1.4168">
        <ele>428.4</ele>
      </trkpt>
      <trkpt lat="42.11938" lon="-1.41717">
        <ele>427.6</ele>
      </trkpt>
      <trkpt lat="42.1193" lon="-1.41756">
        <ele>426.6</ele>
      </trkpt>
      <trkpt lat="42.11912" lon="-1.41803">
        <ele>427.1</ele>
      </trkpt>
      <trkpt lat="42.11909" lon="-1.41818">
        <ele>427.6</ele>
      </trkpt>
      <trkpt lat="42.11909" lon="-1.41864">
        <ele>427.3</ele>
      </trkpt>
      <trkpt lat="42.11902" lon="-1.41903">
        <ele>424.7</ele>
      </trkpt>
      <trkpt lat="42.11901" lon="-1.4192">
        <ele>423.4</ele>
      </trkpt>
      <trkpt lat="42.11908" lon="-1.41971">
        <ele>422</ele>
      </trkpt>
      <trkpt lat="42.11911" lon="-1.42024">
        <ele>420.8</ele>
      </trkpt>
      <trkpt lat="42.11908" lon="-1.42074">
        <ele>422.2</ele>
      </trkpt>
      <trkpt lat="42.1191" lon="-1.42085">
        <ele>421.9</ele>
      </trkpt>
      <trkpt lat="42.11919" lon="-1.42111">
        <ele>420.1</ele>
      </trkpt>
      <trkpt lat="42.11922" lon="-1.42128">
        <ele>420.4</ele>
      </trkpt>
      <trkpt lat="42.11923" lon="-1.42174">
        <ele>422.8</ele>
      </trkpt>
      <trkpt lat="42.11922" lon="-1.42221">
        <ele>424.1</ele>
      </trkpt>
      <trkpt lat="42.11924" lon="-1.42239">
        <ele>425.3</ele>
      </trkpt>
      <trkpt lat="42.11938" lon="-1.42313">
        <ele>426.7</ele>
      </trkpt>
      <trkpt lat="42.11946" lon="-1.42371">
        <ele>427.4</ele>
      </trkpt>
      <trkpt lat="42.11948" lon="-1.42421">
        <ele>429</ele>
      </trkpt>
      <trkpt lat="42.11945" lon="-1.42437">
        <ele>429</ele>
      </trkpt>
      <trkpt lat="42.11941" lon="-1.4245">
        <ele>428.8</ele>
      </trkpt>
      <trkpt lat="42.11931" lon="-1.42467">
        <ele>428.8</ele>
      </trkpt>
      <trkpt lat="42.11915" lon="-1.4249">
        <ele>429.6</ele>
      </trkpt>
      <trkpt lat="42.11909" lon="-1.42503">
        <ele>429.8</ele>
      </trkpt>
      <trkpt lat="42.11893" lon="-1.42572">
        <ele>430.1</ele>
      </trkpt>
      <trkpt lat="42.11892" lon="-1.42583">
        <ele>430.1</ele>
      </trkpt>
      <trkpt lat="42.11892" lon="-1.42591">
        <ele>430.4</ele>
      </trkpt>
      <trkpt lat="42.11897" lon="-1.42596">
        <ele>430.6</ele>
      </trkpt>
      <trkpt lat="42.11908" lon="-1.42602">
        <ele>430.9</ele>
      </trkpt>
      <trkpt lat="42.12032" lon="-1.42628">
        <ele>432.6</ele>
      </trkpt>
      <trkpt lat="42.12044" lon="-1.42635">
        <ele>433.2</ele>
      </trkpt>
      <trkpt lat="42.12059" lon="-1.42645">
        <ele>433.9</ele>
      </trkpt>
      <trkpt lat="42.12101" lon="-1.42694">
        <ele>434.6</ele>
      </trkpt>
      <trkpt lat="42.12114" lon="-1.42718">
        <ele>435</ele>
      </trkpt>
      <trkpt lat="42.12156" lon="-1.4282">
        <ele>435.7</ele>
      </trkpt>
      <trkpt lat="42.12155" lon="-1.42868">
        <ele>433.8</ele>
      </trkpt>
      <trkpt lat="42.12159" lon="-1.42903">
        <ele>431.9</ele>
      </trkpt>
      <trkpt lat="42.12166" lon="-1.4293">
        <ele>428.6</ele>
      </trkpt>
      <trkpt lat="42.12172" lon="-1.42947">
        <ele>427.8</ele>
      </trkpt>
      <trkpt lat="42.12182" lon="-1.42961">
        <ele>427.5</ele>
      </trkpt>
      <trkpt lat="42.12204" lon="-1.42982">
        <ele>425.7</ele>
      </trkpt>
      <trkpt lat="42.12251" lon="-1.43017">
        <ele>423.6</ele>
      </trkpt>
      <trkpt lat="42.12259" lon="-1.43027">
        <ele>422.4</ele>
      </trkpt>
      <trkpt lat="42.12272" lon="-1.43055">
        <ele>421</ele>
      </trkpt>
      <trkpt lat="42.12285" lon="-1.43079">
        <ele>419.3</ele>
      </trkpt>
      <trkpt lat="42.12296" lon="-1.43093">
        <ele>419</ele>
      </trkpt>
      <trkpt lat="42.12304" lon="-1.43101">
        <ele>419</ele>
      </trkpt>
      <trkpt lat="42.12311" lon="-1.43104">
        <ele>419.1</ele>
      </trkpt>
      <trkpt lat="42.12359" lon="-1.43104">
        <ele>419.9</ele>
      </trkpt>
      <trkpt lat="42.12387" lon="-1.43108">
        <ele>420.9</ele>
      </trkpt>
      <trkpt lat="42.12411" lon="-1.43135">
        <ele>423.4</ele>
      </trkpt>
      <trkpt lat="42.12422" lon="-1.43141">
        <ele>424</ele>
      </trkpt>
      <trkpt lat="42.12457" lon="-1.43154">
        <ele>423.9</ele>
      </trkpt>
      <trkpt lat="42.12465" lon="-1.43158">
        <ele>423.6</ele>
      </trkpt>
      <trkpt lat="42.12491" lon="-1.43208">
        <ele>424.7</ele>
      </trkpt>
      <trkpt lat="42.12536" lon="-1.43257">
        <ele>428.5</ele>
      </trkpt>
      <trkpt lat="42.12552" lon="-1.43277">
        <ele>429.9</ele>
      </trkpt>
      <trkpt lat="42.1258" lon="-1.43331">
        <ele>427.9</ele>
      </trkpt>
      <trkpt lat="42.12588" lon="-1.43351">
        <ele>428.7</ele>
      </trkpt>
      <trkpt lat="42.12597" lon="-1.43385">
        <ele>429.1</ele>
      </trkpt>
      <trkpt lat="42.12603" lon="-1.43397">
        <ele>429.6</ele>
      </trkpt>
      <trkpt lat="42.12651" lon="-1.4343">
        <ele>427.7</ele>
      </trkpt>
      <trkpt lat="42.12685" lon="-1.43442">
        <ele>424.7</ele>
      </trkpt>
      <trkpt lat="42.12708" lon="-1.43457">
        <ele>423.9</ele>
      </trkpt>
      <trkpt lat="42.12733" lon="-1.43478">
        <ele>422.7</ele>
      </trkpt>
      <trkpt lat="42.12767" lon="-1.43513">
        <ele>420.7</ele>
      </trkpt>
      <trkpt lat="42.12787" lon="-1.43529">
        <ele>419</ele>
      </trkpt>
      <trkpt lat="42.12787" lon="-1.43539">
        <ele>418.9</ele>
        <extensions>
          <visugpx:TrkExtension xmlns:visugpx="https://www.visugpx.com/editgpx/">
            <visugpx:node>16</visugpx:node>
            </visugpx:TrkExtension>
        </extensions>
      </trkpt>
      <trkpt lat="42.12787" lon="-1.43529">
        <ele>419</ele>
      </trkpt>
      <trkpt lat="42.12799" lon="-1.43483">
        <ele>419.7</ele>
      </trkpt>
      <trkpt lat="42.12836" lon="-1.43441">
        <ele>422.1</ele>
      </trkpt>
      <trkpt lat="42.12874" lon="-1.43388">
        <ele>425</ele>
      </trkpt>
      <trkpt lat="42.12905" lon="-1.43333">
        <ele>428.7</ele>
      </trkpt>
      <trkpt lat="42.12921" lon="-1.43314">
        <ele>429.8</ele>
      </trkpt>
      <trkpt lat="42.12974" lon="-1.43268">
        <ele>434.9</ele>
      </trkpt>
      <trkpt lat="42.12994" lon="-1.43246">
        <ele>438</ele>
      </trkpt>
      <trkpt lat="42.13013" lon="-1.43171">
        <ele>445.8</ele>
      </trkpt>
      <trkpt lat="42.13032" lon="-1.4314">
        <ele>446</ele>
      </trkpt>
      <trkpt lat="42.13095" lon="-1.43046">
        <ele>446.7</ele>
      </trkpt>
      <trkpt lat="42.13116" lon="-1.43024">
        <ele>447.1</ele>
      </trkpt>
      <trkpt lat="42.13137" lon="-1.43008">
        <ele>447.7</ele>
      </trkpt>
      <trkpt lat="42.13161" lon="-1.42997">
        <ele>448</ele>
      </trkpt>
      <trkpt lat="42.1319" lon="-1.42977">
        <ele>447.9</ele>
      </trkpt>
      <trkpt lat="42.13212" lon="-1.42947">
        <ele>448.3</ele>
      </trkpt>
      <trkpt lat="42.13223" lon="-1.42927">
        <ele>448.1</ele>
      </trkpt>
      <trkpt lat="42.13267" lon="-1.42818">
        <ele>452.5</ele>
      </trkpt>
      <trkpt lat="42.13283" lon="-1.42743">
        <ele>454.4</ele>
      </trkpt>
      <trkpt lat="42.13294" lon="-1.42714">
        <ele>454.4</ele>
      </trkpt>
      <trkpt lat="42.1331" lon="-1.42688">
        <ele>453.8</ele>
      </trkpt>
      <trkpt lat="42.13328" lon="-1.42637">
        <ele>455.2</ele>
      </trkpt>
      <trkpt lat="42.13346" lon="-1.42619">
        <ele>457.3</ele>
      </trkpt>
      <trkpt lat="42.13375" lon="-1.426">
        <ele>456</ele>
      </trkpt>
      <trkpt lat="42.13406" lon="-1.42585">
        <ele>453.8</ele>
      </trkpt>
      <trkpt lat="42.1344" lon="-1.42578">
        <ele>452.2</ele>
      </trkpt>
      <trkpt lat="42.13471" lon="-1.42568">
        <ele>451</ele>
      </trkpt>
      <trkpt lat="42.13475" lon="-1.42563">
        <ele>451</ele>
      </trkpt>
      <trkpt lat="42.13478" lon="-1.42575">
        <ele>451.1</ele>
        <extensions>
          <visugpx:TrkExtension xmlns:visugpx="https://www.visugpx.com/editgpx/">
            <visugpx:node>17</visugpx:node>
            </visugpx:TrkExtension>
        </extensions>
      </trkpt>
      <trkpt lat="42.13478" lon="-1.42575">
        <ele>451.1</ele>
      </trkpt>
      <trkpt lat="42.13478" lon="-1.42575">
        <ele>451.1</ele>
      </trkpt>
      <trkpt lat="42.13475" lon="-1.42563">
        <ele>451</ele>
      </trkpt>
      <trkpt lat="42.13478" lon="-1.42517">
        <ele>450.2</ele>
      </trkpt>
      <trkpt lat="42.13492" lon="-1.4248">
        <ele>448.7</ele>
      </trkpt>
      <trkpt lat="42.13491" lon="-1.42458">
        <ele>448.1</ele>
      </trkpt>
      <trkpt lat="42.13486" lon="-1.42436">
        <ele>447.8</ele>
      </trkpt>
      <trkpt lat="42.13483" lon="-1.42401">
        <ele>446.1</ele>
      </trkpt>
      <trkpt lat="42.13475" lon="-1.42379">
        <ele>446.6</ele>
      </trkpt>
      <trkpt lat="42.13466" lon="-1.42364">
        <ele>446.7</ele>
      </trkpt>
      <trkpt lat="42.13447" lon="-1.42346">
        <ele>446.7</ele>
      </trkpt>
      <trkpt lat="42.13434" lon="-1.42341">
        <ele>446.3</ele>
      </trkpt>
      <trkpt lat="42.13411" lon="-1.42335">
        <ele>445.4</ele>
      </trkpt>
      <trkpt lat="42.13403" lon="-1.42328">
        <ele>445.2</ele>
      </trkpt>
      <trkpt lat="42.1341" lon="-1.42317">
        <ele>444.2</ele>
      </trkpt>
      <trkpt lat="42.13423" lon="-1.42313">
        <ele>443.3</ele>
      </trkpt>
      <trkpt lat="42.13452" lon="-1.42311">
        <ele>441.4</ele>
      </trkpt>
      <trkpt lat="42.13469" lon="-1.42313">
        <ele>440.6</ele>
      </trkpt>
      <trkpt lat="42.13482" lon="-1.4232">
        <ele>439.8</ele>
      </trkpt>
      <trkpt lat="42.1349" lon="-1.42328">
        <ele>439.1</ele>
      </trkpt>
      <trkpt lat="42.13499" lon="-1.42334">
        <ele>437.3</ele>
      </trkpt>
      <trkpt lat="42.13509" lon="-1.42332">
        <ele>436.3</ele>
      </trkpt>
      <trkpt lat="42.13533" lon="-1.4231">
        <ele>433.9</ele>
      </trkpt>
      <trkpt lat="42.13577" lon="-1.4229">
        <ele>433.5</ele>
      </trkpt>
      <trkpt lat="42.13622" lon="-1.42273">
        <ele>432</ele>
      </trkpt>
      <trkpt lat="42.13634" lon="-1.42258">
        <ele>431.8</ele>
      </trkpt>
      <trkpt lat="42.1364" lon="-1.42239">
        <ele>430.7</ele>
      </trkpt>
      <trkpt lat="42.13645" lon="-1.42205">
        <ele>430.3</ele>
      </trkpt>
      <trkpt lat="42.13647" lon="-1.42192">
        <ele>431</ele>
      </trkpt>
      <trkpt lat="42.13666" lon="-1.4215">
        <ele>432.2</ele>
      </trkpt>
      <trkpt lat="42.13678" lon="-1.42138">
        <ele>433.6</ele>
      </trkpt>
      <trkpt lat="42.13711" lon="-1.42116">
        <ele>440.2</ele>
      </trkpt>
      <trkpt lat="42.13734" lon="-1.42123">
        <ele>438.9</ele>
      </trkpt>
      <trkpt lat="42.13796" lon="-1.42102">
        <ele>444</ele>
      </trkpt>
      <trkpt lat="42.13831" lon="-1.42131">
        <ele>444.9</ele>
      </trkpt>
      <trkpt lat="42.13882" lon="-1.42145">
        <ele>445</ele>
      </trkpt>
      <trkpt lat="42.13973" lon="-1.42182">
        <ele>442.8</ele>
      </trkpt>
      <trkpt lat="42.13991" lon="-1.42186">
        <ele>444.4</ele>
      </trkpt>
      <trkpt lat="42.14023" lon="-1.42172">
        <ele>443</ele>
      </trkpt>
      <trkpt lat="42.14057" lon="-1.42161">
        <ele>441.8</ele>
      </trkpt>
      <trkpt lat="42.14125" lon="-1.42109">
        <ele>435.5</ele>
      </trkpt>
      <trkpt lat="42.14144" lon="-1.42097">
        <ele>432.3</ele>
      </trkpt>
      <trkpt lat="42.14171" lon="-1.42107">
        <ele>431.1</ele>
      </trkpt>
      <trkpt lat="42.14194" lon="-1.42099">
        <ele>428.1</ele>
      </trkpt>
      <trkpt lat="42.14238" lon="-1.42069">
        <ele>424</ele>
      </trkpt>
      <trkpt lat="42.14344" lon="-1.42086">
        <ele>408.2</ele>
      </trkpt>
      <trkpt lat="42.14367" lon="-1.42085">
        <ele>407.7</ele>
      </trkpt>
      <trkpt lat="42.14387" lon="-1.42101">
        <ele>406.1</ele>
      </trkpt>
      <trkpt lat="42.14395" lon="-1.42123">
        <ele>404.4</ele>
      </trkpt>
      <trkpt lat="42.14399" lon="-1.42149">
        <ele>402</ele>
      </trkpt>
      <trkpt lat="42.14458" lon="-1.42221">
        <ele>390.2</ele>
      </trkpt>
      <trkpt lat="42.14498" lon="-1.42254">
        <ele>384.9</ele>
      </trkpt>
      <trkpt lat="42.14512" lon="-1.42285">
        <ele>384.6</ele>
      </trkpt>
      <trkpt lat="42.14517" lon="-1.4232">
        <ele>383.5</ele>
      </trkpt>
      <trkpt lat="42.14519" lon="-1.4236">
        <ele>381.8</ele>
      </trkpt>
      <trkpt lat="42.14514" lon="-1.42417">
        <ele>378.5</ele>
      </trkpt>
      <trkpt lat="42.14516" lon="-1.42449">
        <ele>375.5</ele>
      </trkpt>
      <trkpt lat="42.14544" lon="-1.42516">
        <ele>374.9</ele>
      </trkpt>
      <trkpt lat="42.14564" lon="-1.42542">
        <ele>375.8</ele>
      </trkpt>
      <trkpt lat="42.1459" lon="-1.42554">
        <ele>372.2</ele>
      </trkpt>
      <trkpt lat="42.1463" lon="-1.42554">
        <ele>366.6</ele>
      </trkpt>
      <trkpt lat="42.14668" lon="-1.42543">
        <ele>364</ele>
      </trkpt>
      <trkpt lat="42.14762" lon="-1.42553">
        <ele>354.5</ele>
      </trkpt>
      <trkpt lat="42.14789" lon="-1.4253">
        <ele>353</ele>
      </trkpt>
      <trkpt lat="42.14797" lon="-1.42506">
        <ele>351.8</ele>
      </trkpt>
      <trkpt lat="42.14804" lon="-1.42493">
        <ele>349.5</ele>
      </trkpt>
      <trkpt lat="42.14815" lon="-1.42492">
        <ele>348.5</ele>
      </trkpt>
      <trkpt lat="42.14837" lon="-1.42527">
        <ele>346</ele>
      </trkpt>
      <trkpt lat="42.14849" lon="-1.42536">
        <ele>346</ele>
      </trkpt>
      <trkpt lat="42.14877" lon="-1.42546">
        <ele>345.9</ele>
      </trkpt>
      <trkpt lat="42.14905" lon="-1.42576">
        <ele>344.1</ele>
      </trkpt>
      <trkpt lat="42.1493" lon="-1.42595">
        <ele>342.9</ele>
      </trkpt>
      <trkpt lat="42.1496" lon="-1.42611">
        <ele>341.6</ele>
      </trkpt>
      <trkpt lat="42.1498" lon="-1.42617">
        <ele>341.1</ele>
      </trkpt>
      <trkpt lat="42.15011" lon="-1.42609">
        <ele>339.6</ele>
      </trkpt>
      <trkpt lat="42.15032" lon="-1.42599">
        <ele>339</ele>
      </trkpt>
      <trkpt lat="42.1511" lon="-1.42548">
        <ele>336.8</ele>
      </trkpt>
      <trkpt lat="42.15178" lon="-1.4254">
        <ele>334.6</ele>
      </trkpt>
      <trkpt lat="42.1519" lon="-1.42531">
        <ele>334.2</ele>
      </trkpt>
      <trkpt lat="42.15204" lon="-1.42528">
        <ele>334</ele>
      </trkpt>
      <trkpt lat="42.15223" lon="-1.42528">
        <ele>334</ele>
      </trkpt>
      <trkpt lat="42.1528" lon="-1.42558">
        <ele>333.8</ele>
      </trkpt>
      <trkpt lat="42.15317" lon="-1.42568">
        <ele>333.2</ele>
      </trkpt>
      <trkpt lat="42.15342" lon="-1.42579">
        <ele>333.1</ele>
      </trkpt>
      <trkpt lat="42.15455" lon="-1.42682">
        <ele>331.3</ele>
      </trkpt>
      <trkpt lat="42.15475" lon="-1.42685">
        <ele>330.9</ele>
      </trkpt>
      <trkpt lat="42.15507" lon="-1.42675">
        <ele>330.7</ele>
      </trkpt>
      <trkpt lat="42.15542" lon="-1.42649">
        <ele>331.3</ele>
      </trkpt>
      <trkpt lat="42.15667" lon="-1.42793">
        <ele>328.5</ele>
      </trkpt>
      <trkpt lat="42.15697" lon="-1.42829">
        <ele>328.2</ele>
      </trkpt>
      <trkpt lat="42.15728" lon="-1.42849">
        <ele>328</ele>
      </trkpt>
      <trkpt lat="42.15798" lon="-1.42858">
        <ele>326.4</ele>
      </trkpt>
      <trkpt lat="42.15816" lon="-1.42865">
        <ele>325.5</ele>
      </trkpt>
      <trkpt lat="42.15833" lon="-1.42877">
        <ele>325</ele>
      </trkpt>
      <trkpt lat="42.15858" lon="-1.42901">
        <ele>324.1</ele>
      </trkpt>
      <trkpt lat="42.15987" lon="-1.43026">
        <ele>321</ele>
      </trkpt>
      <trkpt lat="42.16014" lon="-1.43047">
        <ele>320.2</ele>
      </trkpt>
      <trkpt lat="42.16097" lon="-1.43099">
        <ele>319.2</ele>
      </trkpt>
      <trkpt lat="42.16121" lon="-1.4312">
        <ele>318.2</ele>
      </trkpt>
      <trkpt lat="42.16132" lon="-1.43135">
        <ele>318.1</ele>
      </trkpt>
      <trkpt lat="42.16163" lon="-1.43197">
        <ele>317.9</ele>
      </trkpt>
      <trkpt lat="42.16178" lon="-1.43234">
        <ele>317</ele>
      </trkpt>
      <trkpt lat="42.16189" lon="-1.43265">
        <ele>317</ele>
      </trkpt>
      <trkpt lat="42.16198" lon="-1.43278">
        <ele>317</ele>
      </trkpt>
      <trkpt lat="42.16221" lon="-1.43287">
        <ele>316.7</ele>
      </trkpt>
      <trkpt lat="42.16241" lon="-1.43291">
        <ele>316.5</ele>
      </trkpt>
      <trkpt lat="42.1627" lon="-1.43326">
        <ele>316</ele>
      </trkpt>
      <trkpt lat="42.16302" lon="-1.43351">
        <ele>316</ele>
      </trkpt>
      <trkpt lat="42.16313" lon="-1.43378">
        <ele>316.2</ele>
      </trkpt>
      <trkpt lat="42.16349" lon="-1.43451">
        <ele>314.4</ele>
      </trkpt>
      <trkpt lat="42.1648" lon="-1.43714">
        <ele>316.9</ele>
      </trkpt>
      <trkpt lat="42.165" lon="-1.43758">
        <ele>317</ele>
      </trkpt>
      <trkpt lat="42.16535" lon="-1.43849">
        <ele>314</ele>
      </trkpt>
      <trkpt lat="42.16551" lon="-1.43881">
        <ele>312.4</ele>
      </trkpt>
      <trkpt lat="42.16578" lon="-1.43911">
        <ele>311.4</ele>
      </trkpt>
      <trkpt lat="42.16636" lon="-1.43972">
        <ele>311</ele>
      </trkpt>
      <trkpt lat="42.16712" lon="-1.44049">
        <ele>309.4</ele>
      </trkpt>
      <trkpt lat="42.1672" lon="-1.44059">
        <ele>309.1</ele>
      </trkpt>
      <trkpt lat="42.16766" lon="-1.44138">
        <ele>307.9</ele>
      </trkpt>
      <trkpt lat="42.16798" lon="-1.44188">
        <ele>307.5</ele>
      </trkpt>
      <trkpt lat="42.16821" lon="-1.44217">
        <ele>306.7</ele>
      </trkpt>
      <trkpt lat="42.16891" lon="-1.44279">
        <ele>304.9</ele>
      </trkpt>
      <trkpt lat="42.16914" lon="-1.44303">
        <ele>304.8</ele>
      </trkpt>
      <trkpt lat="42.16935" lon="-1.44332">
        <ele>304.3</ele>
      </trkpt>
      <trkpt lat="42.17038" lon="-1.445">
        <ele>304.6</ele>
      </trkpt>
      <trkpt lat="42.17058" lon="-1.44534">
        <ele>305.1</ele>
      </trkpt>
      <trkpt lat="42.17083" lon="-1.44564">
        <ele>305.3</ele>
      </trkpt>
      <trkpt lat="42.17194" lon="-1.44673">
        <ele>300</ele>
      </trkpt>
      <trkpt lat="42.17229" lon="-1.44703">
        <ele>299.3</ele>
      </trkpt>
      <trkpt lat="42.17248" lon="-1.44727">
        <ele>297.4</ele>
      </trkpt>
      <trkpt lat="42.1726" lon="-1.44749">
        <ele>297.6</ele>
      </trkpt>
      <trkpt lat="42.17299" lon="-1.44854">
        <ele>296.6</ele>
      </trkpt>
      <trkpt lat="42.17307" lon="-1.44866">
        <ele>296.9</ele>
      </trkpt>
      <trkpt lat="42.17366" lon="-1.44925">
        <ele>296.8</ele>
      </trkpt>
      <trkpt lat="42.17461" lon="-1.45044">
        <ele>297.4</ele>
      </trkpt>
      <trkpt lat="42.17571" lon="-1.45226">
        <ele>291.1</ele>
      </trkpt>
      <trkpt lat="42.17602" lon="-1.4526">
        <ele>294.7</ele>
      </trkpt>
      <trkpt lat="42.17659" lon="-1.45307">
        <ele>296.2</ele>
      </trkpt>
      <trkpt lat="42.17762" lon="-1.45414">
        <ele>296</ele>
      </trkpt>
      <trkpt lat="42.17922" lon="-1.45585">
        <ele>300.3</ele>
      </trkpt>
      <trkpt lat="42.18021" lon="-1.45703">
        <ele>302</ele>
      </trkpt>
      <trkpt lat="42.18159" lon="-1.45882">
        <ele>299.1</ele>
      </trkpt>
      <trkpt lat="42.1817" lon="-1.45909">
        <ele>299.1</ele>
      </trkpt>
      <trkpt lat="42.18181" lon="-1.45948">
        <ele>298.9</ele>
      </trkpt>
      <trkpt lat="42.18184" lon="-1.45984">
        <ele>298.8</ele>
      </trkpt>
      <trkpt lat="42.18186" lon="-1.46023">
        <ele>299</ele>
      </trkpt>
      <trkpt lat="42.18185" lon="-1.46068">
        <ele>299</ele>
      </trkpt>
      <trkpt lat="42.18182" lon="-1.46103">
        <ele>298.7</ele>
      </trkpt>
      <trkpt lat="42.18173" lon="-1.46162">
        <ele>299</ele>
      </trkpt>
      <trkpt lat="42.18142" lon="-1.46328">
        <ele>296.2</ele>
      </trkpt>
      <trkpt lat="42.18139" lon="-1.46347">
        <ele>296</ele>
      </trkpt>
      <trkpt lat="42.18138" lon="-1.46374">
        <ele>296</ele>
      </trkpt>
      <trkpt lat="42.18138" lon="-1.464">
        <ele>295.6</ele>
      </trkpt>
      <trkpt lat="42.1814" lon="-1.46419">
        <ele>295</ele>
      </trkpt>
      <trkpt lat="42.18169" lon="-1.46562">
        <ele>293.9</ele>
      </trkpt>
      <trkpt lat="42.18183" lon="-1.4664">
        <ele>292.6</ele>
      </trkpt>
      <trkpt lat="42.18193" lon="-1.46717">
        <ele>292</ele>
      </trkpt>
      <trkpt lat="42.18205" lon="-1.4684">
        <ele>289.8</ele>
      </trkpt>
      <trkpt lat="42.18224" lon="-1.46989">
        <ele>288.9</ele>
      </trkpt>
      <trkpt lat="42.1824" lon="-1.47187">
        <ele>286.4</ele>
      </trkpt>
      <trkpt lat="42.18248" lon="-1.4726">
        <ele>286</ele>
      </trkpt>
      <trkpt lat="42.18259" lon="-1.47324">
        <ele>288</ele>
      </trkpt>
      <trkpt lat="42.18267" lon="-1.47422">
        <ele>286.6</ele>
      </trkpt>
      <trkpt lat="42.18277" lon="-1.47465">
        <ele>283.2</ele>
      </trkpt>
      <trkpt lat="42.18292" lon="-1.47505">
        <ele>283.2</ele>
      </trkpt>
      <trkpt lat="42.18301" lon="-1.47544">
        <ele>285.2</ele>
      </trkpt>
      <trkpt lat="42.18305" lon="-1.47576">
        <ele>285.7</ele>
      </trkpt>
      <trkpt lat="42.18305" lon="-1.47605">
        <ele>286.8</ele>
      </trkpt>
      <trkpt lat="42.18286" lon="-1.47795">
        <ele>293</ele>
      </trkpt>
      <trkpt lat="42.18286" lon="-1.47822">
        <ele>293.7</ele>
      </trkpt>
      <trkpt lat="42.18292" lon="-1.4785">
        <ele>293.9</ele>
      </trkpt>
      <trkpt lat="42.18308" lon="-1.47887">
        <ele>296</ele>
      </trkpt>
      <trkpt lat="42.18335" lon="-1.47932">
        <ele>296</ele>
      </trkpt>
      <trkpt lat="42.18369" lon="-1.47982">
        <ele>296.3</ele>
      </trkpt>
      <trkpt lat="42.18378" lon="-1.48001">
        <ele>296.6</ele>
      </trkpt>
      <trkpt lat="42.18386" lon="-1.48028">
        <ele>296.9</ele>
      </trkpt>
      <trkpt lat="42.18397" lon="-1.48095">
        <ele>299</ele>
      </trkpt>
      <trkpt lat="42.18403" lon="-1.48119">
        <ele>300</ele>
      </trkpt>
      <trkpt lat="42.1841" lon="-1.48135">
        <ele>300.5</ele>
      </trkpt>
      <trkpt lat="42.18439" lon="-1.48182">
        <ele>302.2</ele>
      </trkpt>
      <trkpt lat="42.18534" lon="-1.48323">
        <ele>301.5</ele>
      </trkpt>
      <trkpt lat="42.18575" lon="-1.48413">
        <ele>299.4</ele>
      </trkpt>
      <trkpt lat="42.18584" lon="-1.48422">
        <ele>299.6</ele>
      </trkpt>
      <trkpt lat="42.18605" lon="-1.48433">
        <ele>299.3</ele>
      </trkpt>
      <trkpt lat="42.18625" lon="-1.48436">
        <ele>299.3</ele>
      </trkpt>
      <trkpt lat="42.18657" lon="-1.48437">
        <ele>299.9</ele>
      </trkpt>
      <trkpt lat="42.18664" lon="-1.48439">
        <ele>300.1</ele>
      </trkpt>
      <trkpt lat="42.18696" lon="-1.48562">
        <ele>297.8</ele>
      </trkpt>
      <trkpt lat="42.18695" lon="-1.48597">
        <ele>297</ele>
      </trkpt>
      <trkpt lat="42.18691" lon="-1.48615">
        <ele>296.8</ele>
      </trkpt>
      <trkpt lat="42.18684" lon="-1.48631">
        <ele>296.2</ele>
      </trkpt>
      <trkpt lat="42.18526" lon="-1.48881">
        <ele>292.9</ele>
        <extensions>
          <visugpx:TrkExtension xmlns:visugpx="https://www.visugpx.com/editgpx/">
            <visugpx:node>18</visugpx:node>
            </visugpx:TrkExtension>
        </extensions>
      </trkpt>
      <trkpt lat="42.18526" lon="-1.48882">
        <ele>292.9</ele>
      </trkpt>
      <trkpt lat="42.18505" lon="-1.48916">
        <ele>292.8</ele>
      </trkpt>
      <trkpt lat="42.18468" lon="-1.48968">
        <ele>291.8</ele>
      </trkpt>
      <trkpt lat="42.18331" lon="-1.4909">
        <ele>290</ele>
      </trkpt>
      <trkpt lat="42.18219" lon="-1.49466">
        <ele>294.8</ele>
      </trkpt>
      <trkpt lat="42.18219" lon="-1.49496">
        <ele>295.1</ele>
      </trkpt>
      <trkpt lat="42.18219" lon="-1.4962">
        <ele>296.7</ele>
      </trkpt>
      <trkpt lat="42.18192" lon="-1.49734">
        <ele>295.5</ele>
      </trkpt>
      <trkpt lat="42.18107" lon="-1.503">
        <ele>292.5</ele>
      </trkpt>
      <trkpt lat="42.18096" lon="-1.50366">
        <ele>292.5</ele>
      </trkpt>
      <trkpt lat="42.18088" lon="-1.50395">
        <ele>292.1</ele>
      </trkpt>
      <trkpt lat="42.18078" lon="-1.50417">
        <ele>290.8</ele>
      </trkpt>
      <trkpt lat="42.17934" lon="-1.50577">
        <ele>291</ele>
      </trkpt>
      <trkpt lat="42.17912" lon="-1.50601">
        <ele>291.1</ele>
      </trkpt>
      <trkpt lat="42.17851" lon="-1.5071">
        <ele>291.6</ele>
      </trkpt>
      <trkpt lat="42.17837" lon="-1.50737">
        <ele>291.3</ele>
      </trkpt>
      <trkpt lat="42.17802" lon="-1.50808">
        <ele>291.2</ele>
      </trkpt>
      <trkpt lat="42.17726" lon="-1.5113">
        <ele>290.9</ele>
      </trkpt>
      <trkpt lat="42.17708" lon="-1.51253">
        <ele>291.1</ele>
      </trkpt>
      <trkpt lat="42.17698" lon="-1.5138">
        <ele>294</ele>
        <extensions>
          <visugpx:TrkExtension xmlns:visugpx="https://www.visugpx.com/editgpx/">
            <visugpx:node>19</visugpx:node>
            </visugpx:TrkExtension>
        </extensions>
      </trkpt>
      <trkpt lat="42.17696" lon="-1.51401">
        <ele>294</ele>
      </trkpt>
      <trkpt lat="42.1764" lon="-1.51694">
        <ele>294</ele>
      </trkpt>
      <trkpt lat="42.17639" lon="-1.51704">
        <ele>294.3</ele>
      </trkpt>
      <trkpt lat="42.17639" lon="-1.51713">
        <ele>294.7</ele>
      </trkpt>
      <trkpt lat="42.17643" lon="-1.51744">
        <ele>294.9</ele>
      </trkpt>
      <trkpt lat="42.17659" lon="-1.51791">
        <ele>294.6</ele>
      </trkpt>
      <trkpt lat="42.17752" lon="-1.52007">
        <ele>299.4</ele>
      </trkpt>
      <trkpt lat="42.17896" lon="-1.52278">
        <ele>306.8</ele>
      </trkpt>
      <trkpt lat="42.17911" lon="-1.5231">
        <ele>307.4</ele>
      </trkpt>
      <trkpt lat="42.17917" lon="-1.52328">
        <ele>307.8</ele>
      </trkpt>
      <trkpt lat="42.1793" lon="-1.52393">
        <ele>307.3</ele>
      </trkpt>
      <trkpt lat="42.17941" lon="-1.52429">
        <ele>308.2</ele>
      </trkpt>
      <trkpt lat="42.18054" lon="-1.52738">
        <ele>317.3</ele>
      </trkpt>
      <trkpt lat="42.18057" lon="-1.52753">
        <ele>317.8</ele>
      </trkpt>
      <trkpt lat="42.1809" lon="-1.52934">
        <ele>323.1</ele>
      </trkpt>
      <trkpt lat="42.18091" lon="-1.52943">
        <ele>323.4</ele>
      </trkpt>
      <trkpt lat="42.18091" lon="-1.52943">
        <ele>323.4</ele>
        <extensions>
          <visugpx:TrkExtension xmlns:visugpx="https://www.visugpx.com/editgpx/">
            <visugpx:node>20</visugpx:node>
            </visugpx:TrkExtension>
        </extensions>
      </trkpt>
      <trkpt lat="42.18091" lon="-1.52943">
        <ele>323.4</ele>
      </trkpt>
      <trkpt lat="42.18093" lon="-1.52955">
        <ele>323.7</ele>
      </trkpt>
      <trkpt lat="42.18094" lon="-1.52979">
        <ele>324.5</ele>
      </trkpt>
      <trkpt lat="42.18092" lon="-1.53006">
        <ele>325.4</ele>
      </trkpt>
      <trkpt lat="42.18088" lon="-1.53033">
        <ele>325.9</ele>
      </trkpt>
      <trkpt lat="42.18081" lon="-1.53056">
        <ele>325.9</ele>
      </trkpt>
      <trkpt lat="42.18075" lon="-1.53068">
        <ele>325.3</ele>
      </trkpt>
      <trkpt lat="42.18037" lon="-1.5314">
        <ele>321.3</ele>
      </trkpt>
      <trkpt lat="42.17986" lon="-1.53239">
        <ele>317</ele>
      </trkpt>
      <trkpt lat="42.17966" lon="-1.53271">
        <ele>315.6</ele>
      </trkpt>
      <trkpt lat="42.17935" lon="-1.5331">
        <ele>313.4</ele>
      </trkpt>
      <trkpt lat="42.17916" lon="-1.53333">
        <ele>312.9</ele>
      </trkpt>
      <trkpt lat="42.17904" lon="-1.53344">
        <ele>312.2</ele>
      </trkpt>
      <trkpt lat="42.17883" lon="-1.53359">
        <ele>312.7</ele>
      </trkpt>
      <trkpt lat="42.17859" lon="-1.53362">
        <ele>312.1</ele>
      </trkpt>
      <trkpt lat="42.17806" lon="-1.53352">
        <ele>313</ele>
      </trkpt>
      <trkpt lat="42.17781" lon="-1.53353">
        <ele>312.9</ele>
      </trkpt>
      <trkpt lat="42.17758" lon="-1.5336">
        <ele>312.4</ele>
      </trkpt>
      <trkpt lat="42.17676" lon="-1.53391">
        <ele>312</ele>
      </trkpt>
      <trkpt lat="42.17656" lon="-1.53401">
        <ele>311.6</ele>
      </trkpt>
      <trkpt lat="42.17615" lon="-1.53425">
        <ele>311.5</ele>
      </trkpt>
      <trkpt lat="42.17607" lon="-1.53432">
        <ele>311.8</ele>
      </trkpt>
      <trkpt lat="42.176" lon="-1.53441">
        <ele>312.4</ele>
      </trkpt>
      <trkpt lat="42.17595" lon="-1.53453">
        <ele>311.8</ele>
      </trkpt>
      <trkpt lat="42.17582" lon="-1.53501">
        <ele>308.9</ele>
      </trkpt>
      <trkpt lat="42.17569" lon="-1.5353">
        <ele>308.6</ele>
      </trkpt>
      <trkpt lat="42.17562" lon="-1.53545">
        <ele>308.5</ele>
      </trkpt>
      <trkpt lat="42.17554" lon="-1.53568">
        <ele>306.9</ele>
      </trkpt>
      <trkpt lat="42.17552" lon="-1.53583">
        <ele>305.8</ele>
      </trkpt>
      <trkpt lat="42.17549" lon="-1.5361">
        <ele>303.6</ele>
      </trkpt>
      <trkpt lat="42.17548" lon="-1.53652">
        <ele>299.9</ele>
      </trkpt>
      <trkpt lat="42.17548" lon="-1.53659">
        <ele>299.5</ele>
      </trkpt>
      <trkpt lat="42.17545" lon="-1.53737">
        <ele>295.1</ele>
      </trkpt>
      <trkpt lat="42.17524" lon="-1.5393">
        <ele>283.9</ele>
      </trkpt>
      <trkpt lat="42.17524" lon="-1.53943">
        <ele>283</ele>
      </trkpt>
      <trkpt lat="42.17526" lon="-1.53957">
        <ele>282.5</ele>
      </trkpt>
      <trkpt lat="42.17531" lon="-1.53969">
        <ele>282.2</ele>
      </trkpt>
      <trkpt lat="42.17548" lon="-1.53997">
        <ele>280.1</ele>
      </trkpt>
      <trkpt lat="42.17638" lon="-1.54127">
        <ele>273.9</ele>
      </trkpt>
      <trkpt lat="42.1767" lon="-1.54176">
        <ele>276</ele>
      </trkpt>
      <trkpt lat="42.17673" lon="-1.54181">
        <ele>276</ele>
      </trkpt>
      <trkpt lat="42.17694" lon="-1.54209">
        <ele>276</ele>
      </trkpt>
      <trkpt lat="42.17713" lon="-1.54244">
        <ele>275.7</ele>
      </trkpt>
      <trkpt lat="42.17718" lon="-1.5426">
        <ele>275.8</ele>
      </trkpt>
      <trkpt lat="42.17721" lon="-1.54281">
        <ele>276</ele>
      </trkpt>
      <trkpt lat="42.17721" lon="-1.54296">
        <ele>276</ele>
      </trkpt>
      <trkpt lat="42.17719" lon="-1.54316">
        <ele>275.9</ele>
      </trkpt>
      <trkpt lat="42.17697" lon="-1.54397">
        <ele>276</ele>
      </trkpt>
      <trkpt lat="42.17676" lon="-1.5446">
        <ele>276.6</ele>
      </trkpt>
      <trkpt lat="42.17636" lon="-1.54543">
        <ele>277.4</ele>
      </trkpt>
      <trkpt lat="42.17622" lon="-1.54575">
        <ele>277.5</ele>
      </trkpt>
      <trkpt lat="42.17608" lon="-1.54626">
        <ele>279.8</ele>
      </trkpt>
      <trkpt lat="42.17596" lon="-1.54693">
        <ele>281.4</ele>
      </trkpt>
      <trkpt lat="42.17592" lon="-1.54707">
        <ele>282.5</ele>
      </trkpt>
      <trkpt lat="42.17579" lon="-1.54728">
        <ele>284.9</ele>
      </trkpt>
      <trkpt lat="42.17558" lon="-1.54746">
        <ele>286.5</ele>
      </trkpt>
      <trkpt lat="42.1755" lon="-1.54756">
        <ele>287.3</ele>
      </trkpt>
      <trkpt lat="42.17529" lon="-1.54806">
        <ele>288.2</ele>
      </trkpt>
      <trkpt lat="42.17523" lon="-1.54816">
        <ele>288.1</ele>
      </trkpt>
      <trkpt lat="42.17426" lon="-1.54929">
        <ele>290.2</ele>
      </trkpt>
      <trkpt lat="42.17409" lon="-1.54952">
        <ele>291.2</ele>
      </trkpt>
      <trkpt lat="42.17402" lon="-1.54966">
        <ele>291.6</ele>
      </trkpt>
      <trkpt lat="42.17392" lon="-1.54997">
        <ele>292.1</ele>
      </trkpt>
      <trkpt lat="42.17383" lon="-1.55041">
        <ele>293.2</ele>
      </trkpt>
      <trkpt lat="42.17377" lon="-1.55061">
        <ele>293.4</ele>
      </trkpt>
      <trkpt lat="42.17347" lon="-1.55127">
        <ele>295.4</ele>
      </trkpt>
      <trkpt lat="42.17342" lon="-1.5514">
        <ele>296</ele>
      </trkpt>
      <trkpt lat="42.17337" lon="-1.55174">
        <ele>296.5</ele>
      </trkpt>
      <trkpt lat="42.17335" lon="-1.5521">
        <ele>296.6</ele>
      </trkpt>
      <trkpt lat="42.17329" lon="-1.55231">
        <ele>296.8</ele>
      </trkpt>
      <trkpt lat="42.17316" lon="-1.55263">
        <ele>297.8</ele>
      </trkpt>
      <trkpt lat="42.17311" lon="-1.5528">
        <ele>298.4</ele>
      </trkpt>
      <trkpt lat="42.17305" lon="-1.55311">
        <ele>298</ele>
      </trkpt>
      <trkpt lat="42.17292" lon="-1.55344">
        <ele>297.9</ele>
      </trkpt>
      <trkpt lat="42.17283" lon="-1.5536">
        <ele>298.1</ele>
      </trkpt>
      <trkpt lat="42.17256" lon="-1.55412">
        <ele>298.9</ele>
      </trkpt>
      <trkpt lat="42.17249" lon="-1.55429">
        <ele>299.4</ele>
      </trkpt>
      <trkpt lat="42.17245" lon="-1.55444">
        <ele>299.6</ele>
      </trkpt>
      <trkpt lat="42.17238" lon="-1.55449">
        <ele>299.1</ele>
      </trkpt>
      <trkpt lat="42.17228" lon="-1.55491">
        <ele>298.6</ele>
      </trkpt>
      <trkpt lat="42.17221" lon="-1.55509">
        <ele>298.7</ele>
      </trkpt>
      <trkpt lat="42.17204" lon="-1.55538">
        <ele>299.5</ele>
      </trkpt>
      <trkpt lat="42.17195" lon="-1.55559">
        <ele>299.2</ele>
      </trkpt>
      <trkpt lat="42.17187" lon="-1.55565">
        <ele>299.5</ele>
      </trkpt>
      <trkpt lat="42.17179" lon="-1.55566">
        <ele>299.7</ele>
      </trkpt>
      <trkpt lat="42.17184" lon="-1.55579">
        <ele>299.9</ele>
      </trkpt>
      <trkpt lat="42.17185" lon="-1.55592">
        <ele>300.4</ele>
      </trkpt>
      <trkpt lat="42.17183" lon="-1.55604">
        <ele>300.9</ele>
      </trkpt>
      <trkpt lat="42.17167" lon="-1.55649">
        <ele>301.4</ele>
      </trkpt>
      <trkpt lat="42.17167" lon="-1.55662">
        <ele>301.8</ele>
      </trkpt>
      <trkpt lat="42.1715" lon="-1.55687">
        <ele>301.2</ele>
      </trkpt>
      <trkpt lat="42.17098" lon="-1.55751">
        <ele>301.5</ele>
      </trkpt>
      <trkpt lat="42.17052" lon="-1.55789">
        <ele>301.8</ele>
      </trkpt>
      <trkpt lat="42.17043" lon="-1.558">
        <ele>301.5</ele>
      </trkpt>
      <trkpt lat="42.17029" lon="-1.55822">
        <ele>302.2</ele>
      </trkpt>
      <trkpt lat="42.17023" lon="-1.55838">
        <ele>302.7</ele>
      </trkpt>
      <trkpt lat="42.17015" lon="-1.55874">
        <ele>302.8</ele>
      </trkpt>
      <trkpt lat="42.17014" lon="-1.55897">
        <ele>303</ele>
      </trkpt>
      <trkpt lat="42.17016" lon="-1.5598">
        <ele>303.6</ele>
      </trkpt>
      <trkpt lat="42.17014" lon="-1.55995">
        <ele>303.5</ele>
      </trkpt>
      <trkpt lat="42.1701" lon="-1.5601">
        <ele>304</ele>
      </trkpt>
      <trkpt lat="42.16995" lon="-1.56035">
        <ele>304.8</ele>
      </trkpt>
      <trkpt lat="42.1698" lon="-1.5605">
        <ele>305.3</ele>
      </trkpt>
      <trkpt lat="42.16967" lon="-1.56059">
        <ele>305.8</ele>
      </trkpt>
      <trkpt lat="42.16897" lon="-1.56101">
        <ele>309.7</ele>
      </trkpt>
      <trkpt lat="42.16869" lon="-1.56125">
        <ele>311.1</ele>
      </trkpt>
      <trkpt lat="42.16858" lon="-1.56138">
        <ele>311</ele>
      </trkpt>
      <trkpt lat="42.16825" lon="-1.56181">
        <ele>309.7</ele>
      </trkpt>
      <trkpt lat="42.16817" lon="-1.56193">
        <ele>309.4</ele>
      </trkpt>
      <trkpt lat="42.16812" lon="-1.562">
        <ele>309.2</ele>
      </trkpt>
      <trkpt lat="42.16787" lon="-1.56239">
        <ele>308.3</ele>
      </trkpt>
      <trkpt lat="42.16767" lon="-1.56284">
        <ele>306.6</ele>
      </trkpt>
      <trkpt lat="42.16703" lon="-1.56442">
        <ele>302.6</ele>
      </trkpt>
      <trkpt lat="42.16688" lon="-1.56473">
        <ele>302.5</ele>
      </trkpt>
      <trkpt lat="42.16646" lon="-1.56543">
        <ele>300.7</ele>
      </trkpt>
      <trkpt lat="42.16606" lon="-1.56636">
        <ele>298.7</ele>
      </trkpt>
      <trkpt lat="42.16591" lon="-1.56665">
        <ele>297.3</ele>
      </trkpt>
      <trkpt lat="42.16434" lon="-1.56935">
        <ele>289.2</ele>
      </trkpt>
      <trkpt lat="42.16434" lon="-1.56936">
        <ele>289.2</ele>
      </trkpt>
      <trkpt lat="42.16426" lon="-1.56953">
        <ele>288.8</ele>
      </trkpt>
      <trkpt lat="42.1642" lon="-1.56971">
        <ele>289</ele>
      </trkpt>
      <trkpt lat="42.16415" lon="-1.56992">
        <ele>288.9</ele>
      </trkpt>
      <trkpt lat="42.16413" lon="-1.57011">
        <ele>288.3</ele>
      </trkpt>
      <trkpt lat="42.16413" lon="-1.57032">
        <ele>287.7</ele>
      </trkpt>
      <trkpt lat="42.16416" lon="-1.57075">
        <ele>286.6</ele>
      </trkpt>
      <trkpt lat="42.16415" lon="-1.57101">
        <ele>284.7</ele>
      </trkpt>
      <trkpt lat="42.16407" lon="-1.57168">
        <ele>282.3</ele>
      </trkpt>
      <trkpt lat="42.16408" lon="-1.57184">
        <ele>281.3</ele>
      </trkpt>
      <trkpt lat="42.16411" lon="-1.57202">
        <ele>280.5</ele>
      </trkpt>
      <trkpt lat="42.16421" lon="-1.57241">
        <ele>279.5</ele>
      </trkpt>
      <trkpt lat="42.16423" lon="-1.57255">
        <ele>279.3</ele>
      </trkpt>
      <trkpt lat="42.16423" lon="-1.57265">
        <ele>279.4</ele>
      </trkpt>
      <trkpt lat="42.16422" lon="-1.57273">
        <ele>279.4</ele>
      </trkpt>
      <trkpt lat="42.16418" lon="-1.57283">
        <ele>279.1</ele>
      </trkpt>
      <trkpt lat="42.16399" lon="-1.57323">
        <ele>277.7</ele>
      </trkpt>
      <trkpt lat="42.16389" lon="-1.57354">
        <ele>277.7</ele>
      </trkpt>
      <trkpt lat="42.16377" lon="-1.57394">
        <ele>276.6</ele>
      </trkpt>
      <trkpt lat="42.16371" lon="-1.57418">
        <ele>275.3</ele>
      </trkpt>
      <trkpt lat="42.16368" lon="-1.5744">
        <ele>273.5</ele>
      </trkpt>
      <trkpt lat="42.16368" lon="-1.57458">
        <ele>272.9</ele>
      </trkpt>
      <trkpt lat="42.16373" lon="-1.57507">
        <ele>272.9</ele>
      </trkpt>
      <trkpt lat="42.16375" lon="-1.57528">
        <ele>272</ele>
      </trkpt>
      <trkpt lat="42.1638" lon="-1.57547">
        <ele>270</ele>
      </trkpt>
      <trkpt lat="42.16402" lon="-1.57585">
        <ele>267.9</ele>
      </trkpt>
      <trkpt lat="42.1641" lon="-1.57603">
        <ele>267.7</ele>
      </trkpt>
      <trkpt lat="42.16421" lon="-1.57657">
        <ele>266.7</ele>
      </trkpt>
      <trkpt lat="42.16432" lon="-1.57689">
        <ele>264.6</ele>
      </trkpt>
      <trkpt lat="42.16534" lon="-1.57843">
        <ele>263</ele>
      </trkpt>
      <trkpt lat="42.16865" lon="-1.58329">
        <ele>262.3</ele>
      </trkpt>
      <trkpt lat="42.16884" lon="-1.58359">
        <ele>262.8</ele>
      </trkpt>
      <trkpt lat="42.1695" lon="-1.58488">
        <ele>264.1</ele>
      </trkpt>
      <trkpt lat="42.17011" lon="-1.58613">
        <ele>265.4</ele>
      </trkpt>
      <trkpt lat="42.17033" lon="-1.58656">
        <ele>266.2</ele>
      </trkpt>
      <trkpt lat="42.17084" lon="-1.58762">
        <ele>266.6</ele>
      </trkpt>
      <trkpt lat="42.17168" lon="-1.58916">
        <ele>265.1</ele>
      </trkpt>
      <trkpt lat="42.17175" lon="-1.58937">
        <ele>265.1</ele>
      </trkpt>
      <trkpt lat="42.1718" lon="-1.58957">
        <ele>264.8</ele>
      </trkpt>
      <trkpt lat="42.17209" lon="-1.59094">
        <ele>263.6</ele>
      </trkpt>
      <trkpt lat="42.17221" lon="-1.59096">
        <ele>263.5</ele>
      </trkpt>
      <trkpt lat="42.17323" lon="-1.59142">
        <ele>264.8</ele>
      </trkpt>
      <trkpt lat="42.17329" lon="-1.59144">
        <ele>264.8</ele>
      </trkpt>
      <trkpt lat="42.17335" lon="-1.59145">
        <ele>264.8</ele>
      </trkpt>
      <trkpt lat="42.17345" lon="-1.5915">
        <ele>264.8</ele>
      </trkpt>
      <trkpt lat="42.17352" lon="-1.59152">
        <ele>264.8</ele>
      </trkpt>
      <trkpt lat="42.17374" lon="-1.59182">
        <ele>265.9</ele>
      </trkpt>
      <trkpt lat="42.17392" lon="-1.59211">
        <ele>266.7</ele>
      </trkpt>
      <trkpt lat="42.17429" lon="-1.59257">
        <ele>267</ele>
      </trkpt>
      <trkpt lat="42.17474" lon="-1.59293">
        <ele>268.5</ele>
      </trkpt>
      <trkpt lat="42.17516" lon="-1.59353">
        <ele>268.1</ele>
      </trkpt>
      <trkpt lat="42.17614" lon="-1.59475">
        <ele>272.2</ele>
      </trkpt>
      <trkpt lat="42.17634" lon="-1.5951">
        <ele>269.7</ele>
      </trkpt>
      <trkpt lat="42.17632" lon="-1.59512">
        <ele>269.5</ele>
      </trkpt>
      <trkpt lat="42.17632" lon="-1.59512">
        <ele>269.5</ele>
        <extensions>
          <visugpx:TrkExtension xmlns:visugpx="https://www.visugpx.com/editgpx/">
            <visugpx:node>21</visugpx:node>
            </visugpx:TrkExtension>
        </extensions>
      </trkpt>
      <trkpt lat="42.17632" lon="-1.59512">
        <ele>269.5</ele>
        <extensions>
          <visugpx:TrkExtension xmlns:visugpx="https://www.visugpx.com/editgpx/">
            <visugpx:node>22</visugpx:node>
            </visugpx:TrkExtension>
        </extensions>
      </trkpt>
    </trkseg>
  </trk>
  <trk>
    <name><![CDATA[Tudela]]></name>
    <extensions>
      <line xmlns="http://www.topografix.com/GPX/gpx_style/0/2">
        <color>0000FF</color>
        <opacity>0.5</opacity>
        <width>12</width>
      </line>
    </extensions>
    <trkseg>
      <trkpt lat="42.08859" lon="-1.4505">
        <ele>357.2</ele>
        <extensions>
          <visugpx:TrkExtension xmlns:visugpx="https://www.visugpx.com/editgpx/">
            <visugpx:node>3</visugpx:node>
            </visugpx:TrkExtension>
        </extensions>
      </trkpt>
      <trkpt lat="42.08862" lon="-1.4504">
        <ele>357</ele>
      </trkpt>
      <trkpt lat="42.08868" lon="-1.45057">
        <ele>357</ele>
      </trkpt>
      <trkpt lat="42.08878" lon="-1.45091">
        <ele>357.4</ele>
      </trkpt>
      <trkpt lat="42.08889" lon="-1.45145">
        <ele>356.2</ele>
      </trkpt>
      <trkpt lat="42.08891" lon="-1.4518">
        <ele>356.8</ele>
      </trkpt>
      <trkpt lat="42.0889" lon="-1.45242">
        <ele>356.2</ele>
      </trkpt>
      <trkpt lat="42.08926" lon="-1.45347">
        <ele>355.7</ele>
      </trkpt>
      <trkpt lat="42.08942" lon="-1.45375">
        <ele>355.1</ele>
      </trkpt>
      <trkpt lat="42.08965" lon="-1.45401">
        <ele>354.1</ele>
      </trkpt>
      <trkpt lat="42.08973" lon="-1.45407">
        <ele>353.9</ele>
      </trkpt>
      <trkpt lat="42.08994" lon="-1.45419">
        <ele>352.3</ele>
      </trkpt>
      <trkpt lat="42.09028" lon="-1.45445">
        <ele>350</ele>
      </trkpt>
      <trkpt lat="42.09052" lon="-1.45475">
        <ele>349</ele>
      </trkpt>
      <trkpt lat="42.0905" lon="-1.45484">
        <ele>348.9</ele>
      </trkpt>
      <trkpt lat="42.09038" lon="-1.45499">
        <ele>349.3</ele>
      </trkpt>
      <trkpt lat="42.09031" lon="-1.45517">
        <ele>350.5</ele>
      </trkpt>
      <trkpt lat="42.09024" lon="-1.45526">
        <ele>351.1</ele>
      </trkpt>
      <trkpt lat="42.09004" lon="-1.45573">
        <ele>352.9</ele>
      </trkpt>
      <trkpt lat="42.08974" lon="-1.45684">
        <ele>356.8</ele>
      </trkpt>
      <trkpt lat="42.08967" lon="-1.45718">
        <ele>356.2</ele>
      </trkpt>
      <trkpt lat="42.08963" lon="-1.45762">
        <ele>356.3</ele>
      </trkpt>
      <trkpt lat="42.08957" lon="-1.45791">
        <ele>356.5</ele>
      </trkpt>
      <trkpt lat="42.0895" lon="-1.45849">
        <ele>356.8</ele>
      </trkpt>
      <trkpt lat="42.08942" lon="-1.46011">
        <ele>357.2</ele>
      </trkpt>
      <trkpt lat="42.08941" lon="-1.46059">
        <ele>357.2</ele>
      </trkpt>
      <trkpt lat="42.08944" lon="-1.46148">
        <ele>357</ele>
      </trkpt>
      <trkpt lat="42.08941" lon="-1.46262">
        <ele>357.2</ele>
      </trkpt>
      <trkpt lat="42.08942" lon="-1.46282">
        <ele>357.2</ele>
      </trkpt>
      <trkpt lat="42.08954" lon="-1.4635">
        <ele>356.3</ele>
      </trkpt>
      <trkpt lat="42.08954" lon="-1.46393">
        <ele>356.3</ele>
      </trkpt>
      <trkpt lat="42.08949" lon="-1.46426">
        <ele>356.7</ele>
      </trkpt>
      <trkpt lat="42.0895" lon="-1.46449">
        <ele>356.8</ele>
      </trkpt>
      <trkpt lat="42.08954" lon="-1.46466">
        <ele>357.1</ele>
      </trkpt>
      <trkpt lat="42.08973" lon="-1.46499">
        <ele>355.9</ele>
      </trkpt>
      <trkpt lat="42.08983" lon="-1.46522">
        <ele>356</ele>
      </trkpt>
      <trkpt lat="42.08986" lon="-1.46532">
        <ele>356.1</ele>
      </trkpt>
      <trkpt lat="42.0899" lon="-1.46575">
        <ele>355.6</ele>
      </trkpt>
      <trkpt lat="42.0899" lon="-1.46589">
        <ele>355</ele>
      </trkpt>
      <trkpt lat="42.08986" lon="-1.46604">
        <ele>354.2</ele>
      </trkpt>
      <trkpt lat="42.08986" lon="-1.46612">
        <ele>353.6</ele>
      </trkpt>
      <trkpt lat="42.08991" lon="-1.46625">
        <ele>354</ele>
      </trkpt>
      <trkpt lat="42.0899" lon="-1.46656">
        <ele>356.2</ele>
      </trkpt>
      <trkpt lat="42.08991" lon="-1.46689">
        <ele>358.9</ele>
      </trkpt>
      <trkpt lat="42.08996" lon="-1.46738">
        <ele>361.3</ele>
      </trkpt>
      <trkpt lat="42.08999" lon="-1.46775">
        <ele>360.1</ele>
      </trkpt>
      <trkpt lat="42.08996" lon="-1.46825">
        <ele>358.3</ele>
      </trkpt>
      <trkpt lat="42.09" lon="-1.46845">
        <ele>358.4</ele>
      </trkpt>
      <trkpt lat="42.09017" lon="-1.46894">
        <ele>357.9</ele>
      </trkpt>
      <trkpt lat="42.09018" lon="-1.46922">
        <ele>357.2</ele>
      </trkpt>
      <trkpt lat="42.09025" lon="-1.46955">
        <ele>356.2</ele>
      </trkpt>
      <trkpt lat="42.09031" lon="-1.47012">
        <ele>355</ele>
      </trkpt>
      <trkpt lat="42.09032" lon="-1.4707">
        <ele>355.6</ele>
      </trkpt>
      <trkpt lat="42.09029" lon="-1.47109">
        <ele>355</ele>
      </trkpt>
      <trkpt lat="42.0903" lon="-1.47126">
        <ele>354.8</ele>
      </trkpt>
      <trkpt lat="42.09036" lon="-1.47165">
        <ele>355</ele>
      </trkpt>
      <trkpt lat="42.09036" lon="-1.47191">
        <ele>355.3</ele>
      </trkpt>
      <trkpt lat="42.09037" lon="-1.47219">
        <ele>354.7</ele>
      </trkpt>
      <trkpt lat="42.09043" lon="-1.47257">
        <ele>354.5</ele>
      </trkpt>
      <trkpt lat="42.09043" lon="-1.47289">
        <ele>355.3</ele>
      </trkpt>
      <trkpt lat="42.09037" lon="-1.47387">
        <ele>350.4</ele>
      </trkpt>
      <trkpt lat="42.09039" lon="-1.47397">
        <ele>349.7</ele>
      </trkpt>
      <trkpt lat="42.09048" lon="-1.4742">
        <ele>347</ele>
      </trkpt>
      <trkpt lat="42.09069" lon="-1.47452">
        <ele>339.5</ele>
      </trkpt>
      <trkpt lat="42.09086" lon="-1.47468">
        <ele>336.8</ele>
      </trkpt>
      <trkpt lat="42.09088" lon="-1.47476">
        <ele>336.1</ele>
      </trkpt>
      <trkpt lat="42.09086" lon="-1.47483">
        <ele>335.8</ele>
      </trkpt>
      <trkpt lat="42.0908" lon="-1.47494">
        <ele>335.8</ele>
      </trkpt>
      <trkpt lat="42.09062" lon="-1.47516">
        <ele>336.9</ele>
      </trkpt>
      <trkpt lat="42.09047" lon="-1.47527">
        <ele>338</ele>
      </trkpt>
      <trkpt lat="42.09014" lon="-1.47571">
        <ele>338.2</ele>
      </trkpt>
      <trkpt lat="42.09004" lon="-1.47586">
        <ele>337.8</ele>
      </trkpt>
      <trkpt lat="42.08968" lon="-1.47659">
        <ele>337.2</ele>
      </trkpt>
      <trkpt lat="42.08957" lon="-1.47684">
        <ele>336.9</ele>
      </trkpt>
      <trkpt lat="42.08941" lon="-1.47737">
        <ele>336</ele>
      </trkpt>
      <trkpt lat="42.08929" lon="-1.47768">
        <ele>335.9</ele>
      </trkpt>
      <trkpt lat="42.08911" lon="-1.47821">
        <ele>335.1</ele>
      </trkpt>
      <trkpt lat="42.08897" lon="-1.47858">
        <ele>334.9</ele>
      </trkpt>
      <trkpt lat="42.08889" lon="-1.47883">
        <ele>335</ele>
      </trkpt>
      <trkpt lat="42.08888" lon="-1.47897">
        <ele>335.1</ele>
      </trkpt>
      <trkpt lat="42.08884" lon="-1.4791">
        <ele>335.4</ele>
      </trkpt>
      <trkpt lat="42.08881" lon="-1.47924">
        <ele>335.5</ele>
      </trkpt>
      <trkpt lat="42.08857" lon="-1.47974">
        <ele>335.2</ele>
      </trkpt>
      <trkpt lat="42.0884" lon="-1.47988">
        <ele>335.1</ele>
      </trkpt>
      <trkpt lat="42.08828" lon="-1.47992">
        <ele>335.4</ele>
      </trkpt>
      <trkpt lat="42.08824" lon="-1.47997">
        <ele>335.3</ele>
      </trkpt>
      <trkpt lat="42.08819" lon="-1.48017">
        <ele>334</ele>
      </trkpt>
      <trkpt lat="42.08814" lon="-1.48051">
        <ele>333.5</ele>
      </trkpt>
      <trkpt lat="42.08802" lon="-1.48095">
        <ele>333</ele>
      </trkpt>
      <trkpt lat="42.08785" lon="-1.48129">
        <ele>333.6</ele>
      </trkpt>
      <trkpt lat="42.08772" lon="-1.48178">
        <ele>333.1</ele>
      </trkpt>
      <trkpt lat="42.08765" lon="-1.48222">
        <ele>331.9</ele>
      </trkpt>
      <trkpt lat="42.08759" lon="-1.48242">
        <ele>331.6</ele>
      </trkpt>
      <trkpt lat="42.08758" lon="-1.48255">
        <ele>331.2</ele>
      </trkpt>
      <trkpt lat="42.08761" lon="-1.48268">
        <ele>330.4</ele>
      </trkpt>
      <trkpt lat="42.08756" lon="-1.48292">
        <ele>330.2</ele>
      </trkpt>
      <trkpt lat="42.08745" lon="-1.48324">
        <ele>330.8</ele>
      </trkpt>
      <trkpt lat="42.08747" lon="-1.48359">
        <ele>330.2</ele>
      </trkpt>
      <trkpt lat="42.08743" lon="-1.48397">
        <ele>329.8</ele>
      </trkpt>
      <trkpt lat="42.08741" lon="-1.48412">
        <ele>330</ele>
      </trkpt>
      <trkpt lat="42.08737" lon="-1.48424">
        <ele>330.3</ele>
      </trkpt>
      <trkpt lat="42.08737" lon="-1.48443">
        <ele>330</ele>
      </trkpt>
      <trkpt lat="42.08748" lon="-1.48518">
        <ele>328.7</ele>
      </trkpt>
      <trkpt lat="42.08753" lon="-1.48532">
        <ele>328</ele>
      </trkpt>
      <trkpt lat="42.08765" lon="-1.48538">
        <ele>327.4</ele>
      </trkpt>
      <trkpt lat="42.08775" lon="-1.48541">
        <ele>326.7</ele>
      </trkpt>
      <trkpt lat="42.08785" lon="-1.48549">
        <ele>325.8</ele>
      </trkpt>
      <trkpt lat="42.08818" lon="-1.48603">
        <ele>323.4</ele>
      </trkpt>
      <trkpt lat="42.08822" lon="-1.4862">
        <ele>323.2</ele>
      </trkpt>
      <trkpt lat="42.08821" lon="-1.48664">
        <ele>322.9</ele>
      </trkpt>
      <trkpt lat="42.08824" lon="-1.48687">
        <ele>321.9</ele>
      </trkpt>
      <trkpt lat="42.08828" lon="-1.48698">
        <ele>321.4</ele>
      </trkpt>
      <trkpt lat="42.08857" lon="-1.48733">
        <ele>321.5</ele>
      </trkpt>
      <trkpt lat="42.08881" lon="-1.48758">
        <ele>321.4</ele>
      </trkpt>
      <trkpt lat="42.08902" lon="-1.48774">
        <ele>321.7</ele>
      </trkpt>
      <trkpt lat="42.08908" lon="-1.48833">
        <ele>320.3</ele>
      </trkpt>
      <trkpt lat="42.08906" lon="-1.4885">
        <ele>322</ele>
      </trkpt>
      <trkpt lat="42.08893" lon="-1.48886">
        <ele>323.8</ele>
      </trkpt>
      <trkpt lat="42.08889" lon="-1.48909">
        <ele>324</ele>
      </trkpt>
      <trkpt lat="42.08891" lon="-1.48986">
        <ele>324.3</ele>
      </trkpt>
      <trkpt lat="42.08897" lon="-1.48992">
        <ele>323.9</ele>
      </trkpt>
      <trkpt lat="42.08908" lon="-1.49022">
        <ele>323.5</ele>
      </trkpt>
      <trkpt lat="42.08918" lon="-1.49037">
        <ele>322.9</ele>
      </trkpt>
      <trkpt lat="42.08923" lon="-1.4904">
        <ele>322.6</ele>
      </trkpt>
      <trkpt lat="42.08941" lon="-1.49039">
        <ele>321.6</ele>
      </trkpt>
      <trkpt lat="42.08947" lon="-1.49041">
        <ele>321.1</ele>
      </trkpt>
      <trkpt lat="42.08951" lon="-1.49047">
        <ele>320.7</ele>
      </trkpt>
      <trkpt lat="42.08953" lon="-1.49055">
        <ele>320.5</ele>
      </trkpt>
      <trkpt lat="42.08952" lon="-1.49064">
        <ele>321.3</ele>
      </trkpt>
      <trkpt lat="42.08948" lon="-1.49071">
        <ele>322.5</ele>
      </trkpt>
      <trkpt lat="42.08939" lon="-1.4908">
        <ele>323.8</ele>
      </trkpt>
      <trkpt lat="42.08933" lon="-1.49091">
        <ele>324.1</ele>
      </trkpt>
      <trkpt lat="42.08931" lon="-1.49104">
        <ele>324.4</ele>
      </trkpt>
      <trkpt lat="42.08928" lon="-1.49141">
        <ele>326.6</ele>
      </trkpt>
      <trkpt lat="42.08931" lon="-1.49182">
        <ele>326.7</ele>
      </trkpt>
      <trkpt lat="42.08948" lon="-1.49228">
        <ele>326</ele>
      </trkpt>
      <trkpt lat="42.08983" lon="-1.49295">
        <ele>325.2</ele>
      </trkpt>
      <trkpt lat="42.09003" lon="-1.49354">
        <ele>324.9</ele>
      </trkpt>
      <trkpt lat="42.09018" lon="-1.49405">
        <ele>324.7</ele>
      </trkpt>
      <trkpt lat="42.09033" lon="-1.49444">
        <ele>322.3</ele>
      </trkpt>
      <trkpt lat="42.09042" lon="-1.49491">
        <ele>322.9</ele>
      </trkpt>
      <trkpt lat="42.09049" lon="-1.4952">
        <ele>324.3</ele>
      </trkpt>
      <trkpt lat="42.09051" lon="-1.49533">
        <ele>324.6</ele>
      </trkpt>
      <trkpt lat="42.0905" lon="-1.49548">
        <ele>324.7</ele>
      </trkpt>
      <trkpt lat="42.09052" lon="-1.49598">
        <ele>325.8</ele>
      </trkpt>
      <trkpt lat="42.09057" lon="-1.49617">
        <ele>326.2</ele>
      </trkpt>
      <trkpt lat="42.0906" lon="-1.49643">
        <ele>327.2</ele>
      </trkpt>
      <trkpt lat="42.09062" lon="-1.4968">
        <ele>328.3</ele>
      </trkpt>
      <trkpt lat="42.0906" lon="-1.49696">
        <ele>328.5</ele>
      </trkpt>
      <trkpt lat="42.09055" lon="-1.49715">
        <ele>328.3</ele>
      </trkpt>
      <trkpt lat="42.09016" lon="-1.49817">
        <ele>326.6</ele>
      </trkpt>
      <trkpt lat="42.09006" lon="-1.49847">
        <ele>326.5</ele>
      </trkpt>
      <trkpt lat="42.08997" lon="-1.49884">
        <ele>325.5</ele>
      </trkpt>
      <trkpt lat="42.08983" lon="-1.49924">
        <ele>326.8</ele>
      </trkpt>
      <trkpt lat="42.08956" lon="-1.49995">
        <ele>326.3</ele>
      </trkpt>
      <trkpt lat="42.08922" lon="-1.50092">
        <ele>326.4</ele>
      </trkpt>
      <trkpt lat="42.08919" lon="-1.50115">
        <ele>325.6</ele>
      </trkpt>
      <trkpt lat="42.08916" lon="-1.50123">
        <ele>325.2</ele>
      </trkpt>
      <trkpt lat="42.08906" lon="-1.50133">
        <ele>325.8</ele>
      </trkpt>
      <trkpt lat="42.08903" lon="-1.50141">
        <ele>326</ele>
      </trkpt>
      <trkpt lat="42.08884" lon="-1.50225">
        <ele>326.3</ele>
      </trkpt>
      <trkpt lat="42.08879" lon="-1.50292">
        <ele>324.9</ele>
      </trkpt>
      <trkpt lat="42.08875" lon="-1.50308">
        <ele>324.9</ele>
      </trkpt>
      <trkpt lat="42.08859" lon="-1.50346">
        <ele>323</ele>
      </trkpt>
      <trkpt lat="42.08858" lon="-1.50355">
        <ele>322.3</ele>
      </trkpt>
      <trkpt lat="42.0886" lon="-1.50362">
        <ele>321.3</ele>
      </trkpt>
      <trkpt lat="42.08867" lon="-1.50377">
        <ele>321.9</ele>
      </trkpt>
      <trkpt lat="42.08867" lon="-1.50384">
        <ele>322.1</ele>
      </trkpt>
      <trkpt lat="42.08859" lon="-1.50394">
        <ele>322.5</ele>
      </trkpt>
      <trkpt lat="42.08862" lon="-1.50455">
        <ele>323</ele>
      </trkpt>
      <trkpt lat="42.08856" lon="-1.50502">
        <ele>322.3</ele>
      </trkpt>
      <trkpt lat="42.08855" lon="-1.50531">
        <ele>321.1</ele>
      </trkpt>
      <trkpt lat="42.08852" lon="-1.50557">
        <ele>320.3</ele>
      </trkpt>
      <trkpt lat="42.08841" lon="-1.50624">
        <ele>318.6</ele>
      </trkpt>
      <trkpt lat="42.08809" lon="-1.50768">
        <ele>316.3</ele>
      </trkpt>
      <trkpt lat="42.08806" lon="-1.50786">
        <ele>315.7</ele>
      </trkpt>
      <trkpt lat="42.08806" lon="-1.50824">
        <ele>315</ele>
      </trkpt>
      <trkpt lat="42.08802" lon="-1.50822">
        <ele>315.2</ele>
      </trkpt>
      <trkpt lat="42.08793" lon="-1.50844">
        <ele>314.6</ele>
      </trkpt>
      <trkpt lat="42.08791" lon="-1.50873">
        <ele>313.6</ele>
      </trkpt>
      <trkpt lat="42.08775" lon="-1.50886">
        <ele>313.4</ele>
      </trkpt>
      <trkpt lat="42.08771" lon="-1.50902">
        <ele>313.4</ele>
      </trkpt>
      <trkpt lat="42.08772" lon="-1.50958">
        <ele>313.4</ele>
      </trkpt>
      <trkpt lat="42.08764" lon="-1.51027">
        <ele>313.5</ele>
      </trkpt>
      <trkpt lat="42.08761" lon="-1.5107">
        <ele>312.1</ele>
      </trkpt>
      <trkpt lat="42.08762" lon="-1.51094">
        <ele>311.2</ele>
      </trkpt>
      <trkpt lat="42.08766" lon="-1.51114">
        <ele>310.4</ele>
      </trkpt>
      <trkpt lat="42.08759" lon="-1.51145">
        <ele>310.1</ele>
      </trkpt>
      <trkpt lat="42.08759" lon="-1.5116">
        <ele>310.3</ele>
      </trkpt>
      <trkpt lat="42.08768" lon="-1.51183">
        <ele>309.5</ele>
      </trkpt>
      <trkpt lat="42.08804" lon="-1.51246">
        <ele>307.9</ele>
      </trkpt>
      <trkpt lat="42.0881" lon="-1.51264">
        <ele>307.4</ele>
      </trkpt>
      <trkpt lat="42.08812" lon="-1.51276">
        <ele>307</ele>
      </trkpt>
      <trkpt lat="42.08811" lon="-1.51293">
        <ele>306.6</ele>
      </trkpt>
      <trkpt lat="42.08803" lon="-1.51329">
        <ele>306.1</ele>
      </trkpt>
      <trkpt lat="42.08802" lon="-1.51348">
        <ele>306.7</ele>
      </trkpt>
      <trkpt lat="42.08802" lon="-1.51377">
        <ele>307.1</ele>
      </trkpt>
      <trkpt lat="42.08805" lon="-1.51458">
        <ele>306</ele>
      </trkpt>
      <trkpt lat="42.08803" lon="-1.51551">
        <ele>303.1</ele>
      </trkpt>
      <trkpt lat="42.08794" lon="-1.51629">
        <ele>300.6</ele>
      </trkpt>
      <trkpt lat="42.0879" lon="-1.51643">
        <ele>300.4</ele>
      </trkpt>
      <trkpt lat="42.08787" lon="-1.5165">
        <ele>300.3</ele>
      </trkpt>
      <trkpt lat="42.08776" lon="-1.51658">
        <ele>300.4</ele>
      </trkpt>
      <trkpt lat="42.08759" lon="-1.51686">
        <ele>298.6</ele>
      </trkpt>
      <trkpt lat="42.08749" lon="-1.51696">
        <ele>298.1</ele>
      </trkpt>
      <trkpt lat="42.08743" lon="-1.51709">
        <ele>298.8</ele>
      </trkpt>
      <trkpt lat="42.08746" lon="-1.51723">
        <ele>299.7</ele>
      </trkpt>
      <trkpt lat="42.08775" lon="-1.51788">
        <ele>302.2</ele>
      </trkpt>
      <trkpt lat="42.08779" lon="-1.51818">
        <ele>303.1</ele>
      </trkpt>
      <trkpt lat="42.08769" lon="-1.51913">
        <ele>303.6</ele>
      </trkpt>
      <trkpt lat="42.08767" lon="-1.51962">
        <ele>303.6</ele>
      </trkpt>
      <trkpt lat="42.08766" lon="-1.52009">
        <ele>304.2</ele>
      </trkpt>
      <trkpt lat="42.08762" lon="-1.52053">
        <ele>304.3</ele>
      </trkpt>
      <trkpt lat="42.08754" lon="-1.52097">
        <ele>303.4</ele>
      </trkpt>
      <trkpt lat="42.08751" lon="-1.52162">
        <ele>303.1</ele>
      </trkpt>
      <trkpt lat="42.08754" lon="-1.52209">
        <ele>302.4</ele>
      </trkpt>
      <trkpt lat="42.08766" lon="-1.52274">
        <ele>302.7</ele>
      </trkpt>
      <trkpt lat="42.08765" lon="-1.52284">
        <ele>302.9</ele>
      </trkpt>
      <trkpt lat="42.08749" lon="-1.52332">
        <ele>302</ele>
      </trkpt>
      <trkpt lat="42.08734" lon="-1.52399">
        <ele>301.3</ele>
      </trkpt>
      <trkpt lat="42.08732" lon="-1.52425">
        <ele>300.9</ele>
      </trkpt>
      <trkpt lat="42.08728" lon="-1.52454">
        <ele>299.9</ele>
      </trkpt>
      <trkpt lat="42.08724" lon="-1.52554">
        <ele>298.3</ele>
      </trkpt>
      <trkpt lat="42.0872" lon="-1.52567">
        <ele>297.8</ele>
      </trkpt>
      <trkpt lat="42.08715" lon="-1.5257">
        <ele>297.3</ele>
      </trkpt>
      <trkpt lat="42.08712" lon="-1.5262">
        <ele>295.9</ele>
      </trkpt>
      <trkpt lat="42.0872" lon="-1.52748">
        <ele>297.6</ele>
      </trkpt>
      <trkpt lat="42.08708" lon="-1.52775">
        <ele>295.4</ele>
      </trkpt>
      <trkpt lat="42.08704" lon="-1.52807">
        <ele>295.4</ele>
      </trkpt>
      <trkpt lat="42.08686" lon="-1.52881">
        <ele>293.4</ele>
      </trkpt>
      <trkpt lat="42.08684" lon="-1.52903">
        <ele>292.8</ele>
      </trkpt>
      <trkpt lat="42.08683" lon="-1.52964">
        <ele>295.3</ele>
      </trkpt>
      <trkpt lat="42.08685" lon="-1.52993">
        <ele>296.6</ele>
      </trkpt>
      <trkpt lat="42.08695" lon="-1.53048">
        <ele>298.8</ele>
      </trkpt>
      <trkpt lat="42.08699" lon="-1.53104">
        <ele>298.4</ele>
      </trkpt>
      <trkpt lat="42.08718" lon="-1.5327">
        <ele>298.8</ele>
      </trkpt>
      <trkpt lat="42.08723" lon="-1.53299">
        <ele>298.3</ele>
      </trkpt>
      <trkpt lat="42.08747" lon="-1.53375">
        <ele>296.9</ele>
      </trkpt>
      <trkpt lat="42.08761" lon="-1.53417">
        <ele>296.8</ele>
      </trkpt>
      <trkpt lat="42.08767" lon="-1.53459">
        <ele>296.5</ele>
      </trkpt>
      <trkpt lat="42.0879" lon="-1.53556">
        <ele>294.9</ele>
      </trkpt>
      <trkpt lat="42.08796" lon="-1.53573">
        <ele>294.7</ele>
      </trkpt>
      <trkpt lat="42.08807" lon="-1.5359">
        <ele>294.5</ele>
      </trkpt>
      <trkpt lat="42.08813" lon="-1.53604">
        <ele>294</ele>
      </trkpt>
      <trkpt lat="42.08814" lon="-1.53613">
        <ele>293.5</ele>
      </trkpt>
      <trkpt lat="42.08805" lon="-1.53647">
        <ele>293.2</ele>
      </trkpt>
      <trkpt lat="42.08803" lon="-1.53664">
        <ele>293.6</ele>
      </trkpt>
      <trkpt lat="42.08808" lon="-1.53761">
        <ele>293</ele>
      </trkpt>
      <trkpt lat="42.08807" lon="-1.53865">
        <ele>291.7</ele>
      </trkpt>
      <trkpt lat="42.08814" lon="-1.53901">
        <ele>289.4</ele>
      </trkpt>
      <trkpt lat="42.08819" lon="-1.53917">
        <ele>289.5</ele>
      </trkpt>
      <trkpt lat="42.08826" lon="-1.53977">
        <ele>295</ele>
      </trkpt>
      <trkpt lat="42.0884" lon="-1.54006">
        <ele>297.4</ele>
      </trkpt>
      <trkpt lat="42.08846" lon="-1.5404">
        <ele>298.2</ele>
      </trkpt>
      <trkpt lat="42.08844" lon="-1.54052">
        <ele>298.3</ele>
      </trkpt>
      <trkpt lat="42.08833" lon="-1.54069">
        <ele>298.5</ele>
      </trkpt>
      <trkpt lat="42.08829" lon="-1.54083">
        <ele>298.7</ele>
      </trkpt>
      <trkpt lat="42.08829" lon="-1.54102">
        <ele>298.8</ele>
      </trkpt>
      <trkpt lat="42.08832" lon="-1.54132">
        <ele>298.8</ele>
      </trkpt>
      <trkpt lat="42.08827" lon="-1.54179">
        <ele>298.4</ele>
      </trkpt>
      <trkpt lat="42.08808" lon="-1.5427">
        <ele>299.1</ele>
      </trkpt>
      <trkpt lat="42.08793" lon="-1.54332">
        <ele>296.8</ele>
      </trkpt>
      <trkpt lat="42.08786" lon="-1.54344">
        <ele>296.6</ele>
      </trkpt>
      <trkpt lat="42.08754" lon="-1.54371">
        <ele>298.1</ele>
      </trkpt>
      <trkpt lat="42.08742" lon="-1.54389">
        <ele>297.7</ele>
      </trkpt>
      <trkpt lat="42.08699" lon="-1.54464">
        <ele>295.9</ele>
      </trkpt>
      <trkpt lat="42.0867" lon="-1.54506">
        <ele>295.8</ele>
      </trkpt>
      <trkpt lat="42.08629" lon="-1.54573">
        <ele>294.2</ele>
      </trkpt>
      <trkpt lat="42.08622" lon="-1.54613">
        <ele>293.4</ele>
      </trkpt>
      <trkpt lat="42.08623" lon="-1.54634">
        <ele>293</ele>
      </trkpt>
      <trkpt lat="42.08619" lon="-1.54652">
        <ele>292.6</ele>
      </trkpt>
      <trkpt lat="42.08553" lon="-1.54731">
        <ele>288.4</ele>
      </trkpt>
      <trkpt lat="42.08535" lon="-1.54767">
        <ele>290.5</ele>
      </trkpt>
      <trkpt lat="42.0853" lon="-1.54779">
        <ele>291.8</ele>
      </trkpt>
      <trkpt lat="42.08523" lon="-1.54779">
        <ele>291.9</ele>
      </trkpt>
      <trkpt lat="42.08516" lon="-1.54783">
        <ele>291.8</ele>
      </trkpt>
      <trkpt lat="42.08508" lon="-1.54794">
        <ele>292.3</ele>
      </trkpt>
      <trkpt lat="42.08498" lon="-1.5483">
        <ele>293.9</ele>
      </trkpt>
      <trkpt lat="42.08493" lon="-1.54837">
        <ele>294.1</ele>
      </trkpt>
      <trkpt lat="42.0846" lon="-1.54831">
        <ele>293.5</ele>
      </trkpt>
      <trkpt lat="42.08442" lon="-1.54832">
        <ele>292.9</ele>
      </trkpt>
      <trkpt lat="42.08431" lon="-1.54836">
        <ele>292.5</ele>
      </trkpt>
      <trkpt lat="42.08415" lon="-1.54843">
        <ele>291.9</ele>
      </trkpt>
      <trkpt lat="42.08361" lon="-1.5488">
        <ele>290.7</ele>
      </trkpt>
      <trkpt lat="42.08324" lon="-1.54903">
        <ele>290</ele>
      </trkpt>
      <trkpt lat="42.08299" lon="-1.54932">
        <ele>289.8</ele>
      </trkpt>
      <trkpt lat="42.0825" lon="-1.54979">
        <ele>288</ele>
      </trkpt>
      <trkpt lat="42.08216" lon="-1.55023">
        <ele>286.9</ele>
      </trkpt>
      <trkpt lat="42.08189" lon="-1.55059">
        <ele>285.8</ele>
      </trkpt>
      <trkpt lat="42.0817" lon="-1.55098">
        <ele>286.1</ele>
      </trkpt>
      <trkpt lat="42.08118" lon="-1.5517">
        <ele>287</ele>
      </trkpt>
      <trkpt lat="42.08106" lon="-1.55185">
        <ele>286.8</ele>
      </trkpt>
      <trkpt lat="42.08083" lon="-1.55222">
        <ele>287</ele>
      </trkpt>
      <trkpt lat="42.0802" lon="-1.55295">
        <ele>286.4</ele>
      </trkpt>
      <trkpt lat="42.07992" lon="-1.55342">
        <ele>285.2</ele>
      </trkpt>
      <trkpt lat="42.07962" lon="-1.55407">
        <ele>284.2</ele>
      </trkpt>
      <trkpt lat="42.07956" lon="-1.55426">
        <ele>283.8</ele>
      </trkpt>
      <trkpt lat="42.07947" lon="-1.55453">
        <ele>283.1</ele>
      </trkpt>
      <trkpt lat="42.07935" lon="-1.55503">
        <ele>282</ele>
      </trkpt>
      <trkpt lat="42.07929" lon="-1.55541">
        <ele>281.7</ele>
      </trkpt>
      <trkpt lat="42.07925" lon="-1.55668">
        <ele>281</ele>
      </trkpt>
      <trkpt lat="42.07913" lon="-1.55746">
        <ele>280.6</ele>
      </trkpt>
      <trkpt lat="42.07908" lon="-1.55769">
        <ele>280.5</ele>
      </trkpt>
      <trkpt lat="42.07854" lon="-1.55907">
        <ele>281.7</ele>
      </trkpt>
      <trkpt lat="42.07843" lon="-1.55953">
        <ele>281.3</ele>
      </trkpt>
      <trkpt lat="42.07807" lon="-1.56041">
        <ele>281.1</ele>
      </trkpt>
      <trkpt lat="42.07751" lon="-1.56159">
        <ele>280</ele>
      </trkpt>
      <trkpt lat="42.0772" lon="-1.56239">
        <ele>279</ele>
      </trkpt>
      <trkpt lat="42.07701" lon="-1.5627">
        <ele>279</ele>
      </trkpt>
      <trkpt lat="42.07678" lon="-1.56312">
        <ele>278</ele>
      </trkpt>
      <trkpt lat="42.07645" lon="-1.56367">
        <ele>277</ele>
      </trkpt>
      <trkpt lat="42.07636" lon="-1.56389">
        <ele>277.1</ele>
      </trkpt>
      <trkpt lat="42.07621" lon="-1.56473">
        <ele>276</ele>
      </trkpt>
      <trkpt lat="42.076" lon="-1.56549">
        <ele>275.1</ele>
      </trkpt>
      <trkpt lat="42.07585" lon="-1.56585">
        <ele>274.1</ele>
      </trkpt>
      <trkpt lat="42.07554" lon="-1.56648">
        <ele>273</ele>
      </trkpt>
      <trkpt lat="42.07533" lon="-1.56696">
        <ele>272</ele>
      </trkpt>
      <trkpt lat="42.07517" lon="-1.56752">
        <ele>270.6</ele>
      </trkpt>
      <trkpt lat="42.07485" lon="-1.56825">
        <ele>269</ele>
      </trkpt>
      <trkpt lat="42.0748" lon="-1.56842">
        <ele>269</ele>
      </trkpt>
      <trkpt lat="42.0748" lon="-1.56861">
        <ele>269</ele>
      </trkpt>
      <trkpt lat="42.07477" lon="-1.56878">
        <ele>269</ele>
      </trkpt>
      <trkpt lat="42.0747" lon="-1.56896">
        <ele>269</ele>
      </trkpt>
      <trkpt lat="42.07461" lon="-1.56913">
        <ele>269</ele>
      </trkpt>
      <trkpt lat="42.07429" lon="-1.5696">
        <ele>268.9</ele>
      </trkpt>
      <trkpt lat="42.07417" lon="-1.56982">
        <ele>268.4</ele>
      </trkpt>
      <trkpt lat="42.07387" lon="-1.57057">
        <ele>268</ele>
      </trkpt>
      <trkpt lat="42.07336" lon="-1.57164">
        <ele>265</ele>
      </trkpt>
      <trkpt lat="42.07308" lon="-1.57226">
        <ele>262.9</ele>
      </trkpt>
      <trkpt lat="42.07304" lon="-1.57236">
        <ele>262.4</ele>
      </trkpt>
      <trkpt lat="42.07292" lon="-1.57263">
        <ele>261.5</ele>
      </trkpt>
      <trkpt lat="42.07287" lon="-1.57281">
        <ele>261.4</ele>
      </trkpt>
      <trkpt lat="42.07279" lon="-1.57335">
        <ele>263.7</ele>
      </trkpt>
      <trkpt lat="42.07273" lon="-1.57355">
        <ele>261.5</ele>
      </trkpt>
      <trkpt lat="42.07255" lon="-1.57402">
        <ele>260.5</ele>
      </trkpt>
      <trkpt lat="42.07245" lon="-1.57424">
        <ele>262</ele>
      </trkpt>
      <trkpt lat="42.07202" lon="-1.57527">
        <ele>254</ele>
      </trkpt>
      <trkpt lat="42.0713" lon="-1.57684">
        <ele>253</ele>
      </trkpt>
      <trkpt lat="42.07001" lon="-1.57975">
        <ele>252.9</ele>
      </trkpt>
      <trkpt lat="42.06926" lon="-1.58167">
        <ele>252.7</ele>
      </trkpt>
      <trkpt lat="42.06904" lon="-1.58215">
        <ele>252.7</ele>
      </trkpt>
      <trkpt lat="42.06883" lon="-1.58289">
        <ele>252.7</ele>
      </trkpt>
      <trkpt lat="42.06864" lon="-1.58357">
        <ele>252.9</ele>
      </trkpt>
      <trkpt lat="42.06823" lon="-1.58519">
        <ele>252.2</ele>
      </trkpt>
      <trkpt lat="42.06812" lon="-1.58595">
        <ele>252.8</ele>
      </trkpt>
      <trkpt lat="42.06805" lon="-1.58615">
        <ele>252.8</ele>
      </trkpt>
      <trkpt lat="42.06745" lon="-1.5877">
        <ele>253</ele>
      </trkpt>
      <trkpt lat="42.06718" lon="-1.58854">
        <ele>253</ele>
      </trkpt>
      <trkpt lat="42.06631" lon="-1.5905">
        <ele>253</ele>
      </trkpt>
      <trkpt lat="42.06583" lon="-1.59173">
        <ele>254</ele>
      </trkpt>
      <trkpt lat="42.0649" lon="-1.59419">
        <ele>254</ele>
      </trkpt>
      <trkpt lat="42.06467" lon="-1.59493">
        <ele>254</ele>
      </trkpt>
      <trkpt lat="42.06446" lon="-1.59553">
        <ele>254</ele>
      </trkpt>
      <trkpt lat="42.06441" lon="-1.59582">
        <ele>253.9</ele>
      </trkpt>
      <trkpt lat="42.06439" lon="-1.59624">
        <ele>254.7</ele>
      </trkpt>
      <trkpt lat="42.06447" lon="-1.59663">
        <ele>254.9</ele>
      </trkpt>
      <trkpt lat="42.06468" lon="-1.59717">
        <ele>254.7</ele>
      </trkpt>
      <trkpt lat="42.06482" lon="-1.59751">
        <ele>254.9</ele>
      </trkpt>
      <trkpt lat="42.06515" lon="-1.5981">
        <ele>254</ele>
      </trkpt>
      <trkpt lat="42.0654" lon="-1.59833">
        <ele>255.4</ele>
      </trkpt>
      <trkpt lat="42.06587" lon="-1.59862">
        <ele>255.8</ele>
      </trkpt>
      <trkpt lat="42.06594" lon="-1.59874">
        <ele>255.3</ele>
      </trkpt>
      <trkpt lat="42.0659" lon="-1.59898">
        <ele>254.8</ele>
      </trkpt>
      <trkpt lat="42.06655" lon="-1.5999">
        <ele>254.7</ele>
      </trkpt>
      <trkpt lat="42.0669" lon="-1.60024">
        <ele>254.6</ele>
      </trkpt>
      <trkpt lat="42.06684" lon="-1.6004">
        <ele>252.2</ele>
      </trkpt>
      <trkpt lat="42.06566" lon="-1.60303">
        <ele>251.8</ele>
      </trkpt>
      <trkpt lat="42.06542" lon="-1.60345">
        <ele>254.7</ele>
      </trkpt>
      <trkpt lat="42.06537" lon="-1.60349">
        <ele>256</ele>
      </trkpt>
      <trkpt lat="42.06533" lon="-1.60349">
        <ele>256.8</ele>
      </trkpt>
      <trkpt lat="42.06515" lon="-1.60331">
        <ele>258</ele>
      </trkpt>
      <trkpt lat="42.06517" lon="-1.60325">
        <ele>256.8</ele>
      </trkpt>
      <trkpt lat="42.06511" lon="-1.6032">
        <ele>257</ele>
      </trkpt>
      <trkpt lat="42.06506" lon="-1.60307">
        <ele>255.6</ele>
      </trkpt>
      <trkpt lat="42.06469" lon="-1.60267">
        <ele>256</ele>
      </trkpt>
      <trkpt lat="42.06458" lon="-1.60255">
        <ele>256.1</ele>
      </trkpt>
      <trkpt lat="42.06416" lon="-1.60211">
        <ele>256.1</ele>
      </trkpt>
      <trkpt lat="42.0641" lon="-1.6021">
        <ele>256.7</ele>
      </trkpt>
      <trkpt lat="42.06348" lon="-1.60145">
        <ele>256</ele>
      </trkpt>
      <trkpt lat="42.06344" lon="-1.60143">
        <ele>255.8</ele>
      </trkpt>
      <trkpt lat="42.06336" lon="-1.60137">
        <ele>255.2</ele>
      </trkpt>
      <trkpt lat="42.06337" lon="-1.60152">
        <ele>256</ele>
      </trkpt>
      <trkpt lat="42.0633" lon="-1.60155">
        <ele>256.1</ele>
      </trkpt>
      <trkpt lat="42.0632" lon="-1.60175">
        <ele>255.7</ele>
      </trkpt>
      <trkpt lat="42.06336" lon="-1.60194">
        <ele>255.6</ele>
      </trkpt>
      <trkpt lat="42.06448" lon="-1.60309">
        <ele>256.5</ele>
      </trkpt>
      <trkpt lat="42.0644" lon="-1.60344">
        <ele>255.2</ele>
      </trkpt>
      <trkpt lat="42.06439" lon="-1.60352">
        <ele>255.5</ele>
      </trkpt>
      <trkpt lat="42.06441" lon="-1.60361">
        <ele>255.9</ele>
      </trkpt>
      <trkpt lat="42.06457" lon="-1.60391">
        <ele>255</ele>
      </trkpt>
      <trkpt lat="42.0646" lon="-1.60402">
        <ele>255</ele>
      </trkpt>
      <trkpt lat="42.06459" lon="-1.60432">
        <ele>255.3</ele>
      </trkpt>
      <trkpt lat="42.06447" lon="-1.60469">
        <ele>256</ele>
      </trkpt>
      <trkpt lat="42.06447" lon="-1.60479">
        <ele>256.2</ele>
      </trkpt>
      <trkpt lat="42.0646" lon="-1.60513">
        <ele>257.5</ele>
      </trkpt>
      <trkpt lat="42.06438" lon="-1.60514">
        <ele>257.8</ele>
      </trkpt>
      <trkpt lat="42.0641" lon="-1.60502">
        <ele>260.1</ele>
      </trkpt>
      <trkpt lat="42.06398" lon="-1.60496">
        <ele>260</ele>
      </trkpt>
      <trkpt lat="42.06367" lon="-1.60473">
        <ele>259.2</ele>
      </trkpt>
      <trkpt lat="42.0636" lon="-1.6048">
        <ele>259.3</ele>
      </trkpt>
      <trkpt lat="42.06346" lon="-1.60499">
        <ele>259.5</ele>
        <extensions>
          <visugpx:TrkExtension xmlns:visugpx="https://www.visugpx.com/editgpx/">
            <visugpx:node>2</visugpx:node>
            </visugpx:TrkExtension>
        </extensions>
      </trkpt>
      <trkpt lat="42.06377" lon="-1.60459">
        <ele>258.8</ele>
      </trkpt>
      <trkpt lat="42.06429" lon="-1.6041">
        <ele>255.5</ele>
      </trkpt>
      <trkpt lat="42.06462" lon="-1.60399">
        <ele>255</ele>
      </trkpt>
      <trkpt lat="42.06513" lon="-1.60375">
        <ele>258</ele>
        <extensions>
          <visugpx:TrkExtension xmlns:visugpx="https://www.visugpx.com/editgpx/">
            <visugpx:node>1</visugpx:node>
            </visugpx:TrkExtension>
        </extensions>
      </trkpt>
      <trkpt lat="42.06516" lon="-1.6038">
        <ele>257.9</ele>
      </trkpt>
      <trkpt lat="42.06533" lon="-1.60349">
        <ele>256.8</ele>
      </trkpt>
      <trkpt lat="42.06537" lon="-1.60349">
        <ele>256</ele>
      </trkpt>
      <trkpt lat="42.06542" lon="-1.60345">
        <ele>254.7</ele>
      </trkpt>
      <trkpt lat="42.06566" lon="-1.60303">
        <ele>251.8</ele>
      </trkpt>
      <trkpt lat="42.06684" lon="-1.6004">
        <ele>252.2</ele>
      </trkpt>
      <trkpt lat="42.0669" lon="-1.60024">
        <ele>254.6</ele>
      </trkpt>
      <trkpt lat="42.06698" lon="-1.60024">
        <ele>255.1</ele>
      </trkpt>
      <trkpt lat="42.06718" lon="-1.6004">
        <ele>254.4</ele>
      </trkpt>
      <trkpt lat="42.06733" lon="-1.60046">
        <ele>254.6</ele>
      </trkpt>
      <trkpt lat="42.06869" lon="-1.60036">
        <ele>254.4</ele>
      </trkpt>
      <trkpt lat="42.06891" lon="-1.60032">
        <ele>254.9</ele>
      </trkpt>
      <trkpt lat="42.06899" lon="-1.60028">
        <ele>255.2</ele>
      </trkpt>
      <trkpt lat="42.06931" lon="-1.60007">
        <ele>254.6</ele>
      </trkpt>
      <trkpt lat="42.06975" lon="-1.59992">
        <ele>254.5</ele>
      </trkpt>
      <trkpt lat="42.07002" lon="-1.59985">
        <ele>253.2</ele>
      </trkpt>
      <trkpt lat="42.07047" lon="-1.59964">
        <ele>255.1</ele>
      </trkpt>
      <trkpt lat="42.07092" lon="-1.59947">
        <ele>256.1</ele>
      </trkpt>
      <trkpt lat="42.07189" lon="-1.599">
        <ele>255.6</ele>
      </trkpt>
      <trkpt lat="42.07299" lon="-1.59882">
        <ele>255.5</ele>
      </trkpt>
      <trkpt lat="42.07393" lon="-1.59882">
        <ele>254.8</ele>
      </trkpt>
      <trkpt lat="42.07443" lon="-1.59877">
        <ele>254.4</ele>
      </trkpt>
      <trkpt lat="42.075" lon="-1.59865">
        <ele>255</ele>
      </trkpt>
      <trkpt lat="42.07546" lon="-1.5985">
        <ele>254.5</ele>
      </trkpt>
      <trkpt lat="42.07642" lon="-1.59821">
        <ele>254.5</ele>
      </trkpt>
      <trkpt lat="42.07683" lon="-1.59816">
        <ele>254.5</ele>
      </trkpt>
      <trkpt lat="42.07794" lon="-1.59804">
        <ele>256.9</ele>
      </trkpt>
      <trkpt lat="42.07838" lon="-1.59804">
        <ele>256.5</ele>
      </trkpt>
      <trkpt lat="42.07861" lon="-1.59801">
        <ele>254.8</ele>
      </trkpt>
      <trkpt lat="42.07881" lon="-1.59793">
        <ele>254.4</ele>
      </trkpt>
      <trkpt lat="42.07896" lon="-1.59785">
        <ele>254.9</ele>
      </trkpt>
      <trkpt lat="42.07902" lon="-1.5978">
        <ele>255.3</ele>
      </trkpt>
      <trkpt lat="42.07946" lon="-1.59732">
        <ele>254.5</ele>
      </trkpt>
      <trkpt lat="42.07971" lon="-1.59688">
        <ele>255</ele>
      </trkpt>
      <trkpt lat="42.07985" lon="-1.59673">
        <ele>255.3</ele>
      </trkpt>
      <trkpt lat="42.08017" lon="-1.59655">
        <ele>254.7</ele>
      </trkpt>
      <trkpt lat="42.08036" lon="-1.59649">
        <ele>254.8</ele>
      </trkpt>
      <trkpt lat="42.08048" lon="-1.59648">
        <ele>255.2</ele>
      </trkpt>
      <trkpt lat="42.08104" lon="-1.59656">
        <ele>255.3</ele>
      </trkpt>
      <trkpt lat="42.08133" lon="-1.59665">
        <ele>256.7</ele>
      </trkpt>
      <trkpt lat="42.08142" lon="-1.59669">
        <ele>256.6</ele>
      </trkpt>
      <trkpt lat="42.08196" lon="-1.59702">
        <ele>256.4</ele>
      </trkpt>
      <trkpt lat="42.08201" lon="-1.59693">
        <ele>256.4</ele>
      </trkpt>
      <trkpt lat="42.08223" lon="-1.59668">
        <ele>255</ele>
      </trkpt>
      <trkpt lat="42.08239" lon="-1.59645">
        <ele>255</ele>
      </trkpt>
      <trkpt lat="42.0826" lon="-1.59628">
        <ele>255</ele>
      </trkpt>
      <trkpt lat="42.08268" lon="-1.5962">
        <ele>255</ele>
      </trkpt>
      <trkpt lat="42.08274" lon="-1.59608">
        <ele>254.9</ele>
      </trkpt>
      <trkpt lat="42.08324" lon="-1.59535">
        <ele>254</ele>
      </trkpt>
      <trkpt lat="42.08398" lon="-1.59472">
        <ele>254</ele>
      </trkpt>
      <trkpt lat="42.08424" lon="-1.59441">
        <ele>254</ele>
      </trkpt>
      <trkpt lat="42.08471" lon="-1.59487">
        <ele>254</ele>
      </trkpt>
      <trkpt lat="42.08495" lon="-1.59512">
        <ele>254.4</ele>
      </trkpt>
      <trkpt lat="42.08512" lon="-1.59528">
        <ele>255</ele>
      </trkpt>
      <trkpt lat="42.08525" lon="-1.5954">
        <ele>254.6</ele>
      </trkpt>
      <trkpt lat="42.08532" lon="-1.59558">
        <ele>254</ele>
      </trkpt>
      <trkpt lat="42.08545" lon="-1.59579">
        <ele>254</ele>
      </trkpt>
      <trkpt lat="42.08548" lon="-1.5958">
        <ele>254</ele>
      </trkpt>
      <trkpt lat="42.08572" lon="-1.59604">
        <ele>254</ele>
      </trkpt>
      <trkpt lat="42.08574" lon="-1.59609">
        <ele>254</ele>
      </trkpt>
      <trkpt lat="42.08593" lon="-1.59633">
        <ele>254</ele>
      </trkpt>
      <trkpt lat="42.08607" lon="-1.59642">
        <ele>254</ele>
      </trkpt>
      <trkpt lat="42.08621" lon="-1.59641">
        <ele>254</ele>
      </trkpt>
      <trkpt lat="42.0864" lon="-1.59634">
        <ele>254</ele>
      </trkpt>
      <trkpt lat="42.08651" lon="-1.59633">
        <ele>254</ele>
      </trkpt>
      <trkpt lat="42.08657" lon="-1.59635">
        <ele>254</ele>
      </trkpt>
      <trkpt lat="42.08684" lon="-1.59664">
        <ele>254</ele>
      </trkpt>
      <trkpt lat="42.08705" lon="-1.59673">
        <ele>254</ele>
      </trkpt>
      <trkpt lat="42.08713" lon="-1.59679">
        <ele>254</ele>
      </trkpt>
      <trkpt lat="42.08715" lon="-1.59685">
        <ele>254</ele>
      </trkpt>
      <trkpt lat="42.08715" lon="-1.59693">
        <ele>254</ele>
      </trkpt>
      <trkpt lat="42.08707" lon="-1.59716">
        <ele>254</ele>
      </trkpt>
      <trkpt lat="42.08706" lon="-1.59724">
        <ele>254</ele>
      </trkpt>
      <trkpt lat="42.08708" lon="-1.5973">
        <ele>254</ele>
      </trkpt>
      <trkpt lat="42.08746" lon="-1.5977">
        <ele>254.6</ele>
      </trkpt>
      <trkpt lat="42.08751" lon="-1.59773">
        <ele>254.8</ele>
      </trkpt>
      <trkpt lat="42.08758" lon="-1.5978">
        <ele>254.7</ele>
      </trkpt>
      <trkpt lat="42.0877" lon="-1.59786">
        <ele>254.4</ele>
      </trkpt>
      <trkpt lat="42.08786" lon="-1.59786">
        <ele>254.5</ele>
      </trkpt>
      <trkpt lat="42.08796" lon="-1.59784">
        <ele>254.7</ele>
      </trkpt>
      <trkpt lat="42.08874" lon="-1.59747">
        <ele>254.4</ele>
      </trkpt>
      <trkpt lat="42.08909" lon="-1.59729">
        <ele>254.8</ele>
      </trkpt>
      <trkpt lat="42.0896" lon="-1.59693">
        <ele>254.9</ele>
      </trkpt>
      <trkpt lat="42.0899" lon="-1.59674">
        <ele>254.7</ele>
      </trkpt>
      <trkpt lat="42.09007" lon="-1.59661">
        <ele>254.8</ele>
      </trkpt>
      <trkpt lat="42.09037" lon="-1.59627">
        <ele>254.7</ele>
      </trkpt>
      <trkpt lat="42.09053" lon="-1.59608">
        <ele>254.8</ele>
      </trkpt>
      <trkpt lat="42.09064" lon="-1.5959">
        <ele>254.5</ele>
      </trkpt>
      <trkpt lat="42.09074" lon="-1.59581">
        <ele>254.6</ele>
      </trkpt>
      <trkpt lat="42.09089" lon="-1.59572">
        <ele>254.7</ele>
      </trkpt>
      <trkpt lat="42.09106" lon="-1.59566">
        <ele>254.9</ele>
      </trkpt>
      <trkpt lat="42.09118" lon="-1.59558">
        <ele>255</ele>
      </trkpt>
      <trkpt lat="42.09139" lon="-1.59476">
        <ele>255</ele>
      </trkpt>
      <trkpt lat="42.09171" lon="-1.5943">
        <ele>255</ele>
      </trkpt>
      <trkpt lat="42.09179" lon="-1.59392">
        <ele>255</ele>
      </trkpt>
      <trkpt lat="42.09186" lon="-1.59319">
        <ele>255</ele>
      </trkpt>
      <trkpt lat="42.09222" lon="-1.59308">
        <ele>255</ele>
      </trkpt>
      <trkpt lat="42.09227" lon="-1.59305">
        <ele>255</ele>
      </trkpt>
      <trkpt lat="42.09231" lon="-1.59299">
        <ele>255</ele>
      </trkpt>
      <trkpt lat="42.0928" lon="-1.59116">
        <ele>255</ele>
      </trkpt>
      <trkpt lat="42.09289" lon="-1.59101">
        <ele>255</ele>
      </trkpt>
      <trkpt lat="42.09318" lon="-1.59063">
        <ele>255</ele>
      </trkpt>
      <trkpt lat="42.09322" lon="-1.59059">
        <ele>255</ele>
      </trkpt>
      <trkpt lat="42.09328" lon="-1.59059">
        <ele>255</ele>
      </trkpt>
      <trkpt lat="42.09391" lon="-1.59082">
        <ele>256.9</ele>
      </trkpt>
      <trkpt lat="42.09401" lon="-1.59043">
        <ele>257.1</ele>
      </trkpt>
      <trkpt lat="42.09414" lon="-1.59047">
        <ele>258.7</ele>
      </trkpt>
      <trkpt lat="42.09427" lon="-1.59062">
        <ele>257.4</ele>
      </trkpt>
      <trkpt lat="42.09436" lon="-1.59066">
        <ele>256.6</ele>
      </trkpt>
      <trkpt lat="42.09468" lon="-1.59079">
        <ele>256.8</ele>
      </trkpt>
      <trkpt lat="42.09475" lon="-1.5908">
        <ele>256.6</ele>
      </trkpt>
      <trkpt lat="42.09488" lon="-1.59071">
        <ele>255.7</ele>
      </trkpt>
      <trkpt lat="42.09536" lon="-1.59042">
        <ele>256</ele>
      </trkpt>
      <trkpt lat="42.09584" lon="-1.59029">
        <ele>256.8</ele>
      </trkpt>
      <trkpt lat="42.09679" lon="-1.59">
        <ele>256.6</ele>
      </trkpt>
      <trkpt lat="42.09689" lon="-1.58995">
        <ele>256.2</ele>
      </trkpt>
      <trkpt lat="42.09702" lon="-1.58984">
        <ele>255.9</ele>
      </trkpt>
      <trkpt lat="42.09708" lon="-1.58983">
        <ele>255.9</ele>
      </trkpt>
      <trkpt lat="42.09716" lon="-1.58984">
        <ele>255.8</ele>
      </trkpt>
      <trkpt lat="42.09874" lon="-1.5898">
        <ele>255.9</ele>
      </trkpt>
      <trkpt lat="42.09955" lon="-1.58987">
        <ele>254.8</ele>
      </trkpt>
      <trkpt lat="42.10111" lon="-1.59003">
        <ele>256.7</ele>
      </trkpt>
      <trkpt lat="42.10175" lon="-1.59007">
        <ele>256.9</ele>
      </trkpt>
      <trkpt lat="42.10192" lon="-1.59011">
        <ele>256.6</ele>
      </trkpt>
      <trkpt lat="42.10222" lon="-1.59022">
        <ele>256.8</ele>
      </trkpt>
      <trkpt lat="42.10498" lon="-1.59135">
        <ele>257.6</ele>
      </trkpt>
      <trkpt lat="42.10545" lon="-1.59153">
        <ele>256.7</ele>
      </trkpt>
      <trkpt lat="42.10731" lon="-1.59229">
        <ele>256.7</ele>
      </trkpt>
      <trkpt lat="42.10738" lon="-1.5923">
        <ele>256.6</ele>
      </trkpt>
      <trkpt lat="42.10744" lon="-1.5923">
        <ele>256.7</ele>
      </trkpt>
      <trkpt lat="42.10851" lon="-1.59181">
        <ele>256.5</ele>
      </trkpt>
      <trkpt lat="42.10913" lon="-1.59144">
        <ele>258.2</ele>
      </trkpt>
      <trkpt lat="42.1096" lon="-1.59111">
        <ele>258.6</ele>
      </trkpt>
      <trkpt lat="42.10971" lon="-1.59107">
        <ele>258.7</ele>
      </trkpt>
      <trkpt lat="42.11001" lon="-1.59098">
        <ele>257</ele>
      </trkpt>
      <trkpt lat="42.11031" lon="-1.59092">
        <ele>257</ele>
      </trkpt>
      <trkpt lat="42.11059" lon="-1.59094">
        <ele>256.7</ele>
      </trkpt>
      <trkpt lat="42.11075" lon="-1.59092">
        <ele>257.2</ele>
      </trkpt>
      <trkpt lat="42.11082" lon="-1.59086">
        <ele>258.4</ele>
      </trkpt>
      <trkpt lat="42.11091" lon="-1.59068">
        <ele>258</ele>
      </trkpt>
      <trkpt lat="42.11096" lon="-1.59063">
        <ele>258</ele>
      </trkpt>
      <trkpt lat="42.11118" lon="-1.59052">
        <ele>258.4</ele>
      </trkpt>
      <trkpt lat="42.11128" lon="-1.59054">
        <ele>258.3</ele>
      </trkpt>
      <trkpt lat="42.11145" lon="-1.59064">
        <ele>257.7</ele>
      </trkpt>
      <trkpt lat="42.1115" lon="-1.59065">
        <ele>257.7</ele>
      </trkpt>
      <trkpt lat="42.11158" lon="-1.59057">
        <ele>258.5</ele>
      </trkpt>
      <trkpt lat="42.11183" lon="-1.59019">
        <ele>256.7</ele>
      </trkpt>
      <trkpt lat="42.11206" lon="-1.58973">
        <ele>257.7</ele>
      </trkpt>
      <trkpt lat="42.11233" lon="-1.58944">
        <ele>256.5</ele>
      </trkpt>
      <trkpt lat="42.11272" lon="-1.58876">
        <ele>257.4</ele>
      </trkpt>
      <trkpt lat="42.11282" lon="-1.58863">
        <ele>258.2</ele>
      </trkpt>
      <trkpt lat="42.11299" lon="-1.58844">
        <ele>257.1</ele>
      </trkpt>
      <trkpt lat="42.11324" lon="-1.58822">
        <ele>256.7</ele>
      </trkpt>
      <trkpt lat="42.11333" lon="-1.5881">
        <ele>257.5</ele>
      </trkpt>
      <trkpt lat="42.11349" lon="-1.58776">
        <ele>255.9</ele>
      </trkpt>
      <trkpt lat="42.11354" lon="-1.58758">
        <ele>256.6</ele>
      </trkpt>
      <trkpt lat="42.11363" lon="-1.58631">
        <ele>257.8</ele>
      </trkpt>
      <trkpt lat="42.11366" lon="-1.58616">
        <ele>257.3</ele>
      </trkpt>
      <trkpt lat="42.11368" lon="-1.5859">
        <ele>257</ele>
      </trkpt>
      <trkpt lat="42.11377" lon="-1.58516">
        <ele>255.9</ele>
      </trkpt>
      <trkpt lat="42.11381" lon="-1.58411">
        <ele>256.3</ele>
      </trkpt>
      <trkpt lat="42.11399" lon="-1.58241">
        <ele>256.9</ele>
      </trkpt>
      <trkpt lat="42.11401" lon="-1.58184">
        <ele>256.7</ele>
      </trkpt>
      <trkpt lat="42.11407" lon="-1.58081">
        <ele>256.7</ele>
      </trkpt>
      <trkpt lat="42.11408" lon="-1.5799">
        <ele>257.3</ele>
      </trkpt>
      <trkpt lat="42.1141" lon="-1.57957">
        <ele>256.8</ele>
      </trkpt>
      <trkpt lat="42.11408" lon="-1.57914">
        <ele>257.3</ele>
      </trkpt>
      <trkpt lat="42.1141" lon="-1.57881">
        <ele>257.7</ele>
      </trkpt>
      <trkpt lat="42.11419" lon="-1.57884">
        <ele>257.3</ele>
      </trkpt>
      <trkpt lat="42.11447" lon="-1.57892">
        <ele>258.8</ele>
      </trkpt>
      <trkpt lat="42.11451" lon="-1.57893">
        <ele>258.7</ele>
      </trkpt>
      <trkpt lat="42.11469" lon="-1.57898">
        <ele>258.6</ele>
      </trkpt>
      <trkpt lat="42.11462" lon="-1.58015">
        <ele>257.6</ele>
      </trkpt>
      <trkpt lat="42.11446" lon="-1.58222">
        <ele>258</ele>
      </trkpt>
      <trkpt lat="42.1313" lon="-1.58671">
        <ele>258.6</ele>
      </trkpt>
      <trkpt lat="42.12919" lon="-1.58916">
        <ele>258</ele>
      </trkpt>
      <trkpt lat="42.12921" lon="-1.58924">
        <ele>258</ele>
      </trkpt>
      <trkpt lat="42.1292" lon="-1.58931">
        <ele>258</ele>
      </trkpt>
      <trkpt lat="42.12918" lon="-1.58945">
        <ele>258</ele>
      </trkpt>
      <trkpt lat="42.12893" lon="-1.58986">
        <ele>258.4</ele>
      </trkpt>
      <trkpt lat="42.12892" lon="-1.58995">
        <ele>258.7</ele>
      </trkpt>
      <trkpt lat="42.12894" lon="-1.59002">
        <ele>258.7</ele>
      </trkpt>
      <trkpt lat="42.12918" lon="-1.59039">
        <ele>258.2</ele>
      </trkpt>
      <trkpt lat="42.12962" lon="-1.59099">
        <ele>258.3</ele>
      </trkpt>
      <trkpt lat="42.13101" lon="-1.5931">
        <ele>258.9</ele>
      </trkpt>
      <trkpt lat="42.13218" lon="-1.59484">
        <ele>258.7</ele>
      </trkpt>
      <trkpt lat="42.13241" lon="-1.59531">
        <ele>258.6</ele>
      </trkpt>
      <trkpt lat="42.13274" lon="-1.59611">
        <ele>258.7</ele>
      </trkpt>
      <trkpt lat="42.13316" lon="-1.59681">
        <ele>259.1</ele>
      </trkpt>
      <trkpt lat="42.13379" lon="-1.59777">
        <ele>259</ele>
      </trkpt>
      <trkpt lat="42.13458" lon="-1.59891">
        <ele>258.6</ele>
      </trkpt>
      <trkpt lat="42.13563" lon="-1.60051">
        <ele>259</ele>
      </trkpt>
      <trkpt lat="42.13691" lon="-1.60242">
        <ele>259.5</ele>
      </trkpt>
      <trkpt lat="42.13727" lon="-1.60288">
        <ele>259.2</ele>
      </trkpt>
      <trkpt lat="42.13802" lon="-1.60364">
        <ele>259.7</ele>
      </trkpt>
      <trkpt lat="42.14074" lon="-1.6063">
        <ele>259.8</ele>
      </trkpt>
      <trkpt lat="42.1411" lon="-1.60668">
        <ele>259.9</ele>
      </trkpt>
      <trkpt lat="42.14138" lon="-1.60705">
        <ele>259</ele>
      </trkpt>
      <trkpt lat="42.14163" lon="-1.60743">
        <ele>259.4</ele>
      </trkpt>
      <trkpt lat="42.14173" lon="-1.60761">
        <ele>259.2</ele>
      </trkpt>
      <trkpt lat="42.14197" lon="-1.60811">
        <ele>260.4</ele>
      </trkpt>
      <trkpt lat="42.14235" lon="-1.60896">
        <ele>259.2</ele>
      </trkpt>
      <trkpt lat="42.14404" lon="-1.6136">
        <ele>258.5</ele>
      </trkpt>
      <trkpt lat="42.14444" lon="-1.61471">
        <ele>260.9</ele>
      </trkpt>
      <trkpt lat="42.14456" lon="-1.61498">
        <ele>259.1</ele>
      </trkpt>
      <trkpt lat="42.14512" lon="-1.61619">
        <ele>259.1</ele>
      </trkpt>
      <trkpt lat="42.14565" lon="-1.61706">
        <ele>259.9</ele>
      </trkpt>
      <trkpt lat="42.14587" lon="-1.61738">
        <ele>260.4</ele>
      </trkpt>
      <trkpt lat="42.14596" lon="-1.61749">
        <ele>260.1</ele>
      </trkpt>
      <trkpt lat="42.14641" lon="-1.61817">
        <ele>260.1</ele>
      </trkpt>
      <trkpt lat="42.14675" lon="-1.61874">
        <ele>260.1</ele>
      </trkpt>
      <trkpt lat="42.14693" lon="-1.61902">
        <ele>259.9</ele>
      </trkpt>
      <trkpt lat="42.14751" lon="-1.61983">
        <ele>260.5</ele>
      </trkpt>
      <trkpt lat="42.14755" lon="-1.61993">
        <ele>259.8</ele>
      </trkpt>
      <trkpt lat="42.14767" lon="-1.62025">
        <ele>258</ele>
      </trkpt>
      <trkpt lat="42.14777" lon="-1.62059">
        <ele>259.9</ele>
      </trkpt>
      <trkpt lat="42.14791" lon="-1.62123">
        <ele>258</ele>
      </trkpt>
      <trkpt lat="42.14803" lon="-1.62192">
        <ele>260.6</ele>
      </trkpt>
      <trkpt lat="42.14811" lon="-1.62233">
        <ele>260.6</ele>
      </trkpt>
      <trkpt lat="42.14828" lon="-1.62277">
        <ele>260.6</ele>
      </trkpt>
      <trkpt lat="42.14837" lon="-1.62296">
        <ele>260.2</ele>
      </trkpt>
      <trkpt lat="42.14853" lon="-1.6233">
        <ele>259.7</ele>
      </trkpt>
      <trkpt lat="42.14873" lon="-1.62362">
        <ele>259.6</ele>
      </trkpt>
      <trkpt lat="42.14927" lon="-1.62434">
        <ele>259.9</ele>
      </trkpt>
      <trkpt lat="42.14951" lon="-1.62456">
        <ele>260.4</ele>
      </trkpt>
      <trkpt lat="42.15025" lon="-1.6252">
        <ele>260.2</ele>
      </trkpt>
      <trkpt lat="42.15109" lon="-1.62574">
        <ele>260.4</ele>
      </trkpt>
      <trkpt lat="42.15147" lon="-1.62601">
        <ele>259.7</ele>
      </trkpt>
      <trkpt lat="42.15168" lon="-1.62608">
        <ele>261.6</ele>
      </trkpt>
      <trkpt lat="42.1517" lon="-1.626">
        <ele>261</ele>
      </trkpt>
      <trkpt lat="42.15171" lon="-1.626">
        <ele>260.9</ele>
      </trkpt>
      <trkpt lat="42.15171" lon="-1.626">
        <ele>260.9</ele>
      </trkpt>
      <trkpt lat="42.15178" lon="-1.62592">
        <ele>260.2</ele>
      </trkpt>
      <trkpt lat="42.15283" lon="-1.62512">
        <ele>259.9</ele>
      </trkpt>
      <trkpt lat="42.15671" lon="-1.6223">
        <ele>259</ele>
      </trkpt>
      <trkpt lat="42.15669" lon="-1.62206">
        <ele>259.5</ele>
      </trkpt>
      <trkpt lat="42.15671" lon="-1.62195">
        <ele>259.8</ele>
      </trkpt>
      <trkpt lat="42.15674" lon="-1.62178">
        <ele>259.3</ele>
      </trkpt>
      <trkpt lat="42.15696" lon="-1.62151">
        <ele>259</ele>
      </trkpt>
      <trkpt lat="42.15763" lon="-1.62082">
        <ele>259.6</ele>
      </trkpt>
      <trkpt lat="42.15792" lon="-1.62058">
        <ele>260.5</ele>
      </trkpt>
      <trkpt lat="42.15904" lon="-1.61958">
        <ele>260</ele>
      </trkpt>
      <trkpt lat="42.15977" lon="-1.61852">
        <ele>259.6</ele>
      </trkpt>
      <trkpt lat="42.16038" lon="-1.6176">
        <ele>259.9</ele>
      </trkpt>
      <trkpt lat="42.16041" lon="-1.61756">
        <ele>259.9</ele>
      </trkpt>
      <trkpt lat="42.16124" lon="-1.61642">
        <ele>259.5</ele>
      </trkpt>
      <trkpt lat="42.16132" lon="-1.6163">
        <ele>259.4</ele>
      </trkpt>
      <trkpt lat="42.16198" lon="-1.61537">
        <ele>260</ele>
      </trkpt>
      <trkpt lat="42.16205" lon="-1.61527">
        <ele>260</ele>
      </trkpt>
      <trkpt lat="42.16241" lon="-1.61477">
        <ele>259.4</ele>
      </trkpt>
      <trkpt lat="42.16298" lon="-1.61404">
        <ele>260.1</ele>
      </trkpt>
      <trkpt lat="42.16303" lon="-1.61399">
        <ele>260.1</ele>
      </trkpt>
      <trkpt lat="42.16416" lon="-1.61244">
        <ele>260</ele>
      </trkpt>
      <trkpt lat="42.16499" lon="-1.61132">
        <ele>260</ele>
      </trkpt>
      <trkpt lat="42.16573" lon="-1.61031">
        <ele>260</ele>
      </trkpt>
      <trkpt lat="42.16638" lon="-1.60942">
        <ele>260</ele>
      </trkpt>
      <trkpt lat="42.16754" lon="-1.60754">
        <ele>259.7</ele>
      </trkpt>
      <trkpt lat="42.16758" lon="-1.60745">
        <ele>259.6</ele>
      </trkpt>
      <trkpt lat="42.16837" lon="-1.60565">
        <ele>259.7</ele>
      </trkpt>
      <trkpt lat="42.16896" lon="-1.60431">
        <ele>260</ele>
      </trkpt>
      <trkpt lat="42.16965" lon="-1.60327">
        <ele>264.2</ele>
      </trkpt>
      <trkpt lat="42.16987" lon="-1.60293">
        <ele>263.2</ele>
      </trkpt>
      <trkpt lat="42.17007" lon="-1.60255">
        <ele>262.6</ele>
      </trkpt>
      <trkpt lat="42.17029" lon="-1.602">
        <ele>260.9</ele>
      </trkpt>
      <trkpt lat="42.17048" lon="-1.60176">
        <ele>259.9</ele>
      </trkpt>
      <trkpt lat="42.17067" lon="-1.6016">
        <ele>259.9</ele>
      </trkpt>
      <trkpt lat="42.17072" lon="-1.60156">
        <ele>259.8</ele>
      </trkpt>
      <trkpt lat="42.1712" lon="-1.60111">
        <ele>260</ele>
      </trkpt>
      <trkpt lat="42.17154" lon="-1.60083">
        <ele>260</ele>
      </trkpt>
      <trkpt lat="42.17264" lon="-1.5998">
        <ele>260.2</ele>
      </trkpt>
      <trkpt lat="42.1733" lon="-1.59912">
        <ele>259.9</ele>
      </trkpt>
      <trkpt lat="42.17368" lon="-1.59871">
        <ele>260.8</ele>
      </trkpt>
      <trkpt lat="42.17413" lon="-1.59833">
        <ele>261</ele>
      </trkpt>
      <trkpt lat="42.17432" lon="-1.59819">
        <ele>261.1</ele>
      </trkpt>
      <trkpt lat="42.17454" lon="-1.59815">
        <ele>261.7</ele>
      </trkpt>
      <trkpt lat="42.17486" lon="-1.59813">
        <ele>261.5</ele>
      </trkpt>
      <trkpt lat="42.175" lon="-1.59832">
        <ele>262</ele>
      </trkpt>
      <trkpt lat="42.17503" lon="-1.59828">
        <ele>261.8</ele>
      </trkpt>
      <trkpt lat="42.1753" lon="-1.5979">
        <ele>261</ele>
      </trkpt>
      <trkpt lat="42.17557" lon="-1.59753">
        <ele>261.1</ele>
      </trkpt>
      <trkpt lat="42.17545" lon="-1.59723">
        <ele>261.4</ele>
      </trkpt>
      <trkpt lat="42.17541" lon="-1.59715">
        <ele>261.6</ele>
      </trkpt>
      <trkpt lat="42.17561" lon="-1.5968">
        <ele>262.7</ele>
      </trkpt>
      <trkpt lat="42.17562" lon="-1.59674">
        <ele>263</ele>
      </trkpt>
      <trkpt lat="42.17573" lon="-1.5966">
        <ele>263.6</ele>
      </trkpt>
      <trkpt lat="42.17591" lon="-1.59653">
        <ele>264</ele>
      </trkpt>
      <trkpt lat="42.17601" lon="-1.59654">
        <ele>264</ele>
      </trkpt>
      <trkpt lat="42.17607" lon="-1.59657">
        <ele>264</ele>
      </trkpt>
      <trkpt lat="42.1763" lon="-1.59626">
        <ele>265.2</ele>
      </trkpt>
      <trkpt lat="42.17621" lon="-1.59618">
        <ele>264.9</ele>
      </trkpt>
      <trkpt lat="42.17637" lon="-1.59574">
        <ele>267.6</ele>
      </trkpt>
      <trkpt lat="42.1764" lon="-1.59571">
        <ele>268.1</ele>
      </trkpt>
    </trkseg>
  </trk>
</gpx>